<?xml version='1.0' encoding='UTF-8'?><gpx version="1.1" creator="JPX - https://github.com/jenetics/jpx" xmlns="http://www.topografix.com/GPX/1/1"><trk><trkseg><trkpt lat="43.5457167" lon="11.227545"><ele>352.0</ele><time>2026-04-18T09:09:46.097Z</time></trkpt><trkpt lat="43.5457533" lon="11.2274617"><ele>352.0</ele><time>2026-04-18T09:09:52.097Z</time></trkpt><trkpt lat="43.5457883" lon="11.2275383"><ele>352.0</ele><time>2026-04-18T09:17:53.094Z</time></trkpt><trkpt lat="43.5457617" lon="11.227425"><ele>352.0</ele><time>2026-04-18T09:18:37.094Z</time></trkpt><trkpt lat="43.5458217" lon="11.2275417"><ele>352.0</ele><time>2026-04-18T09:19:33.094Z</time></trkpt><trkpt lat="43.54578" lon="11.2274717"><ele>352.0</ele><time>2026-04-18T09:20:10.094Z</time></trkpt><trkpt lat="43.5458267" lon="11.22753"><ele>352.0</ele><time>2026-04-18T09:20:50.094Z</time></trkpt><trkpt lat="43.545825" lon="11.22743"><ele>352.0</ele><time>2026-04-18T09:23:03.094Z</time></trkpt><trkpt lat="43.5457733" lon="11.2274867"><ele>352.0</ele><time>2026-04-18T09:23:11.093Z</time></trkpt><trkpt lat="43.54583" lon="11.227445"><ele>352.0</ele><time>2026-04-18T09:23:40.093Z</time></trkpt><trkpt lat="43.545785" lon="11.2275067"><ele>352.0</ele><time>2026-04-18T09:23:48.093Z</time></trkpt><trkpt lat="43.5457983" lon="11.227605"><ele>352.0</ele><time>2026-04-18T09:24:24.093Z</time></trkpt><trkpt lat="43.54578" lon="11.2275217"><ele>352.0</ele><time>2026-04-18T09:24:43.093Z</time></trkpt><trkpt lat="43.5457883" lon="11.2274167"><ele>352.0</ele><time>2026-04-18T09:25:15.092Z</time></trkpt><trkpt lat="43.5457967" lon="11.2275167"><ele>352.0</ele><time>2026-04-18T09:25:24.092Z</time></trkpt><trkpt lat="43.5457322" lon="11.2275765"><ele>352.0</ele><time>2026-04-18T09:31:35.115Z</time></trkpt><trkpt lat="43.5456862" lon="11.2276565"><ele>352.0</ele><time>2026-04-18T09:35:39.102Z</time></trkpt><trkpt lat="43.5456329" lon="11.2277555"><ele>352.0</ele><time>2026-04-18T09:35:42.964Z</time></trkpt><trkpt lat="43.5455506" lon="11.2278644"><ele>352.0</ele><time>2026-04-18T09:35:46.088Z</time></trkpt><trkpt lat="43.5454472" lon="11.2279479"><ele>351.5</ele><time>2026-04-18T09:35:47.088Z</time></trkpt><trkpt lat="43.5453482" lon="11.2280213"><ele>351.0</ele><time>2026-04-18T09:35:48.088Z</time></trkpt><trkpt lat="43.5452472" lon="11.2280988"><ele>350.5</ele><time>2026-04-18T09:35:49.088Z</time></trkpt><trkpt lat="43.5451424" lon="11.2281813"><ele>350.0</ele><time>2026-04-18T09:35:50.088Z</time></trkpt><trkpt lat="43.5450282" lon="11.2282665"><ele>351.75</ele><time>2026-04-18T09:35:51.089Z</time></trkpt><trkpt lat="43.544912" lon="11.2283554"><ele>353.5</ele><time>2026-04-18T09:35:52.089Z</time></trkpt><trkpt lat="43.5447932" lon="11.2284467"><ele>355.25</ele><time>2026-04-18T09:35:53.088Z</time></trkpt><trkpt lat="43.5446748" lon="11.2285431"><ele>357.0</ele><time>2026-04-18T09:35:54.088Z</time></trkpt><trkpt lat="43.5445563" lon="11.2286461"><ele>357.25</ele><time>2026-04-18T09:35:55.088Z</time></trkpt><trkpt lat="43.5444366" lon="11.2287472"><ele>357.5</ele><time>2026-04-18T09:35:56.089Z</time></trkpt><trkpt lat="43.5443152" lon="11.2288487"><ele>357.75</ele><time>2026-04-18T09:35:57.089Z</time></trkpt><trkpt lat="43.5441906" lon="11.2289541"><ele>358.0</ele><time>2026-04-18T09:35:58.088Z</time></trkpt><trkpt lat="43.5440663" lon="11.2290592"><ele>359.66666666666663</ele><time>2026-04-18T09:35:59.088Z</time></trkpt><trkpt lat="43.5439323" lon="11.2291633"><ele>361.3333333333333</ele><time>2026-04-18T09:36:00.088Z</time></trkpt><trkpt lat="43.5437955" lon="11.2292692"><ele>363.0</ele><time>2026-04-18T09:36:01.088Z</time></trkpt><trkpt lat="43.5436587" lon="11.2293767"><ele>363.6666666666667</ele><time>2026-04-18T09:36:02.088Z</time></trkpt><trkpt lat="43.5435176" lon="11.2294851"><ele>364.33333333333337</ele><time>2026-04-18T09:36:03.088Z</time></trkpt><trkpt lat="43.5433709" lon="11.2295919"><ele>365.0</ele><time>2026-04-18T09:36:04.089Z</time></trkpt><trkpt lat="43.5432158" lon="11.2296828"><ele>365.0</ele><time>2026-04-18T09:36:05.088Z</time></trkpt><trkpt lat="43.5430539" lon="11.2297695"><ele>365.0</ele><time>2026-04-18T09:36:06.088Z</time></trkpt><trkpt lat="43.5428814" lon="11.2298427"><ele>365.0</ele><time>2026-04-18T09:36:07.089Z</time></trkpt><trkpt lat="43.5427046" lon="11.2298994"><ele>365.0</ele><time>2026-04-18T09:36:08.089Z</time></trkpt><trkpt lat="43.5425333" lon="11.2299668"><ele>365.0</ele><time>2026-04-18T09:36:09.088Z</time></trkpt><trkpt lat="43.5423587" lon="11.2300343"><ele>365.0</ele><time>2026-04-18T09:36:10.088Z</time></trkpt><trkpt lat="43.5421846" lon="11.2301049"><ele>365.33333333333337</ele><time>2026-04-18T09:36:11.088Z</time></trkpt><trkpt lat="43.542008" lon="11.230168"><ele>365.6666666666667</ele><time>2026-04-18T09:36:12.089Z</time></trkpt><trkpt lat="43.5418285" lon="11.2302243"><ele>366.0</ele><time>2026-04-18T09:36:13.088Z</time></trkpt><trkpt lat="43.5416487" lon="11.2302914"><ele>366.0</ele><time>2026-04-18T09:36:14.088Z</time></trkpt><trkpt lat="43.5414742" lon="11.2303576"><ele>366.0</ele><time>2026-04-18T09:36:15.088Z</time></trkpt><trkpt lat="43.5412907" lon="11.2304144"><ele>366.0</ele><time>2026-04-18T09:36:16.088Z</time></trkpt><trkpt lat="43.5411073" lon="11.2304865"><ele>366.6666666666667</ele><time>2026-04-18T09:36:17.088Z</time></trkpt><trkpt lat="43.5409225" lon="11.230554"><ele>367.33333333333337</ele><time>2026-04-18T09:36:18.088Z</time></trkpt><trkpt lat="43.540736" lon="11.2306357"><ele>368.0</ele><time>2026-04-18T09:36:19.089Z</time></trkpt><trkpt lat="43.5405581" lon="11.2307173"><ele>369.6666666666667</ele><time>2026-04-18T09:36:20.088Z</time></trkpt><trkpt lat="43.5403772" lon="11.2308017"><ele>371.3333333333333</ele><time>2026-04-18T09:36:21.088Z</time></trkpt><trkpt lat="43.5402039" lon="11.2309029"><ele>373.0</ele><time>2026-04-18T09:36:22.089Z</time></trkpt><trkpt lat="43.5400296" lon="11.2309952"><ele>373.0</ele><time>2026-04-18T09:36:23.088Z</time></trkpt><trkpt lat="43.5398548" lon="11.2310835"><ele>373.0</ele><time>2026-04-18T09:36:24.088Z</time></trkpt><trkpt lat="43.5396841" lon="11.2311767"><ele>373.0</ele><time>2026-04-18T09:36:25.088Z</time></trkpt><trkpt lat="43.5395014" lon="11.2312734"><ele>373.0</ele><time>2026-04-18T09:36:26.088Z</time></trkpt><trkpt lat="43.5393226" lon="11.2313722"><ele>373.0</ele><time>2026-04-18T09:36:27.088Z</time></trkpt><trkpt lat="43.5391553" lon="11.2314694"><ele>373.0</ele><time>2026-04-18T09:36:28.088Z</time></trkpt><trkpt lat="43.5389992" lon="11.2315746"><ele>373.0</ele><time>2026-04-18T09:36:29.088Z</time></trkpt><trkpt lat="43.5388616" lon="11.231674"><ele>373.0</ele><time>2026-04-18T09:36:30.088Z</time></trkpt><trkpt lat="43.5387356" lon="11.2317898"><ele>373.0</ele><time>2026-04-18T09:36:31.088Z</time></trkpt><trkpt lat="43.5386258" lon="11.2319268"><ele>374.3333333333333</ele><time>2026-04-18T09:36:32.088Z</time></trkpt><trkpt lat="43.5385369" lon="11.2321059"><ele>375.6666666666667</ele><time>2026-04-18T09:36:33.088Z</time></trkpt><trkpt lat="43.5384747" lon="11.2323211"><ele>377.0</ele><time>2026-04-18T09:36:34.088Z</time></trkpt><trkpt lat="43.5384236" lon="11.2325559"><ele>377.0</ele><time>2026-04-18T09:36:35.089Z</time></trkpt><trkpt lat="43.538388" lon="11.2328037"><ele>377.0</ele><time>2026-04-18T09:36:36.089Z</time></trkpt><trkpt lat="43.5383646" lon="11.2330633"><ele>377.0</ele><time>2026-04-18T09:36:37.088Z</time></trkpt><trkpt lat="43.5383592" lon="11.2333214"><ele>377.33333333333337</ele><time>2026-04-18T09:36:38.088Z</time></trkpt><trkpt lat="43.5383519" lon="11.2335782"><ele>377.6666666666667</ele><time>2026-04-18T09:36:39.088Z</time></trkpt><trkpt lat="43.5383478" lon="11.2338277"><ele>378.0</ele><time>2026-04-18T09:36:40.088Z</time></trkpt><trkpt lat="43.538336" lon="11.2340757"><ele>380.33333333333337</ele><time>2026-04-18T09:36:41.089Z</time></trkpt><trkpt lat="43.5383299" lon="11.2343238"><ele>382.6666666666667</ele><time>2026-04-18T09:36:42.088Z</time></trkpt><trkpt lat="43.5383206" lon="11.2345704"><ele>385.0</ele><time>2026-04-18T09:36:43.089Z</time></trkpt><trkpt lat="43.5383045" lon="11.2348186"><ele>387.33333333333337</ele><time>2026-04-18T09:36:44.089Z</time></trkpt><trkpt lat="43.5382899" lon="11.2350726"><ele>389.66666666666663</ele><time>2026-04-18T09:36:45.088Z</time></trkpt><trkpt lat="43.5382773" lon="11.2353231"><ele>392.0</ele><time>2026-04-18T09:36:46.089Z</time></trkpt><trkpt lat="43.5382515" lon="11.2355451"><ele>393.0</ele><time>2026-04-18T09:36:47.088Z</time></trkpt><trkpt lat="43.5382144" lon="11.2357584"><ele>394.0</ele><time>2026-04-18T09:36:48.089Z</time></trkpt><trkpt lat="43.5381536" lon="11.2359676"><ele>395.0</ele><time>2026-04-18T09:36:49.089Z</time></trkpt><trkpt lat="43.538067" lon="11.2361551"><ele>395.0</ele><time>2026-04-18T09:36:50.088Z</time></trkpt><trkpt lat="43.5379558" lon="11.2363217"><ele>395.0</ele><time>2026-04-18T09:36:51.088Z</time></trkpt><trkpt lat="43.5378145" lon="11.2364672"><ele>395.0</ele><time>2026-04-18T09:36:52.088Z</time></trkpt><trkpt lat="43.5376575" lon="11.2365968"><ele>395.0</ele><time>2026-04-18T09:36:53.089Z</time></trkpt><trkpt lat="43.5374954" lon="11.2367199"><ele>395.0</ele><time>2026-04-18T09:36:54.088Z</time></trkpt><trkpt lat="43.5373402" lon="11.2368505"><ele>395.0</ele><time>2026-04-18T09:36:55.088Z</time></trkpt><trkpt lat="43.5371879" lon="11.2369848"><ele>396.66666666666663</ele><time>2026-04-18T09:36:56.089Z</time></trkpt><trkpt lat="43.5370325" lon="11.2371336"><ele>398.33333333333337</ele><time>2026-04-18T09:36:57.088Z</time></trkpt><trkpt lat="43.5368928" lon="11.2372974"><ele>400.0</ele><time>2026-04-18T09:36:58.089Z</time></trkpt><trkpt lat="43.5367655" lon="11.2374784"><ele>400.0</ele><time>2026-04-18T09:36:59.088Z</time></trkpt><trkpt lat="43.5366609" lon="11.2376829"><ele>400.0</ele><time>2026-04-18T09:37:00.089Z</time></trkpt><trkpt lat="43.5365742" lon="11.2379062"><ele>400.0</ele><time>2026-04-18T09:37:01.088Z</time></trkpt><trkpt lat="43.5365017" lon="11.238128"><ele>399.33333333333337</ele><time>2026-04-18T09:37:02.088Z</time></trkpt><trkpt lat="43.5364332" lon="11.2383618"><ele>398.66666666666663</ele><time>2026-04-18T09:37:03.089Z</time></trkpt><trkpt lat="43.5363648" lon="11.2385955"><ele>398.0</ele><time>2026-04-18T09:37:04.088Z</time></trkpt><trkpt lat="43.5362904" lon="11.2388244"><ele>399.0</ele><time>2026-04-18T09:37:05.089Z</time></trkpt><trkpt lat="43.536217" lon="11.2390499"><ele>400.0</ele><time>2026-04-18T09:37:06.088Z</time></trkpt><trkpt lat="43.5361398" lon="11.2392873"><ele>401.0</ele><time>2026-04-18T09:37:07.088Z</time></trkpt><trkpt lat="43.5360479" lon="11.239514"><ele>401.0</ele><time>2026-04-18T09:37:08.088Z</time></trkpt><trkpt lat="43.535945" lon="11.2397284"><ele>401.0</ele><time>2026-04-18T09:37:09.088Z</time></trkpt><trkpt lat="43.53583" lon="11.2399393"><ele>401.0</ele><time>2026-04-18T09:37:10.088Z</time></trkpt><trkpt lat="43.5357056" lon="11.2401474"><ele>399.3333333333333</ele><time>2026-04-18T09:37:11.088Z</time></trkpt><trkpt lat="43.5355817" lon="11.2403474"><ele>397.66666666666663</ele><time>2026-04-18T09:37:12.088Z</time></trkpt><trkpt lat="43.5354483" lon="11.240535"><ele>396.0</ele><time>2026-04-18T09:37:13.089Z</time></trkpt><trkpt lat="43.5353028" lon="11.2407145"><ele>394.0</ele><time>2026-04-18T09:37:14.088Z</time></trkpt><trkpt lat="43.5351391" lon="11.2408716"><ele>392.0</ele><time>2026-04-18T09:37:15.089Z</time></trkpt><trkpt lat="43.5349658" lon="11.2410162"><ele>390.0</ele><time>2026-04-18T09:37:16.088Z</time></trkpt><trkpt lat="43.5348076" lon="11.2411523"><ele>390.0</ele><time>2026-04-18T09:37:17.088Z</time></trkpt><trkpt lat="43.5346561" lon="11.2412773"><ele>390.0</ele><time>2026-04-18T09:37:18.088Z</time></trkpt><trkpt lat="43.5344988" lon="11.2413874"><ele>390.0</ele><time>2026-04-18T09:37:19.088Z</time></trkpt><trkpt lat="43.5343355" lon="11.2414859"><ele>389.33333333333337</ele><time>2026-04-18T09:37:20.088Z</time></trkpt><trkpt lat="43.534169" lon="11.2415675"><ele>388.6666666666667</ele><time>2026-04-18T09:37:21.089Z</time></trkpt><trkpt lat="43.5340019" lon="11.2416466"><ele>388.0</ele><time>2026-04-18T09:37:22.089Z</time></trkpt><trkpt lat="43.5338353" lon="11.2417173"><ele>387.5</ele><time>2026-04-18T09:37:23.089Z</time></trkpt><trkpt lat="43.5336883" lon="11.2417749"><ele>387.0</ele><time>2026-04-18T09:37:24.089Z</time></trkpt><trkpt lat="43.5335557" lon="11.2418187"><ele>386.5</ele><time>2026-04-18T09:37:25.088Z</time></trkpt><trkpt lat="43.5334486" lon="11.2418551"><ele>386.0</ele><time>2026-04-18T09:37:26.088Z</time></trkpt><trkpt lat="43.5333796" lon="11.241877"><ele>386.0</ele><time>2026-04-18T09:37:27.088Z</time></trkpt><trkpt lat="43.533285" lon="11.2418867"><ele>386.0</ele><time>2026-04-18T09:38:23.089Z</time></trkpt><trkpt lat="43.5331683" lon="11.24193"><ele>386.0</ele><time>2026-04-18T09:38:25.089Z</time></trkpt><trkpt lat="43.5330767" lon="11.2419417"><ele>386.0</ele><time>2026-04-18T09:38:26.089Z</time></trkpt><trkpt lat="43.5329617" lon="11.2419517"><ele>386.0</ele><time>2026-04-18T09:38:27.088Z</time></trkpt><trkpt lat="43.53283" lon="11.2419683"><ele>386.5</ele><time>2026-04-18T09:38:28.088Z</time></trkpt><trkpt lat="43.532695" lon="11.2419767"><ele>387.0</ele><time>2026-04-18T09:38:29.089Z</time></trkpt><trkpt lat="43.5325633" lon="11.2419683"><ele>387.5</ele><time>2026-04-18T09:38:30.088Z</time></trkpt><trkpt lat="43.5324333" lon="11.2419617"><ele>388.0</ele><time>2026-04-18T09:38:31.088Z</time></trkpt><trkpt lat="43.532315" lon="11.2419583"><ele>388.0</ele><time>2026-04-18T09:38:32.088Z</time></trkpt><trkpt lat="43.5321933" lon="11.2419683"><ele>388.0</ele><time>2026-04-18T09:38:33.089Z</time></trkpt><trkpt lat="43.53206" lon="11.2419633"><ele>388.0</ele><time>2026-04-18T09:38:34.088Z</time></trkpt><trkpt lat="43.5319317" lon="11.2419433"><ele>388.0</ele><time>2026-04-18T09:38:35.088Z</time></trkpt><trkpt lat="43.5318117" lon="11.2418833"><ele>389.25</ele><time>2026-04-18T09:38:36.088Z</time></trkpt><trkpt lat="43.53169" lon="11.2418117"><ele>390.5</ele><time>2026-04-18T09:38:37.088Z</time></trkpt><trkpt lat="43.5315717" lon="11.2417367"><ele>391.75</ele><time>2026-04-18T09:38:38.088Z</time></trkpt><trkpt lat="43.5314467" lon="11.2416467"><ele>393.0</ele><time>2026-04-18T09:38:39.089Z</time></trkpt><trkpt lat="43.531325" lon="11.2415383"><ele>394.66666666666663</ele><time>2026-04-18T09:38:40.089Z</time></trkpt><trkpt lat="43.5311917" lon="11.241435"><ele>396.3333333333333</ele><time>2026-04-18T09:38:41.088Z</time></trkpt><trkpt lat="43.5310567" lon="11.2413283"><ele>398.0</ele><time>2026-04-18T09:38:42.088Z</time></trkpt><trkpt lat="43.5309267" lon="11.24123"><ele>398.0</ele><time>2026-04-18T09:38:43.088Z</time></trkpt><trkpt lat="43.5307983" lon="11.24114"><ele>398.0</ele><time>2026-04-18T09:38:44.088Z</time></trkpt><trkpt lat="43.5306683" lon="11.2410467"><ele>398.0</ele><time>2026-04-18T09:38:45.088Z</time></trkpt><trkpt lat="43.5305217" lon="11.2409533"><ele>398.66666666666663</ele><time>2026-04-18T09:38:46.088Z</time></trkpt><trkpt lat="43.530365" lon="11.2408683"><ele>399.33333333333337</ele><time>2026-04-18T09:38:47.088Z</time></trkpt><trkpt lat="43.530195" lon="11.2407967"><ele>400.0</ele><time>2026-04-18T09:38:48.088Z</time></trkpt><trkpt lat="43.5300117" lon="11.2407383"><ele>400.0</ele><time>2026-04-18T09:38:49.088Z</time></trkpt><trkpt lat="43.5298267" lon="11.2406783"><ele>400.0</ele><time>2026-04-18T09:38:50.089Z</time></trkpt><trkpt lat="43.5296383" lon="11.2406217"><ele>400.0</ele><time>2026-04-18T09:38:51.089Z</time></trkpt><trkpt lat="43.5294433" lon="11.2405567"><ele>397.33333333333337</ele><time>2026-04-18T09:38:52.089Z</time></trkpt><trkpt lat="43.529255" lon="11.2404733"><ele>394.66666666666663</ele><time>2026-04-18T09:38:53.088Z</time></trkpt><trkpt lat="43.5290733" lon="11.2403667"><ele>392.0</ele><time>2026-04-18T09:38:54.088Z</time></trkpt><trkpt lat="43.5288917" lon="11.2402467"><ele>394.0</ele><time>2026-04-18T09:38:55.089Z</time></trkpt><trkpt lat="43.52871" lon="11.2401183"><ele>396.0</ele><time>2026-04-18T09:38:56.089Z</time></trkpt><trkpt lat="43.5285233" lon="11.2399883"><ele>398.0</ele><time>2026-04-18T09:38:57.089Z</time></trkpt><trkpt lat="43.52834" lon="11.23986"><ele>399.0</ele><time>2026-04-18T09:38:58.088Z</time></trkpt><trkpt lat="43.528165" lon="11.2397283"><ele>400.0</ele><time>2026-04-18T09:38:59.089Z</time></trkpt><trkpt lat="43.5279867" lon="11.2395983"><ele>401.0</ele><time>2026-04-18T09:39:00.089Z</time></trkpt><trkpt lat="43.5278" lon="11.2394783"><ele>401.0</ele><time>2026-04-18T09:39:01.087Z</time></trkpt><trkpt lat="43.527615" lon="11.23936"><ele>401.0</ele><time>2026-04-18T09:39:02.087Z</time></trkpt><trkpt lat="43.5274217" lon="11.2392533"><ele>401.0</ele><time>2026-04-18T09:39:03.087Z</time></trkpt><trkpt lat="43.5272217" lon="11.239165"><ele>401.3333333333333</ele><time>2026-04-18T09:39:04.087Z</time></trkpt><trkpt lat="43.5270217" lon="11.2390883"><ele>401.66666666666663</ele><time>2026-04-18T09:39:05.088Z</time></trkpt><trkpt lat="43.5268217" lon="11.2390183"><ele>402.0</ele><time>2026-04-18T09:39:06.087Z</time></trkpt><trkpt lat="43.52662" lon="11.2389517"><ele>402.0</ele><time>2026-04-18T09:39:07.088Z</time></trkpt><trkpt lat="43.5264133" lon="11.2388733"><ele>402.0</ele><time>2026-04-18T09:39:08.088Z</time></trkpt><trkpt lat="43.5262133" lon="11.2387817"><ele>402.0</ele><time>2026-04-18T09:39:09.087Z</time></trkpt><trkpt lat="43.5260033" lon="11.2386983"><ele>403.33333333333337</ele><time>2026-04-18T09:39:10.088Z</time></trkpt><trkpt lat="43.5258017" lon="11.2386217"><ele>404.6666666666667</ele><time>2026-04-18T09:39:11.087Z</time></trkpt><trkpt lat="43.5256183" lon="11.2385467"><ele>406.0</ele><time>2026-04-18T09:39:12.087Z</time></trkpt><trkpt lat="43.525445" lon="11.2384767"><ele>406.0</ele><time>2026-04-18T09:39:13.088Z</time></trkpt><trkpt lat="43.52529" lon="11.2384217"><ele>406.0</ele><time>2026-04-18T09:39:14.088Z</time></trkpt><trkpt lat="43.52514" lon="11.23841"><ele>406.0</ele><time>2026-04-18T09:39:15.088Z</time></trkpt><trkpt lat="43.5249883" lon="11.2384467"><ele>406.0</ele><time>2026-04-18T09:39:16.087Z</time></trkpt><trkpt lat="43.524845" lon="11.2385417"><ele>406.0</ele><time>2026-04-18T09:39:17.088Z</time></trkpt><trkpt lat="43.52471" lon="11.2386817"><ele>406.0</ele><time>2026-04-18T09:39:18.087Z</time></trkpt><trkpt lat="43.524585" lon="11.238845"><ele>407.33333333333337</ele><time>2026-04-18T09:39:19.087Z</time></trkpt><trkpt lat="43.52447" lon="11.2390217"><ele>408.66666666666663</ele><time>2026-04-18T09:39:20.087Z</time></trkpt><trkpt lat="43.5243767" lon="11.2392217"><ele>410.0</ele><time>2026-04-18T09:39:21.087Z</time></trkpt><trkpt lat="43.5243083" lon="11.2394417"><ele>410.0</ele><time>2026-04-18T09:39:22.087Z</time></trkpt><trkpt lat="43.5242417" lon="11.2396717"><ele>410.0</ele><time>2026-04-18T09:39:23.088Z</time></trkpt><trkpt lat="43.5241567" lon="11.23989"><ele>410.0</ele><time>2026-04-18T09:39:24.087Z</time></trkpt><trkpt lat="43.52405" lon="11.2400967"><ele>411.3333333333333</ele><time>2026-04-18T09:39:25.088Z</time></trkpt><trkpt lat="43.5239433" lon="11.2402817"><ele>412.66666666666663</ele><time>2026-04-18T09:39:26.087Z</time></trkpt><trkpt lat="43.5238233" lon="11.2404583"><ele>414.0</ele><time>2026-04-18T09:39:27.087Z</time></trkpt><trkpt lat="43.52369" lon="11.2406017"><ele>415.33333333333337</ele><time>2026-04-18T09:39:28.087Z</time></trkpt><trkpt lat="43.5235433" lon="11.2407083"><ele>416.6666666666667</ele><time>2026-04-18T09:39:29.087Z</time></trkpt><trkpt lat="43.5233767" lon="11.2407933"><ele>418.0</ele><time>2026-04-18T09:39:30.088Z</time></trkpt><trkpt lat="43.5232017" lon="11.2408783"><ele>418.0</ele><time>2026-04-18T09:39:31.087Z</time></trkpt><trkpt lat="43.5230267" lon="11.2409783"><ele>418.0</ele><time>2026-04-18T09:39:32.087Z</time></trkpt><trkpt lat="43.5228583" lon="11.2410983"><ele>418.0</ele><time>2026-04-18T09:39:33.088Z</time></trkpt><trkpt lat="43.5227067" lon="11.2412617"><ele>417.6666666666667</ele><time>2026-04-18T09:39:34.087Z</time></trkpt><trkpt lat="43.5225633" lon="11.24145"><ele>417.33333333333337</ele><time>2026-04-18T09:39:35.087Z</time></trkpt><trkpt lat="43.522425" lon="11.241645"><ele>417.0</ele><time>2026-04-18T09:39:36.087Z</time></trkpt><trkpt lat="43.5223083" lon="11.24187"><ele>417.66666666666663</ele><time>2026-04-18T09:39:37.087Z</time></trkpt><trkpt lat="43.5222117" lon="11.2420983"><ele>418.3333333333333</ele><time>2026-04-18T09:39:38.088Z</time></trkpt><trkpt lat="43.5221283" lon="11.2423367"><ele>419.0</ele><time>2026-04-18T09:39:39.087Z</time></trkpt><trkpt lat="43.52206" lon="11.2425783"><ele>421.3333333333333</ele><time>2026-04-18T09:39:40.087Z</time></trkpt><trkpt lat="43.5220033" lon="11.2428183"><ele>423.66666666666663</ele><time>2026-04-18T09:39:41.087Z</time></trkpt><trkpt lat="43.5219517" lon="11.2430583"><ele>426.0</ele><time>2026-04-18T09:39:42.087Z</time></trkpt><trkpt lat="43.5218933" lon="11.2432983"><ele>427.0</ele><time>2026-04-18T09:39:43.087Z</time></trkpt><trkpt lat="43.5218367" lon="11.2435417"><ele>428.0</ele><time>2026-04-18T09:39:44.088Z</time></trkpt><trkpt lat="43.52178" lon="11.2437917"><ele>429.0</ele><time>2026-04-18T09:39:45.088Z</time></trkpt><trkpt lat="43.5217233" lon="11.244045"><ele>429.0</ele><time>2026-04-18T09:39:46.088Z</time></trkpt><trkpt lat="43.5216683" lon="11.244295"><ele>429.0</ele><time>2026-04-18T09:39:47.087Z</time></trkpt><trkpt lat="43.5216183" lon="11.24454"><ele>429.0</ele><time>2026-04-18T09:39:48.087Z</time></trkpt><trkpt lat="43.5215617" lon="11.2447717"><ele>429.33333333333337</ele><time>2026-04-18T09:39:49.087Z</time></trkpt><trkpt lat="43.5214933" lon="11.2450017"><ele>429.6666666666667</ele><time>2026-04-18T09:39:50.087Z</time></trkpt><trkpt lat="43.5213917" lon="11.24522"><ele>430.0</ele><time>2026-04-18T09:39:51.088Z</time></trkpt><trkpt lat="43.52128" lon="11.2454183"><ele>429.0</ele><time>2026-04-18T09:39:52.087Z</time></trkpt><trkpt lat="43.5211383" lon="11.2455833"><ele>428.0</ele><time>2026-04-18T09:39:53.088Z</time></trkpt><trkpt lat="43.5209767" lon="11.2457233"><ele>427.0</ele><time>2026-04-18T09:39:54.088Z</time></trkpt><trkpt lat="43.52081" lon="11.2458267"><ele>427.0</ele><time>2026-04-18T09:39:55.088Z</time></trkpt><trkpt lat="43.5206417" lon="11.2459267"><ele>427.0</ele><time>2026-04-18T09:39:56.087Z</time></trkpt><trkpt lat="43.5204733" lon="11.2460317"><ele>427.0</ele><time>2026-04-18T09:39:57.088Z</time></trkpt><trkpt lat="43.5203033" lon="11.246125"><ele>426.6666666666667</ele><time>2026-04-18T09:39:58.088Z</time></trkpt><trkpt lat="43.520135" lon="11.2462333"><ele>426.33333333333337</ele><time>2026-04-18T09:39:59.087Z</time></trkpt><trkpt lat="43.519975" lon="11.2463733"><ele>426.0</ele><time>2026-04-18T09:40:00.087Z</time></trkpt><trkpt lat="43.5198167" lon="11.2465333"><ele>426.0</ele><time>2026-04-18T09:40:01.088Z</time></trkpt><trkpt lat="43.519665" lon="11.2467133"><ele>426.0</ele><time>2026-04-18T09:40:02.087Z</time></trkpt><trkpt lat="43.5195133" lon="11.2469017"><ele>426.0</ele><time>2026-04-18T09:40:03.087Z</time></trkpt><trkpt lat="43.5193517" lon="11.2470783"><ele>424.0</ele><time>2026-04-18T09:40:04.087Z</time></trkpt><trkpt lat="43.5191817" lon="11.2472567"><ele>422.0</ele><time>2026-04-18T09:40:05.087Z</time></trkpt><trkpt lat="43.5190033" lon="11.2474233"><ele>420.0</ele><time>2026-04-18T09:40:06.088Z</time></trkpt><trkpt lat="43.5188167" lon="11.24758"><ele>417.66666666666663</ele><time>2026-04-18T09:40:07.088Z</time></trkpt><trkpt lat="43.5186333" lon="11.247725"><ele>415.3333333333333</ele><time>2026-04-18T09:40:08.087Z</time></trkpt><trkpt lat="43.5184467" lon="11.2478483"><ele>413.0</ele><time>2026-04-18T09:40:09.087Z</time></trkpt><trkpt lat="43.5182583" lon="11.2479533"><ele>413.0</ele><time>2026-04-18T09:40:10.087Z</time></trkpt><trkpt lat="43.5180617" lon="11.2480217"><ele>413.0</ele><time>2026-04-18T09:40:11.088Z</time></trkpt><trkpt lat="43.5178667" lon="11.24807"><ele>413.0</ele><time>2026-04-18T09:40:12.088Z</time></trkpt><trkpt lat="43.5176767" lon="11.248105"><ele>412.0</ele><time>2026-04-18T09:40:13.087Z</time></trkpt><trkpt lat="43.5174717" lon="11.24812"><ele>411.0</ele><time>2026-04-18T09:40:14.087Z</time></trkpt><trkpt lat="43.5172767" lon="11.2481"><ele>410.0</ele><time>2026-04-18T09:40:15.088Z</time></trkpt><trkpt lat="43.517085" lon="11.248065"><ele>412.66666666666663</ele><time>2026-04-18T09:40:16.088Z</time></trkpt><trkpt lat="43.516895" lon="11.24801"><ele>415.33333333333337</ele><time>2026-04-18T09:40:17.088Z</time></trkpt><trkpt lat="43.5167117" lon="11.2479467"><ele>418.0</ele><time>2026-04-18T09:40:18.087Z</time></trkpt><trkpt lat="43.516535" lon="11.2478467"><ele>418.0</ele><time>2026-04-18T09:40:19.087Z</time></trkpt><trkpt lat="43.5163683" lon="11.247715"><ele>418.0</ele><time>2026-04-18T09:40:20.087Z</time></trkpt><trkpt lat="43.5162217" lon="11.2475683"><ele>418.0</ele><time>2026-04-18T09:40:21.087Z</time></trkpt><trkpt lat="43.5160717" lon="11.2474367"><ele>420.6666666666667</ele><time>2026-04-18T09:40:22.087Z</time></trkpt><trkpt lat="43.5159117" lon="11.2472933"><ele>423.33333333333337</ele><time>2026-04-18T09:40:23.088Z</time></trkpt><trkpt lat="43.51574" lon="11.2471733"><ele>426.0</ele><time>2026-04-18T09:40:24.087Z</time></trkpt><trkpt lat="43.5155683" lon="11.2470767"><ele>428.66666666666663</ele><time>2026-04-18T09:40:25.087Z</time></trkpt><trkpt lat="43.5153933" lon="11.246995"><ele>431.3333333333333</ele><time>2026-04-18T09:40:26.087Z</time></trkpt><trkpt lat="43.5152233" lon="11.2469183"><ele>434.0</ele><time>2026-04-18T09:40:27.087Z</time></trkpt><trkpt lat="43.51504" lon="11.2468783"><ele>434.0</ele><time>2026-04-18T09:40:28.087Z</time></trkpt><trkpt lat="43.514855" lon="11.24687"><ele>434.0</ele><time>2026-04-18T09:40:29.088Z</time></trkpt><trkpt lat="43.5146917" lon="11.2468767"><ele>434.0</ele><time>2026-04-18T09:40:30.087Z</time></trkpt><trkpt lat="43.5145367" lon="11.24685"><ele>439.0</ele><time>2026-04-18T09:40:31.087Z</time></trkpt><trkpt lat="43.5143783" lon="11.2467667"><ele>444.0</ele><time>2026-04-18T09:40:32.088Z</time></trkpt><trkpt lat="43.5142233" lon="11.2466333"><ele>449.0</ele><time>2026-04-18T09:40:33.087Z</time></trkpt><trkpt lat="43.51407" lon="11.2464967"><ele>448.3333333333333</ele><time>2026-04-18T09:40:34.087Z</time></trkpt><trkpt lat="43.5139483" lon="11.24635"><ele>447.66666666666663</ele><time>2026-04-18T09:40:35.087Z</time></trkpt><trkpt lat="43.5138533" lon="11.2461933"><ele>447.0</ele><time>2026-04-18T09:40:36.087Z</time></trkpt><trkpt lat="43.5137933" lon="11.2460083"><ele>447.0</ele><time>2026-04-18T09:40:37.087Z</time></trkpt><trkpt lat="43.5137817" lon="11.2458217"><ele>447.0</ele><time>2026-04-18T09:40:38.087Z</time></trkpt><trkpt lat="43.51381" lon="11.2456217"><ele>447.0</ele><time>2026-04-18T09:40:39.087Z</time></trkpt><trkpt lat="43.5138583" lon="11.245425"><ele>447.0</ele><time>2026-04-18T09:40:40.087Z</time></trkpt><trkpt lat="43.5138917" lon="11.245245"><ele>448.0</ele><time>2026-04-18T09:40:41.087Z</time></trkpt><trkpt lat="43.5138933" lon="11.245065"><ele>449.0</ele><time>2026-04-18T09:40:42.087Z</time></trkpt><trkpt lat="43.5138383" lon="11.2449033"><ele>450.0</ele><time>2026-04-18T09:40:43.087Z</time></trkpt><trkpt lat="43.5137367" lon="11.2447783"><ele>451.0</ele><time>2026-04-18T09:40:44.087Z</time></trkpt><trkpt lat="43.51361" lon="11.2446683"><ele>455.0</ele><time>2026-04-18T09:40:45.088Z</time></trkpt><trkpt lat="43.5134717" lon="11.2445667"><ele>459.0</ele><time>2026-04-18T09:40:46.087Z</time></trkpt><trkpt lat="43.5133317" lon="11.24445"><ele>463.0</ele><time>2026-04-18T09:40:47.088Z</time></trkpt><trkpt lat="43.5131967" lon="11.2443333"><ele>463.0</ele><time>2026-04-18T09:40:48.087Z</time></trkpt><trkpt lat="43.5130633" lon="11.2442067"><ele>463.0</ele><time>2026-04-18T09:40:49.087Z</time></trkpt><trkpt lat="43.5129383" lon="11.2440783"><ele>463.0</ele><time>2026-04-18T09:40:50.087Z</time></trkpt><trkpt lat="43.51281" lon="11.2439483"><ele>464.75</ele><time>2026-04-18T09:40:51.087Z</time></trkpt><trkpt lat="43.5126833" lon="11.243825"><ele>466.5</ele><time>2026-04-18T09:40:52.088Z</time></trkpt><trkpt lat="43.5125583" lon="11.2437567"><ele>468.25</ele><time>2026-04-18T09:40:53.087Z</time></trkpt><trkpt lat="43.5124217" lon="11.2437417"><ele>470.0</ele><time>2026-04-18T09:40:54.088Z</time></trkpt><trkpt lat="43.5122717" lon="11.2437883"><ele>470.0</ele><time>2026-04-18T09:40:55.087Z</time></trkpt><trkpt lat="43.5121133" lon="11.2438517"><ele>470.0</ele><time>2026-04-18T09:40:56.088Z</time></trkpt><trkpt lat="43.5119433" lon="11.243925"><ele>470.0</ele><time>2026-04-18T09:40:57.087Z</time></trkpt><trkpt lat="43.5117733" lon="11.2440017"><ele>474.66666666666663</ele><time>2026-04-18T09:40:58.087Z</time></trkpt><trkpt lat="43.5116" lon="11.244065"><ele>479.33333333333337</ele><time>2026-04-18T09:40:59.088Z</time></trkpt><trkpt lat="43.511425" lon="11.2441267"><ele>484.0</ele><time>2026-04-18T09:41:00.087Z</time></trkpt><trkpt lat="43.511255" lon="11.2441867"><ele>484.6666666666667</ele><time>2026-04-18T09:41:01.087Z</time></trkpt><trkpt lat="43.5110817" lon="11.2442317"><ele>485.33333333333337</ele><time>2026-04-18T09:41:02.087Z</time></trkpt><trkpt lat="43.5109083" lon="11.2442633"><ele>486.0</ele><time>2026-04-18T09:41:03.088Z</time></trkpt><trkpt lat="43.5107317" lon="11.24425"><ele>486.0</ele><time>2026-04-18T09:41:04.087Z</time></trkpt><trkpt lat="43.51055" lon="11.2441967"><ele>486.0</ele><time>2026-04-18T09:41:05.088Z</time></trkpt><trkpt lat="43.5103733" lon="11.2441133"><ele>486.0</ele><time>2026-04-18T09:41:06.088Z</time></trkpt><trkpt lat="43.510215" lon="11.244"><ele>488.0</ele><time>2026-04-18T09:41:07.087Z</time></trkpt><trkpt lat="43.5100667" lon="11.243855"><ele>490.0</ele><time>2026-04-18T09:41:08.088Z</time></trkpt><trkpt lat="43.5099533" lon="11.2436583"><ele>492.0</ele><time>2026-04-18T09:41:09.087Z</time></trkpt><trkpt lat="43.5098633" lon="11.2434583"><ele>492.0</ele><time>2026-04-18T09:41:10.088Z</time></trkpt><trkpt lat="43.50978" lon="11.2432733"><ele>492.0</ele><time>2026-04-18T09:41:11.088Z</time></trkpt><trkpt lat="43.5096583" lon="11.24312"><ele>492.0</ele><time>2026-04-18T09:41:12.087Z</time></trkpt><trkpt lat="43.509515" lon="11.243005"><ele>494.66666666666663</ele><time>2026-04-18T09:41:13.087Z</time></trkpt><trkpt lat="43.5093667" lon="11.242915"><ele>497.3333333333333</ele><time>2026-04-18T09:41:14.087Z</time></trkpt><trkpt lat="43.5092233" lon="11.242845"><ele>500.0</ele><time>2026-04-18T09:41:15.088Z</time></trkpt><trkpt lat="43.5090783" lon="11.2428167"><ele>500.0</ele><time>2026-04-18T09:41:16.087Z</time></trkpt><trkpt lat="43.50893" lon="11.24284"><ele>500.0</ele><time>2026-04-18T09:41:17.088Z</time></trkpt><trkpt lat="43.50878" lon="11.2429083"><ele>500.0</ele><time>2026-04-18T09:41:18.088Z</time></trkpt><trkpt lat="43.5086283" lon="11.2430167"><ele>500.0</ele><time>2026-04-18T09:41:19.087Z</time></trkpt><trkpt lat="43.5084717" lon="11.2431133"><ele>500.0</ele><time>2026-04-18T09:41:20.088Z</time></trkpt><trkpt lat="43.5083217" lon="11.24319"><ele>500.0</ele><time>2026-04-18T09:41:21.087Z</time></trkpt><trkpt lat="43.5081583" lon="11.2432117"><ele>500.0</ele><time>2026-04-18T09:41:22.087Z</time></trkpt><trkpt lat="43.507985" lon="11.2432117"><ele>500.0</ele><time>2026-04-18T09:41:23.088Z</time></trkpt><trkpt lat="43.507795" lon="11.2432083"><ele>500.0</ele><time>2026-04-18T09:41:24.088Z</time></trkpt><trkpt lat="43.507605" lon="11.243215"><ele>500.0</ele><time>2026-04-18T09:41:25.087Z</time></trkpt><trkpt lat="43.5074117" lon="11.2432367"><ele>500.0</ele><time>2026-04-18T09:41:26.088Z</time></trkpt><trkpt lat="43.5072233" lon="11.2432817"><ele>500.0</ele><time>2026-04-18T09:41:27.088Z</time></trkpt><trkpt lat="43.5070433" lon="11.2433567"><ele>502.66666666666663</ele><time>2026-04-18T09:41:28.087Z</time></trkpt><trkpt lat="43.5068667" lon="11.2434567"><ele>505.33333333333337</ele><time>2026-04-18T09:41:29.088Z</time></trkpt><trkpt lat="43.5067083" lon="11.2435467"><ele>508.0</ele><time>2026-04-18T09:41:30.088Z</time></trkpt><trkpt lat="43.506555" lon="11.2436233"><ele>508.0</ele><time>2026-04-18T09:41:31.087Z</time></trkpt><trkpt lat="43.5064067" lon="11.243635"><ele>508.0</ele><time>2026-04-18T09:41:32.088Z</time></trkpt><trkpt lat="43.506255" lon="11.243575"><ele>508.0</ele><time>2026-04-18T09:41:33.088Z</time></trkpt><trkpt lat="43.50611" lon="11.2434917"><ele>511.33333333333337</ele><time>2026-04-18T09:41:34.087Z</time></trkpt><trkpt lat="43.505955" lon="11.24341"><ele>514.6666666666666</ele><time>2026-04-18T09:41:35.087Z</time></trkpt><trkpt lat="43.50581" lon="11.2433417"><ele>518.0</ele><time>2026-04-18T09:41:36.088Z</time></trkpt><trkpt lat="43.5056517" lon="11.2433067"><ele>518.0</ele><time>2026-04-18T09:41:37.087Z</time></trkpt><trkpt lat="43.5054933" lon="11.2432967"><ele>518.0</ele><time>2026-04-18T09:41:38.088Z</time></trkpt><trkpt lat="43.5053333" lon="11.2433383"><ele>518.0</ele><time>2026-04-18T09:41:39.087Z</time></trkpt><trkpt lat="43.5051683" lon="11.2434067"><ele>519.6666666666666</ele><time>2026-04-18T09:41:40.088Z</time></trkpt><trkpt lat="43.5050167" lon="11.2435067"><ele>521.3333333333334</ele><time>2026-04-18T09:41:41.088Z</time></trkpt><trkpt lat="43.5048733" lon="11.2436333"><ele>523.0</ele><time>2026-04-18T09:41:42.088Z</time></trkpt><trkpt lat="43.504725" lon="11.2437517"><ele>523.0</ele><time>2026-04-18T09:41:43.087Z</time></trkpt><trkpt lat="43.5045917" lon="11.2438983"><ele>523.0</ele><time>2026-04-18T09:41:44.088Z</time></trkpt><trkpt lat="43.5044433" lon="11.24403"><ele>523.0</ele><time>2026-04-18T09:41:45.087Z</time></trkpt><trkpt lat="43.5042983" lon="11.2441817"><ele>523.6666666666667</ele><time>2026-04-18T09:41:46.088Z</time></trkpt><trkpt lat="43.5041533" lon="11.244335"><ele>524.3333333333334</ele><time>2026-04-18T09:41:47.087Z</time></trkpt><trkpt lat="43.504015" lon="11.2444733"><ele>525.0</ele><time>2026-04-18T09:41:48.088Z</time></trkpt><trkpt lat="43.50388" lon="11.2446383"><ele>524.6666666666666</ele><time>2026-04-18T09:41:49.088Z</time></trkpt><trkpt lat="43.5037583" lon="11.24481"><ele>524.3333333333333</ele><time>2026-04-18T09:41:50.087Z</time></trkpt><trkpt lat="43.50366" lon="11.2449967"><ele>524.0</ele><time>2026-04-18T09:41:51.087Z</time></trkpt><trkpt lat="43.50357" lon="11.2451783"><ele>525.3333333333333</ele><time>2026-04-18T09:41:52.088Z</time></trkpt><trkpt lat="43.5034783" lon="11.2453567"><ele>526.6666666666666</ele><time>2026-04-18T09:41:53.087Z</time></trkpt><trkpt lat="43.50338" lon="11.245525"><ele>528.0</ele><time>2026-04-18T09:41:54.087Z</time></trkpt><trkpt lat="43.503275" lon="11.2456533"><ele>528.0</ele><time>2026-04-18T09:41:55.088Z</time></trkpt><trkpt lat="43.5031667" lon="11.2457783"><ele>528.0</ele><time>2026-04-18T09:41:56.088Z</time></trkpt><trkpt lat="43.5030533" lon="11.2458817"><ele>528.0</ele><time>2026-04-18T09:41:57.087Z</time></trkpt><trkpt lat="43.5029433" lon="11.2459967"><ele>528.0</ele><time>2026-04-18T09:41:58.088Z</time></trkpt><trkpt lat="43.5028417" lon="11.2461117"><ele>527.0</ele><time>2026-04-18T09:41:59.088Z</time></trkpt><trkpt lat="43.5027467" lon="11.246225"><ele>526.0</ele><time>2026-04-18T09:42:00.087Z</time></trkpt><trkpt lat="43.5026817" lon="11.2463533"><ele>525.0</ele><time>2026-04-18T09:42:01.087Z</time></trkpt><trkpt lat="43.50261" lon="11.2464817"><ele>524.0</ele><time>2026-04-18T09:42:02.087Z</time></trkpt><trkpt lat="43.5025433" lon="11.24659"><ele>524.0</ele><time>2026-04-18T09:42:03.087Z</time></trkpt><trkpt lat="43.5024867" lon="11.2466783"><ele>524.0</ele><time>2026-04-18T09:42:04.087Z</time></trkpt><trkpt lat="43.5024433" lon="11.2467467"><ele>524.0</ele><time>2026-04-18T09:42:05.088Z</time></trkpt><trkpt lat="43.5023967" lon="11.2468117"><ele>524.0</ele><time>2026-04-18T09:42:06.087Z</time></trkpt><trkpt lat="43.5023383" lon="11.2468683"><ele>524.0</ele><time>2026-04-18T09:42:07.087Z</time></trkpt><trkpt lat="43.5022717" lon="11.2469067"><ele>524.0</ele><time>2026-04-18T09:42:08.087Z</time></trkpt><trkpt lat="43.5022017" lon="11.24694"><ele>524.0</ele><time>2026-04-18T09:42:09.087Z</time></trkpt><trkpt lat="43.50213" lon="11.24696"><ele>523.0</ele><time>2026-04-18T09:42:10.087Z</time></trkpt><trkpt lat="43.502055" lon="11.24697"><ele>522.0</ele><time>2026-04-18T09:42:11.087Z</time></trkpt><trkpt lat="43.5019733" lon="11.246935"><ele>521.0</ele><time>2026-04-18T09:42:12.087Z</time></trkpt><trkpt lat="43.501885" lon="11.24691"><ele>520.0</ele><time>2026-04-18T09:42:13.087Z</time></trkpt><trkpt lat="43.5017933" lon="11.2469133"><ele>519.0</ele><time>2026-04-18T09:42:14.087Z</time></trkpt><trkpt lat="43.5017183" lon="11.2469417"><ele>518.0</ele><time>2026-04-18T09:42:15.087Z</time></trkpt><trkpt lat="43.5016417" lon="11.2469983"><ele>518.0</ele><time>2026-04-18T09:42:16.087Z</time></trkpt><trkpt lat="43.5015567" lon="11.24707"><ele>518.0</ele><time>2026-04-18T09:42:17.088Z</time></trkpt><trkpt lat="43.5014883" lon="11.2471483"><ele>518.0</ele><time>2026-04-18T09:42:18.088Z</time></trkpt><trkpt lat="43.501415" lon="11.2472267"><ele>518.0</ele><time>2026-04-18T09:42:19.087Z</time></trkpt><trkpt lat="43.5013567" lon="11.2473"><ele>518.0</ele><time>2026-04-18T09:42:20.087Z</time></trkpt><trkpt lat="43.5012733" lon="11.2473533"><ele>519.8</ele><time>2026-04-18T09:42:21.088Z</time></trkpt><trkpt lat="43.5011883" lon="11.2474"><ele>521.5999999999999</ele><time>2026-04-18T09:42:22.087Z</time></trkpt><trkpt lat="43.5010933" lon="11.2473967"><ele>523.4000000000001</ele><time>2026-04-18T09:42:23.087Z</time></trkpt><trkpt lat="43.5009933" lon="11.247375"><ele>525.2</ele><time>2026-04-18T09:42:24.088Z</time></trkpt><trkpt lat="43.5008983" lon="11.247355"><ele>527.0</ele><time>2026-04-18T09:42:25.088Z</time></trkpt><trkpt lat="43.5008167" lon="11.24733"><ele>527.0</ele><time>2026-04-18T09:42:26.087Z</time></trkpt><trkpt lat="43.5007417" lon="11.2473"><ele>527.0</ele><time>2026-04-18T09:42:27.087Z</time></trkpt><trkpt lat="43.500675" lon="11.2472583"><ele>527.0</ele><time>2026-04-18T09:42:28.087Z</time></trkpt><trkpt lat="43.5006183" lon="11.2472"><ele>527.0</ele><time>2026-04-18T09:42:29.088Z</time></trkpt><trkpt lat="43.5005867" lon="11.2471133"><ele>527.0</ele><time>2026-04-18T09:42:30.086Z</time></trkpt><trkpt lat="43.5005617" lon="11.247015"><ele>527.0</ele><time>2026-04-18T09:42:31.086Z</time></trkpt><trkpt lat="43.5005383" lon="11.2468883"><ele>526.1666666666666</ele><time>2026-04-18T09:42:32.087Z</time></trkpt><trkpt lat="43.5005167" lon="11.2467567"><ele>525.3333333333333</ele><time>2026-04-18T09:42:33.087Z</time></trkpt><trkpt lat="43.5004867" lon="11.24664"><ele>524.5</ele><time>2026-04-18T09:42:34.086Z</time></trkpt><trkpt lat="43.5004467" lon="11.2465517"><ele>523.6666666666666</ele><time>2026-04-18T09:42:35.087Z</time></trkpt><trkpt lat="43.5004" lon="11.2464783"><ele>522.8333333333334</ele><time>2026-04-18T09:42:36.086Z</time></trkpt><trkpt lat="43.500345" lon="11.2464"><ele>522.0</ele><time>2026-04-18T09:42:37.086Z</time></trkpt><trkpt lat="43.5002933" lon="11.2463333"><ele>522.0</ele><time>2026-04-18T09:42:38.087Z</time></trkpt><trkpt lat="43.5002317" lon="11.2462367"><ele>522.0</ele><time>2026-04-18T09:42:39.086Z</time></trkpt><trkpt lat="43.50019" lon="11.2461283"><ele>522.0</ele><time>2026-04-18T09:42:40.086Z</time></trkpt><trkpt lat="43.50016" lon="11.2460217"><ele>522.0</ele><time>2026-04-18T09:42:41.087Z</time></trkpt><trkpt lat="43.5001233" lon="11.24589"><ele>522.0</ele><time>2026-04-18T09:42:42.086Z</time></trkpt><trkpt lat="43.5000833" lon="11.24576"><ele>522.0</ele><time>2026-04-18T09:42:43.086Z</time></trkpt><trkpt lat="43.5000533" lon="11.24563"><ele>522.0</ele><time>2026-04-18T09:42:44.087Z</time></trkpt><trkpt lat="43.500035" lon="11.2455033"><ele>522.0</ele><time>2026-04-18T09:42:45.087Z</time></trkpt><trkpt lat="43.5000217" lon="11.24538"><ele>522.0</ele><time>2026-04-18T09:42:46.086Z</time></trkpt><trkpt lat="43.4999967" lon="11.2452583"><ele>522.0</ele><time>2026-04-18T09:42:47.086Z</time></trkpt><trkpt lat="43.499965" lon="11.245165"><ele>519.8000000000001</ele><time>2026-04-18T09:42:48.086Z</time></trkpt><trkpt lat="43.4999217" lon="11.2450933"><ele>517.6</ele><time>2026-04-18T09:42:49.087Z</time></trkpt><trkpt lat="43.4997967" lon="11.24506"><ele>515.4000000000001</ele><time>2026-04-18T09:42:51.086Z</time></trkpt><trkpt lat="43.4997267" lon="11.2450817"><ele>513.2</ele><time>2026-04-18T09:42:52.086Z</time></trkpt><trkpt lat="43.4996417" lon="11.2451433"><ele>511.0</ele><time>2026-04-18T09:42:53.086Z</time></trkpt><trkpt lat="43.49956" lon="11.2452083"><ele>510.4</ele><time>2026-04-18T09:42:54.087Z</time></trkpt><trkpt lat="43.4994683" lon="11.2452817"><ele>509.8</ele><time>2026-04-18T09:42:55.087Z</time></trkpt><trkpt lat="43.4993917" lon="11.24536"><ele>509.19999999999993</ele><time>2026-04-18T09:42:56.086Z</time></trkpt><trkpt lat="43.4993167" lon="11.2454583"><ele>508.59999999999997</ele><time>2026-04-18T09:42:57.087Z</time></trkpt><trkpt lat="43.499245" lon="11.2455517"><ele>508.0</ele><time>2026-04-18T09:42:58.086Z</time></trkpt><trkpt lat="43.4991733" lon="11.2456317"><ele>508.00000000000006</ele><time>2026-04-18T09:42:59.086Z</time></trkpt><trkpt lat="43.4991117" lon="11.2457017"><ele>508.0</ele><time>2026-04-18T09:43:00.087Z</time></trkpt><trkpt lat="43.4990383" lon="11.2457783"><ele>508.0</ele><time>2026-04-18T09:43:01.086Z</time></trkpt><trkpt lat="43.4989667" lon="11.2458467"><ele>508.0</ele><time>2026-04-18T09:43:02.086Z</time></trkpt><trkpt lat="43.4988983" lon="11.2459233"><ele>508.00000000000006</ele><time>2026-04-18T09:43:03.086Z</time></trkpt><trkpt lat="43.49883" lon="11.2460017"><ele>508.0</ele><time>2026-04-18T09:43:04.086Z</time></trkpt><trkpt lat="43.4987583" lon="11.24607"><ele>506.6666666666667</ele><time>2026-04-18T09:43:05.087Z</time></trkpt><trkpt lat="43.4986783" lon="11.2461417"><ele>505.33333333333337</ele><time>2026-04-18T09:43:06.086Z</time></trkpt><trkpt lat="43.4986133" lon="11.24622"><ele>504.0</ele><time>2026-04-18T09:43:07.086Z</time></trkpt><trkpt lat="43.4985483" lon="11.2462883"><ele>502.66666666666663</ele><time>2026-04-18T09:43:08.087Z</time></trkpt><trkpt lat="43.4984883" lon="11.2463617"><ele>501.3333333333333</ele><time>2026-04-18T09:43:09.086Z</time></trkpt><trkpt lat="43.49842" lon="11.2464283"><ele>500.0</ele><time>2026-04-18T09:43:10.086Z</time></trkpt><trkpt lat="43.4983567" lon="11.2464717"><ele>500.0</ele><time>2026-04-18T09:43:11.087Z</time></trkpt><trkpt lat="43.4982466" lon="11.2464665"><ele>500.0</ele><time>2026-04-18T09:43:13.086Z</time></trkpt><trkpt lat="43.4981852" lon="11.2463325"><ele>500.0</ele><time>2026-04-18T09:43:15.086Z</time></trkpt><trkpt lat="43.4981717" lon="11.2462217"><ele>500.0</ele><time>2026-04-18T09:43:16.087Z</time></trkpt><trkpt lat="43.4981367" lon="11.2461083"><ele>500.0</ele><time>2026-04-18T09:43:17.087Z</time></trkpt><trkpt lat="43.49811" lon="11.246"><ele>498.0</ele><time>2026-04-18T09:43:18.086Z</time></trkpt><trkpt lat="43.4980883" lon="11.2458867"><ele>496.0</ele><time>2026-04-18T09:43:19.087Z</time></trkpt><trkpt lat="43.498075" lon="11.24576"><ele>494.0</ele><time>2026-04-18T09:43:20.087Z</time></trkpt><trkpt lat="43.4980533" lon="11.2456317"><ele>492.0</ele><time>2026-04-18T09:43:21.087Z</time></trkpt><trkpt lat="43.4980283" lon="11.2454983"><ele>490.0</ele><time>2026-04-18T09:43:22.086Z</time></trkpt><trkpt lat="43.498" lon="11.2453567"><ele>487.25</ele><time>2026-04-18T09:43:23.087Z</time></trkpt><trkpt lat="43.49797" lon="11.24522"><ele>484.5</ele><time>2026-04-18T09:43:24.086Z</time></trkpt><trkpt lat="43.4979517" lon="11.245055"><ele>481.75</ele><time>2026-04-18T09:43:25.086Z</time></trkpt><trkpt lat="43.49792" lon="11.2448917"><ele>479.0</ele><time>2026-04-18T09:43:26.087Z</time></trkpt><trkpt lat="43.4978967" lon="11.2447467"><ele>478.6</ele><time>2026-04-18T09:43:27.086Z</time></trkpt><trkpt lat="43.4978633" lon="11.24462"><ele>478.2</ele><time>2026-04-18T09:43:28.087Z</time></trkpt><trkpt lat="43.497815" lon="11.2444883"><ele>477.80000000000007</ele><time>2026-04-18T09:43:29.087Z</time></trkpt><trkpt lat="43.49774" lon="11.2443717"><ele>477.40000000000003</ele><time>2026-04-18T09:43:30.087Z</time></trkpt><trkpt lat="43.4976567" lon="11.2442867"><ele>477.0</ele><time>2026-04-18T09:43:31.086Z</time></trkpt><trkpt lat="43.497565" lon="11.244215"><ele>477.0</ele><time>2026-04-18T09:43:32.086Z</time></trkpt><trkpt lat="43.4974783" lon="11.2441617"><ele>477.00000000000006</ele><time>2026-04-18T09:43:33.087Z</time></trkpt><trkpt lat="43.4974" lon="11.2441167"><ele>477.00000000000006</ele><time>2026-04-18T09:43:34.086Z</time></trkpt><trkpt lat="43.497315" lon="11.2440983"><ele>477.0</ele><time>2026-04-18T09:43:35.087Z</time></trkpt><trkpt lat="43.497225" lon="11.2441033"><ele>477.0</ele><time>2026-04-18T09:43:36.086Z</time></trkpt><trkpt lat="43.4971267" lon="11.2441133"><ele>477.20000000000005</ele><time>2026-04-18T09:43:37.087Z</time></trkpt><trkpt lat="43.4970217" lon="11.2441283"><ele>477.40000000000003</ele><time>2026-04-18T09:43:38.087Z</time></trkpt><trkpt lat="43.496915" lon="11.24414"><ele>477.59999999999997</ele><time>2026-04-18T09:43:39.086Z</time></trkpt><trkpt lat="43.4968233" lon="11.24413"><ele>477.79999999999995</ele><time>2026-04-18T09:43:40.087Z</time></trkpt><trkpt lat="43.4967217" lon="11.244095"><ele>478.0</ele><time>2026-04-18T09:43:41.087Z</time></trkpt><trkpt lat="43.4966283" lon="11.2440367"><ele>474.2</ele><time>2026-04-18T09:43:42.086Z</time></trkpt><trkpt lat="43.4965467" lon="11.24396"><ele>470.4</ele><time>2026-04-18T09:43:43.087Z</time></trkpt><trkpt lat="43.4964867" lon="11.2438667"><ele>466.59999999999997</ele><time>2026-04-18T09:43:44.087Z</time></trkpt><trkpt lat="43.4964367" lon="11.243765"><ele>462.79999999999995</ele><time>2026-04-18T09:43:45.086Z</time></trkpt><trkpt lat="43.4963783" lon="11.2436533"><ele>459.0</ele><time>2026-04-18T09:43:46.086Z</time></trkpt><trkpt lat="43.496325" lon="11.2435433"><ele>459.0</ele><time>2026-04-18T09:43:47.086Z</time></trkpt><trkpt lat="43.496275" lon="11.243415"><ele>459.0</ele><time>2026-04-18T09:43:48.086Z</time></trkpt><trkpt lat="43.4962267" lon="11.2432733"><ele>459.0</ele><time>2026-04-18T09:43:49.087Z</time></trkpt><trkpt lat="43.4961733" lon="11.2431283"><ele>459.0</ele><time>2026-04-18T09:43:50.086Z</time></trkpt><trkpt lat="43.4961217" lon="11.24299"><ele>458.79999999999995</ele><time>2026-04-18T09:43:51.086Z</time></trkpt><trkpt lat="43.4960783" lon="11.24286"><ele>458.59999999999997</ele><time>2026-04-18T09:43:52.087Z</time></trkpt><trkpt lat="43.4960317" lon="11.2427383"><ele>458.4</ele><time>2026-04-18T09:43:53.087Z</time></trkpt><trkpt lat="43.4959883" lon="11.2426267"><ele>458.2</ele><time>2026-04-18T09:43:54.086Z</time></trkpt><trkpt lat="43.4959517" lon="11.242505"><ele>458.0</ele><time>2026-04-18T09:43:55.086Z</time></trkpt><trkpt lat="43.49592" lon="11.2424033"><ele>457.99999999999994</ele><time>2026-04-18T09:43:56.087Z</time></trkpt><trkpt lat="43.4958917" lon="11.242315"><ele>458.0</ele><time>2026-04-18T09:43:57.087Z</time></trkpt><trkpt lat="43.4958867" lon="11.2422083"><ele>458.0</ele><time>2026-04-18T09:43:58.086Z</time></trkpt><trkpt lat="43.49589" lon="11.2421083"><ele>458.0</ele><time>2026-04-18T09:43:59.086Z</time></trkpt><trkpt lat="43.4958955" lon="11.2419881"><ele>457.99999999999994</ele><time>2026-04-18T09:44:00.086Z</time></trkpt><trkpt lat="43.4959168" lon="11.2418614"><ele>458.0</ele><time>2026-04-18T09:44:01.086Z</time></trkpt><trkpt lat="43.4959408" lon="11.2417319"><ele>457.59999999999997</ele><time>2026-04-18T09:44:02.086Z</time></trkpt><trkpt lat="43.4959544" lon="11.241599"><ele>457.19999999999993</ele><time>2026-04-18T09:44:03.086Z</time></trkpt><trkpt lat="43.4959483" lon="11.2414583"><ele>456.8</ele><time>2026-04-18T09:44:04.086Z</time></trkpt><trkpt lat="43.4959367" lon="11.2413083"><ele>456.4</ele><time>2026-04-18T09:44:05.086Z</time></trkpt><trkpt lat="43.4959083" lon="11.2411583"><ele>456.0</ele><time>2026-04-18T09:44:06.087Z</time></trkpt><trkpt lat="43.49589" lon="11.24101"><ele>456.25</ele><time>2026-04-18T09:44:07.087Z</time></trkpt><trkpt lat="43.49587" lon="11.2408583"><ele>456.5</ele><time>2026-04-18T09:44:08.087Z</time></trkpt><trkpt lat="43.495855" lon="11.2406967"><ele>456.75</ele><time>2026-04-18T09:44:09.086Z</time></trkpt><trkpt lat="43.4958483" lon="11.2405417"><ele>457.0</ele><time>2026-04-18T09:44:10.086Z</time></trkpt><trkpt lat="43.4958483" lon="11.2403733"><ele>457.0</ele><time>2026-04-18T09:44:11.086Z</time></trkpt><trkpt lat="43.4958417" lon="11.240215"><ele>457.00000000000006</ele><time>2026-04-18T09:44:12.086Z</time></trkpt><trkpt lat="43.4958267" lon="11.2400583"><ele>457.00000000000006</ele><time>2026-04-18T09:44:13.086Z</time></trkpt><trkpt lat="43.4957967" lon="11.2399183"><ele>457.0</ele><time>2026-04-18T09:44:14.086Z</time></trkpt><trkpt lat="43.4957667" lon="11.2397817"><ele>457.0</ele><time>2026-04-18T09:44:15.086Z</time></trkpt><trkpt lat="43.495745" lon="11.2396517"><ele>458.20000000000005</ele><time>2026-04-18T09:44:16.086Z</time></trkpt><trkpt lat="43.49573" lon="11.2395167"><ele>459.40000000000003</ele><time>2026-04-18T09:44:17.086Z</time></trkpt><trkpt lat="43.4957283" lon="11.239365"><ele>460.59999999999997</ele><time>2026-04-18T09:44:18.086Z</time></trkpt><trkpt lat="43.4957117" lon="11.2392017"><ele>461.79999999999995</ele><time>2026-04-18T09:44:19.086Z</time></trkpt><trkpt lat="43.4957017" lon="11.2390433"><ele>463.0</ele><time>2026-04-18T09:44:20.087Z</time></trkpt><trkpt lat="43.4957167" lon="11.2388933"><ele>463.00000000000006</ele><time>2026-04-18T09:44:21.086Z</time></trkpt><trkpt lat="43.49573" lon="11.2387733"><ele>463.0</ele><time>2026-04-18T09:44:22.087Z</time></trkpt><trkpt lat="43.4957433" lon="11.2386667"><ele>463.0</ele><time>2026-04-18T09:44:23.087Z</time></trkpt><trkpt lat="43.4957383" lon="11.238575"><ele>463.0</ele><time>2026-04-18T09:44:24.087Z</time></trkpt><trkpt lat="43.495685" lon="11.2384433"><ele>463.00000000000006</ele><time>2026-04-18T09:44:26.087Z</time></trkpt><trkpt lat="43.4956233" lon="11.2383683"><ele>463.0</ele><time>2026-04-18T09:44:27.087Z</time></trkpt><trkpt lat="43.4955533" lon="11.238275"><ele>463.00000000000006</ele><time>2026-04-18T09:44:28.087Z</time></trkpt><trkpt lat="43.4954867" lon="11.23818"><ele>463.0</ele><time>2026-04-18T09:44:29.087Z</time></trkpt><trkpt lat="43.4954283" lon="11.2380883"><ele>463.0</ele><time>2026-04-18T09:44:30.086Z</time></trkpt><trkpt lat="43.495385" lon="11.238"><ele>463.0</ele><time>2026-04-18T09:44:31.086Z</time></trkpt><trkpt lat="43.4953433" lon="11.2378933"><ele>463.00000000000006</ele><time>2026-04-18T09:44:32.087Z</time></trkpt><trkpt lat="43.495305" lon="11.2378"><ele>463.0</ele><time>2026-04-18T09:44:33.087Z</time></trkpt><trkpt lat="43.4952433" lon="11.2376933"><ele>461.59999999999997</ele><time>2026-04-18T09:44:34.087Z</time></trkpt><trkpt lat="43.4951883" lon="11.2375733"><ele>460.19999999999993</ele><time>2026-04-18T09:44:35.086Z</time></trkpt><trkpt lat="43.495125" lon="11.2374633"><ele>458.8</ele><time>2026-04-18T09:44:36.087Z</time></trkpt><trkpt lat="43.4950417" lon="11.2373633"><ele>457.4</ele><time>2026-04-18T09:44:37.086Z</time></trkpt><trkpt lat="43.4949467" lon="11.2372617"><ele>456.0</ele><time>2026-04-18T09:44:38.086Z</time></trkpt><trkpt lat="43.4948667" lon="11.23717"><ele>454.75</ele><time>2026-04-18T09:44:39.086Z</time></trkpt><trkpt lat="43.4947667" lon="11.2370683"><ele>453.5</ele><time>2026-04-18T09:44:40.087Z</time></trkpt><trkpt lat="43.4946783" lon="11.2369767"><ele>452.25</ele><time>2026-04-18T09:44:41.086Z</time></trkpt><trkpt lat="43.49458" lon="11.236885"><ele>451.0</ele><time>2026-04-18T09:44:42.087Z</time></trkpt><trkpt lat="43.4944833" lon="11.2368"><ele>451.0</ele><time>2026-04-18T09:44:43.086Z</time></trkpt><trkpt lat="43.4944033" lon="11.236735"><ele>451.0</ele><time>2026-04-18T09:44:44.087Z</time></trkpt><trkpt lat="43.4943417" lon="11.23668"><ele>451.0</ele><time>2026-04-18T09:44:45.087Z</time></trkpt><trkpt lat="43.4942817" lon="11.2365783"><ele>451.0</ele><time>2026-04-18T09:44:47.086Z</time></trkpt><trkpt lat="43.4942967" lon="11.236455"><ele>451.0</ele><time>2026-04-18T09:44:59.086Z</time></trkpt><trkpt lat="43.4943067" lon="11.2363"><ele>449.8</ele><time>2026-04-18T09:45:01.086Z</time></trkpt><trkpt lat="43.4942967" lon="11.2361683"><ele>448.6</ele><time>2026-04-18T09:45:02.086Z</time></trkpt><trkpt lat="43.4942667" lon="11.236025"><ele>447.4</ele><time>2026-04-18T09:45:03.086Z</time></trkpt><trkpt lat="43.494225" lon="11.23587"><ele>446.2</ele><time>2026-04-18T09:45:04.086Z</time></trkpt><trkpt lat="43.494195" lon="11.2357217"><ele>445.0</ele><time>2026-04-18T09:45:05.087Z</time></trkpt><trkpt lat="43.4941683" lon="11.2355783"><ele>442.8</ele><time>2026-04-18T09:45:06.086Z</time></trkpt><trkpt lat="43.4941417" lon="11.2354367"><ele>440.6</ele><time>2026-04-18T09:45:07.086Z</time></trkpt><trkpt lat="43.4941167" lon="11.2352967"><ele>438.4</ele><time>2026-04-18T09:45:08.087Z</time></trkpt><trkpt lat="43.4940917" lon="11.2351717"><ele>436.2</ele><time>2026-04-18T09:45:09.087Z</time></trkpt><trkpt lat="43.4940667" lon="11.2350583"><ele>434.0</ele><time>2026-04-18T09:45:10.086Z</time></trkpt><trkpt lat="43.4940467" lon="11.2349483"><ele>433.99999999999994</ele><time>2026-04-18T09:45:11.086Z</time></trkpt><trkpt lat="43.4940267" lon="11.2348517"><ele>434.0</ele><time>2026-04-18T09:45:12.087Z</time></trkpt><trkpt lat="43.4940033" lon="11.2347667"><ele>434.0</ele><time>2026-04-18T09:45:13.087Z</time></trkpt><trkpt lat="43.4939633" lon="11.2346233"><ele>434.0</ele><time>2026-04-18T09:45:15.087Z</time></trkpt><trkpt lat="43.4939483" lon="11.2345167"><ele>433.99999999999994</ele><time>2026-04-18T09:45:17.087Z</time></trkpt><trkpt lat="43.4939267" lon="11.2344217"><ele>434.0</ele><time>2026-04-18T09:45:20.086Z</time></trkpt><trkpt lat="43.4939183" lon="11.2343317"><ele>432.66666666666663</ele><time>2026-04-18T09:45:23.086Z</time></trkpt><trkpt lat="43.4939317" lon="11.2342367"><ele>431.3333333333333</ele><time>2026-04-18T09:45:26.086Z</time></trkpt><trkpt lat="43.4939333" lon="11.2341267"><ele>430.0</ele><time>2026-04-18T09:45:28.087Z</time></trkpt><trkpt lat="43.4939433" lon="11.2339633"><ele>428.66666666666663</ele><time>2026-04-18T09:45:30.086Z</time></trkpt><trkpt lat="43.49395" lon="11.2338617"><ele>427.3333333333333</ele><time>2026-04-18T09:45:31.087Z</time></trkpt><trkpt lat="43.4939567" lon="11.2337517"><ele>426.0</ele><time>2026-04-18T09:45:32.086Z</time></trkpt><trkpt lat="43.4939717" lon="11.23364"><ele>424.8333333333333</ele><time>2026-04-18T09:45:33.087Z</time></trkpt><trkpt lat="43.4939833" lon="11.2335217"><ele>423.66666666666663</ele><time>2026-04-18T09:45:34.087Z</time></trkpt><trkpt lat="43.4939967" lon="11.23342"><ele>422.5</ele><time>2026-04-18T09:45:35.087Z</time></trkpt><trkpt lat="43.4940083" lon="11.2333283"><ele>421.3333333333333</ele><time>2026-04-18T09:45:36.086Z</time></trkpt><trkpt lat="43.4940417" lon="11.23318"><ele>420.16666666666663</ele><time>2026-04-18T09:45:38.086Z</time></trkpt><trkpt lat="43.49408" lon="11.2330467"><ele>419.0</ele><time>2026-04-18T09:45:40.087Z</time></trkpt><trkpt lat="43.4941383" lon="11.2329583"><ele>418.99999999999994</ele><time>2026-04-18T09:45:42.086Z</time></trkpt><trkpt lat="43.4942" lon="11.2328833"><ele>419.0</ele><time>2026-04-18T09:45:45.086Z</time></trkpt><trkpt lat="43.4941383" lon="11.2328517"><ele>419.0</ele><time>2026-04-18T09:45:49.086Z</time></trkpt><trkpt lat="43.4941017" lon="11.23293"><ele>419.0</ele><time>2026-04-18T09:45:51.086Z</time></trkpt><trkpt lat="43.4940567" lon="11.2330683"><ele>418.99999999999994</ele><time>2026-04-18T09:45:53.086Z</time></trkpt><trkpt lat="43.4940283" lon="11.2331667"><ele>419.0</ele><time>2026-04-18T09:45:54.086Z</time></trkpt><trkpt lat="43.494005" lon="11.233265"><ele>419.0</ele><time>2026-04-18T09:45:55.086Z</time></trkpt><trkpt lat="43.49399" lon="11.2333717"><ele>419.0</ele><time>2026-04-18T09:45:56.086Z</time></trkpt><trkpt lat="43.49398" lon="11.2334883"><ele>419.0</ele><time>2026-04-18T09:45:57.086Z</time></trkpt><trkpt lat="43.49397" lon="11.2336217"><ele>419.0</ele><time>2026-04-18T09:45:58.086Z</time></trkpt><trkpt lat="43.4939567" lon="11.2337717"><ele>419.0</ele><time>2026-04-18T09:45:59.086Z</time></trkpt><trkpt lat="43.4939433" lon="11.2339333"><ele>420.4</ele><time>2026-04-18T09:46:00.086Z</time></trkpt><trkpt lat="43.4939317" lon="11.2340783"><ele>421.79999999999995</ele><time>2026-04-18T09:46:01.086Z</time></trkpt><trkpt lat="43.493925" lon="11.2342"><ele>423.20000000000005</ele><time>2026-04-18T09:46:02.086Z</time></trkpt><trkpt lat="43.4939283" lon="11.2343217"><ele>424.6</ele><time>2026-04-18T09:46:03.086Z</time></trkpt><trkpt lat="43.4939433" lon="11.2344583"><ele>426.0</ele><time>2026-04-18T09:46:04.087Z</time></trkpt><trkpt lat="43.4939733" lon="11.2346133"><ele>426.0</ele><time>2026-04-18T09:46:05.086Z</time></trkpt><trkpt lat="43.4940083" lon="11.234785"><ele>426.0</ele><time>2026-04-18T09:46:06.086Z</time></trkpt><trkpt lat="43.49405" lon="11.2349617"><ele>426.0</ele><time>2026-04-18T09:46:07.087Z</time></trkpt><trkpt lat="43.494085" lon="11.2351183"><ele>426.0</ele><time>2026-04-18T09:46:08.086Z</time></trkpt><trkpt lat="43.4941133" lon="11.23527"><ele>427.6</ele><time>2026-04-18T09:46:09.086Z</time></trkpt><trkpt lat="43.4941333" lon="11.2354233"><ele>429.20000000000005</ele><time>2026-04-18T09:46:10.086Z</time></trkpt><trkpt lat="43.4941667" lon="11.2355717"><ele>430.79999999999995</ele><time>2026-04-18T09:46:11.087Z</time></trkpt><trkpt lat="43.4941967" lon="11.2357117"><ele>432.4</ele><time>2026-04-18T09:46:12.086Z</time></trkpt><trkpt lat="43.4942267" lon="11.2358467"><ele>434.0</ele><time>2026-04-18T09:46:13.086Z</time></trkpt><trkpt lat="43.4942583" lon="11.235975"><ele>435.8333333333333</ele><time>2026-04-18T09:46:14.086Z</time></trkpt><trkpt lat="43.49428" lon="11.2360767"><ele>437.66666666666663</ele><time>2026-04-18T09:46:15.086Z</time></trkpt><trkpt lat="43.494295" lon="11.236165"><ele>439.5</ele><time>2026-04-18T09:46:16.086Z</time></trkpt><trkpt lat="43.4943033" lon="11.2363017"><ele>441.33333333333337</ele><time>2026-04-18T09:46:18.086Z</time></trkpt><trkpt lat="43.494305" lon="11.2364433"><ele>443.1666666666667</ele><time>2026-04-18T09:46:20.086Z</time></trkpt><trkpt lat="43.4942967" lon="11.2365467"><ele>445.0</ele><time>2026-04-18T09:46:22.086Z</time></trkpt><trkpt lat="43.49425" lon="11.236635"><ele>446.2</ele><time>2026-04-18T09:46:24.086Z</time></trkpt><trkpt lat="43.4941767" lon="11.2366983"><ele>447.4</ele><time>2026-04-18T09:46:26.086Z</time></trkpt><trkpt lat="43.494065" lon="11.23676"><ele>448.6</ele><time>2026-04-18T09:46:28.086Z</time></trkpt><trkpt lat="43.4939967" lon="11.2367633"><ele>449.8</ele><time>2026-04-18T09:46:29.086Z</time></trkpt><trkpt lat="43.493915" lon="11.2367617"><ele>451.0</ele><time>2026-04-18T09:46:30.087Z</time></trkpt><trkpt lat="43.49382" lon="11.236745"><ele>449.20000000000005</ele><time>2026-04-18T09:46:31.086Z</time></trkpt><trkpt lat="43.49372" lon="11.2367417"><ele>447.40000000000003</ele><time>2026-04-18T09:46:32.085Z</time></trkpt><trkpt lat="43.4936167" lon="11.2367417"><ele>445.6</ele><time>2026-04-18T09:46:33.086Z</time></trkpt><trkpt lat="43.493505" lon="11.2367817"><ele>443.8</ele><time>2026-04-18T09:46:34.086Z</time></trkpt><trkpt lat="43.4934" lon="11.236855"><ele>442.0</ele><time>2026-04-18T09:46:35.085Z</time></trkpt><trkpt lat="43.4932983" lon="11.23694"><ele>442.0</ele><time>2026-04-18T09:46:36.085Z</time></trkpt><trkpt lat="43.4931967" lon="11.237015"><ele>442.0</ele><time>2026-04-18T09:46:37.085Z</time></trkpt><trkpt lat="43.4930917" lon="11.237095"><ele>442.0</ele><time>2026-04-18T09:46:38.085Z</time></trkpt><trkpt lat="43.49299" lon="11.2371717"><ele>442.0</ele><time>2026-04-18T09:46:39.085Z</time></trkpt><trkpt lat="43.4928933" lon="11.237245"><ele>438.6</ele><time>2026-04-18T09:46:40.085Z</time></trkpt><trkpt lat="43.4928" lon="11.2373133"><ele>435.20000000000005</ele><time>2026-04-18T09:46:41.086Z</time></trkpt><trkpt lat="43.4927133" lon="11.237385"><ele>431.8</ele><time>2026-04-18T09:46:42.085Z</time></trkpt><trkpt lat="43.492635" lon="11.237445"><ele>428.4</ele><time>2026-04-18T09:46:43.086Z</time></trkpt><trkpt lat="43.4925583" lon="11.2375"><ele>425.0</ele><time>2026-04-18T09:46:44.086Z</time></trkpt><trkpt lat="43.4924883" lon="11.2375467"><ele>425.0</ele><time>2026-04-18T09:46:45.085Z</time></trkpt><trkpt lat="43.4923883" lon="11.2376267"><ele>425.0</ele><time>2026-04-18T09:46:47.085Z</time></trkpt><trkpt lat="43.49233" lon="11.23769"><ele>425.0</ele><time>2026-04-18T09:46:49.085Z</time></trkpt><trkpt lat="43.4923417" lon="11.2378017"><ele>425.0</ele><time>2026-04-18T09:46:55.085Z</time></trkpt><trkpt lat="43.4924717" lon="11.2378533"><ele>425.0</ele><time>2026-04-18T09:46:57.085Z</time></trkpt><trkpt lat="43.49256" lon="11.2378917"><ele>425.0</ele><time>2026-04-18T09:46:58.086Z</time></trkpt><trkpt lat="43.4926583" lon="11.237945"><ele>425.0</ele><time>2026-04-18T09:46:59.085Z</time></trkpt><trkpt lat="43.4927583" lon="11.238015"><ele>425.0</ele><time>2026-04-18T09:47:00.085Z</time></trkpt><trkpt lat="43.49285" lon="11.2380983"><ele>425.0</ele><time>2026-04-18T09:47:01.086Z</time></trkpt><trkpt lat="43.492935" lon="11.2382083"><ele>425.0</ele><time>2026-04-18T09:47:02.085Z</time></trkpt><trkpt lat="43.49301" lon="11.2383367"><ele>424.75</ele><time>2026-04-18T09:47:03.086Z</time></trkpt><trkpt lat="43.4930667" lon="11.2384883"><ele>424.5</ele><time>2026-04-18T09:47:04.086Z</time></trkpt><trkpt lat="43.493115" lon="11.2386533"><ele>424.25</ele><time>2026-04-18T09:47:05.086Z</time></trkpt><trkpt lat="43.4931483" lon="11.23883"><ele>424.0</ele><time>2026-04-18T09:47:06.086Z</time></trkpt><trkpt lat="43.4931733" lon="11.239"><ele>424.0</ele><time>2026-04-18T09:47:07.086Z</time></trkpt><trkpt lat="43.4931983" lon="11.23917"><ele>424.0</ele><time>2026-04-18T09:47:08.086Z</time></trkpt><trkpt lat="43.4932433" lon="11.2393367"><ele>424.0</ele><time>2026-04-18T09:47:09.085Z</time></trkpt><trkpt lat="43.4933117" lon="11.239495"><ele>424.0</ele><time>2026-04-18T09:47:10.086Z</time></trkpt><trkpt lat="43.493405" lon="11.239645"><ele>424.0</ele><time>2026-04-18T09:47:11.085Z</time></trkpt><trkpt lat="43.493505" lon="11.2397817"><ele>424.0</ele><time>2026-04-18T09:47:12.085Z</time></trkpt><trkpt lat="43.4936067" lon="11.239915"><ele>424.0</ele><time>2026-04-18T09:47:13.086Z</time></trkpt><trkpt lat="43.49371" lon="11.24004"><ele>424.0</ele><time>2026-04-18T09:47:14.085Z</time></trkpt><trkpt lat="43.4938167" lon="11.2401767"><ele>425.0</ele><time>2026-04-18T09:47:15.085Z</time></trkpt><trkpt lat="43.4939067" lon="11.24032"><ele>426.0</ele><time>2026-04-18T09:47:16.085Z</time></trkpt><trkpt lat="43.4939833" lon="11.2404617"><ele>427.0</ele><time>2026-04-18T09:47:17.086Z</time></trkpt><trkpt lat="43.4940517" lon="11.240595"><ele>428.0</ele><time>2026-04-18T09:47:18.086Z</time></trkpt><trkpt lat="43.4941083" lon="11.2407183"><ele>428.0</ele><time>2026-04-18T09:47:19.086Z</time></trkpt><trkpt lat="43.4941583" lon="11.2408383"><ele>427.99999999999994</ele><time>2026-04-18T09:47:20.085Z</time></trkpt><trkpt lat="43.4942017" lon="11.2409433"><ele>427.99999999999994</ele><time>2026-04-18T09:47:21.086Z</time></trkpt><trkpt lat="43.4942333" lon="11.24105"><ele>428.0</ele><time>2026-04-18T09:47:22.085Z</time></trkpt><trkpt lat="43.4942617" lon="11.2411683"><ele>428.0</ele><time>2026-04-18T09:47:23.085Z</time></trkpt><trkpt lat="43.4942733" lon="11.24129"><ele>428.0</ele><time>2026-04-18T09:47:24.085Z</time></trkpt><trkpt lat="43.494275" lon="11.2414233"><ele>427.99999999999994</ele><time>2026-04-18T09:47:25.085Z</time></trkpt><trkpt lat="43.49428" lon="11.24156"><ele>427.99999999999994</ele><time>2026-04-18T09:47:26.086Z</time></trkpt><trkpt lat="43.4942917" lon="11.241705"><ele>428.0</ele><time>2026-04-18T09:47:27.086Z</time></trkpt><trkpt lat="43.4942967" lon="11.2418533"><ele>428.0</ele><time>2026-04-18T09:47:28.085Z</time></trkpt><trkpt lat="43.4942933" lon="11.2420133"><ele>428.0</ele><time>2026-04-18T09:47:29.085Z</time></trkpt><trkpt lat="43.4942883" lon="11.2421717"><ele>428.0</ele><time>2026-04-18T09:47:30.086Z</time></trkpt><trkpt lat="43.494285" lon="11.2423467"><ele>428.0</ele><time>2026-04-18T09:47:31.085Z</time></trkpt><trkpt lat="43.4942933" lon="11.2425217"><ele>428.0</ele><time>2026-04-18T09:47:32.085Z</time></trkpt><trkpt lat="43.4942983" lon="11.2427"><ele>428.0</ele><time>2026-04-18T09:47:33.086Z</time></trkpt><trkpt lat="43.4943083" lon="11.2428933"><ele>428.0</ele><time>2026-04-18T09:47:34.086Z</time></trkpt><trkpt lat="43.4943" lon="11.24308"><ele>428.0</ele><time>2026-04-18T09:47:35.086Z</time></trkpt><trkpt lat="43.4942717" lon="11.2432733"><ele>428.0</ele><time>2026-04-18T09:47:36.086Z</time></trkpt><trkpt lat="43.4942317" lon="11.243465"><ele>428.75</ele><time>2026-04-18T09:47:37.086Z</time></trkpt><trkpt lat="43.4941683" lon="11.2436533"><ele>429.5</ele><time>2026-04-18T09:47:38.086Z</time></trkpt><trkpt lat="43.4941117" lon="11.2438317"><ele>430.25</ele><time>2026-04-18T09:47:39.085Z</time></trkpt><trkpt lat="43.49406" lon="11.244"><ele>431.0</ele><time>2026-04-18T09:47:40.086Z</time></trkpt><trkpt lat="43.4940317" lon="11.2441667"><ele>431.75</ele><time>2026-04-18T09:47:41.085Z</time></trkpt><trkpt lat="43.494015" lon="11.244355"><ele>432.5</ele><time>2026-04-18T09:47:42.085Z</time></trkpt><trkpt lat="43.4940183" lon="11.2445433"><ele>433.25</ele><time>2026-04-18T09:47:43.085Z</time></trkpt><trkpt lat="43.4940317" lon="11.2447333"><ele>434.0</ele><time>2026-04-18T09:47:44.085Z</time></trkpt><trkpt lat="43.494055" lon="11.244915"><ele>434.75</ele><time>2026-04-18T09:47:45.085Z</time></trkpt><trkpt lat="43.494055" lon="11.2450767"><ele>435.5</ele><time>2026-04-18T09:47:46.085Z</time></trkpt><trkpt lat="43.4940183" lon="11.2452383"><ele>436.25</ele><time>2026-04-18T09:47:47.086Z</time></trkpt><trkpt lat="43.49396" lon="11.2453633"><ele>437.0</ele><time>2026-04-18T09:47:48.086Z</time></trkpt><trkpt lat="43.49386" lon="11.2454683"><ele>434.75</ele><time>2026-04-18T09:47:49.085Z</time></trkpt><trkpt lat="43.493735" lon="11.2455183"><ele>432.5</ele><time>2026-04-18T09:47:50.085Z</time></trkpt><trkpt lat="43.4935967" lon="11.2455367"><ele>430.25</ele><time>2026-04-18T09:47:51.086Z</time></trkpt><trkpt lat="43.493465" lon="11.2455583"><ele>428.0</ele><time>2026-04-18T09:47:52.086Z</time></trkpt><trkpt lat="43.4933417" lon="11.245625"><ele>427.0</ele><time>2026-04-18T09:47:53.085Z</time></trkpt><trkpt lat="43.49323" lon="11.24574"><ele>426.0</ele><time>2026-04-18T09:47:54.085Z</time></trkpt><trkpt lat="43.49313" lon="11.2458867"><ele>425.0</ele><time>2026-04-18T09:47:55.085Z</time></trkpt><trkpt lat="43.4930233" lon="11.246045"><ele>424.0</ele><time>2026-04-18T09:47:56.086Z</time></trkpt><trkpt lat="43.4929117" lon="11.2462"><ele>424.0</ele><time>2026-04-18T09:47:57.086Z</time></trkpt><trkpt lat="43.492805" lon="11.2463633"><ele>424.0</ele><time>2026-04-18T09:47:58.085Z</time></trkpt><trkpt lat="43.4927" lon="11.2465433"><ele>424.0</ele><time>2026-04-18T09:47:59.086Z</time></trkpt><trkpt lat="43.4926033" lon="11.24673"><ele>429.0</ele><time>2026-04-18T09:48:00.085Z</time></trkpt><trkpt lat="43.49251" lon="11.2469267"><ele>434.0</ele><time>2026-04-18T09:48:01.086Z</time></trkpt><trkpt lat="43.49243" lon="11.247115"><ele>439.0</ele><time>2026-04-18T09:48:02.085Z</time></trkpt><trkpt lat="43.4923433" lon="11.247295"><ele>439.25</ele><time>2026-04-18T09:48:03.086Z</time></trkpt><trkpt lat="43.49226" lon="11.2474817"><ele>439.5</ele><time>2026-04-18T09:48:04.085Z</time></trkpt><trkpt lat="43.4921917" lon="11.2476567"><ele>439.75</ele><time>2026-04-18T09:48:05.086Z</time></trkpt><trkpt lat="43.4921333" lon="11.2478033"><ele>440.0</ele><time>2026-04-18T09:48:06.085Z</time></trkpt><trkpt lat="43.4920567" lon="11.2479083"><ele>440.0</ele><time>2026-04-18T09:48:07.085Z</time></trkpt><trkpt lat="43.4919733" lon="11.2480017"><ele>440.0</ele><time>2026-04-18T09:48:08.085Z</time></trkpt><trkpt lat="43.4918617" lon="11.2480617"><ele>440.0</ele><time>2026-04-18T09:48:09.085Z</time></trkpt><trkpt lat="43.4917317" lon="11.2480883"><ele>440.0</ele><time>2026-04-18T09:48:10.086Z</time></trkpt><trkpt lat="43.4916167" lon="11.2480683"><ele>440.0</ele><time>2026-04-18T09:48:11.085Z</time></trkpt><trkpt lat="43.4914917" lon="11.24799"><ele>440.0</ele><time>2026-04-18T09:48:12.085Z</time></trkpt><trkpt lat="43.4913667" lon="11.2478967"><ele>440.0</ele><time>2026-04-18T09:48:13.085Z</time></trkpt><trkpt lat="43.4912383" lon="11.2477967"><ele>440.0</ele><time>2026-04-18T09:48:14.086Z</time></trkpt><trkpt lat="43.4911167" lon="11.2477033"><ele>442.75</ele><time>2026-04-18T09:48:15.085Z</time></trkpt><trkpt lat="43.49099" lon="11.2476183"><ele>445.5</ele><time>2026-04-18T09:48:16.086Z</time></trkpt><trkpt lat="43.4908667" lon="11.2475383"><ele>448.25</ele><time>2026-04-18T09:48:17.086Z</time></trkpt><trkpt lat="43.49073" lon="11.2474967"><ele>451.0</ele><time>2026-04-18T09:48:18.085Z</time></trkpt><trkpt lat="43.4905833" lon="11.247475"><ele>451.0</ele><time>2026-04-18T09:48:19.085Z</time></trkpt><trkpt lat="43.4904283" lon="11.2474717"><ele>451.0</ele><time>2026-04-18T09:48:20.086Z</time></trkpt><trkpt lat="43.4902817" lon="11.24747"><ele>451.0</ele><time>2026-04-18T09:48:21.085Z</time></trkpt><trkpt lat="43.4901433" lon="11.24748"><ele>451.0</ele><time>2026-04-18T09:48:22.086Z</time></trkpt><trkpt lat="43.4900033" lon="11.2475067"><ele>452.25</ele><time>2026-04-18T09:48:23.086Z</time></trkpt><trkpt lat="43.4898633" lon="11.2475467"><ele>453.5</ele><time>2026-04-18T09:48:24.085Z</time></trkpt><trkpt lat="43.4897267" lon="11.24756"><ele>454.75</ele><time>2026-04-18T09:48:25.085Z</time></trkpt><trkpt lat="43.4896017" lon="11.2475417"><ele>456.0</ele><time>2026-04-18T09:48:26.085Z</time></trkpt><trkpt lat="43.4894467" lon="11.2475"><ele>456.5</ele><time>2026-04-18T09:48:27.086Z</time></trkpt><trkpt lat="43.4893233" lon="11.247425"><ele>457.0</ele><time>2026-04-18T09:48:28.086Z</time></trkpt><trkpt lat="43.4892" lon="11.2473917"><ele>457.5</ele><time>2026-04-18T09:48:29.085Z</time></trkpt><trkpt lat="43.4890733" lon="11.2474167"><ele>458.0</ele><time>2026-04-18T09:48:30.086Z</time></trkpt><trkpt lat="43.4889383" lon="11.2474933"><ele>458.0</ele><time>2026-04-18T09:48:31.086Z</time></trkpt><trkpt lat="43.48881" lon="11.2476083"><ele>458.0</ele><time>2026-04-18T09:48:32.085Z</time></trkpt><trkpt lat="43.488685" lon="11.247725"><ele>458.0</ele><time>2026-04-18T09:48:33.085Z</time></trkpt><trkpt lat="43.4885583" lon="11.2478583"><ele>455.75</ele><time>2026-04-18T09:48:34.086Z</time></trkpt><trkpt lat="43.488435" lon="11.2479883"><ele>453.5</ele><time>2026-04-18T09:48:35.086Z</time></trkpt><trkpt lat="43.4883133" lon="11.2480983"><ele>451.25</ele><time>2026-04-18T09:48:36.086Z</time></trkpt><trkpt lat="43.48819" lon="11.2482083"><ele>449.0</ele><time>2026-04-18T09:48:37.085Z</time></trkpt><trkpt lat="43.48806" lon="11.2482817"><ele>449.5</ele><time>2026-04-18T09:48:38.085Z</time></trkpt><trkpt lat="43.4879317" lon="11.248335"><ele>450.0</ele><time>2026-04-18T09:48:39.085Z</time></trkpt><trkpt lat="43.4878133" lon="11.2484067"><ele>450.5</ele><time>2026-04-18T09:48:40.085Z</time></trkpt><trkpt lat="43.487725" lon="11.248515"><ele>451.0</ele><time>2026-04-18T09:48:41.085Z</time></trkpt><trkpt lat="43.4876667" lon="11.2486317"><ele>451.0</ele><time>2026-04-18T09:48:42.085Z</time></trkpt><trkpt lat="43.487635" lon="11.248785"><ele>451.0</ele><time>2026-04-18T09:48:43.085Z</time></trkpt><trkpt lat="43.4876217" lon="11.2489683"><ele>451.0</ele><time>2026-04-18T09:48:44.085Z</time></trkpt><trkpt lat="43.4876283" lon="11.249155"><ele>451.0</ele><time>2026-04-18T09:48:45.086Z</time></trkpt><trkpt lat="43.4876433" lon="11.2493233"><ele>452.25</ele><time>2026-04-18T09:48:46.086Z</time></trkpt><trkpt lat="43.4876667" lon="11.2494833"><ele>453.5</ele><time>2026-04-18T09:48:47.085Z</time></trkpt><trkpt lat="43.4876767" lon="11.2496383"><ele>454.75</ele><time>2026-04-18T09:48:48.086Z</time></trkpt><trkpt lat="43.48769" lon="11.2497933"><ele>456.0</ele><time>2026-04-18T09:48:49.085Z</time></trkpt><trkpt lat="43.487705" lon="11.24995"><ele>456.25</ele><time>2026-04-18T09:48:50.085Z</time></trkpt><trkpt lat="43.4877333" lon="11.2501117"><ele>456.5</ele><time>2026-04-18T09:48:51.086Z</time></trkpt><trkpt lat="43.48777" lon="11.250275"><ele>456.75</ele><time>2026-04-18T09:48:52.085Z</time></trkpt><trkpt lat="43.4878183" lon="11.2504367"><ele>457.0</ele><time>2026-04-18T09:48:53.085Z</time></trkpt><trkpt lat="43.4878683" lon="11.250605"><ele>458.5</ele><time>2026-04-18T09:48:54.086Z</time></trkpt><trkpt lat="43.4879167" lon="11.2507533"><ele>460.0</ele><time>2026-04-18T09:48:55.086Z</time></trkpt><trkpt lat="43.487995" lon="11.2509067"><ele>461.5</ele><time>2026-04-18T09:48:56.086Z</time></trkpt><trkpt lat="43.4879933" lon="11.2510433"><ele>463.0</ele><time>2026-04-18T09:48:57.086Z</time></trkpt><trkpt lat="43.4879617" lon="11.25118"><ele>463.0</ele><time>2026-04-18T09:48:58.085Z</time></trkpt><trkpt lat="43.4879017" lon="11.25132"><ele>463.0</ele><time>2026-04-18T09:48:59.085Z</time></trkpt><trkpt lat="43.487805" lon="11.2514233"><ele>463.0</ele><time>2026-04-18T09:49:00.086Z</time></trkpt><trkpt lat="43.48767" lon="11.2514933"><ele>463.0</ele><time>2026-04-18T09:49:01.086Z</time></trkpt><trkpt lat="43.487515" lon="11.2515183"><ele>466.33333333333337</ele><time>2026-04-18T09:49:02.085Z</time></trkpt><trkpt lat="43.48736" lon="11.251525"><ele>469.66666666666663</ele><time>2026-04-18T09:49:03.085Z</time></trkpt><trkpt lat="43.4872033" lon="11.251525"><ele>473.0</ele><time>2026-04-18T09:49:04.085Z</time></trkpt><trkpt lat="43.48705" lon="11.2515317"><ele>473.25</ele><time>2026-04-18T09:49:05.086Z</time></trkpt><trkpt lat="43.4869067" lon="11.2515317"><ele>473.5</ele><time>2026-04-18T09:49:06.086Z</time></trkpt><trkpt lat="43.486775" lon="11.2515467"><ele>473.75</ele><time>2026-04-18T09:49:07.085Z</time></trkpt><trkpt lat="43.4866617" lon="11.2515683"><ele>474.0</ele><time>2026-04-18T09:49:08.085Z</time></trkpt><trkpt lat="43.4865583" lon="11.2516417"><ele>474.0</ele><time>2026-04-18T09:49:09.086Z</time></trkpt><trkpt lat="43.4864683" lon="11.2517567"><ele>474.0</ele><time>2026-04-18T09:49:10.086Z</time></trkpt><trkpt lat="43.4863967" lon="11.251905"><ele>474.0</ele><time>2026-04-18T09:49:11.085Z</time></trkpt><trkpt lat="43.4863717" lon="11.2520967"><ele>474.0</ele><time>2026-04-18T09:49:12.086Z</time></trkpt><trkpt lat="43.48639" lon="11.2522967"><ele>475.75</ele><time>2026-04-18T09:49:13.086Z</time></trkpt><trkpt lat="43.4864167" lon="11.25249"><ele>477.5</ele><time>2026-04-18T09:49:14.085Z</time></trkpt><trkpt lat="43.48643" lon="11.252665"><ele>479.25</ele><time>2026-04-18T09:49:15.086Z</time></trkpt><trkpt lat="43.4864383" lon="11.25282"><ele>481.0</ele><time>2026-04-18T09:49:16.086Z</time></trkpt><trkpt lat="43.486405" lon="11.25297"><ele>481.0</ele><time>2026-04-18T09:49:17.085Z</time></trkpt><trkpt lat="43.48634" lon="11.2530867"><ele>481.0</ele><time>2026-04-18T09:49:18.086Z</time></trkpt><trkpt lat="43.48625" lon="11.253175"><ele>481.0</ele><time>2026-04-18T09:49:19.085Z</time></trkpt><trkpt lat="43.4861233" lon="11.2532083"><ele>481.0</ele><time>2026-04-18T09:49:20.086Z</time></trkpt><trkpt lat="43.4859933" lon="11.2532033"><ele>480.0</ele><time>2026-04-18T09:49:21.085Z</time></trkpt><trkpt lat="43.4858683" lon="11.2531333"><ele>479.0</ele><time>2026-04-18T09:49:22.085Z</time></trkpt><trkpt lat="43.4857517" lon="11.25302"><ele>478.0</ele><time>2026-04-18T09:49:23.085Z</time></trkpt><trkpt lat="43.4856467" lon="11.2529067"><ele>477.0</ele><time>2026-04-18T09:49:24.086Z</time></trkpt><trkpt lat="43.4855367" lon="11.2527933"><ele>478.5</ele><time>2026-04-18T09:49:25.086Z</time></trkpt><trkpt lat="43.4854167" lon="11.2526967"><ele>480.0</ele><time>2026-04-18T09:49:26.086Z</time></trkpt><trkpt lat="43.4852967" lon="11.252615"><ele>481.5</ele><time>2026-04-18T09:49:27.085Z</time></trkpt><trkpt lat="43.485175" lon="11.252545"><ele>483.0</ele><time>2026-04-18T09:49:28.086Z</time></trkpt><trkpt lat="43.485045" lon="11.2524783"><ele>483.0</ele><time>2026-04-18T09:49:29.086Z</time></trkpt><trkpt lat="43.4849083" lon="11.252415"><ele>483.0</ele><time>2026-04-18T09:49:30.085Z</time></trkpt><trkpt lat="43.4847717" lon="11.2523917"><ele>483.0</ele><time>2026-04-18T09:49:31.085Z</time></trkpt><trkpt lat="43.48462" lon="11.25241"><ele>483.0</ele><time>2026-04-18T09:49:32.085Z</time></trkpt><trkpt lat="43.4844767" lon="11.25242"><ele>482.25</ele><time>2026-04-18T09:49:33.085Z</time></trkpt><trkpt lat="43.484345" lon="11.2524583"><ele>481.5</ele><time>2026-04-18T09:49:34.086Z</time></trkpt><trkpt lat="43.484225" lon="11.2525467"><ele>480.75</ele><time>2026-04-18T09:49:35.085Z</time></trkpt><trkpt lat="43.48411" lon="11.2526683"><ele>480.0</ele><time>2026-04-18T09:49:36.085Z</time></trkpt><trkpt lat="43.4840333" lon="11.2528367"><ele>480.0</ele><time>2026-04-18T09:49:37.086Z</time></trkpt><trkpt lat="43.4839933" lon="11.2530233"><ele>480.0</ele><time>2026-04-18T09:49:38.086Z</time></trkpt><trkpt lat="43.4839883" lon="11.2532233"><ele>480.0</ele><time>2026-04-18T09:49:39.086Z</time></trkpt><trkpt lat="43.48402" lon="11.253435"><ele>480.0</ele><time>2026-04-18T09:49:40.085Z</time></trkpt><trkpt lat="43.4840667" lon="11.2536433"><ele>481.33333333333337</ele><time>2026-04-18T09:49:41.086Z</time></trkpt><trkpt lat="43.4841133" lon="11.2538467"><ele>482.6666666666667</ele><time>2026-04-18T09:49:42.085Z</time></trkpt><trkpt lat="43.4841617" lon="11.25405"><ele>484.0</ele><time>2026-04-18T09:49:43.085Z</time></trkpt><trkpt lat="43.4842117" lon="11.2542417"><ele>484.0</ele><time>2026-04-18T09:49:44.085Z</time></trkpt><trkpt lat="43.48426" lon="11.2544217"><ele>484.0</ele><time>2026-04-18T09:49:45.085Z</time></trkpt><trkpt lat="43.484295" lon="11.2546017"><ele>484.0</ele><time>2026-04-18T09:49:46.085Z</time></trkpt><trkpt lat="43.4842983" lon="11.2547817"><ele>484.0</ele><time>2026-04-18T09:49:47.085Z</time></trkpt><trkpt lat="43.48426" lon="11.25496"><ele>484.75</ele><time>2026-04-18T09:49:48.085Z</time></trkpt><trkpt lat="43.484195" lon="11.255135"><ele>485.5</ele><time>2026-04-18T09:49:49.086Z</time></trkpt><trkpt lat="43.4841233" lon="11.255315"><ele>486.25</ele><time>2026-04-18T09:49:50.085Z</time></trkpt><trkpt lat="43.4840767" lon="11.2555083"><ele>487.0</ele><time>2026-04-18T09:49:51.086Z</time></trkpt><trkpt lat="43.48404" lon="11.2557"><ele>485.75</ele><time>2026-04-18T09:49:52.085Z</time></trkpt><trkpt lat="43.4840033" lon="11.2558933"><ele>484.5</ele><time>2026-04-18T09:49:53.086Z</time></trkpt><trkpt lat="43.48395" lon="11.25607"><ele>483.25</ele><time>2026-04-18T09:49:54.085Z</time></trkpt><trkpt lat="43.483855" lon="11.256225"><ele>482.0</ele><time>2026-04-18T09:49:55.085Z</time></trkpt><trkpt lat="43.48376" lon="11.2563617"><ele>484.5</ele><time>2026-04-18T09:49:56.086Z</time></trkpt><trkpt lat="43.4836967" lon="11.2565167"><ele>487.0</ele><time>2026-04-18T09:49:57.086Z</time></trkpt><trkpt lat="43.4836533" lon="11.2566883"><ele>489.5</ele><time>2026-04-18T09:49:58.085Z</time></trkpt><trkpt lat="43.4836083" lon="11.2568417"><ele>492.0</ele><time>2026-04-18T09:49:59.085Z</time></trkpt><trkpt lat="43.4835433" lon="11.2569433"><ele>492.0</ele><time>2026-04-18T09:50:00.086Z</time></trkpt><trkpt lat="43.483455" lon="11.25702"><ele>492.0</ele><time>2026-04-18T09:50:01.085Z</time></trkpt><trkpt lat="43.4833367" lon="11.2570317"><ele>492.0</ele><time>2026-04-18T09:50:02.086Z</time></trkpt><trkpt lat="43.4832167" lon="11.2569783"><ele>492.0</ele><time>2026-04-18T09:50:03.086Z</time></trkpt><trkpt lat="43.4830817" lon="11.2568767"><ele>492.0</ele><time>2026-04-18T09:50:04.085Z</time></trkpt><trkpt lat="43.482955" lon="11.25676"><ele>492.0</ele><time>2026-04-18T09:50:05.085Z</time></trkpt><trkpt lat="43.482825" lon="11.256635"><ele>492.0</ele><time>2026-04-18T09:50:06.085Z</time></trkpt><trkpt lat="43.4827033" lon="11.2564967"><ele>493.0</ele><time>2026-04-18T09:50:07.086Z</time></trkpt><trkpt lat="43.4826033" lon="11.2563467"><ele>494.0</ele><time>2026-04-18T09:50:08.085Z</time></trkpt><trkpt lat="43.4825167" lon="11.25617"><ele>495.0</ele><time>2026-04-18T09:50:09.086Z</time></trkpt><trkpt lat="43.48243" lon="11.255985"><ele>495.0</ele><time>2026-04-18T09:50:10.085Z</time></trkpt><trkpt lat="43.4823433" lon="11.25581"><ele>495.0</ele><time>2026-04-18T09:50:11.086Z</time></trkpt><trkpt lat="43.4822467" lon="11.255655"><ele>495.0</ele><time>2026-04-18T09:50:12.085Z</time></trkpt><trkpt lat="43.4821367" lon="11.2555117"><ele>494.75</ele><time>2026-04-18T09:50:13.086Z</time></trkpt><trkpt lat="43.4820133" lon="11.255375"><ele>494.5</ele><time>2026-04-18T09:50:14.085Z</time></trkpt><trkpt lat="43.4819" lon="11.2552567"><ele>494.25</ele><time>2026-04-18T09:50:15.085Z</time></trkpt><trkpt lat="43.481785" lon="11.25515"><ele>494.0</ele><time>2026-04-18T09:50:16.085Z</time></trkpt><trkpt lat="43.4816667" lon="11.2550783"><ele>494.0</ele><time>2026-04-18T09:50:17.086Z</time></trkpt><trkpt lat="43.481545" lon="11.2550533"><ele>494.0</ele><time>2026-04-18T09:50:18.086Z</time></trkpt><trkpt lat="43.48142" lon="11.2550817"><ele>494.0</ele><time>2026-04-18T09:50:19.085Z</time></trkpt><trkpt lat="43.4812983" lon="11.2551517"><ele>494.0</ele><time>2026-04-18T09:50:20.086Z</time></trkpt><trkpt lat="43.481175" lon="11.2552633"><ele>491.66666666666663</ele><time>2026-04-18T09:50:21.085Z</time></trkpt><trkpt lat="43.48105" lon="11.2553867"><ele>489.33333333333337</ele><time>2026-04-18T09:50:22.086Z</time></trkpt><trkpt lat="43.4809217" lon="11.25551"><ele>487.0</ele><time>2026-04-18T09:50:23.086Z</time></trkpt><trkpt lat="43.48081" lon="11.2556333"><ele>490.75</ele><time>2026-04-18T09:50:24.084Z</time></trkpt><trkpt lat="43.4807117" lon="11.2557467"><ele>494.5</ele><time>2026-04-18T09:50:25.085Z</time></trkpt><trkpt lat="43.480625" lon="11.2558767"><ele>498.25</ele><time>2026-04-18T09:50:26.084Z</time></trkpt><trkpt lat="43.48055" lon="11.256025"><ele>502.0</ele><time>2026-04-18T09:50:27.085Z</time></trkpt><trkpt lat="43.48051" lon="11.2562083"><ele>502.0</ele><time>2026-04-18T09:50:28.084Z</time></trkpt><trkpt lat="43.4804967" lon="11.2564"><ele>502.0</ele><time>2026-04-18T09:50:29.084Z</time></trkpt><trkpt lat="43.48051" lon="11.256585"><ele>502.0</ele><time>2026-04-18T09:50:30.085Z</time></trkpt><trkpt lat="43.4805333" lon="11.25675"><ele>502.0</ele><time>2026-04-18T09:50:31.084Z</time></trkpt><trkpt lat="43.48057" lon="11.2569033"><ele>502.6666666666667</ele><time>2026-04-18T09:50:32.084Z</time></trkpt><trkpt lat="43.4806167" lon="11.2570433"><ele>503.33333333333337</ele><time>2026-04-18T09:50:33.085Z</time></trkpt><trkpt lat="43.480655" lon="11.2571533"><ele>504.0</ele><time>2026-04-18T09:50:34.084Z</time></trkpt><trkpt lat="43.4806833" lon="11.257245"><ele>504.66666666666663</ele><time>2026-04-18T09:50:35.084Z</time></trkpt><trkpt lat="43.4807" lon="11.2573533"><ele>505.3333333333333</ele><time>2026-04-18T09:50:37.084Z</time></trkpt><trkpt lat="43.480625" lon="11.2572733"><ele>506.0</ele><time>2026-04-18T09:50:41.085Z</time></trkpt><trkpt lat="43.4805817" lon="11.2571017"><ele>506.49999999999994</ele><time>2026-04-18T09:50:43.084Z</time></trkpt><trkpt lat="43.480555" lon="11.2569967"><ele>507.0</ele><time>2026-04-18T09:50:44.084Z</time></trkpt><trkpt lat="43.4805217" lon="11.2568983"><ele>507.5</ele><time>2026-04-18T09:50:45.084Z</time></trkpt><trkpt lat="43.4804883" lon="11.25681"><ele>508.0</ele><time>2026-04-18T09:50:46.084Z</time></trkpt><trkpt lat="43.4804567" lon="11.2567233"><ele>508.49999999999994</ele><time>2026-04-18T09:50:47.085Z</time></trkpt><trkpt lat="43.480415" lon="11.25664"><ele>509.0</ele><time>2026-04-18T09:50:48.085Z</time></trkpt><trkpt lat="43.4803717" lon="11.2565433"><ele>504.16666666666663</ele><time>2026-04-18T09:50:49.084Z</time></trkpt><trkpt lat="43.480325" lon="11.2564517"><ele>499.3333333333333</ele><time>2026-04-18T09:50:50.085Z</time></trkpt><trkpt lat="43.48028" lon="11.256345"><ele>494.5</ele><time>2026-04-18T09:50:51.084Z</time></trkpt><trkpt lat="43.48024" lon="11.25624"><ele>489.66666666666663</ele><time>2026-04-18T09:50:52.085Z</time></trkpt><trkpt lat="43.4802017" lon="11.2561333"><ele>484.8333333333333</ele><time>2026-04-18T09:50:53.084Z</time></trkpt><trkpt lat="43.48017" lon="11.25603"><ele>480.0</ele><time>2026-04-18T09:50:54.085Z</time></trkpt><trkpt lat="43.4801433" lon="11.2559367"><ele>480.0</ele><time>2026-04-18T09:50:55.085Z</time></trkpt><trkpt lat="43.48013" lon="11.2558383"><ele>480.0</ele><time>2026-04-18T09:50:56.084Z</time></trkpt><trkpt lat="43.4801133" lon="11.2557483"><ele>480.0</ele><time>2026-04-18T09:50:57.085Z</time></trkpt><trkpt lat="43.4800783" lon="11.2556483"><ele>480.0</ele><time>2026-04-18T09:50:58.085Z</time></trkpt><trkpt lat="43.480035" lon="11.2555483"><ele>480.0</ele><time>2026-04-18T09:50:59.085Z</time></trkpt><trkpt lat="43.4799883" lon="11.25545"><ele>480.0</ele><time>2026-04-18T09:51:00.084Z</time></trkpt><trkpt lat="43.4799433" lon="11.25537"><ele>478.8333333333333</ele><time>2026-04-18T09:51:01.084Z</time></trkpt><trkpt lat="43.4799117" lon="11.2552717"><ele>477.66666666666663</ele><time>2026-04-18T09:51:02.084Z</time></trkpt><trkpt lat="43.4798867" lon="11.2551833"><ele>476.5</ele><time>2026-04-18T09:51:03.084Z</time></trkpt><trkpt lat="43.47988" lon="11.2550383"><ele>475.3333333333333</ele><time>2026-04-18T09:51:05.084Z</time></trkpt><trkpt lat="43.4799133" lon="11.2549133"><ele>474.16666666666663</ele><time>2026-04-18T09:51:07.084Z</time></trkpt><trkpt lat="43.4799017" lon="11.2547933"><ele>473.0</ele><time>2026-04-18T09:51:09.084Z</time></trkpt><trkpt lat="43.4798" lon="11.25474"><ele>471.0</ele><time>2026-04-18T09:51:11.084Z</time></trkpt><trkpt lat="43.479725" lon="11.254715"><ele>469.0</ele><time>2026-04-18T09:51:12.084Z</time></trkpt><trkpt lat="43.479655" lon="11.2547"><ele>467.0</ele><time>2026-04-18T09:51:13.084Z</time></trkpt><trkpt lat="43.4795717" lon="11.2546733"><ele>465.0</ele><time>2026-04-18T09:51:14.084Z</time></trkpt><trkpt lat="43.4795033" lon="11.254625"><ele>463.0</ele><time>2026-04-18T09:51:15.084Z</time></trkpt><trkpt lat="43.47945" lon="11.25457"><ele>461.0</ele><time>2026-04-18T09:51:16.084Z</time></trkpt><trkpt lat="43.479405" lon="11.2545033"><ele>459.0</ele><time>2026-04-18T09:51:17.084Z</time></trkpt><trkpt lat="43.4793533" lon="11.254425"><ele>458.0</ele><time>2026-04-18T09:51:18.084Z</time></trkpt><trkpt lat="43.4792983" lon="11.254335"><ele>457.0</ele><time>2026-04-18T09:51:19.085Z</time></trkpt><trkpt lat="43.4792467" lon="11.2542417"><ele>456.0</ele><time>2026-04-18T09:51:20.085Z</time></trkpt><trkpt lat="43.47921" lon="11.2541433"><ele>455.0</ele><time>2026-04-18T09:51:21.084Z</time></trkpt><trkpt lat="43.479185" lon="11.254055"><ele>454.0</ele><time>2026-04-18T09:51:22.085Z</time></trkpt><trkpt lat="43.47917" lon="11.253925"><ele>453.0</ele><time>2026-04-18T09:51:24.085Z</time></trkpt><trkpt lat="43.4792133" lon="11.2538217"><ele>451.3333333333333</ele><time>2026-04-18T09:51:26.084Z</time></trkpt><trkpt lat="43.47933" lon="11.2537717"><ele>449.66666666666663</ele><time>2026-04-18T09:51:28.085Z</time></trkpt><trkpt lat="43.4794033" lon="11.25376"><ele>448.0</ele><time>2026-04-18T09:51:29.084Z</time></trkpt><trkpt lat="43.4794783" lon="11.2537533"><ele>446.3333333333333</ele><time>2026-04-18T09:51:30.085Z</time></trkpt><trkpt lat="43.479545" lon="11.2537533"><ele>444.66666666666663</ele><time>2026-04-18T09:51:31.084Z</time></trkpt><trkpt lat="43.4796517" lon="11.253765"><ele>443.0</ele><time>2026-04-18T09:51:33.084Z</time></trkpt><trkpt lat="43.4797467" lon="11.2537567"><ele>442.99999999999994</ele><time>2026-04-18T09:51:35.085Z</time></trkpt><trkpt lat="43.4798033" lon="11.2537183"><ele>443.0</ele><time>2026-04-18T09:51:36.085Z</time></trkpt><trkpt lat="43.4798583" lon="11.253665"><ele>443.0</ele><time>2026-04-18T09:51:37.084Z</time></trkpt><trkpt lat="43.4799" lon="11.2536"><ele>443.0</ele><time>2026-04-18T09:51:38.085Z</time></trkpt><trkpt lat="43.479945" lon="11.2535017"><ele>442.99999999999994</ele><time>2026-04-18T09:51:39.084Z</time></trkpt><trkpt lat="43.4799833" lon="11.25339"><ele>443.0</ele><time>2026-04-18T09:51:40.085Z</time></trkpt><trkpt lat="43.48001" lon="11.253255"><ele>443.0</ele><time>2026-04-18T09:51:41.084Z</time></trkpt><trkpt lat="43.48003" lon="11.2531283"><ele>442.99999999999994</ele><time>2026-04-18T09:51:42.085Z</time></trkpt><trkpt lat="43.4800383" lon="11.253"><ele>442.99999999999994</ele><time>2026-04-18T09:51:43.085Z</time></trkpt><trkpt lat="43.4800567" lon="11.2528617"><ele>443.0</ele><time>2026-04-18T09:51:44.085Z</time></trkpt><trkpt lat="43.4800633" lon="11.2527267"><ele>443.0</ele><time>2026-04-18T09:51:45.084Z</time></trkpt><trkpt lat="43.48007" lon="11.2525933"><ele>441.16666666666663</ele><time>2026-04-18T09:51:46.084Z</time></trkpt><trkpt lat="43.4800817" lon="11.2524617"><ele>439.3333333333333</ele><time>2026-04-18T09:51:47.084Z</time></trkpt><trkpt lat="43.4800883" lon="11.252345"><ele>437.5</ele><time>2026-04-18T09:51:48.085Z</time></trkpt><trkpt lat="43.4801" lon="11.2522483"><ele>435.66666666666663</ele><time>2026-04-18T09:51:49.084Z</time></trkpt><trkpt lat="43.480115" lon="11.2521483"><ele>433.8333333333333</ele><time>2026-04-18T09:51:50.084Z</time></trkpt><trkpt lat="43.4801133" lon="11.25198"><ele>432.0</ele><time>2026-04-18T09:51:52.084Z</time></trkpt><trkpt lat="43.4800783" lon="11.2519"><ele>431.0</ele><time>2026-04-18T09:51:53.085Z</time></trkpt><trkpt lat="43.48003" lon="11.2518183"><ele>430.0</ele><time>2026-04-18T09:51:54.084Z</time></trkpt><trkpt lat="43.479995" lon="11.251715"><ele>429.0</ele><time>2026-04-18T09:51:55.084Z</time></trkpt><trkpt lat="43.4799733" lon="11.2516133"><ele>428.0</ele><time>2026-04-18T09:51:56.084Z</time></trkpt><trkpt lat="43.47997" lon="11.2515"><ele>427.0</ele><time>2026-04-18T09:51:57.085Z</time></trkpt><trkpt lat="43.4799633" lon="11.2513767"><ele>426.0</ele><time>2026-04-18T09:51:58.085Z</time></trkpt><trkpt lat="43.479955" lon="11.2512483"><ele>424.6</ele><time>2026-04-18T09:51:59.085Z</time></trkpt><trkpt lat="43.479945" lon="11.251125"><ele>423.20000000000005</ele><time>2026-04-18T09:52:00.084Z</time></trkpt><trkpt lat="43.479915" lon="11.2510117"><ele>421.79999999999995</ele><time>2026-04-18T09:52:01.084Z</time></trkpt><trkpt lat="43.4798783" lon="11.250895"><ele>420.4</ele><time>2026-04-18T09:52:02.084Z</time></trkpt><trkpt lat="43.4798267" lon="11.250775"><ele>419.0</ele><time>2026-04-18T09:52:03.084Z</time></trkpt><trkpt lat="43.4797717" lon="11.2506517"><ele>417.49999999999994</ele><time>2026-04-18T09:52:04.085Z</time></trkpt><trkpt lat="43.4797183" lon="11.2505417"><ele>416.0</ele><time>2026-04-18T09:52:05.085Z</time></trkpt><trkpt lat="43.4796717" lon="11.2504383"><ele>414.5</ele><time>2026-04-18T09:52:06.084Z</time></trkpt><trkpt lat="43.4796283" lon="11.2503333"><ele>413.0</ele><time>2026-04-18T09:52:07.084Z</time></trkpt><trkpt lat="43.47958" lon="11.2502483"><ele>411.49999999999994</ele><time>2026-04-18T09:52:08.084Z</time></trkpt><trkpt lat="43.47951" lon="11.2501783"><ele>410.0</ele><time>2026-04-18T09:52:09.085Z</time></trkpt><trkpt lat="43.47943" lon="11.2501133"><ele>410.0</ele><time>2026-04-18T09:52:10.085Z</time></trkpt><trkpt lat="43.4793517" lon="11.25005"><ele>410.0</ele><time>2026-04-18T09:52:11.084Z</time></trkpt><trkpt lat="43.4792533" lon="11.249985"><ele>410.0</ele><time>2026-04-18T09:52:12.085Z</time></trkpt><trkpt lat="43.479145" lon="11.2499167"><ele>410.0</ele><time>2026-04-18T09:52:13.085Z</time></trkpt><trkpt lat="43.4790367" lon="11.24985"><ele>410.0</ele><time>2026-04-18T09:52:14.084Z</time></trkpt><trkpt lat="43.4789267" lon="11.2497733"><ele>410.5</ele><time>2026-04-18T09:52:15.084Z</time></trkpt><trkpt lat="43.4788133" lon="11.249675"><ele>411.0</ele><time>2026-04-18T09:52:16.084Z</time></trkpt><trkpt lat="43.478705" lon="11.2495533"><ele>411.5</ele><time>2026-04-18T09:52:17.084Z</time></trkpt><trkpt lat="43.478605" lon="11.249435"><ele>412.0</ele><time>2026-04-18T09:52:18.084Z</time></trkpt><trkpt lat="43.4785317" lon="11.24931"><ele>412.0</ele><time>2026-04-18T09:52:19.085Z</time></trkpt><trkpt lat="43.47849" lon="11.24917"><ele>412.0</ele><time>2026-04-18T09:52:20.084Z</time></trkpt><trkpt lat="43.4784517" lon="11.249015"><ele>412.0</ele><time>2026-04-18T09:52:21.085Z</time></trkpt><trkpt lat="43.4784217" lon="11.248845"><ele>412.0</ele><time>2026-04-18T09:52:22.084Z</time></trkpt><trkpt lat="43.478385" lon="11.2486733"><ele>412.25</ele><time>2026-04-18T09:52:23.085Z</time></trkpt><trkpt lat="43.4783367" lon="11.24851"><ele>412.5</ele><time>2026-04-18T09:52:24.085Z</time></trkpt><trkpt lat="43.47829" lon="11.2483533"><ele>412.75</ele><time>2026-04-18T09:52:25.084Z</time></trkpt><trkpt lat="43.478235" lon="11.248205"><ele>413.0</ele><time>2026-04-18T09:52:26.084Z</time></trkpt><trkpt lat="43.4781683" lon="11.248055"><ele>413.0</ele><time>2026-04-18T09:52:27.084Z</time></trkpt><trkpt lat="43.4780983" lon="11.24791"><ele>413.0</ele><time>2026-04-18T09:52:28.084Z</time></trkpt><trkpt lat="43.478035" lon="11.2477517"><ele>413.0</ele><time>2026-04-18T09:52:29.085Z</time></trkpt><trkpt lat="43.47797" lon="11.2476017"><ele>413.0</ele><time>2026-04-18T09:52:30.084Z</time></trkpt><trkpt lat="43.477905" lon="11.247435"><ele>417.5</ele><time>2026-04-18T09:52:31.084Z</time></trkpt><trkpt lat="43.4778467" lon="11.2472667"><ele>422.0</ele><time>2026-04-18T09:52:32.085Z</time></trkpt><trkpt lat="43.4777983" lon="11.2471317"><ele>426.5</ele><time>2026-04-18T09:52:33.085Z</time></trkpt><trkpt lat="43.4777367" lon="11.247015"><ele>431.0</ele><time>2026-04-18T09:52:34.085Z</time></trkpt><trkpt lat="43.47767" lon="11.2468933"><ele>431.0</ele><time>2026-04-18T09:52:35.085Z</time></trkpt><trkpt lat="43.4776183" lon="11.246765"><ele>431.0</ele><time>2026-04-18T09:52:36.085Z</time></trkpt><trkpt lat="43.477565" lon="11.2466083"><ele>431.0</ele><time>2026-04-18T09:52:37.084Z</time></trkpt><trkpt lat="43.4775167" lon="11.246455"><ele>431.0</ele><time>2026-04-18T09:52:38.084Z</time></trkpt><trkpt lat="43.4774767" lon="11.24633"><ele>431.0</ele><time>2026-04-18T09:52:39.084Z</time></trkpt><trkpt lat="43.477435" lon="11.2462417"><ele>431.0</ele><time>2026-04-18T09:52:40.084Z</time></trkpt><trkpt lat="43.4773767" lon="11.24615"><ele>431.0</ele><time>2026-04-18T09:52:41.084Z</time></trkpt><trkpt lat="43.4773117" lon="11.2460467"><ele>431.0</ele><time>2026-04-18T09:52:42.084Z</time></trkpt><trkpt lat="43.4772483" lon="11.2459417"><ele>431.0</ele><time>2026-04-18T09:52:43.085Z</time></trkpt><trkpt lat="43.4772067" lon="11.2458183"><ele>431.0</ele><time>2026-04-18T09:52:44.084Z</time></trkpt><trkpt lat="43.4771817" lon="11.2456517"><ele>431.0</ele><time>2026-04-18T09:52:45.085Z</time></trkpt><trkpt lat="43.4771733" lon="11.2454817"><ele>431.0</ele><time>2026-04-18T09:52:46.084Z</time></trkpt><trkpt lat="43.4771733" lon="11.2453333"><ele>431.0</ele><time>2026-04-18T09:52:47.084Z</time></trkpt><trkpt lat="43.4771817" lon="11.2451983"><ele>431.8333333333333</ele><time>2026-04-18T09:52:48.084Z</time></trkpt><trkpt lat="43.47722" lon="11.2450783"><ele>432.66666666666663</ele><time>2026-04-18T09:52:49.084Z</time></trkpt><trkpt lat="43.4772833" lon="11.2449683"><ele>433.5</ele><time>2026-04-18T09:52:50.084Z</time></trkpt><trkpt lat="43.47733" lon="11.2448683"><ele>434.33333333333337</ele><time>2026-04-18T09:52:51.085Z</time></trkpt><trkpt lat="43.4773583" lon="11.2447617"><ele>435.1666666666667</ele><time>2026-04-18T09:52:52.085Z</time></trkpt><trkpt lat="43.4773633" lon="11.2446667"><ele>436.0</ele><time>2026-04-18T09:52:53.084Z</time></trkpt><trkpt lat="43.4773467" lon="11.2445767"><ele>436.00000000000006</ele><time>2026-04-18T09:52:54.085Z</time></trkpt><trkpt lat="43.4773167" lon="11.2444867"><ele>436.0</ele><time>2026-04-18T09:52:55.084Z</time></trkpt><trkpt lat="43.4772783" lon="11.2444117"><ele>436.0</ele><time>2026-04-18T09:52:56.085Z</time></trkpt><trkpt lat="43.4772417" lon="11.2443383"><ele>436.0</ele><time>2026-04-18T09:52:57.084Z</time></trkpt><trkpt lat="43.4772017" lon="11.24425"><ele>436.00000000000006</ele><time>2026-04-18T09:52:58.084Z</time></trkpt><trkpt lat="43.4771651" lon="11.2441321"><ele>436.0</ele><time>2026-04-18T09:52:59.084Z</time></trkpt><trkpt lat="43.4771171" lon="11.2439882"><ele>439.25</ele><time>2026-04-18T09:53:00.084Z</time></trkpt><trkpt lat="43.4770634" lon="11.2438374"><ele>442.5</ele><time>2026-04-18T09:53:01.085Z</time></trkpt><trkpt lat="43.4770138" lon="11.243686"><ele>445.75</ele><time>2026-04-18T09:53:02.084Z</time></trkpt><trkpt lat="43.476975" lon="11.24355"><ele>449.0</ele><time>2026-04-18T09:53:03.085Z</time></trkpt><trkpt lat="43.4769417" lon="11.243415"><ele>449.0</ele><time>2026-04-18T09:53:04.085Z</time></trkpt><trkpt lat="43.4769133" lon="11.243275"><ele>449.0</ele><time>2026-04-18T09:53:05.084Z</time></trkpt><trkpt lat="43.4768783" lon="11.243125"><ele>449.0</ele><time>2026-04-18T09:53:06.085Z</time></trkpt><trkpt lat="43.4768333" lon="11.2429733"><ele>449.0</ele><time>2026-04-18T09:53:07.084Z</time></trkpt><trkpt lat="43.4767817" lon="11.2428183"><ele>448.75</ele><time>2026-04-18T09:53:08.085Z</time></trkpt><trkpt lat="43.4767183" lon="11.2426667"><ele>448.5</ele><time>2026-04-18T09:53:09.084Z</time></trkpt><trkpt lat="43.4766467" lon="11.242525"><ele>448.25</ele><time>2026-04-18T09:53:10.085Z</time></trkpt><trkpt lat="43.4765667" lon="11.242385"><ele>448.0</ele><time>2026-04-18T09:53:11.084Z</time></trkpt><trkpt lat="43.4764767" lon="11.2422483"><ele>445.25</ele><time>2026-04-18T09:53:12.084Z</time></trkpt><trkpt lat="43.4763933" lon="11.2421183"><ele>442.5</ele><time>2026-04-18T09:53:13.084Z</time></trkpt><trkpt lat="43.476315" lon="11.241995"><ele>439.75</ele><time>2026-04-18T09:53:14.084Z</time></trkpt><trkpt lat="43.47624" lon="11.2418833"><ele>437.0</ele><time>2026-04-18T09:53:15.085Z</time></trkpt><trkpt lat="43.4761733" lon="11.24178"><ele>437.0</ele><time>2026-04-18T09:53:16.084Z</time></trkpt><trkpt lat="43.476095" lon="11.241675"><ele>437.00000000000006</ele><time>2026-04-18T09:53:17.084Z</time></trkpt><trkpt lat="43.476015" lon="11.241585"><ele>437.00000000000006</ele><time>2026-04-18T09:53:18.084Z</time></trkpt><trkpt lat="43.4759433" lon="11.2415"><ele>437.0</ele><time>2026-04-18T09:53:19.084Z</time></trkpt><trkpt lat="43.4758733" lon="11.2414083"><ele>437.0</ele><time>2026-04-18T09:53:20.084Z</time></trkpt><trkpt lat="43.475805" lon="11.2413133"><ele>434.6</ele><time>2026-04-18T09:53:21.085Z</time></trkpt><trkpt lat="43.4757333" lon="11.2412167"><ele>432.20000000000005</ele><time>2026-04-18T09:53:22.084Z</time></trkpt><trkpt lat="43.4756683" lon="11.2411233"><ele>429.8</ele><time>2026-04-18T09:53:23.084Z</time></trkpt><trkpt lat="43.475605" lon="11.24104"><ele>427.4</ele><time>2026-04-18T09:53:24.084Z</time></trkpt><trkpt lat="43.4755267" lon="11.240975"><ele>425.0</ele><time>2026-04-18T09:53:25.085Z</time></trkpt><trkpt lat="43.475435" lon="11.2409267"><ele>424.6</ele><time>2026-04-18T09:53:26.084Z</time></trkpt><trkpt lat="43.4753417" lon="11.24089"><ele>424.2</ele><time>2026-04-18T09:53:27.085Z</time></trkpt><trkpt lat="43.4752467" lon="11.2408567"><ele>423.79999999999995</ele><time>2026-04-18T09:53:28.084Z</time></trkpt><trkpt lat="43.4751587" lon="11.2408251"><ele>423.4</ele><time>2026-04-18T09:53:29.085Z</time></trkpt><trkpt lat="43.4750757" lon="11.2407844"><ele>423.0</ele><time>2026-04-18T09:53:30.085Z</time></trkpt><trkpt lat="43.4749889" lon="11.2407312"><ele>423.0</ele><time>2026-04-18T09:53:31.084Z</time></trkpt><trkpt lat="43.4748934" lon="11.2406719"><ele>423.0</ele><time>2026-04-18T09:53:32.084Z</time></trkpt><trkpt lat="43.4747945" lon="11.2406069"><ele>423.0</ele><time>2026-04-18T09:53:33.085Z</time></trkpt><trkpt lat="43.4746934" lon="11.2405465"><ele>423.0</ele><time>2026-04-18T09:53:34.085Z</time></trkpt><trkpt lat="43.4746018" lon="11.2404872"><ele>423.0</ele><time>2026-04-18T09:53:35.085Z</time></trkpt><trkpt lat="43.4745264" lon="11.2404153"><ele>421.59999999999997</ele><time>2026-04-18T09:53:36.085Z</time></trkpt><trkpt lat="43.4744551" lon="11.2403388"><ele>420.2</ele><time>2026-04-18T09:53:37.085Z</time></trkpt><trkpt lat="43.4743813" lon="11.2402825"><ele>418.8</ele><time>2026-04-18T09:53:38.085Z</time></trkpt><trkpt lat="43.4742925" lon="11.2402333"><ele>417.4</ele><time>2026-04-18T09:53:39.084Z</time></trkpt><trkpt lat="43.4741832" lon="11.2401986"><ele>416.0</ele><time>2026-04-18T09:53:40.084Z</time></trkpt><trkpt lat="43.4740646" lon="11.2401617"><ele>416.0</ele><time>2026-04-18T09:53:41.085Z</time></trkpt><trkpt lat="43.4739434" lon="11.2401175"><ele>416.0</ele><time>2026-04-18T09:53:42.084Z</time></trkpt><trkpt lat="43.4738247" lon="11.2400753"><ele>416.0</ele><time>2026-04-18T09:53:43.084Z</time></trkpt><trkpt lat="43.473706" lon="11.2400437"><ele>416.0</ele><time>2026-04-18T09:53:44.084Z</time></trkpt><trkpt lat="43.473597" lon="11.2400085"><ele>415.4</ele><time>2026-04-18T09:53:45.085Z</time></trkpt><trkpt lat="43.4734993" lon="11.2399613"><ele>414.8</ele><time>2026-04-18T09:53:46.085Z</time></trkpt><trkpt lat="43.4734107" lon="11.2399116"><ele>414.2</ele><time>2026-04-18T09:53:47.085Z</time></trkpt><trkpt lat="43.4733199" lon="11.2398618"><ele>413.59999999999997</ele><time>2026-04-18T09:53:48.084Z</time></trkpt><trkpt lat="43.4732254" lon="11.2398135"><ele>413.0</ele><time>2026-04-18T09:53:49.085Z</time></trkpt><trkpt lat="43.4731327" lon="11.2397568"><ele>412.49999999999994</ele><time>2026-04-18T09:53:50.085Z</time></trkpt><trkpt lat="43.4730377" lon="11.2397046"><ele>412.0</ele><time>2026-04-18T09:53:51.084Z</time></trkpt><trkpt lat="43.4729472" lon="11.2396624"><ele>411.5</ele><time>2026-04-18T09:53:52.084Z</time></trkpt><trkpt lat="43.4728625" lon="11.2396252"><ele>411.0</ele><time>2026-04-18T09:53:53.085Z</time></trkpt><trkpt lat="43.4727845" lon="11.2396002"><ele>410.49999999999994</ele><time>2026-04-18T09:53:54.084Z</time></trkpt><trkpt lat="43.4727112" lon="11.239591"><ele>410.0</ele><time>2026-04-18T09:53:55.084Z</time></trkpt><trkpt lat="43.4726383" lon="11.2395932"><ele>408.66666666666663</ele><time>2026-04-18T09:53:56.085Z</time></trkpt><trkpt lat="43.4725559" lon="11.2396061"><ele>407.3333333333333</ele><time>2026-04-18T09:53:57.084Z</time></trkpt><trkpt lat="43.4724667" lon="11.2396168"><ele>406.0</ele><time>2026-04-18T09:53:58.084Z</time></trkpt><trkpt lat="43.4723787" lon="11.2396122"><ele>404.66666666666663</ele><time>2026-04-18T09:53:59.085Z</time></trkpt><trkpt lat="43.4722924" lon="11.2395888"><ele>403.3333333333333</ele><time>2026-04-18T09:54:00.084Z</time></trkpt><trkpt lat="43.4722195" lon="11.2395396"><ele>402.0</ele><time>2026-04-18T09:54:01.085Z</time></trkpt><trkpt lat="43.4721685" lon="11.2394761"><ele>402.0</ele><time>2026-04-18T09:54:02.085Z</time></trkpt><trkpt lat="43.4721181" lon="11.2393425"><ele>402.0</ele><time>2026-04-18T09:54:04.084Z</time></trkpt><trkpt lat="43.4720976" lon="11.2391633"><ele>402.0</ele><time>2026-04-18T09:54:06.084Z</time></trkpt><trkpt lat="43.472086" lon="11.2390515"><ele>402.0</ele><time>2026-04-18T09:54:07.084Z</time></trkpt><trkpt lat="43.4720764" lon="11.2389347"><ele>402.0</ele><time>2026-04-18T09:54:08.085Z</time></trkpt><trkpt lat="43.4720704" lon="11.238823"><ele>400.8</ele><time>2026-04-18T09:54:09.084Z</time></trkpt><trkpt lat="43.4720791" lon="11.2387053"><ele>399.6</ele><time>2026-04-18T09:54:10.084Z</time></trkpt><trkpt lat="43.4720963" lon="11.2385797"><ele>398.40000000000003</ele><time>2026-04-18T09:54:11.084Z</time></trkpt><trkpt lat="43.4721221" lon="11.2384534"><ele>397.20000000000005</ele><time>2026-04-18T09:54:12.084Z</time></trkpt><trkpt lat="43.4721485" lon="11.2383296"><ele>396.0</ele><time>2026-04-18T09:54:13.085Z</time></trkpt><trkpt lat="43.472167" lon="11.2382017"><ele>394.20000000000005</ele><time>2026-04-18T09:54:14.084Z</time></trkpt><trkpt lat="43.4721773" lon="11.2380744"><ele>392.40000000000003</ele><time>2026-04-18T09:54:15.084Z</time></trkpt><trkpt lat="43.4721815" lon="11.2379527"><ele>390.6</ele><time>2026-04-18T09:54:16.085Z</time></trkpt><trkpt lat="43.4721783" lon="11.2378316"><ele>388.8</ele><time>2026-04-18T09:54:17.084Z</time></trkpt><trkpt lat="43.4721675" lon="11.2377057"><ele>387.0</ele><time>2026-04-18T09:54:18.085Z</time></trkpt><trkpt lat="43.4721387" lon="11.2375771"><ele>385.6</ele><time>2026-04-18T09:54:19.084Z</time></trkpt><trkpt lat="43.4721006" lon="11.2374439"><ele>384.20000000000005</ele><time>2026-04-18T09:54:20.084Z</time></trkpt><trkpt lat="43.4720584" lon="11.237315"><ele>382.8</ele><time>2026-04-18T09:54:21.085Z</time></trkpt><trkpt lat="43.4720165" lon="11.2371914"><ele>381.4</ele><time>2026-04-18T09:54:22.085Z</time></trkpt><trkpt lat="43.4719766" lon="11.2370735"><ele>380.0</ele><time>2026-04-18T09:54:23.084Z</time></trkpt><trkpt lat="43.4719322" lon="11.2369625"><ele>380.0</ele><time>2026-04-18T09:54:24.085Z</time></trkpt><trkpt lat="43.4718744" lon="11.2368541"><ele>380.0</ele><time>2026-04-18T09:54:25.085Z</time></trkpt><trkpt lat="43.4718083" lon="11.2367519"><ele>380.0</ele><time>2026-04-18T09:54:26.085Z</time></trkpt><trkpt lat="43.4717396" lon="11.2366556"><ele>380.0</ele><time>2026-04-18T09:54:27.084Z</time></trkpt><trkpt lat="43.4716706" lon="11.2365729"><ele>380.0</ele><time>2026-04-18T09:54:28.083Z</time></trkpt><trkpt lat="43.4715948" lon="11.2364911"><ele>379.0</ele><time>2026-04-18T09:54:29.083Z</time></trkpt><trkpt lat="43.4715028" lon="11.2364202"><ele>378.0</ele><time>2026-04-18T09:54:30.083Z</time></trkpt><trkpt lat="43.4714132" lon="11.2363353"><ele>377.0</ele><time>2026-04-18T09:54:31.083Z</time></trkpt><trkpt lat="43.4713233" lon="11.2362553"><ele>376.0</ele><time>2026-04-18T09:54:32.083Z</time></trkpt><trkpt lat="43.4712302" lon="11.2361732"><ele>375.0</ele><time>2026-04-18T09:54:33.083Z</time></trkpt><trkpt lat="43.4711366" lon="11.2360995"><ele>374.0</ele><time>2026-04-18T09:54:34.084Z</time></trkpt><trkpt lat="43.4710403" lon="11.2360189"><ele>373.0</ele><time>2026-04-18T09:54:35.083Z</time></trkpt><trkpt lat="43.4709383" lon="11.235925"><ele>372.0</ele><time>2026-04-18T09:54:36.084Z</time></trkpt><trkpt lat="43.47083" lon="11.235825"><ele>371.0</ele><time>2026-04-18T09:54:37.084Z</time></trkpt><trkpt lat="43.4707467" lon="11.23574"><ele>371.0</ele><time>2026-04-18T09:54:38.084Z</time></trkpt><trkpt lat="43.4706733" lon="11.2356667"><ele>371.0</ele><time>2026-04-18T09:54:39.083Z</time></trkpt><trkpt lat="43.47061" lon="11.2355883"><ele>371.0</ele><time>2026-04-18T09:54:40.083Z</time></trkpt><trkpt lat="43.470565" lon="11.2355017"><ele>371.0</ele><time>2026-04-18T09:54:41.084Z</time></trkpt><trkpt lat="43.47053" lon="11.23541"><ele>371.0</ele><time>2026-04-18T09:54:42.083Z</time></trkpt><trkpt lat="43.4705283" lon="11.235295"><ele>371.0</ele><time>2026-04-18T09:54:43.084Z</time></trkpt><trkpt lat="43.4705383" lon="11.2351733"><ele>370.6</ele><time>2026-04-18T09:54:44.083Z</time></trkpt><trkpt lat="43.4705483" lon="11.2350433"><ele>370.20000000000005</ele><time>2026-04-18T09:54:45.084Z</time></trkpt><trkpt lat="43.4705583" lon="11.2349133"><ele>369.79999999999995</ele><time>2026-04-18T09:54:46.083Z</time></trkpt><trkpt lat="43.470575" lon="11.2347833"><ele>369.4</ele><time>2026-04-18T09:54:47.084Z</time></trkpt><trkpt lat="43.470585" lon="11.2346233"><ele>369.0</ele><time>2026-04-18T09:54:48.083Z</time></trkpt><trkpt lat="43.4705883" lon="11.234465"><ele>367.6</ele><time>2026-04-18T09:54:49.083Z</time></trkpt><trkpt lat="43.470595" lon="11.2343217"><ele>366.2</ele><time>2026-04-18T09:54:50.084Z</time></trkpt><trkpt lat="43.4706083" lon="11.2341867"><ele>364.8</ele><time>2026-04-18T09:54:51.083Z</time></trkpt><trkpt lat="43.4706367" lon="11.2340567"><ele>363.40000000000003</ele><time>2026-04-18T09:54:52.083Z</time></trkpt><trkpt lat="43.4706667" lon="11.2339283"><ele>362.0</ele><time>2026-04-18T09:54:53.084Z</time></trkpt><trkpt lat="43.47069" lon="11.2337967"><ele>359.5</ele><time>2026-04-18T09:54:54.083Z</time></trkpt><trkpt lat="43.4707067" lon="11.2336733"><ele>357.0</ele><time>2026-04-18T09:54:55.084Z</time></trkpt><trkpt lat="43.4707167" lon="11.233555"><ele>354.5</ele><time>2026-04-18T09:54:56.083Z</time></trkpt><trkpt lat="43.47072" lon="11.23344"><ele>352.0</ele><time>2026-04-18T09:54:57.084Z</time></trkpt><trkpt lat="43.4707133" lon="11.23333"><ele>349.5</ele><time>2026-04-18T09:54:58.083Z</time></trkpt><trkpt lat="43.4706983" lon="11.2332217"><ele>347.0</ele><time>2026-04-18T09:54:59.083Z</time></trkpt><trkpt lat="43.470675" lon="11.2331133"><ele>344.1666666666667</ele><time>2026-04-18T09:55:00.084Z</time></trkpt><trkpt lat="43.4706417" lon="11.2330117"><ele>341.33333333333337</ele><time>2026-04-18T09:55:01.083Z</time></trkpt><trkpt lat="43.4706083" lon="11.2329167"><ele>338.5</ele><time>2026-04-18T09:55:02.084Z</time></trkpt><trkpt lat="43.4705717" lon="11.2328317"><ele>335.6666666666667</ele><time>2026-04-18T09:55:03.083Z</time></trkpt><trkpt lat="43.4705383" lon="11.2327433"><ele>332.8333333333333</ele><time>2026-04-18T09:55:04.083Z</time></trkpt><trkpt lat="43.4704967" lon="11.23265"><ele>330.0</ele><time>2026-04-18T09:55:05.083Z</time></trkpt><trkpt lat="43.4704533" lon="11.2325733"><ele>330.6666666666667</ele><time>2026-04-18T09:55:06.083Z</time></trkpt><trkpt lat="43.4703967" lon="11.2325"><ele>331.3333333333333</ele><time>2026-04-18T09:55:07.084Z</time></trkpt><trkpt lat="43.4703267" lon="11.2324367"><ele>332.0</ele><time>2026-04-18T09:55:08.083Z</time></trkpt><trkpt lat="43.4702467" lon="11.2323733"><ele>332.66666666666663</ele><time>2026-04-18T09:55:09.083Z</time></trkpt><trkpt lat="43.4701583" lon="11.2323233"><ele>333.3333333333333</ele><time>2026-04-18T09:55:10.084Z</time></trkpt><trkpt lat="43.470085" lon="11.232285"><ele>334.0</ele><time>2026-04-18T09:55:11.084Z</time></trkpt><trkpt lat="43.47001" lon="11.2322383"><ele>330.2</ele><time>2026-04-18T09:55:12.084Z</time></trkpt><trkpt lat="43.46993" lon="11.2321767"><ele>326.4</ele><time>2026-04-18T09:55:13.083Z</time></trkpt><trkpt lat="43.4698383" lon="11.2321083"><ele>322.6</ele><time>2026-04-18T09:55:14.084Z</time></trkpt><trkpt lat="43.4697467" lon="11.2320483"><ele>318.8</ele><time>2026-04-18T09:55:15.083Z</time></trkpt><trkpt lat="43.46965" lon="11.2320033"><ele>315.0</ele><time>2026-04-18T09:55:16.083Z</time></trkpt><trkpt lat="43.4695583" lon="11.23194"><ele>315.0</ele><time>2026-04-18T09:55:17.083Z</time></trkpt><trkpt lat="43.4694667" lon="11.2318733"><ele>315.0</ele><time>2026-04-18T09:55:18.083Z</time></trkpt><trkpt lat="43.4693783" lon="11.2317983"><ele>315.0</ele><time>2026-04-18T09:55:19.084Z</time></trkpt><trkpt lat="43.469295" lon="11.231735"><ele>315.0</ele><time>2026-04-18T09:55:20.083Z</time></trkpt><trkpt lat="43.469205" lon="11.23167"><ele>315.0</ele><time>2026-04-18T09:55:21.083Z</time></trkpt><trkpt lat="43.4691317" lon="11.2316217"><ele>315.0</ele><time>2026-04-18T09:55:22.083Z</time></trkpt><trkpt lat="43.4690433" lon="11.2315533"><ele>315.0</ele><time>2026-04-18T09:55:23.083Z</time></trkpt><trkpt lat="43.4689533" lon="11.2314933"><ele>315.0</ele><time>2026-04-18T09:55:24.084Z</time></trkpt><trkpt lat="43.4688667" lon="11.2314317"><ele>315.0</ele><time>2026-04-18T09:55:25.083Z</time></trkpt><trkpt lat="43.4687867" lon="11.2313917"><ele>315.0</ele><time>2026-04-18T09:55:26.084Z</time></trkpt><trkpt lat="43.4687" lon="11.2313383"><ele>311.3333333333333</ele><time>2026-04-18T09:55:27.083Z</time></trkpt><trkpt lat="43.4686233" lon="11.2312817"><ele>307.6666666666667</ele><time>2026-04-18T09:55:28.083Z</time></trkpt><trkpt lat="43.4685483" lon="11.231235"><ele>304.0</ele><time>2026-04-18T09:55:29.084Z</time></trkpt><trkpt lat="43.468485" lon="11.2312133"><ele>300.33333333333337</ele><time>2026-04-18T09:55:30.083Z</time></trkpt><trkpt lat="43.4683933" lon="11.23119"><ele>296.6666666666667</ele><time>2026-04-18T09:55:32.083Z</time></trkpt><trkpt lat="43.4683333" lon="11.2311167"><ele>293.0</ele><time>2026-04-18T09:55:34.084Z</time></trkpt><trkpt lat="43.4683433" lon="11.2309467"><ele>293.0</ele><time>2026-04-18T09:55:36.084Z</time></trkpt><trkpt lat="43.4683567" lon="11.2308433"><ele>293.0</ele><time>2026-04-18T09:55:37.083Z</time></trkpt><trkpt lat="43.468375" lon="11.2307383"><ele>293.0</ele><time>2026-04-18T09:55:38.083Z</time></trkpt><trkpt lat="43.468395" lon="11.2306217"><ele>293.0</ele><time>2026-04-18T09:55:39.084Z</time></trkpt><trkpt lat="43.4684133" lon="11.2305233"><ele>293.0</ele><time>2026-04-18T09:55:40.083Z</time></trkpt><trkpt lat="43.46844" lon="11.230425"><ele>293.0</ele><time>2026-04-18T09:55:41.083Z</time></trkpt><trkpt lat="43.46847" lon="11.23033"><ele>290.4</ele><time>2026-04-18T09:55:42.083Z</time></trkpt><trkpt lat="43.4684967" lon="11.2302433"><ele>287.8</ele><time>2026-04-18T09:55:43.084Z</time></trkpt><trkpt lat="43.4685217" lon="11.2300883"><ele>285.2</ele><time>2026-04-18T09:55:45.083Z</time></trkpt><trkpt lat="43.4684883" lon="11.22992"><ele>282.6</ele><time>2026-04-18T09:55:47.084Z</time></trkpt><trkpt lat="43.46844" lon="11.22985"><ele>280.0</ele><time>2026-04-18T09:55:48.084Z</time></trkpt><trkpt lat="43.4683717" lon="11.2297667"><ele>278.4</ele><time>2026-04-18T09:55:49.083Z</time></trkpt><trkpt lat="43.46831" lon="11.2296817"><ele>276.8</ele><time>2026-04-18T09:55:50.083Z</time></trkpt><trkpt lat="43.4682667" lon="11.22958"><ele>275.2</ele><time>2026-04-18T09:55:51.083Z</time></trkpt><trkpt lat="43.4682367" lon="11.22945"><ele>273.6</ele><time>2026-04-18T09:55:52.083Z</time></trkpt><trkpt lat="43.46821" lon="11.22931"><ele>272.0</ele><time>2026-04-18T09:55:53.084Z</time></trkpt><trkpt lat="43.46819" lon="11.2291767"><ele>272.0</ele><time>2026-04-18T09:55:54.084Z</time></trkpt><trkpt lat="43.4681783" lon="11.2290617"><ele>272.0</ele><time>2026-04-18T09:55:55.084Z</time></trkpt><trkpt lat="43.4681733" lon="11.22895"><ele>272.0</ele><time>2026-04-18T09:55:56.083Z</time></trkpt><trkpt lat="43.4681817" lon="11.2288317"><ele>272.0</ele><time>2026-04-18T09:55:57.083Z</time></trkpt><trkpt lat="43.4681917" lon="11.2287167"><ele>272.0</ele><time>2026-04-18T09:55:58.083Z</time></trkpt><trkpt lat="43.4681983" lon="11.2286017"><ele>272.0</ele><time>2026-04-18T09:55:59.083Z</time></trkpt><trkpt lat="43.468205" lon="11.2284883"><ele>270.6666666666667</ele><time>2026-04-18T09:56:00.084Z</time></trkpt><trkpt lat="43.468195" lon="11.228375"><ele>269.33333333333337</ele><time>2026-04-18T09:56:01.083Z</time></trkpt><trkpt lat="43.468175" lon="11.2282517"><ele>268.0</ele><time>2026-04-18T09:56:02.084Z</time></trkpt><trkpt lat="43.46814" lon="11.228145"><ele>266.6666666666667</ele><time>2026-04-18T09:56:03.084Z</time></trkpt><trkpt lat="43.468095" lon="11.2280533"><ele>265.3333333333333</ele><time>2026-04-18T09:56:04.083Z</time></trkpt><trkpt lat="43.4680367" lon="11.2279683"><ele>264.0</ele><time>2026-04-18T09:56:05.083Z</time></trkpt><trkpt lat="43.4679617" lon="11.227895"><ele>262.4</ele><time>2026-04-18T09:56:06.084Z</time></trkpt><trkpt lat="43.46788" lon="11.2278283"><ele>260.79999999999995</ele><time>2026-04-18T09:56:07.083Z</time></trkpt><trkpt lat="43.46779" lon="11.2277633"><ele>259.20000000000005</ele><time>2026-04-18T09:56:08.083Z</time></trkpt><trkpt lat="43.4677017" lon="11.2277017"><ele>257.6</ele><time>2026-04-18T09:56:09.084Z</time></trkpt><trkpt lat="43.467615" lon="11.2276383"><ele>256.0</ele><time>2026-04-18T09:56:10.083Z</time></trkpt><trkpt lat="43.4675267" lon="11.2275767"><ele>256.0</ele><time>2026-04-18T09:56:11.083Z</time></trkpt><trkpt lat="43.4674433" lon="11.2275017"><ele>256.0</ele><time>2026-04-18T09:56:12.084Z</time></trkpt><trkpt lat="43.467355" lon="11.227445"><ele>256.0</ele><time>2026-04-18T09:56:13.084Z</time></trkpt><trkpt lat="43.4672717" lon="11.2273783"><ele>256.0</ele><time>2026-04-18T09:56:14.083Z</time></trkpt><trkpt lat="43.4671933" lon="11.2273117"><ele>256.0</ele><time>2026-04-18T09:56:15.083Z</time></trkpt><trkpt lat="43.46712" lon="11.2272517"><ele>256.2</ele><time>2026-04-18T09:56:16.084Z</time></trkpt><trkpt lat="43.4670617" lon="11.2271967"><ele>256.40000000000003</ele><time>2026-04-18T09:56:17.084Z</time></trkpt><trkpt lat="43.4669683" lon="11.2271267"><ele>256.6</ele><time>2026-04-18T09:56:19.083Z</time></trkpt><trkpt lat="43.46686" lon="11.227135"><ele>256.8</ele><time>2026-04-18T09:56:21.083Z</time></trkpt><trkpt lat="43.466735" lon="11.2272133"><ele>257.0</ele><time>2026-04-18T09:56:23.083Z</time></trkpt><trkpt lat="43.4666567" lon="11.2272733"><ele>256.4</ele><time>2026-04-18T09:56:24.083Z</time></trkpt><trkpt lat="43.4665717" lon="11.22732"><ele>255.79999999999998</ele><time>2026-04-18T09:56:25.083Z</time></trkpt><trkpt lat="43.4664917" lon="11.2273667"><ele>255.2</ele><time>2026-04-18T09:56:26.083Z</time></trkpt><trkpt lat="43.4664117" lon="11.2274383"><ele>254.6</ele><time>2026-04-18T09:56:27.083Z</time></trkpt><trkpt lat="43.4663383" lon="11.2275317"><ele>254.0</ele><time>2026-04-18T09:56:28.084Z</time></trkpt><trkpt lat="43.4662767" lon="11.2276333"><ele>252.0</ele><time>2026-04-18T09:56:29.084Z</time></trkpt><trkpt lat="43.4662183" lon="11.2277267"><ele>249.99999999999997</ele><time>2026-04-18T09:56:30.084Z</time></trkpt><trkpt lat="43.4661717" lon="11.2278167"><ele>247.99999999999997</ele><time>2026-04-18T09:56:31.083Z</time></trkpt><trkpt lat="43.4661333" lon="11.227905"><ele>246.0</ele><time>2026-04-18T09:56:32.084Z</time></trkpt><trkpt lat="43.4660483" lon="11.2280067"><ele>244.0</ele><time>2026-04-18T09:56:34.084Z</time></trkpt><trkpt lat="43.4659183" lon="11.2280267"><ele>244.0</ele><time>2026-04-18T09:56:36.083Z</time></trkpt><trkpt lat="43.465845" lon="11.2280117"><ele>243.99999999999997</ele><time>2026-04-18T09:56:37.083Z</time></trkpt><trkpt lat="43.4657583" lon="11.227985"><ele>243.99999999999997</ele><time>2026-04-18T09:56:38.083Z</time></trkpt><trkpt lat="43.465665" lon="11.2279667"><ele>244.0</ele><time>2026-04-18T09:56:39.083Z</time></trkpt><trkpt lat="43.4655567" lon="11.22794"><ele>244.0</ele><time>2026-04-18T09:56:40.084Z</time></trkpt><trkpt lat="43.4654467" lon="11.227915"><ele>242.2</ele><time>2026-04-18T09:56:41.084Z</time></trkpt><trkpt lat="43.46534" lon="11.2278867"><ele>240.39999999999998</ele><time>2026-04-18T09:56:42.083Z</time></trkpt><trkpt lat="43.4652317" lon="11.2278583"><ele>238.6</ele><time>2026-04-18T09:56:43.083Z</time></trkpt><trkpt lat="43.465125" lon="11.2278283"><ele>236.8</ele><time>2026-04-18T09:56:44.084Z</time></trkpt><trkpt lat="43.46502" lon="11.2278117"><ele>235.0</ele><time>2026-04-18T09:56:45.083Z</time></trkpt><trkpt lat="43.4649233" lon="11.22779"><ele>235.0</ele><time>2026-04-18T09:56:46.083Z</time></trkpt><trkpt lat="43.464825" lon="11.2277683"><ele>235.0</ele><time>2026-04-18T09:56:47.083Z</time></trkpt><trkpt lat="43.4647333" lon="11.2277433"><ele>235.0</ele><time>2026-04-18T09:56:48.084Z</time></trkpt><trkpt lat="43.4646367" lon="11.2277217"><ele>235.0</ele><time>2026-04-18T09:56:49.083Z</time></trkpt><trkpt lat="43.4645333" lon="11.2277"><ele>235.0</ele><time>2026-04-18T09:56:50.083Z</time></trkpt><trkpt lat="43.4644317" lon="11.2276767"><ele>233.2</ele><time>2026-04-18T09:56:51.083Z</time></trkpt><trkpt lat="43.4643383" lon="11.2276504"><ele>231.4</ele><time>2026-04-18T09:56:52.084Z</time></trkpt><trkpt lat="43.4642471" lon="11.227626"><ele>229.60000000000002</ele><time>2026-04-18T09:56:53.084Z</time></trkpt><trkpt lat="43.4641573" lon="11.2276048"><ele>227.8</ele><time>2026-04-18T09:56:54.083Z</time></trkpt><trkpt lat="43.4640657" lon="11.2275866"><ele>226.0</ele><time>2026-04-18T09:56:55.084Z</time></trkpt><trkpt lat="43.4639633" lon="11.2275799"><ele>226.0</ele><time>2026-04-18T09:56:56.083Z</time></trkpt><trkpt lat="43.4638581" lon="11.2275912"><ele>226.00000000000003</ele><time>2026-04-18T09:56:57.084Z</time></trkpt><trkpt lat="43.463754" lon="11.227614"><ele>226.00000000000003</ele><time>2026-04-18T09:56:58.084Z</time></trkpt><trkpt lat="43.4636551" lon="11.2276375"><ele>226.0</ele><time>2026-04-18T09:56:59.083Z</time></trkpt><trkpt lat="43.4635714" lon="11.2276545"><ele>226.0</ele><time>2026-04-18T09:57:00.084Z</time></trkpt><trkpt lat="43.4635068" lon="11.2276524"><ele>225.8</ele><time>2026-04-18T09:57:01.083Z</time></trkpt><trkpt lat="43.4634258" lon="11.2275824"><ele>225.60000000000002</ele><time>2026-04-18T09:57:03.083Z</time></trkpt><trkpt lat="43.463378" lon="11.2274416"><ele>225.4</ele><time>2026-04-18T09:57:05.083Z</time></trkpt><trkpt lat="43.4633215" lon="11.22731"><ele>225.2</ele><time>2026-04-18T09:57:07.083Z</time></trkpt><trkpt lat="43.4632263" lon="11.2272815"><ele>225.0</ele><time>2026-04-18T09:57:09.084Z</time></trkpt><trkpt lat="43.4631625" lon="11.2273016"><ele>225.0</ele><time>2026-04-18T09:57:10.083Z</time></trkpt><trkpt lat="43.4630795" lon="11.2273316"><ele>225.0</ele><time>2026-04-18T09:57:11.084Z</time></trkpt><trkpt lat="43.4629836" lon="11.2273593"><ele>225.0</ele><time>2026-04-18T09:57:12.083Z</time></trkpt><trkpt lat="43.4628905" lon="11.2273621"><ele>225.0</ele><time>2026-04-18T09:57:13.083Z</time></trkpt><trkpt lat="43.4628027" lon="11.2273503"><ele>225.0</ele><time>2026-04-18T09:57:14.083Z</time></trkpt><trkpt lat="43.4627238" lon="11.2273279"><ele>225.0</ele><time>2026-04-18T09:57:15.083Z</time></trkpt><trkpt lat="43.4626532" lon="11.2272932"><ele>225.33333333333334</ele><time>2026-04-18T09:57:16.084Z</time></trkpt><trkpt lat="43.4625847" lon="11.2272713"><ele>225.66666666666669</ele><time>2026-04-18T09:57:17.083Z</time></trkpt><trkpt lat="43.4624655" lon="11.2273084"><ele>226.0</ele><time>2026-04-18T09:57:19.084Z</time></trkpt><trkpt lat="43.4624128" lon="11.227361"><ele>226.33333333333334</ele><time>2026-04-18T09:57:20.083Z</time></trkpt><trkpt lat="43.4623568" lon="11.2274242"><ele>226.66666666666669</ele><time>2026-04-18T09:57:21.084Z</time></trkpt><trkpt lat="43.4622921" lon="11.227481"><ele>227.0</ele><time>2026-04-18T09:57:22.083Z</time></trkpt><trkpt lat="43.462218" lon="11.2275189"><ele>228.2</ele><time>2026-04-18T09:57:23.084Z</time></trkpt><trkpt lat="43.4621323" lon="11.2275382"><ele>229.39999999999998</ele><time>2026-04-18T09:57:24.084Z</time></trkpt><trkpt lat="43.4620317" lon="11.22753"><ele>230.60000000000002</ele><time>2026-04-18T09:57:25.083Z</time></trkpt><trkpt lat="43.4619333" lon="11.2275167"><ele>231.8</ele><time>2026-04-18T09:57:26.083Z</time></trkpt><trkpt lat="43.4618383" lon="11.2274917"><ele>233.0</ele><time>2026-04-18T09:57:27.083Z</time></trkpt><trkpt lat="43.4617483" lon="11.22745"><ele>234.2</ele><time>2026-04-18T09:57:28.084Z</time></trkpt><trkpt lat="43.4616617" lon="11.2274033"><ele>235.4</ele><time>2026-04-18T09:57:29.083Z</time></trkpt><trkpt lat="43.4615817" lon="11.2273533"><ele>236.59999999999997</ele><time>2026-04-18T09:57:30.083Z</time></trkpt><trkpt lat="43.4615017" lon="11.2273017"><ele>237.79999999999998</ele><time>2026-04-18T09:57:31.084Z</time></trkpt><trkpt lat="43.4614167" lon="11.227255"><ele>239.0</ele><time>2026-04-18T09:57:32.083Z</time></trkpt><trkpt lat="43.4613317" lon="11.2272033"><ele>241.39999999999998</ele><time>2026-04-18T09:57:33.083Z</time></trkpt><trkpt lat="43.4612417" lon="11.2271517"><ele>243.79999999999998</ele><time>2026-04-18T09:57:34.084Z</time></trkpt><trkpt lat="43.4611517" lon="11.22708"><ele>246.20000000000002</ele><time>2026-04-18T09:57:35.083Z</time></trkpt><trkpt lat="43.4610583" lon="11.227"><ele>248.60000000000002</ele><time>2026-04-18T09:57:36.084Z</time></trkpt><trkpt lat="43.4609667" lon="11.2269183"><ele>251.0</ele><time>2026-04-18T09:57:37.084Z</time></trkpt><trkpt lat="43.460875" lon="11.2268383"><ele>251.00000000000003</ele><time>2026-04-18T09:57:38.084Z</time></trkpt><trkpt lat="43.4607933" lon="11.2267617"><ele>251.0</ele><time>2026-04-18T09:57:39.083Z</time></trkpt><trkpt lat="43.4607133" lon="11.2266967"><ele>251.0</ele><time>2026-04-18T09:57:40.084Z</time></trkpt><trkpt lat="43.46063" lon="11.2266483"><ele>251.0</ele><time>2026-04-18T09:57:41.083Z</time></trkpt><trkpt lat="43.46055" lon="11.2266183"><ele>251.00000000000003</ele><time>2026-04-18T09:57:42.083Z</time></trkpt><trkpt lat="43.4604767" lon="11.2266183"><ele>251.0</ele><time>2026-04-18T09:57:43.084Z</time></trkpt><trkpt lat="43.4604067" lon="11.2266467"><ele>255.16666666666669</ele><time>2026-04-18T09:57:44.084Z</time></trkpt><trkpt lat="43.4603467" lon="11.2267"><ele>259.33333333333337</ele><time>2026-04-18T09:57:45.083Z</time></trkpt><trkpt lat="43.460305" lon="11.2267783"><ele>263.5</ele><time>2026-04-18T09:57:46.083Z</time></trkpt><trkpt lat="43.4602767" lon="11.2268717"><ele>267.6666666666667</ele><time>2026-04-18T09:57:47.084Z</time></trkpt><trkpt lat="43.4602517" lon="11.226985"><ele>271.8333333333333</ele><time>2026-04-18T09:57:48.083Z</time></trkpt><trkpt lat="43.46023" lon="11.2271067"><ele>276.0</ele><time>2026-04-18T09:57:49.083Z</time></trkpt><trkpt lat="43.4602067" lon="11.2272383"><ele>275.8</ele><time>2026-04-18T09:57:50.083Z</time></trkpt><trkpt lat="43.4601817" lon="11.227375"><ele>275.6</ele><time>2026-04-18T09:57:51.083Z</time></trkpt><trkpt lat="43.4601617" lon="11.2275233"><ele>275.4</ele><time>2026-04-18T09:57:52.083Z</time></trkpt><trkpt lat="43.460135" lon="11.2276483"><ele>275.2</ele><time>2026-04-18T09:57:53.084Z</time></trkpt><trkpt lat="43.4601117" lon="11.2277667"><ele>275.0</ele><time>2026-04-18T09:57:54.083Z</time></trkpt><trkpt lat="43.46008" lon="11.227865"><ele>275.0</ele><time>2026-04-18T09:57:55.084Z</time></trkpt><trkpt lat="43.4600533" lon="11.2279533"><ele>275.0</ele><time>2026-04-18T09:57:56.083Z</time></trkpt><trkpt lat="43.460015" lon="11.2280483"><ele>275.0</ele><time>2026-04-18T09:57:58.083Z</time></trkpt><trkpt lat="43.4599917" lon="11.2281783"><ele>275.0</ele><time>2026-04-18T09:58:01.083Z</time></trkpt><trkpt lat="43.4600033" lon="11.2282767"><ele>275.0</ele><time>2026-04-18T09:58:03.084Z</time></trkpt><trkpt lat="43.4600117" lon="11.2283917"><ele>275.0</ele><time>2026-04-18T09:59:06.083Z</time></trkpt><trkpt lat="43.460025" lon="11.2284933"><ele>274.2</ele><time>2026-04-18T09:59:09.082Z</time></trkpt><trkpt lat="43.46004" lon="11.2285967"><ele>273.4</ele><time>2026-04-18T10:00:48.082Z</time></trkpt><trkpt lat="43.460065" lon="11.2287683"><ele>272.6</ele><time>2026-04-18T10:00:50.082Z</time></trkpt><trkpt lat="43.4600783" lon="11.2288783"><ele>271.8</ele><time>2026-04-18T10:00:51.082Z</time></trkpt><trkpt lat="43.4600917" lon="11.228995"><ele>271.0</ele><time>2026-04-18T10:00:52.082Z</time></trkpt><trkpt lat="43.4601083" lon="11.2291133"><ele>270.8333333333333</ele><time>2026-04-18T10:00:53.083Z</time></trkpt><trkpt lat="43.46013" lon="11.2292283"><ele>270.66666666666663</ele><time>2026-04-18T10:00:54.082Z</time></trkpt><trkpt lat="43.4601517" lon="11.2293383"><ele>270.5</ele><time>2026-04-18T10:00:55.082Z</time></trkpt><trkpt lat="43.460175" lon="11.2294467"><ele>270.3333333333333</ele><time>2026-04-18T10:00:56.082Z</time></trkpt><trkpt lat="43.4602033" lon="11.229555"><ele>270.1666666666667</ele><time>2026-04-18T10:00:57.083Z</time></trkpt><trkpt lat="43.4602317" lon="11.2296667"><ele>270.0</ele><time>2026-04-18T10:00:58.083Z</time></trkpt><trkpt lat="43.46026" lon="11.2297833"><ele>270.1666666666667</ele><time>2026-04-18T10:00:59.082Z</time></trkpt><trkpt lat="43.4602867" lon="11.2299"><ele>270.3333333333333</ele><time>2026-04-18T10:01:00.082Z</time></trkpt><trkpt lat="43.460315" lon="11.2300133"><ele>270.5</ele><time>2026-04-18T10:01:01.082Z</time></trkpt><trkpt lat="43.4603433" lon="11.2301233"><ele>270.66666666666663</ele><time>2026-04-18T10:01:02.083Z</time></trkpt><trkpt lat="43.46037" lon="11.2302317"><ele>270.8333333333333</ele><time>2026-04-18T10:01:03.082Z</time></trkpt><trkpt lat="43.4603983" lon="11.23033"><ele>271.0</ele><time>2026-04-18T10:01:04.083Z</time></trkpt><trkpt lat="43.46042" lon="11.2304183"><ele>270.6</ele><time>2026-04-18T10:01:05.082Z</time></trkpt><trkpt lat="43.4604567" lon="11.2305617"><ele>270.20000000000005</ele><time>2026-04-18T10:01:07.083Z</time></trkpt><trkpt lat="43.4604667" lon="11.230675"><ele>269.79999999999995</ele><time>2026-04-18T10:01:09.082Z</time></trkpt><trkpt lat="43.4603967" lon="11.23076"><ele>269.4</ele><time>2026-04-18T10:01:11.082Z</time></trkpt><trkpt lat="43.4603283" lon="11.2308"><ele>269.0</ele><time>2026-04-18T10:01:12.082Z</time></trkpt><trkpt lat="43.4602433" lon="11.2308467"><ele>270.0</ele><time>2026-04-18T10:01:13.082Z</time></trkpt><trkpt lat="43.4601517" lon="11.2308883"><ele>271.0</ele><time>2026-04-18T10:01:14.083Z</time></trkpt><trkpt lat="43.4600483" lon="11.230945"><ele>272.0</ele><time>2026-04-18T10:01:15.083Z</time></trkpt><trkpt lat="43.45993" lon="11.2310033"><ele>273.0</ele><time>2026-04-18T10:01:16.083Z</time></trkpt><trkpt lat="43.4598067" lon="11.2310583"><ele>273.0</ele><time>2026-04-18T10:01:17.082Z</time></trkpt><trkpt lat="43.4596783" lon="11.2311167"><ele>273.0</ele><time>2026-04-18T10:01:18.082Z</time></trkpt><trkpt lat="43.4595417" lon="11.23118"><ele>273.0</ele><time>2026-04-18T10:01:19.082Z</time></trkpt><trkpt lat="43.4594067" lon="11.231245"><ele>273.0</ele><time>2026-04-18T10:01:20.083Z</time></trkpt><trkpt lat="43.4592667" lon="11.2313133"><ele>273.5</ele><time>2026-04-18T10:01:21.083Z</time></trkpt><trkpt lat="43.4591333" lon="11.231385"><ele>274.0</ele><time>2026-04-18T10:01:22.083Z</time></trkpt><trkpt lat="43.4590067" lon="11.2314617"><ele>274.5</ele><time>2026-04-18T10:01:23.082Z</time></trkpt><trkpt lat="43.4588783" lon="11.231535"><ele>275.0</ele><time>2026-04-18T10:01:24.083Z</time></trkpt><trkpt lat="43.4587633" lon="11.231605"><ele>277.6</ele><time>2026-04-18T10:01:25.083Z</time></trkpt><trkpt lat="43.4586617" lon="11.2316583"><ele>280.2</ele><time>2026-04-18T10:01:26.082Z</time></trkpt><trkpt lat="43.4585683" lon="11.2317067"><ele>282.8</ele><time>2026-04-18T10:01:27.082Z</time></trkpt><trkpt lat="43.458475" lon="11.2317467"><ele>285.4</ele><time>2026-04-18T10:01:28.082Z</time></trkpt><trkpt lat="43.45838" lon="11.2317567"><ele>288.0</ele><time>2026-04-18T10:01:29.082Z</time></trkpt><trkpt lat="43.4582833" lon="11.2317367"><ele>288.0</ele><time>2026-04-18T10:01:30.082Z</time></trkpt><trkpt lat="43.4581933" lon="11.2316967"><ele>288.0</ele><time>2026-04-18T10:01:31.083Z</time></trkpt><trkpt lat="43.4581017" lon="11.2316233"><ele>288.0</ele><time>2026-04-18T10:01:32.083Z</time></trkpt><trkpt lat="43.4580067" lon="11.2315283"><ele>288.0</ele><time>2026-04-18T10:01:33.082Z</time></trkpt><trkpt lat="43.4579033" lon="11.2314067"><ele>289.25</ele><time>2026-04-18T10:01:34.083Z</time></trkpt><trkpt lat="43.45779" lon="11.2312817"><ele>290.5</ele><time>2026-04-18T10:01:35.082Z</time></trkpt><trkpt lat="43.4576867" lon="11.2311667"><ele>291.75</ele><time>2026-04-18T10:01:36.082Z</time></trkpt><trkpt lat="43.4575867" lon="11.2310567"><ele>293.0</ele><time>2026-04-18T10:01:37.082Z</time></trkpt><trkpt lat="43.4574883" lon="11.2309517"><ele>293.0</ele><time>2026-04-18T10:01:38.082Z</time></trkpt><trkpt lat="43.4573917" lon="11.23084"><ele>293.0</ele><time>2026-04-18T10:01:39.082Z</time></trkpt><trkpt lat="43.4573067" lon="11.2307417"><ele>293.0</ele><time>2026-04-18T10:01:40.082Z</time></trkpt><trkpt lat="43.45723" lon="11.2306467"><ele>293.0</ele><time>2026-04-18T10:01:41.083Z</time></trkpt><trkpt lat="43.45717" lon="11.23056"><ele>293.0</ele><time>2026-04-18T10:01:42.082Z</time></trkpt><trkpt lat="43.4571167" lon="11.23046"><ele>293.5</ele><time>2026-04-18T10:01:43.082Z</time></trkpt><trkpt lat="43.4570717" lon="11.2303333"><ele>294.0</ele><time>2026-04-18T10:01:44.083Z</time></trkpt><trkpt lat="43.4570217" lon="11.2301833"><ele>294.5</ele><time>2026-04-18T10:01:45.083Z</time></trkpt><trkpt lat="43.4569783" lon="11.2300267"><ele>295.0</ele><time>2026-04-18T10:01:46.083Z</time></trkpt><trkpt lat="43.4569217" lon="11.2298583"><ele>294.2</ele><time>2026-04-18T10:01:47.082Z</time></trkpt><trkpt lat="43.45687" lon="11.2297"><ele>293.4</ele><time>2026-04-18T10:01:48.082Z</time></trkpt><trkpt lat="43.45682" lon="11.22956"><ele>292.6</ele><time>2026-04-18T10:01:49.082Z</time></trkpt><trkpt lat="43.4567767" lon="11.2294433"><ele>291.8</ele><time>2026-04-18T10:01:50.082Z</time></trkpt><trkpt lat="43.45674" lon="11.22935"><ele>291.0</ele><time>2026-04-18T10:01:51.083Z</time></trkpt><trkpt lat="43.456695" lon="11.2292383"><ele>291.0</ele><time>2026-04-18T10:01:53.082Z</time></trkpt><trkpt lat="43.4566317" lon="11.229125"><ele>291.0</ele><time>2026-04-18T10:01:55.082Z</time></trkpt><trkpt lat="43.4565867" lon="11.22906"><ele>291.0</ele><time>2026-04-18T10:01:56.083Z</time></trkpt><trkpt lat="43.45653" lon="11.2289867"><ele>291.0</ele><time>2026-04-18T10:01:57.083Z</time></trkpt><trkpt lat="43.4564683" lon="11.2288933"><ele>291.0</ele><time>2026-04-18T10:01:58.083Z</time></trkpt><trkpt lat="43.4564033" lon="11.228805"><ele>291.0</ele><time>2026-04-18T10:01:59.082Z</time></trkpt><trkpt lat="43.45634" lon="11.2287167"><ele>290.0</ele><time>2026-04-18T10:02:00.082Z</time></trkpt><trkpt lat="43.4562717" lon="11.2286217"><ele>289.0</ele><time>2026-04-18T10:02:01.083Z</time></trkpt><trkpt lat="43.4562" lon="11.2285217"><ele>288.0</ele><time>2026-04-18T10:02:02.083Z</time></trkpt><trkpt lat="43.4561333" lon="11.228425"><ele>287.0</ele><time>2026-04-18T10:02:03.082Z</time></trkpt><trkpt lat="43.4560633" lon="11.2283217"><ele>286.0</ele><time>2026-04-18T10:02:04.082Z</time></trkpt><trkpt lat="43.4559783" lon="11.228205"><ele>285.75</ele><time>2026-04-18T10:02:05.082Z</time></trkpt><trkpt lat="43.4558967" lon="11.22809"><ele>285.5</ele><time>2026-04-18T10:02:06.082Z</time></trkpt><trkpt lat="43.4558133" lon="11.22797"><ele>285.25</ele><time>2026-04-18T10:02:07.082Z</time></trkpt><trkpt lat="43.4557267" lon="11.2278433"><ele>285.0</ele><time>2026-04-18T10:02:08.083Z</time></trkpt><trkpt lat="43.4556417" lon="11.2277217"><ele>285.0</ele><time>2026-04-18T10:02:09.083Z</time></trkpt><trkpt lat="43.4555583" lon="11.2276167"><ele>285.0</ele><time>2026-04-18T10:02:10.083Z</time></trkpt><trkpt lat="43.455485" lon="11.22752"><ele>285.0</ele><time>2026-04-18T10:02:11.082Z</time></trkpt><trkpt lat="43.45541" lon="11.2274183"><ele>285.0</ele><time>2026-04-18T10:02:12.082Z</time></trkpt><trkpt lat="43.4553367" lon="11.2273267"><ele>285.0</ele><time>2026-04-18T10:02:13.082Z</time></trkpt><trkpt lat="43.4552733" lon="11.2272383"><ele>285.8333333333333</ele><time>2026-04-18T10:02:14.082Z</time></trkpt><trkpt lat="43.4552067" lon="11.2271567"><ele>286.6666666666667</ele><time>2026-04-18T10:02:15.082Z</time></trkpt><trkpt lat="43.45515" lon="11.22708"><ele>287.5</ele><time>2026-04-18T10:02:16.083Z</time></trkpt><trkpt lat="43.4550917" lon="11.227"><ele>288.33333333333337</ele><time>2026-04-18T10:02:17.081Z</time></trkpt><trkpt lat="43.4550367" lon="11.226905"><ele>289.1666666666667</ele><time>2026-04-18T10:02:18.081Z</time></trkpt><trkpt lat="43.4549967" lon="11.2268"><ele>290.0</ele><time>2026-04-18T10:02:19.082Z</time></trkpt><trkpt lat="43.4549617" lon="11.22668"><ele>290.0</ele><time>2026-04-18T10:02:20.081Z</time></trkpt><trkpt lat="43.4549317" lon="11.226555"><ele>290.0</ele><time>2026-04-18T10:02:21.081Z</time></trkpt><trkpt lat="43.4549067" lon="11.2264333"><ele>290.0</ele><time>2026-04-18T10:02:22.082Z</time></trkpt><trkpt lat="43.4548867" lon="11.2263317"><ele>290.0</ele><time>2026-04-18T10:02:23.081Z</time></trkpt><trkpt lat="43.4548667" lon="11.2262417"><ele>290.0</ele><time>2026-04-18T10:02:24.081Z</time></trkpt><trkpt lat="43.4548283" lon="11.226155"><ele>290.0</ele><time>2026-04-18T10:02:25.082Z</time></trkpt><trkpt lat="43.4547967" lon="11.2260583"><ele>289.6666666666667</ele><time>2026-04-18T10:02:26.081Z</time></trkpt><trkpt lat="43.4547583" lon="11.2259633"><ele>289.33333333333337</ele><time>2026-04-18T10:02:27.081Z</time></trkpt><trkpt lat="43.4547117" lon="11.22588"><ele>289.0</ele><time>2026-04-18T10:02:28.082Z</time></trkpt><trkpt lat="43.4546583" lon="11.2257983"><ele>288.6666666666667</ele><time>2026-04-18T10:02:29.081Z</time></trkpt><trkpt lat="43.4546083" lon="11.225725"><ele>288.3333333333333</ele><time>2026-04-18T10:02:30.081Z</time></trkpt><trkpt lat="43.4545483" lon="11.225655"><ele>288.0</ele><time>2026-04-18T10:02:31.082Z</time></trkpt><trkpt lat="43.4544817" lon="11.2255833"><ele>288.0</ele><time>2026-04-18T10:02:32.082Z</time></trkpt><trkpt lat="43.454415" lon="11.2255217"><ele>288.0</ele><time>2026-04-18T10:02:33.081Z</time></trkpt><trkpt lat="43.4543483" lon="11.2254683"><ele>288.0</ele><time>2026-04-18T10:02:34.082Z</time></trkpt><trkpt lat="43.4542467" lon="11.2253917"><ele>288.0</ele><time>2026-04-18T10:02:36.082Z</time></trkpt><trkpt lat="43.454165" lon="11.2253517"><ele>288.0</ele><time>2026-04-18T10:02:38.082Z</time></trkpt><trkpt lat="43.4540917" lon="11.2253433"><ele>288.0</ele><time>2026-04-18T10:02:40.081Z</time></trkpt><trkpt lat="43.4540067" lon="11.2253717"><ele>288.0</ele><time>2026-04-18T10:02:42.082Z</time></trkpt><trkpt lat="43.4539283" lon="11.2254367"><ele>288.0</ele><time>2026-04-18T10:02:44.081Z</time></trkpt><trkpt lat="43.4538617" lon="11.22551"><ele>288.0</ele><time>2026-04-18T10:02:46.082Z</time></trkpt><trkpt lat="43.4538117" lon="11.2255833"><ele>288.0</ele><time>2026-04-18T10:02:48.082Z</time></trkpt><trkpt lat="43.45375" lon="11.2257"><ele>288.0</ele><time>2026-04-18T10:02:50.082Z</time></trkpt><trkpt lat="43.4537233" lon="11.2257817"><ele>288.0</ele><time>2026-04-18T10:02:51.081Z</time></trkpt><trkpt lat="43.4536967" lon="11.2258733"><ele>286.6666666666667</ele><time>2026-04-18T10:02:52.081Z</time></trkpt><trkpt lat="43.45367" lon="11.2259783"><ele>285.3333333333333</ele><time>2026-04-18T10:02:53.082Z</time></trkpt><trkpt lat="43.4536417" lon="11.2260767"><ele>284.0</ele><time>2026-04-18T10:02:54.082Z</time></trkpt><trkpt lat="43.45361" lon="11.2261717"><ele>282.66666666666663</ele><time>2026-04-18T10:02:55.081Z</time></trkpt><trkpt lat="43.45357" lon="11.2262583"><ele>281.3333333333333</ele><time>2026-04-18T10:02:56.081Z</time></trkpt><trkpt lat="43.4535233" lon="11.226345"><ele>280.0</ele><time>2026-04-18T10:02:57.081Z</time></trkpt><trkpt lat="43.4534683" lon="11.22642"><ele>279.85714285714283</ele><time>2026-04-18T10:02:58.081Z</time></trkpt><trkpt lat="43.45341" lon="11.22648"><ele>279.7142857142857</ele><time>2026-04-18T10:02:59.081Z</time></trkpt><trkpt lat="43.453355" lon="11.2265367"><ele>279.57142857142856</ele><time>2026-04-18T10:03:00.081Z</time></trkpt><trkpt lat="43.4532967" lon="11.2265917"><ele>279.42857142857144</ele><time>2026-04-18T10:03:01.082Z</time></trkpt><trkpt lat="43.4532383" lon="11.2266383"><ele>279.2857142857143</ele><time>2026-04-18T10:03:02.081Z</time></trkpt><trkpt lat="43.4531817" lon="11.2266817"><ele>279.1428571428571</ele><time>2026-04-18T10:03:03.081Z</time></trkpt><trkpt lat="43.453095" lon="11.2267433"><ele>279.0</ele><time>2026-04-18T10:03:05.082Z</time></trkpt><trkpt lat="43.4530067" lon="11.2268"><ele>275.2</ele><time>2026-04-18T10:03:07.082Z</time></trkpt><trkpt lat="43.45289" lon="11.2268633"><ele>271.4</ele><time>2026-04-18T10:03:09.082Z</time></trkpt><trkpt lat="43.4528167" lon="11.2269083"><ele>267.6</ele><time>2026-04-18T10:03:10.082Z</time></trkpt><trkpt lat="43.4527367" lon="11.2269567"><ele>263.8</ele><time>2026-04-18T10:03:11.081Z</time></trkpt><trkpt lat="43.452655" lon="11.227"><ele>260.0</ele><time>2026-04-18T10:03:12.082Z</time></trkpt><trkpt lat="43.452565" lon="11.2270417"><ele>260.0</ele><time>2026-04-18T10:03:13.081Z</time></trkpt><trkpt lat="43.4524733" lon="11.2270933"><ele>260.0</ele><time>2026-04-18T10:03:14.081Z</time></trkpt><trkpt lat="43.4523767" lon="11.22714"><ele>260.0</ele><time>2026-04-18T10:03:15.082Z</time></trkpt><trkpt lat="43.452285" lon="11.2271783"><ele>260.0</ele><time>2026-04-18T10:03:16.082Z</time></trkpt><trkpt lat="43.4521883" lon="11.2272167"><ele>260.0</ele><time>2026-04-18T10:03:17.081Z</time></trkpt><trkpt lat="43.4520983" lon="11.2272567"><ele>256.8</ele><time>2026-04-18T10:03:18.081Z</time></trkpt><trkpt lat="43.4520083" lon="11.2273033"><ele>253.6</ele><time>2026-04-18T10:03:19.081Z</time></trkpt><trkpt lat="43.4519167" lon="11.2273433"><ele>250.39999999999998</ele><time>2026-04-18T10:03:20.081Z</time></trkpt><trkpt lat="43.4518283" lon="11.22738"><ele>247.2</ele><time>2026-04-18T10:03:21.082Z</time></trkpt><trkpt lat="43.45174" lon="11.2274167"><ele>244.0</ele><time>2026-04-18T10:03:22.081Z</time></trkpt><trkpt lat="43.4516483" lon="11.2274533"><ele>244.0</ele><time>2026-04-18T10:03:23.082Z</time></trkpt><trkpt lat="43.4515483" lon="11.2274967"><ele>243.99999999999997</ele><time>2026-04-18T10:03:24.082Z</time></trkpt><trkpt lat="43.451445" lon="11.2275383"><ele>243.99999999999997</ele><time>2026-04-18T10:03:25.081Z</time></trkpt><trkpt lat="43.4513383" lon="11.22758"><ele>244.0</ele><time>2026-04-18T10:03:26.082Z</time></trkpt><trkpt lat="43.4512333" lon="11.227625"><ele>244.0</ele><time>2026-04-18T10:03:27.082Z</time></trkpt><trkpt lat="43.4511283" lon="11.22767"><ele>241.2</ele><time>2026-04-18T10:03:28.081Z</time></trkpt><trkpt lat="43.4510317" lon="11.22771"><ele>238.39999999999998</ele><time>2026-04-18T10:03:29.081Z</time></trkpt><trkpt lat="43.4509383" lon="11.2277567"><ele>235.6</ele><time>2026-04-18T10:03:30.081Z</time></trkpt><trkpt lat="43.4508517" lon="11.2278033"><ele>232.8</ele><time>2026-04-18T10:03:31.081Z</time></trkpt><trkpt lat="43.450775" lon="11.227845"><ele>230.0</ele><time>2026-04-18T10:03:32.082Z</time></trkpt><trkpt lat="43.4506917" lon="11.227885"><ele>230.0</ele><time>2026-04-18T10:03:33.081Z</time></trkpt><trkpt lat="43.4505967" lon="11.2279083"><ele>230.0</ele><time>2026-04-18T10:03:34.082Z</time></trkpt><trkpt lat="43.4505033" lon="11.22792"><ele>230.0</ele><time>2026-04-18T10:03:35.081Z</time></trkpt><trkpt lat="43.450405" lon="11.2279283"><ele>230.0</ele><time>2026-04-18T10:03:36.081Z</time></trkpt><trkpt lat="43.4503094" lon="11.2279394"><ele>230.0</ele><time>2026-04-18T10:03:37.081Z</time></trkpt><trkpt lat="43.4502077" lon="11.2279627"><ele>228.0</ele><time>2026-04-18T10:03:38.081Z</time></trkpt><trkpt lat="43.4501079" lon="11.227984"><ele>226.0</ele><time>2026-04-18T10:03:39.082Z</time></trkpt><trkpt lat="43.4500016" lon="11.2279965"><ele>224.0</ele><time>2026-04-18T10:03:40.082Z</time></trkpt><trkpt lat="43.4498904" lon="11.2280142"><ele>222.0</ele><time>2026-04-18T10:03:41.082Z</time></trkpt><trkpt lat="43.4497733" lon="11.2280317"><ele>220.0</ele><time>2026-04-18T10:03:42.082Z</time></trkpt><trkpt lat="43.449655" lon="11.2280483"><ele>217.25</ele><time>2026-04-18T10:03:43.081Z</time></trkpt><trkpt lat="43.4495367" lon="11.22806"><ele>214.5</ele><time>2026-04-18T10:03:44.081Z</time></trkpt><trkpt lat="43.4494267" lon="11.2280733"><ele>211.75</ele><time>2026-04-18T10:03:45.081Z</time></trkpt><trkpt lat="43.4493117" lon="11.2280833"><ele>209.0</ele><time>2026-04-18T10:03:46.081Z</time></trkpt><trkpt lat="43.449205" lon="11.2280867"><ele>209.0</ele><time>2026-04-18T10:03:47.082Z</time></trkpt><trkpt lat="43.4491" lon="11.2280967"><ele>209.0</ele><time>2026-04-18T10:03:48.082Z</time></trkpt><trkpt lat="43.448995" lon="11.2281117"><ele>209.0</ele><time>2026-04-18T10:03:49.081Z</time></trkpt><trkpt lat="43.4488917" lon="11.2281267"><ele>209.0</ele><time>2026-04-18T10:03:50.081Z</time></trkpt><trkpt lat="43.4487833" lon="11.2281417"><ele>209.0</ele><time>2026-04-18T10:03:51.082Z</time></trkpt><trkpt lat="43.4486817" lon="11.2281567"><ele>207.2</ele><time>2026-04-18T10:03:52.082Z</time></trkpt><trkpt lat="43.4485817" lon="11.2281717"><ele>205.39999999999998</ele><time>2026-04-18T10:03:53.082Z</time></trkpt><trkpt lat="43.448485" lon="11.2281867"><ele>203.6</ele><time>2026-04-18T10:03:54.081Z</time></trkpt><trkpt lat="43.4483867" lon="11.2281933"><ele>201.8</ele><time>2026-04-18T10:03:55.081Z</time></trkpt><trkpt lat="43.4482867" lon="11.2282067"><ele>200.0</ele><time>2026-04-18T10:03:56.082Z</time></trkpt><trkpt lat="43.448185" lon="11.228225"><ele>200.0</ele><time>2026-04-18T10:03:57.082Z</time></trkpt><trkpt lat="43.4480817" lon="11.228245"><ele>200.0</ele><time>2026-04-18T10:03:58.081Z</time></trkpt><trkpt lat="43.4479733" lon="11.2282633"><ele>200.0</ele><time>2026-04-18T10:03:59.081Z</time></trkpt><trkpt lat="43.4478617" lon="11.22828"><ele>200.0</ele><time>2026-04-18T10:04:00.081Z</time></trkpt><trkpt lat="43.44775" lon="11.2282917"><ele>200.0</ele><time>2026-04-18T10:04:01.082Z</time></trkpt><trkpt lat="43.4476533" lon="11.2283033"><ele>198.66666666666669</ele><time>2026-04-18T10:04:02.081Z</time></trkpt><trkpt lat="43.4475633" lon="11.2283183"><ele>197.33333333333334</ele><time>2026-04-18T10:04:03.082Z</time></trkpt><trkpt lat="43.44748" lon="11.2283367"><ele>196.0</ele><time>2026-04-18T10:04:04.082Z</time></trkpt><trkpt lat="43.4474117" lon="11.2283233"><ele>194.66666666666669</ele><time>2026-04-18T10:04:05.082Z</time></trkpt><trkpt lat="43.44735" lon="11.22827"><ele>193.33333333333334</ele><time>2026-04-18T10:04:06.081Z</time></trkpt><trkpt lat="43.4473" lon="11.2281983"><ele>192.0</ele><time>2026-04-18T10:04:07.082Z</time></trkpt><trkpt lat="43.4472667" lon="11.228095"><ele>191.8</ele><time>2026-04-18T10:04:08.081Z</time></trkpt><trkpt lat="43.4472517" lon="11.2279533"><ele>191.6</ele><time>2026-04-18T10:04:09.082Z</time></trkpt><trkpt lat="43.4472433" lon="11.2277983"><ele>191.4</ele><time>2026-04-18T10:04:10.081Z</time></trkpt><trkpt lat="43.4472233" lon="11.2276517"><ele>191.20000000000002</ele><time>2026-04-18T10:04:11.082Z</time></trkpt><trkpt lat="43.4472167" lon="11.2275183"><ele>191.0</ele><time>2026-04-18T10:04:12.081Z</time></trkpt><trkpt lat="43.4472067" lon="11.2273983"><ele>190.83333333333331</ele><time>2026-04-18T10:04:13.081Z</time></trkpt><trkpt lat="43.4471933" lon="11.2272967"><ele>190.66666666666666</ele><time>2026-04-18T10:04:14.081Z</time></trkpt><trkpt lat="43.4471783" lon="11.22721"><ele>190.5</ele><time>2026-04-18T10:04:15.081Z</time></trkpt><trkpt lat="43.447105" lon="11.2270733"><ele>190.33333333333334</ele><time>2026-04-18T10:04:17.082Z</time></trkpt><trkpt lat="43.447015" lon="11.22703"><ele>190.16666666666669</ele><time>2026-04-18T10:04:19.081Z</time></trkpt><trkpt lat="43.4469417" lon="11.2270383"><ele>190.0</ele><time>2026-04-18T10:04:21.081Z</time></trkpt><trkpt lat="43.446885" lon="11.22708"><ele>190.0</ele><time>2026-04-18T10:04:23.081Z</time></trkpt><trkpt lat="43.44672" lon="11.2270967"><ele>190.0</ele><time>2026-04-18T10:04:42.081Z</time></trkpt><trkpt lat="43.446655" lon="11.2270883"><ele>190.0</ele><time>2026-04-18T10:04:43.081Z</time></trkpt><trkpt lat="43.4465717" lon="11.2270717"><ele>190.0</ele><time>2026-04-18T10:04:44.082Z</time></trkpt><trkpt lat="43.446475" lon="11.227065"><ele>190.0</ele><time>2026-04-18T10:04:45.081Z</time></trkpt><trkpt lat="43.4463617" lon="11.2270683"><ele>193.25</ele><time>2026-04-18T10:04:46.082Z</time></trkpt><trkpt lat="43.44625" lon="11.227075"><ele>196.5</ele><time>2026-04-18T10:04:47.082Z</time></trkpt><trkpt lat="43.4461367" lon="11.227075"><ele>199.75</ele><time>2026-04-18T10:04:48.081Z</time></trkpt><trkpt lat="43.4460117" lon="11.227085"><ele>203.0</ele><time>2026-04-18T10:04:49.081Z</time></trkpt><trkpt lat="43.4458867" lon="11.2270817"><ele>203.0</ele><time>2026-04-18T10:04:50.081Z</time></trkpt><trkpt lat="43.44576" lon="11.22706"><ele>203.0</ele><time>2026-04-18T10:04:51.082Z</time></trkpt><trkpt lat="43.4456517" lon="11.2269983"><ele>203.0</ele><time>2026-04-18T10:04:52.081Z</time></trkpt><trkpt lat="43.445555" lon="11.226905"><ele>203.0</ele><time>2026-04-18T10:04:53.081Z</time></trkpt><trkpt lat="43.4454717" lon="11.226805"><ele>204.16666666666669</ele><time>2026-04-18T10:04:54.081Z</time></trkpt><trkpt lat="43.4454067" lon="11.2267183"><ele>205.33333333333334</ele><time>2026-04-18T10:04:55.082Z</time></trkpt><trkpt lat="43.445345" lon="11.22665"><ele>206.5</ele><time>2026-04-18T10:04:56.082Z</time></trkpt><trkpt lat="43.4452867" lon="11.226605"><ele>207.66666666666669</ele><time>2026-04-18T10:04:57.081Z</time></trkpt><trkpt lat="43.445215" lon="11.2265733"><ele>208.83333333333334</ele><time>2026-04-18T10:04:58.081Z</time></trkpt><trkpt lat="43.4451233" lon="11.2265433"><ele>210.0</ele><time>2026-04-18T10:04:59.082Z</time></trkpt><trkpt lat="43.4450067" lon="11.2265117"><ele>211.33333333333331</ele><time>2026-04-18T10:05:00.081Z</time></trkpt><trkpt lat="43.444865" lon="11.226475"><ele>212.66666666666666</ele><time>2026-04-18T10:05:01.082Z</time></trkpt><trkpt lat="43.4447167" lon="11.2264167"><ele>214.0</ele><time>2026-04-18T10:05:02.081Z</time></trkpt><trkpt lat="43.4445617" lon="11.22637"><ele>215.25</ele><time>2026-04-18T10:05:03.081Z</time></trkpt><trkpt lat="43.44442" lon="11.2263083"><ele>216.5</ele><time>2026-04-18T10:05:04.081Z</time></trkpt><trkpt lat="43.4442833" lon="11.22626"><ele>217.75</ele><time>2026-04-18T10:05:05.082Z</time></trkpt><trkpt lat="43.44415" lon="11.22622"><ele>219.0</ele><time>2026-04-18T10:05:06.082Z</time></trkpt><trkpt lat="43.4440167" lon="11.22618"><ele>219.0</ele><time>2026-04-18T10:05:07.081Z</time></trkpt><trkpt lat="43.4438833" lon="11.2261367"><ele>219.0</ele><time>2026-04-18T10:05:08.081Z</time></trkpt><trkpt lat="43.4437467" lon="11.226095"><ele>219.0</ele><time>2026-04-18T10:05:09.082Z</time></trkpt><trkpt lat="43.4436133" lon="11.226055"><ele>219.0</ele><time>2026-04-18T10:05:10.081Z</time></trkpt><trkpt lat="43.4434783" lon="11.2260083"><ele>221.0</ele><time>2026-04-18T10:05:11.082Z</time></trkpt><trkpt lat="43.4433533" lon="11.2259733"><ele>222.99999999999997</ele><time>2026-04-18T10:05:12.082Z</time></trkpt><trkpt lat="43.4432483" lon="11.2259417"><ele>224.99999999999997</ele><time>2026-04-18T10:05:13.082Z</time></trkpt><trkpt lat="43.44315" lon="11.2259183"><ele>227.0</ele><time>2026-04-18T10:05:14.082Z</time></trkpt><trkpt lat="43.44307" lon="11.225895"><ele>229.0</ele><time>2026-04-18T10:05:15.081Z</time></trkpt><trkpt lat="43.4429617" lon="11.2258533"><ele>228.99999999999997</ele><time>2026-04-18T10:05:17.082Z</time></trkpt><trkpt lat="43.4428967" lon="11.225825"><ele>229.0</ele><time>2026-04-18T10:05:19.081Z</time></trkpt><trkpt lat="43.442825" lon="11.225855"><ele>229.0</ele><time>2026-04-18T10:05:22.082Z</time></trkpt><trkpt lat="43.4427833" lon="11.2259517"><ele>229.0</ele><time>2026-04-18T10:05:24.082Z</time></trkpt><trkpt lat="43.442745" lon="11.2261133"><ele>228.99999999999997</ele><time>2026-04-18T10:05:26.081Z</time></trkpt><trkpt lat="43.44272" lon="11.2262233"><ele>229.0</ele><time>2026-04-18T10:05:27.082Z</time></trkpt><trkpt lat="43.4426917" lon="11.2263833"><ele>229.0</ele><time>2026-04-18T10:05:28.081Z</time></trkpt><trkpt lat="43.4426567" lon="11.2265683"><ele>229.0</ele><time>2026-04-18T10:05:29.081Z</time></trkpt><trkpt lat="43.4426167" lon="11.22676"><ele>229.0</ele><time>2026-04-18T10:05:30.082Z</time></trkpt><trkpt lat="43.442585" lon="11.22695"><ele>229.0</ele><time>2026-04-18T10:05:31.081Z</time></trkpt><trkpt lat="43.4425417" lon="11.22714"><ele>229.33333333333331</ele><time>2026-04-18T10:05:32.082Z</time></trkpt><trkpt lat="43.442505" lon="11.2273267"><ele>229.66666666666669</ele><time>2026-04-18T10:05:33.081Z</time></trkpt><trkpt lat="43.4424767" lon="11.22754"><ele>230.0</ele><time>2026-04-18T10:05:34.081Z</time></trkpt><trkpt lat="43.4424583" lon="11.2277683"><ele>230.0</ele><time>2026-04-18T10:05:35.082Z</time></trkpt><trkpt lat="43.4424467" lon="11.228"><ele>230.0</ele><time>2026-04-18T10:05:36.082Z</time></trkpt><trkpt lat="43.4424467" lon="11.2282317"><ele>230.0</ele><time>2026-04-18T10:05:37.082Z</time></trkpt><trkpt lat="43.44245" lon="11.2284583"><ele>230.66666666666669</ele><time>2026-04-18T10:05:38.082Z</time></trkpt><trkpt lat="43.4424483" lon="11.2286967"><ele>231.33333333333331</ele><time>2026-04-18T10:05:39.081Z</time></trkpt><trkpt lat="43.4424433" lon="11.2289367"><ele>232.0</ele><time>2026-04-18T10:05:40.082Z</time></trkpt><trkpt lat="43.44244" lon="11.22917"><ele>233.0</ele><time>2026-04-18T10:05:41.082Z</time></trkpt><trkpt lat="43.4424367" lon="11.2294117"><ele>234.0</ele><time>2026-04-18T10:05:42.082Z</time></trkpt><trkpt lat="43.4424317" lon="11.22965"><ele>235.0</ele><time>2026-04-18T10:05:43.081Z</time></trkpt><trkpt lat="43.4424267" lon="11.2298667"><ele>237.0</ele><time>2026-04-18T10:05:44.081Z</time></trkpt><trkpt lat="43.4424217" lon="11.2300533"><ele>239.0</ele><time>2026-04-18T10:05:45.081Z</time></trkpt><trkpt lat="43.4424183" lon="11.230235"><ele>241.0</ele><time>2026-04-18T10:05:46.082Z</time></trkpt><trkpt lat="43.4424067" lon="11.2304067"><ele>243.0</ele><time>2026-04-18T10:05:47.082Z</time></trkpt><trkpt lat="43.4424033" lon="11.230575"><ele>245.2</ele><time>2026-04-18T10:05:48.081Z</time></trkpt><trkpt lat="43.4423967" lon="11.2307417"><ele>247.4</ele><time>2026-04-18T10:05:49.081Z</time></trkpt><trkpt lat="43.4423967" lon="11.2308867"><ele>249.59999999999997</ele><time>2026-04-18T10:05:50.081Z</time></trkpt><trkpt lat="43.4423967" lon="11.2310283"><ele>251.79999999999998</ele><time>2026-04-18T10:05:51.081Z</time></trkpt><trkpt lat="43.4423967" lon="11.23116"><ele>254.0</ele><time>2026-04-18T10:05:52.081Z</time></trkpt><trkpt lat="43.4423867" lon="11.2312867"><ele>254.00000000000003</ele><time>2026-04-18T10:05:53.082Z</time></trkpt><trkpt lat="43.4423633" lon="11.2314167"><ele>254.0</ele><time>2026-04-18T10:05:54.081Z</time></trkpt><trkpt lat="43.44234" lon="11.2315283"><ele>254.0</ele><time>2026-04-18T10:05:55.081Z</time></trkpt><trkpt lat="43.442305" lon="11.231615"><ele>254.0</ele><time>2026-04-18T10:05:56.081Z</time></trkpt><trkpt lat="43.442245" lon="11.2316967"><ele>254.00000000000003</ele><time>2026-04-18T10:05:57.081Z</time></trkpt><trkpt lat="43.44219" lon="11.2317533"><ele>254.0</ele><time>2026-04-18T10:05:58.082Z</time></trkpt><trkpt lat="43.4421317" lon="11.2317883"><ele>257.33333333333337</ele><time>2026-04-18T10:05:59.081Z</time></trkpt><trkpt lat="43.4420567" lon="11.2318183"><ele>260.6666666666667</ele><time>2026-04-18T10:06:00.082Z</time></trkpt><trkpt lat="43.4419717" lon="11.2318367"><ele>264.0</ele><time>2026-04-18T10:06:01.082Z</time></trkpt><trkpt lat="43.4418833" lon="11.2318517"><ele>267.3333333333333</ele><time>2026-04-18T10:06:02.081Z</time></trkpt><trkpt lat="43.4417967" lon="11.23188"><ele>270.66666666666663</ele><time>2026-04-18T10:06:03.081Z</time></trkpt><trkpt lat="43.4417117" lon="11.2319117"><ele>274.0</ele><time>2026-04-18T10:06:04.081Z</time></trkpt><trkpt lat="43.44163" lon="11.2319467"><ele>274.0</ele><time>2026-04-18T10:06:05.081Z</time></trkpt><trkpt lat="43.4415517" lon="11.231985"><ele>274.0</ele><time>2026-04-18T10:06:06.081Z</time></trkpt><trkpt lat="43.4414767" lon="11.232045"><ele>274.0</ele><time>2026-04-18T10:06:07.081Z</time></trkpt><trkpt lat="43.4414033" lon="11.2321167"><ele>274.0</ele><time>2026-04-18T10:06:08.081Z</time></trkpt><trkpt lat="43.4413283" lon="11.2321967"><ele>274.0</ele><time>2026-04-18T10:06:09.08Z</time></trkpt><trkpt lat="43.441245" lon="11.2322917"><ele>273.5</ele><time>2026-04-18T10:06:10.08Z</time></trkpt><trkpt lat="43.44116" lon="11.23239"><ele>273.0</ele><time>2026-04-18T10:06:11.081Z</time></trkpt><trkpt lat="43.4410683" lon="11.2324833"><ele>272.5</ele><time>2026-04-18T10:06:12.08Z</time></trkpt><trkpt lat="43.4409683" lon="11.2325783"><ele>272.0</ele><time>2026-04-18T10:06:13.081Z</time></trkpt><trkpt lat="43.4408683" lon="11.2326933"><ele>272.0</ele><time>2026-04-18T10:06:14.081Z</time></trkpt><trkpt lat="43.4407667" lon="11.2328083"><ele>272.0</ele><time>2026-04-18T10:06:15.08Z</time></trkpt><trkpt lat="43.44067" lon="11.232915"><ele>272.0</ele><time>2026-04-18T10:06:16.08Z</time></trkpt><trkpt lat="43.4405767" lon="11.2330333"><ele>272.0</ele><time>2026-04-18T10:06:17.08Z</time></trkpt><trkpt lat="43.440495" lon="11.233155"><ele>272.75</ele><time>2026-04-18T10:06:18.081Z</time></trkpt><trkpt lat="43.44042" lon="11.23329"><ele>273.5</ele><time>2026-04-18T10:06:19.081Z</time></trkpt><trkpt lat="43.4403533" lon="11.2334217"><ele>274.25</ele><time>2026-04-18T10:06:20.081Z</time></trkpt><trkpt lat="43.4402833" lon="11.23357"><ele>275.0</ele><time>2026-04-18T10:06:21.08Z</time></trkpt><trkpt lat="43.44022" lon="11.23371"><ele>275.0</ele><time>2026-04-18T10:06:22.081Z</time></trkpt><trkpt lat="43.4401583" lon="11.23384"><ele>275.0</ele><time>2026-04-18T10:06:23.08Z</time></trkpt><trkpt lat="43.4400967" lon="11.23398"><ele>275.0</ele><time>2026-04-18T10:06:24.081Z</time></trkpt><trkpt lat="43.4400267" lon="11.2341167"><ele>275.0</ele><time>2026-04-18T10:06:25.08Z</time></trkpt><trkpt lat="43.4399333" lon="11.234255"><ele>275.75</ele><time>2026-04-18T10:06:26.081Z</time></trkpt><trkpt lat="43.439825" lon="11.2343783"><ele>276.5</ele><time>2026-04-18T10:06:27.081Z</time></trkpt><trkpt lat="43.439695" lon="11.2345"><ele>277.25</ele><time>2026-04-18T10:06:28.08Z</time></trkpt><trkpt lat="43.4395783" lon="11.2346083"><ele>278.0</ele><time>2026-04-18T10:06:29.081Z</time></trkpt><trkpt lat="43.4394567" lon="11.2347283"><ele>280.5</ele><time>2026-04-18T10:06:30.08Z</time></trkpt><trkpt lat="43.4393583" lon="11.2348417"><ele>283.0</ele><time>2026-04-18T10:06:31.08Z</time></trkpt><trkpt lat="43.4392483" lon="11.2349717"><ele>285.5</ele><time>2026-04-18T10:06:32.08Z</time></trkpt><trkpt lat="43.4391383" lon="11.2351117"><ele>288.0</ele><time>2026-04-18T10:06:33.08Z</time></trkpt><trkpt lat="43.43903" lon="11.235255"><ele>288.0</ele><time>2026-04-18T10:06:34.081Z</time></trkpt><trkpt lat="43.4389183" lon="11.2353933"><ele>288.0</ele><time>2026-04-18T10:06:35.08Z</time></trkpt><trkpt lat="43.438815" lon="11.2355483"><ele>288.0</ele><time>2026-04-18T10:06:36.08Z</time></trkpt><trkpt lat="43.4387117" lon="11.2357067"><ele>290.6666666666667</ele><time>2026-04-18T10:06:37.08Z</time></trkpt><trkpt lat="43.43861" lon="11.235865"><ele>293.33333333333337</ele><time>2026-04-18T10:06:38.08Z</time></trkpt><trkpt lat="43.4385133" lon="11.23603"><ele>296.0</ele><time>2026-04-18T10:06:39.08Z</time></trkpt><trkpt lat="43.43841" lon="11.2361817"><ele>296.0</ele><time>2026-04-18T10:06:40.08Z</time></trkpt><trkpt lat="43.438305" lon="11.2363333"><ele>296.0</ele><time>2026-04-18T10:06:41.08Z</time></trkpt><trkpt lat="43.4381967" lon="11.2364833"><ele>296.0</ele><time>2026-04-18T10:06:42.08Z</time></trkpt><trkpt lat="43.4380883" lon="11.236625"><ele>296.33333333333337</ele><time>2026-04-18T10:06:43.08Z</time></trkpt><trkpt lat="43.437955" lon="11.23675"><ele>296.6666666666667</ele><time>2026-04-18T10:06:44.081Z</time></trkpt><trkpt lat="43.437815" lon="11.2368567"><ele>297.0</ele><time>2026-04-18T10:06:45.08Z</time></trkpt><trkpt lat="43.4376517" lon="11.23695"><ele>297.0</ele><time>2026-04-18T10:06:46.08Z</time></trkpt><trkpt lat="43.4374967" lon="11.2370317"><ele>297.0</ele><time>2026-04-18T10:06:47.081Z</time></trkpt><trkpt lat="43.4373433" lon="11.2370983"><ele>297.0</ele><time>2026-04-18T10:06:48.08Z</time></trkpt><trkpt lat="43.4372017" lon="11.2371617"><ele>296.75</ele><time>2026-04-18T10:06:49.081Z</time></trkpt><trkpt lat="43.437075" lon="11.2372333"><ele>296.5</ele><time>2026-04-18T10:06:50.08Z</time></trkpt><trkpt lat="43.436955" lon="11.2373167"><ele>296.25</ele><time>2026-04-18T10:06:51.08Z</time></trkpt><trkpt lat="43.43685" lon="11.23744"><ele>296.0</ele><time>2026-04-18T10:06:52.08Z</time></trkpt><trkpt lat="43.4367517" lon="11.2375867"><ele>296.0</ele><time>2026-04-18T10:06:53.08Z</time></trkpt><trkpt lat="43.4366683" lon="11.2377633"><ele>296.0</ele><time>2026-04-18T10:06:54.08Z</time></trkpt><trkpt lat="43.4365883" lon="11.2379617"><ele>296.0</ele><time>2026-04-18T10:06:55.08Z</time></trkpt><trkpt lat="43.43651" lon="11.2381367"><ele>295.25</ele><time>2026-04-18T10:06:56.081Z</time></trkpt><trkpt lat="43.4364417" lon="11.2383117"><ele>294.5</ele><time>2026-04-18T10:06:57.08Z</time></trkpt><trkpt lat="43.4363733" lon="11.238475"><ele>293.75</ele><time>2026-04-18T10:06:58.081Z</time></trkpt><trkpt lat="43.4362917" lon="11.2386317"><ele>293.0</ele><time>2026-04-18T10:06:59.08Z</time></trkpt><trkpt lat="43.4362017" lon="11.238795"><ele>291.0</ele><time>2026-04-18T10:07:00.08Z</time></trkpt><trkpt lat="43.4361017" lon="11.2389617"><ele>289.0</ele><time>2026-04-18T10:07:01.08Z</time></trkpt><trkpt lat="43.4359983" lon="11.239145"><ele>287.0</ele><time>2026-04-18T10:07:02.08Z</time></trkpt><trkpt lat="43.43589" lon="11.2393183"><ele>287.0</ele><time>2026-04-18T10:07:03.081Z</time></trkpt><trkpt lat="43.4357883" lon="11.2394967"><ele>287.0</ele><time>2026-04-18T10:07:04.08Z</time></trkpt><trkpt lat="43.4356983" lon="11.239665"><ele>287.0</ele><time>2026-04-18T10:07:05.08Z</time></trkpt><trkpt lat="43.4356067" lon="11.2398317"><ele>286.75</ele><time>2026-04-18T10:07:06.08Z</time></trkpt><trkpt lat="43.4355267" lon="11.239995"><ele>286.5</ele><time>2026-04-18T10:07:07.08Z</time></trkpt><trkpt lat="43.435465" lon="11.240165"><ele>286.25</ele><time>2026-04-18T10:07:08.081Z</time></trkpt><trkpt lat="43.43543" lon="11.240345"><ele>286.0</ele><time>2026-04-18T10:07:09.08Z</time></trkpt><trkpt lat="43.4354067" lon="11.2405383"><ele>286.75</ele><time>2026-04-18T10:07:10.081Z</time></trkpt><trkpt lat="43.4354083" lon="11.2407467"><ele>287.5</ele><time>2026-04-18T10:07:11.081Z</time></trkpt><trkpt lat="43.435415" lon="11.2409583"><ele>288.25</ele><time>2026-04-18T10:07:12.08Z</time></trkpt><trkpt lat="43.4354233" lon="11.24115"><ele>289.0</ele><time>2026-04-18T10:07:13.08Z</time></trkpt><trkpt lat="43.4354333" lon="11.241315"><ele>289.0</ele><time>2026-04-18T10:07:14.08Z</time></trkpt><trkpt lat="43.4354417" lon="11.24146"><ele>289.0</ele><time>2026-04-18T10:07:15.081Z</time></trkpt><trkpt lat="43.43546" lon="11.2415917"><ele>289.0</ele><time>2026-04-18T10:07:16.081Z</time></trkpt><trkpt lat="43.4354983" lon="11.2417167"><ele>289.0</ele><time>2026-04-18T10:07:17.08Z</time></trkpt><trkpt lat="43.43555" lon="11.24184"><ele>289.0</ele><time>2026-04-18T10:07:18.08Z</time></trkpt><trkpt lat="43.4356217" lon="11.2419683"><ele>288.75</ele><time>2026-04-18T10:07:19.081Z</time></trkpt><trkpt lat="43.4357" lon="11.242105"><ele>288.5</ele><time>2026-04-18T10:07:20.081Z</time></trkpt><trkpt lat="43.4357933" lon="11.24225"><ele>288.25</ele><time>2026-04-18T10:07:21.08Z</time></trkpt><trkpt lat="43.4358983" lon="11.2424117"><ele>288.0</ele><time>2026-04-18T10:07:22.08Z</time></trkpt><trkpt lat="43.4360083" lon="11.2425917"><ele>288.0</ele><time>2026-04-18T10:07:23.081Z</time></trkpt><trkpt lat="43.4361183" lon="11.2427683"><ele>288.0</ele><time>2026-04-18T10:07:24.08Z</time></trkpt><trkpt lat="43.4362333" lon="11.2429383"><ele>288.0</ele><time>2026-04-18T10:07:25.081Z</time></trkpt><trkpt lat="43.436345" lon="11.2431183"><ele>286.6666666666667</ele><time>2026-04-18T10:07:26.08Z</time></trkpt><trkpt lat="43.436455" lon="11.2432883"><ele>285.33333333333337</ele><time>2026-04-18T10:07:27.08Z</time></trkpt><trkpt lat="43.436565" lon="11.2434583"><ele>284.0</ele><time>2026-04-18T10:07:28.08Z</time></trkpt><trkpt lat="43.4366733" lon="11.24363"><ele>284.0</ele><time>2026-04-18T10:07:29.08Z</time></trkpt><trkpt lat="43.4367883" lon="11.2438117"><ele>284.0</ele><time>2026-04-18T10:07:30.081Z</time></trkpt><trkpt lat="43.4369033" lon="11.2439917"><ele>284.0</ele><time>2026-04-18T10:07:31.081Z</time></trkpt><trkpt lat="43.4370167" lon="11.2441733"><ele>284.0</ele><time>2026-04-18T10:07:32.081Z</time></trkpt><trkpt lat="43.4371267" lon="11.244345"><ele>284.0</ele><time>2026-04-18T10:07:33.08Z</time></trkpt><trkpt lat="43.4372283" lon="11.244515"><ele>284.0</ele><time>2026-04-18T10:07:34.08Z</time></trkpt><trkpt lat="43.4373317" lon="11.244685"><ele>286.0</ele><time>2026-04-18T10:07:35.08Z</time></trkpt><trkpt lat="43.4374433" lon="11.2448383"><ele>288.0</ele><time>2026-04-18T10:07:36.081Z</time></trkpt><trkpt lat="43.43755" lon="11.2449983"><ele>290.0</ele><time>2026-04-18T10:07:37.081Z</time></trkpt><trkpt lat="43.4376617" lon="11.2451517"><ele>290.0</ele><time>2026-04-18T10:07:38.081Z</time></trkpt><trkpt lat="43.4377667" lon="11.2453083"><ele>290.0</ele><time>2026-04-18T10:07:39.08Z</time></trkpt><trkpt lat="43.437865" lon="11.2454667"><ele>290.0</ele><time>2026-04-18T10:07:40.081Z</time></trkpt><trkpt lat="43.4379583" lon="11.2456317"><ele>290.0</ele><time>2026-04-18T10:07:41.081Z</time></trkpt><trkpt lat="43.4380583" lon="11.2457833"><ele>290.0</ele><time>2026-04-18T10:07:42.081Z</time></trkpt><trkpt lat="43.4381467" lon="11.245925"><ele>290.0</ele><time>2026-04-18T10:07:43.08Z</time></trkpt><trkpt lat="43.4382317" lon="11.2460533"><ele>290.0</ele><time>2026-04-18T10:07:44.08Z</time></trkpt><trkpt lat="43.4383033" lon="11.2461667"><ele>290.0</ele><time>2026-04-18T10:07:45.081Z</time></trkpt><trkpt lat="43.4383717" lon="11.2462833"><ele>290.0</ele><time>2026-04-18T10:07:46.08Z</time></trkpt><trkpt lat="43.43842" lon="11.2464067"><ele>290.0</ele><time>2026-04-18T10:07:47.081Z</time></trkpt><trkpt lat="43.438455" lon="11.2465333"><ele>290.0</ele><time>2026-04-18T10:07:48.08Z</time></trkpt><trkpt lat="43.4384833" lon="11.2466783"><ele>290.0</ele><time>2026-04-18T10:07:49.081Z</time></trkpt><trkpt lat="43.4384983" lon="11.2468317"><ele>290.0</ele><time>2026-04-18T10:07:50.081Z</time></trkpt><trkpt lat="43.438515" lon="11.247005"><ele>290.0</ele><time>2026-04-18T10:07:51.081Z</time></trkpt><trkpt lat="43.4385267" lon="11.2471717"><ele>290.0</ele><time>2026-04-18T10:07:52.08Z</time></trkpt><trkpt lat="43.4385283" lon="11.2473267"><ele>290.0</ele><time>2026-04-18T10:07:53.08Z</time></trkpt><trkpt lat="43.4385283" lon="11.2474617"><ele>290.0</ele><time>2026-04-18T10:07:54.08Z</time></trkpt><trkpt lat="43.4385317" lon="11.2475867"><ele>290.0</ele><time>2026-04-18T10:07:55.081Z</time></trkpt><trkpt lat="43.4385367" lon="11.2476983"><ele>290.0</ele><time>2026-04-18T10:07:56.08Z</time></trkpt><trkpt lat="43.4385433" lon="11.2478"><ele>290.0</ele><time>2026-04-18T10:07:57.08Z</time></trkpt><trkpt lat="43.438555" lon="11.2479067"><ele>290.0</ele><time>2026-04-18T10:07:58.08Z</time></trkpt><trkpt lat="43.4385667" lon="11.2480233"><ele>290.0</ele><time>2026-04-18T10:07:59.08Z</time></trkpt><trkpt lat="43.4385817" lon="11.2481383"><ele>290.0</ele><time>2026-04-18T10:08:00.08Z</time></trkpt><trkpt lat="43.4385867" lon="11.2482383"><ele>290.0</ele><time>2026-04-18T10:08:01.08Z</time></trkpt><trkpt lat="43.438585" lon="11.2483667"><ele>290.0</ele><time>2026-04-18T10:08:02.08Z</time></trkpt><trkpt lat="43.4385883" lon="11.2484983"><ele>290.0</ele><time>2026-04-18T10:08:03.08Z</time></trkpt><trkpt lat="43.4385883" lon="11.24862"><ele>290.0</ele><time>2026-04-18T10:08:04.081Z</time></trkpt><trkpt lat="43.438585" lon="11.248745"><ele>290.0</ele><time>2026-04-18T10:08:05.08Z</time></trkpt><trkpt lat="43.4385867" lon="11.2488833"><ele>290.5</ele><time>2026-04-18T10:08:06.081Z</time></trkpt><trkpt lat="43.4385867" lon="11.249035"><ele>291.0</ele><time>2026-04-18T10:08:07.08Z</time></trkpt><trkpt lat="43.4386033" lon="11.249185"><ele>291.5</ele><time>2026-04-18T10:08:08.08Z</time></trkpt><trkpt lat="43.4386183" lon="11.2493433"><ele>292.0</ele><time>2026-04-18T10:08:09.08Z</time></trkpt><trkpt lat="43.43863" lon="11.2495067"><ele>292.0</ele><time>2026-04-18T10:08:10.08Z</time></trkpt><trkpt lat="43.4386417" lon="11.2496767"><ele>292.0</ele><time>2026-04-18T10:08:11.08Z</time></trkpt><trkpt lat="43.4386483" lon="11.249855"><ele>292.0</ele><time>2026-04-18T10:08:12.08Z</time></trkpt><trkpt lat="43.4386583" lon="11.2500233"><ele>292.0</ele><time>2026-04-18T10:08:13.08Z</time></trkpt><trkpt lat="43.43867" lon="11.2501867"><ele>291.5</ele><time>2026-04-18T10:08:14.081Z</time></trkpt><trkpt lat="43.4386817" lon="11.25035"><ele>291.0</ele><time>2026-04-18T10:08:15.08Z</time></trkpt><trkpt lat="43.438695" lon="11.2505217"><ele>290.5</ele><time>2026-04-18T10:08:16.08Z</time></trkpt><trkpt lat="43.4387033" lon="11.250685"><ele>290.0</ele><time>2026-04-18T10:08:17.081Z</time></trkpt><trkpt lat="43.4387117" lon="11.25084"><ele>290.0</ele><time>2026-04-18T10:08:18.081Z</time></trkpt><trkpt lat="43.4387067" lon="11.2509767"><ele>290.0</ele><time>2026-04-18T10:08:19.081Z</time></trkpt><trkpt lat="43.43869" lon="11.2511117"><ele>290.0</ele><time>2026-04-18T10:08:20.081Z</time></trkpt><trkpt lat="43.4386567" lon="11.2512633"><ele>290.0</ele><time>2026-04-18T10:08:21.08Z</time></trkpt><trkpt lat="43.4386183" lon="11.2514283"><ele>290.0</ele><time>2026-04-18T10:08:22.08Z</time></trkpt><trkpt lat="43.43859" lon="11.25161"><ele>290.0</ele><time>2026-04-18T10:08:23.08Z</time></trkpt><trkpt lat="43.438565" lon="11.2517883"><ele>290.0</ele><time>2026-04-18T10:08:24.08Z</time></trkpt><trkpt lat="43.4385267" lon="11.2519533"><ele>290.0</ele><time>2026-04-18T10:08:25.08Z</time></trkpt><trkpt lat="43.438475" lon="11.252115"><ele>290.0</ele><time>2026-04-18T10:08:26.08Z</time></trkpt><trkpt lat="43.438405" lon="11.2522733"><ele>291.0</ele><time>2026-04-18T10:08:27.08Z</time></trkpt><trkpt lat="43.4383417" lon="11.2524483"><ele>292.0</ele><time>2026-04-18T10:08:28.081Z</time></trkpt><trkpt lat="43.4383017" lon="11.25263"><ele>293.0</ele><time>2026-04-18T10:08:29.08Z</time></trkpt><trkpt lat="43.4382533" lon="11.2528017"><ele>294.0</ele><time>2026-04-18T10:08:30.08Z</time></trkpt><trkpt lat="43.4382" lon="11.2529617"><ele>294.0</ele><time>2026-04-18T10:08:31.081Z</time></trkpt><trkpt lat="43.43815" lon="11.253095"><ele>294.0</ele><time>2026-04-18T10:08:32.081Z</time></trkpt><trkpt lat="43.4381033" lon="11.2532217"><ele>294.0</ele><time>2026-04-18T10:08:33.08Z</time></trkpt><trkpt lat="43.4380567" lon="11.2533383"><ele>294.0</ele><time>2026-04-18T10:08:34.08Z</time></trkpt><trkpt lat="43.4380067" lon="11.253445"><ele>294.0</ele><time>2026-04-18T10:08:35.081Z</time></trkpt><trkpt lat="43.4379533" lon="11.2535383"><ele>293.6666666666667</ele><time>2026-04-18T10:08:36.081Z</time></trkpt><trkpt lat="43.4379033" lon="11.2536417"><ele>293.3333333333333</ele><time>2026-04-18T10:08:37.081Z</time></trkpt><trkpt lat="43.4378467" lon="11.253745"><ele>293.0</ele><time>2026-04-18T10:08:38.08Z</time></trkpt><trkpt lat="43.4377817" lon="11.2538183"><ele>292.66666666666663</ele><time>2026-04-18T10:08:39.08Z</time></trkpt><trkpt lat="43.4377217" lon="11.2538983"><ele>292.3333333333333</ele><time>2026-04-18T10:08:40.081Z</time></trkpt><trkpt lat="43.4376467" lon="11.2539583"><ele>292.0</ele><time>2026-04-18T10:08:41.081Z</time></trkpt><trkpt lat="43.43757" lon="11.2540133"><ele>292.66666666666663</ele><time>2026-04-18T10:08:42.08Z</time></trkpt><trkpt lat="43.4374917" lon="11.2540433"><ele>293.3333333333333</ele><time>2026-04-18T10:08:43.08Z</time></trkpt><trkpt lat="43.4374167" lon="11.25408"><ele>294.0</ele><time>2026-04-18T10:08:44.08Z</time></trkpt><trkpt lat="43.4373383" lon="11.254125"><ele>294.6666666666667</ele><time>2026-04-18T10:08:45.08Z</time></trkpt><trkpt lat="43.43726" lon="11.25415"><ele>295.33333333333337</ele><time>2026-04-18T10:08:46.081Z</time></trkpt><trkpt lat="43.4371883" lon="11.254195"><ele>296.0</ele><time>2026-04-18T10:08:47.08Z</time></trkpt><trkpt lat="43.4371183" lon="11.25422"><ele>296.0</ele><time>2026-04-18T10:08:48.08Z</time></trkpt><trkpt lat="43.4370567" lon="11.254255"><ele>296.0</ele><time>2026-04-18T10:08:49.08Z</time></trkpt><trkpt lat="43.4369567" lon="11.2542983"><ele>296.0</ele><time>2026-04-18T10:08:51.08Z</time></trkpt><trkpt lat="43.436875" lon="11.2543483"><ele>296.0</ele><time>2026-04-18T10:08:53.08Z</time></trkpt><trkpt lat="43.436825" lon="11.2544067"><ele>296.0</ele><time>2026-04-18T10:08:55.08Z</time></trkpt><trkpt lat="43.43681" lon="11.2545083"><ele>296.0</ele><time>2026-04-18T10:08:58.081Z</time></trkpt><trkpt lat="43.4367533" lon="11.2545883"><ele>296.0</ele><time>2026-04-18T10:09:11.081Z</time></trkpt><trkpt lat="43.4365983" lon="11.2546"><ele>296.0</ele><time>2026-04-18T10:09:13.08Z</time></trkpt><trkpt lat="43.4364733" lon="11.2545917"><ele>296.0</ele><time>2026-04-18T10:09:14.081Z</time></trkpt><trkpt lat="43.436315" lon="11.254585"><ele>296.0</ele><time>2026-04-18T10:09:15.08Z</time></trkpt><trkpt lat="43.4361683" lon="11.254575"><ele>293.5</ele><time>2026-04-18T10:09:16.08Z</time></trkpt><trkpt lat="43.4360283" lon="11.2545583"><ele>291.0</ele><time>2026-04-18T10:09:17.08Z</time></trkpt><trkpt lat="43.435885" lon="11.2545267"><ele>288.5</ele><time>2026-04-18T10:09:18.08Z</time></trkpt><trkpt lat="43.43574" lon="11.254505"><ele>286.0</ele><time>2026-04-18T10:09:19.08Z</time></trkpt><trkpt lat="43.435605" lon="11.25448"><ele>284.0</ele><time>2026-04-18T10:09:20.081Z</time></trkpt><trkpt lat="43.43547" lon="11.2544533"><ele>282.0</ele><time>2026-04-18T10:09:21.08Z</time></trkpt><trkpt lat="43.43534" lon="11.2544217"><ele>280.0</ele><time>2026-04-18T10:09:22.081Z</time></trkpt><trkpt lat="43.43521" lon="11.2544"><ele>278.0</ele><time>2026-04-18T10:09:23.081Z</time></trkpt><trkpt lat="43.4350833" lon="11.2543867"><ele>278.0</ele><time>2026-04-18T10:09:24.081Z</time></trkpt><trkpt lat="43.4349417" lon="11.2543783"><ele>278.0</ele><time>2026-04-18T10:09:25.081Z</time></trkpt><trkpt lat="43.43481" lon="11.25437"><ele>278.0</ele><time>2026-04-18T10:09:26.081Z</time></trkpt><trkpt lat="43.4346617" lon="11.2543567"><ele>278.0</ele><time>2026-04-18T10:09:27.08Z</time></trkpt><trkpt lat="43.4345217" lon="11.2543433"><ele>275.5</ele><time>2026-04-18T10:09:28.08Z</time></trkpt><trkpt lat="43.4343817" lon="11.2543283"><ele>273.0</ele><time>2026-04-18T10:09:29.08Z</time></trkpt><trkpt lat="43.434245" lon="11.2543"><ele>270.5</ele><time>2026-04-18T10:09:30.081Z</time></trkpt><trkpt lat="43.4341033" lon="11.2542883"><ele>268.0</ele><time>2026-04-18T10:09:31.08Z</time></trkpt><trkpt lat="43.4339683" lon="11.2542733"><ele>268.0</ele><time>2026-04-18T10:09:32.08Z</time></trkpt><trkpt lat="43.4338333" lon="11.2542533"><ele>268.0</ele><time>2026-04-18T10:09:33.081Z</time></trkpt><trkpt lat="43.433705" lon="11.2542283"><ele>268.0</ele><time>2026-04-18T10:09:34.081Z</time></trkpt><trkpt lat="43.433575" lon="11.2542067"><ele>268.0</ele><time>2026-04-18T10:09:35.08Z</time></trkpt><trkpt lat="43.433445" lon="11.25419"><ele>265.5</ele><time>2026-04-18T10:09:36.08Z</time></trkpt><trkpt lat="43.4333267" lon="11.25417"><ele>263.0</ele><time>2026-04-18T10:09:37.081Z</time></trkpt><trkpt lat="43.43321" lon="11.254155"><ele>260.5</ele><time>2026-04-18T10:09:38.081Z</time></trkpt><trkpt lat="43.4331017" lon="11.254135"><ele>258.0</ele><time>2026-04-18T10:09:39.08Z</time></trkpt><trkpt lat="43.4329817" lon="11.25412"><ele>256.0</ele><time>2026-04-18T10:09:40.081Z</time></trkpt><trkpt lat="43.43288" lon="11.254105"><ele>254.0</ele><time>2026-04-18T10:09:41.08Z</time></trkpt><trkpt lat="43.43278" lon="11.2541083"><ele>252.0</ele><time>2026-04-18T10:09:42.081Z</time></trkpt><trkpt lat="43.43269" lon="11.25411"><ele>250.0</ele><time>2026-04-18T10:09:43.081Z</time></trkpt><trkpt lat="43.432625" lon="11.2541183"><ele>248.0</ele><time>2026-04-18T10:09:44.08Z</time></trkpt><trkpt lat="43.4325367" lon="11.2541717"><ele>248.0</ele><time>2026-04-18T10:09:46.08Z</time></trkpt><trkpt lat="43.4324917" lon="11.2542833"><ele>248.0</ele><time>2026-04-18T10:10:09.08Z</time></trkpt><trkpt lat="43.4324667" lon="11.25437"><ele>248.0</ele><time>2026-04-18T10:10:10.081Z</time></trkpt><trkpt lat="43.4324" lon="11.2544683"><ele>248.0</ele><time>2026-04-18T10:10:11.08Z</time></trkpt><trkpt lat="43.4322917" lon="11.254575"><ele>248.0</ele><time>2026-04-18T10:10:12.08Z</time></trkpt><trkpt lat="43.432155" lon="11.25468"><ele>245.33333333333334</ele><time>2026-04-18T10:10:13.08Z</time></trkpt><trkpt lat="43.4320167" lon="11.2547883"><ele>242.66666666666669</ele><time>2026-04-18T10:10:14.081Z</time></trkpt><trkpt lat="43.431885" lon="11.254885"><ele>240.0</ele><time>2026-04-18T10:10:15.08Z</time></trkpt><trkpt lat="43.4317483" lon="11.254985"><ele>240.0</ele><time>2026-04-18T10:10:16.08Z</time></trkpt><trkpt lat="43.4315883" lon="11.255125"><ele>240.0</ele><time>2026-04-18T10:10:17.081Z</time></trkpt><trkpt lat="43.4314133" lon="11.2552517"><ele>240.0</ele><time>2026-04-18T10:10:18.08Z</time></trkpt><trkpt lat="43.4312467" lon="11.25537"><ele>238.33333333333331</ele><time>2026-04-18T10:10:19.079Z</time></trkpt><trkpt lat="43.4310817" lon="11.2554883"><ele>236.66666666666666</ele><time>2026-04-18T10:10:20.079Z</time></trkpt><trkpt lat="43.4309133" lon="11.255615"><ele>235.0</ele><time>2026-04-18T10:10:21.079Z</time></trkpt><trkpt lat="43.4307517" lon="11.2557317"><ele>235.0</ele><time>2026-04-18T10:10:22.08Z</time></trkpt><trkpt lat="43.43059" lon="11.255845"><ele>235.0</ele><time>2026-04-18T10:10:23.08Z</time></trkpt><trkpt lat="43.4304317" lon="11.2559533"><ele>235.0</ele><time>2026-04-18T10:10:24.08Z</time></trkpt><trkpt lat="43.4302833" lon="11.2560567"><ele>233.66666666666666</ele><time>2026-04-18T10:10:25.08Z</time></trkpt><trkpt lat="43.430135" lon="11.256155"><ele>232.33333333333331</ele><time>2026-04-18T10:10:26.079Z</time></trkpt><trkpt lat="43.4299717" lon="11.2562533"><ele>231.0</ele><time>2026-04-18T10:10:27.079Z</time></trkpt><trkpt lat="43.4298067" lon="11.2563233"><ele>231.0</ele><time>2026-04-18T10:10:28.08Z</time></trkpt><trkpt lat="43.42962" lon="11.25636"><ele>231.0</ele><time>2026-04-18T10:10:29.079Z</time></trkpt><trkpt lat="43.4294283" lon="11.2563717"><ele>231.0</ele><time>2026-04-18T10:10:30.08Z</time></trkpt><trkpt lat="43.4292517" lon="11.2563733"><ele>231.0</ele><time>2026-04-18T10:10:31.079Z</time></trkpt><trkpt lat="43.42908" lon="11.2563767"><ele>231.0</ele><time>2026-04-18T10:10:32.079Z</time></trkpt><trkpt lat="43.4289067" lon="11.2563867"><ele>231.0</ele><time>2026-04-18T10:10:33.08Z</time></trkpt><trkpt lat="43.428735" lon="11.256395"><ele>232.0</ele><time>2026-04-18T10:10:34.08Z</time></trkpt><trkpt lat="43.4285717" lon="11.256395"><ele>233.0</ele><time>2026-04-18T10:10:35.079Z</time></trkpt><trkpt lat="43.4283983" lon="11.2563733"><ele>234.0</ele><time>2026-04-18T10:10:36.079Z</time></trkpt><trkpt lat="43.4282167" lon="11.256325"><ele>234.0</ele><time>2026-04-18T10:10:37.079Z</time></trkpt><trkpt lat="43.42804" lon="11.2562667"><ele>234.0</ele><time>2026-04-18T10:10:38.079Z</time></trkpt><trkpt lat="43.4278817" lon="11.25622"><ele>234.0</ele><time>2026-04-18T10:10:39.079Z</time></trkpt><trkpt lat="43.4277483" lon="11.2561933"><ele>235.79999999999998</ele><time>2026-04-18T10:10:40.08Z</time></trkpt><trkpt lat="43.4276367" lon="11.25618"><ele>237.59999999999997</ele><time>2026-04-18T10:10:41.08Z</time></trkpt><trkpt lat="43.427545" lon="11.2561833"><ele>239.4</ele><time>2026-04-18T10:10:42.08Z</time></trkpt><trkpt lat="43.42747" lon="11.2561983"><ele>241.2</ele><time>2026-04-18T10:10:43.079Z</time></trkpt><trkpt lat="43.4273617" lon="11.2562133"><ele>243.0</ele><time>2026-04-18T10:10:45.08Z</time></trkpt><trkpt lat="43.4272833" lon="11.2562467"><ele>243.0</ele><time>2026-04-18T10:10:47.08Z</time></trkpt><trkpt lat="43.42725" lon="11.2563717"><ele>243.0</ele><time>2026-04-18T10:28:20.075Z</time></trkpt><trkpt lat="43.42721" lon="11.2564883"><ele>243.0</ele><time>2026-04-18T10:28:22.074Z</time></trkpt><trkpt lat="43.4271417" lon="11.2566167"><ele>243.0</ele><time>2026-04-18T10:28:24.075Z</time></trkpt><trkpt lat="43.4270817" lon="11.25676"><ele>243.0</ele><time>2026-04-18T10:28:26.075Z</time></trkpt><trkpt lat="43.42705" lon="11.25684"><ele>244.0</ele><time>2026-04-18T10:28:27.074Z</time></trkpt><trkpt lat="43.427015" lon="11.2569233"><ele>245.0</ele><time>2026-04-18T10:28:28.075Z</time></trkpt><trkpt lat="43.42698" lon="11.2570033"><ele>246.0</ele><time>2026-04-18T10:28:29.074Z</time></trkpt><trkpt lat="43.4269417" lon="11.257085"><ele>247.0</ele><time>2026-04-18T10:28:30.074Z</time></trkpt><trkpt lat="43.4269017" lon="11.2571683"><ele>248.0</ele><time>2026-04-18T10:28:31.074Z</time></trkpt><trkpt lat="43.42686" lon="11.25725"><ele>249.0</ele><time>2026-04-18T10:28:32.074Z</time></trkpt><trkpt lat="43.4268267" lon="11.257335"><ele>250.0</ele><time>2026-04-18T10:28:33.074Z</time></trkpt><trkpt lat="43.4267867" lon="11.2574283"><ele>250.8</ele><time>2026-04-18T10:28:34.074Z</time></trkpt><trkpt lat="43.4267417" lon="11.2575317"><ele>251.6</ele><time>2026-04-18T10:28:35.075Z</time></trkpt><trkpt lat="43.4266883" lon="11.257635"><ele>252.39999999999998</ele><time>2026-04-18T10:28:36.074Z</time></trkpt><trkpt lat="43.4266417" lon="11.2577533"><ele>253.2</ele><time>2026-04-18T10:28:37.074Z</time></trkpt><trkpt lat="43.4265967" lon="11.2578683"><ele>254.0</ele><time>2026-04-18T10:28:38.074Z</time></trkpt><trkpt lat="43.42655" lon="11.2579883"><ele>254.0</ele><time>2026-04-18T10:28:39.075Z</time></trkpt><trkpt lat="43.426515" lon="11.2581067"><ele>253.99999999999997</ele><time>2026-04-18T10:28:40.074Z</time></trkpt><trkpt lat="43.42649" lon="11.25824"><ele>253.99999999999997</ele><time>2026-04-18T10:28:41.075Z</time></trkpt><trkpt lat="43.426475" lon="11.258365"><ele>254.0</ele><time>2026-04-18T10:28:42.075Z</time></trkpt><trkpt lat="43.4264633" lon="11.258515"><ele>254.0</ele><time>2026-04-18T10:28:43.074Z</time></trkpt><trkpt lat="43.4264583" lon="11.25866"><ele>254.75</ele><time>2026-04-18T10:28:44.074Z</time></trkpt><trkpt lat="43.4264583" lon="11.2588133"><ele>255.5</ele><time>2026-04-18T10:28:45.074Z</time></trkpt><trkpt lat="43.4264583" lon="11.2589717"><ele>256.25</ele><time>2026-04-18T10:28:46.075Z</time></trkpt><trkpt lat="43.42646" lon="11.2591367"><ele>257.0</ele><time>2026-04-18T10:28:47.075Z</time></trkpt><trkpt lat="43.4264733" lon="11.2593067"><ele>258.0</ele><time>2026-04-18T10:28:48.074Z</time></trkpt><trkpt lat="43.4264933" lon="11.2594883"><ele>259.0</ele><time>2026-04-18T10:28:49.074Z</time></trkpt><trkpt lat="43.4265133" lon="11.2596717"><ele>260.0</ele><time>2026-04-18T10:28:50.075Z</time></trkpt><trkpt lat="43.426535" lon="11.2598533"><ele>261.0</ele><time>2026-04-18T10:28:51.074Z</time></trkpt><trkpt lat="43.4265583" lon="11.2600317"><ele>262.0</ele><time>2026-04-18T10:28:52.074Z</time></trkpt><trkpt lat="43.4265783" lon="11.2602133"><ele>263.0</ele><time>2026-04-18T10:28:53.074Z</time></trkpt><trkpt lat="43.4265933" lon="11.2603983"><ele>264.0</ele><time>2026-04-18T10:28:54.074Z</time></trkpt><trkpt lat="43.4266083" lon="11.26058"><ele>265.0</ele><time>2026-04-18T10:28:55.074Z</time></trkpt><trkpt lat="43.4266267" lon="11.26077"><ele>266.25</ele><time>2026-04-18T10:28:56.074Z</time></trkpt><trkpt lat="43.42664" lon="11.2609583"><ele>267.5</ele><time>2026-04-18T10:28:57.074Z</time></trkpt><trkpt lat="43.4266517" lon="11.2611467"><ele>268.75</ele><time>2026-04-18T10:28:58.075Z</time></trkpt><trkpt lat="43.4266633" lon="11.2613333"><ele>270.0</ele><time>2026-04-18T10:28:59.074Z</time></trkpt><trkpt lat="43.4266783" lon="11.26151"><ele>271.75</ele><time>2026-04-18T10:29:00.074Z</time></trkpt><trkpt lat="43.4266983" lon="11.2616817"><ele>273.5</ele><time>2026-04-18T10:29:01.074Z</time></trkpt><trkpt lat="43.4267267" lon="11.2618483"><ele>275.25</ele><time>2026-04-18T10:29:02.074Z</time></trkpt><trkpt lat="43.4267717" lon="11.2619967"><ele>277.0</ele><time>2026-04-18T10:29:03.075Z</time></trkpt><trkpt lat="43.4268267" lon="11.262145"><ele>278.75</ele><time>2026-04-18T10:29:04.075Z</time></trkpt><trkpt lat="43.426885" lon="11.2623017"><ele>280.5</ele><time>2026-04-18T10:29:05.074Z</time></trkpt><trkpt lat="43.42694" lon="11.2624617"><ele>282.25</ele><time>2026-04-18T10:29:06.074Z</time></trkpt><trkpt lat="43.426995" lon="11.26261"><ele>284.0</ele><time>2026-04-18T10:29:07.074Z</time></trkpt><trkpt lat="43.427045" lon="11.2627617"><ele>284.0</ele><time>2026-04-18T10:29:08.074Z</time></trkpt><trkpt lat="43.4271067" lon="11.2629167"><ele>284.0</ele><time>2026-04-18T10:29:09.075Z</time></trkpt><trkpt lat="43.4271667" lon="11.2630583"><ele>284.0</ele><time>2026-04-18T10:29:10.074Z</time></trkpt><trkpt lat="43.4272233" lon="11.2631933"><ele>284.0</ele><time>2026-04-18T10:29:11.074Z</time></trkpt><trkpt lat="43.42729" lon="11.2633267"><ele>284.59999999999997</ele><time>2026-04-18T10:29:12.075Z</time></trkpt><trkpt lat="43.4273633" lon="11.2634633"><ele>285.2</ele><time>2026-04-18T10:29:13.074Z</time></trkpt><trkpt lat="43.4274367" lon="11.2635883"><ele>285.79999999999995</ele><time>2026-04-18T10:29:14.074Z</time></trkpt><trkpt lat="43.4275033" lon="11.2637017"><ele>286.4</ele><time>2026-04-18T10:29:15.074Z</time></trkpt><trkpt lat="43.4275667" lon="11.2638033"><ele>287.0</ele><time>2026-04-18T10:29:16.074Z</time></trkpt><trkpt lat="43.4276267" lon="11.2638933"><ele>286.83333333333337</ele><time>2026-04-18T10:29:17.074Z</time></trkpt><trkpt lat="43.4276733" lon="11.2639717"><ele>286.6666666666667</ele><time>2026-04-18T10:29:18.075Z</time></trkpt><trkpt lat="43.427715" lon="11.26404"><ele>286.5</ele><time>2026-04-18T10:29:19.075Z</time></trkpt><trkpt lat="43.4277567" lon="11.2641233"><ele>286.3333333333333</ele><time>2026-04-18T10:29:21.074Z</time></trkpt><trkpt lat="43.4277967" lon="11.2642117"><ele>286.16666666666663</ele><time>2026-04-18T10:29:25.075Z</time></trkpt><trkpt lat="43.4278233" lon="11.2642933"><ele>286.0</ele><time>2026-04-18T10:29:27.075Z</time></trkpt><trkpt lat="43.4278583" lon="11.26445"><ele>286.0</ele><time>2026-04-18T10:29:29.074Z</time></trkpt><trkpt lat="43.42787" lon="11.2645533"><ele>286.0</ele><time>2026-04-18T10:29:30.075Z</time></trkpt><trkpt lat="43.4278667" lon="11.2646767"><ele>286.0</ele><time>2026-04-18T10:29:31.074Z</time></trkpt><trkpt lat="43.4278583" lon="11.264825"><ele>286.0</ele><time>2026-04-18T10:29:32.075Z</time></trkpt><trkpt lat="43.427845" lon="11.2649733"><ele>286.0</ele><time>2026-04-18T10:29:33.075Z</time></trkpt><trkpt lat="43.427825" lon="11.2651267"><ele>285.25</ele><time>2026-04-18T10:29:34.074Z</time></trkpt><trkpt lat="43.4277933" lon="11.2652817"><ele>284.5</ele><time>2026-04-18T10:29:35.074Z</time></trkpt><trkpt lat="43.4277433" lon="11.2654333"><ele>283.75</ele><time>2026-04-18T10:29:36.075Z</time></trkpt><trkpt lat="43.4276733" lon="11.265595"><ele>283.0</ele><time>2026-04-18T10:29:37.075Z</time></trkpt><trkpt lat="43.4276" lon="11.2657583"><ele>282.5</ele><time>2026-04-18T10:29:38.074Z</time></trkpt><trkpt lat="43.4275217" lon="11.2659183"><ele>282.0</ele><time>2026-04-18T10:29:39.074Z</time></trkpt><trkpt lat="43.4274333" lon="11.2660883"><ele>281.5</ele><time>2026-04-18T10:29:40.075Z</time></trkpt><trkpt lat="43.427345" lon="11.26626"><ele>281.0</ele><time>2026-04-18T10:29:41.075Z</time></trkpt><trkpt lat="43.4272467" lon="11.2664317"><ele>279.6666666666667</ele><time>2026-04-18T10:29:42.074Z</time></trkpt><trkpt lat="43.4271583" lon="11.2666033"><ele>278.3333333333333</ele><time>2026-04-18T10:29:43.075Z</time></trkpt><trkpt lat="43.4270733" lon="11.26679"><ele>277.0</ele><time>2026-04-18T10:29:44.074Z</time></trkpt><trkpt lat="43.4269933" lon="11.2669767"><ele>276.3333333333333</ele><time>2026-04-18T10:29:45.074Z</time></trkpt><trkpt lat="43.4269117" lon="11.2671667"><ele>275.6666666666667</ele><time>2026-04-18T10:29:46.074Z</time></trkpt><trkpt lat="43.4268383" lon="11.2673583"><ele>275.0</ele><time>2026-04-18T10:29:47.075Z</time></trkpt><trkpt lat="43.4267617" lon="11.26755"><ele>276.33333333333337</ele><time>2026-04-18T10:29:48.075Z</time></trkpt><trkpt lat="43.426695" lon="11.2677417"><ele>277.6666666666667</ele><time>2026-04-18T10:29:49.074Z</time></trkpt><trkpt lat="43.4266333" lon="11.2679383"><ele>279.0</ele><time>2026-04-18T10:29:50.074Z</time></trkpt><trkpt lat="43.4265817" lon="11.2681383"><ele>279.5</ele><time>2026-04-18T10:29:51.074Z</time></trkpt><trkpt lat="43.4265267" lon="11.2683417"><ele>280.0</ele><time>2026-04-18T10:29:52.074Z</time></trkpt><trkpt lat="43.4264883" lon="11.2685333"><ele>280.5</ele><time>2026-04-18T10:29:53.074Z</time></trkpt><trkpt lat="43.4264533" lon="11.2687067"><ele>281.0</ele><time>2026-04-18T10:29:54.074Z</time></trkpt><trkpt lat="43.4264233" lon="11.268875"><ele>280.5</ele><time>2026-04-18T10:29:55.074Z</time></trkpt><trkpt lat="43.4264083" lon="11.2690383"><ele>280.0</ele><time>2026-04-18T10:29:56.074Z</time></trkpt><trkpt lat="43.4264017" lon="11.26922"><ele>279.5</ele><time>2026-04-18T10:29:57.074Z</time></trkpt><trkpt lat="43.4264017" lon="11.269405"><ele>279.0</ele><time>2026-04-18T10:29:58.074Z</time></trkpt><trkpt lat="43.4264" lon="11.26959"><ele>279.0</ele><time>2026-04-18T10:29:59.075Z</time></trkpt><trkpt lat="43.4264017" lon="11.269775"><ele>279.0</ele><time>2026-04-18T10:30:00.074Z</time></trkpt><trkpt lat="43.4264017" lon="11.2699417"><ele>279.0</ele><time>2026-04-18T10:30:01.074Z</time></trkpt><trkpt lat="43.4264033" lon="11.2701033"><ele>279.0</ele><time>2026-04-18T10:30:02.075Z</time></trkpt><trkpt lat="43.426395" lon="11.2702483"><ele>279.25</ele><time>2026-04-18T10:30:03.075Z</time></trkpt><trkpt lat="43.426355" lon="11.2703983"><ele>279.5</ele><time>2026-04-18T10:30:04.075Z</time></trkpt><trkpt lat="43.426295" lon="11.27055"><ele>279.75</ele><time>2026-04-18T10:30:05.075Z</time></trkpt><trkpt lat="43.426225" lon="11.2707267"><ele>280.0</ele><time>2026-04-18T10:30:06.074Z</time></trkpt><trkpt lat="43.4261617" lon="11.2709083"><ele>279.3333333333333</ele><time>2026-04-18T10:30:07.074Z</time></trkpt><trkpt lat="43.4260933" lon="11.2711033"><ele>278.6666666666667</ele><time>2026-04-18T10:30:08.074Z</time></trkpt><trkpt lat="43.4260117" lon="11.2712917"><ele>278.0</ele><time>2026-04-18T10:30:09.075Z</time></trkpt><trkpt lat="43.425935" lon="11.2714883"><ele>278.0</ele><time>2026-04-18T10:30:10.075Z</time></trkpt><trkpt lat="43.4258633" lon="11.2716917"><ele>278.0</ele><time>2026-04-18T10:30:11.074Z</time></trkpt><trkpt lat="43.425785" lon="11.271885"><ele>278.0</ele><time>2026-04-18T10:30:12.074Z</time></trkpt><trkpt lat="43.4257117" lon="11.2720733"><ele>278.6666666666667</ele><time>2026-04-18T10:30:13.074Z</time></trkpt><trkpt lat="43.4256333" lon="11.272275"><ele>279.3333333333333</ele><time>2026-04-18T10:30:14.074Z</time></trkpt><trkpt lat="43.4255433" lon="11.2724733"><ele>280.0</ele><time>2026-04-18T10:30:15.075Z</time></trkpt><trkpt lat="43.4254667" lon="11.2726767"><ele>279.0</ele><time>2026-04-18T10:30:16.075Z</time></trkpt><trkpt lat="43.4253967" lon="11.2728717"><ele>278.0</ele><time>2026-04-18T10:30:17.075Z</time></trkpt><trkpt lat="43.4253267" lon="11.2730433"><ele>277.0</ele><time>2026-04-18T10:30:18.075Z</time></trkpt><trkpt lat="43.42525" lon="11.2732133"><ele>276.0</ele><time>2026-04-18T10:30:19.074Z</time></trkpt><trkpt lat="43.4251867" lon="11.273375"><ele>276.0</ele><time>2026-04-18T10:30:20.075Z</time></trkpt><trkpt lat="43.4251317" lon="11.2735183"><ele>276.0</ele><time>2026-04-18T10:30:21.074Z</time></trkpt><trkpt lat="43.42508" lon="11.2736617"><ele>276.0</ele><time>2026-04-18T10:30:22.074Z</time></trkpt><trkpt lat="43.4250333" lon="11.2737917"><ele>276.0</ele><time>2026-04-18T10:30:23.075Z</time></trkpt><trkpt lat="43.4249967" lon="11.273915"><ele>276.0</ele><time>2026-04-18T10:30:24.074Z</time></trkpt><trkpt lat="43.424985" lon="11.2740467"><ele>276.2</ele><time>2026-04-18T10:30:25.075Z</time></trkpt><trkpt lat="43.424995" lon="11.27418"><ele>276.40000000000003</ele><time>2026-04-18T10:30:26.075Z</time></trkpt><trkpt lat="43.42501" lon="11.274305"><ele>276.6</ele><time>2026-04-18T10:30:27.074Z</time></trkpt><trkpt lat="43.4250167" lon="11.2744317"><ele>276.8</ele><time>2026-04-18T10:30:28.075Z</time></trkpt><trkpt lat="43.4250133" lon="11.274555"><ele>277.0</ele><time>2026-04-18T10:30:29.074Z</time></trkpt><trkpt lat="43.42501" lon="11.2746833"><ele>277.0</ele><time>2026-04-18T10:30:30.074Z</time></trkpt><trkpt lat="43.4250017" lon="11.274785"><ele>277.0</ele><time>2026-04-18T10:30:31.075Z</time></trkpt><trkpt lat="43.4249583" lon="11.274925"><ele>277.0</ele><time>2026-04-18T10:30:33.074Z</time></trkpt><trkpt lat="43.4248867" lon="11.275025"><ele>277.0</ele><time>2026-04-18T10:30:35.074Z</time></trkpt><trkpt lat="43.4248083" lon="11.2751183"><ele>277.0</ele><time>2026-04-18T10:30:37.074Z</time></trkpt><trkpt lat="43.4247167" lon="11.2752167"><ele>277.0</ele><time>2026-04-18T10:30:39.075Z</time></trkpt><trkpt lat="43.4246267" lon="11.2753267"><ele>277.0</ele><time>2026-04-18T10:30:41.074Z</time></trkpt><trkpt lat="43.4245433" lon="11.27542"><ele>277.0</ele><time>2026-04-18T10:30:43.073Z</time></trkpt><trkpt lat="43.4244717" lon="11.2755033"><ele>277.0</ele><time>2026-04-18T10:30:45.073Z</time></trkpt><trkpt lat="43.4244067" lon="11.2755767"><ele>277.0</ele><time>2026-04-18T10:30:47.073Z</time></trkpt><trkpt lat="43.4243467" lon="11.2756333"><ele>278.6</ele><time>2026-04-18T10:30:50.074Z</time></trkpt><trkpt lat="43.42427" lon="11.275715"><ele>280.2</ele><time>2026-04-18T10:30:59.073Z</time></trkpt><trkpt lat="43.4241383" lon="11.2757817"><ele>281.8</ele><time>2026-04-18T10:31:01.073Z</time></trkpt><trkpt lat="43.4240517" lon="11.275825"><ele>283.4</ele><time>2026-04-18T10:31:02.073Z</time></trkpt><trkpt lat="43.42396" lon="11.27587"><ele>285.0</ele><time>2026-04-18T10:31:03.074Z</time></trkpt><trkpt lat="43.4238533" lon="11.275935"><ele>284.0</ele><time>2026-04-18T10:31:04.073Z</time></trkpt><trkpt lat="43.4237483" lon="11.2760117"><ele>283.0</ele><time>2026-04-18T10:31:05.073Z</time></trkpt><trkpt lat="43.4236483" lon="11.2760983"><ele>282.0</ele><time>2026-04-18T10:31:06.073Z</time></trkpt><trkpt lat="43.423555" lon="11.2762033"><ele>281.0</ele><time>2026-04-18T10:31:07.073Z</time></trkpt><trkpt lat="43.4234567" lon="11.276305"><ele>281.0</ele><time>2026-04-18T10:31:08.074Z</time></trkpt><trkpt lat="43.4233517" lon="11.2764033"><ele>281.0</ele><time>2026-04-18T10:31:09.073Z</time></trkpt><trkpt lat="43.42324" lon="11.2765083"><ele>281.0</ele><time>2026-04-18T10:31:10.074Z</time></trkpt><trkpt lat="43.4231117" lon="11.27662"><ele>281.0</ele><time>2026-04-18T10:31:11.073Z</time></trkpt><trkpt lat="43.4229767" lon="11.2767383"><ele>282.6666666666667</ele><time>2026-04-18T10:31:12.073Z</time></trkpt><trkpt lat="43.422825" lon="11.2768567"><ele>284.3333333333333</ele><time>2026-04-18T10:31:13.073Z</time></trkpt><trkpt lat="43.42269" lon="11.2769767"><ele>286.0</ele><time>2026-04-18T10:31:14.073Z</time></trkpt><trkpt lat="43.4225617" lon="11.2770733"><ele>286.0</ele><time>2026-04-18T10:31:15.074Z</time></trkpt><trkpt lat="43.4224417" lon="11.2771733"><ele>286.0</ele><time>2026-04-18T10:31:16.074Z</time></trkpt><trkpt lat="43.422335" lon="11.277265"><ele>286.0</ele><time>2026-04-18T10:31:17.073Z</time></trkpt><trkpt lat="43.42225" lon="11.277345"><ele>286.0</ele><time>2026-04-18T10:31:18.073Z</time></trkpt><trkpt lat="43.42218" lon="11.2774433"><ele>287.16666666666663</ele><time>2026-04-18T10:31:19.073Z</time></trkpt><trkpt lat="43.4221317" lon="11.2775667"><ele>288.3333333333333</ele><time>2026-04-18T10:31:20.074Z</time></trkpt><trkpt lat="43.4220817" lon="11.2776733"><ele>289.5</ele><time>2026-04-18T10:31:21.073Z</time></trkpt><trkpt lat="43.422015" lon="11.27774"><ele>290.6666666666667</ele><time>2026-04-18T10:31:22.074Z</time></trkpt><trkpt lat="43.42194" lon="11.2777767"><ele>291.83333333333337</ele><time>2026-04-18T10:31:23.074Z</time></trkpt><trkpt lat="43.4218567" lon="11.2777767"><ele>293.0</ele><time>2026-04-18T10:31:24.073Z</time></trkpt><trkpt lat="43.421745" lon="11.277755"><ele>293.0</ele><time>2026-04-18T10:31:25.074Z</time></trkpt><trkpt lat="43.421625" lon="11.2777583"><ele>293.0</ele><time>2026-04-18T10:31:26.073Z</time></trkpt><trkpt lat="43.4215233" lon="11.2777867"><ele>293.0</ele><time>2026-04-18T10:31:27.073Z</time></trkpt><trkpt lat="43.4214317" lon="11.2778533"><ele>293.0</ele><time>2026-04-18T10:31:28.073Z</time></trkpt><trkpt lat="43.4213367" lon="11.2779633"><ele>293.25</ele><time>2026-04-18T10:31:29.073Z</time></trkpt><trkpt lat="43.421235" lon="11.2780833"><ele>293.5</ele><time>2026-04-18T10:31:30.073Z</time></trkpt><trkpt lat="43.4211367" lon="11.27821"><ele>293.75</ele><time>2026-04-18T10:31:31.073Z</time></trkpt><trkpt lat="43.4210433" lon="11.278315"><ele>294.0</ele><time>2026-04-18T10:31:32.074Z</time></trkpt><trkpt lat="43.420955" lon="11.2784283"><ele>294.0</ele><time>2026-04-18T10:31:33.073Z</time></trkpt><trkpt lat="43.4208717" lon="11.2785533"><ele>294.0</ele><time>2026-04-18T10:31:34.073Z</time></trkpt><trkpt lat="43.4207917" lon="11.2786783"><ele>294.0</ele><time>2026-04-18T10:31:35.073Z</time></trkpt><trkpt lat="43.4207167" lon="11.2787867"><ele>294.0</ele><time>2026-04-18T10:31:36.074Z</time></trkpt><trkpt lat="43.4206467" lon="11.2788967"><ele>292.59999999999997</ele><time>2026-04-18T10:31:37.073Z</time></trkpt><trkpt lat="43.4205817" lon="11.2790083"><ele>291.2</ele><time>2026-04-18T10:31:38.074Z</time></trkpt><trkpt lat="43.4205381" lon="11.2791343"><ele>289.79999999999995</ele><time>2026-04-18T10:31:39.073Z</time></trkpt><trkpt lat="43.4205048" lon="11.2792614"><ele>288.4</ele><time>2026-04-18T10:31:40.073Z</time></trkpt><trkpt lat="43.4204711" lon="11.2793891"><ele>287.0</ele><time>2026-04-18T10:31:41.073Z</time></trkpt><trkpt lat="43.4204149" lon="11.279505"><ele>287.0</ele><time>2026-04-18T10:31:42.073Z</time></trkpt><trkpt lat="43.4203335" lon="11.2795974"><ele>287.0</ele><time>2026-04-18T10:31:43.073Z</time></trkpt><trkpt lat="43.4202342" lon="11.2796743"><ele>287.0</ele><time>2026-04-18T10:31:44.074Z</time></trkpt><trkpt lat="43.420115" lon="11.2797456"><ele>287.0</ele><time>2026-04-18T10:31:45.073Z</time></trkpt><trkpt lat="43.419992" lon="11.2798289"><ele>286.25</ele><time>2026-04-18T10:31:46.073Z</time></trkpt><trkpt lat="43.4198747" lon="11.2799187"><ele>285.5</ele><time>2026-04-18T10:31:47.073Z</time></trkpt><trkpt lat="43.4197573" lon="11.2800251"><ele>284.75</ele><time>2026-04-18T10:31:48.074Z</time></trkpt><trkpt lat="43.4196429" lon="11.2801462"><ele>284.0</ele><time>2026-04-18T10:31:49.074Z</time></trkpt><trkpt lat="43.4195431" lon="11.280266"><ele>284.0</ele><time>2026-04-18T10:31:50.074Z</time></trkpt><trkpt lat="43.4194511" lon="11.2803782"><ele>284.0</ele><time>2026-04-18T10:31:51.073Z</time></trkpt><trkpt lat="43.4193608" lon="11.2804923"><ele>284.0</ele><time>2026-04-18T10:31:52.073Z</time></trkpt><trkpt lat="43.4192822" lon="11.280595"><ele>284.0</ele><time>2026-04-18T10:31:53.074Z</time></trkpt><trkpt lat="43.4192059" lon="11.2807"><ele>282.2</ele><time>2026-04-18T10:31:54.074Z</time></trkpt><trkpt lat="43.4191307" lon="11.2808033"><ele>280.4</ele><time>2026-04-18T10:31:55.074Z</time></trkpt><trkpt lat="43.4190529" lon="11.280909"><ele>278.6</ele><time>2026-04-18T10:31:56.073Z</time></trkpt><trkpt lat="43.4189801" lon="11.2810031"><ele>276.8</ele><time>2026-04-18T10:31:57.073Z</time></trkpt><trkpt lat="43.4189118" lon="11.2810936"><ele>275.0</ele><time>2026-04-18T10:31:58.073Z</time></trkpt><trkpt lat="43.4188497" lon="11.2811779"><ele>274.83333333333337</ele><time>2026-04-18T10:31:59.073Z</time></trkpt><trkpt lat="43.4187869" lon="11.2812569"><ele>274.6666666666667</ele><time>2026-04-18T10:32:00.073Z</time></trkpt><trkpt lat="43.4187228" lon="11.281331"><ele>274.5</ele><time>2026-04-18T10:32:01.074Z</time></trkpt><trkpt lat="43.4186507" lon="11.281393"><ele>274.3333333333333</ele><time>2026-04-18T10:32:02.074Z</time></trkpt><trkpt lat="43.4185737" lon="11.2814363"><ele>274.16666666666663</ele><time>2026-04-18T10:32:03.073Z</time></trkpt><trkpt lat="43.4184765" lon="11.2814478"><ele>274.0</ele><time>2026-04-18T10:32:04.073Z</time></trkpt><trkpt lat="43.4183551" lon="11.2814147"><ele>274.0</ele><time>2026-04-18T10:32:05.074Z</time></trkpt><trkpt lat="43.4182353" lon="11.2813505"><ele>274.0</ele><time>2026-04-18T10:32:06.073Z</time></trkpt><trkpt lat="43.4181307" lon="11.2812919"><ele>274.0</ele><time>2026-04-18T10:32:07.074Z</time></trkpt><trkpt lat="43.4180286" lon="11.2812594"><ele>274.0</ele><time>2026-04-18T10:32:08.073Z</time></trkpt><trkpt lat="43.4179335" lon="11.2812587"><ele>274.0</ele><time>2026-04-18T10:32:09.074Z</time></trkpt><trkpt lat="43.4178334" lon="11.2813003"><ele>273.0</ele><time>2026-04-18T10:32:10.073Z</time></trkpt><trkpt lat="43.4177308" lon="11.2813685"><ele>272.0</ele><time>2026-04-18T10:32:11.073Z</time></trkpt><trkpt lat="43.41762" lon="11.28145"><ele>271.0</ele><time>2026-04-18T10:32:12.073Z</time></trkpt><trkpt lat="43.4175083" lon="11.2815267"><ele>270.0</ele><time>2026-04-18T10:32:13.073Z</time></trkpt><trkpt lat="43.4174" lon="11.281605"><ele>268.5</ele><time>2026-04-18T10:32:14.073Z</time></trkpt><trkpt lat="43.417295" lon="11.281685"><ele>267.0</ele><time>2026-04-18T10:32:15.073Z</time></trkpt><trkpt lat="43.4171833" lon="11.28176"><ele>265.5</ele><time>2026-04-18T10:32:16.073Z</time></trkpt><trkpt lat="43.417065" lon="11.2818183"><ele>264.0</ele><time>2026-04-18T10:32:17.073Z</time></trkpt><trkpt lat="43.4169433" lon="11.2818567"><ele>263.59999999999997</ele><time>2026-04-18T10:32:18.074Z</time></trkpt><trkpt lat="43.4168317" lon="11.2818883"><ele>263.2</ele><time>2026-04-18T10:32:19.073Z</time></trkpt><trkpt lat="43.4167267" lon="11.2819183"><ele>262.79999999999995</ele><time>2026-04-18T10:32:20.073Z</time></trkpt><trkpt lat="43.41663" lon="11.281955"><ele>262.4</ele><time>2026-04-18T10:32:21.074Z</time></trkpt><trkpt lat="43.4165317" lon="11.2819917"><ele>262.0</ele><time>2026-04-18T10:32:22.074Z</time></trkpt><trkpt lat="43.416445" lon="11.2820267"><ele>262.0</ele><time>2026-04-18T10:32:23.074Z</time></trkpt><trkpt lat="43.4163633" lon="11.2820583"><ele>262.0</ele><time>2026-04-18T10:32:24.073Z</time></trkpt><trkpt lat="43.4162933" lon="11.2821033"><ele>262.0</ele><time>2026-04-18T10:32:25.074Z</time></trkpt><trkpt lat="43.4162433" lon="11.282175"><ele>262.0</ele><time>2026-04-18T10:32:26.073Z</time></trkpt><trkpt lat="43.41622" lon="11.28227"><ele>262.0</ele><time>2026-04-18T10:32:27.073Z</time></trkpt><trkpt lat="43.416215" lon="11.282375"><ele>262.0</ele><time>2026-04-18T10:32:28.073Z</time></trkpt><trkpt lat="43.4162" lon="11.28248"><ele>261.8</ele><time>2026-04-18T10:32:29.074Z</time></trkpt><trkpt lat="43.4161617" lon="11.2825733"><ele>261.6</ele><time>2026-04-18T10:32:30.073Z</time></trkpt><trkpt lat="43.4160967" lon="11.2826567"><ele>261.40000000000003</ele><time>2026-04-18T10:32:31.074Z</time></trkpt><trkpt lat="43.4160167" lon="11.2827367"><ele>261.2</ele><time>2026-04-18T10:32:32.073Z</time></trkpt><trkpt lat="43.4159267" lon="11.2828317"><ele>261.0</ele><time>2026-04-18T10:32:33.073Z</time></trkpt><trkpt lat="43.41584" lon="11.28296"><ele>261.0</ele><time>2026-04-18T10:32:34.074Z</time></trkpt><trkpt lat="43.4157633" lon="11.2830917"><ele>261.0</ele><time>2026-04-18T10:32:35.073Z</time></trkpt><trkpt lat="43.4156883" lon="11.2832267"><ele>261.0</ele><time>2026-04-18T10:32:36.074Z</time></trkpt><trkpt lat="43.4156233" lon="11.283355"><ele>261.0</ele><time>2026-04-18T10:32:37.074Z</time></trkpt><trkpt lat="43.415555" lon="11.2834867"><ele>263.25</ele><time>2026-04-18T10:32:38.074Z</time></trkpt><trkpt lat="43.4154867" lon="11.28362"><ele>265.5</ele><time>2026-04-18T10:32:39.073Z</time></trkpt><trkpt lat="43.4154183" lon="11.2837533"><ele>267.75</ele><time>2026-04-18T10:32:40.073Z</time></trkpt><trkpt lat="43.4153467" lon="11.2838833"><ele>270.0</ele><time>2026-04-18T10:32:41.073Z</time></trkpt><trkpt lat="43.4152783" lon="11.284015"><ele>271.4</ele><time>2026-04-18T10:32:42.074Z</time></trkpt><trkpt lat="43.4152133" lon="11.2841417"><ele>272.8</ele><time>2026-04-18T10:32:43.073Z</time></trkpt><trkpt lat="43.4151583" lon="11.284265"><ele>274.2</ele><time>2026-04-18T10:32:44.073Z</time></trkpt><trkpt lat="43.4150983" lon="11.2843933"><ele>275.6</ele><time>2026-04-18T10:32:45.074Z</time></trkpt><trkpt lat="43.4150367" lon="11.2845117"><ele>277.0</ele><time>2026-04-18T10:32:46.073Z</time></trkpt><trkpt lat="43.41496" lon="11.2846183"><ele>277.0</ele><time>2026-04-18T10:32:47.073Z</time></trkpt><trkpt lat="43.41488" lon="11.2847167"><ele>277.0</ele><time>2026-04-18T10:32:48.073Z</time></trkpt><trkpt lat="43.4148" lon="11.2848217"><ele>277.0</ele><time>2026-04-18T10:32:49.074Z</time></trkpt><trkpt lat="43.4147117" lon="11.2848983"><ele>277.0</ele><time>2026-04-18T10:32:50.074Z</time></trkpt><trkpt lat="43.414625" lon="11.2849633"><ele>277.0</ele><time>2026-04-18T10:32:51.073Z</time></trkpt><trkpt lat="43.4145233" lon="11.2850467"><ele>277.0</ele><time>2026-04-18T10:32:52.073Z</time></trkpt><trkpt lat="43.4144183" lon="11.28514"><ele>277.0</ele><time>2026-04-18T10:32:53.073Z</time></trkpt><trkpt lat="43.4143283" lon="11.28524"><ele>277.0</ele><time>2026-04-18T10:32:54.074Z</time></trkpt><trkpt lat="43.4142333" lon="11.2853567"><ele>277.0</ele><time>2026-04-18T10:32:55.073Z</time></trkpt><trkpt lat="43.4141517" lon="11.285475"><ele>277.0</ele><time>2026-04-18T10:32:56.073Z</time></trkpt><trkpt lat="43.4140667" lon="11.2855933"><ele>277.0</ele><time>2026-04-18T10:32:57.073Z</time></trkpt><trkpt lat="43.4139967" lon="11.2857183"><ele>277.0</ele><time>2026-04-18T10:32:58.073Z</time></trkpt><trkpt lat="43.41393" lon="11.2858533"><ele>277.0</ele><time>2026-04-18T10:32:59.073Z</time></trkpt><trkpt lat="43.4138683" lon="11.285995"><ele>275.75</ele><time>2026-04-18T10:33:00.073Z</time></trkpt><trkpt lat="43.4138117" lon="11.2861483"><ele>274.5</ele><time>2026-04-18T10:33:01.073Z</time></trkpt><trkpt lat="43.4137683" lon="11.2862983"><ele>273.25</ele><time>2026-04-18T10:33:02.074Z</time></trkpt><trkpt lat="43.4137217" lon="11.2864633"><ele>272.0</ele><time>2026-04-18T10:33:03.073Z</time></trkpt><trkpt lat="43.4136733" lon="11.2866267"><ele>272.0</ele><time>2026-04-18T10:33:04.073Z</time></trkpt><trkpt lat="43.41363" lon="11.2867767"><ele>272.0</ele><time>2026-04-18T10:33:05.073Z</time></trkpt><trkpt lat="43.4135883" lon="11.2869167"><ele>272.0</ele><time>2026-04-18T10:33:06.074Z</time></trkpt><trkpt lat="43.4135517" lon="11.2870517"><ele>272.0</ele><time>2026-04-18T10:33:07.073Z</time></trkpt><trkpt lat="43.41351" lon="11.28718"><ele>272.0</ele><time>2026-04-18T10:33:08.073Z</time></trkpt><trkpt lat="43.4134633" lon="11.2872967"><ele>272.5</ele><time>2026-04-18T10:33:09.074Z</time></trkpt><trkpt lat="43.4133933" lon="11.2874033"><ele>273.0</ele><time>2026-04-18T10:33:10.074Z</time></trkpt><trkpt lat="43.4132867" lon="11.2874817"><ele>273.5</ele><time>2026-04-18T10:33:11.073Z</time></trkpt><trkpt lat="43.4131717" lon="11.2875417"><ele>274.0</ele><time>2026-04-18T10:33:12.073Z</time></trkpt><trkpt lat="43.4130417" lon="11.2875933"><ele>274.0</ele><time>2026-04-18T10:33:13.074Z</time></trkpt><trkpt lat="43.4129217" lon="11.2876367"><ele>274.0</ele><time>2026-04-18T10:33:14.073Z</time></trkpt><trkpt lat="43.4127967" lon="11.28766"><ele>274.0</ele><time>2026-04-18T10:33:15.073Z</time></trkpt><trkpt lat="43.412655" lon="11.2876417"><ele>274.0</ele><time>2026-04-18T10:33:16.074Z</time></trkpt><trkpt lat="43.412505" lon="11.2876133"><ele>274.0</ele><time>2026-04-18T10:33:17.074Z</time></trkpt><trkpt lat="43.4123783" lon="11.2876"><ele>274.0</ele><time>2026-04-18T10:33:18.073Z</time></trkpt><trkpt lat="43.41226" lon="11.2875983"><ele>274.0</ele><time>2026-04-18T10:33:19.074Z</time></trkpt><trkpt lat="43.4121517" lon="11.2876267"><ele>274.0</ele><time>2026-04-18T10:33:20.073Z</time></trkpt><trkpt lat="43.412045" lon="11.2876717"><ele>274.0</ele><time>2026-04-18T10:33:21.074Z</time></trkpt><trkpt lat="43.41193" lon="11.2877167"><ele>274.0</ele><time>2026-04-18T10:33:22.074Z</time></trkpt><trkpt lat="43.41182" lon="11.2877767"><ele>274.0</ele><time>2026-04-18T10:33:23.073Z</time></trkpt><trkpt lat="43.4117083" lon="11.28785"><ele>274.0</ele><time>2026-04-18T10:33:24.073Z</time></trkpt><trkpt lat="43.4116017" lon="11.2879333"><ele>274.0</ele><time>2026-04-18T10:33:25.074Z</time></trkpt><trkpt lat="43.4115083" lon="11.2880217"><ele>274.0</ele><time>2026-04-18T10:33:26.073Z</time></trkpt><trkpt lat="43.4114183" lon="11.2881317"><ele>274.0</ele><time>2026-04-18T10:33:27.073Z</time></trkpt><trkpt lat="43.41134" lon="11.2882583"><ele>274.0</ele><time>2026-04-18T10:33:28.073Z</time></trkpt><trkpt lat="43.4112583" lon="11.288415"><ele>275.0</ele><time>2026-04-18T10:33:29.074Z</time></trkpt><trkpt lat="43.4111933" lon="11.2885717"><ele>276.0</ele><time>2026-04-18T10:33:30.073Z</time></trkpt><trkpt lat="43.4111383" lon="11.2887133"><ele>277.0</ele><time>2026-04-18T10:33:31.074Z</time></trkpt><trkpt lat="43.411085" lon="11.2888433"><ele>278.0</ele><time>2026-04-18T10:33:32.074Z</time></trkpt><trkpt lat="43.411025" lon="11.2889567"><ele>278.8</ele><time>2026-04-18T10:33:33.073Z</time></trkpt><trkpt lat="43.4109533" lon="11.289045"><ele>279.6</ele><time>2026-04-18T10:33:34.073Z</time></trkpt><trkpt lat="43.41087" lon="11.2891083"><ele>280.4</ele><time>2026-04-18T10:33:35.074Z</time></trkpt><trkpt lat="43.4107633" lon="11.2891383"><ele>281.2</ele><time>2026-04-18T10:33:36.073Z</time></trkpt><trkpt lat="43.410635" lon="11.289165"><ele>282.0</ele><time>2026-04-18T10:33:37.074Z</time></trkpt><trkpt lat="43.4105017" lon="11.2891933"><ele>282.5</ele><time>2026-04-18T10:33:38.074Z</time></trkpt><trkpt lat="43.410365" lon="11.2892267"><ele>283.0</ele><time>2026-04-18T10:33:39.074Z</time></trkpt><trkpt lat="43.4102383" lon="11.2892633"><ele>283.5</ele><time>2026-04-18T10:33:40.073Z</time></trkpt><trkpt lat="43.41012" lon="11.289295"><ele>284.0</ele><time>2026-04-18T10:33:41.073Z</time></trkpt><trkpt lat="43.410005" lon="11.289335"><ele>284.0</ele><time>2026-04-18T10:33:42.073Z</time></trkpt><trkpt lat="43.4098967" lon="11.289375"><ele>284.0</ele><time>2026-04-18T10:33:43.074Z</time></trkpt><trkpt lat="43.4097933" lon="11.28942"><ele>284.0</ele><time>2026-04-18T10:33:44.073Z</time></trkpt><trkpt lat="43.40969" lon="11.2894683"><ele>284.0</ele><time>2026-04-18T10:33:45.073Z</time></trkpt><trkpt lat="43.4095817" lon="11.2895333"><ele>284.0</ele><time>2026-04-18T10:33:46.073Z</time></trkpt><trkpt lat="43.4094733" lon="11.2895883"><ele>285.0</ele><time>2026-04-18T10:33:47.074Z</time></trkpt><trkpt lat="43.4093683" lon="11.28964"><ele>286.0</ele><time>2026-04-18T10:33:48.073Z</time></trkpt><trkpt lat="43.4092567" lon="11.289685"><ele>287.0</ele><time>2026-04-18T10:33:49.074Z</time></trkpt><trkpt lat="43.4091583" lon="11.2897183"><ele>288.0</ele><time>2026-04-18T10:33:50.073Z</time></trkpt><trkpt lat="43.4090683" lon="11.2897533"><ele>289.0</ele><time>2026-04-18T10:33:51.073Z</time></trkpt><trkpt lat="43.408975" lon="11.2897933"><ele>289.66666666666663</ele><time>2026-04-18T10:33:52.074Z</time></trkpt><trkpt lat="43.4088967" lon="11.28984"><ele>290.3333333333333</ele><time>2026-04-18T10:33:53.073Z</time></trkpt><trkpt lat="43.4088267" lon="11.2898933"><ele>291.0</ele><time>2026-04-18T10:33:54.073Z</time></trkpt><trkpt lat="43.4087633" lon="11.28996"><ele>291.6666666666667</ele><time>2026-04-18T10:33:55.074Z</time></trkpt><trkpt lat="43.4087067" lon="11.2900217"><ele>292.33333333333337</ele><time>2026-04-18T10:33:56.073Z</time></trkpt><trkpt lat="43.408645" lon="11.2900783"><ele>293.0</ele><time>2026-04-18T10:33:57.073Z</time></trkpt><trkpt lat="43.408545" lon="11.2901317"><ele>293.2</ele><time>2026-04-18T10:33:59.073Z</time></trkpt><trkpt lat="43.4084767" lon="11.2901917"><ele>293.4</ele><time>2026-04-18T10:34:11.072Z</time></trkpt><trkpt lat="43.408465" lon="11.2903333"><ele>293.59999999999997</ele><time>2026-04-18T10:34:13.072Z</time></trkpt><trkpt lat="43.4084917" lon="11.2904333"><ele>293.8</ele><time>2026-04-18T10:34:14.072Z</time></trkpt><trkpt lat="43.4085383" lon="11.2905367"><ele>294.0</ele><time>2026-04-18T10:34:15.073Z</time></trkpt><trkpt lat="43.40861" lon="11.290655"><ele>294.0</ele><time>2026-04-18T10:34:16.073Z</time></trkpt><trkpt lat="43.4087033" lon="11.2907583"><ele>294.0</ele><time>2026-04-18T10:34:17.073Z</time></trkpt><trkpt lat="43.4088133" lon="11.2908583"><ele>294.0</ele><time>2026-04-18T10:34:18.073Z</time></trkpt><trkpt lat="43.40892" lon="11.290955"><ele>294.0</ele><time>2026-04-18T10:34:19.073Z</time></trkpt><trkpt lat="43.4090283" lon="11.2910517"><ele>295.25</ele><time>2026-04-18T10:34:20.072Z</time></trkpt><trkpt lat="43.409135" lon="11.2911567"><ele>296.5</ele><time>2026-04-18T10:34:21.073Z</time></trkpt><trkpt lat="43.4092417" lon="11.2912733"><ele>297.75</ele><time>2026-04-18T10:34:22.072Z</time></trkpt><trkpt lat="43.40935" lon="11.2913983"><ele>299.0</ele><time>2026-04-18T10:34:23.072Z</time></trkpt><trkpt lat="43.4094567" lon="11.2915417"><ele>301.0</ele><time>2026-04-18T10:34:24.073Z</time></trkpt><trkpt lat="43.4095667" lon="11.2916967"><ele>303.0</ele><time>2026-04-18T10:34:25.073Z</time></trkpt><trkpt lat="43.4096783" lon="11.2918567"><ele>305.0</ele><time>2026-04-18T10:34:26.072Z</time></trkpt><trkpt lat="43.4097883" lon="11.2919817"><ele>306.75</ele><time>2026-04-18T10:34:27.072Z</time></trkpt><trkpt lat="43.4098917" lon="11.292095"><ele>308.5</ele><time>2026-04-18T10:34:28.073Z</time></trkpt><trkpt lat="43.4100133" lon="11.2921983"><ele>310.25</ele><time>2026-04-18T10:34:29.072Z</time></trkpt><trkpt lat="43.4101533" lon="11.2923"><ele>312.0</ele><time>2026-04-18T10:34:30.072Z</time></trkpt><trkpt lat="43.4103" lon="11.29241"><ele>312.0</ele><time>2026-04-18T10:34:31.073Z</time></trkpt><trkpt lat="43.4104483" lon="11.2925233"><ele>312.0</ele><time>2026-04-18T10:34:32.073Z</time></trkpt><trkpt lat="43.4105983" lon="11.2926333"><ele>312.0</ele><time>2026-04-18T10:34:33.072Z</time></trkpt><trkpt lat="43.410755" lon="11.2927433"><ele>311.3333333333333</ele><time>2026-04-18T10:34:34.072Z</time></trkpt><trkpt lat="43.41092" lon="11.2928517"><ele>310.66666666666663</ele><time>2026-04-18T10:34:35.072Z</time></trkpt><trkpt lat="43.4110833" lon="11.29295"><ele>310.0</ele><time>2026-04-18T10:34:36.072Z</time></trkpt><trkpt lat="43.4112617" lon="11.293"><ele>310.0</ele><time>2026-04-18T10:34:37.073Z</time></trkpt><trkpt lat="43.4114517" lon="11.2930133"><ele>310.0</ele><time>2026-04-18T10:34:38.073Z</time></trkpt><trkpt lat="43.4116483" lon="11.2929933"><ele>310.0</ele><time>2026-04-18T10:34:39.073Z</time></trkpt><trkpt lat="43.4118483" lon="11.2929583"><ele>310.0</ele><time>2026-04-18T10:34:40.072Z</time></trkpt><trkpt lat="43.4120467" lon="11.2929167"><ele>310.0</ele><time>2026-04-18T10:34:41.072Z</time></trkpt><trkpt lat="43.4122533" lon="11.2928767"><ele>310.0</ele><time>2026-04-18T10:34:42.072Z</time></trkpt><trkpt lat="43.4124517" lon="11.2928467"><ele>312.0</ele><time>2026-04-18T10:34:43.072Z</time></trkpt><trkpt lat="43.41265" lon="11.29282"><ele>314.0</ele><time>2026-04-18T10:34:44.072Z</time></trkpt><trkpt lat="43.41285" lon="11.29279"><ele>316.0</ele><time>2026-04-18T10:34:45.072Z</time></trkpt><trkpt lat="43.41305" lon="11.2927683"><ele>318.0</ele><time>2026-04-18T10:34:46.073Z</time></trkpt><trkpt lat="43.4132467" lon="11.2927483"><ele>320.0</ele><time>2026-04-18T10:34:47.073Z</time></trkpt><trkpt lat="43.4134433" lon="11.2927367"><ele>322.0</ele><time>2026-04-18T10:34:48.072Z</time></trkpt><trkpt lat="43.4136333" lon="11.2927383"><ele>322.3333333333333</ele><time>2026-04-18T10:34:49.072Z</time></trkpt><trkpt lat="43.4138317" lon="11.292745"><ele>322.6666666666667</ele><time>2026-04-18T10:34:50.072Z</time></trkpt><trkpt lat="43.414025" lon="11.2927617"><ele>323.0</ele><time>2026-04-18T10:34:51.073Z</time></trkpt><trkpt lat="43.41422" lon="11.29278"><ele>323.0</ele><time>2026-04-18T10:34:52.072Z</time></trkpt><trkpt lat="43.414415" lon="11.2927967"><ele>323.0</ele><time>2026-04-18T10:34:53.072Z</time></trkpt><trkpt lat="43.4146117" lon="11.2928083"><ele>323.0</ele><time>2026-04-18T10:34:54.073Z</time></trkpt><trkpt lat="43.4147967" lon="11.29284"><ele>323.0</ele><time>2026-04-18T10:34:55.073Z</time></trkpt><trkpt lat="43.4149783" lon="11.2928967"><ele>323.0</ele><time>2026-04-18T10:34:56.073Z</time></trkpt><trkpt lat="43.41516" lon="11.292975"><ele>323.0</ele><time>2026-04-18T10:34:57.072Z</time></trkpt><trkpt lat="43.41534" lon="11.2930683"><ele>325.33333333333337</ele><time>2026-04-18T10:34:58.072Z</time></trkpt><trkpt lat="43.4155183" lon="11.2931767"><ele>327.6666666666667</ele><time>2026-04-18T10:34:59.072Z</time></trkpt><trkpt lat="43.4156917" lon="11.2932917"><ele>330.0</ele><time>2026-04-18T10:35:00.073Z</time></trkpt><trkpt lat="43.4158567" lon="11.2934133"><ele>330.0</ele><time>2026-04-18T10:35:01.072Z</time></trkpt><trkpt lat="43.416005" lon="11.2935283"><ele>330.0</ele><time>2026-04-18T10:35:02.072Z</time></trkpt><trkpt lat="43.4161333" lon="11.2936583"><ele>330.0</ele><time>2026-04-18T10:35:03.072Z</time></trkpt><trkpt lat="43.4162383" lon="11.2938067"><ele>332.6666666666667</ele><time>2026-04-18T10:35:04.073Z</time></trkpt><trkpt lat="43.4163283" lon="11.2939867"><ele>335.33333333333337</ele><time>2026-04-18T10:35:05.073Z</time></trkpt><trkpt lat="43.4164" lon="11.2941867"><ele>338.0</ele><time>2026-04-18T10:35:06.072Z</time></trkpt><trkpt lat="43.416455" lon="11.294405"><ele>338.0</ele><time>2026-04-18T10:35:07.072Z</time></trkpt><trkpt lat="43.4165033" lon="11.2946333"><ele>338.0</ele><time>2026-04-18T10:35:08.072Z</time></trkpt><trkpt lat="43.41655" lon="11.2948667"><ele>338.0</ele><time>2026-04-18T10:35:09.072Z</time></trkpt><trkpt lat="43.4165933" lon="11.2950767"><ele>338.0</ele><time>2026-04-18T10:35:10.072Z</time></trkpt><trkpt lat="43.4166417" lon="11.2952817"><ele>338.0</ele><time>2026-04-18T10:35:11.072Z</time></trkpt><trkpt lat="43.4166967" lon="11.295475"><ele>338.0</ele><time>2026-04-18T10:35:12.072Z</time></trkpt><trkpt lat="43.4167717" lon="11.2956467"><ele>338.0</ele><time>2026-04-18T10:35:13.072Z</time></trkpt><trkpt lat="43.416865" lon="11.2958017"><ele>338.0</ele><time>2026-04-18T10:35:14.073Z</time></trkpt><trkpt lat="43.4169717" lon="11.2959267"><ele>338.0</ele><time>2026-04-18T10:35:15.072Z</time></trkpt><trkpt lat="43.4170933" lon="11.2960267"><ele>338.0</ele><time>2026-04-18T10:35:16.072Z</time></trkpt><trkpt lat="43.4172233" lon="11.2961083"><ele>340.5</ele><time>2026-04-18T10:35:17.073Z</time></trkpt><trkpt lat="43.417355" lon="11.296175"><ele>343.0</ele><time>2026-04-18T10:35:18.072Z</time></trkpt><trkpt lat="43.4174833" lon="11.2962267"><ele>345.5</ele><time>2026-04-18T10:35:19.072Z</time></trkpt><trkpt lat="43.41762" lon="11.2962667"><ele>348.0</ele><time>2026-04-18T10:35:20.073Z</time></trkpt><trkpt lat="43.417745" lon="11.2963233"><ele>348.0</ele><time>2026-04-18T10:35:21.073Z</time></trkpt><trkpt lat="43.4178683" lon="11.29639"><ele>348.0</ele><time>2026-04-18T10:35:22.072Z</time></trkpt><trkpt lat="43.418" lon="11.2964983"><ele>348.0</ele><time>2026-04-18T10:35:23.072Z</time></trkpt><trkpt lat="43.4181283" lon="11.2966167"><ele>348.0</ele><time>2026-04-18T10:35:24.073Z</time></trkpt><trkpt lat="43.4182667" lon="11.2967267"><ele>349.0</ele><time>2026-04-18T10:35:25.072Z</time></trkpt><trkpt lat="43.4184" lon="11.296835"><ele>350.0</ele><time>2026-04-18T10:35:26.072Z</time></trkpt><trkpt lat="43.418535" lon="11.29693"><ele>351.0</ele><time>2026-04-18T10:35:27.073Z</time></trkpt><trkpt lat="43.4186767" lon="11.2970183"><ele>355.0</ele><time>2026-04-18T10:35:28.073Z</time></trkpt><trkpt lat="43.4188217" lon="11.2970883"><ele>359.0</ele><time>2026-04-18T10:35:29.073Z</time></trkpt><trkpt lat="43.4189683" lon="11.2971467"><ele>363.0</ele><time>2026-04-18T10:35:30.073Z</time></trkpt><trkpt lat="43.41912" lon="11.2971783"><ele>363.0</ele><time>2026-04-18T10:35:31.072Z</time></trkpt><trkpt lat="43.4192667" lon="11.2971867"><ele>363.0</ele><time>2026-04-18T10:35:32.072Z</time></trkpt><trkpt lat="43.41942" lon="11.2971967"><ele>363.0</ele><time>2026-04-18T10:35:33.073Z</time></trkpt><trkpt lat="43.419565" lon="11.29723"><ele>363.0</ele><time>2026-04-18T10:35:34.073Z</time></trkpt><trkpt lat="43.419715" lon="11.2972633"><ele>363.5</ele><time>2026-04-18T10:35:35.072Z</time></trkpt><trkpt lat="43.4198833" lon="11.2972933"><ele>364.0</ele><time>2026-04-18T10:35:36.072Z</time></trkpt><trkpt lat="43.4200217" lon="11.29734"><ele>364.5</ele><time>2026-04-18T10:35:37.072Z</time></trkpt><trkpt lat="43.42015" lon="11.297365"><ele>365.0</ele><time>2026-04-18T10:35:38.073Z</time></trkpt><trkpt lat="43.4202717" lon="11.2973767"><ele>365.0</ele><time>2026-04-18T10:35:39.072Z</time></trkpt><trkpt lat="43.4203933" lon="11.2974083"><ele>365.0</ele><time>2026-04-18T10:35:40.072Z</time></trkpt><trkpt lat="43.420505" lon="11.2975"><ele>365.0</ele><time>2026-04-18T10:35:41.072Z</time></trkpt><trkpt lat="43.4206233" lon="11.2976267"><ele>365.0</ele><time>2026-04-18T10:35:42.072Z</time></trkpt><trkpt lat="43.420735" lon="11.2977417"><ele>366.0</ele><time>2026-04-18T10:35:43.072Z</time></trkpt><trkpt lat="43.42086" lon="11.29784"><ele>367.0</ele><time>2026-04-18T10:35:44.073Z</time></trkpt><trkpt lat="43.4209883" lon="11.297925"><ele>368.0</ele><time>2026-04-18T10:35:45.072Z</time></trkpt><trkpt lat="43.4211217" lon="11.297995"><ele>369.0</ele><time>2026-04-18T10:35:46.072Z</time></trkpt><trkpt lat="43.42125" lon="11.2980517"><ele>373.0</ele><time>2026-04-18T10:35:47.072Z</time></trkpt><trkpt lat="43.4213933" lon="11.2981117"><ele>377.0</ele><time>2026-04-18T10:35:48.072Z</time></trkpt><trkpt lat="43.421535" lon="11.2981717"><ele>381.0</ele><time>2026-04-18T10:35:49.072Z</time></trkpt><trkpt lat="43.4216783" lon="11.298235"><ele>385.0</ele><time>2026-04-18T10:35:50.073Z</time></trkpt><trkpt lat="43.4218267" lon="11.2982933"><ele>385.0</ele><time>2026-04-18T10:35:51.072Z</time></trkpt><trkpt lat="43.421975" lon="11.2983617"><ele>385.0</ele><time>2026-04-18T10:35:52.072Z</time></trkpt><trkpt lat="43.422125" lon="11.298425"><ele>385.0</ele><time>2026-04-18T10:35:53.073Z</time></trkpt><trkpt lat="43.4222683" lon="11.2985017"><ele>388.33333333333337</ele><time>2026-04-18T10:35:54.072Z</time></trkpt><trkpt lat="43.4224" lon="11.298605"><ele>391.66666666666663</ele><time>2026-04-18T10:35:55.073Z</time></trkpt><trkpt lat="43.4225167" lon="11.2987533"><ele>395.0</ele><time>2026-04-18T10:35:56.073Z</time></trkpt><trkpt lat="43.42263" lon="11.2989167"><ele>395.66666666666663</ele><time>2026-04-18T10:35:57.072Z</time></trkpt><trkpt lat="43.4227417" lon="11.299075"><ele>396.33333333333337</ele><time>2026-04-18T10:35:58.073Z</time></trkpt><trkpt lat="43.4228533" lon="11.29923"><ele>397.0</ele><time>2026-04-18T10:35:59.072Z</time></trkpt><trkpt lat="43.4229633" lon="11.2993717"><ele>401.0</ele><time>2026-04-18T10:36:00.072Z</time></trkpt><trkpt lat="43.4230983" lon="11.29949"><ele>405.0</ele><time>2026-04-18T10:36:01.072Z</time></trkpt><trkpt lat="43.423245" lon="11.2996067"><ele>409.0</ele><time>2026-04-18T10:36:02.072Z</time></trkpt><trkpt lat="43.4234017" lon="11.2996983"><ele>408.0</ele><time>2026-04-18T10:36:03.072Z</time></trkpt><trkpt lat="43.4235517" lon="11.2997917"><ele>407.0</ele><time>2026-04-18T10:36:04.073Z</time></trkpt><trkpt lat="43.4237083" lon="11.299885"><ele>406.0</ele><time>2026-04-18T10:36:05.073Z</time></trkpt><trkpt lat="43.4238567" lon="11.2999817"><ele>408.6666666666667</ele><time>2026-04-18T10:36:06.073Z</time></trkpt><trkpt lat="43.4240117" lon="11.30009"><ele>411.33333333333337</ele><time>2026-04-18T10:36:07.073Z</time></trkpt><trkpt lat="43.4241617" lon="11.3002117"><ele>414.0</ele><time>2026-04-18T10:36:08.072Z</time></trkpt><trkpt lat="43.4243" lon="11.30036"><ele>414.0</ele><time>2026-04-18T10:36:09.072Z</time></trkpt><trkpt lat="43.4244233" lon="11.3005433"><ele>414.0</ele><time>2026-04-18T10:36:10.072Z</time></trkpt><trkpt lat="43.4245333" lon="11.3007467"><ele>414.0</ele><time>2026-04-18T10:36:11.073Z</time></trkpt><trkpt lat="43.424625" lon="11.3009483"><ele>414.33333333333337</ele><time>2026-04-18T10:36:12.072Z</time></trkpt><trkpt lat="43.424705" lon="11.3011633"><ele>414.6666666666667</ele><time>2026-04-18T10:36:13.072Z</time></trkpt><trkpt lat="43.4247767" lon="11.3013833"><ele>415.0</ele><time>2026-04-18T10:36:14.072Z</time></trkpt><trkpt lat="43.4248567" lon="11.3016117"><ele>415.0</ele><time>2026-04-18T10:36:15.072Z</time></trkpt><trkpt lat="43.42495" lon="11.3018333"><ele>415.0</ele><time>2026-04-18T10:36:16.072Z</time></trkpt><trkpt lat="43.425065" lon="11.3020233"><ele>415.0</ele><time>2026-04-18T10:36:17.072Z</time></trkpt><trkpt lat="43.4251933" lon="11.302205"><ele>413.6666666666667</ele><time>2026-04-18T10:36:18.072Z</time></trkpt><trkpt lat="43.42533" lon="11.3023817"><ele>412.33333333333337</ele><time>2026-04-18T10:36:19.072Z</time></trkpt><trkpt lat="43.4254717" lon="11.302545"><ele>411.0</ele><time>2026-04-18T10:36:20.073Z</time></trkpt><trkpt lat="43.42561" lon="11.3027233"><ele>411.0</ele><time>2026-04-18T10:36:21.072Z</time></trkpt><trkpt lat="43.4257433" lon="11.3028933"><ele>411.0</ele><time>2026-04-18T10:36:22.072Z</time></trkpt><trkpt lat="43.425865" lon="11.303065"><ele>411.0</ele><time>2026-04-18T10:36:23.073Z</time></trkpt><trkpt lat="43.4259783" lon="11.30324"><ele>412.33333333333337</ele><time>2026-04-18T10:36:24.073Z</time></trkpt><trkpt lat="43.42608" lon="11.3034167"><ele>413.6666666666667</ele><time>2026-04-18T10:36:25.073Z</time></trkpt><trkpt lat="43.426165" lon="11.303605"><ele>415.0</ele><time>2026-04-18T10:36:26.072Z</time></trkpt><trkpt lat="43.426235" lon="11.3037933"><ele>415.6666666666667</ele><time>2026-04-18T10:36:27.072Z</time></trkpt><trkpt lat="43.426305" lon="11.303975"><ele>416.33333333333337</ele><time>2026-04-18T10:36:28.073Z</time></trkpt><trkpt lat="43.4263617" lon="11.3041683"><ele>417.0</ele><time>2026-04-18T10:36:29.072Z</time></trkpt><trkpt lat="43.4264267" lon="11.3043533"><ele>417.40000000000003</ele><time>2026-04-18T10:36:30.073Z</time></trkpt><trkpt lat="43.4264867" lon="11.3045217"><ele>417.8</ele><time>2026-04-18T10:36:31.072Z</time></trkpt><trkpt lat="43.4265417" lon="11.304665"><ele>418.2</ele><time>2026-04-18T10:36:32.073Z</time></trkpt><trkpt lat="43.4265833" lon="11.3047883"><ele>418.6</ele><time>2026-04-18T10:36:33.072Z</time></trkpt><trkpt lat="43.4266133" lon="11.3049033"><ele>419.0</ele><time>2026-04-18T10:36:34.072Z</time></trkpt><trkpt lat="43.4266333" lon="11.30499"><ele>419.79999999999995</ele><time>2026-04-18T10:36:35.073Z</time></trkpt><trkpt lat="43.4266533" lon="11.3050733"><ele>420.59999999999997</ele><time>2026-04-18T10:36:36.073Z</time></trkpt><trkpt lat="43.42669" lon="11.3051617"><ele>421.4</ele><time>2026-04-18T10:36:37.073Z</time></trkpt><trkpt lat="43.4267517" lon="11.3052683"><ele>422.2</ele><time>2026-04-18T10:36:38.072Z</time></trkpt><trkpt lat="43.4268317" lon="11.3053833"><ele>423.0</ele><time>2026-04-18T10:36:39.072Z</time></trkpt><trkpt lat="43.4269217" lon="11.30551"><ele>425.0</ele><time>2026-04-18T10:36:40.073Z</time></trkpt><trkpt lat="43.4270133" lon="11.30564"><ele>427.0</ele><time>2026-04-18T10:36:41.072Z</time></trkpt><trkpt lat="43.4271067" lon="11.305785"><ele>429.0</ele><time>2026-04-18T10:36:42.072Z</time></trkpt><trkpt lat="43.427215" lon="11.3059283"><ele>431.0</ele><time>2026-04-18T10:36:43.073Z</time></trkpt><trkpt lat="43.4273367" lon="11.3060567"><ele>431.3333333333333</ele><time>2026-04-18T10:36:44.073Z</time></trkpt><trkpt lat="43.4274717" lon="11.3061767"><ele>431.66666666666663</ele><time>2026-04-18T10:36:45.072Z</time></trkpt><trkpt lat="43.4276067" lon="11.3062967"><ele>432.0</ele><time>2026-04-18T10:36:46.073Z</time></trkpt><trkpt lat="43.42776" lon="11.3063933"><ele>435.25</ele><time>2026-04-18T10:36:47.072Z</time></trkpt><trkpt lat="43.427905" lon="11.3064717"><ele>438.5</ele><time>2026-04-18T10:36:48.072Z</time></trkpt><trkpt lat="43.428035" lon="11.3065333"><ele>441.75</ele><time>2026-04-18T10:36:49.073Z</time></trkpt><trkpt lat="43.42815" lon="11.3065367"><ele>445.0</ele><time>2026-04-18T10:36:50.072Z</time></trkpt><trkpt lat="43.42826" lon="11.3064517"><ele>444.75</ele><time>2026-04-18T10:36:51.072Z</time></trkpt><trkpt lat="43.4283283" lon="11.3063217"><ele>444.5</ele><time>2026-04-18T10:36:52.072Z</time></trkpt><trkpt lat="43.42836" lon="11.3061583"><ele>444.25</ele><time>2026-04-18T10:36:53.072Z</time></trkpt><trkpt lat="43.4283617" lon="11.305965"><ele>444.0</ele><time>2026-04-18T10:36:54.073Z</time></trkpt><trkpt lat="43.4283467" lon="11.30575"><ele>443.33333333333337</ele><time>2026-04-18T10:36:55.072Z</time></trkpt><trkpt lat="43.4283367" lon="11.3055333"><ele>442.6666666666667</ele><time>2026-04-18T10:36:56.072Z</time></trkpt><trkpt lat="43.4283283" lon="11.305325"><ele>442.0</ele><time>2026-04-18T10:36:57.073Z</time></trkpt><trkpt lat="43.4283383" lon="11.3051267"><ele>442.0</ele><time>2026-04-18T10:36:58.072Z</time></trkpt><trkpt lat="43.4283917" lon="11.3049417"><ele>442.0</ele><time>2026-04-18T10:36:59.072Z</time></trkpt><trkpt lat="43.42847" lon="11.3047733"><ele>442.0</ele><time>2026-04-18T10:37:00.072Z</time></trkpt><trkpt lat="43.4285783" lon="11.30462"><ele>442.0</ele><time>2026-04-18T10:37:01.072Z</time></trkpt><trkpt lat="43.4287167" lon="11.3045267"><ele>442.0</ele><time>2026-04-18T10:37:02.073Z</time></trkpt><trkpt lat="43.428875" lon="11.304475"><ele>442.0</ele><time>2026-04-18T10:37:03.072Z</time></trkpt><trkpt lat="43.42903" lon="11.3044683"><ele>442.0</ele><time>2026-04-18T10:37:04.073Z</time></trkpt><trkpt lat="43.4292" lon="11.304495"><ele>442.0</ele><time>2026-04-18T10:37:05.072Z</time></trkpt><trkpt lat="43.4293433" lon="11.3045783"><ele>442.0</ele><time>2026-04-18T10:37:06.072Z</time></trkpt><trkpt lat="43.4294683" lon="11.3046867"><ele>442.0</ele><time>2026-04-18T10:37:07.073Z</time></trkpt><trkpt lat="43.4295617" lon="11.304835"><ele>442.0</ele><time>2026-04-18T10:37:08.072Z</time></trkpt><trkpt lat="43.4296183" lon="11.305025"><ele>444.33333333333337</ele><time>2026-04-18T10:37:09.072Z</time></trkpt><trkpt lat="43.4296567" lon="11.3052383"><ele>446.66666666666663</ele><time>2026-04-18T10:37:10.072Z</time></trkpt><trkpt lat="43.429685" lon="11.3054633"><ele>449.0</ele><time>2026-04-18T10:37:11.073Z</time></trkpt><trkpt lat="43.4297083" lon="11.3056883"><ele>452.66666666666663</ele><time>2026-04-18T10:37:12.073Z</time></trkpt><trkpt lat="43.4297433" lon="11.3059033"><ele>456.33333333333337</ele><time>2026-04-18T10:37:13.072Z</time></trkpt><trkpt lat="43.4298033" lon="11.3061133"><ele>460.0</ele><time>2026-04-18T10:37:14.072Z</time></trkpt><trkpt lat="43.4298917" lon="11.3063233"><ele>462.33333333333337</ele><time>2026-04-18T10:37:15.072Z</time></trkpt><trkpt lat="43.4299933" lon="11.3065217"><ele>464.66666666666663</ele><time>2026-04-18T10:37:16.073Z</time></trkpt><trkpt lat="43.4301067" lon="11.3067083"><ele>467.0</ele><time>2026-04-18T10:37:17.072Z</time></trkpt><trkpt lat="43.4302117" lon="11.306905"><ele>467.0</ele><time>2026-04-18T10:37:18.073Z</time></trkpt><trkpt lat="43.4303083" lon="11.3071"><ele>467.0</ele><time>2026-04-18T10:37:19.073Z</time></trkpt><trkpt lat="43.4304017" lon="11.3073217"><ele>467.0</ele><time>2026-04-18T10:37:20.072Z</time></trkpt><trkpt lat="43.430475" lon="11.3075467"><ele>467.66666666666663</ele><time>2026-04-18T10:37:21.072Z</time></trkpt><trkpt lat="43.4305383" lon="11.3077717"><ele>468.33333333333337</ele><time>2026-04-18T10:37:22.072Z</time></trkpt><trkpt lat="43.43058" lon="11.308"><ele>469.0</ele><time>2026-04-18T10:37:23.073Z</time></trkpt><trkpt lat="43.4306033" lon="11.3082267"><ele>469.0</ele><time>2026-04-18T10:37:24.072Z</time></trkpt><trkpt lat="43.430615" lon="11.3084483"><ele>469.0</ele><time>2026-04-18T10:37:25.072Z</time></trkpt><trkpt lat="43.4306567" lon="11.3086617"><ele>469.0</ele><time>2026-04-18T10:37:26.072Z</time></trkpt><trkpt lat="43.4307133" lon="11.3088833"><ele>472.33333333333337</ele><time>2026-04-18T10:37:27.073Z</time></trkpt><trkpt lat="43.4307833" lon="11.3091067"><ele>475.66666666666663</ele><time>2026-04-18T10:37:28.073Z</time></trkpt><trkpt lat="43.430855" lon="11.3093233"><ele>479.0</ele><time>2026-04-18T10:37:29.073Z</time></trkpt><trkpt lat="43.4309183" lon="11.3095217"><ele>479.0</ele><time>2026-04-18T10:37:30.073Z</time></trkpt><trkpt lat="43.431005" lon="11.3096967"><ele>479.0</ele><time>2026-04-18T10:37:31.072Z</time></trkpt><trkpt lat="43.4310933" lon="11.3098233"><ele>479.0</ele><time>2026-04-18T10:37:32.072Z</time></trkpt><trkpt lat="43.4311867" lon="11.3099033"><ele>479.0</ele><time>2026-04-18T10:37:33.073Z</time></trkpt><trkpt lat="43.4312933" lon="11.3099283"><ele>479.0</ele><time>2026-04-18T10:37:34.072Z</time></trkpt><trkpt lat="43.431395" lon="11.3098617"><ele>479.0</ele><time>2026-04-18T10:37:35.072Z</time></trkpt><trkpt lat="43.431505" lon="11.3097467"><ele>479.0</ele><time>2026-04-18T10:37:36.072Z</time></trkpt><trkpt lat="43.4316167" lon="11.3096067"><ele>479.0</ele><time>2026-04-18T10:37:37.073Z</time></trkpt><trkpt lat="43.4317333" lon="11.30946"><ele>479.0</ele><time>2026-04-18T10:37:38.073Z</time></trkpt><trkpt lat="43.431855" lon="11.3093417"><ele>479.0</ele><time>2026-04-18T10:37:39.072Z</time></trkpt><trkpt lat="43.4319933" lon="11.30925"><ele>479.0</ele><time>2026-04-18T10:37:40.073Z</time></trkpt><trkpt lat="43.4321467" lon="11.309195"><ele>482.0</ele><time>2026-04-18T10:37:41.072Z</time></trkpt><trkpt lat="43.4323083" lon="11.309175"><ele>485.0</ele><time>2026-04-18T10:37:42.072Z</time></trkpt><trkpt lat="43.4324717" lon="11.30915"><ele>488.0</ele><time>2026-04-18T10:37:43.072Z</time></trkpt><trkpt lat="43.43264" lon="11.309105"><ele>488.0</ele><time>2026-04-18T10:37:44.072Z</time></trkpt><trkpt lat="43.4327933" lon="11.3090083"><ele>488.0</ele><time>2026-04-18T10:37:45.071Z</time></trkpt><trkpt lat="43.4329333" lon="11.3088583"><ele>488.0</ele><time>2026-04-18T10:37:46.071Z</time></trkpt><trkpt lat="43.43307" lon="11.3086783"><ele>489.66666666666663</ele><time>2026-04-18T10:37:47.071Z</time></trkpt><trkpt lat="43.4332017" lon="11.3084933"><ele>491.33333333333337</ele><time>2026-04-18T10:37:48.071Z</time></trkpt><trkpt lat="43.43332" lon="11.3083067"><ele>493.0</ele><time>2026-04-18T10:37:49.071Z</time></trkpt><trkpt lat="43.4334583" lon="11.30814"><ele>493.0</ele><time>2026-04-18T10:37:50.072Z</time></trkpt><trkpt lat="43.433605" lon="11.308025"><ele>493.0</ele><time>2026-04-18T10:37:51.071Z</time></trkpt><trkpt lat="43.43377" lon="11.3079333"><ele>493.0</ele><time>2026-04-18T10:37:52.072Z</time></trkpt><trkpt lat="43.4339483" lon="11.3078867"><ele>493.0</ele><time>2026-04-18T10:37:53.071Z</time></trkpt><trkpt lat="43.4341217" lon="11.3078317"><ele>493.0</ele><time>2026-04-18T10:37:54.071Z</time></trkpt><trkpt lat="43.4343" lon="11.3077517"><ele>493.0</ele><time>2026-04-18T10:37:55.072Z</time></trkpt><trkpt lat="43.4344667" lon="11.307635"><ele>493.0</ele><time>2026-04-18T10:37:56.071Z</time></trkpt><trkpt lat="43.4346233" lon="11.3075"><ele>493.0</ele><time>2026-04-18T10:37:57.071Z</time></trkpt><trkpt lat="43.43478" lon="11.3073567"><ele>493.0</ele><time>2026-04-18T10:37:58.071Z</time></trkpt><trkpt lat="43.4349283" lon="11.3072033"><ele>495.6666666666667</ele><time>2026-04-18T10:37:59.071Z</time></trkpt><trkpt lat="43.4350683" lon="11.30707"><ele>498.33333333333337</ele><time>2026-04-18T10:38:00.072Z</time></trkpt><trkpt lat="43.4352167" lon="11.3069183"><ele>501.0</ele><time>2026-04-18T10:38:01.071Z</time></trkpt><trkpt lat="43.435355" lon="11.3067767"><ele>503.5</ele><time>2026-04-18T10:38:02.072Z</time></trkpt><trkpt lat="43.4354833" lon="11.30669"><ele>506.0</ele><time>2026-04-18T10:38:03.072Z</time></trkpt><trkpt lat="43.4356067" lon="11.30662"><ele>508.5</ele><time>2026-04-18T10:38:04.071Z</time></trkpt><trkpt lat="43.435725" lon="11.306575"><ele>511.0</ele><time>2026-04-18T10:38:05.072Z</time></trkpt><trkpt lat="43.4358467" lon="11.3065483"><ele>511.0</ele><time>2026-04-18T10:38:06.071Z</time></trkpt><trkpt lat="43.435985" lon="11.3065233"><ele>511.0</ele><time>2026-04-18T10:38:07.071Z</time></trkpt><trkpt lat="43.4361167" lon="11.3065683"><ele>511.0</ele><time>2026-04-18T10:38:08.072Z</time></trkpt><trkpt lat="43.4362433" lon="11.30666"><ele>511.0</ele><time>2026-04-18T10:38:09.072Z</time></trkpt><trkpt lat="43.4363783" lon="11.3067883"><ele>508.0</ele><time>2026-04-18T10:38:10.071Z</time></trkpt><trkpt lat="43.43651" lon="11.3069317"><ele>505.0</ele><time>2026-04-18T10:38:11.072Z</time></trkpt><trkpt lat="43.43665" lon="11.30707"><ele>502.0</ele><time>2026-04-18T10:38:12.072Z</time></trkpt><trkpt lat="43.4368017" lon="11.307205"><ele>504.0</ele><time>2026-04-18T10:38:13.072Z</time></trkpt><trkpt lat="43.4369583" lon="11.30734"><ele>506.0</ele><time>2026-04-18T10:38:14.071Z</time></trkpt><trkpt lat="43.4371133" lon="11.30747"><ele>508.0</ele><time>2026-04-18T10:38:15.071Z</time></trkpt><trkpt lat="43.4372667" lon="11.3075983"><ele>508.0</ele><time>2026-04-18T10:38:16.071Z</time></trkpt><trkpt lat="43.4374317" lon="11.3077183"><ele>508.0</ele><time>2026-04-18T10:38:17.071Z</time></trkpt><trkpt lat="43.4375883" lon="11.30784"><ele>508.0</ele><time>2026-04-18T10:38:18.071Z</time></trkpt><trkpt lat="43.4377433" lon="11.3079517"><ele>508.0</ele><time>2026-04-18T10:38:19.071Z</time></trkpt><trkpt lat="43.4378917" lon="11.308045"><ele>508.0</ele><time>2026-04-18T10:38:20.071Z</time></trkpt><trkpt lat="43.4380267" lon="11.3081333"><ele>508.0</ele><time>2026-04-18T10:38:21.072Z</time></trkpt><trkpt lat="43.4381483" lon="11.30819"><ele>508.0</ele><time>2026-04-18T10:38:22.071Z</time></trkpt><trkpt lat="43.4382717" lon="11.30821"><ele>509.75</ele><time>2026-04-18T10:38:23.071Z</time></trkpt><trkpt lat="43.438405" lon="11.3081583"><ele>511.5</ele><time>2026-04-18T10:38:24.071Z</time></trkpt><trkpt lat="43.4385133" lon="11.30805"><ele>513.25</ele><time>2026-04-18T10:38:25.071Z</time></trkpt><trkpt lat="43.4385867" lon="11.3078867"><ele>515.0</ele><time>2026-04-18T10:38:26.071Z</time></trkpt><trkpt lat="43.4386133" lon="11.3076933"><ele>515.0</ele><time>2026-04-18T10:38:27.072Z</time></trkpt><trkpt lat="43.4385933" lon="11.30749"><ele>515.0</ele><time>2026-04-18T10:38:28.072Z</time></trkpt><trkpt lat="43.4385233" lon="11.3073017"><ele>515.0</ele><time>2026-04-18T10:38:29.071Z</time></trkpt><trkpt lat="43.43844" lon="11.307125"><ele>517.0</ele><time>2026-04-18T10:38:30.071Z</time></trkpt><trkpt lat="43.43838" lon="11.3069133"><ele>519.0</ele><time>2026-04-18T10:38:31.071Z</time></trkpt><trkpt lat="43.4383417" lon="11.306685"><ele>521.0</ele><time>2026-04-18T10:38:32.071Z</time></trkpt><trkpt lat="43.4383333" lon="11.3064467"><ele>520.3333333333333</ele><time>2026-04-18T10:38:33.071Z</time></trkpt><trkpt lat="43.438365" lon="11.3062083"><ele>519.6666666666666</ele><time>2026-04-18T10:38:34.072Z</time></trkpt><trkpt lat="43.4384133" lon="11.306005"><ele>519.0</ele><time>2026-04-18T10:38:35.071Z</time></trkpt><trkpt lat="43.438505" lon="11.3058233"><ele>519.0</ele><time>2026-04-18T10:38:36.072Z</time></trkpt><trkpt lat="43.4386133" lon="11.3056667"><ele>519.0</ele><time>2026-04-18T10:38:37.072Z</time></trkpt><trkpt lat="43.4387533" lon="11.305555"><ele>519.0</ele><time>2026-04-18T10:38:38.072Z</time></trkpt><trkpt lat="43.4389167" lon="11.30547"><ele>520.0</ele><time>2026-04-18T10:38:39.072Z</time></trkpt><trkpt lat="43.439085" lon="11.3054033"><ele>521.0</ele><time>2026-04-18T10:38:40.071Z</time></trkpt><trkpt lat="43.43925" lon="11.30537"><ele>522.0</ele><time>2026-04-18T10:38:41.072Z</time></trkpt><trkpt lat="43.43939" lon="11.3053067"><ele>522.0</ele><time>2026-04-18T10:38:42.072Z</time></trkpt><trkpt lat="43.439515" lon="11.30518"><ele>522.0</ele><time>2026-04-18T10:38:43.071Z</time></trkpt><trkpt lat="43.4396067" lon="11.3049983"><ele>522.0</ele><time>2026-04-18T10:38:44.071Z</time></trkpt><trkpt lat="43.4396567" lon="11.3047917"><ele>527.0</ele><time>2026-04-18T10:38:45.071Z</time></trkpt><trkpt lat="43.4396833" lon="11.30455"><ele>532.0</ele><time>2026-04-18T10:38:46.072Z</time></trkpt><trkpt lat="43.4397167" lon="11.3043"><ele>537.0</ele><time>2026-04-18T10:38:47.072Z</time></trkpt><trkpt lat="43.43977" lon="11.3040717"><ele>537.3333333333334</ele><time>2026-04-18T10:38:48.071Z</time></trkpt><trkpt lat="43.4398267" lon="11.3038483"><ele>537.6666666666667</ele><time>2026-04-18T10:38:49.071Z</time></trkpt><trkpt lat="43.4398483" lon="11.3036233"><ele>538.0</ele><time>2026-04-18T10:38:50.071Z</time></trkpt><trkpt lat="43.439825" lon="11.3034"><ele>538.0</ele><time>2026-04-18T10:38:51.072Z</time></trkpt><trkpt lat="43.4397667" lon="11.3031767"><ele>538.0</ele><time>2026-04-18T10:38:52.072Z</time></trkpt><trkpt lat="43.4397167" lon="11.3029367"><ele>538.0</ele><time>2026-04-18T10:38:53.072Z</time></trkpt><trkpt lat="43.4396817" lon="11.302675"><ele>538.6666666666667</ele><time>2026-04-18T10:38:54.072Z</time></trkpt><trkpt lat="43.4396417" lon="11.302415"><ele>539.3333333333334</ele><time>2026-04-18T10:38:55.072Z</time></trkpt><trkpt lat="43.4396017" lon="11.3021583"><ele>540.0</ele><time>2026-04-18T10:38:56.072Z</time></trkpt><trkpt lat="43.4395717" lon="11.3019217"><ele>537.75</ele><time>2026-04-18T10:38:57.071Z</time></trkpt><trkpt lat="43.43954" lon="11.3017167"><ele>535.5</ele><time>2026-04-18T10:38:58.071Z</time></trkpt><trkpt lat="43.4395333" lon="11.30154"><ele>533.25</ele><time>2026-04-18T10:38:59.071Z</time></trkpt><trkpt lat="43.4395783" lon="11.3013733"><ele>531.0</ele><time>2026-04-18T10:39:00.072Z</time></trkpt><trkpt lat="43.43968" lon="11.3012683"><ele>530.3333333333334</ele><time>2026-04-18T10:39:01.071Z</time></trkpt><trkpt lat="43.439815" lon="11.30121"><ele>529.6666666666667</ele><time>2026-04-18T10:39:02.072Z</time></trkpt><trkpt lat="43.4399783" lon="11.3011783"><ele>529.0</ele><time>2026-04-18T10:39:03.071Z</time></trkpt><trkpt lat="43.440145" lon="11.301155"><ele>529.0</ele><time>2026-04-18T10:39:04.071Z</time></trkpt><trkpt lat="43.4403083" lon="11.3011233"><ele>529.0</ele><time>2026-04-18T10:39:05.072Z</time></trkpt><trkpt lat="43.440465" lon="11.3010917"><ele>529.0</ele><time>2026-04-18T10:39:06.071Z</time></trkpt><trkpt lat="43.4406117" lon="11.3010433"><ele>528.6666666666667</ele><time>2026-04-18T10:39:07.072Z</time></trkpt><trkpt lat="43.4407433" lon="11.300945"><ele>528.3333333333334</ele><time>2026-04-18T10:39:08.071Z</time></trkpt><trkpt lat="43.440855" lon="11.3008"><ele>528.0</ele><time>2026-04-18T10:39:09.071Z</time></trkpt><trkpt lat="43.4409633" lon="11.3006283"><ele>527.6666666666666</ele><time>2026-04-18T10:39:10.072Z</time></trkpt><trkpt lat="43.4410783" lon="11.300495"><ele>527.3333333333333</ele><time>2026-04-18T10:39:11.071Z</time></trkpt><trkpt lat="43.4412067" lon="11.30041"><ele>527.0</ele><time>2026-04-18T10:39:12.071Z</time></trkpt><trkpt lat="43.441365" lon="11.3003817"><ele>528.0</ele><time>2026-04-18T10:39:13.071Z</time></trkpt><trkpt lat="43.4415283" lon="11.3003783"><ele>529.0</ele><time>2026-04-18T10:39:14.071Z</time></trkpt><trkpt lat="43.4416883" lon="11.30038"><ele>530.0</ele><time>2026-04-18T10:39:15.072Z</time></trkpt><trkpt lat="43.4418517" lon="11.300395"><ele>530.0</ele><time>2026-04-18T10:39:16.072Z</time></trkpt><trkpt lat="43.4420117" lon="11.3004533"><ele>530.0</ele><time>2026-04-18T10:39:17.071Z</time></trkpt><trkpt lat="43.4421617" lon="11.3005533"><ele>530.0</ele><time>2026-04-18T10:39:18.072Z</time></trkpt><trkpt lat="43.4423033" lon="11.3006817"><ele>530.75</ele><time>2026-04-18T10:39:19.072Z</time></trkpt><trkpt lat="43.442425" lon="11.300795"><ele>531.5</ele><time>2026-04-18T10:39:20.071Z</time></trkpt><trkpt lat="43.4425383" lon="11.30089"><ele>532.25</ele><time>2026-04-18T10:39:21.072Z</time></trkpt><trkpt lat="43.4426483" lon="11.3009717"><ele>533.0</ele><time>2026-04-18T10:39:22.071Z</time></trkpt><trkpt lat="43.4427667" lon="11.3009933"><ele>533.0</ele><time>2026-04-18T10:39:23.071Z</time></trkpt><trkpt lat="43.4428917" lon="11.3009583"><ele>533.0</ele><time>2026-04-18T10:39:24.072Z</time></trkpt><trkpt lat="43.4430183" lon="11.3008867"><ele>533.0</ele><time>2026-04-18T10:39:25.071Z</time></trkpt><trkpt lat="43.4431233" lon="11.3008233"><ele>533.0</ele><time>2026-04-18T10:39:26.071Z</time></trkpt><trkpt lat="43.443205" lon="11.3007333"><ele>535.0</ele><time>2026-04-18T10:39:27.072Z</time></trkpt><trkpt lat="43.4432583" lon="11.3006033"><ele>537.0</ele><time>2026-04-18T10:39:28.071Z</time></trkpt><trkpt lat="43.44328" lon="11.3004433"><ele>539.0</ele><time>2026-04-18T10:39:29.071Z</time></trkpt><trkpt lat="43.44327" lon="11.3002533"><ele>541.0</ele><time>2026-04-18T10:39:30.072Z</time></trkpt><trkpt lat="43.44328" lon="11.300055"><ele>541.0</ele><time>2026-04-18T10:39:31.071Z</time></trkpt><trkpt lat="43.44332" lon="11.2998567"><ele>541.0</ele><time>2026-04-18T10:39:32.072Z</time></trkpt><trkpt lat="43.4434083" lon="11.2996717"><ele>541.0</ele><time>2026-04-18T10:39:33.072Z</time></trkpt><trkpt lat="43.4435083" lon="11.2994817"><ele>541.5</ele><time>2026-04-18T10:39:34.072Z</time></trkpt><trkpt lat="43.4436067" lon="11.29931"><ele>542.0</ele><time>2026-04-18T10:39:35.072Z</time></trkpt><trkpt lat="43.44371" lon="11.29917"><ele>542.5</ele><time>2026-04-18T10:39:36.071Z</time></trkpt><trkpt lat="43.4438167" lon="11.2991033"><ele>543.0</ele><time>2026-04-18T10:39:37.072Z</time></trkpt><trkpt lat="43.4439483" lon="11.2991017"><ele>543.0</ele><time>2026-04-18T10:39:38.071Z</time></trkpt><trkpt lat="43.4440883" lon="11.2991317"><ele>543.0</ele><time>2026-04-18T10:39:39.071Z</time></trkpt><trkpt lat="43.4442333" lon="11.2992217"><ele>543.0</ele><time>2026-04-18T10:39:40.072Z</time></trkpt><trkpt lat="43.444365" lon="11.2993467"><ele>543.0</ele><time>2026-04-18T10:39:41.071Z</time></trkpt><trkpt lat="43.4445" lon="11.2994683"><ele>543.0</ele><time>2026-04-18T10:39:42.071Z</time></trkpt><trkpt lat="43.44462" lon="11.2995817"><ele>543.0</ele><time>2026-04-18T10:39:43.071Z</time></trkpt><trkpt lat="43.444725" lon="11.2996933"><ele>543.0</ele><time>2026-04-18T10:39:44.072Z</time></trkpt><trkpt lat="43.4448417" lon="11.2997817"><ele>545.5</ele><time>2026-04-18T10:39:45.071Z</time></trkpt><trkpt lat="43.4449617" lon="11.299845"><ele>548.0</ele><time>2026-04-18T10:39:46.071Z</time></trkpt><trkpt lat="43.4450917" lon="11.2998783"><ele>550.5</ele><time>2026-04-18T10:39:47.072Z</time></trkpt><trkpt lat="43.445225" lon="11.299885"><ele>553.0</ele><time>2026-04-18T10:39:48.072Z</time></trkpt><trkpt lat="43.4453583" lon="11.29986"><ele>552.25</ele><time>2026-04-18T10:39:49.072Z</time></trkpt><trkpt lat="43.4454983" lon="11.299825"><ele>551.5</ele><time>2026-04-18T10:39:50.071Z</time></trkpt><trkpt lat="43.445645" lon="11.2997917"><ele>550.75</ele><time>2026-04-18T10:39:51.071Z</time></trkpt><trkpt lat="43.4457783" lon="11.2997417"><ele>550.0</ele><time>2026-04-18T10:39:52.071Z</time></trkpt><trkpt lat="43.4459083" lon="11.29966"><ele>549.5</ele><time>2026-04-18T10:39:53.071Z</time></trkpt><trkpt lat="43.4460267" lon="11.2995667"><ele>549.0</ele><time>2026-04-18T10:39:54.072Z</time></trkpt><trkpt lat="43.44614" lon="11.2994617"><ele>548.5</ele><time>2026-04-18T10:39:55.072Z</time></trkpt><trkpt lat="43.4462467" lon="11.29934"><ele>548.0</ele><time>2026-04-18T10:39:56.072Z</time></trkpt><trkpt lat="43.446355" lon="11.299205"><ele>548.0</ele><time>2026-04-18T10:39:57.071Z</time></trkpt><trkpt lat="43.4464567" lon="11.2990533"><ele>548.0</ele><time>2026-04-18T10:39:58.072Z</time></trkpt><trkpt lat="43.44656" lon="11.2989"><ele>548.0</ele><time>2026-04-18T10:39:59.071Z</time></trkpt><trkpt lat="43.446665" lon="11.2987517"><ele>549.0</ele><time>2026-04-18T10:40:00.071Z</time></trkpt><trkpt lat="43.4467733" lon="11.2986117"><ele>550.0</ele><time>2026-04-18T10:40:01.071Z</time></trkpt><trkpt lat="43.4468883" lon="11.2984683"><ele>551.0</ele><time>2026-04-18T10:40:02.071Z</time></trkpt><trkpt lat="43.44699" lon="11.2983333"><ele>552.0</ele><time>2026-04-18T10:40:03.071Z</time></trkpt><trkpt lat="43.4470833" lon="11.2981817"><ele>553.25</ele><time>2026-04-18T10:40:04.071Z</time></trkpt><trkpt lat="43.4471683" lon="11.2980317"><ele>554.5</ele><time>2026-04-18T10:40:05.071Z</time></trkpt><trkpt lat="43.4472483" lon="11.297885"><ele>555.75</ele><time>2026-04-18T10:40:06.072Z</time></trkpt><trkpt lat="43.4473317" lon="11.29776"><ele>557.0</ele><time>2026-04-18T10:40:07.072Z</time></trkpt><trkpt lat="43.4474117" lon="11.2976483"><ele>557.0</ele><time>2026-04-18T10:40:08.072Z</time></trkpt><trkpt lat="43.4475017" lon="11.297555"><ele>557.0</ele><time>2026-04-18T10:40:09.071Z</time></trkpt><trkpt lat="43.4475917" lon="11.29746"><ele>557.0</ele><time>2026-04-18T10:40:10.071Z</time></trkpt><trkpt lat="43.44767" lon="11.2973583"><ele>557.0</ele><time>2026-04-18T10:40:11.072Z</time></trkpt><trkpt lat="43.4477383" lon="11.297255"><ele>557.0</ele><time>2026-04-18T10:40:12.071Z</time></trkpt><trkpt lat="43.4478033" lon="11.2971417"><ele>556.6</ele><time>2026-04-18T10:40:13.071Z</time></trkpt><trkpt lat="43.4478583" lon="11.2970283"><ele>556.2</ele><time>2026-04-18T10:40:14.071Z</time></trkpt><trkpt lat="43.4479117" lon="11.2969067"><ele>555.8</ele><time>2026-04-18T10:40:15.072Z</time></trkpt><trkpt lat="43.4479433" lon="11.296775"><ele>555.4</ele><time>2026-04-18T10:40:16.071Z</time></trkpt><trkpt lat="43.4479567" lon="11.296635"><ele>555.0</ele><time>2026-04-18T10:40:17.071Z</time></trkpt><trkpt lat="43.4479483" lon="11.2964917"><ele>555.0</ele><time>2026-04-18T10:40:18.071Z</time></trkpt><trkpt lat="43.4479367" lon="11.2963333"><ele>555.0</ele><time>2026-04-18T10:40:19.071Z</time></trkpt><trkpt lat="43.4479267" lon="11.296185"><ele>555.0</ele><time>2026-04-18T10:40:20.071Z</time></trkpt><trkpt lat="43.44795" lon="11.2960317"><ele>555.0</ele><time>2026-04-18T10:40:21.071Z</time></trkpt><trkpt lat="43.4479917" lon="11.2958967"><ele>555.0</ele><time>2026-04-18T10:40:22.072Z</time></trkpt><trkpt lat="43.4480467" lon="11.2957717"><ele>556.8</ele><time>2026-04-18T10:40:23.071Z</time></trkpt><trkpt lat="43.4481067" lon="11.2956567"><ele>558.6</ele><time>2026-04-18T10:40:24.071Z</time></trkpt><trkpt lat="43.4481667" lon="11.2955333"><ele>560.4</ele><time>2026-04-18T10:40:25.072Z</time></trkpt><trkpt lat="43.4482183" lon="11.2954267"><ele>562.2</ele><time>2026-04-18T10:40:26.072Z</time></trkpt><trkpt lat="43.44828" lon="11.295315"><ele>564.0</ele><time>2026-04-18T10:40:27.071Z</time></trkpt><trkpt lat="43.44834" lon="11.2952"><ele>564.0</ele><time>2026-04-18T10:40:28.072Z</time></trkpt><trkpt lat="43.4484167" lon="11.295095"><ele>564.0</ele><time>2026-04-18T10:40:29.072Z</time></trkpt><trkpt lat="43.4485033" lon="11.2949983"><ele>564.0</ele><time>2026-04-18T10:40:30.072Z</time></trkpt><trkpt lat="43.4486117" lon="11.2949083"><ele>564.0</ele><time>2026-04-18T10:40:31.072Z</time></trkpt><trkpt lat="43.4487183" lon="11.2948383"><ele>564.75</ele><time>2026-04-18T10:40:32.071Z</time></trkpt><trkpt lat="43.4488417" lon="11.2947783"><ele>565.5</ele><time>2026-04-18T10:40:33.071Z</time></trkpt><trkpt lat="43.4489633" lon="11.2947233"><ele>566.25</ele><time>2026-04-18T10:40:34.071Z</time></trkpt><trkpt lat="43.449075" lon="11.2946783"><ele>567.0</ele><time>2026-04-18T10:40:35.072Z</time></trkpt><trkpt lat="43.44919" lon="11.2946167"><ele>564.25</ele><time>2026-04-18T10:40:36.072Z</time></trkpt><trkpt lat="43.4493" lon="11.294545"><ele>561.5</ele><time>2026-04-18T10:40:37.072Z</time></trkpt><trkpt lat="43.4494083" lon="11.2944583"><ele>558.75</ele><time>2026-04-18T10:40:38.071Z</time></trkpt><trkpt lat="43.4495033" lon="11.2943633"><ele>556.0</ele><time>2026-04-18T10:40:39.071Z</time></trkpt><trkpt lat="43.449595" lon="11.2942583"><ele>556.5</ele><time>2026-04-18T10:40:40.072Z</time></trkpt><trkpt lat="43.449685" lon="11.29414"><ele>557.0</ele><time>2026-04-18T10:40:41.071Z</time></trkpt><trkpt lat="43.4497633" lon="11.2940017"><ele>557.5</ele><time>2026-04-18T10:40:42.072Z</time></trkpt><trkpt lat="43.4498367" lon="11.2938617"><ele>558.0</ele><time>2026-04-18T10:40:43.072Z</time></trkpt><trkpt lat="43.4499083" lon="11.2937283"><ele>558.75</ele><time>2026-04-18T10:40:44.071Z</time></trkpt><trkpt lat="43.4499817" lon="11.2935983"><ele>559.5</ele><time>2026-04-18T10:40:45.072Z</time></trkpt><trkpt lat="43.45006" lon="11.2934717"><ele>560.25</ele><time>2026-04-18T10:40:46.072Z</time></trkpt><trkpt lat="43.4501567" lon="11.29336"><ele>561.0</ele><time>2026-04-18T10:40:47.071Z</time></trkpt><trkpt lat="43.4502517" lon="11.29327"><ele>561.0</ele><time>2026-04-18T10:40:48.071Z</time></trkpt><trkpt lat="43.450355" lon="11.2932133"><ele>561.0</ele><time>2026-04-18T10:40:49.071Z</time></trkpt><trkpt lat="43.4504633" lon="11.2931633"><ele>561.0</ele><time>2026-04-18T10:40:50.072Z</time></trkpt><trkpt lat="43.450565" lon="11.2931133"><ele>561.0</ele><time>2026-04-18T10:40:51.071Z</time></trkpt><trkpt lat="43.4506633" lon="11.293055"><ele>561.0</ele><time>2026-04-18T10:40:52.072Z</time></trkpt><trkpt lat="43.450765" lon="11.2930117"><ele>563.6</ele><time>2026-04-18T10:40:53.071Z</time></trkpt><trkpt lat="43.4508583" lon="11.2929617"><ele>566.2</ele><time>2026-04-18T10:40:54.071Z</time></trkpt><trkpt lat="43.4509617" lon="11.292915"><ele>568.8</ele><time>2026-04-18T10:40:55.071Z</time></trkpt><trkpt lat="43.4510683" lon="11.2928733"><ele>571.4</ele><time>2026-04-18T10:40:56.071Z</time></trkpt><trkpt lat="43.45117" lon="11.2928283"><ele>574.0</ele><time>2026-04-18T10:40:57.072Z</time></trkpt><trkpt lat="43.451265" lon="11.2927833"><ele>574.25</ele><time>2026-04-18T10:40:58.072Z</time></trkpt><trkpt lat="43.45137" lon="11.2927333"><ele>574.5</ele><time>2026-04-18T10:40:59.072Z</time></trkpt><trkpt lat="43.4514733" lon="11.2926633"><ele>574.75</ele><time>2026-04-18T10:41:00.071Z</time></trkpt><trkpt lat="43.4515717" lon="11.292565"><ele>575.0</ele><time>2026-04-18T10:41:01.072Z</time></trkpt><trkpt lat="43.4516683" lon="11.292465"><ele>575.0</ele><time>2026-04-18T10:41:02.072Z</time></trkpt><trkpt lat="43.4517633" lon="11.2923533"><ele>575.0</ele><time>2026-04-18T10:41:03.072Z</time></trkpt><trkpt lat="43.4518617" lon="11.2922417"><ele>575.0</ele><time>2026-04-18T10:41:04.071Z</time></trkpt><trkpt lat="43.4519633" lon="11.292155"><ele>575.0</ele><time>2026-04-18T10:41:05.071Z</time></trkpt><trkpt lat="43.45208" lon="11.2920917"><ele>576.25</ele><time>2026-04-18T10:41:06.071Z</time></trkpt><trkpt lat="43.4521917" lon="11.2920667"><ele>577.5</ele><time>2026-04-18T10:41:07.072Z</time></trkpt><trkpt lat="43.452305" lon="11.292085"><ele>578.75</ele><time>2026-04-18T10:41:08.071Z</time></trkpt><trkpt lat="43.4524333" lon="11.2921333"><ele>580.0</ele><time>2026-04-18T10:41:09.072Z</time></trkpt><trkpt lat="43.452555" lon="11.29217"><ele>580.0</ele><time>2026-04-18T10:41:10.072Z</time></trkpt><trkpt lat="43.452675" lon="11.29221"><ele>580.0</ele><time>2026-04-18T10:41:11.071Z</time></trkpt><trkpt lat="43.45279" lon="11.2922517"><ele>580.0</ele><time>2026-04-18T10:41:12.071Z</time></trkpt><trkpt lat="43.45292" lon="11.292295"><ele>580.0</ele><time>2026-04-18T10:41:13.072Z</time></trkpt><trkpt lat="43.4530433" lon="11.2923383"><ele>578.5</ele><time>2026-04-18T10:41:14.072Z</time></trkpt><trkpt lat="43.4531717" lon="11.29237"><ele>577.0</ele><time>2026-04-18T10:41:15.072Z</time></trkpt><trkpt lat="43.4533117" lon="11.2923933"><ele>575.5</ele><time>2026-04-18T10:41:16.071Z</time></trkpt><trkpt lat="43.4534533" lon="11.2924083"><ele>574.0</ele><time>2026-04-18T10:41:17.071Z</time></trkpt><trkpt lat="43.4535983" lon="11.2923917"><ele>574.0</ele><time>2026-04-18T10:41:18.072Z</time></trkpt><trkpt lat="43.45375" lon="11.29234"><ele>574.0</ele><time>2026-04-18T10:41:19.072Z</time></trkpt><trkpt lat="43.4539" lon="11.2922833"><ele>574.0</ele><time>2026-04-18T10:41:20.07Z</time></trkpt><trkpt lat="43.45405" lon="11.292215"><ele>575.25</ele><time>2026-04-18T10:41:21.071Z</time></trkpt><trkpt lat="43.4541983" lon="11.2921517"><ele>576.5</ele><time>2026-04-18T10:41:22.07Z</time></trkpt><trkpt lat="43.4543417" lon="11.2920917"><ele>577.75</ele><time>2026-04-18T10:41:23.071Z</time></trkpt><trkpt lat="43.454475" lon="11.2920183"><ele>579.0</ele><time>2026-04-18T10:41:24.071Z</time></trkpt><trkpt lat="43.45461" lon="11.291975"><ele>577.75</ele><time>2026-04-18T10:41:25.07Z</time></trkpt><trkpt lat="43.4547467" lon="11.2919483"><ele>576.5</ele><time>2026-04-18T10:41:26.071Z</time></trkpt><trkpt lat="43.4548917" lon="11.2919467"><ele>575.25</ele><time>2026-04-18T10:41:27.071Z</time></trkpt><trkpt lat="43.45503" lon="11.2919533"><ele>574.0</ele><time>2026-04-18T10:41:28.07Z</time></trkpt><trkpt lat="43.4551633" lon="11.2919783"><ele>574.0</ele><time>2026-04-18T10:41:29.07Z</time></trkpt><trkpt lat="43.4552883" lon="11.292005"><ele>574.0</ele><time>2026-04-18T10:41:30.071Z</time></trkpt><trkpt lat="43.4554017" lon="11.29203"><ele>574.0</ele><time>2026-04-18T10:41:31.07Z</time></trkpt><trkpt lat="43.4554983" lon="11.2920583"><ele>574.0</ele><time>2026-04-18T10:41:32.07Z</time></trkpt><trkpt lat="43.45558" lon="11.292085"><ele>574.0</ele><time>2026-04-18T10:41:33.07Z</time></trkpt><trkpt lat="43.4556533" lon="11.2921033"><ele>574.6666666666667</ele><time>2026-04-18T10:41:34.07Z</time></trkpt><trkpt lat="43.4557183" lon="11.2921183"><ele>575.3333333333334</ele><time>2026-04-18T10:41:35.07Z</time></trkpt><trkpt lat="43.4557833" lon="11.292135"><ele>576.0</ele><time>2026-04-18T10:41:36.071Z</time></trkpt><trkpt lat="43.45585" lon="11.29216"><ele>576.6666666666666</ele><time>2026-04-18T10:41:37.07Z</time></trkpt><trkpt lat="43.455925" lon="11.292185"><ele>577.3333333333333</ele><time>2026-04-18T10:41:38.07Z</time></trkpt><trkpt lat="43.4560067" lon="11.2922117"><ele>578.0</ele><time>2026-04-18T10:41:39.07Z</time></trkpt><trkpt lat="43.4561" lon="11.292235"><ele>577.6</ele><time>2026-04-18T10:41:40.07Z</time></trkpt><trkpt lat="43.456195" lon="11.2922617"><ele>577.1999999999999</ele><time>2026-04-18T10:41:41.07Z</time></trkpt><trkpt lat="43.4562967" lon="11.2922917"><ele>576.8</ele><time>2026-04-18T10:41:42.07Z</time></trkpt><trkpt lat="43.4564067" lon="11.2923167"><ele>576.4</ele><time>2026-04-18T10:41:43.071Z</time></trkpt><trkpt lat="43.4565133" lon="11.2923383"><ele>576.0</ele><time>2026-04-18T10:41:44.07Z</time></trkpt><trkpt lat="43.456625" lon="11.29235"><ele>576.0</ele><time>2026-04-18T10:41:45.071Z</time></trkpt><trkpt lat="43.45674" lon="11.2923417"><ele>576.0</ele><time>2026-04-18T10:41:46.071Z</time></trkpt><trkpt lat="43.4568517" lon="11.2923217"><ele>576.0</ele><time>2026-04-18T10:41:47.071Z</time></trkpt><trkpt lat="43.45697" lon="11.2923033"><ele>576.0</ele><time>2026-04-18T10:41:48.071Z</time></trkpt><trkpt lat="43.457095" lon="11.2922717"><ele>572.5</ele><time>2026-04-18T10:41:49.07Z</time></trkpt><trkpt lat="43.45722" lon="11.29225"><ele>569.0</ele><time>2026-04-18T10:41:50.07Z</time></trkpt><trkpt lat="43.4573467" lon="11.2922267"><ele>565.5</ele><time>2026-04-18T10:41:51.071Z</time></trkpt><trkpt lat="43.4574733" lon="11.2921983"><ele>562.0</ele><time>2026-04-18T10:41:52.07Z</time></trkpt><trkpt lat="43.4576067" lon="11.2921767"><ele>562.0</ele><time>2026-04-18T10:41:53.071Z</time></trkpt><trkpt lat="43.4577417" lon="11.2921467"><ele>562.0</ele><time>2026-04-18T10:41:54.07Z</time></trkpt><trkpt lat="43.4578733" lon="11.2921183"><ele>562.0</ele><time>2026-04-18T10:41:55.071Z</time></trkpt><trkpt lat="43.4580117" lon="11.2920883"><ele>562.0</ele><time>2026-04-18T10:41:56.071Z</time></trkpt><trkpt lat="43.458145" lon="11.292065"><ele>562.25</ele><time>2026-04-18T10:41:57.071Z</time></trkpt><trkpt lat="43.4582833" lon="11.292035"><ele>562.5</ele><time>2026-04-18T10:41:58.07Z</time></trkpt><trkpt lat="43.4584117" lon="11.2919917"><ele>562.75</ele><time>2026-04-18T10:41:59.071Z</time></trkpt><trkpt lat="43.4585433" lon="11.2919367"><ele>563.0</ele><time>2026-04-18T10:42:00.07Z</time></trkpt><trkpt lat="43.4586733" lon="11.2918717"><ele>564.5</ele><time>2026-04-18T10:42:01.07Z</time></trkpt><trkpt lat="43.4588083" lon="11.2918067"><ele>566.0</ele><time>2026-04-18T10:42:02.071Z</time></trkpt><trkpt lat="43.4589283" lon="11.2917417"><ele>567.5</ele><time>2026-04-18T10:42:03.071Z</time></trkpt><trkpt lat="43.459055" lon="11.2916783"><ele>569.0</ele><time>2026-04-18T10:42:04.071Z</time></trkpt><trkpt lat="43.4591833" lon="11.2916133"><ele>569.0</ele><time>2026-04-18T10:42:05.07Z</time></trkpt><trkpt lat="43.4593117" lon="11.29156"><ele>569.0</ele><time>2026-04-18T10:42:06.071Z</time></trkpt><trkpt lat="43.45943" lon="11.2915"><ele>569.0</ele><time>2026-04-18T10:42:07.071Z</time></trkpt><trkpt lat="43.4595467" lon="11.2914417"><ele>569.0</ele><time>2026-04-18T10:42:08.071Z</time></trkpt><trkpt lat="43.4596483" lon="11.2913833"><ele>567.2</ele><time>2026-04-18T10:42:09.07Z</time></trkpt><trkpt lat="43.459755" lon="11.2913333"><ele>565.4</ele><time>2026-04-18T10:42:10.07Z</time></trkpt><trkpt lat="43.45986" lon="11.2912817"><ele>563.6</ele><time>2026-04-18T10:42:11.071Z</time></trkpt><trkpt lat="43.4599583" lon="11.2912317"><ele>561.8</ele><time>2026-04-18T10:42:12.07Z</time></trkpt><trkpt lat="43.460055" lon="11.2911917"><ele>560.0</ele><time>2026-04-18T10:42:13.071Z</time></trkpt><trkpt lat="43.46014" lon="11.2911417"><ele>560.0</ele><time>2026-04-18T10:42:14.071Z</time></trkpt><trkpt lat="43.4602283" lon="11.291095"><ele>560.0</ele><time>2026-04-18T10:42:15.07Z</time></trkpt><trkpt lat="43.4603133" lon="11.29105"><ele>560.0</ele><time>2026-04-18T10:42:16.071Z</time></trkpt><trkpt lat="43.4604017" lon="11.29101"><ele>560.0</ele><time>2026-04-18T10:42:17.07Z</time></trkpt><trkpt lat="43.4604917" lon="11.290965"><ele>560.0</ele><time>2026-04-18T10:42:18.071Z</time></trkpt><trkpt lat="43.46058" lon="11.2909183"><ele>561.6</ele><time>2026-04-18T10:42:19.071Z</time></trkpt><trkpt lat="43.46067" lon="11.29087"><ele>563.2</ele><time>2026-04-18T10:42:20.07Z</time></trkpt><trkpt lat="43.460755" lon="11.2908283"><ele>564.8</ele><time>2026-04-18T10:42:21.071Z</time></trkpt><trkpt lat="43.46084" lon="11.29078"><ele>566.4</ele><time>2026-04-18T10:42:22.07Z</time></trkpt><trkpt lat="43.4609233" lon="11.290725"><ele>568.0</ele><time>2026-04-18T10:42:23.07Z</time></trkpt><trkpt lat="43.461005" lon="11.29067"><ele>568.0</ele><time>2026-04-18T10:42:24.07Z</time></trkpt><trkpt lat="43.4610817" lon="11.290625"><ele>568.0</ele><time>2026-04-18T10:42:25.07Z</time></trkpt><trkpt lat="43.4611617" lon="11.2905767"><ele>568.0</ele><time>2026-04-18T10:42:26.071Z</time></trkpt><trkpt lat="43.4612383" lon="11.29052"><ele>568.0</ele><time>2026-04-18T10:42:27.071Z</time></trkpt><trkpt lat="43.46131" lon="11.2904883"><ele>568.0</ele><time>2026-04-18T10:42:28.071Z</time></trkpt><trkpt lat="43.46138" lon="11.2904583"><ele>568.0</ele><time>2026-04-18T10:42:29.07Z</time></trkpt><trkpt lat="43.46145" lon="11.2904167"><ele>566.6</ele><time>2026-04-18T10:42:30.07Z</time></trkpt><trkpt lat="43.46153" lon="11.29039"><ele>565.1999999999999</ele><time>2026-04-18T10:42:31.071Z</time></trkpt><trkpt lat="43.4616133" lon="11.290355"><ele>563.8</ele><time>2026-04-18T10:42:32.071Z</time></trkpt><trkpt lat="43.4616983" lon="11.2903133"><ele>562.4</ele><time>2026-04-18T10:42:33.07Z</time></trkpt><trkpt lat="43.4617917" lon="11.290285"><ele>561.0</ele><time>2026-04-18T10:42:34.071Z</time></trkpt><trkpt lat="43.4618917" lon="11.2902583"><ele>561.0</ele><time>2026-04-18T10:42:35.07Z</time></trkpt><trkpt lat="43.4619867" lon="11.2902283"><ele>561.0</ele><time>2026-04-18T10:42:36.071Z</time></trkpt><trkpt lat="43.4620867" lon="11.290195"><ele>561.0</ele><time>2026-04-18T10:42:37.07Z</time></trkpt><trkpt lat="43.462185" lon="11.290175"><ele>561.0</ele><time>2026-04-18T10:42:38.07Z</time></trkpt><trkpt lat="43.4622767" lon="11.29015"><ele>561.0</ele><time>2026-04-18T10:42:39.07Z</time></trkpt><trkpt lat="43.46237" lon="11.29013"><ele>561.1666666666666</ele><time>2026-04-18T10:42:40.07Z</time></trkpt><trkpt lat="43.4624533" lon="11.2901167"><ele>561.3333333333334</ele><time>2026-04-18T10:42:41.071Z</time></trkpt><trkpt lat="43.46254" lon="11.2901"><ele>561.5</ele><time>2026-04-18T10:42:42.07Z</time></trkpt><trkpt lat="43.4626317" lon="11.2900783"><ele>561.6666666666667</ele><time>2026-04-18T10:42:43.07Z</time></trkpt><trkpt lat="43.4627117" lon="11.2900517"><ele>561.8333333333334</ele><time>2026-04-18T10:42:44.07Z</time></trkpt><trkpt lat="43.4627883" lon="11.2900317"><ele>562.0</ele><time>2026-04-18T10:42:45.071Z</time></trkpt><trkpt lat="43.46287" lon="11.2900167"><ele>562.3333333333334</ele><time>2026-04-18T10:42:46.07Z</time></trkpt><trkpt lat="43.46295" lon="11.28999"><ele>562.6666666666667</ele><time>2026-04-18T10:42:47.07Z</time></trkpt><trkpt lat="43.46303" lon="11.2899633"><ele>563.0</ele><time>2026-04-18T10:42:48.071Z</time></trkpt><trkpt lat="43.4631117" lon="11.28994"><ele>563.3333333333334</ele><time>2026-04-18T10:42:49.07Z</time></trkpt><trkpt lat="43.463195" lon="11.2899183"><ele>563.6666666666666</ele><time>2026-04-18T10:42:50.071Z</time></trkpt><trkpt lat="43.4632767" lon="11.2898933"><ele>564.0</ele><time>2026-04-18T10:42:51.071Z</time></trkpt><trkpt lat="43.4633633" lon="11.2898633"><ele>564.0</ele><time>2026-04-18T10:42:52.07Z</time></trkpt><trkpt lat="43.46345" lon="11.2898383"><ele>564.0</ele><time>2026-04-18T10:42:53.071Z</time></trkpt><trkpt lat="43.4635433" lon="11.2898167"><ele>564.0</ele><time>2026-04-18T10:42:54.07Z</time></trkpt><trkpt lat="43.4636383" lon="11.2897883"><ele>564.0</ele><time>2026-04-18T10:42:55.07Z</time></trkpt><trkpt lat="43.4637283" lon="11.2897633"><ele>564.0</ele><time>2026-04-18T10:42:56.07Z</time></trkpt><trkpt lat="43.4638233" lon="11.2897333"><ele>563.5</ele><time>2026-04-18T10:42:57.07Z</time></trkpt><trkpt lat="43.4639133" lon="11.2896983"><ele>563.0</ele><time>2026-04-18T10:42:58.07Z</time></trkpt><trkpt lat="43.4639983" lon="11.28967"><ele>562.5</ele><time>2026-04-18T10:42:59.07Z</time></trkpt><trkpt lat="43.46408" lon="11.2896483"><ele>562.0</ele><time>2026-04-18T10:43:00.07Z</time></trkpt><trkpt lat="43.464155" lon="11.2896283"><ele>561.5</ele><time>2026-04-18T10:43:01.07Z</time></trkpt><trkpt lat="43.4642283" lon="11.28961"><ele>561.0</ele><time>2026-04-18T10:43:02.07Z</time></trkpt><trkpt lat="43.4643" lon="11.2895867"><ele>561.0</ele><time>2026-04-18T10:43:03.07Z</time></trkpt><trkpt lat="43.464375" lon="11.2895733"><ele>561.0</ele><time>2026-04-18T10:43:04.07Z</time></trkpt><trkpt lat="43.4644567" lon="11.2895467"><ele>561.0</ele><time>2026-04-18T10:43:05.07Z</time></trkpt><trkpt lat="43.4645383" lon="11.2895267"><ele>561.0</ele><time>2026-04-18T10:43:06.07Z</time></trkpt><trkpt lat="43.464625" lon="11.2895083"><ele>561.0</ele><time>2026-04-18T10:43:07.07Z</time></trkpt><trkpt lat="43.4647083" lon="11.2894833"><ele>561.0</ele><time>2026-04-18T10:43:08.071Z</time></trkpt><trkpt lat="43.464795" lon="11.289465"><ele>561.5</ele><time>2026-04-18T10:43:09.071Z</time></trkpt><trkpt lat="43.4648867" lon="11.289435"><ele>562.0</ele><time>2026-04-18T10:43:10.07Z</time></trkpt><trkpt lat="43.464975" lon="11.28941"><ele>562.5</ele><time>2026-04-18T10:43:11.07Z</time></trkpt><trkpt lat="43.465055" lon="11.289395"><ele>563.0</ele><time>2026-04-18T10:43:12.07Z</time></trkpt><trkpt lat="43.4651383" lon="11.2893717"><ele>563.5</ele><time>2026-04-18T10:43:13.07Z</time></trkpt><trkpt lat="43.4652217" lon="11.2893467"><ele>564.0</ele><time>2026-04-18T10:43:14.07Z</time></trkpt><trkpt lat="43.465295" lon="11.2893183"><ele>564.0</ele><time>2026-04-18T10:43:15.07Z</time></trkpt><trkpt lat="43.4653633" lon="11.289295"><ele>564.0</ele><time>2026-04-18T10:43:16.07Z</time></trkpt><trkpt lat="43.4654317" lon="11.28927"><ele>564.0</ele><time>2026-04-18T10:43:17.071Z</time></trkpt><trkpt lat="43.4654967" lon="11.28925"><ele>564.0</ele><time>2026-04-18T10:43:18.07Z</time></trkpt><trkpt lat="43.4655583" lon="11.2892317"><ele>564.0</ele><time>2026-04-18T10:43:19.07Z</time></trkpt><trkpt lat="43.4656783" lon="11.2891967"><ele>564.0</ele><time>2026-04-18T10:43:21.07Z</time></trkpt><trkpt lat="43.4657867" lon="11.2891617"><ele>564.4285714285714</ele><time>2026-04-18T10:43:23.07Z</time></trkpt><trkpt lat="43.4658517" lon="11.289125"><ele>564.8571428571429</ele><time>2026-04-18T10:43:24.07Z</time></trkpt><trkpt lat="43.465915" lon="11.2891033"><ele>565.2857142857142</ele><time>2026-04-18T10:43:25.071Z</time></trkpt><trkpt lat="43.4659867" lon="11.2890783"><ele>565.7142857142858</ele><time>2026-04-18T10:43:26.07Z</time></trkpt><trkpt lat="43.4660667" lon="11.2890333"><ele>566.1428571428571</ele><time>2026-04-18T10:43:27.071Z</time></trkpt><trkpt lat="43.4661367" lon="11.289"><ele>566.5714285714286</ele><time>2026-04-18T10:43:28.071Z</time></trkpt><trkpt lat="43.4662017" lon="11.2889817"><ele>567.0</ele><time>2026-04-18T10:43:29.07Z</time></trkpt><trkpt lat="43.4662717" lon="11.288955"><ele>566.4285714285714</ele><time>2026-04-18T10:43:30.07Z</time></trkpt><trkpt lat="43.46634" lon="11.2889333"><ele>565.8571428571429</ele><time>2026-04-18T10:43:31.07Z</time></trkpt><trkpt lat="43.4664067" lon="11.2889017"><ele>565.2857142857142</ele><time>2026-04-18T10:43:32.071Z</time></trkpt><trkpt lat="43.4664667" lon="11.2888583"><ele>564.7142857142858</ele><time>2026-04-18T10:43:33.071Z</time></trkpt><trkpt lat="43.4665467" lon="11.2888333"><ele>564.1428571428571</ele><time>2026-04-18T10:43:34.07Z</time></trkpt><trkpt lat="43.4666133" lon="11.2887917"><ele>563.5714285714286</ele><time>2026-04-18T10:43:35.071Z</time></trkpt><trkpt lat="43.4666733" lon="11.28874"><ele>563.0</ele><time>2026-04-18T10:43:36.07Z</time></trkpt><trkpt lat="43.4667417" lon="11.2887083"><ele>563.8</ele><time>2026-04-18T10:43:37.07Z</time></trkpt><trkpt lat="43.4668017" lon="11.2886683"><ele>564.5999999999999</ele><time>2026-04-18T10:43:38.071Z</time></trkpt><trkpt lat="43.4669" lon="11.2885933"><ele>565.4000000000001</ele><time>2026-04-18T10:43:40.07Z</time></trkpt><trkpt lat="43.4669733" lon="11.2885467"><ele>566.2</ele><time>2026-04-18T10:43:42.071Z</time></trkpt><trkpt lat="43.4670517" lon="11.2884883"><ele>567.0</ele><time>2026-04-18T10:43:44.071Z</time></trkpt><trkpt lat="43.4671533" lon="11.2883783"><ele>567.0</ele><time>2026-04-18T10:43:46.071Z</time></trkpt><trkpt lat="43.4672033" lon="11.2883017"><ele>567.0</ele><time>2026-04-18T10:43:47.07Z</time></trkpt><trkpt lat="43.46725" lon="11.288215"><ele>567.0</ele><time>2026-04-18T10:43:48.07Z</time></trkpt><trkpt lat="43.4673" lon="11.288135"><ele>567.0</ele><time>2026-04-18T10:43:49.07Z</time></trkpt><trkpt lat="43.4673433" lon="11.2880567"><ele>567.0</ele><time>2026-04-18T10:43:50.07Z</time></trkpt><trkpt lat="43.467385" lon="11.2879783"><ele>567.0</ele><time>2026-04-18T10:43:51.07Z</time></trkpt><trkpt lat="43.4674283" lon="11.287905"><ele>567.0</ele><time>2026-04-18T10:43:52.071Z</time></trkpt><trkpt lat="43.467505" lon="11.28776"><ele>567.4</ele><time>2026-04-18T10:43:54.07Z</time></trkpt><trkpt lat="43.46758" lon="11.2876233"><ele>567.8000000000001</ele><time>2026-04-18T10:43:56.07Z</time></trkpt><trkpt lat="43.4676267" lon="11.2875517"><ele>568.2</ele><time>2026-04-18T10:43:57.07Z</time></trkpt><trkpt lat="43.4676733" lon="11.2874817"><ele>568.6</ele><time>2026-04-18T10:43:58.07Z</time></trkpt><trkpt lat="43.4677167" lon="11.2874133"><ele>569.0</ele><time>2026-04-18T10:43:59.071Z</time></trkpt><trkpt lat="43.467825" lon="11.2873383"><ele>569.0</ele><time>2026-04-18T10:44:01.07Z</time></trkpt><trkpt lat="43.4679317" lon="11.287285"><ele>569.0</ele><time>2026-04-18T10:44:03.071Z</time></trkpt><trkpt lat="43.4680017" lon="11.2872567"><ele>569.0</ele><time>2026-04-18T10:44:05.07Z</time></trkpt><trkpt lat="43.46807" lon="11.2872267"><ele>569.0</ele><time>2026-04-18T10:44:07.07Z</time></trkpt><trkpt lat="43.4681517" lon="11.2871883"><ele>569.0</ele><time>2026-04-18T10:44:09.071Z</time></trkpt><trkpt lat="43.46826" lon="11.2871183"><ele>568.5</ele><time>2026-04-18T10:44:11.071Z</time></trkpt><trkpt lat="43.4683167" lon="11.2870667"><ele>568.0</ele><time>2026-04-18T10:44:12.071Z</time></trkpt><trkpt lat="43.4683767" lon="11.2870033"><ele>567.5</ele><time>2026-04-18T10:44:13.07Z</time></trkpt><trkpt lat="43.4684417" lon="11.2869283"><ele>567.0</ele><time>2026-04-18T10:44:14.071Z</time></trkpt><trkpt lat="43.46849" lon="11.2868483"><ele>566.5</ele><time>2026-04-18T10:44:15.07Z</time></trkpt><trkpt lat="43.4685317" lon="11.2867733"><ele>566.0</ele><time>2026-04-18T10:44:16.071Z</time></trkpt><trkpt lat="43.468605" lon="11.2866433"><ele>566.0</ele><time>2026-04-18T10:44:18.07Z</time></trkpt><trkpt lat="43.4686833" lon="11.2865467"><ele>566.0</ele><time>2026-04-18T10:44:20.07Z</time></trkpt><trkpt lat="43.4687433" lon="11.28648"><ele>566.0</ele><time>2026-04-18T10:44:23.07Z</time></trkpt><trkpt lat="43.4688183" lon="11.2863967"><ele>566.0</ele><time>2026-04-18T10:44:28.07Z</time></trkpt><trkpt lat="43.4688917" lon="11.2863017"><ele>566.0</ele><time>2026-04-18T10:44:30.07Z</time></trkpt><trkpt lat="43.4689933" lon="11.2862167"><ele>566.0</ele><time>2026-04-18T10:44:32.071Z</time></trkpt><trkpt lat="43.4690583" lon="11.286175"><ele>566.0</ele><time>2026-04-18T10:44:33.069Z</time></trkpt><trkpt lat="43.46913" lon="11.2861417"><ele>566.0</ele><time>2026-04-18T10:44:34.07Z</time></trkpt><trkpt lat="43.4692033" lon="11.2861267"><ele>566.0</ele><time>2026-04-18T10:44:35.069Z</time></trkpt><trkpt lat="43.4692717" lon="11.28613"><ele>566.0</ele><time>2026-04-18T10:44:36.069Z</time></trkpt><trkpt lat="43.4693917" lon="11.2861133"><ele>566.0</ele><time>2026-04-18T10:44:38.069Z</time></trkpt><trkpt lat="43.4694983" lon="11.2861133"><ele>566.0</ele><time>2026-04-18T10:44:40.069Z</time></trkpt><trkpt lat="43.4696017" lon="11.2861183"><ele>566.0</ele><time>2026-04-18T10:44:42.07Z</time></trkpt><trkpt lat="43.4696967" lon="11.2860983"><ele>566.0</ele><time>2026-04-18T10:44:44.069Z</time></trkpt><trkpt lat="43.46976" lon="11.286085"><ele>566.0</ele><time>2026-04-18T10:44:45.07Z</time></trkpt><trkpt lat="43.46983" lon="11.2860633"><ele>566.0</ele><time>2026-04-18T10:44:46.069Z</time></trkpt><trkpt lat="43.4698967" lon="11.2860433"><ele>566.0</ele><time>2026-04-18T10:44:47.069Z</time></trkpt><trkpt lat="43.4699633" lon="11.2860233"><ele>566.4</ele><time>2026-04-18T10:44:48.069Z</time></trkpt><trkpt lat="43.4700383" lon="11.2859883"><ele>566.8</ele><time>2026-04-18T10:44:49.069Z</time></trkpt><trkpt lat="43.4701283" lon="11.285935"><ele>567.1999999999999</ele><time>2026-04-18T10:44:50.069Z</time></trkpt><trkpt lat="43.47022" lon="11.28589"><ele>567.6</ele><time>2026-04-18T10:44:51.069Z</time></trkpt><trkpt lat="43.4703417" lon="11.285825"><ele>568.0</ele><time>2026-04-18T10:44:52.069Z</time></trkpt><trkpt lat="43.4704833" lon="11.2857433"><ele>568.25</ele><time>2026-04-18T10:44:53.07Z</time></trkpt><trkpt lat="43.4706417" lon="11.28565"><ele>568.5</ele><time>2026-04-18T10:44:54.069Z</time></trkpt><trkpt lat="43.4707783" lon="11.28557"><ele>568.75</ele><time>2026-04-18T10:44:55.069Z</time></trkpt><trkpt lat="43.4708883" lon="11.2855217"><ele>569.0</ele><time>2026-04-18T10:44:56.07Z</time></trkpt><trkpt lat="43.47098" lon="11.28548"><ele>567.8333333333333</ele><time>2026-04-18T10:44:57.069Z</time></trkpt><trkpt lat="43.471055" lon="11.2854483"><ele>566.6666666666666</ele><time>2026-04-18T10:44:58.069Z</time></trkpt><trkpt lat="43.47115" lon="11.28544"><ele>565.5</ele><time>2026-04-18T10:45:00.07Z</time></trkpt><trkpt lat="43.4712217" lon="11.2854417"><ele>564.3333333333334</ele><time>2026-04-18T10:45:02.069Z</time></trkpt><trkpt lat="43.4713167" lon="11.285455"><ele>563.1666666666667</ele><time>2026-04-18T10:45:04.069Z</time></trkpt><trkpt lat="43.4713867" lon="11.2854817"><ele>562.0</ele><time>2026-04-18T10:45:05.069Z</time></trkpt><trkpt lat="43.47148" lon="11.2855033"><ele>564.5</ele><time>2026-04-18T10:45:06.069Z</time></trkpt><trkpt lat="43.4715883" lon="11.28553"><ele>567.0</ele><time>2026-04-18T10:45:07.069Z</time></trkpt><trkpt lat="43.4717067" lon="11.2855583"><ele>569.5</ele><time>2026-04-18T10:45:08.07Z</time></trkpt><trkpt lat="43.47183" lon="11.28558"><ele>572.0</ele><time>2026-04-18T10:45:09.069Z</time></trkpt><trkpt lat="43.471945" lon="11.2856117"><ele>572.0</ele><time>2026-04-18T10:45:10.069Z</time></trkpt><trkpt lat="43.47208" lon="11.28564"><ele>572.0</ele><time>2026-04-18T10:45:11.07Z</time></trkpt><trkpt lat="43.472215" lon="11.2857"><ele>572.0</ele><time>2026-04-18T10:45:12.069Z</time></trkpt><trkpt lat="43.4723667" lon="11.285755"><ele>572.0</ele><time>2026-04-18T10:45:13.069Z</time></trkpt><trkpt lat="43.4725183" lon="11.2858"><ele>572.25</ele><time>2026-04-18T10:45:14.069Z</time></trkpt><trkpt lat="43.4726533" lon="11.2858533"><ele>572.5</ele><time>2026-04-18T10:45:15.069Z</time></trkpt><trkpt lat="43.4727683" lon="11.2859233"><ele>572.75</ele><time>2026-04-18T10:45:16.07Z</time></trkpt><trkpt lat="43.4728783" lon="11.28604"><ele>573.0</ele><time>2026-04-18T10:45:17.069Z</time></trkpt><trkpt lat="43.4729467" lon="11.2861967"><ele>573.0</ele><time>2026-04-18T10:45:18.07Z</time></trkpt><trkpt lat="43.4730183" lon="11.28636"><ele>573.0</ele><time>2026-04-18T10:45:19.07Z</time></trkpt><trkpt lat="43.4730833" lon="11.2865383"><ele>573.0</ele><time>2026-04-18T10:45:20.069Z</time></trkpt><trkpt lat="43.473125" lon="11.286725"><ele>573.0</ele><time>2026-04-18T10:45:21.069Z</time></trkpt><trkpt lat="43.4731317" lon="11.2869067"><ele>572.5</ele><time>2026-04-18T10:45:22.069Z</time></trkpt><trkpt lat="43.4731267" lon="11.2870833"><ele>572.0</ele><time>2026-04-18T10:45:23.069Z</time></trkpt><trkpt lat="43.4731" lon="11.28726"><ele>571.5</ele><time>2026-04-18T10:45:24.069Z</time></trkpt><trkpt lat="43.4730867" lon="11.28742"><ele>571.0</ele><time>2026-04-18T10:45:25.07Z</time></trkpt><trkpt lat="43.4730633" lon="11.2875717"><ele>570.8</ele><time>2026-04-18T10:45:26.07Z</time></trkpt><trkpt lat="43.473045" lon="11.2877133"><ele>570.6</ele><time>2026-04-18T10:45:27.069Z</time></trkpt><trkpt lat="43.47303" lon="11.2878483"><ele>570.4</ele><time>2026-04-18T10:45:28.069Z</time></trkpt><trkpt lat="43.4730183" lon="11.2879767"><ele>570.2</ele><time>2026-04-18T10:45:29.069Z</time></trkpt><trkpt lat="43.4730067" lon="11.2881033"><ele>570.0</ele><time>2026-04-18T10:45:30.069Z</time></trkpt><trkpt lat="43.4729883" lon="11.2882183"><ele>569.5</ele><time>2026-04-18T10:45:31.07Z</time></trkpt><trkpt lat="43.472965" lon="11.288325"><ele>569.0</ele><time>2026-04-18T10:45:32.069Z</time></trkpt><trkpt lat="43.4729433" lon="11.288415"><ele>568.5</ele><time>2026-04-18T10:45:33.069Z</time></trkpt><trkpt lat="43.4729067" lon="11.2885483"><ele>568.0</ele><time>2026-04-18T10:45:35.069Z</time></trkpt><trkpt lat="43.4728817" lon="11.2886483"><ele>567.5</ele><time>2026-04-18T10:45:37.07Z</time></trkpt><trkpt lat="43.4728867" lon="11.2887733"><ele>567.0</ele><time>2026-04-18T10:46:09.069Z</time></trkpt><trkpt lat="43.472925" lon="11.2886417"><ele>567.0</ele><time>2026-04-18T10:46:13.069Z</time></trkpt><trkpt lat="43.4729383" lon="11.28854"><ele>567.0</ele><time>2026-04-18T10:46:15.069Z</time></trkpt><trkpt lat="43.4729717" lon="11.2884183"><ele>567.0</ele><time>2026-04-18T10:46:17.069Z</time></trkpt><trkpt lat="43.4729983" lon="11.288315"><ele>567.0</ele><time>2026-04-18T10:46:18.07Z</time></trkpt><trkpt lat="43.4730183" lon="11.2881833"><ele>567.0</ele><time>2026-04-18T10:46:19.07Z</time></trkpt><trkpt lat="43.4730333" lon="11.2880383"><ele>567.6</ele><time>2026-04-18T10:46:20.07Z</time></trkpt><trkpt lat="43.47305" lon="11.28789"><ele>568.2</ele><time>2026-04-18T10:46:21.069Z</time></trkpt><trkpt lat="43.4730717" lon="11.28774"><ele>568.8</ele><time>2026-04-18T10:46:22.069Z</time></trkpt><trkpt lat="43.473095" lon="11.287605"><ele>569.4</ele><time>2026-04-18T10:46:23.069Z</time></trkpt><trkpt lat="43.4731133" lon="11.287485"><ele>570.0</ele><time>2026-04-18T10:46:24.069Z</time></trkpt><trkpt lat="43.4731317" lon="11.2873833"><ele>570.0</ele><time>2026-04-18T10:46:25.07Z</time></trkpt><trkpt lat="43.4731583" lon="11.2872217"><ele>570.0</ele><time>2026-04-18T10:46:27.069Z</time></trkpt><trkpt lat="43.473205" lon="11.287135"><ele>570.0</ele><time>2026-04-18T10:46:29.07Z</time></trkpt><trkpt lat="43.4732717" lon="11.2871767"><ele>570.0</ele><time>2026-04-18T10:46:32.069Z</time></trkpt><trkpt lat="43.4732667" lon="11.28727"><ele>570.0</ele><time>2026-04-18T10:46:35.069Z</time></trkpt><trkpt lat="43.47323" lon="11.2871467"><ele>570.0</ele><time>2026-04-18T11:20:43.056Z</time></trkpt><trkpt lat="43.473115" lon="11.2871783"><ele>570.0</ele><time>2026-04-18T11:20:51.055Z</time></trkpt><trkpt lat="43.4730967" lon="11.287265"><ele>570.0</ele><time>2026-04-18T11:20:52.056Z</time></trkpt><trkpt lat="43.4730767" lon="11.2873767"><ele>570.0</ele><time>2026-04-18T11:20:53.055Z</time></trkpt><trkpt lat="43.4730533" lon="11.2875033"><ele>570.0</ele><time>2026-04-18T11:20:54.055Z</time></trkpt><trkpt lat="43.4730317" lon="11.2876367"><ele>570.0</ele><time>2026-04-18T11:20:55.055Z</time></trkpt><trkpt lat="43.47301" lon="11.28779"><ele>570.0</ele><time>2026-04-18T11:20:56.055Z</time></trkpt><trkpt lat="43.4729933" lon="11.2879483"><ele>570.0</ele><time>2026-04-18T11:20:57.055Z</time></trkpt><trkpt lat="43.4729767" lon="11.2881067"><ele>570.0</ele><time>2026-04-18T11:20:58.056Z</time></trkpt><trkpt lat="43.4729567" lon="11.2882667"><ele>570.0</ele><time>2026-04-18T11:20:59.056Z</time></trkpt><trkpt lat="43.4729583" lon="11.28842"><ele>569.4</ele><time>2026-04-18T11:21:00.055Z</time></trkpt><trkpt lat="43.4729867" lon="11.288565"><ele>568.8</ele><time>2026-04-18T11:21:01.055Z</time></trkpt><trkpt lat="43.4730433" lon="11.2886967"><ele>568.2</ele><time>2026-04-18T11:21:02.056Z</time></trkpt><trkpt lat="43.4731367" lon="11.2887833"><ele>567.6</ele><time>2026-04-18T11:21:03.056Z</time></trkpt><trkpt lat="43.473235" lon="11.2888233"><ele>567.0</ele><time>2026-04-18T11:21:04.055Z</time></trkpt><trkpt lat="43.4733433" lon="11.2887983"><ele>567.0</ele><time>2026-04-18T11:21:05.055Z</time></trkpt><trkpt lat="43.4734483" lon="11.2887083"><ele>567.0</ele><time>2026-04-18T11:21:06.055Z</time></trkpt><trkpt lat="43.47353" lon="11.2885717"><ele>567.0</ele><time>2026-04-18T11:21:07.055Z</time></trkpt><trkpt lat="43.4735983" lon="11.288405"><ele>567.0</ele><time>2026-04-18T11:21:08.055Z</time></trkpt><trkpt lat="43.4736633" lon="11.288225"><ele>568.0</ele><time>2026-04-18T11:21:09.055Z</time></trkpt><trkpt lat="43.47373" lon="11.28804"><ele>569.0</ele><time>2026-04-18T11:21:10.056Z</time></trkpt><trkpt lat="43.4737883" lon="11.2878433"><ele>570.0</ele><time>2026-04-18T11:21:11.055Z</time></trkpt><trkpt lat="43.4738367" lon="11.2876417"><ele>566.0</ele><time>2026-04-18T11:21:12.055Z</time></trkpt><trkpt lat="43.4738683" lon="11.2874467"><ele>562.0</ele><time>2026-04-18T11:21:13.056Z</time></trkpt><trkpt lat="43.473895" lon="11.28725"><ele>558.0</ele><time>2026-04-18T11:21:14.054Z</time></trkpt><trkpt lat="43.4739217" lon="11.28707"><ele>554.0</ele><time>2026-04-18T11:21:15.054Z</time></trkpt><trkpt lat="43.47395" lon="11.286895"><ele>554.0</ele><time>2026-04-18T11:21:16.054Z</time></trkpt><trkpt lat="43.4739717" lon="11.28673"><ele>554.0</ele><time>2026-04-18T11:21:17.054Z</time></trkpt><trkpt lat="43.4740017" lon="11.28656"><ele>554.0</ele><time>2026-04-18T11:21:18.054Z</time></trkpt><trkpt lat="43.4740333" lon="11.2864"><ele>554.0</ele><time>2026-04-18T11:21:19.054Z</time></trkpt><trkpt lat="43.4740683" lon="11.2862467"><ele>554.2</ele><time>2026-04-18T11:21:20.055Z</time></trkpt><trkpt lat="43.47412" lon="11.2861133"><ele>554.4</ele><time>2026-04-18T11:21:21.054Z</time></trkpt><trkpt lat="43.47419" lon="11.2859967"><ele>554.6</ele><time>2026-04-18T11:21:22.055Z</time></trkpt><trkpt lat="43.474285" lon="11.2859317"><ele>554.8</ele><time>2026-04-18T11:21:23.054Z</time></trkpt><trkpt lat="43.4743917" lon="11.2859167"><ele>555.0</ele><time>2026-04-18T11:21:24.055Z</time></trkpt><trkpt lat="43.4744833" lon="11.285965"><ele>555.0</ele><time>2026-04-18T11:21:25.055Z</time></trkpt><trkpt lat="43.47456" lon="11.286075"><ele>555.0</ele><time>2026-04-18T11:21:26.054Z</time></trkpt><trkpt lat="43.4746067" lon="11.2862333"><ele>555.0</ele><time>2026-04-18T11:21:27.054Z</time></trkpt><trkpt lat="43.47463" lon="11.2864133"><ele>555.0</ele><time>2026-04-18T11:21:28.054Z</time></trkpt><trkpt lat="43.474645" lon="11.2866133"><ele>558.3333333333334</ele><time>2026-04-18T11:21:29.054Z</time></trkpt><trkpt lat="43.474665" lon="11.2868233"><ele>561.6666666666667</ele><time>2026-04-18T11:21:30.055Z</time></trkpt><trkpt lat="43.4746967" lon="11.2870367"><ele>565.0</ele><time>2026-04-18T11:21:31.054Z</time></trkpt><trkpt lat="43.4747283" lon="11.287245"><ele>563.0</ele><time>2026-04-18T11:21:32.055Z</time></trkpt><trkpt lat="43.4747683" lon="11.287445"><ele>561.0</ele><time>2026-04-18T11:21:33.055Z</time></trkpt><trkpt lat="43.4748033" lon="11.2876383"><ele>559.0</ele><time>2026-04-18T11:21:34.054Z</time></trkpt><trkpt lat="43.4748383" lon="11.2878217"><ele>557.0</ele><time>2026-04-18T11:21:35.055Z</time></trkpt><trkpt lat="43.4748867" lon="11.2879883"><ele>554.5</ele><time>2026-04-18T11:21:36.054Z</time></trkpt><trkpt lat="43.47495" lon="11.2881567"><ele>552.0</ele><time>2026-04-18T11:21:37.055Z</time></trkpt><trkpt lat="43.4750267" lon="11.2883067"><ele>549.5</ele><time>2026-04-18T11:21:38.055Z</time></trkpt><trkpt lat="43.4751317" lon="11.2884333"><ele>547.0</ele><time>2026-04-18T11:21:39.055Z</time></trkpt><trkpt lat="43.475265" lon="11.28853"><ele>547.0</ele><time>2026-04-18T11:21:40.054Z</time></trkpt><trkpt lat="43.4754167" lon="11.2885967"><ele>547.0</ele><time>2026-04-18T11:21:41.055Z</time></trkpt><trkpt lat="43.4755783" lon="11.2886433"><ele>547.0</ele><time>2026-04-18T11:21:42.054Z</time></trkpt><trkpt lat="43.4757317" lon="11.2886867"><ele>548.0</ele><time>2026-04-18T11:21:43.055Z</time></trkpt><trkpt lat="43.47587" lon="11.28876"><ele>549.0</ele><time>2026-04-18T11:21:44.055Z</time></trkpt><trkpt lat="43.4759933" lon="11.2888533"><ele>550.0</ele><time>2026-04-18T11:21:45.055Z</time></trkpt><trkpt lat="43.4760867" lon="11.2889867"><ele>551.0</ele><time>2026-04-18T11:21:46.054Z</time></trkpt><trkpt lat="43.4761567" lon="11.2891617"><ele>548.6666666666666</ele><time>2026-04-18T11:21:47.054Z</time></trkpt><trkpt lat="43.47622" lon="11.2893533"><ele>546.3333333333334</ele><time>2026-04-18T11:21:48.054Z</time></trkpt><trkpt lat="43.476265" lon="11.2895583"><ele>544.0</ele><time>2026-04-18T11:21:49.054Z</time></trkpt><trkpt lat="43.4762967" lon="11.28975"><ele>544.5</ele><time>2026-04-18T11:21:50.055Z</time></trkpt><trkpt lat="43.47633" lon="11.2899417"><ele>545.0</ele><time>2026-04-18T11:21:51.054Z</time></trkpt><trkpt lat="43.4763683" lon="11.2901333"><ele>545.5</ele><time>2026-04-18T11:21:52.054Z</time></trkpt><trkpt lat="43.4764017" lon="11.2903133"><ele>546.0</ele><time>2026-04-18T11:21:53.054Z</time></trkpt><trkpt lat="43.4764317" lon="11.29049"><ele>546.0</ele><time>2026-04-18T11:21:54.054Z</time></trkpt><trkpt lat="43.47647" lon="11.2906683"><ele>546.0</ele><time>2026-04-18T11:21:55.054Z</time></trkpt><trkpt lat="43.4765017" lon="11.29084"><ele>546.0</ele><time>2026-04-18T11:21:56.054Z</time></trkpt><trkpt lat="43.47651" lon="11.291"><ele>546.0</ele><time>2026-04-18T11:21:57.055Z</time></trkpt><trkpt lat="43.4764633" lon="11.2911367"><ele>546.0</ele><time>2026-04-18T11:21:58.054Z</time></trkpt><trkpt lat="43.4763767" lon="11.29123"><ele>546.0</ele><time>2026-04-18T11:21:59.055Z</time></trkpt><trkpt lat="43.47626" lon="11.2913017"><ele>546.0</ele><time>2026-04-18T11:22:00.054Z</time></trkpt><trkpt lat="43.4761217" lon="11.291365"><ele>546.0</ele><time>2026-04-18T11:22:01.055Z</time></trkpt><trkpt lat="43.47598" lon="11.2914717"><ele>545.6666666666666</ele><time>2026-04-18T11:22:02.054Z</time></trkpt><trkpt lat="43.4758483" lon="11.29162"><ele>545.3333333333333</ele><time>2026-04-18T11:22:03.054Z</time></trkpt><trkpt lat="43.475735" lon="11.2917933"><ele>545.0</ele><time>2026-04-18T11:22:04.054Z</time></trkpt><trkpt lat="43.4756267" lon="11.2919767"><ele>545.0</ele><time>2026-04-18T11:22:05.055Z</time></trkpt><trkpt lat="43.4755267" lon="11.29216"><ele>545.0</ele><time>2026-04-18T11:22:06.054Z</time></trkpt><trkpt lat="43.475445" lon="11.2923583"><ele>545.0</ele><time>2026-04-18T11:22:07.054Z</time></trkpt><trkpt lat="43.47539" lon="11.2925783"><ele>543.3333333333333</ele><time>2026-04-18T11:22:08.054Z</time></trkpt><trkpt lat="43.4753417" lon="11.29281"><ele>541.6666666666666</ele><time>2026-04-18T11:22:09.054Z</time></trkpt><trkpt lat="43.4753067" lon="11.29305"><ele>540.0</ele><time>2026-04-18T11:22:10.054Z</time></trkpt><trkpt lat="43.475285" lon="11.2932983"><ele>540.0</ele><time>2026-04-18T11:22:11.055Z</time></trkpt><trkpt lat="43.4752633" lon="11.2935567"><ele>540.0</ele><time>2026-04-18T11:22:12.054Z</time></trkpt><trkpt lat="43.4752433" lon="11.293815"><ele>540.0</ele><time>2026-04-18T11:22:13.055Z</time></trkpt><trkpt lat="43.4752267" lon="11.29406"><ele>542.6666666666666</ele><time>2026-04-18T11:22:14.055Z</time></trkpt><trkpt lat="43.475215" lon="11.2943083"><ele>545.3333333333333</ele><time>2026-04-18T11:22:15.054Z</time></trkpt><trkpt lat="43.4751967" lon="11.294555"><ele>548.0</ele><time>2026-04-18T11:22:16.054Z</time></trkpt><trkpt lat="43.4751767" lon="11.294795"><ele>549.0</ele><time>2026-04-18T11:22:17.054Z</time></trkpt><trkpt lat="43.4751617" lon="11.2950267"><ele>550.0</ele><time>2026-04-18T11:22:18.055Z</time></trkpt><trkpt lat="43.4751617" lon="11.2952533"><ele>551.0</ele><time>2026-04-18T11:22:19.054Z</time></trkpt><trkpt lat="43.4751817" lon="11.295475"><ele>550.3333333333333</ele><time>2026-04-18T11:22:20.054Z</time></trkpt><trkpt lat="43.4752167" lon="11.2957"><ele>549.6666666666666</ele><time>2026-04-18T11:22:21.054Z</time></trkpt><trkpt lat="43.4752767" lon="11.2959117"><ele>549.0</ele><time>2026-04-18T11:22:22.054Z</time></trkpt><trkpt lat="43.4753583" lon="11.2961117"><ele>553.3333333333334</ele><time>2026-04-18T11:22:23.054Z</time></trkpt><trkpt lat="43.4754617" lon="11.2962883"><ele>557.6666666666667</ele><time>2026-04-18T11:22:24.055Z</time></trkpt><trkpt lat="43.4755817" lon="11.2964483"><ele>562.0</ele><time>2026-04-18T11:22:25.055Z</time></trkpt><trkpt lat="43.47572" lon="11.2965733"><ele>562.0</ele><time>2026-04-18T11:22:26.054Z</time></trkpt><trkpt lat="43.475865" lon="11.29667"><ele>562.0</ele><time>2026-04-18T11:22:27.055Z</time></trkpt><trkpt lat="43.4760233" lon="11.2967483"><ele>562.0</ele><time>2026-04-18T11:22:28.054Z</time></trkpt><trkpt lat="43.4761767" lon="11.2968183"><ele>565.25</ele><time>2026-04-18T11:22:29.055Z</time></trkpt><trkpt lat="43.4763183" lon="11.2968867"><ele>568.5</ele><time>2026-04-18T11:22:30.054Z</time></trkpt><trkpt lat="43.4764467" lon="11.2969483"><ele>571.75</ele><time>2026-04-18T11:22:31.054Z</time></trkpt><trkpt lat="43.476565" lon="11.2970433"><ele>575.0</ele><time>2026-04-18T11:22:32.055Z</time></trkpt><trkpt lat="43.4766583" lon="11.29719"><ele>573.0</ele><time>2026-04-18T11:22:33.054Z</time></trkpt><trkpt lat="43.476745" lon="11.2973517"><ele>571.0</ele><time>2026-04-18T11:22:34.054Z</time></trkpt><trkpt lat="43.4768267" lon="11.2975233"><ele>569.0</ele><time>2026-04-18T11:22:35.055Z</time></trkpt><trkpt lat="43.4769033" lon="11.297705"><ele>567.0</ele><time>2026-04-18T11:22:36.054Z</time></trkpt><trkpt lat="43.4769633" lon="11.2978933"><ele>568.0</ele><time>2026-04-18T11:22:37.055Z</time></trkpt><trkpt lat="43.4770317" lon="11.2981"><ele>569.0</ele><time>2026-04-18T11:22:38.054Z</time></trkpt><trkpt lat="43.4770933" lon="11.2983083"><ele>570.0</ele><time>2026-04-18T11:22:39.055Z</time></trkpt><trkpt lat="43.4771567" lon="11.2985167"><ele>570.0</ele><time>2026-04-18T11:22:40.054Z</time></trkpt><trkpt lat="43.4772217" lon="11.2987183"><ele>570.0</ele><time>2026-04-18T11:22:41.055Z</time></trkpt><trkpt lat="43.477265" lon="11.2989117"><ele>570.0</ele><time>2026-04-18T11:22:42.054Z</time></trkpt><trkpt lat="43.4772983" lon="11.2991033"><ele>569.5</ele><time>2026-04-18T11:22:43.054Z</time></trkpt><trkpt lat="43.4773133" lon="11.2993"><ele>569.0</ele><time>2026-04-18T11:22:44.054Z</time></trkpt><trkpt lat="43.4772983" lon="11.2995"><ele>568.5</ele><time>2026-04-18T11:22:45.055Z</time></trkpt><trkpt lat="43.477255" lon="11.2996933"><ele>568.0</ele><time>2026-04-18T11:22:46.054Z</time></trkpt><trkpt lat="43.477205" lon="11.2999233"><ele>569.3333333333334</ele><time>2026-04-18T11:22:47.054Z</time></trkpt><trkpt lat="43.4771533" lon="11.30015"><ele>570.6666666666666</ele><time>2026-04-18T11:22:48.054Z</time></trkpt><trkpt lat="43.477105" lon="11.3003767"><ele>572.0</ele><time>2026-04-18T11:22:49.055Z</time></trkpt><trkpt lat="43.477055" lon="11.30059"><ele>575.75</ele><time>2026-04-18T11:22:50.055Z</time></trkpt><trkpt lat="43.477015" lon="11.3007917"><ele>579.5</ele><time>2026-04-18T11:22:51.054Z</time></trkpt><trkpt lat="43.4769833" lon="11.3009733"><ele>583.25</ele><time>2026-04-18T11:22:52.054Z</time></trkpt><trkpt lat="43.4769733" lon="11.30115"><ele>587.0</ele><time>2026-04-18T11:22:53.055Z</time></trkpt><trkpt lat="43.4770067" lon="11.30132"><ele>587.25</ele><time>2026-04-18T11:22:54.054Z</time></trkpt><trkpt lat="43.4770833" lon="11.3014717"><ele>587.5</ele><time>2026-04-18T11:22:55.054Z</time></trkpt><trkpt lat="43.4771967" lon="11.301605"><ele>587.75</ele><time>2026-04-18T11:22:56.054Z</time></trkpt><trkpt lat="43.4773367" lon="11.3017133"><ele>588.0</ele><time>2026-04-18T11:22:57.054Z</time></trkpt><trkpt lat="43.4774883" lon="11.301815"><ele>585.6666666666666</ele><time>2026-04-18T11:22:58.054Z</time></trkpt><trkpt lat="43.47764" lon="11.3019233"><ele>583.3333333333333</ele><time>2026-04-18T11:22:59.054Z</time></trkpt><trkpt lat="43.4777867" lon="11.302025"><ele>581.0</ele><time>2026-04-18T11:23:00.054Z</time></trkpt><trkpt lat="43.4779183" lon="11.30215"><ele>583.3333333333333</ele><time>2026-04-18T11:23:01.054Z</time></trkpt><trkpt lat="43.4780317" lon="11.3023033"><ele>585.6666666666666</ele><time>2026-04-18T11:23:02.055Z</time></trkpt><trkpt lat="43.47813" lon="11.3024733"><ele>588.0</ele><time>2026-04-18T11:23:03.054Z</time></trkpt><trkpt lat="43.4782067" lon="11.3026867"><ele>588.0</ele><time>2026-04-18T11:23:04.054Z</time></trkpt><trkpt lat="43.478265" lon="11.3029133"><ele>588.0</ele><time>2026-04-18T11:23:05.054Z</time></trkpt><trkpt lat="43.478325" lon="11.30315"><ele>588.0</ele><time>2026-04-18T11:23:06.054Z</time></trkpt><trkpt lat="43.478405" lon="11.303375"><ele>587.6666666666666</ele><time>2026-04-18T11:23:07.055Z</time></trkpt><trkpt lat="43.4785117" lon="11.30359"><ele>587.3333333333333</ele><time>2026-04-18T11:23:08.054Z</time></trkpt><trkpt lat="43.4786283" lon="11.3037833"><ele>587.0</ele><time>2026-04-18T11:23:09.054Z</time></trkpt><trkpt lat="43.4787617" lon="11.3039717"><ele>586.0</ele><time>2026-04-18T11:23:10.055Z</time></trkpt><trkpt lat="43.4788933" lon="11.30415"><ele>585.0</ele><time>2026-04-18T11:23:11.054Z</time></trkpt><trkpt lat="43.4790183" lon="11.3043417"><ele>584.0</ele><time>2026-04-18T11:23:12.055Z</time></trkpt><trkpt lat="43.4791367" lon="11.3045333"><ele>584.0</ele><time>2026-04-18T11:23:13.054Z</time></trkpt><trkpt lat="43.4792533" lon="11.3047317"><ele>584.0</ele><time>2026-04-18T11:23:14.055Z</time></trkpt><trkpt lat="43.47938" lon="11.3049183"><ele>584.0</ele><time>2026-04-18T11:23:15.055Z</time></trkpt><trkpt lat="43.4795117" lon="11.3050867"><ele>582.3333333333333</ele><time>2026-04-18T11:23:16.055Z</time></trkpt><trkpt lat="43.479655" lon="11.305245"><ele>580.6666666666666</ele><time>2026-04-18T11:23:17.055Z</time></trkpt><trkpt lat="43.4797983" lon="11.3053883"><ele>579.0</ele><time>2026-04-18T11:23:18.054Z</time></trkpt><trkpt lat="43.479945" lon="11.305515"><ele>578.6666666666666</ele><time>2026-04-18T11:23:19.054Z</time></trkpt><trkpt lat="43.4800867" lon="11.30562"><ele>578.3333333333333</ele><time>2026-04-18T11:23:20.054Z</time></trkpt><trkpt lat="43.4802283" lon="11.3057183"><ele>578.0</ele><time>2026-04-18T11:23:21.054Z</time></trkpt><trkpt lat="43.480365" lon="11.3057717"><ele>577.75</ele><time>2026-04-18T11:23:22.055Z</time></trkpt><trkpt lat="43.4804917" lon="11.3057517"><ele>577.5</ele><time>2026-04-18T11:23:23.054Z</time></trkpt><trkpt lat="43.4806133" lon="11.30567"><ele>577.25</ele><time>2026-04-18T11:23:24.054Z</time></trkpt><trkpt lat="43.480725" lon="11.3055883"><ele>577.0</ele><time>2026-04-18T11:23:25.055Z</time></trkpt><trkpt lat="43.48083" lon="11.3055383"><ele>577.0</ele><time>2026-04-18T11:23:26.055Z</time></trkpt><trkpt lat="43.4809333" lon="11.3055533"><ele>577.0</ele><time>2026-04-18T11:23:27.054Z</time></trkpt><trkpt lat="43.4810217" lon="11.3056367"><ele>577.0</ele><time>2026-04-18T11:23:28.054Z</time></trkpt><trkpt lat="43.48108" lon="11.3057683"><ele>577.0</ele><time>2026-04-18T11:23:29.054Z</time></trkpt><trkpt lat="43.4810967" lon="11.3059267"><ele>577.0</ele><time>2026-04-18T11:23:30.055Z</time></trkpt><trkpt lat="43.4810717" lon="11.3061133"><ele>578.25</ele><time>2026-04-18T11:23:31.055Z</time></trkpt><trkpt lat="43.4810417" lon="11.3063033"><ele>579.5</ele><time>2026-04-18T11:23:32.055Z</time></trkpt><trkpt lat="43.4810233" lon="11.3065067"><ele>580.75</ele><time>2026-04-18T11:23:33.055Z</time></trkpt><trkpt lat="43.4810183" lon="11.30672"><ele>582.0</ele><time>2026-04-18T11:23:34.054Z</time></trkpt><trkpt lat="43.481025" lon="11.3069317"><ele>583.6666666666666</ele><time>2026-04-18T11:23:35.054Z</time></trkpt><trkpt lat="43.4810467" lon="11.3071567"><ele>585.3333333333333</ele><time>2026-04-18T11:23:36.054Z</time></trkpt><trkpt lat="43.4810733" lon="11.3073833"><ele>587.0</ele><time>2026-04-18T11:23:37.053Z</time></trkpt><trkpt lat="43.4811133" lon="11.30761"><ele>589.3333333333333</ele><time>2026-04-18T11:23:38.054Z</time></trkpt><trkpt lat="43.4811567" lon="11.3078367"><ele>591.6666666666666</ele><time>2026-04-18T11:23:39.053Z</time></trkpt><trkpt lat="43.4812167" lon="11.3080617"><ele>594.0</ele><time>2026-04-18T11:23:40.053Z</time></trkpt><trkpt lat="43.4812817" lon="11.3082817"><ele>596.6666666666666</ele><time>2026-04-18T11:23:41.053Z</time></trkpt><trkpt lat="43.48136" lon="11.3084883"><ele>599.3333333333333</ele><time>2026-04-18T11:23:42.053Z</time></trkpt><trkpt lat="43.4814283" lon="11.308705"><ele>602.0</ele><time>2026-04-18T11:23:43.054Z</time></trkpt><trkpt lat="43.4814883" lon="11.3089233"><ele>602.6666666666666</ele><time>2026-04-18T11:23:44.053Z</time></trkpt><trkpt lat="43.4815283" lon="11.3091483"><ele>603.3333333333334</ele><time>2026-04-18T11:23:45.053Z</time></trkpt><trkpt lat="43.4815333" lon="11.3093833"><ele>604.0</ele><time>2026-04-18T11:23:46.054Z</time></trkpt><trkpt lat="43.48151" lon="11.30962"><ele>604.6666666666667</ele><time>2026-04-18T11:23:47.053Z</time></trkpt><trkpt lat="43.4814867" lon="11.3098533"><ele>605.3333333333334</ele><time>2026-04-18T11:23:48.054Z</time></trkpt><trkpt lat="43.4814533" lon="11.3100717"><ele>606.0</ele><time>2026-04-18T11:23:49.053Z</time></trkpt><trkpt lat="43.48139" lon="11.3102583"><ele>606.0</ele><time>2026-04-18T11:23:50.053Z</time></trkpt><trkpt lat="43.4812933" lon="11.3104033"><ele>606.0</ele><time>2026-04-18T11:23:51.053Z</time></trkpt><trkpt lat="43.4811983" lon="11.31052"><ele>606.0</ele><time>2026-04-18T11:23:52.053Z</time></trkpt><trkpt lat="43.4811267" lon="11.31066"><ele>606.0</ele><time>2026-04-18T11:23:53.053Z</time></trkpt><trkpt lat="43.481095" lon="11.3108317"><ele>606.0</ele><time>2026-04-18T11:23:54.053Z</time></trkpt><trkpt lat="43.4811067" lon="11.311005"><ele>606.0</ele><time>2026-04-18T11:23:55.054Z</time></trkpt><trkpt lat="43.481165" lon="11.311165"><ele>606.0</ele><time>2026-04-18T11:23:56.054Z</time></trkpt><trkpt lat="43.4812683" lon="11.311325"><ele>606.0</ele><time>2026-04-18T11:23:57.053Z</time></trkpt><trkpt lat="43.4813883" lon="11.31148"><ele>606.0</ele><time>2026-04-18T11:23:58.053Z</time></trkpt><trkpt lat="43.48152" lon="11.3116417"><ele>606.0</ele><time>2026-04-18T11:23:59.053Z</time></trkpt><trkpt lat="43.4816467" lon="11.311805"><ele>606.0</ele><time>2026-04-18T11:24:00.053Z</time></trkpt><trkpt lat="43.4817817" lon="11.31194"><ele>606.0</ele><time>2026-04-18T11:24:01.053Z</time></trkpt><trkpt lat="43.4819367" lon="11.3120367"><ele>606.0</ele><time>2026-04-18T11:24:02.054Z</time></trkpt><trkpt lat="43.482115" lon="11.3121"><ele>606.0</ele><time>2026-04-18T11:24:03.053Z</time></trkpt><trkpt lat="43.48229" lon="11.31216"><ele>605.3333333333334</ele><time>2026-04-18T11:24:04.054Z</time></trkpt><trkpt lat="43.4824683" lon="11.3122083"><ele>604.6666666666667</ele><time>2026-04-18T11:24:05.054Z</time></trkpt><trkpt lat="43.4826383" lon="11.3122883"><ele>604.0</ele><time>2026-04-18T11:24:06.053Z</time></trkpt><trkpt lat="43.4827983" lon="11.3123967"><ele>608.3333333333334</ele><time>2026-04-18T11:24:07.053Z</time></trkpt><trkpt lat="43.4829333" lon="11.3125617"><ele>612.6666666666666</ele><time>2026-04-18T11:24:08.054Z</time></trkpt><trkpt lat="43.4830517" lon="11.3127233"><ele>617.0</ele><time>2026-04-18T11:24:09.053Z</time></trkpt><trkpt lat="43.4831617" lon="11.31288"><ele>617.0</ele><time>2026-04-18T11:24:10.053Z</time></trkpt><trkpt lat="43.4832767" lon="11.313005"><ele>617.0</ele><time>2026-04-18T11:24:11.053Z</time></trkpt><trkpt lat="43.4834117" lon="11.31311"><ele>617.0</ele><time>2026-04-18T11:24:12.053Z</time></trkpt><trkpt lat="43.4835583" lon="11.3131967"><ele>613.6666666666666</ele><time>2026-04-18T11:24:13.053Z</time></trkpt><trkpt lat="43.4837183" lon="11.3132483"><ele>610.3333333333334</ele><time>2026-04-18T11:24:14.053Z</time></trkpt><trkpt lat="43.4838833" lon="11.3132767"><ele>607.0</ele><time>2026-04-18T11:24:15.053Z</time></trkpt><trkpt lat="43.4840367" lon="11.313305"><ele>607.0</ele><time>2026-04-18T11:24:16.053Z</time></trkpt><trkpt lat="43.4841883" lon="11.3133367"><ele>607.0</ele><time>2026-04-18T11:24:17.053Z</time></trkpt><trkpt lat="43.4843283" lon="11.3133967"><ele>607.0</ele><time>2026-04-18T11:24:18.053Z</time></trkpt><trkpt lat="43.4844617" lon="11.3134967"><ele>607.0</ele><time>2026-04-18T11:24:19.054Z</time></trkpt><trkpt lat="43.484575" lon="11.3136417"><ele>607.0</ele><time>2026-04-18T11:24:20.053Z</time></trkpt><trkpt lat="43.4846567" lon="11.3138283"><ele>607.0</ele><time>2026-04-18T11:24:21.053Z</time></trkpt><trkpt lat="43.4847067" lon="11.3140383"><ele>609.3333333333334</ele><time>2026-04-18T11:24:22.053Z</time></trkpt><trkpt lat="43.48473" lon="11.3142633"><ele>611.6666666666666</ele><time>2026-04-18T11:24:23.054Z</time></trkpt><trkpt lat="43.48475" lon="11.3144933"><ele>614.0</ele><time>2026-04-18T11:24:24.054Z</time></trkpt><trkpt lat="43.4847833" lon="11.3147217"><ele>610.6666666666666</ele><time>2026-04-18T11:24:25.053Z</time></trkpt><trkpt lat="43.4848333" lon="11.3149433"><ele>607.3333333333334</ele><time>2026-04-18T11:24:26.054Z</time></trkpt><trkpt lat="43.4849067" lon="11.3151217"><ele>604.0</ele><time>2026-04-18T11:24:27.054Z</time></trkpt><trkpt lat="43.485005" lon="11.3152867"><ele>604.0</ele><time>2026-04-18T11:24:28.053Z</time></trkpt><trkpt lat="43.4851317" lon="11.31542"><ele>604.0</ele><time>2026-04-18T11:24:29.053Z</time></trkpt><trkpt lat="43.48527" lon="11.3155317"><ele>604.0</ele><time>2026-04-18T11:24:30.053Z</time></trkpt><trkpt lat="43.485385" lon="11.315655"><ele>604.5</ele><time>2026-04-18T11:24:31.053Z</time></trkpt><trkpt lat="43.4854717" lon="11.3157983"><ele>605.0</ele><time>2026-04-18T11:24:32.054Z</time></trkpt><trkpt lat="43.4855133" lon="11.3159883"><ele>605.5</ele><time>2026-04-18T11:24:33.053Z</time></trkpt><trkpt lat="43.4855233" lon="11.316205"><ele>606.0</ele><time>2026-04-18T11:24:34.053Z</time></trkpt><trkpt lat="43.4855367" lon="11.3164317"><ele>606.0</ele><time>2026-04-18T11:24:35.053Z</time></trkpt><trkpt lat="43.48557" lon="11.3166533"><ele>606.0</ele><time>2026-04-18T11:24:36.053Z</time></trkpt><trkpt lat="43.48563" lon="11.31686"><ele>606.0</ele><time>2026-04-18T11:24:37.053Z</time></trkpt><trkpt lat="43.4857117" lon="11.3170483"><ele>606.0</ele><time>2026-04-18T11:24:38.054Z</time></trkpt><trkpt lat="43.48581" lon="11.3172083"><ele>606.0</ele><time>2026-04-18T11:24:39.053Z</time></trkpt><trkpt lat="43.48591" lon="11.3173533"><ele>606.0</ele><time>2026-04-18T11:24:40.053Z</time></trkpt><trkpt lat="43.4859917" lon="11.3174933"><ele>606.0</ele><time>2026-04-18T11:24:41.054Z</time></trkpt><trkpt lat="43.4860233" lon="11.31765"><ele>604.5</ele><time>2026-04-18T11:24:42.053Z</time></trkpt><trkpt lat="43.4860117" lon="11.31781"><ele>603.0</ele><time>2026-04-18T11:24:43.054Z</time></trkpt><trkpt lat="43.4859517" lon="11.3179683"><ele>601.5</ele><time>2026-04-18T11:24:44.054Z</time></trkpt><trkpt lat="43.4858583" lon="11.3181133"><ele>600.0</ele><time>2026-04-18T11:24:45.054Z</time></trkpt><trkpt lat="43.485755" lon="11.318245"><ele>600.0</ele><time>2026-04-18T11:24:46.053Z</time></trkpt><trkpt lat="43.4856517" lon="11.3183967"><ele>600.0</ele><time>2026-04-18T11:24:47.053Z</time></trkpt><trkpt lat="43.4855433" lon="11.31857"><ele>600.0</ele><time>2026-04-18T11:24:48.054Z</time></trkpt><trkpt lat="43.4854433" lon="11.3187417"><ele>602.0</ele><time>2026-04-18T11:24:49.054Z</time></trkpt><trkpt lat="43.485365" lon="11.3189383"><ele>604.0</ele><time>2026-04-18T11:24:50.053Z</time></trkpt><trkpt lat="43.4852967" lon="11.3191467"><ele>606.0</ele><time>2026-04-18T11:24:51.053Z</time></trkpt><trkpt lat="43.48524" lon="11.319365"><ele>606.0</ele><time>2026-04-18T11:24:52.053Z</time></trkpt><trkpt lat="43.4852017" lon="11.3195867"><ele>606.0</ele><time>2026-04-18T11:24:53.053Z</time></trkpt><trkpt lat="43.485195" lon="11.319805"><ele>606.0</ele><time>2026-04-18T11:24:54.053Z</time></trkpt><trkpt lat="43.485205" lon="11.3200317"><ele>607.0</ele><time>2026-04-18T11:24:55.053Z</time></trkpt><trkpt lat="43.4852167" lon="11.3202567"><ele>608.0</ele><time>2026-04-18T11:24:56.053Z</time></trkpt><trkpt lat="43.4851933" lon="11.320485"><ele>609.0</ele><time>2026-04-18T11:24:57.054Z</time></trkpt><trkpt lat="43.48516" lon="11.3207017"><ele>606.3333333333334</ele><time>2026-04-18T11:24:58.053Z</time></trkpt><trkpt lat="43.4850933" lon="11.320925"><ele>603.6666666666667</ele><time>2026-04-18T11:24:59.053Z</time></trkpt><trkpt lat="43.485015" lon="11.3211433"><ele>601.0</ele><time>2026-04-18T11:25:00.054Z</time></trkpt><trkpt lat="43.4849283" lon="11.3213583"><ele>600.3333333333334</ele><time>2026-04-18T11:25:01.053Z</time></trkpt><trkpt lat="43.4848483" lon="11.321585"><ele>599.6666666666666</ele><time>2026-04-18T11:25:02.053Z</time></trkpt><trkpt lat="43.484775" lon="11.3218183"><ele>599.0</ele><time>2026-04-18T11:25:03.054Z</time></trkpt><trkpt lat="43.484705" lon="11.32206"><ele>600.6666666666666</ele><time>2026-04-18T11:25:04.053Z</time></trkpt><trkpt lat="43.48465" lon="11.322305"><ele>602.3333333333334</ele><time>2026-04-18T11:25:05.053Z</time></trkpt><trkpt lat="43.484595" lon="11.3225567"><ele>604.0</ele><time>2026-04-18T11:25:06.054Z</time></trkpt><trkpt lat="43.4845567" lon="11.3228217"><ele>600.6666666666667</ele><time>2026-04-18T11:25:07.053Z</time></trkpt><trkpt lat="43.4845217" lon="11.3231017"><ele>597.3333333333334</ele><time>2026-04-18T11:25:08.054Z</time></trkpt><trkpt lat="43.484485" lon="11.32338"><ele>594.0</ele><time>2026-04-18T11:25:09.053Z</time></trkpt><trkpt lat="43.4844533" lon="11.3236483"><ele>596.0</ele><time>2026-04-18T11:25:10.053Z</time></trkpt><trkpt lat="43.4844033" lon="11.323915"><ele>598.0</ele><time>2026-04-18T11:25:11.054Z</time></trkpt><trkpt lat="43.48434" lon="11.32417"><ele>600.0</ele><time>2026-04-18T11:25:12.053Z</time></trkpt><trkpt lat="43.4842633" lon="11.32442"><ele>600.0</ele><time>2026-04-18T11:25:13.053Z</time></trkpt><trkpt lat="43.4841733" lon="11.3246467"><ele>600.0</ele><time>2026-04-18T11:25:14.054Z</time></trkpt><trkpt lat="43.4840583" lon="11.324845"><ele>600.0</ele><time>2026-04-18T11:25:15.053Z</time></trkpt><trkpt lat="43.4839117" lon="11.325005"><ele>603.3333333333334</ele><time>2026-04-18T11:25:16.053Z</time></trkpt><trkpt lat="43.483755" lon="11.32514"><ele>606.6666666666667</ele><time>2026-04-18T11:25:17.054Z</time></trkpt><trkpt lat="43.483585" lon="11.3252533"><ele>610.0</ele><time>2026-04-18T11:25:18.054Z</time></trkpt><trkpt lat="43.48342" lon="11.3253617"><ele>610.0</ele><time>2026-04-18T11:25:19.053Z</time></trkpt><trkpt lat="43.483265" lon="11.32546"><ele>610.0</ele><time>2026-04-18T11:25:20.054Z</time></trkpt><trkpt lat="43.4831067" lon="11.32555"><ele>610.0</ele><time>2026-04-18T11:25:21.054Z</time></trkpt><trkpt lat="43.4829483" lon="11.325605"><ele>609.3333333333334</ele><time>2026-04-18T11:25:22.054Z</time></trkpt><trkpt lat="43.48278" lon="11.32562"><ele>608.6666666666666</ele><time>2026-04-18T11:25:23.053Z</time></trkpt><trkpt lat="43.48261" lon="11.3255983"><ele>608.0</ele><time>2026-04-18T11:25:24.053Z</time></trkpt><trkpt lat="43.4824317" lon="11.3255633"><ele>611.0</ele><time>2026-04-18T11:25:25.053Z</time></trkpt><trkpt lat="43.4822517" lon="11.32552"><ele>614.0</ele><time>2026-04-18T11:25:26.054Z</time></trkpt><trkpt lat="43.4820667" lon="11.32548"><ele>617.0</ele><time>2026-04-18T11:25:27.053Z</time></trkpt><trkpt lat="43.4818883" lon="11.32543"><ele>617.0</ele><time>2026-04-18T11:25:28.053Z</time></trkpt><trkpt lat="43.4817183" lon="11.3253917"><ele>617.0</ele><time>2026-04-18T11:25:29.054Z</time></trkpt><trkpt lat="43.4815617" lon="11.32536"><ele>617.0</ele><time>2026-04-18T11:25:30.053Z</time></trkpt><trkpt lat="43.48141" lon="11.32534"><ele>617.0</ele><time>2026-04-18T11:25:31.053Z</time></trkpt><trkpt lat="43.4812683" lon="11.3253483"><ele>617.0</ele><time>2026-04-18T11:25:32.053Z</time></trkpt><trkpt lat="43.4811333" lon="11.3254033"><ele>617.0</ele><time>2026-04-18T11:25:33.054Z</time></trkpt><trkpt lat="43.4810183" lon="11.3255183"><ele>617.0</ele><time>2026-04-18T11:25:34.054Z</time></trkpt><trkpt lat="43.4809083" lon="11.3256883"><ele>616.6666666666666</ele><time>2026-04-18T11:25:35.053Z</time></trkpt><trkpt lat="43.4808067" lon="11.3258867"><ele>616.3333333333334</ele><time>2026-04-18T11:25:36.053Z</time></trkpt><trkpt lat="43.4807" lon="11.3260783"><ele>616.0</ele><time>2026-04-18T11:25:37.053Z</time></trkpt><trkpt lat="43.4805883" lon="11.3262683"><ele>614.75</ele><time>2026-04-18T11:25:38.054Z</time></trkpt><trkpt lat="43.4804867" lon="11.3264383"><ele>613.5</ele><time>2026-04-18T11:25:39.053Z</time></trkpt><trkpt lat="43.4803933" lon="11.3265967"><ele>612.25</ele><time>2026-04-18T11:25:40.053Z</time></trkpt><trkpt lat="43.4803133" lon="11.3267483"><ele>611.0</ele><time>2026-04-18T11:25:41.053Z</time></trkpt><trkpt lat="43.4802583" lon="11.3269117"><ele>611.0</ele><time>2026-04-18T11:25:42.053Z</time></trkpt><trkpt lat="43.48026" lon="11.3271033"><ele>611.0</ele><time>2026-04-18T11:25:43.053Z</time></trkpt><trkpt lat="43.480285" lon="11.32731"><ele>611.0</ele><time>2026-04-18T11:25:44.053Z</time></trkpt><trkpt lat="43.4803333" lon="11.3275333"><ele>610.0</ele><time>2026-04-18T11:25:45.054Z</time></trkpt><trkpt lat="43.4803717" lon="11.3277617"><ele>609.0</ele><time>2026-04-18T11:25:46.053Z</time></trkpt><trkpt lat="43.4803967" lon="11.328"><ele>608.0</ele><time>2026-04-18T11:25:47.053Z</time></trkpt><trkpt lat="43.4804033" lon="11.328225"><ele>608.0</ele><time>2026-04-18T11:25:48.053Z</time></trkpt><trkpt lat="43.480375" lon="11.3284383"><ele>608.0</ele><time>2026-04-18T11:25:49.054Z</time></trkpt><trkpt lat="43.480325" lon="11.3286233"><ele>608.0</ele><time>2026-04-18T11:25:50.054Z</time></trkpt><trkpt lat="43.4802467" lon="11.3287783"><ele>608.0</ele><time>2026-04-18T11:25:51.054Z</time></trkpt><trkpt lat="43.4801333" lon="11.3288917"><ele>610.25</ele><time>2026-04-18T11:25:52.053Z</time></trkpt><trkpt lat="43.479995" lon="11.3289417"><ele>612.5</ele><time>2026-04-18T11:25:53.053Z</time></trkpt><trkpt lat="43.479855" lon="11.32896"><ele>614.75</ele><time>2026-04-18T11:25:54.054Z</time></trkpt><trkpt lat="43.4797267" lon="11.32899"><ele>617.0</ele><time>2026-04-18T11:25:55.053Z</time></trkpt><trkpt lat="43.479605" lon="11.32908"><ele>614.3333333333333</ele><time>2026-04-18T11:25:56.054Z</time></trkpt><trkpt lat="43.4794983" lon="11.329225"><ele>611.6666666666666</ele><time>2026-04-18T11:25:57.054Z</time></trkpt><trkpt lat="43.4794183" lon="11.32941"><ele>609.0</ele><time>2026-04-18T11:25:58.054Z</time></trkpt><trkpt lat="43.479345" lon="11.32961"><ele>612.0</ele><time>2026-04-18T11:25:59.054Z</time></trkpt><trkpt lat="43.4792717" lon="11.3298167"><ele>615.0</ele><time>2026-04-18T11:26:00.054Z</time></trkpt><trkpt lat="43.47922" lon="11.330015"><ele>618.0</ele><time>2026-04-18T11:26:01.054Z</time></trkpt><trkpt lat="43.4791783" lon="11.3302117"><ele>618.0</ele><time>2026-04-18T11:26:02.053Z</time></trkpt><trkpt lat="43.479165" lon="11.330415"><ele>618.0</ele><time>2026-04-18T11:26:03.054Z</time></trkpt><trkpt lat="43.4791767" lon="11.3306333"><ele>618.0</ele><time>2026-04-18T11:26:04.053Z</time></trkpt><trkpt lat="43.47919" lon="11.3308517"><ele>618.5</ele><time>2026-04-18T11:26:05.054Z</time></trkpt><trkpt lat="43.4792033" lon="11.3310567"><ele>619.0</ele><time>2026-04-18T11:26:06.053Z</time></trkpt><trkpt lat="43.479205" lon="11.3312383"><ele>619.5</ele><time>2026-04-18T11:26:07.054Z</time></trkpt><trkpt lat="43.4791883" lon="11.3313983"><ele>620.0</ele><time>2026-04-18T11:26:08.053Z</time></trkpt><trkpt lat="43.47913" lon="11.33155"><ele>619.5</ele><time>2026-04-18T11:26:09.054Z</time></trkpt><trkpt lat="43.4790267" lon="11.331665"><ele>619.0</ele><time>2026-04-18T11:26:10.053Z</time></trkpt><trkpt lat="43.4789017" lon="11.3317517"><ele>618.5</ele><time>2026-04-18T11:26:11.054Z</time></trkpt><trkpt lat="43.4787583" lon="11.3318417"><ele>618.0</ele><time>2026-04-18T11:26:12.053Z</time></trkpt><trkpt lat="43.478605" lon="11.3319433"><ele>618.0</ele><time>2026-04-18T11:26:13.053Z</time></trkpt><trkpt lat="43.4784617" lon="11.332055"><ele>618.0</ele><time>2026-04-18T11:26:14.053Z</time></trkpt><trkpt lat="43.4783183" lon="11.332185"><ele>618.0</ele><time>2026-04-18T11:26:15.054Z</time></trkpt><trkpt lat="43.4781783" lon="11.33234"><ele>616.3333333333334</ele><time>2026-04-18T11:26:16.053Z</time></trkpt><trkpt lat="43.4780333" lon="11.3324883"><ele>614.6666666666667</ele><time>2026-04-18T11:26:17.053Z</time></trkpt><trkpt lat="43.4778883" lon="11.3326167"><ele>613.0</ele><time>2026-04-18T11:26:18.054Z</time></trkpt><trkpt lat="43.4777383" lon="11.3327383"><ele>613.0</ele><time>2026-04-18T11:26:19.053Z</time></trkpt><trkpt lat="43.47759" lon="11.3328433"><ele>613.0</ele><time>2026-04-18T11:26:20.053Z</time></trkpt><trkpt lat="43.477435" lon="11.3329283"><ele>613.0</ele><time>2026-04-18T11:26:21.053Z</time></trkpt><trkpt lat="43.4772733" lon="11.332985"><ele>613.0</ele><time>2026-04-18T11:26:22.053Z</time></trkpt><trkpt lat="43.47711" lon="11.3329867"><ele>613.0</ele><time>2026-04-18T11:26:23.054Z</time></trkpt><trkpt lat="43.47695" lon="11.3329567"><ele>613.0</ele><time>2026-04-18T11:26:24.054Z</time></trkpt><trkpt lat="43.476795" lon="11.3329067"><ele>612.25</ele><time>2026-04-18T11:26:25.054Z</time></trkpt><trkpt lat="43.4766467" lon="11.3328617"><ele>611.5</ele><time>2026-04-18T11:26:26.053Z</time></trkpt><trkpt lat="43.4765217" lon="11.3328483"><ele>610.75</ele><time>2026-04-18T11:26:27.054Z</time></trkpt><trkpt lat="43.4763983" lon="11.3329017"><ele>610.0</ele><time>2026-04-18T11:26:28.053Z</time></trkpt><trkpt lat="43.476285" lon="11.3330133"><ele>608.75</ele><time>2026-04-18T11:26:29.053Z</time></trkpt><trkpt lat="43.47618" lon="11.333165"><ele>607.5</ele><time>2026-04-18T11:26:30.053Z</time></trkpt><trkpt lat="43.4760867" lon="11.3333267"><ele>606.25</ele><time>2026-04-18T11:26:31.052Z</time></trkpt><trkpt lat="43.4759917" lon="11.3334767"><ele>605.0</ele><time>2026-04-18T11:26:32.052Z</time></trkpt><trkpt lat="43.4758817" lon="11.33359"><ele>605.0</ele><time>2026-04-18T11:26:33.052Z</time></trkpt><trkpt lat="43.47575" lon="11.3336617"><ele>605.0</ele><time>2026-04-18T11:26:34.052Z</time></trkpt><trkpt lat="43.47561" lon="11.3337067"><ele>605.0</ele><time>2026-04-18T11:26:35.052Z</time></trkpt><trkpt lat="43.475455" lon="11.33371"><ele>605.0</ele><time>2026-04-18T11:26:36.053Z</time></trkpt><trkpt lat="43.4752883" lon="11.3336967"><ele>604.0</ele><time>2026-04-18T11:26:37.052Z</time></trkpt><trkpt lat="43.4751217" lon="11.3336717"><ele>603.0</ele><time>2026-04-18T11:26:38.052Z</time></trkpt><trkpt lat="43.4749583" lon="11.33365"><ele>602.0</ele><time>2026-04-18T11:26:39.052Z</time></trkpt><trkpt lat="43.4748" lon="11.3336317"><ele>602.0</ele><time>2026-04-18T11:26:40.052Z</time></trkpt><trkpt lat="43.4746533" lon="11.33362"><ele>602.0</ele><time>2026-04-18T11:26:41.053Z</time></trkpt><trkpt lat="43.4745133" lon="11.333605"><ele>602.0</ele><time>2026-04-18T11:26:42.053Z</time></trkpt><trkpt lat="43.47439" lon="11.3335917"><ele>602.0</ele><time>2026-04-18T11:26:43.052Z</time></trkpt><trkpt lat="43.4742683" lon="11.33359"><ele>601.6</ele><time>2026-04-18T11:26:44.053Z</time></trkpt><trkpt lat="43.474165" lon="11.33363"><ele>601.2</ele><time>2026-04-18T11:26:45.053Z</time></trkpt><trkpt lat="43.4740867" lon="11.33372"><ele>600.8</ele><time>2026-04-18T11:26:46.052Z</time></trkpt><trkpt lat="43.4740483" lon="11.3338617"><ele>600.4</ele><time>2026-04-18T11:26:47.052Z</time></trkpt><trkpt lat="43.4740483" lon="11.3340233"><ele>600.0</ele><time>2026-04-18T11:26:48.052Z</time></trkpt><trkpt lat="43.4740933" lon="11.334205"><ele>600.6666666666666</ele><time>2026-04-18T11:26:49.052Z</time></trkpt><trkpt lat="43.4741717" lon="11.3344033"><ele>601.3333333333333</ele><time>2026-04-18T11:26:50.053Z</time></trkpt><trkpt lat="43.4742517" lon="11.33463"><ele>602.0</ele><time>2026-04-18T11:26:51.052Z</time></trkpt><trkpt lat="43.47435" lon="11.3348617"><ele>602.0</ele><time>2026-04-18T11:26:52.052Z</time></trkpt><trkpt lat="43.474455" lon="11.3351083"><ele>602.0</ele><time>2026-04-18T11:26:53.052Z</time></trkpt><trkpt lat="43.4745683" lon="11.33536"><ele>602.0</ele><time>2026-04-18T11:26:54.052Z</time></trkpt><trkpt lat="43.47468" lon="11.335605"><ele>598.3333333333333</ele><time>2026-04-18T11:26:55.052Z</time></trkpt><trkpt lat="43.4747867" lon="11.3358417"><ele>594.6666666666666</ele><time>2026-04-18T11:26:56.052Z</time></trkpt><trkpt lat="43.47489" lon="11.3360617"><ele>591.0</ele><time>2026-04-18T11:26:57.052Z</time></trkpt><trkpt lat="43.475" lon="11.3362667"><ele>594.0</ele><time>2026-04-18T11:26:58.053Z</time></trkpt><trkpt lat="43.4751217" lon="11.3364533"><ele>597.0</ele><time>2026-04-18T11:26:59.053Z</time></trkpt><trkpt lat="43.4752483" lon="11.3366333"><ele>600.0</ele><time>2026-04-18T11:27:00.052Z</time></trkpt><trkpt lat="43.4753667" lon="11.336815"><ele>599.3333333333334</ele><time>2026-04-18T11:27:01.053Z</time></trkpt><trkpt lat="43.475475" lon="11.3369883"><ele>598.6666666666667</ele><time>2026-04-18T11:27:02.053Z</time></trkpt><trkpt lat="43.4755817" lon="11.3371533"><ele>598.0</ele><time>2026-04-18T11:27:03.053Z</time></trkpt><trkpt lat="43.475675" lon="11.337305"><ele>598.0</ele><time>2026-04-18T11:27:04.052Z</time></trkpt><trkpt lat="43.475765" lon="11.3374483"><ele>598.0</ele><time>2026-04-18T11:27:05.053Z</time></trkpt><trkpt lat="43.475835" lon="11.3375817"><ele>598.0</ele><time>2026-04-18T11:27:06.052Z</time></trkpt><trkpt lat="43.4758883" lon="11.3377233"><ele>598.0</ele><time>2026-04-18T11:27:07.052Z</time></trkpt><trkpt lat="43.4759183" lon="11.337865"><ele>598.0</ele><time>2026-04-18T11:27:08.052Z</time></trkpt><trkpt lat="43.4759483" lon="11.3379967"><ele>598.0</ele><time>2026-04-18T11:27:09.053Z</time></trkpt><trkpt lat="43.47599" lon="11.338135"><ele>598.0</ele><time>2026-04-18T11:27:10.052Z</time></trkpt><trkpt lat="43.476015" lon="11.3382933"><ele>598.0</ele><time>2026-04-18T11:27:11.053Z</time></trkpt><trkpt lat="43.4760217" lon="11.338465"><ele>597.0</ele><time>2026-04-18T11:27:12.052Z</time></trkpt><trkpt lat="43.4760067" lon="11.3386583"><ele>596.0</ele><time>2026-04-18T11:27:13.052Z</time></trkpt><trkpt lat="43.4759767" lon="11.338865"><ele>595.0</ele><time>2026-04-18T11:27:14.052Z</time></trkpt><trkpt lat="43.4759317" lon="11.3390783"><ele>593.3333333333334</ele><time>2026-04-18T11:27:15.052Z</time></trkpt><trkpt lat="43.4758833" lon="11.33931"><ele>591.6666666666666</ele><time>2026-04-18T11:27:16.052Z</time></trkpt><trkpt lat="43.4758333" lon="11.3395333"><ele>590.0</ele><time>2026-04-18T11:27:17.053Z</time></trkpt><trkpt lat="43.475785" lon="11.3397483"><ele>590.0</ele><time>2026-04-18T11:27:18.052Z</time></trkpt><trkpt lat="43.475765" lon="11.3399617"><ele>590.0</ele><time>2026-04-18T11:27:19.052Z</time></trkpt><trkpt lat="43.475765" lon="11.34018"><ele>590.0</ele><time>2026-04-18T11:27:20.052Z</time></trkpt><trkpt lat="43.47578" lon="11.3404167"><ele>589.0</ele><time>2026-04-18T11:27:21.053Z</time></trkpt><trkpt lat="43.4757867" lon="11.3406567"><ele>588.0</ele><time>2026-04-18T11:27:22.052Z</time></trkpt><trkpt lat="43.4757783" lon="11.3408967"><ele>587.0</ele><time>2026-04-18T11:27:23.052Z</time></trkpt><trkpt lat="43.475745" lon="11.3411333"><ele>587.0</ele><time>2026-04-18T11:27:24.052Z</time></trkpt><trkpt lat="43.4757" lon="11.34137"><ele>587.0</ele><time>2026-04-18T11:27:25.053Z</time></trkpt><trkpt lat="43.47566" lon="11.34161"><ele>587.0</ele><time>2026-04-18T11:27:26.052Z</time></trkpt><trkpt lat="43.4756267" lon="11.341845"><ele>586.3333333333333</ele><time>2026-04-18T11:27:27.052Z</time></trkpt><trkpt lat="43.4755883" lon="11.34207"><ele>585.6666666666666</ele><time>2026-04-18T11:27:28.052Z</time></trkpt><trkpt lat="43.4755533" lon="11.3422883"><ele>585.0</ele><time>2026-04-18T11:27:29.052Z</time></trkpt><trkpt lat="43.4755233" lon="11.342505"><ele>584.3333333333334</ele><time>2026-04-18T11:27:30.052Z</time></trkpt><trkpt lat="43.4755083" lon="11.342715"><ele>583.6666666666667</ele><time>2026-04-18T11:27:31.052Z</time></trkpt><trkpt lat="43.4755267" lon="11.342925"><ele>583.0</ele><time>2026-04-18T11:27:32.052Z</time></trkpt><trkpt lat="43.4755733" lon="11.34314"><ele>581.3333333333334</ele><time>2026-04-18T11:27:33.053Z</time></trkpt><trkpt lat="43.47564" lon="11.3433567"><ele>579.6666666666666</ele><time>2026-04-18T11:27:34.053Z</time></trkpt><trkpt lat="43.4757133" lon="11.34357"><ele>578.0</ele><time>2026-04-18T11:27:35.053Z</time></trkpt><trkpt lat="43.4757767" lon="11.3438"><ele>577.6666666666666</ele><time>2026-04-18T11:27:36.052Z</time></trkpt><trkpt lat="43.4758117" lon="11.3440283"><ele>577.3333333333334</ele><time>2026-04-18T11:27:37.053Z</time></trkpt><trkpt lat="43.475825" lon="11.3442633"><ele>577.0</ele><time>2026-04-18T11:27:38.052Z</time></trkpt><trkpt lat="43.47582" lon="11.3445"><ele>576.0</ele><time>2026-04-18T11:27:39.052Z</time></trkpt><trkpt lat="43.4757833" lon="11.34473"><ele>575.0</ele><time>2026-04-18T11:27:40.052Z</time></trkpt><trkpt lat="43.4757217" lon="11.3449667"><ele>574.0</ele><time>2026-04-18T11:27:41.053Z</time></trkpt><trkpt lat="43.4756417" lon="11.3452067"><ele>574.0</ele><time>2026-04-18T11:27:42.052Z</time></trkpt><trkpt lat="43.4755733" lon="11.3454383"><ele>574.0</ele><time>2026-04-18T11:27:43.053Z</time></trkpt><trkpt lat="43.4755117" lon="11.3456583"><ele>574.0</ele><time>2026-04-18T11:27:44.052Z</time></trkpt><trkpt lat="43.47545" lon="11.3458733"><ele>576.5</ele><time>2026-04-18T11:27:45.052Z</time></trkpt><trkpt lat="43.4753867" lon="11.3460667"><ele>579.0</ele><time>2026-04-18T11:27:46.052Z</time></trkpt><trkpt lat="43.4753317" lon="11.34624"><ele>581.5</ele><time>2026-04-18T11:27:47.052Z</time></trkpt><trkpt lat="43.4752933" lon="11.3463917"><ele>584.0</ele><time>2026-04-18T11:27:48.053Z</time></trkpt><trkpt lat="43.4752883" lon="11.3465417"><ele>584.25</ele><time>2026-04-18T11:27:49.053Z</time></trkpt><trkpt lat="43.475325" lon="11.34668"><ele>584.5</ele><time>2026-04-18T11:27:50.052Z</time></trkpt><trkpt lat="43.475405" lon="11.3467783"><ele>584.75</ele><time>2026-04-18T11:27:51.053Z</time></trkpt><trkpt lat="43.4755133" lon="11.346835"><ele>585.0</ele><time>2026-04-18T11:27:52.052Z</time></trkpt><trkpt lat="43.4756367" lon="11.3468317"><ele>580.0</ele><time>2026-04-18T11:27:53.053Z</time></trkpt><trkpt lat="43.4757733" lon="11.3467933"><ele>575.0</ele><time>2026-04-18T11:27:54.053Z</time></trkpt><trkpt lat="43.4759267" lon="11.346745"><ele>570.0</ele><time>2026-04-18T11:27:55.053Z</time></trkpt><trkpt lat="43.4760883" lon="11.346715"><ele>570.0</ele><time>2026-04-18T11:27:56.052Z</time></trkpt><trkpt lat="43.47625" lon="11.3467017"><ele>570.0</ele><time>2026-04-18T11:27:57.053Z</time></trkpt><trkpt lat="43.4763867" lon="11.3467267"><ele>570.0</ele><time>2026-04-18T11:27:58.052Z</time></trkpt><trkpt lat="43.476515" lon="11.3467967"><ele>570.0</ele><time>2026-04-18T11:27:59.052Z</time></trkpt><trkpt lat="43.4766217" lon="11.3469183"><ele>570.6666666666666</ele><time>2026-04-18T11:28:00.053Z</time></trkpt><trkpt lat="43.4767083" lon="11.347075"><ele>571.3333333333333</ele><time>2026-04-18T11:28:01.052Z</time></trkpt><trkpt lat="43.4767733" lon="11.3472767"><ele>572.0</ele><time>2026-04-18T11:28:02.053Z</time></trkpt><trkpt lat="43.4768267" lon="11.3475"><ele>572.0</ele><time>2026-04-18T11:28:03.053Z</time></trkpt><trkpt lat="43.4768683" lon="11.347745"><ele>572.0</ele><time>2026-04-18T11:28:04.052Z</time></trkpt><trkpt lat="43.4769067" lon="11.348"><ele>572.0</ele><time>2026-04-18T11:28:05.052Z</time></trkpt><trkpt lat="43.4769317" lon="11.3482317"><ele>573.5</ele><time>2026-04-18T11:28:06.053Z</time></trkpt><trkpt lat="43.4769517" lon="11.34845"><ele>575.0</ele><time>2026-04-18T11:28:07.052Z</time></trkpt><trkpt lat="43.4769883" lon="11.3486483"><ele>576.5</ele><time>2026-04-18T11:28:08.052Z</time></trkpt><trkpt lat="43.4770367" lon="11.3488283"><ele>578.0</ele><time>2026-04-18T11:28:09.052Z</time></trkpt><trkpt lat="43.4771133" lon="11.3489883"><ele>572.0</ele><time>2026-04-18T11:28:10.053Z</time></trkpt><trkpt lat="43.4772217" lon="11.3491383"><ele>566.0</ele><time>2026-04-18T11:28:11.053Z</time></trkpt><trkpt lat="43.477335" lon="11.3492817"><ele>560.0</ele><time>2026-04-18T11:28:12.053Z</time></trkpt><trkpt lat="43.4774467" lon="11.3494383"><ele>560.0</ele><time>2026-04-18T11:28:13.052Z</time></trkpt><trkpt lat="43.4775333" lon="11.349605"><ele>560.0</ele><time>2026-04-18T11:28:14.053Z</time></trkpt><trkpt lat="43.477575" lon="11.3497883"><ele>560.0</ele><time>2026-04-18T11:28:15.053Z</time></trkpt><trkpt lat="43.4775717" lon="11.3499817"><ele>560.0</ele><time>2026-04-18T11:28:16.053Z</time></trkpt><trkpt lat="43.4775483" lon="11.3501933"><ele>563.0</ele><time>2026-04-18T11:28:17.052Z</time></trkpt><trkpt lat="43.47751" lon="11.350415"><ele>566.0</ele><time>2026-04-18T11:28:18.053Z</time></trkpt><trkpt lat="43.4775017" lon="11.3506433"><ele>569.0</ele><time>2026-04-18T11:28:19.052Z</time></trkpt><trkpt lat="43.4775067" lon="11.3508767"><ele>570.0</ele><time>2026-04-18T11:28:20.052Z</time></trkpt><trkpt lat="43.4775467" lon="11.35109"><ele>571.0</ele><time>2026-04-18T11:28:21.053Z</time></trkpt><trkpt lat="43.477605" lon="11.3512867"><ele>572.0</ele><time>2026-04-18T11:28:22.052Z</time></trkpt><trkpt lat="43.4776733" lon="11.3514717"><ele>573.75</ele><time>2026-04-18T11:28:23.052Z</time></trkpt><trkpt lat="43.477765" lon="11.35164"><ele>575.5</ele><time>2026-04-18T11:28:24.052Z</time></trkpt><trkpt lat="43.4778483" lon="11.3518083"><ele>577.25</ele><time>2026-04-18T11:28:25.052Z</time></trkpt><trkpt lat="43.4778967" lon="11.3519967"><ele>579.0</ele><time>2026-04-18T11:28:26.052Z</time></trkpt><trkpt lat="43.4779117" lon="11.3522017"><ele>580.6666666666666</ele><time>2026-04-18T11:28:27.052Z</time></trkpt><trkpt lat="43.4779017" lon="11.35242"><ele>582.3333333333333</ele><time>2026-04-18T11:28:28.052Z</time></trkpt><trkpt lat="43.4778933" lon="11.3526233"><ele>584.0</ele><time>2026-04-18T11:28:29.053Z</time></trkpt><trkpt lat="43.4779167" lon="11.3528267"><ele>575.6666666666666</ele><time>2026-04-18T11:28:30.053Z</time></trkpt><trkpt lat="43.4779767" lon="11.3530183"><ele>567.3333333333334</ele><time>2026-04-18T11:28:31.052Z</time></trkpt><trkpt lat="43.4780783" lon="11.3531967"><ele>559.0</ele><time>2026-04-18T11:28:32.052Z</time></trkpt><trkpt lat="43.478185" lon="11.3533967"><ele>559.0</ele><time>2026-04-18T11:28:33.052Z</time></trkpt><trkpt lat="43.4782833" lon="11.353605"><ele>559.0</ele><time>2026-04-18T11:28:34.052Z</time></trkpt><trkpt lat="43.478375" lon="11.3538217"><ele>559.0</ele><time>2026-04-18T11:28:35.052Z</time></trkpt><trkpt lat="43.4784583" lon="11.3540417"><ele>559.6666666666667</ele><time>2026-04-18T11:28:36.053Z</time></trkpt><trkpt lat="43.47852" lon="11.35427"><ele>560.3333333333334</ele><time>2026-04-18T11:28:37.053Z</time></trkpt><trkpt lat="43.4785917" lon="11.3545"><ele>561.0</ele><time>2026-04-18T11:28:38.053Z</time></trkpt><trkpt lat="43.4786417" lon="11.3547317"><ele>561.0</ele><time>2026-04-18T11:28:39.052Z</time></trkpt><trkpt lat="43.4786783" lon="11.354975"><ele>561.0</ele><time>2026-04-18T11:28:40.053Z</time></trkpt><trkpt lat="43.478715" lon="11.3551817"><ele>561.0</ele><time>2026-04-18T11:28:41.052Z</time></trkpt><trkpt lat="43.4787517" lon="11.35537"><ele>560.8</ele><time>2026-04-18T11:28:42.053Z</time></trkpt><trkpt lat="43.4787767" lon="11.3555317"><ele>560.6</ele><time>2026-04-18T11:28:43.053Z</time></trkpt><trkpt lat="43.4788" lon="11.3556767"><ele>560.4</ele><time>2026-04-18T11:28:44.052Z</time></trkpt><trkpt lat="43.4788167" lon="11.3557917"><ele>560.2</ele><time>2026-04-18T11:28:45.052Z</time></trkpt><trkpt lat="43.47883" lon="11.3558967"><ele>560.0</ele><time>2026-04-18T11:28:46.053Z</time></trkpt><trkpt lat="43.4788417" lon="11.3559883"><ele>560.0</ele><time>2026-04-18T11:28:47.052Z</time></trkpt><trkpt lat="43.47886" lon="11.3561067"><ele>560.0</ele><time>2026-04-18T11:28:49.052Z</time></trkpt><trkpt lat="43.4788767" lon="11.355975"><ele>560.0</ele><time>2026-04-18T11:28:58.052Z</time></trkpt><trkpt lat="43.478855" lon="11.355815"><ele>560.0</ele><time>2026-04-18T11:29:00.052Z</time></trkpt><trkpt lat="43.4788417" lon="11.35573"><ele>560.0</ele><time>2026-04-18T11:29:01.053Z</time></trkpt><trkpt lat="43.4788117" lon="11.3555767"><ele>559.0</ele><time>2026-04-18T11:29:03.052Z</time></trkpt><trkpt lat="43.4787967" lon="11.35544"><ele>558.0</ele><time>2026-04-18T11:29:05.053Z</time></trkpt><trkpt lat="43.4788217" lon="11.3553433"><ele>557.0</ele><time>2026-04-18T11:29:08.052Z</time></trkpt><trkpt lat="43.4789167" lon="11.355335"><ele>556.0</ele><time>2026-04-18T11:29:11.052Z</time></trkpt><trkpt lat="43.4790267" lon="11.3553667"><ele>555.0</ele><time>2026-04-18T11:29:13.052Z</time></trkpt><trkpt lat="43.4790917" lon="11.3553783"><ele>554.0</ele><time>2026-04-18T11:29:14.052Z</time></trkpt><trkpt lat="43.4791567" lon="11.3553883"><ele>554.0</ele><time>2026-04-18T11:29:15.053Z</time></trkpt><trkpt lat="43.4792183" lon="11.3554117"><ele>554.0</ele><time>2026-04-18T11:29:16.052Z</time></trkpt><trkpt lat="43.4792917" lon="11.3554433"><ele>554.0</ele><time>2026-04-18T11:29:17.053Z</time></trkpt><trkpt lat="43.479365" lon="11.3554767"><ele>554.0</ele><time>2026-04-18T11:29:18.052Z</time></trkpt><trkpt lat="43.4794433" lon="11.3555067"><ele>554.0</ele><time>2026-04-18T11:29:19.052Z</time></trkpt><trkpt lat="43.4795083" lon="11.35556"><ele>554.0</ele><time>2026-04-18T11:29:20.052Z</time></trkpt><trkpt lat="43.479575" lon="11.355635"><ele>552.6</ele><time>2026-04-18T11:29:21.052Z</time></trkpt><trkpt lat="43.479645" lon="11.3557267"><ele>551.2</ele><time>2026-04-18T11:29:22.052Z</time></trkpt><trkpt lat="43.4797183" lon="11.3558217"><ele>549.8000000000001</ele><time>2026-04-18T11:29:23.053Z</time></trkpt><trkpt lat="43.479795" lon="11.35592"><ele>548.4</ele><time>2026-04-18T11:29:24.052Z</time></trkpt><trkpt lat="43.4798783" lon="11.356005"><ele>547.0</ele><time>2026-04-18T11:29:25.052Z</time></trkpt><trkpt lat="43.4799767" lon="11.356085"><ele>547.0</ele><time>2026-04-18T11:29:26.052Z</time></trkpt><trkpt lat="43.4800633" lon="11.3561567"><ele>547.0</ele><time>2026-04-18T11:29:27.052Z</time></trkpt><trkpt lat="43.48015" lon="11.3562133"><ele>547.0</ele><time>2026-04-18T11:29:28.053Z</time></trkpt><trkpt lat="43.48025" lon="11.35626"><ele>547.0</ele><time>2026-04-18T11:29:29.052Z</time></trkpt><trkpt lat="43.48035" lon="11.3563033"><ele>547.0</ele><time>2026-04-18T11:29:30.052Z</time></trkpt><trkpt lat="43.4804483" lon="11.356325"><ele>547.8000000000001</ele><time>2026-04-18T11:29:31.053Z</time></trkpt><trkpt lat="43.480555" lon="11.35634"><ele>548.6</ele><time>2026-04-18T11:29:32.052Z</time></trkpt><trkpt lat="43.480665" lon="11.3563517"><ele>549.4000000000001</ele><time>2026-04-18T11:29:33.053Z</time></trkpt><trkpt lat="43.4807817" lon="11.356365"><ele>550.2</ele><time>2026-04-18T11:29:34.052Z</time></trkpt><trkpt lat="43.480885" lon="11.356375"><ele>551.0</ele><time>2026-04-18T11:29:35.053Z</time></trkpt><trkpt lat="43.4809783" lon="11.3563883"><ele>551.0</ele><time>2026-04-18T11:29:36.052Z</time></trkpt><trkpt lat="43.4810733" lon="11.356425"><ele>551.0</ele><time>2026-04-18T11:29:37.052Z</time></trkpt><trkpt lat="43.48116" lon="11.3564817"><ele>551.0</ele><time>2026-04-18T11:29:38.052Z</time></trkpt><trkpt lat="43.4812417" lon="11.3565617"><ele>551.0</ele><time>2026-04-18T11:29:39.052Z</time></trkpt><trkpt lat="43.48133" lon="11.35664"><ele>551.0</ele><time>2026-04-18T11:29:40.052Z</time></trkpt><trkpt lat="43.4814267" lon="11.3567217"><ele>548.8</ele><time>2026-04-18T11:29:41.052Z</time></trkpt><trkpt lat="43.481535" lon="11.356785"><ele>546.6</ele><time>2026-04-18T11:29:42.053Z</time></trkpt><trkpt lat="43.4816367" lon="11.35684"><ele>544.4</ele><time>2026-04-18T11:29:43.052Z</time></trkpt><trkpt lat="43.481745" lon="11.3568883"><ele>542.2</ele><time>2026-04-18T11:29:44.053Z</time></trkpt><trkpt lat="43.48185" lon="11.356925"><ele>540.0</ele><time>2026-04-18T11:29:45.053Z</time></trkpt><trkpt lat="43.4819567" lon="11.35695"><ele>540.0</ele><time>2026-04-18T11:29:46.052Z</time></trkpt><trkpt lat="43.4820567" lon="11.356965"><ele>540.0</ele><time>2026-04-18T11:29:47.052Z</time></trkpt><trkpt lat="43.4821567" lon="11.3569733"><ele>540.0</ele><time>2026-04-18T11:29:48.052Z</time></trkpt><trkpt lat="43.4822567" lon="11.3569833"><ele>540.0</ele><time>2026-04-18T11:29:49.051Z</time></trkpt><trkpt lat="43.482355" lon="11.3570233"><ele>540.0</ele><time>2026-04-18T11:29:50.051Z</time></trkpt><trkpt lat="43.4824467" lon="11.3570867"><ele>538.2</ele><time>2026-04-18T11:29:51.051Z</time></trkpt><trkpt lat="43.4825367" lon="11.3571583"><ele>536.4</ele><time>2026-04-18T11:29:52.052Z</time></trkpt><trkpt lat="43.4826083" lon="11.3572583"><ele>534.6</ele><time>2026-04-18T11:29:53.052Z</time></trkpt><trkpt lat="43.4826667" lon="11.3573717"><ele>532.8</ele><time>2026-04-18T11:29:54.051Z</time></trkpt><trkpt lat="43.4827167" lon="11.3574883"><ele>531.0</ele><time>2026-04-18T11:29:55.051Z</time></trkpt><trkpt lat="43.4827767" lon="11.3576083"><ele>531.4</ele><time>2026-04-18T11:29:56.051Z</time></trkpt><trkpt lat="43.4828467" lon="11.35772"><ele>531.8</ele><time>2026-04-18T11:29:57.051Z</time></trkpt><trkpt lat="43.4829217" lon="11.3578217"><ele>532.1999999999999</ele><time>2026-04-18T11:29:58.051Z</time></trkpt><trkpt lat="43.4829983" lon="11.3579083"><ele>532.6</ele><time>2026-04-18T11:29:59.052Z</time></trkpt><trkpt lat="43.4830633" lon="11.3579967"><ele>533.0</ele><time>2026-04-18T11:30:00.051Z</time></trkpt><trkpt lat="43.483125" lon="11.35807"><ele>535.5</ele><time>2026-04-18T11:30:01.052Z</time></trkpt><trkpt lat="43.4831783" lon="11.3581417"><ele>538.0</ele><time>2026-04-18T11:30:02.052Z</time></trkpt><trkpt lat="43.4832267" lon="11.35821"><ele>540.5</ele><time>2026-04-18T11:30:03.051Z</time></trkpt><trkpt lat="43.48327" lon="11.3582867"><ele>543.0</ele><time>2026-04-18T11:30:04.051Z</time></trkpt><trkpt lat="43.4833117" lon="11.3583767"><ele>545.5</ele><time>2026-04-18T11:30:05.051Z</time></trkpt><trkpt lat="43.483345" lon="11.3584783"><ele>548.0</ele><time>2026-04-18T11:30:06.051Z</time></trkpt><trkpt lat="43.4833733" lon="11.3585967"><ele>548.0</ele><time>2026-04-18T11:30:07.052Z</time></trkpt><trkpt lat="43.4834067" lon="11.358715"><ele>548.0</ele><time>2026-04-18T11:30:08.051Z</time></trkpt><trkpt lat="43.4834367" lon="11.3588367"><ele>548.0</ele><time>2026-04-18T11:30:09.051Z</time></trkpt><trkpt lat="43.4834683" lon="11.35896"><ele>548.0</ele><time>2026-04-18T11:30:10.052Z</time></trkpt><trkpt lat="43.4835067" lon="11.359085"><ele>548.0</ele><time>2026-04-18T11:30:11.051Z</time></trkpt><trkpt lat="43.4835267" lon="11.3592017"><ele>549.1999999999999</ele><time>2026-04-18T11:30:12.052Z</time></trkpt><trkpt lat="43.4835467" lon="11.3593233"><ele>550.4</ele><time>2026-04-18T11:30:13.051Z</time></trkpt><trkpt lat="43.4835467" lon="11.3594517"><ele>551.5999999999999</ele><time>2026-04-18T11:30:14.051Z</time></trkpt><trkpt lat="43.4835383" lon="11.3595767"><ele>552.8</ele><time>2026-04-18T11:30:15.052Z</time></trkpt><trkpt lat="43.4835117" lon="11.359705"><ele>554.0</ele><time>2026-04-18T11:30:16.052Z</time></trkpt><trkpt lat="43.483505" lon="11.3598333"><ele>554.6</ele><time>2026-04-18T11:30:17.052Z</time></trkpt><trkpt lat="43.48351" lon="11.3599517"><ele>555.2</ele><time>2026-04-18T11:30:18.052Z</time></trkpt><trkpt lat="43.483535" lon="11.3600717"><ele>555.8000000000001</ele><time>2026-04-18T11:30:19.051Z</time></trkpt><trkpt lat="43.4835733" lon="11.3601967"><ele>556.4</ele><time>2026-04-18T11:30:20.051Z</time></trkpt><trkpt lat="43.483625" lon="11.3603183"><ele>557.0</ele><time>2026-04-18T11:30:21.051Z</time></trkpt><trkpt lat="43.4836867" lon="11.36045"><ele>559.5</ele><time>2026-04-18T11:30:22.051Z</time></trkpt><trkpt lat="43.4837467" lon="11.3605867"><ele>562.0</ele><time>2026-04-18T11:30:23.052Z</time></trkpt><trkpt lat="43.4838117" lon="11.3607133"><ele>564.5</ele><time>2026-04-18T11:30:24.052Z</time></trkpt><trkpt lat="43.483885" lon="11.3608417"><ele>567.0</ele><time>2026-04-18T11:30:25.051Z</time></trkpt><trkpt lat="43.483965" lon="11.3609633"><ele>561.5</ele><time>2026-04-18T11:30:26.052Z</time></trkpt><trkpt lat="43.484045" lon="11.3610833"><ele>556.0</ele><time>2026-04-18T11:30:27.052Z</time></trkpt><trkpt lat="43.484135" lon="11.3612083"><ele>550.5</ele><time>2026-04-18T11:30:28.052Z</time></trkpt><trkpt lat="43.4842167" lon="11.3613317"><ele>545.0</ele><time>2026-04-18T11:30:29.051Z</time></trkpt><trkpt lat="43.4842967" lon="11.3614433"><ele>545.0</ele><time>2026-04-18T11:30:30.051Z</time></trkpt><trkpt lat="43.4843667" lon="11.3615633"><ele>545.0</ele><time>2026-04-18T11:30:31.052Z</time></trkpt><trkpt lat="43.4844367" lon="11.36168"><ele>545.0</ele><time>2026-04-18T11:30:32.051Z</time></trkpt><trkpt lat="43.4844817" lon="11.3618033"><ele>545.0</ele><time>2026-04-18T11:30:33.052Z</time></trkpt><trkpt lat="43.4845183" lon="11.3619267"><ele>545.0</ele><time>2026-04-18T11:30:34.051Z</time></trkpt><trkpt lat="43.4845383" lon="11.3620667"><ele>544.0</ele><time>2026-04-18T11:30:35.051Z</time></trkpt><trkpt lat="43.484555" lon="11.36222"><ele>543.0</ele><time>2026-04-18T11:30:36.051Z</time></trkpt><trkpt lat="43.4845633" lon="11.3623917"><ele>542.0</ele><time>2026-04-18T11:30:37.052Z</time></trkpt><trkpt lat="43.48457" lon="11.3625617"><ele>541.0</ele><time>2026-04-18T11:30:38.051Z</time></trkpt><trkpt lat="43.4845783" lon="11.362735"><ele>541.0</ele><time>2026-04-18T11:30:39.051Z</time></trkpt><trkpt lat="43.4845883" lon="11.3629033"><ele>541.0</ele><time>2026-04-18T11:30:40.051Z</time></trkpt><trkpt lat="43.4845983" lon="11.36307"><ele>541.0</ele><time>2026-04-18T11:30:41.051Z</time></trkpt><trkpt lat="43.4846117" lon="11.36323"><ele>541.0</ele><time>2026-04-18T11:30:42.051Z</time></trkpt><trkpt lat="43.4846333" lon="11.363385"><ele>534.2</ele><time>2026-04-18T11:30:43.052Z</time></trkpt><trkpt lat="43.4846533" lon="11.3635283"><ele>527.4000000000001</ele><time>2026-04-18T11:30:44.051Z</time></trkpt><trkpt lat="43.4846733" lon="11.3636717"><ele>520.6</ele><time>2026-04-18T11:30:45.051Z</time></trkpt><trkpt lat="43.4846783" lon="11.3638"><ele>513.8000000000001</ele><time>2026-04-18T11:30:46.051Z</time></trkpt><trkpt lat="43.4846917" lon="11.36394"><ele>507.0</ele><time>2026-04-18T11:30:47.052Z</time></trkpt><trkpt lat="43.48471" lon="11.3640683"><ele>506.8</ele><time>2026-04-18T11:30:48.051Z</time></trkpt><trkpt lat="43.4847417" lon="11.3642067"><ele>506.6</ele><time>2026-04-18T11:30:49.051Z</time></trkpt><trkpt lat="43.4847783" lon="11.36435"><ele>506.40000000000003</ele><time>2026-04-18T11:30:50.051Z</time></trkpt><trkpt lat="43.4848267" lon="11.3644817"><ele>506.20000000000005</ele><time>2026-04-18T11:30:51.051Z</time></trkpt><trkpt lat="43.4848633" lon="11.3646083"><ele>506.0</ele><time>2026-04-18T11:30:52.051Z</time></trkpt><trkpt lat="43.4848933" lon="11.364735"><ele>505.6</ele><time>2026-04-18T11:30:53.052Z</time></trkpt><trkpt lat="43.4849067" lon="11.3648633"><ele>505.20000000000005</ele><time>2026-04-18T11:30:54.051Z</time></trkpt><trkpt lat="43.4849083" lon="11.3649917"><ele>504.79999999999995</ele><time>2026-04-18T11:30:55.051Z</time></trkpt><trkpt lat="43.4848967" lon="11.3651233"><ele>504.4</ele><time>2026-04-18T11:30:56.052Z</time></trkpt><trkpt lat="43.4848767" lon="11.365255"><ele>504.0</ele><time>2026-04-18T11:30:57.051Z</time></trkpt><trkpt lat="43.4848483" lon="11.3653683"><ele>504.0</ele><time>2026-04-18T11:30:58.052Z</time></trkpt><trkpt lat="43.4848067" lon="11.365475"><ele>504.0</ele><time>2026-04-18T11:30:59.051Z</time></trkpt><trkpt lat="43.4847633" lon="11.365575"><ele>504.0</ele><time>2026-04-18T11:31:00.051Z</time></trkpt><trkpt lat="43.48472" lon="11.3656767"><ele>504.0</ele><time>2026-04-18T11:31:01.051Z</time></trkpt><trkpt lat="43.4846933" lon="11.3657667"><ele>504.0</ele><time>2026-04-18T11:31:02.051Z</time></trkpt><trkpt lat="43.484665" lon="11.3658517"><ele>504.0</ele><time>2026-04-18T11:31:03.051Z</time></trkpt><trkpt lat="43.4846217" lon="11.365965"><ele>503.5</ele><time>2026-04-18T11:31:05.052Z</time></trkpt><trkpt lat="43.48454" lon="11.36594"><ele>503.0</ele><time>2026-04-18T11:31:09.051Z</time></trkpt><trkpt lat="43.48447" lon="11.3658383"><ele>502.5</ele><time>2026-04-18T11:31:12.052Z</time></trkpt><trkpt lat="43.48443" lon="11.3657633"><ele>502.0</ele><time>2026-04-18T11:31:13.052Z</time></trkpt><trkpt lat="43.4843767" lon="11.3656833"><ele>501.5</ele><time>2026-04-18T11:31:14.051Z</time></trkpt><trkpt lat="43.48432" lon="11.36561"><ele>501.0</ele><time>2026-04-18T11:31:15.051Z</time></trkpt><trkpt lat="43.4842433" lon="11.3655483"><ele>501.0</ele><time>2026-04-18T11:31:16.051Z</time></trkpt><trkpt lat="43.484165" lon="11.3654983"><ele>501.0</ele><time>2026-04-18T11:31:17.051Z</time></trkpt><trkpt lat="43.4840867" lon="11.3654667"><ele>501.0</ele><time>2026-04-18T11:31:18.051Z</time></trkpt><trkpt lat="43.48402" lon="11.3654617"><ele>501.0</ele><time>2026-04-18T11:31:19.051Z</time></trkpt><trkpt lat="43.4839483" lon="11.3654933"><ele>501.0</ele><time>2026-04-18T11:31:20.051Z</time></trkpt><trkpt lat="43.4838717" lon="11.3655683"><ele>501.0</ele><time>2026-04-18T11:31:21.051Z</time></trkpt><trkpt lat="43.483795" lon="11.36567"><ele>502.5</ele><time>2026-04-18T11:31:22.052Z</time></trkpt><trkpt lat="43.483715" lon="11.365785"><ele>504.0</ele><time>2026-04-18T11:31:23.051Z</time></trkpt><trkpt lat="43.48363" lon="11.365905"><ele>505.5</ele><time>2026-04-18T11:31:24.052Z</time></trkpt><trkpt lat="43.4835467" lon="11.3660217"><ele>507.0</ele><time>2026-04-18T11:31:25.051Z</time></trkpt><trkpt lat="43.4834667" lon="11.36613"><ele>507.0</ele><time>2026-04-18T11:31:26.051Z</time></trkpt><trkpt lat="43.4833867" lon="11.366225"><ele>507.00000000000006</ele><time>2026-04-18T11:31:27.051Z</time></trkpt><trkpt lat="43.4832917" lon="11.3663117"><ele>507.00000000000006</ele><time>2026-04-18T11:31:28.051Z</time></trkpt><trkpt lat="43.483205" lon="11.3663867"><ele>507.0</ele><time>2026-04-18T11:31:29.052Z</time></trkpt><trkpt lat="43.4831033" lon="11.3664383"><ele>507.0</ele><time>2026-04-18T11:31:30.051Z</time></trkpt><trkpt lat="43.4829917" lon="11.3664583"><ele>503.25</ele><time>2026-04-18T11:31:31.051Z</time></trkpt><trkpt lat="43.4828767" lon="11.366445"><ele>499.5</ele><time>2026-04-18T11:31:32.051Z</time></trkpt><trkpt lat="43.4827567" lon="11.3664183"><ele>495.75</ele><time>2026-04-18T11:31:33.051Z</time></trkpt><trkpt lat="43.4826317" lon="11.3663867"><ele>492.0</ele><time>2026-04-18T11:31:34.052Z</time></trkpt><trkpt lat="43.4825067" lon="11.3663683"><ele>492.0</ele><time>2026-04-18T11:31:35.051Z</time></trkpt><trkpt lat="43.4823867" lon="11.3663567"><ele>492.0</ele><time>2026-04-18T11:31:36.051Z</time></trkpt><trkpt lat="43.4822767" lon="11.3663933"><ele>492.0</ele><time>2026-04-18T11:31:37.052Z</time></trkpt><trkpt lat="43.4821717" lon="11.3664767"><ele>492.0</ele><time>2026-04-18T11:31:38.052Z</time></trkpt><trkpt lat="43.4820767" lon="11.3665967"><ele>493.0</ele><time>2026-04-18T11:31:39.051Z</time></trkpt><trkpt lat="43.4819883" lon="11.3667283"><ele>494.0</ele><time>2026-04-18T11:31:40.052Z</time></trkpt><trkpt lat="43.4819117" lon="11.3668517"><ele>495.0</ele><time>2026-04-18T11:31:41.051Z</time></trkpt><trkpt lat="43.481835" lon="11.36695"><ele>496.0</ele><time>2026-04-18T11:31:42.051Z</time></trkpt><trkpt lat="43.4817333" lon="11.36703"><ele>496.0</ele><time>2026-04-18T11:31:43.052Z</time></trkpt><trkpt lat="43.481615" lon="11.367075"><ele>496.0</ele><time>2026-04-18T11:31:44.052Z</time></trkpt><trkpt lat="43.4814867" lon="11.3670867"><ele>496.0</ele><time>2026-04-18T11:31:45.052Z</time></trkpt><trkpt lat="43.4813583" lon="11.367085"><ele>496.0</ele><time>2026-04-18T11:31:46.051Z</time></trkpt><trkpt lat="43.48123" lon="11.3671"><ele>494.5</ele><time>2026-04-18T11:31:47.051Z</time></trkpt><trkpt lat="43.4811067" lon="11.3671633"><ele>493.0</ele><time>2026-04-18T11:31:48.051Z</time></trkpt><trkpt lat="43.4810017" lon="11.367265"><ele>491.5</ele><time>2026-04-18T11:31:49.052Z</time></trkpt><trkpt lat="43.4809117" lon="11.367405"><ele>490.0</ele><time>2026-04-18T11:31:50.052Z</time></trkpt><trkpt lat="43.480835" lon="11.3675433"><ele>490.0</ele><time>2026-04-18T11:31:51.051Z</time></trkpt><trkpt lat="43.4807467" lon="11.3676483"><ele>490.0</ele><time>2026-04-18T11:31:52.051Z</time></trkpt><trkpt lat="43.48064" lon="11.3676983"><ele>490.0</ele><time>2026-04-18T11:31:53.051Z</time></trkpt><trkpt lat="43.4805383" lon="11.3676867"><ele>490.0</ele><time>2026-04-18T11:31:54.052Z</time></trkpt><trkpt lat="43.4804433" lon="11.367635"><ele>490.0</ele><time>2026-04-18T11:31:55.052Z</time></trkpt><trkpt lat="43.4803583" lon="11.367595"><ele>491.2</ele><time>2026-04-18T11:31:56.051Z</time></trkpt><trkpt lat="43.4802667" lon="11.3676033"><ele>492.4</ele><time>2026-04-18T11:31:57.052Z</time></trkpt><trkpt lat="43.4801783" lon="11.3676683"><ele>493.6</ele><time>2026-04-18T11:31:58.052Z</time></trkpt><trkpt lat="43.480095" lon="11.3677667"><ele>494.8</ele><time>2026-04-18T11:31:59.052Z</time></trkpt><trkpt lat="43.4800083" lon="11.3678833"><ele>496.0</ele><time>2026-04-18T11:32:00.051Z</time></trkpt><trkpt lat="43.479925" lon="11.3680083"><ele>495.75</ele><time>2026-04-18T11:32:01.052Z</time></trkpt><trkpt lat="43.4798367" lon="11.3681317"><ele>495.5</ele><time>2026-04-18T11:32:02.051Z</time></trkpt><trkpt lat="43.4797433" lon="11.36826"><ele>495.25</ele><time>2026-04-18T11:32:03.052Z</time></trkpt><trkpt lat="43.4796483" lon="11.368395"><ele>495.0</ele><time>2026-04-18T11:32:04.051Z</time></trkpt><trkpt lat="43.479545" lon="11.3685417"><ele>495.0</ele><time>2026-04-18T11:32:05.051Z</time></trkpt><trkpt lat="43.4794417" lon="11.368685"><ele>495.0</ele><time>2026-04-18T11:32:06.051Z</time></trkpt><trkpt lat="43.47934" lon="11.3688367"><ele>495.0</ele><time>2026-04-18T11:32:07.052Z</time></trkpt><trkpt lat="43.4792367" lon="11.368985"><ele>495.0</ele><time>2026-04-18T11:32:08.052Z</time></trkpt><trkpt lat="43.4791333" lon="11.3691267"><ele>493.0</ele><time>2026-04-18T11:32:09.051Z</time></trkpt><trkpt lat="43.4790367" lon="11.3692683"><ele>491.0</ele><time>2026-04-18T11:32:10.052Z</time></trkpt><trkpt lat="43.4789333" lon="11.3694117"><ele>489.0</ele><time>2026-04-18T11:32:11.051Z</time></trkpt><trkpt lat="43.478835" lon="11.369545"><ele>487.0</ele><time>2026-04-18T11:32:12.051Z</time></trkpt><trkpt lat="43.4787383" lon="11.36965"><ele>483.0</ele><time>2026-04-18T11:32:13.052Z</time></trkpt><trkpt lat="43.47863" lon="11.3697383"><ele>479.0</ele><time>2026-04-18T11:32:14.051Z</time></trkpt><trkpt lat="43.4785033" lon="11.3697683"><ele>475.0</ele><time>2026-04-18T11:32:15.052Z</time></trkpt><trkpt lat="43.478375" lon="11.3697667"><ele>471.0</ele><time>2026-04-18T11:32:16.052Z</time></trkpt><trkpt lat="43.4782517" lon="11.3697483"><ele>471.0</ele><time>2026-04-18T11:32:17.051Z</time></trkpt><trkpt lat="43.4781433" lon="11.3697517"><ele>471.0</ele><time>2026-04-18T11:32:18.051Z</time></trkpt><trkpt lat="43.47805" lon="11.3697917"><ele>471.0</ele><time>2026-04-18T11:32:19.052Z</time></trkpt><trkpt lat="43.4779783" lon="11.3698883"><ele>471.0</ele><time>2026-04-18T11:32:20.052Z</time></trkpt><trkpt lat="43.4779533" lon="11.3700283"><ele>471.0</ele><time>2026-04-18T11:32:21.051Z</time></trkpt><trkpt lat="43.47796" lon="11.3701933"><ele>471.0</ele><time>2026-04-18T11:32:22.051Z</time></trkpt><trkpt lat="43.478005" lon="11.3703967"><ele>471.0</ele><time>2026-04-18T11:32:23.052Z</time></trkpt><trkpt lat="43.4780667" lon="11.3705983"><ele>471.0</ele><time>2026-04-18T11:32:24.051Z</time></trkpt><trkpt lat="43.47812" lon="11.3707983"><ele>469.0</ele><time>2026-04-18T11:32:25.051Z</time></trkpt><trkpt lat="43.4781717" lon="11.3709883"><ele>467.0</ele><time>2026-04-18T11:32:26.051Z</time></trkpt><trkpt lat="43.4782183" lon="11.3711633"><ele>465.0</ele><time>2026-04-18T11:32:27.052Z</time></trkpt><trkpt lat="43.47824" lon="11.37133"><ele>463.0</ele><time>2026-04-18T11:32:28.051Z</time></trkpt><trkpt lat="43.4782317" lon="11.3714917"><ele>461.5</ele><time>2026-04-18T11:32:29.051Z</time></trkpt><trkpt lat="43.478185" lon="11.3716533"><ele>460.0</ele><time>2026-04-18T11:32:30.052Z</time></trkpt><trkpt lat="43.4781033" lon="11.3717867"><ele>458.5</ele><time>2026-04-18T11:32:31.051Z</time></trkpt><trkpt lat="43.4779933" lon="11.3718867"><ele>457.0</ele><time>2026-04-18T11:32:32.051Z</time></trkpt><trkpt lat="43.4778567" lon="11.3719417"><ele>457.0</ele><time>2026-04-18T11:32:33.051Z</time></trkpt><trkpt lat="43.4777133" lon="11.371965"><ele>457.0</ele><time>2026-04-18T11:32:34.052Z</time></trkpt><trkpt lat="43.4775617" lon="11.371965"><ele>457.0</ele><time>2026-04-18T11:32:35.051Z</time></trkpt><trkpt lat="43.47742" lon="11.3719233"><ele>457.0</ele><time>2026-04-18T11:32:36.051Z</time></trkpt><trkpt lat="43.4772833" lon="11.37187"><ele>457.0</ele><time>2026-04-18T11:32:37.052Z</time></trkpt><trkpt lat="43.47716" lon="11.3718117"><ele>457.0</ele><time>2026-04-18T11:32:38.051Z</time></trkpt><trkpt lat="43.4770417" lon="11.371785"><ele>457.0</ele><time>2026-04-18T11:32:39.051Z</time></trkpt><trkpt lat="43.476925" lon="11.371805"><ele>457.0</ele><time>2026-04-18T11:32:40.051Z</time></trkpt><trkpt lat="43.4768183" lon="11.3718783"><ele>456.5</ele><time>2026-04-18T11:32:41.051Z</time></trkpt><trkpt lat="43.4767467" lon="11.37201"><ele>456.0</ele><time>2026-04-18T11:32:42.052Z</time></trkpt><trkpt lat="43.4767033" lon="11.3721783"><ele>455.5</ele><time>2026-04-18T11:32:43.051Z</time></trkpt><trkpt lat="43.4766733" lon="11.3723717"><ele>455.0</ele><time>2026-04-18T11:32:44.051Z</time></trkpt><trkpt lat="43.47665" lon="11.3725767"><ele>452.75</ele><time>2026-04-18T11:32:45.052Z</time></trkpt><trkpt lat="43.4766267" lon="11.37278"><ele>450.5</ele><time>2026-04-18T11:32:46.052Z</time></trkpt><trkpt lat="43.4766067" lon="11.3729767"><ele>448.25</ele><time>2026-04-18T11:32:47.052Z</time></trkpt><trkpt lat="43.4765833" lon="11.3731583"><ele>446.0</ele><time>2026-04-18T11:32:48.051Z</time></trkpt><trkpt lat="43.4765617" lon="11.37332"><ele>444.8</ele><time>2026-04-18T11:32:49.051Z</time></trkpt><trkpt lat="43.476535" lon="11.373475"><ele>443.6</ele><time>2026-04-18T11:32:50.051Z</time></trkpt><trkpt lat="43.4764817" lon="11.373605"><ele>442.4</ele><time>2026-04-18T11:32:51.051Z</time></trkpt><trkpt lat="43.4763983" lon="11.3737"><ele>441.2</ele><time>2026-04-18T11:32:52.051Z</time></trkpt><trkpt lat="43.4762883" lon="11.373755"><ele>440.0</ele><time>2026-04-18T11:32:53.051Z</time></trkpt><trkpt lat="43.47616" lon="11.3737817"><ele>440.0</ele><time>2026-04-18T11:32:54.051Z</time></trkpt><trkpt lat="43.4760067" lon="11.37379"><ele>440.0</ele><time>2026-04-18T11:32:55.051Z</time></trkpt><trkpt lat="43.47585" lon="11.3737967"><ele>440.0</ele><time>2026-04-18T11:32:56.052Z</time></trkpt><trkpt lat="43.475685" lon="11.37382"><ele>440.0</ele><time>2026-04-18T11:32:57.051Z</time></trkpt><trkpt lat="43.4755217" lon="11.3738433"><ele>440.0</ele><time>2026-04-18T11:32:58.051Z</time></trkpt><trkpt lat="43.4753733" lon="11.3738617"><ele>440.0</ele><time>2026-04-18T11:32:59.051Z</time></trkpt><trkpt lat="43.47523" lon="11.373875"><ele>438.5</ele><time>2026-04-18T11:33:00.051Z</time></trkpt><trkpt lat="43.4750833" lon="11.3738933"><ele>437.0</ele><time>2026-04-18T11:33:01.051Z</time></trkpt><trkpt lat="43.4749467" lon="11.3739"><ele>435.5</ele><time>2026-04-18T11:33:02.052Z</time></trkpt><trkpt lat="43.4748117" lon="11.373875"><ele>434.0</ele><time>2026-04-18T11:33:03.051Z</time></trkpt><trkpt lat="43.4747017" lon="11.3737917"><ele>432.75</ele><time>2026-04-18T11:33:04.051Z</time></trkpt><trkpt lat="43.4745983" lon="11.3736683"><ele>431.5</ele><time>2026-04-18T11:33:05.052Z</time></trkpt><trkpt lat="43.4744983" lon="11.3735667"><ele>430.25</ele><time>2026-04-18T11:33:06.052Z</time></trkpt><trkpt lat="43.4743867" lon="11.3735283"><ele>429.0</ele><time>2026-04-18T11:33:07.051Z</time></trkpt><trkpt lat="43.4742617" lon="11.3735517"><ele>429.0</ele><time>2026-04-18T11:33:08.052Z</time></trkpt><trkpt lat="43.474135" lon="11.3736383"><ele>429.0</ele><time>2026-04-18T11:33:09.052Z</time></trkpt><trkpt lat="43.4740217" lon="11.3737733"><ele>429.0</ele><time>2026-04-18T11:33:10.051Z</time></trkpt><trkpt lat="43.47392" lon="11.37393"><ele>429.0</ele><time>2026-04-18T11:33:11.051Z</time></trkpt><trkpt lat="43.4738317" lon="11.3740933"><ele>425.25</ele><time>2026-04-18T11:33:12.051Z</time></trkpt><trkpt lat="43.4737367" lon="11.374235"><ele>421.5</ele><time>2026-04-18T11:33:13.052Z</time></trkpt><trkpt lat="43.473615" lon="11.3743333"><ele>417.75</ele><time>2026-04-18T11:33:14.051Z</time></trkpt><trkpt lat="43.4734767" lon="11.3743767"><ele>414.0</ele><time>2026-04-18T11:33:15.052Z</time></trkpt><trkpt lat="43.473325" lon="11.37436"><ele>414.0</ele><time>2026-04-18T11:33:16.05Z</time></trkpt><trkpt lat="43.473165" lon="11.3743017"><ele>414.0</ele><time>2026-04-18T11:33:17.051Z</time></trkpt><trkpt lat="43.4730033" lon="11.3742117"><ele>414.0</ele><time>2026-04-18T11:33:18.051Z</time></trkpt><trkpt lat="43.4728383" lon="11.3741183"><ele>410.33333333333337</ele><time>2026-04-18T11:33:19.05Z</time></trkpt><trkpt lat="43.47268" lon="11.3740367"><ele>406.6666666666667</ele><time>2026-04-18T11:33:20.05Z</time></trkpt><trkpt lat="43.4725283" lon="11.373965"><ele>403.0</ele><time>2026-04-18T11:33:21.051Z</time></trkpt><trkpt lat="43.4723767" lon="11.3739117"><ele>403.0</ele><time>2026-04-18T11:33:22.05Z</time></trkpt><trkpt lat="43.4722083" lon="11.3739117"><ele>403.0</ele><time>2026-04-18T11:33:23.05Z</time></trkpt><trkpt lat="43.472045" lon="11.3739433"><ele>403.0</ele><time>2026-04-18T11:33:24.05Z</time></trkpt><trkpt lat="43.4718833" lon="11.3739767"><ele>401.5</ele><time>2026-04-18T11:33:25.051Z</time></trkpt><trkpt lat="43.4717317" lon="11.374015"><ele>400.0</ele><time>2026-04-18T11:33:26.05Z</time></trkpt><trkpt lat="43.47159" lon="11.37405"><ele>398.5</ele><time>2026-04-18T11:33:27.05Z</time></trkpt><trkpt lat="43.4714583" lon="11.3740917"><ele>397.0</ele><time>2026-04-18T11:33:28.05Z</time></trkpt><trkpt lat="43.4713267" lon="11.3741383"><ele>396.5</ele><time>2026-04-18T11:33:29.05Z</time></trkpt><trkpt lat="43.4711967" lon="11.3741767"><ele>396.0</ele><time>2026-04-18T11:33:30.051Z</time></trkpt><trkpt lat="43.4710733" lon="11.3742083"><ele>395.5</ele><time>2026-04-18T11:33:31.05Z</time></trkpt><trkpt lat="43.4709467" lon="11.3742267"><ele>395.0</ele><time>2026-04-18T11:33:32.05Z</time></trkpt><trkpt lat="43.4708217" lon="11.3742433"><ele>395.0</ele><time>2026-04-18T11:33:33.05Z</time></trkpt><trkpt lat="43.4706933" lon="11.37426"><ele>395.0</ele><time>2026-04-18T11:33:34.05Z</time></trkpt><trkpt lat="43.47057" lon="11.3742633"><ele>395.0</ele><time>2026-04-18T11:33:35.05Z</time></trkpt><trkpt lat="43.47044" lon="11.3742633"><ele>395.0</ele><time>2026-04-18T11:33:36.051Z</time></trkpt><trkpt lat="43.4703133" lon="11.37426"><ele>394.25</ele><time>2026-04-18T11:33:37.05Z</time></trkpt><trkpt lat="43.4701767" lon="11.3742567"><ele>393.5</ele><time>2026-04-18T11:33:38.05Z</time></trkpt><trkpt lat="43.4700483" lon="11.3742467"><ele>392.75</ele><time>2026-04-18T11:33:39.051Z</time></trkpt><trkpt lat="43.469915" lon="11.3742317"><ele>392.0</ele><time>2026-04-18T11:33:40.051Z</time></trkpt><trkpt lat="43.4697833" lon="11.3742233"><ele>392.0</ele><time>2026-04-18T11:33:41.051Z</time></trkpt><trkpt lat="43.4696517" lon="11.3742333"><ele>392.0</ele><time>2026-04-18T11:33:42.051Z</time></trkpt><trkpt lat="43.4695183" lon="11.3742283"><ele>392.0</ele><time>2026-04-18T11:33:43.05Z</time></trkpt><trkpt lat="43.4693817" lon="11.37423"><ele>392.0</ele><time>2026-04-18T11:33:44.051Z</time></trkpt><trkpt lat="43.4692517" lon="11.3742267"><ele>390.25</ele><time>2026-04-18T11:33:45.05Z</time></trkpt><trkpt lat="43.4691417" lon="11.374195"><ele>388.5</ele><time>2026-04-18T11:33:46.051Z</time></trkpt><trkpt lat="43.4690317" lon="11.3741417"><ele>386.75</ele><time>2026-04-18T11:33:47.051Z</time></trkpt><trkpt lat="43.4689283" lon="11.3740667"><ele>385.0</ele><time>2026-04-18T11:33:48.05Z</time></trkpt><trkpt lat="43.468825" lon="11.3739717"><ele>384.5</ele><time>2026-04-18T11:33:49.05Z</time></trkpt><trkpt lat="43.468735" lon="11.373855"><ele>384.0</ele><time>2026-04-18T11:33:50.05Z</time></trkpt><trkpt lat="43.46865" lon="11.3737333"><ele>383.5</ele><time>2026-04-18T11:33:51.05Z</time></trkpt><trkpt lat="43.4685633" lon="11.37362"><ele>383.0</ele><time>2026-04-18T11:33:52.051Z</time></trkpt><trkpt lat="43.4684567" lon="11.373525"><ele>383.0</ele><time>2026-04-18T11:33:53.05Z</time></trkpt><trkpt lat="43.4683483" lon="11.37344"><ele>383.0</ele><time>2026-04-18T11:33:54.05Z</time></trkpt><trkpt lat="43.4682433" lon="11.3733767"><ele>383.0</ele><time>2026-04-18T11:33:55.05Z</time></trkpt><trkpt lat="43.468135" lon="11.3733267"><ele>383.0</ele><time>2026-04-18T11:33:56.05Z</time></trkpt><trkpt lat="43.4680433" lon="11.3732833"><ele>383.0</ele><time>2026-04-18T11:33:57.05Z</time></trkpt><trkpt lat="43.4679683" lon="11.373235"><ele>383.0</ele><time>2026-04-18T11:33:58.05Z</time></trkpt><trkpt lat="43.4679133" lon="11.3731667"><ele>383.0</ele><time>2026-04-18T11:33:59.05Z</time></trkpt><trkpt lat="43.4678867" lon="11.3730667"><ele>383.0</ele><time>2026-04-18T11:34:00.05Z</time></trkpt><trkpt lat="43.46788" lon="11.3729467"><ele>383.0</ele><time>2026-04-18T11:34:01.05Z</time></trkpt><trkpt lat="43.4678683" lon="11.3728033"><ele>383.0</ele><time>2026-04-18T11:34:02.051Z</time></trkpt><trkpt lat="43.4678467" lon="11.3726517"><ele>382.25</ele><time>2026-04-18T11:34:03.051Z</time></trkpt><trkpt lat="43.467805" lon="11.372495"><ele>381.5</ele><time>2026-04-18T11:34:04.051Z</time></trkpt><trkpt lat="43.4677583" lon="11.3723433"><ele>380.75</ele><time>2026-04-18T11:34:05.051Z</time></trkpt><trkpt lat="43.4677083" lon="11.37219"><ele>380.0</ele><time>2026-04-18T11:34:06.05Z</time></trkpt><trkpt lat="43.467655" lon="11.372045"><ele>380.0</ele><time>2026-04-18T11:34:07.051Z</time></trkpt><trkpt lat="43.4676017" lon="11.3719133"><ele>380.0</ele><time>2026-04-18T11:34:08.051Z</time></trkpt><trkpt lat="43.4675367" lon="11.3717917"><ele>380.0</ele><time>2026-04-18T11:34:09.05Z</time></trkpt><trkpt lat="43.4674583" lon="11.3716833"><ele>380.0</ele><time>2026-04-18T11:34:10.05Z</time></trkpt><trkpt lat="43.4673667" lon="11.3715833"><ele>380.0</ele><time>2026-04-18T11:34:11.05Z</time></trkpt><trkpt lat="43.46726" lon="11.3714883"><ele>380.0</ele><time>2026-04-18T11:34:12.05Z</time></trkpt><trkpt lat="43.467145" lon="11.3714067"><ele>380.0</ele><time>2026-04-18T11:34:13.05Z</time></trkpt><trkpt lat="43.4670233" lon="11.371325"><ele>380.0</ele><time>2026-04-18T11:34:14.05Z</time></trkpt><trkpt lat="43.466915" lon="11.371235"><ele>380.0</ele><time>2026-04-18T11:34:15.051Z</time></trkpt><trkpt lat="43.4668017" lon="11.3711483"><ele>379.75</ele><time>2026-04-18T11:34:16.05Z</time></trkpt><trkpt lat="43.4666983" lon="11.371035"><ele>379.5</ele><time>2026-04-18T11:34:17.051Z</time></trkpt><trkpt lat="43.4666033" lon="11.3709133"><ele>379.25</ele><time>2026-04-18T11:34:18.05Z</time></trkpt><trkpt lat="43.4665117" lon="11.3707717"><ele>379.0</ele><time>2026-04-18T11:34:19.05Z</time></trkpt><trkpt lat="43.466425" lon="11.3706267"><ele>378.25</ele><time>2026-04-18T11:34:20.051Z</time></trkpt><trkpt lat="43.4663367" lon="11.3704817"><ele>377.5</ele><time>2026-04-18T11:34:21.05Z</time></trkpt><trkpt lat="43.4662617" lon="11.3703267"><ele>376.75</ele><time>2026-04-18T11:34:22.051Z</time></trkpt><trkpt lat="43.466195" lon="11.3701567"><ele>376.0</ele><time>2026-04-18T11:34:23.05Z</time></trkpt><trkpt lat="43.4661267" lon="11.36999"><ele>376.0</ele><time>2026-04-18T11:34:24.051Z</time></trkpt><trkpt lat="43.4660633" lon="11.3698167"><ele>376.0</ele><time>2026-04-18T11:34:25.05Z</time></trkpt><trkpt lat="43.46601" lon="11.3696367"><ele>376.0</ele><time>2026-04-18T11:34:26.05Z</time></trkpt><trkpt lat="43.46596" lon="11.3694517"><ele>376.0</ele><time>2026-04-18T11:34:27.05Z</time></trkpt><trkpt lat="43.4659167" lon="11.3692617"><ele>375.5</ele><time>2026-04-18T11:34:28.051Z</time></trkpt><trkpt lat="43.4658683" lon="11.369075"><ele>375.0</ele><time>2026-04-18T11:34:29.051Z</time></trkpt><trkpt lat="43.4658267" lon="11.368885"><ele>374.5</ele><time>2026-04-18T11:34:30.05Z</time></trkpt><trkpt lat="43.46579" lon="11.3686883"><ele>374.0</ele><time>2026-04-18T11:34:31.05Z</time></trkpt><trkpt lat="43.4657717" lon="11.3685067"><ele>374.0</ele><time>2026-04-18T11:34:32.051Z</time></trkpt><trkpt lat="43.4657783" lon="11.3683233"><ele>374.0</ele><time>2026-04-18T11:34:33.05Z</time></trkpt><trkpt lat="43.4658033" lon="11.3681367"><ele>374.0</ele><time>2026-04-18T11:34:34.051Z</time></trkpt><trkpt lat="43.4658367" lon="11.3679367"><ele>374.0</ele><time>2026-04-18T11:34:35.05Z</time></trkpt><trkpt lat="43.4658817" lon="11.36773"><ele>373.0</ele><time>2026-04-18T11:34:36.05Z</time></trkpt><trkpt lat="43.4659233" lon="11.3675217"><ele>372.0</ele><time>2026-04-18T11:34:37.05Z</time></trkpt><trkpt lat="43.4659617" lon="11.3673133"><ele>371.0</ele><time>2026-04-18T11:34:38.051Z</time></trkpt><trkpt lat="43.466005" lon="11.3671067"><ele>370.33333333333337</ele><time>2026-04-18T11:34:39.05Z</time></trkpt><trkpt lat="43.4660517" lon="11.366895"><ele>369.6666666666667</ele><time>2026-04-18T11:34:40.051Z</time></trkpt><trkpt lat="43.4661" lon="11.3666817"><ele>369.0</ele><time>2026-04-18T11:34:41.051Z</time></trkpt><trkpt lat="43.4661483" lon="11.3664633"><ele>368.6666666666667</ele><time>2026-04-18T11:34:42.05Z</time></trkpt><trkpt lat="43.4661967" lon="11.36624"><ele>368.33333333333337</ele><time>2026-04-18T11:34:43.05Z</time></trkpt><trkpt lat="43.466245" lon="11.3660167"><ele>368.0</ele><time>2026-04-18T11:34:44.05Z</time></trkpt><trkpt lat="43.4662983" lon="11.365795"><ele>368.6666666666667</ele><time>2026-04-18T11:34:45.05Z</time></trkpt><trkpt lat="43.4663433" lon="11.3655633"><ele>369.3333333333333</ele><time>2026-04-18T11:34:46.05Z</time></trkpt><trkpt lat="43.466395" lon="11.3653383"><ele>370.0</ele><time>2026-04-18T11:34:47.05Z</time></trkpt><trkpt lat="43.4664417" lon="11.3651167"><ele>370.0</ele><time>2026-04-18T11:34:48.05Z</time></trkpt><trkpt lat="43.4664917" lon="11.3648917"><ele>370.0</ele><time>2026-04-18T11:34:49.05Z</time></trkpt><trkpt lat="43.4665367" lon="11.3646683"><ele>370.0</ele><time>2026-04-18T11:34:50.051Z</time></trkpt><trkpt lat="43.4665883" lon="11.364445"><ele>369.66666666666663</ele><time>2026-04-18T11:34:51.051Z</time></trkpt><trkpt lat="43.4666317" lon="11.3642183"><ele>369.3333333333333</ele><time>2026-04-18T11:34:52.051Z</time></trkpt><trkpt lat="43.4666833" lon="11.364005"><ele>369.0</ele><time>2026-04-18T11:34:53.05Z</time></trkpt><trkpt lat="43.46673" lon="11.36381"><ele>368.25</ele><time>2026-04-18T11:34:54.05Z</time></trkpt><trkpt lat="43.4667717" lon="11.3636267"><ele>367.5</ele><time>2026-04-18T11:34:55.05Z</time></trkpt><trkpt lat="43.4668067" lon="11.363465"><ele>366.75</ele><time>2026-04-18T11:34:56.051Z</time></trkpt><trkpt lat="43.4668383" lon="11.3633233"><ele>366.0</ele><time>2026-04-18T11:34:57.05Z</time></trkpt><trkpt lat="43.4668583" lon="11.3631933"><ele>366.0</ele><time>2026-04-18T11:34:58.05Z</time></trkpt><trkpt lat="43.4668667" lon="11.3630767"><ele>366.0</ele><time>2026-04-18T11:34:59.05Z</time></trkpt><trkpt lat="43.466855" lon="11.3629817"><ele>366.0</ele><time>2026-04-18T11:35:00.05Z</time></trkpt><trkpt lat="43.46683" lon="11.36289"><ele>366.0</ele><time>2026-04-18T11:35:01.05Z</time></trkpt><trkpt lat="43.46679" lon="11.3627967"><ele>366.0</ele><time>2026-04-18T11:35:02.05Z</time></trkpt><trkpt lat="43.4667233" lon="11.3626933"><ele>366.0</ele><time>2026-04-18T11:35:03.05Z</time></trkpt><trkpt lat="43.466665" lon="11.3625917"><ele>366.6</ele><time>2026-04-18T11:35:04.051Z</time></trkpt><trkpt lat="43.4666" lon="11.3624883"><ele>367.20000000000005</ele><time>2026-04-18T11:35:05.051Z</time></trkpt><trkpt lat="43.466535" lon="11.3623667"><ele>367.79999999999995</ele><time>2026-04-18T11:35:06.05Z</time></trkpt><trkpt lat="43.4664767" lon="11.3622317"><ele>368.4</ele><time>2026-04-18T11:35:07.05Z</time></trkpt><trkpt lat="43.4664167" lon="11.3620783"><ele>369.0</ele><time>2026-04-18T11:35:08.051Z</time></trkpt><trkpt lat="43.4663567" lon="11.361915"><ele>369.25</ele><time>2026-04-18T11:35:09.05Z</time></trkpt><trkpt lat="43.4663083" lon="11.3617533"><ele>369.5</ele><time>2026-04-18T11:35:10.05Z</time></trkpt><trkpt lat="43.466265" lon="11.3615883"><ele>369.75</ele><time>2026-04-18T11:35:11.05Z</time></trkpt><trkpt lat="43.4662233" lon="11.36144"><ele>370.0</ele><time>2026-04-18T11:35:12.051Z</time></trkpt><trkpt lat="43.4661867" lon="11.36131"><ele>370.0</ele><time>2026-04-18T11:35:13.051Z</time></trkpt><trkpt lat="43.4661433" lon="11.3611983"><ele>370.0</ele><time>2026-04-18T11:35:14.051Z</time></trkpt><trkpt lat="43.46608" lon="11.36111"><ele>370.0</ele><time>2026-04-18T11:35:15.05Z</time></trkpt><trkpt lat="43.466" lon="11.3610233"><ele>370.0</ele><time>2026-04-18T11:35:16.05Z</time></trkpt><trkpt lat="43.4658983" lon="11.3609367"><ele>370.0</ele><time>2026-04-18T11:35:17.05Z</time></trkpt><trkpt lat="43.4657933" lon="11.3608433"><ele>370.0</ele><time>2026-04-18T11:35:18.05Z</time></trkpt><trkpt lat="43.46571" lon="11.3607483"><ele>370.0</ele><time>2026-04-18T11:35:19.051Z</time></trkpt><trkpt lat="43.4656283" lon="11.3606183"><ele>370.0</ele><time>2026-04-18T11:35:20.05Z</time></trkpt><trkpt lat="43.4655433" lon="11.3604767"><ele>370.0</ele><time>2026-04-18T11:35:21.05Z</time></trkpt><trkpt lat="43.4654683" lon="11.360325"><ele>368.25</ele><time>2026-04-18T11:35:22.05Z</time></trkpt><trkpt lat="43.4653867" lon="11.3601967"><ele>366.5</ele><time>2026-04-18T11:35:23.051Z</time></trkpt><trkpt lat="43.4653067" lon="11.3600767"><ele>364.75</ele><time>2026-04-18T11:35:24.05Z</time></trkpt><trkpt lat="43.4652317" lon="11.3599583"><ele>363.0</ele><time>2026-04-18T11:35:25.051Z</time></trkpt><trkpt lat="43.46515" lon="11.359815"><ele>363.5</ele><time>2026-04-18T11:35:26.051Z</time></trkpt><trkpt lat="43.4650833" lon="11.3596617"><ele>364.0</ele><time>2026-04-18T11:35:27.051Z</time></trkpt><trkpt lat="43.4650333" lon="11.3595017"><ele>364.5</ele><time>2026-04-18T11:35:28.05Z</time></trkpt><trkpt lat="43.4649967" lon="11.359335"><ele>365.0</ele><time>2026-04-18T11:35:29.05Z</time></trkpt><trkpt lat="43.4649667" lon="11.3591517"><ele>365.0</ele><time>2026-04-18T11:35:30.05Z</time></trkpt><trkpt lat="43.4649383" lon="11.35894"><ele>365.0</ele><time>2026-04-18T11:35:31.05Z</time></trkpt><trkpt lat="43.4649033" lon="11.3587333"><ele>365.0</ele><time>2026-04-18T11:35:32.05Z</time></trkpt><trkpt lat="43.4648717" lon="11.3585383"><ele>366.0</ele><time>2026-04-18T11:35:33.051Z</time></trkpt><trkpt lat="43.4648283" lon="11.3583583"><ele>367.0</ele><time>2026-04-18T11:35:34.051Z</time></trkpt><trkpt lat="43.4647783" lon="11.3581933"><ele>368.0</ele><time>2026-04-18T11:35:35.051Z</time></trkpt><trkpt lat="43.4647383" lon="11.35804"><ele>369.0</ele><time>2026-04-18T11:35:36.05Z</time></trkpt><trkpt lat="43.46469" lon="11.3578983"><ele>368.0</ele><time>2026-04-18T11:35:37.05Z</time></trkpt><trkpt lat="43.4646283" lon="11.3577683"><ele>367.0</ele><time>2026-04-18T11:35:38.051Z</time></trkpt><trkpt lat="43.464565" lon="11.357655"><ele>366.0</ele><time>2026-04-18T11:35:39.051Z</time></trkpt><trkpt lat="43.4644867" lon="11.3575433"><ele>365.0</ele><time>2026-04-18T11:35:40.05Z</time></trkpt><trkpt lat="43.464395" lon="11.3574433"><ele>364.0</ele><time>2026-04-18T11:35:41.051Z</time></trkpt><trkpt lat="43.4642867" lon="11.357355"><ele>364.0</ele><time>2026-04-18T11:35:42.05Z</time></trkpt><trkpt lat="43.4641833" lon="11.3572683"><ele>364.0</ele><time>2026-04-18T11:35:43.051Z</time></trkpt><trkpt lat="43.4640867" lon="11.3571917"><ele>364.0</ele><time>2026-04-18T11:35:44.05Z</time></trkpt><trkpt lat="43.46399" lon="11.3571167"><ele>364.0</ele><time>2026-04-18T11:35:45.05Z</time></trkpt><trkpt lat="43.4638933" lon="11.35707"><ele>364.0</ele><time>2026-04-18T11:35:46.051Z</time></trkpt><trkpt lat="43.46378" lon="11.35706"><ele>365.0</ele><time>2026-04-18T11:35:47.051Z</time></trkpt><trkpt lat="43.463675" lon="11.357045"><ele>366.0</ele><time>2026-04-18T11:35:48.051Z</time></trkpt><trkpt lat="43.46356" lon="11.3570317"><ele>367.0</ele><time>2026-04-18T11:35:49.05Z</time></trkpt><trkpt lat="43.4634417" lon="11.35701"><ele>368.0</ele><time>2026-04-18T11:35:50.05Z</time></trkpt><trkpt lat="43.4633233" lon="11.3569983"><ele>368.0</ele><time>2026-04-18T11:35:51.05Z</time></trkpt><trkpt lat="43.46321" lon="11.35699"><ele>368.0</ele><time>2026-04-18T11:35:52.051Z</time></trkpt><trkpt lat="43.4631083" lon="11.3569633"><ele>368.0</ele><time>2026-04-18T11:35:53.05Z</time></trkpt><trkpt lat="43.4630133" lon="11.356915"><ele>368.0</ele><time>2026-04-18T11:35:54.051Z</time></trkpt><trkpt lat="43.46292" lon="11.3568333"><ele>368.0</ele><time>2026-04-18T11:35:55.051Z</time></trkpt><trkpt lat="43.4628217" lon="11.3567217"><ele>367.0</ele><time>2026-04-18T11:35:56.05Z</time></trkpt><trkpt lat="43.4627133" lon="11.356605"><ele>366.0</ele><time>2026-04-18T11:35:57.05Z</time></trkpt><trkpt lat="43.4626067" lon="11.3564933"><ele>365.0</ele><time>2026-04-18T11:35:58.05Z</time></trkpt><trkpt lat="43.4624917" lon="11.356385"><ele>364.0</ele><time>2026-04-18T11:35:59.051Z</time></trkpt><trkpt lat="43.462365" lon="11.3562667"><ele>364.0</ele><time>2026-04-18T11:36:00.05Z</time></trkpt><trkpt lat="43.462245" lon="11.3561467"><ele>364.0</ele><time>2026-04-18T11:36:01.05Z</time></trkpt><trkpt lat="43.4621283" lon="11.35603"><ele>364.0</ele><time>2026-04-18T11:36:02.051Z</time></trkpt><trkpt lat="43.46201" lon="11.3559183"><ele>364.0</ele><time>2026-04-18T11:36:03.05Z</time></trkpt><trkpt lat="43.4618917" lon="11.3558133"><ele>362.0</ele><time>2026-04-18T11:36:04.051Z</time></trkpt><trkpt lat="43.46177" lon="11.3557183"><ele>360.0</ele><time>2026-04-18T11:36:05.05Z</time></trkpt><trkpt lat="43.46166" lon="11.3556233"><ele>358.0</ele><time>2026-04-18T11:36:06.051Z</time></trkpt><trkpt lat="43.4615567" lon="11.3555583"><ele>356.0</ele><time>2026-04-18T11:36:07.051Z</time></trkpt><trkpt lat="43.4614617" lon="11.3555083"><ele>355.6</ele><time>2026-04-18T11:36:08.051Z</time></trkpt><trkpt lat="43.4613633" lon="11.3554883"><ele>355.20000000000005</ele><time>2026-04-18T11:36:09.051Z</time></trkpt><trkpt lat="43.461265" lon="11.355495"><ele>354.79999999999995</ele><time>2026-04-18T11:36:10.05Z</time></trkpt><trkpt lat="43.4611517" lon="11.3555183"><ele>354.4</ele><time>2026-04-18T11:36:11.05Z</time></trkpt><trkpt lat="43.4610367" lon="11.3555517"><ele>354.0</ele><time>2026-04-18T11:36:12.051Z</time></trkpt><trkpt lat="43.4609183" lon="11.3555767"><ele>354.0</ele><time>2026-04-18T11:36:13.05Z</time></trkpt><trkpt lat="43.4608033" lon="11.3555883"><ele>354.0</ele><time>2026-04-18T11:36:14.05Z</time></trkpt><trkpt lat="43.46067" lon="11.3555817"><ele>354.0</ele><time>2026-04-18T11:36:15.05Z</time></trkpt><trkpt lat="43.4605217" lon="11.3555617"><ele>354.0</ele><time>2026-04-18T11:36:16.05Z</time></trkpt><trkpt lat="43.4603817" lon="11.3555217"><ele>357.25</ele><time>2026-04-18T11:36:17.051Z</time></trkpt><trkpt lat="43.4602517" lon="11.3554867"><ele>360.5</ele><time>2026-04-18T11:36:18.05Z</time></trkpt><trkpt lat="43.4601267" lon="11.3554917"><ele>363.75</ele><time>2026-04-18T11:36:19.051Z</time></trkpt><trkpt lat="43.459995" lon="11.3555133"><ele>367.0</ele><time>2026-04-18T11:36:20.051Z</time></trkpt><trkpt lat="43.4598683" lon="11.3555333"><ele>364.25</ele><time>2026-04-18T11:36:21.05Z</time></trkpt><trkpt lat="43.459745" lon="11.3555517"><ele>361.5</ele><time>2026-04-18T11:36:22.05Z</time></trkpt><trkpt lat="43.45961" lon="11.3555617"><ele>358.75</ele><time>2026-04-18T11:36:23.05Z</time></trkpt><trkpt lat="43.4594667" lon="11.3555517"><ele>356.0</ele><time>2026-04-18T11:36:24.051Z</time></trkpt><trkpt lat="43.4593233" lon="11.3555183"><ele>356.0</ele><time>2026-04-18T11:36:25.05Z</time></trkpt><trkpt lat="43.459195" lon="11.355475"><ele>356.0</ele><time>2026-04-18T11:36:26.05Z</time></trkpt><trkpt lat="43.45907" lon="11.3554317"><ele>356.0</ele><time>2026-04-18T11:36:27.05Z</time></trkpt><trkpt lat="43.45894" lon="11.3553833"><ele>356.0</ele><time>2026-04-18T11:36:28.051Z</time></trkpt><trkpt lat="43.4588067" lon="11.355315"><ele>354.5</ele><time>2026-04-18T11:36:29.05Z</time></trkpt><trkpt lat="43.45868" lon="11.35523"><ele>353.0</ele><time>2026-04-18T11:36:30.05Z</time></trkpt><trkpt lat="43.4585567" lon="11.3551283"><ele>351.5</ele><time>2026-04-18T11:36:31.05Z</time></trkpt><trkpt lat="43.4584483" lon="11.355025"><ele>350.0</ele><time>2026-04-18T11:36:32.05Z</time></trkpt><trkpt lat="43.458345" lon="11.35493"><ele>350.0</ele><time>2026-04-18T11:36:33.05Z</time></trkpt><trkpt lat="43.4582467" lon="11.3548367"><ele>350.0</ele><time>2026-04-18T11:36:34.05Z</time></trkpt><trkpt lat="43.4581517" lon="11.3547667"><ele>350.0</ele><time>2026-04-18T11:36:35.05Z</time></trkpt><trkpt lat="43.4580433" lon="11.35471"><ele>350.0</ele><time>2026-04-18T11:36:36.05Z</time></trkpt><trkpt lat="43.4579167" lon="11.3546633"><ele>351.25</ele><time>2026-04-18T11:36:37.051Z</time></trkpt><trkpt lat="43.4577717" lon="11.35462"><ele>352.5</ele><time>2026-04-18T11:36:38.051Z</time></trkpt><trkpt lat="43.4576283" lon="11.3545683"><ele>353.75</ele><time>2026-04-18T11:36:39.05Z</time></trkpt><trkpt lat="43.457485" lon="11.3545067"><ele>355.0</ele><time>2026-04-18T11:36:40.05Z</time></trkpt><trkpt lat="43.4573517" lon="11.3544333"><ele>355.0</ele><time>2026-04-18T11:36:41.05Z</time></trkpt><trkpt lat="43.4572317" lon="11.3543717"><ele>355.0</ele><time>2026-04-18T11:36:42.05Z</time></trkpt><trkpt lat="43.4571167" lon="11.3543133"><ele>355.0</ele><time>2026-04-18T11:36:43.05Z</time></trkpt><trkpt lat="43.4569883" lon="11.3542733"><ele>355.0</ele><time>2026-04-18T11:36:44.05Z</time></trkpt><trkpt lat="43.456845" lon="11.3542383"><ele>352.0</ele><time>2026-04-18T11:36:45.051Z</time></trkpt><trkpt lat="43.4567017" lon="11.35421"><ele>349.0</ele><time>2026-04-18T11:36:46.051Z</time></trkpt><trkpt lat="43.45654" lon="11.354175"><ele>346.0</ele><time>2026-04-18T11:36:47.051Z</time></trkpt><trkpt lat="43.4563867" lon="11.3541467"><ele>345.66666666666663</ele><time>2026-04-18T11:36:48.051Z</time></trkpt><trkpt lat="43.4562317" lon="11.35412"><ele>345.3333333333333</ele><time>2026-04-18T11:36:49.051Z</time></trkpt><trkpt lat="43.4560667" lon="11.3540883"><ele>345.0</ele><time>2026-04-18T11:36:50.051Z</time></trkpt><trkpt lat="43.455915" lon="11.354035"><ele>345.0</ele><time>2026-04-18T11:36:51.051Z</time></trkpt><trkpt lat="43.4557733" lon="11.3539817"><ele>345.0</ele><time>2026-04-18T11:36:52.051Z</time></trkpt><trkpt lat="43.4556383" lon="11.353925"><ele>345.0</ele><time>2026-04-18T11:36:53.05Z</time></trkpt><trkpt lat="43.455515" lon="11.3538933"><ele>345.0</ele><time>2026-04-18T11:36:54.05Z</time></trkpt><trkpt lat="43.4554083" lon="11.3538867"><ele>344.6</ele><time>2026-04-18T11:36:55.049Z</time></trkpt><trkpt lat="43.4553033" lon="11.353905"><ele>344.2</ele><time>2026-04-18T11:36:56.05Z</time></trkpt><trkpt lat="43.455205" lon="11.3539383"><ele>343.79999999999995</ele><time>2026-04-18T11:36:57.05Z</time></trkpt><trkpt lat="43.4550983" lon="11.3539683"><ele>343.4</ele><time>2026-04-18T11:36:58.05Z</time></trkpt><trkpt lat="43.4549867" lon="11.3539967"><ele>343.0</ele><time>2026-04-18T11:36:59.05Z</time></trkpt><trkpt lat="43.454875" lon="11.3540333"><ele>343.0</ele><time>2026-04-18T11:37:00.049Z</time></trkpt><trkpt lat="43.4547633" lon="11.3540867"><ele>343.0</ele><time>2026-04-18T11:37:01.05Z</time></trkpt><trkpt lat="43.4546567" lon="11.3541583"><ele>343.0</ele><time>2026-04-18T11:37:02.049Z</time></trkpt><trkpt lat="43.4545533" lon="11.3542217"><ele>343.0</ele><time>2026-04-18T11:37:03.05Z</time></trkpt><trkpt lat="43.4544467" lon="11.354285"><ele>341.8333333333333</ele><time>2026-04-18T11:37:04.049Z</time></trkpt><trkpt lat="43.4543533" lon="11.3543333"><ele>340.66666666666663</ele><time>2026-04-18T11:37:05.049Z</time></trkpt><trkpt lat="43.454265" lon="11.354345"><ele>339.5</ele><time>2026-04-18T11:37:06.049Z</time></trkpt><trkpt lat="43.4541867" lon="11.35434"><ele>338.3333333333333</ele><time>2026-04-18T11:37:07.049Z</time></trkpt><trkpt lat="43.4541083" lon="11.354305"><ele>337.1666666666667</ele><time>2026-04-18T11:37:08.05Z</time></trkpt><trkpt lat="43.4540383" lon="11.35427"><ele>336.0</ele><time>2026-04-18T11:37:09.049Z</time></trkpt><trkpt lat="43.4539217" lon="11.3542567"><ele>336.0</ele><time>2026-04-18T11:37:11.049Z</time></trkpt><trkpt lat="43.4538517" lon="11.3542833"><ele>336.0</ele><time>2026-04-18T11:37:12.049Z</time></trkpt><trkpt lat="43.4537883" lon="11.354315"><ele>336.0</ele><time>2026-04-18T11:37:13.049Z</time></trkpt><trkpt lat="43.4537283" lon="11.3543483"><ele>336.0</ele><time>2026-04-18T11:37:14.049Z</time></trkpt><trkpt lat="43.4536533" lon="11.3543867"><ele>336.0</ele><time>2026-04-18T11:37:15.05Z</time></trkpt><trkpt lat="43.45357" lon="11.3544217"><ele>336.0</ele><time>2026-04-18T11:37:16.049Z</time></trkpt><trkpt lat="43.4534883" lon="11.354455"><ele>337.3333333333333</ele><time>2026-04-18T11:37:17.049Z</time></trkpt><trkpt lat="43.4534033" lon="11.3544917"><ele>338.6666666666667</ele><time>2026-04-18T11:37:18.05Z</time></trkpt><trkpt lat="43.4533183" lon="11.3545267"><ele>340.0</ele><time>2026-04-18T11:37:19.05Z</time></trkpt><trkpt lat="43.4532333" lon="11.3545683"><ele>341.33333333333337</ele><time>2026-04-18T11:37:20.049Z</time></trkpt><trkpt lat="43.4531633" lon="11.3546083"><ele>342.6666666666667</ele><time>2026-04-18T11:37:21.049Z</time></trkpt><trkpt lat="43.4530867" lon="11.3546517"><ele>344.0</ele><time>2026-04-18T11:37:22.049Z</time></trkpt><trkpt lat="43.4530083" lon="11.354695"><ele>343.6</ele><time>2026-04-18T11:37:23.05Z</time></trkpt><trkpt lat="43.452925" lon="11.3547433"><ele>343.2</ele><time>2026-04-18T11:37:24.05Z</time></trkpt><trkpt lat="43.4528317" lon="11.3548033"><ele>342.8</ele><time>2026-04-18T11:37:25.05Z</time></trkpt><trkpt lat="43.4527233" lon="11.354875"><ele>342.40000000000003</ele><time>2026-04-18T11:37:26.049Z</time></trkpt><trkpt lat="43.4526017" lon="11.3549483"><ele>342.0</ele><time>2026-04-18T11:37:27.05Z</time></trkpt><trkpt lat="43.4524683" lon="11.3550183"><ele>342.0</ele><time>2026-04-18T11:37:28.049Z</time></trkpt><trkpt lat="43.4523333" lon="11.3550917"><ele>342.0</ele><time>2026-04-18T11:37:29.05Z</time></trkpt><trkpt lat="43.4522067" lon="11.3551517"><ele>342.0</ele><time>2026-04-18T11:37:30.049Z</time></trkpt><trkpt lat="43.4520817" lon="11.3552033"><ele>342.0</ele><time>2026-04-18T11:37:31.05Z</time></trkpt><trkpt lat="43.45196" lon="11.3552317"><ele>343.75</ele><time>2026-04-18T11:37:32.049Z</time></trkpt><trkpt lat="43.4518367" lon="11.355265"><ele>345.5</ele><time>2026-04-18T11:37:33.049Z</time></trkpt><trkpt lat="43.4517183" lon="11.3552817"><ele>347.25</ele><time>2026-04-18T11:37:34.049Z</time></trkpt><trkpt lat="43.45159" lon="11.35533"><ele>349.0</ele><time>2026-04-18T11:37:35.049Z</time></trkpt><trkpt lat="43.4514583" lon="11.3554083"><ele>349.0</ele><time>2026-04-18T11:37:36.05Z</time></trkpt><trkpt lat="43.45133" lon="11.3554883"><ele>349.0</ele><time>2026-04-18T11:37:37.05Z</time></trkpt><trkpt lat="43.4511967" lon="11.35558"><ele>349.0</ele><time>2026-04-18T11:37:38.049Z</time></trkpt><trkpt lat="43.45108" lon="11.355675"><ele>349.0</ele><time>2026-04-18T11:37:39.05Z</time></trkpt><trkpt lat="43.4509733" lon="11.3557783"><ele>348.6</ele><time>2026-04-18T11:37:40.049Z</time></trkpt><trkpt lat="43.450875" lon="11.3558883"><ele>348.2</ele><time>2026-04-18T11:37:41.05Z</time></trkpt><trkpt lat="43.4507867" lon="11.3559933"><ele>347.8</ele><time>2026-04-18T11:37:42.049Z</time></trkpt><trkpt lat="43.4507117" lon="11.3560867"><ele>347.40000000000003</ele><time>2026-04-18T11:37:43.05Z</time></trkpt><trkpt lat="43.450635" lon="11.3561733"><ele>347.0</ele><time>2026-04-18T11:37:44.05Z</time></trkpt><trkpt lat="43.450555" lon="11.3562583"><ele>347.0</ele><time>2026-04-18T11:37:45.049Z</time></trkpt><trkpt lat="43.450465" lon="11.3563533"><ele>347.0</ele><time>2026-04-18T11:37:46.05Z</time></trkpt><trkpt lat="43.450375" lon="11.3564417"><ele>347.0</ele><time>2026-04-18T11:37:47.049Z</time></trkpt><trkpt lat="43.4502817" lon="11.3565217"><ele>347.0</ele><time>2026-04-18T11:37:48.049Z</time></trkpt><trkpt lat="43.4501933" lon="11.3565867"><ele>347.0</ele><time>2026-04-18T11:37:49.049Z</time></trkpt><trkpt lat="43.45011" lon="11.3566417"><ele>345.25</ele><time>2026-04-18T11:37:50.049Z</time></trkpt><trkpt lat="43.4500033" lon="11.356685"><ele>343.5</ele><time>2026-04-18T11:37:51.049Z</time></trkpt><trkpt lat="43.449875" lon="11.3567"><ele>341.75</ele><time>2026-04-18T11:37:52.049Z</time></trkpt><trkpt lat="43.4497433" lon="11.356705"><ele>340.0</ele><time>2026-04-18T11:37:53.049Z</time></trkpt><trkpt lat="43.4496033" lon="11.3566883"><ele>338.0</ele><time>2026-04-18T11:37:54.049Z</time></trkpt><trkpt lat="43.4494867" lon="11.3566617"><ele>336.0</ele><time>2026-04-18T11:37:55.049Z</time></trkpt><trkpt lat="43.4493683" lon="11.3566317"><ele>334.0</ele><time>2026-04-18T11:37:56.049Z</time></trkpt><trkpt lat="43.4492633" lon="11.3565833"><ele>332.0</ele><time>2026-04-18T11:37:57.049Z</time></trkpt><trkpt lat="43.4491517" lon="11.3565083"><ele>332.0</ele><time>2026-04-18T11:37:58.05Z</time></trkpt><trkpt lat="43.44903" lon="11.3564067"><ele>332.0</ele><time>2026-04-18T11:37:59.049Z</time></trkpt><trkpt lat="43.448895" lon="11.3563083"><ele>332.0</ele><time>2026-04-18T11:38:00.049Z</time></trkpt><trkpt lat="43.4487567" lon="11.3562133"><ele>333.33333333333337</ele><time>2026-04-18T11:38:01.049Z</time></trkpt><trkpt lat="43.4486083" lon="11.3561183"><ele>334.6666666666667</ele><time>2026-04-18T11:38:02.049Z</time></trkpt><trkpt lat="43.448455" lon="11.3560283"><ele>336.0</ele><time>2026-04-18T11:38:03.05Z</time></trkpt><trkpt lat="43.4483067" lon="11.355935"><ele>336.0</ele><time>2026-04-18T11:38:04.05Z</time></trkpt><trkpt lat="43.4481617" lon="11.3558433"><ele>336.0</ele><time>2026-04-18T11:38:05.049Z</time></trkpt><trkpt lat="43.44803" lon="11.3557633"><ele>336.0</ele><time>2026-04-18T11:38:06.049Z</time></trkpt><trkpt lat="43.4479133" lon="11.3556767"><ele>336.0</ele><time>2026-04-18T11:38:07.049Z</time></trkpt><trkpt lat="43.44779" lon="11.3556033"><ele>339.25</ele><time>2026-04-18T11:38:08.05Z</time></trkpt><trkpt lat="43.4476783" lon="11.3555317"><ele>342.5</ele><time>2026-04-18T11:38:09.049Z</time></trkpt><trkpt lat="43.447565" lon="11.3554817"><ele>345.75</ele><time>2026-04-18T11:38:10.05Z</time></trkpt><trkpt lat="43.447435" lon="11.3554333"><ele>349.0</ele><time>2026-04-18T11:38:11.049Z</time></trkpt><trkpt lat="43.44729" lon="11.3553983"><ele>349.0</ele><time>2026-04-18T11:38:12.05Z</time></trkpt><trkpt lat="43.447135" lon="11.355365"><ele>349.0</ele><time>2026-04-18T11:38:13.05Z</time></trkpt><trkpt lat="43.44699" lon="11.35534"><ele>349.0</ele><time>2026-04-18T11:38:14.049Z</time></trkpt><trkpt lat="43.4468483" lon="11.3552983"><ele>349.0</ele><time>2026-04-18T11:38:15.05Z</time></trkpt><trkpt lat="43.446705" lon="11.3552683"><ele>346.0</ele><time>2026-04-18T11:38:16.049Z</time></trkpt><trkpt lat="43.4465633" lon="11.3552433"><ele>343.0</ele><time>2026-04-18T11:38:17.049Z</time></trkpt><trkpt lat="43.4464167" lon="11.3552183"><ele>340.0</ele><time>2026-04-18T11:38:18.05Z</time></trkpt><trkpt lat="43.4462617" lon="11.3551967"><ele>337.0</ele><time>2026-04-18T11:38:19.049Z</time></trkpt><trkpt lat="43.446115" lon="11.3551767"><ele>335.75</ele><time>2026-04-18T11:38:20.05Z</time></trkpt><trkpt lat="43.445975" lon="11.3551667"><ele>334.5</ele><time>2026-04-18T11:38:21.049Z</time></trkpt><trkpt lat="43.4458583" lon="11.355155"><ele>333.25</ele><time>2026-04-18T11:38:22.049Z</time></trkpt><trkpt lat="43.4457367" lon="11.3551367"><ele>332.0</ele><time>2026-04-18T11:38:23.05Z</time></trkpt><trkpt lat="43.4456067" lon="11.3550917"><ele>332.0</ele><time>2026-04-18T11:38:24.049Z</time></trkpt><trkpt lat="43.4454783" lon="11.3550267"><ele>332.0</ele><time>2026-04-18T11:38:25.049Z</time></trkpt><trkpt lat="43.4453567" lon="11.3549383"><ele>332.0</ele><time>2026-04-18T11:38:26.049Z</time></trkpt><trkpt lat="43.44525" lon="11.354835"><ele>332.0</ele><time>2026-04-18T11:38:27.049Z</time></trkpt><trkpt lat="43.4451567" lon="11.3547317"><ele>331.20000000000005</ele><time>2026-04-18T11:38:28.049Z</time></trkpt><trkpt lat="43.4450833" lon="11.35463"><ele>330.4</ele><time>2026-04-18T11:38:29.049Z</time></trkpt><trkpt lat="43.4450233" lon="11.3545183"><ele>329.6</ele><time>2026-04-18T11:38:30.049Z</time></trkpt><trkpt lat="43.4449783" lon="11.3544067"><ele>328.79999999999995</ele><time>2026-04-18T11:38:31.05Z</time></trkpt><trkpt lat="43.4449583" lon="11.35429"><ele>328.0</ele><time>2026-04-18T11:38:32.049Z</time></trkpt><trkpt lat="43.444945" lon="11.3541717"><ele>328.0</ele><time>2026-04-18T11:38:33.05Z</time></trkpt><trkpt lat="43.44494" lon="11.3540567"><ele>328.0</ele><time>2026-04-18T11:38:34.05Z</time></trkpt><trkpt lat="43.4449283" lon="11.3539533"><ele>328.0</ele><time>2026-04-18T11:38:35.05Z</time></trkpt><trkpt lat="43.44492" lon="11.353855"><ele>328.0</ele><time>2026-04-18T11:38:36.05Z</time></trkpt><trkpt lat="43.4448767" lon="11.3537333"><ele>328.0</ele><time>2026-04-18T11:38:38.049Z</time></trkpt><trkpt lat="43.4447883" lon="11.3537067"><ele>328.0</ele><time>2026-04-18T11:38:40.049Z</time></trkpt><trkpt lat="43.44465" lon="11.3537467"><ele>327.0</ele><time>2026-04-18T11:38:42.049Z</time></trkpt><trkpt lat="43.4445533" lon="11.3537783"><ele>326.0</ele><time>2026-04-18T11:38:43.049Z</time></trkpt><trkpt lat="43.4444417" lon="11.3538133"><ele>325.0</ele><time>2026-04-18T11:38:44.049Z</time></trkpt><trkpt lat="43.44432" lon="11.3538517"><ele>324.0</ele><time>2026-04-18T11:38:45.049Z</time></trkpt><trkpt lat="43.4441917" lon="11.3539033"><ele>324.0</ele><time>2026-04-18T11:38:46.049Z</time></trkpt><trkpt lat="43.44406" lon="11.3539683"><ele>324.0</ele><time>2026-04-18T11:38:47.049Z</time></trkpt><trkpt lat="43.443925" lon="11.354045"><ele>324.0</ele><time>2026-04-18T11:38:48.05Z</time></trkpt><trkpt lat="43.4437817" lon="11.354135"><ele>324.0</ele><time>2026-04-18T11:38:49.049Z</time></trkpt><trkpt lat="43.44364" lon="11.354235"><ele>327.3333333333333</ele><time>2026-04-18T11:38:50.049Z</time></trkpt><trkpt lat="43.443485" lon="11.3543383"><ele>330.66666666666663</ele><time>2026-04-18T11:38:51.05Z</time></trkpt><trkpt lat="43.44333" lon="11.354435"><ele>334.0</ele><time>2026-04-18T11:38:52.049Z</time></trkpt><trkpt lat="43.4431767" lon="11.35454"><ele>334.0</ele><time>2026-04-18T11:38:53.049Z</time></trkpt><trkpt lat="43.4430217" lon="11.3546333"><ele>334.0</ele><time>2026-04-18T11:38:54.049Z</time></trkpt><trkpt lat="43.4428667" lon="11.3547217"><ele>334.0</ele><time>2026-04-18T11:38:55.049Z</time></trkpt><trkpt lat="43.4427233" lon="11.35482"><ele>334.66666666666663</ele><time>2026-04-18T11:38:56.049Z</time></trkpt><trkpt lat="43.4425833" lon="11.35494"><ele>335.3333333333333</ele><time>2026-04-18T11:38:57.049Z</time></trkpt><trkpt lat="43.4424467" lon="11.3550667"><ele>336.0</ele><time>2026-04-18T11:38:58.049Z</time></trkpt><trkpt lat="43.4423117" lon="11.355165"><ele>336.0</ele><time>2026-04-18T11:38:59.049Z</time></trkpt><trkpt lat="43.44219" lon="11.3552367"><ele>336.0</ele><time>2026-04-18T11:39:00.05Z</time></trkpt><trkpt lat="43.4420583" lon="11.355275"><ele>336.0</ele><time>2026-04-18T11:39:01.049Z</time></trkpt><trkpt lat="43.4419133" lon="11.3552967"><ele>336.0</ele><time>2026-04-18T11:39:02.049Z</time></trkpt><trkpt lat="43.4417783" lon="11.3553133"><ele>337.4</ele><time>2026-04-18T11:39:03.049Z</time></trkpt><trkpt lat="43.44166" lon="11.3553433"><ele>338.8</ele><time>2026-04-18T11:39:04.049Z</time></trkpt><trkpt lat="43.44156" lon="11.3553883"><ele>340.2</ele><time>2026-04-18T11:39:05.049Z</time></trkpt><trkpt lat="43.4414767" lon="11.3554567"><ele>341.59999999999997</ele><time>2026-04-18T11:39:06.05Z</time></trkpt><trkpt lat="43.4414217" lon="11.3555433"><ele>343.0</ele><time>2026-04-18T11:39:07.049Z</time></trkpt><trkpt lat="43.4413517" lon="11.355645"><ele>344.79999999999995</ele><time>2026-04-18T11:39:08.049Z</time></trkpt><trkpt lat="43.4412767" lon="11.3557283"><ele>346.6</ele><time>2026-04-18T11:39:09.05Z</time></trkpt><trkpt lat="43.4412" lon="11.3558"><ele>348.4</ele><time>2026-04-18T11:39:10.049Z</time></trkpt><trkpt lat="43.4411183" lon="11.3558233"><ele>350.20000000000005</ele><time>2026-04-18T11:39:11.05Z</time></trkpt><trkpt lat="43.441015" lon="11.35579"><ele>352.0</ele><time>2026-04-18T11:39:13.049Z</time></trkpt><trkpt lat="43.440985" lon="11.355695"><ele>352.0</ele><time>2026-04-18T11:39:15.05Z</time></trkpt><trkpt lat="43.441005" lon="11.355585"><ele>352.0</ele><time>2026-04-18T11:39:17.049Z</time></trkpt><trkpt lat="43.4410283" lon="11.3555017"><ele>352.0</ele><time>2026-04-18T11:39:18.05Z</time></trkpt><trkpt lat="43.4410483" lon="11.3553967"><ele>352.0</ele><time>2026-04-18T11:39:19.05Z</time></trkpt><trkpt lat="43.4410517" lon="11.355275"><ele>352.0</ele><time>2026-04-18T11:39:20.05Z</time></trkpt><trkpt lat="43.4410483" lon="11.3551517"><ele>352.0</ele><time>2026-04-18T11:39:21.049Z</time></trkpt><trkpt lat="43.441035" lon="11.3550083"><ele>352.25</ele><time>2026-04-18T11:39:22.049Z</time></trkpt><trkpt lat="43.4410167" lon="11.3548533"><ele>352.5</ele><time>2026-04-18T11:39:23.05Z</time></trkpt><trkpt lat="43.4409817" lon="11.3546917"><ele>352.75</ele><time>2026-04-18T11:39:24.049Z</time></trkpt><trkpt lat="43.4409417" lon="11.3545283"><ele>353.0</ele><time>2026-04-18T11:39:25.05Z</time></trkpt><trkpt lat="43.4409033" lon="11.3543667"><ele>353.5</ele><time>2026-04-18T11:39:26.049Z</time></trkpt><trkpt lat="43.4408733" lon="11.354205"><ele>354.0</ele><time>2026-04-18T11:39:27.05Z</time></trkpt><trkpt lat="43.440845" lon="11.354035"><ele>354.5</ele><time>2026-04-18T11:39:28.049Z</time></trkpt><trkpt lat="43.4408267" lon="11.3538567"><ele>355.0</ele><time>2026-04-18T11:39:29.05Z</time></trkpt><trkpt lat="43.4408067" lon="11.3536617"><ele>357.0</ele><time>2026-04-18T11:39:30.05Z</time></trkpt><trkpt lat="43.4407883" lon="11.3534517"><ele>359.0</ele><time>2026-04-18T11:39:31.049Z</time></trkpt><trkpt lat="43.4407633" lon="11.353235"><ele>361.0</ele><time>2026-04-18T11:39:32.05Z</time></trkpt><trkpt lat="43.440735" lon="11.3530217"><ele>362.5</ele><time>2026-04-18T11:39:33.05Z</time></trkpt><trkpt lat="43.4407133" lon="11.35282"><ele>364.0</ele><time>2026-04-18T11:39:34.049Z</time></trkpt><trkpt lat="43.4406867" lon="11.3526117"><ele>365.5</ele><time>2026-04-18T11:39:35.05Z</time></trkpt><trkpt lat="43.4406583" lon="11.3524217"><ele>367.0</ele><time>2026-04-18T11:39:36.049Z</time></trkpt><trkpt lat="43.4406283" lon="11.352235"><ele>368.20000000000005</ele><time>2026-04-18T11:39:37.049Z</time></trkpt><trkpt lat="43.44061" lon="11.35206"><ele>369.4</ele><time>2026-04-18T11:39:38.05Z</time></trkpt><trkpt lat="43.44059" lon="11.3519067"><ele>370.6</ele><time>2026-04-18T11:39:39.05Z</time></trkpt><trkpt lat="43.44057" lon="11.35178"><ele>371.79999999999995</ele><time>2026-04-18T11:39:40.049Z</time></trkpt><trkpt lat="43.4405483" lon="11.3516667"><ele>373.0</ele><time>2026-04-18T11:39:41.05Z</time></trkpt><trkpt lat="43.440505" lon="11.3515617"><ele>373.0</ele><time>2026-04-18T11:39:42.049Z</time></trkpt><trkpt lat="43.4404533" lon="11.3514417"><ele>373.0</ele><time>2026-04-18T11:39:43.05Z</time></trkpt><trkpt lat="43.4403917" lon="11.3513"><ele>373.0</ele><time>2026-04-18T11:39:44.05Z</time></trkpt><trkpt lat="43.4403383" lon="11.3511633"><ele>373.0</ele><time>2026-04-18T11:39:45.049Z</time></trkpt><trkpt lat="43.4403017" lon="11.3510217"><ele>373.0</ele><time>2026-04-18T11:39:46.05Z</time></trkpt><trkpt lat="43.4402617" lon="11.3508833"><ele>373.0</ele><time>2026-04-18T11:39:47.049Z</time></trkpt><trkpt lat="43.4402083" lon="11.3507467"><ele>373.0</ele><time>2026-04-18T11:39:48.049Z</time></trkpt><trkpt lat="43.4401233" lon="11.35064"><ele>373.0</ele><time>2026-04-18T11:39:49.049Z</time></trkpt><trkpt lat="43.4400133" lon="11.3505433"><ele>373.0</ele><time>2026-04-18T11:39:50.049Z</time></trkpt><trkpt lat="43.4398883" lon="11.3504517"><ele>373.75</ele><time>2026-04-18T11:39:51.05Z</time></trkpt><trkpt lat="43.439745" lon="11.3503767"><ele>374.5</ele><time>2026-04-18T11:39:52.05Z</time></trkpt><trkpt lat="43.4396033" lon="11.35031"><ele>375.25</ele><time>2026-04-18T11:39:53.049Z</time></trkpt><trkpt lat="43.4394667" lon="11.3502583"><ele>376.0</ele><time>2026-04-18T11:39:54.05Z</time></trkpt><trkpt lat="43.4393267" lon="11.3502067"><ele>376.25</ele><time>2026-04-18T11:39:55.049Z</time></trkpt><trkpt lat="43.43919" lon="11.3501483"><ele>376.5</ele><time>2026-04-18T11:39:56.049Z</time></trkpt><trkpt lat="43.4390583" lon="11.3500983"><ele>376.75</ele><time>2026-04-18T11:39:57.049Z</time></trkpt><trkpt lat="43.43894" lon="11.3500467"><ele>377.0</ele><time>2026-04-18T11:39:58.049Z</time></trkpt><trkpt lat="43.4388283" lon="11.3499967"><ele>376.6</ele><time>2026-04-18T11:39:59.049Z</time></trkpt><trkpt lat="43.43873" lon="11.3499517"><ele>376.20000000000005</ele><time>2026-04-18T11:40:00.049Z</time></trkpt><trkpt lat="43.438635" lon="11.3499"><ele>375.8</ele><time>2026-04-18T11:40:01.049Z</time></trkpt><trkpt lat="43.4385367" lon="11.34985"><ele>375.4</ele><time>2026-04-18T11:40:02.049Z</time></trkpt><trkpt lat="43.4384433" lon="11.3497833"><ele>375.0</ele><time>2026-04-18T11:40:03.049Z</time></trkpt><trkpt lat="43.438345" lon="11.3497117"><ele>377.25</ele><time>2026-04-18T11:40:04.049Z</time></trkpt><trkpt lat="43.43825" lon="11.3496233"><ele>379.5</ele><time>2026-04-18T11:40:05.05Z</time></trkpt><trkpt lat="43.4381683" lon="11.3495167"><ele>381.75</ele><time>2026-04-18T11:40:06.049Z</time></trkpt><trkpt lat="43.4381" lon="11.3493833"><ele>384.0</ele><time>2026-04-18T11:40:07.049Z</time></trkpt><trkpt lat="43.4380483" lon="11.3492367"><ele>384.0</ele><time>2026-04-18T11:40:08.049Z</time></trkpt><trkpt lat="43.438" lon="11.349075"><ele>384.0</ele><time>2026-04-18T11:40:09.049Z</time></trkpt><trkpt lat="43.43796" lon="11.3489083"><ele>384.0</ele><time>2026-04-18T11:40:10.048Z</time></trkpt><trkpt lat="43.4379283" lon="11.348745"><ele>384.0</ele><time>2026-04-18T11:40:11.048Z</time></trkpt><trkpt lat="43.4378883" lon="11.3485967"><ele>382.6</ele><time>2026-04-18T11:40:12.049Z</time></trkpt><trkpt lat="43.4378233" lon="11.3484733"><ele>381.2</ele><time>2026-04-18T11:40:13.048Z</time></trkpt><trkpt lat="43.4377467" lon="11.3483833"><ele>379.8</ele><time>2026-04-18T11:40:14.048Z</time></trkpt><trkpt lat="43.4376567" lon="11.3483383"><ele>378.40000000000003</ele><time>2026-04-18T11:40:15.049Z</time></trkpt><trkpt lat="43.4375667" lon="11.3483233"><ele>377.0</ele><time>2026-04-18T11:40:16.048Z</time></trkpt><trkpt lat="43.4374733" lon="11.3483383"><ele>377.0</ele><time>2026-04-18T11:40:17.049Z</time></trkpt><trkpt lat="43.437395" lon="11.34839"><ele>377.0</ele><time>2026-04-18T11:40:18.048Z</time></trkpt><trkpt lat="43.4373383" lon="11.3484733"><ele>377.0</ele><time>2026-04-18T11:40:19.049Z</time></trkpt><trkpt lat="43.4372883" lon="11.3485733"><ele>377.0</ele><time>2026-04-18T11:40:20.049Z</time></trkpt><trkpt lat="43.4372567" lon="11.3486767"><ele>377.0</ele><time>2026-04-18T11:40:21.048Z</time></trkpt><trkpt lat="43.4372317" lon="11.3487883"><ele>377.0</ele><time>2026-04-18T11:40:22.048Z</time></trkpt><trkpt lat="43.4371983" lon="11.34892"><ele>376.20000000000005</ele><time>2026-04-18T11:40:23.048Z</time></trkpt><trkpt lat="43.4371583" lon="11.34906"><ele>375.4</ele><time>2026-04-18T11:40:24.048Z</time></trkpt><trkpt lat="43.4371067" lon="11.3491817"><ele>374.6</ele><time>2026-04-18T11:40:25.048Z</time></trkpt><trkpt lat="43.43705" lon="11.34927"><ele>373.79999999999995</ele><time>2026-04-18T11:40:26.048Z</time></trkpt><trkpt lat="43.4369767" lon="11.349335"><ele>373.0</ele><time>2026-04-18T11:40:27.048Z</time></trkpt><trkpt lat="43.4368883" lon="11.3493617"><ele>373.0</ele><time>2026-04-18T11:40:28.049Z</time></trkpt><trkpt lat="43.4367933" lon="11.3493517"><ele>373.0</ele><time>2026-04-18T11:40:29.049Z</time></trkpt><trkpt lat="43.4367017" lon="11.349305"><ele>373.0</ele><time>2026-04-18T11:40:30.048Z</time></trkpt><trkpt lat="43.4366117" lon="11.349235"><ele>373.0</ele><time>2026-04-18T11:40:31.048Z</time></trkpt><trkpt lat="43.4365183" lon="11.3491333"><ele>373.0</ele><time>2026-04-18T11:40:32.049Z</time></trkpt><trkpt lat="43.4364167" lon="11.3490233"><ele>372.25</ele><time>2026-04-18T11:40:33.048Z</time></trkpt><trkpt lat="43.4363" lon="11.3489233"><ele>371.5</ele><time>2026-04-18T11:40:34.048Z</time></trkpt><trkpt lat="43.4361867" lon="11.3488333"><ele>370.75</ele><time>2026-04-18T11:40:35.049Z</time></trkpt><trkpt lat="43.4360783" lon="11.348755"><ele>370.0</ele><time>2026-04-18T11:40:36.049Z</time></trkpt><trkpt lat="43.4359683" lon="11.34869"><ele>373.25</ele><time>2026-04-18T11:40:37.048Z</time></trkpt><trkpt lat="43.4358533" lon="11.3486483"><ele>376.5</ele><time>2026-04-18T11:40:38.048Z</time></trkpt><trkpt lat="43.4357283" lon="11.348645"><ele>379.75</ele><time>2026-04-18T11:40:39.048Z</time></trkpt><trkpt lat="43.4355983" lon="11.34868"><ele>383.0</ele><time>2026-04-18T11:40:40.049Z</time></trkpt><trkpt lat="43.43547" lon="11.3487233"><ele>383.2</ele><time>2026-04-18T11:40:41.048Z</time></trkpt><trkpt lat="43.4353533" lon="11.3487633"><ele>383.4</ele><time>2026-04-18T11:40:42.048Z</time></trkpt><trkpt lat="43.4352383" lon="11.348785"><ele>383.59999999999997</ele><time>2026-04-18T11:40:43.048Z</time></trkpt><trkpt lat="43.4351383" lon="11.34878"><ele>383.79999999999995</ele><time>2026-04-18T11:40:44.048Z</time></trkpt><trkpt lat="43.43505" lon="11.3487467"><ele>384.0</ele><time>2026-04-18T11:40:45.048Z</time></trkpt><trkpt lat="43.4349567" lon="11.3487117"><ele>384.0</ele><time>2026-04-18T11:40:46.049Z</time></trkpt><trkpt lat="43.43487" lon="11.3486967"><ele>384.0</ele><time>2026-04-18T11:40:47.048Z</time></trkpt><trkpt lat="43.434785" lon="11.3487067"><ele>384.0</ele><time>2026-04-18T11:40:48.049Z</time></trkpt><trkpt lat="43.434705" lon="11.3487467"><ele>384.0</ele><time>2026-04-18T11:40:49.048Z</time></trkpt><trkpt lat="43.4346433" lon="11.3488183"><ele>384.0</ele><time>2026-04-18T11:40:50.049Z</time></trkpt><trkpt lat="43.4345883" lon="11.34892"><ele>384.0</ele><time>2026-04-18T11:40:51.049Z</time></trkpt><trkpt lat="43.43454" lon="11.3490533"><ele>386.0</ele><time>2026-04-18T11:40:52.048Z</time></trkpt><trkpt lat="43.4344933" lon="11.3491983"><ele>388.0</ele><time>2026-04-18T11:40:53.049Z</time></trkpt><trkpt lat="43.43445" lon="11.349345"><ele>390.0</ele><time>2026-04-18T11:40:54.048Z</time></trkpt><trkpt lat="43.434405" lon="11.3495017"><ele>392.0</ele><time>2026-04-18T11:40:55.048Z</time></trkpt><trkpt lat="43.4343583" lon="11.3496517"><ele>389.5</ele><time>2026-04-18T11:40:56.048Z</time></trkpt><trkpt lat="43.4343" lon="11.34979"><ele>387.0</ele><time>2026-04-18T11:40:57.049Z</time></trkpt><trkpt lat="43.4342233" lon="11.3499167"><ele>384.5</ele><time>2026-04-18T11:40:58.048Z</time></trkpt><trkpt lat="43.43413" lon="11.3500417"><ele>382.0</ele><time>2026-04-18T11:40:59.048Z</time></trkpt><trkpt lat="43.4340183" lon="11.3501667"><ele>382.0</ele><time>2026-04-18T11:41:00.048Z</time></trkpt><trkpt lat="43.4339033" lon="11.3502983"><ele>382.0</ele><time>2026-04-18T11:41:01.049Z</time></trkpt><trkpt lat="43.433805" lon="11.3504333"><ele>382.0</ele><time>2026-04-18T11:41:02.048Z</time></trkpt><trkpt lat="43.4337083" lon="11.35056"><ele>382.0</ele><time>2026-04-18T11:41:03.049Z</time></trkpt><trkpt lat="43.433605" lon="11.350675"><ele>381.75</ele><time>2026-04-18T11:41:04.048Z</time></trkpt><trkpt lat="43.4334883" lon="11.3507933"><ele>381.5</ele><time>2026-04-18T11:41:05.048Z</time></trkpt><trkpt lat="43.4333683" lon="11.3509067"><ele>381.25</ele><time>2026-04-18T11:41:06.049Z</time></trkpt><trkpt lat="43.433235" lon="11.3510233"><ele>381.0</ele><time>2026-04-18T11:41:07.048Z</time></trkpt><trkpt lat="43.43311" lon="11.3511317"><ele>381.0</ele><time>2026-04-18T11:41:08.048Z</time></trkpt><trkpt lat="43.4329933" lon="11.351225"><ele>381.0</ele><time>2026-04-18T11:41:09.049Z</time></trkpt><trkpt lat="43.4328817" lon="11.351305"><ele>381.0</ele><time>2026-04-18T11:41:10.048Z</time></trkpt><trkpt lat="43.4327817" lon="11.351355"><ele>381.0</ele><time>2026-04-18T11:41:11.048Z</time></trkpt><trkpt lat="43.4326767" lon="11.3513833"><ele>382.8</ele><time>2026-04-18T11:41:12.048Z</time></trkpt><trkpt lat="43.4325667" lon="11.3513833"><ele>384.6</ele><time>2026-04-18T11:41:13.048Z</time></trkpt><trkpt lat="43.432455" lon="11.3513733"><ele>386.4</ele><time>2026-04-18T11:41:14.048Z</time></trkpt><trkpt lat="43.43235" lon="11.3513533"><ele>388.2</ele><time>2026-04-18T11:41:15.048Z</time></trkpt><trkpt lat="43.4322367" lon="11.3513467"><ele>390.0</ele><time>2026-04-18T11:41:16.049Z</time></trkpt><trkpt lat="43.43212" lon="11.3513383"><ele>391.2</ele><time>2026-04-18T11:41:17.048Z</time></trkpt><trkpt lat="43.43201" lon="11.3513167"><ele>392.4</ele><time>2026-04-18T11:41:18.049Z</time></trkpt><trkpt lat="43.4319067" lon="11.3512817"><ele>393.6</ele><time>2026-04-18T11:41:19.049Z</time></trkpt><trkpt lat="43.4318217" lon="11.3512117"><ele>394.8</ele><time>2026-04-18T11:41:20.048Z</time></trkpt><trkpt lat="43.4317367" lon="11.35111"><ele>396.0</ele><time>2026-04-18T11:41:21.048Z</time></trkpt><trkpt lat="43.4316533" lon="11.3510017"><ele>396.0</ele><time>2026-04-18T11:41:22.048Z</time></trkpt><trkpt lat="43.4315783" lon="11.3508983"><ele>396.0</ele><time>2026-04-18T11:41:23.049Z</time></trkpt><trkpt lat="43.4315233" lon="11.3508"><ele>396.0</ele><time>2026-04-18T11:41:24.049Z</time></trkpt><trkpt lat="43.4314733" lon="11.3507183"><ele>396.0</ele><time>2026-04-18T11:41:25.049Z</time></trkpt><trkpt lat="43.4314233" lon="11.350665"><ele>396.0</ele><time>2026-04-18T11:41:26.048Z</time></trkpt><trkpt lat="43.4313133" lon="11.3506333"><ele>396.0</ele><time>2026-04-18T11:41:28.049Z</time></trkpt><trkpt lat="43.4312467" lon="11.3506617"><ele>393.20000000000005</ele><time>2026-04-18T11:41:29.049Z</time></trkpt><trkpt lat="43.4311717" lon="11.3507133"><ele>390.40000000000003</ele><time>2026-04-18T11:41:30.049Z</time></trkpt><trkpt lat="43.4310917" lon="11.3507717"><ele>387.6</ele><time>2026-04-18T11:41:31.048Z</time></trkpt><trkpt lat="43.430995" lon="11.350845"><ele>384.8</ele><time>2026-04-18T11:41:32.049Z</time></trkpt><trkpt lat="43.4308917" lon="11.3508833"><ele>382.0</ele><time>2026-04-18T11:41:33.048Z</time></trkpt><trkpt lat="43.430785" lon="11.350895"><ele>382.0</ele><time>2026-04-18T11:41:34.048Z</time></trkpt><trkpt lat="43.4306717" lon="11.3508867"><ele>382.0</ele><time>2026-04-18T11:41:35.048Z</time></trkpt><trkpt lat="43.43055" lon="11.3508633"><ele>382.0</ele><time>2026-04-18T11:41:36.048Z</time></trkpt><trkpt lat="43.4304333" lon="11.350845"><ele>382.0</ele><time>2026-04-18T11:41:37.048Z</time></trkpt><trkpt lat="43.4303133" lon="11.3508333"><ele>381.40000000000003</ele><time>2026-04-18T11:41:38.048Z</time></trkpt><trkpt lat="43.4301983" lon="11.35083"><ele>380.8</ele><time>2026-04-18T11:41:39.049Z</time></trkpt><trkpt lat="43.4300817" lon="11.3508333"><ele>380.2</ele><time>2026-04-18T11:41:40.049Z</time></trkpt><trkpt lat="43.4299733" lon="11.3508483"><ele>379.6</ele><time>2026-04-18T11:41:41.048Z</time></trkpt><trkpt lat="43.4298667" lon="11.3508633"><ele>379.0</ele><time>2026-04-18T11:41:42.048Z</time></trkpt><trkpt lat="43.429755" lon="11.3508617"><ele>377.5</ele><time>2026-04-18T11:41:43.049Z</time></trkpt><trkpt lat="43.42964" lon="11.3508333"><ele>376.0</ele><time>2026-04-18T11:41:44.048Z</time></trkpt><trkpt lat="43.4295233" lon="11.350765"><ele>374.5</ele><time>2026-04-18T11:41:45.049Z</time></trkpt><trkpt lat="43.4294067" lon="11.3506867"><ele>373.0</ele><time>2026-04-18T11:41:46.048Z</time></trkpt><trkpt lat="43.4292933" lon="11.350605"><ele>374.0</ele><time>2026-04-18T11:41:47.048Z</time></trkpt><trkpt lat="43.4291733" lon="11.3505133"><ele>375.0</ele><time>2026-04-18T11:41:48.049Z</time></trkpt><trkpt lat="43.429045" lon="11.350425"><ele>376.0</ele><time>2026-04-18T11:41:49.048Z</time></trkpt><trkpt lat="43.4289317" lon="11.3503433"><ele>377.0</ele><time>2026-04-18T11:41:50.048Z</time></trkpt><trkpt lat="43.4288233" lon="11.3502583"><ele>377.0</ele><time>2026-04-18T11:41:51.048Z</time></trkpt><trkpt lat="43.4287233" lon="11.35018"><ele>377.0</ele><time>2026-04-18T11:41:52.049Z</time></trkpt><trkpt lat="43.428635" lon="11.35011"><ele>377.0</ele><time>2026-04-18T11:41:53.048Z</time></trkpt><trkpt lat="43.42855" lon="11.3500483"><ele>377.0</ele><time>2026-04-18T11:41:54.048Z</time></trkpt><trkpt lat="43.4284617" lon="11.35"><ele>377.0</ele><time>2026-04-18T11:41:55.049Z</time></trkpt><trkpt lat="43.42837" lon="11.3499633"><ele>377.0</ele><time>2026-04-18T11:41:56.048Z</time></trkpt><trkpt lat="43.4282667" lon="11.3499533"><ele>377.0</ele><time>2026-04-18T11:41:57.048Z</time></trkpt><trkpt lat="43.4281583" lon="11.34997"><ele>377.0</ele><time>2026-04-18T11:41:58.049Z</time></trkpt><trkpt lat="43.42806" lon="11.3500083"><ele>377.0</ele><time>2026-04-18T11:41:59.048Z</time></trkpt><trkpt lat="43.4279517" lon="11.35007"><ele>377.0</ele><time>2026-04-18T11:42:00.048Z</time></trkpt><trkpt lat="43.42784" lon="11.350145"><ele>377.25</ele><time>2026-04-18T11:42:01.048Z</time></trkpt><trkpt lat="43.4277233" lon="11.350215"><ele>377.5</ele><time>2026-04-18T11:42:02.048Z</time></trkpt><trkpt lat="43.427595" lon="11.3502833"><ele>377.75</ele><time>2026-04-18T11:42:03.048Z</time></trkpt><trkpt lat="43.42746" lon="11.3503383"><ele>378.0</ele><time>2026-04-18T11:42:04.048Z</time></trkpt><trkpt lat="43.4273233" lon="11.3503817"><ele>378.0</ele><time>2026-04-18T11:42:05.049Z</time></trkpt><trkpt lat="43.427205" lon="11.3504167"><ele>378.0</ele><time>2026-04-18T11:42:06.048Z</time></trkpt><trkpt lat="43.4271" lon="11.3504583"><ele>378.0</ele><time>2026-04-18T11:42:07.048Z</time></trkpt><trkpt lat="43.4270117" lon="11.3505217"><ele>378.0</ele><time>2026-04-18T11:42:08.048Z</time></trkpt><trkpt lat="43.4269433" lon="11.3506"><ele>378.0</ele><time>2026-04-18T11:42:09.048Z</time></trkpt><trkpt lat="43.4268883" lon="11.3506883"><ele>381.2</ele><time>2026-04-18T11:42:10.049Z</time></trkpt><trkpt lat="43.42684" lon="11.3507933"><ele>384.4</ele><time>2026-04-18T11:42:11.048Z</time></trkpt><trkpt lat="43.4267967" lon="11.3509083"><ele>387.59999999999997</ele><time>2026-04-18T11:42:12.048Z</time></trkpt><trkpt lat="43.426755" lon="11.3510183"><ele>390.79999999999995</ele><time>2026-04-18T11:42:13.048Z</time></trkpt><trkpt lat="43.4267117" lon="11.3511333"><ele>394.0</ele><time>2026-04-18T11:42:14.049Z</time></trkpt><trkpt lat="43.426665" lon="11.351245"><ele>394.0</ele><time>2026-04-18T11:42:15.048Z</time></trkpt><trkpt lat="43.42661" lon="11.3513617"><ele>394.0</ele><time>2026-04-18T11:42:16.048Z</time></trkpt><trkpt lat="43.4265417" lon="11.3514717"><ele>394.0</ele><time>2026-04-18T11:42:17.049Z</time></trkpt><trkpt lat="43.426455" lon="11.3515717"><ele>394.0</ele><time>2026-04-18T11:42:18.049Z</time></trkpt><trkpt lat="43.426355" lon="11.3516717"><ele>394.0</ele><time>2026-04-18T11:42:19.049Z</time></trkpt><trkpt lat="43.42626" lon="11.3517783"><ele>395.4</ele><time>2026-04-18T11:42:20.049Z</time></trkpt><trkpt lat="43.4261717" lon="11.3518683"><ele>396.79999999999995</ele><time>2026-04-18T11:42:21.049Z</time></trkpt><trkpt lat="43.4260783" lon="11.3519517"><ele>398.20000000000005</ele><time>2026-04-18T11:42:22.048Z</time></trkpt><trkpt lat="43.4259983" lon="11.352035"><ele>399.6</ele><time>2026-04-18T11:42:23.049Z</time></trkpt><trkpt lat="43.425935" lon="11.3521383"><ele>401.0</ele><time>2026-04-18T11:42:24.048Z</time></trkpt><trkpt lat="43.4258767" lon="11.352285"><ele>401.0</ele><time>2026-04-18T11:42:25.048Z</time></trkpt><trkpt lat="43.42584" lon="11.3524417"><ele>401.0</ele><time>2026-04-18T11:42:26.048Z</time></trkpt><trkpt lat="43.42581" lon="11.352615"><ele>401.0</ele><time>2026-04-18T11:42:27.049Z</time></trkpt><trkpt lat="43.4257767" lon="11.3527833"><ele>401.0</ele><time>2026-04-18T11:42:28.048Z</time></trkpt><trkpt lat="43.425755" lon="11.352955"><ele>400.5</ele><time>2026-04-18T11:42:29.049Z</time></trkpt><trkpt lat="43.42575" lon="11.35314"><ele>400.0</ele><time>2026-04-18T11:42:30.048Z</time></trkpt><trkpt lat="43.4257633" lon="11.3533233"><ele>399.5</ele><time>2026-04-18T11:42:31.049Z</time></trkpt><trkpt lat="43.4257783" lon="11.3534967"><ele>399.0</ele><time>2026-04-18T11:42:32.049Z</time></trkpt><trkpt lat="43.4257883" lon="11.3536417"><ele>399.0</ele><time>2026-04-18T11:42:33.049Z</time></trkpt><trkpt lat="43.42578" lon="11.353785"><ele>399.0</ele><time>2026-04-18T11:42:34.048Z</time></trkpt><trkpt lat="43.4257567" lon="11.3539167"><ele>399.0</ele><time>2026-04-18T11:42:35.049Z</time></trkpt><trkpt lat="43.4257183" lon="11.3540467"><ele>399.0</ele><time>2026-04-18T11:42:36.049Z</time></trkpt><trkpt lat="43.42567" lon="11.3541633"><ele>399.0</ele><time>2026-04-18T11:42:37.048Z</time></trkpt><trkpt lat="43.425615" lon="11.3542633"><ele>400.6</ele><time>2026-04-18T11:42:38.048Z</time></trkpt><trkpt lat="43.4255433" lon="11.35434"><ele>402.2</ele><time>2026-04-18T11:42:39.048Z</time></trkpt><trkpt lat="43.4254567" lon="11.3543883"><ele>403.8</ele><time>2026-04-18T11:42:40.048Z</time></trkpt><trkpt lat="43.4253617" lon="11.354405"><ele>405.40000000000003</ele><time>2026-04-18T11:42:41.048Z</time></trkpt><trkpt lat="43.425265" lon="11.3544"><ele>407.0</ele><time>2026-04-18T11:42:42.048Z</time></trkpt><trkpt lat="43.4251783" lon="11.35441"><ele>409.8333333333333</ele><time>2026-04-18T11:42:43.048Z</time></trkpt><trkpt lat="43.4251" lon="11.3544533"><ele>412.66666666666663</ele><time>2026-04-18T11:42:44.048Z</time></trkpt><trkpt lat="43.4250417" lon="11.3545233"><ele>415.5</ele><time>2026-04-18T11:42:45.048Z</time></trkpt><trkpt lat="43.4250033" lon="11.3546133"><ele>418.33333333333337</ele><time>2026-04-18T11:42:46.049Z</time></trkpt><trkpt lat="43.4249783" lon="11.3547083"><ele>421.1666666666667</ele><time>2026-04-18T11:42:47.049Z</time></trkpt><trkpt lat="43.4249433" lon="11.354785"><ele>424.0</ele><time>2026-04-18T11:42:48.048Z</time></trkpt><trkpt lat="43.42482" lon="11.354845"><ele>424.0</ele><time>2026-04-18T11:42:50.048Z</time></trkpt><trkpt lat="43.4247283" lon="11.3548467"><ele>424.0</ele><time>2026-04-18T11:42:51.049Z</time></trkpt><trkpt lat="43.424625" lon="11.3548317"><ele>424.0</ele><time>2026-04-18T11:42:52.048Z</time></trkpt><trkpt lat="43.424515" lon="11.35481"><ele>424.0</ele><time>2026-04-18T11:42:53.048Z</time></trkpt><trkpt lat="43.4244017" lon="11.354795"><ele>424.0</ele><time>2026-04-18T11:42:54.048Z</time></trkpt><trkpt lat="43.4242983" lon="11.354765"><ele>423.0</ele><time>2026-04-18T11:42:55.049Z</time></trkpt><trkpt lat="43.4242133" lon="11.3547183"><ele>422.0</ele><time>2026-04-18T11:42:56.048Z</time></trkpt><trkpt lat="43.424135" lon="11.354635"><ele>421.0</ele><time>2026-04-18T11:42:57.048Z</time></trkpt><trkpt lat="43.4240683" lon="11.3545267"><ele>420.0</ele><time>2026-04-18T11:42:58.048Z</time></trkpt><trkpt lat="43.4240033" lon="11.3544017"><ele>419.0</ele><time>2026-04-18T11:42:59.049Z</time></trkpt><trkpt lat="43.4239467" lon="11.3542883"><ele>422.2</ele><time>2026-04-18T11:43:00.048Z</time></trkpt><trkpt lat="43.42391" lon="11.3541717"><ele>425.4</ele><time>2026-04-18T11:43:01.049Z</time></trkpt><trkpt lat="43.4238833" lon="11.354055"><ele>428.6</ele><time>2026-04-18T11:43:02.049Z</time></trkpt><trkpt lat="43.423865" lon="11.3539217"><ele>431.8</ele><time>2026-04-18T11:43:03.048Z</time></trkpt><trkpt lat="43.423845" lon="11.3537767"><ele>435.0</ele><time>2026-04-18T11:43:04.048Z</time></trkpt><trkpt lat="43.423825" lon="11.3536167"><ele>434.5</ele><time>2026-04-18T11:43:05.049Z</time></trkpt><trkpt lat="43.4238083" lon="11.3534467"><ele>434.0</ele><time>2026-04-18T11:43:06.049Z</time></trkpt><trkpt lat="43.4237867" lon="11.3532767"><ele>433.5</ele><time>2026-04-18T11:43:07.049Z</time></trkpt><trkpt lat="43.42377" lon="11.3531017"><ele>433.0</ele><time>2026-04-18T11:43:08.048Z</time></trkpt><trkpt lat="43.4237483" lon="11.35293"><ele>435.5</ele><time>2026-04-18T11:43:09.048Z</time></trkpt><trkpt lat="43.4237233" lon="11.3527583"><ele>438.0</ele><time>2026-04-18T11:43:10.048Z</time></trkpt><trkpt lat="43.4237117" lon="11.3525867"><ele>440.5</ele><time>2026-04-18T11:43:11.049Z</time></trkpt><trkpt lat="43.4237" lon="11.3524333"><ele>443.0</ele><time>2026-04-18T11:43:12.049Z</time></trkpt><trkpt lat="43.4236967" lon="11.3522867"><ele>444.25</ele><time>2026-04-18T11:43:13.048Z</time></trkpt><trkpt lat="43.4237117" lon="11.3521383"><ele>445.5</ele><time>2026-04-18T11:43:14.049Z</time></trkpt><trkpt lat="43.42374" lon="11.35199"><ele>446.75</ele><time>2026-04-18T11:43:15.048Z</time></trkpt><trkpt lat="43.423785" lon="11.3518367"><ele>448.0</ele><time>2026-04-18T11:43:16.048Z</time></trkpt><trkpt lat="43.4238367" lon="11.35168"><ele>449.0</ele><time>2026-04-18T11:43:17.048Z</time></trkpt><trkpt lat="43.42389" lon="11.3515217"><ele>450.0</ele><time>2026-04-18T11:43:18.048Z</time></trkpt><trkpt lat="43.4239417" lon="11.3513567"><ele>451.0</ele><time>2026-04-18T11:43:19.048Z</time></trkpt><trkpt lat="43.4239783" lon="11.3511783"><ele>452.0</ele><time>2026-04-18T11:43:20.048Z</time></trkpt><trkpt lat="43.4240017" lon="11.3509883"><ele>452.25</ele><time>2026-04-18T11:43:21.047Z</time></trkpt><trkpt lat="43.4240167" lon="11.3507983"><ele>452.5</ele><time>2026-04-18T11:43:22.047Z</time></trkpt><trkpt lat="43.4240167" lon="11.3506267"><ele>452.75</ele><time>2026-04-18T11:43:23.047Z</time></trkpt><trkpt lat="43.4240083" lon="11.3504833"><ele>453.0</ele><time>2026-04-18T11:43:24.047Z</time></trkpt><trkpt lat="43.42399" lon="11.3503667"><ele>454.8333333333333</ele><time>2026-04-18T11:43:25.048Z</time></trkpt><trkpt lat="43.423955" lon="11.350275"><ele>456.66666666666663</ele><time>2026-04-18T11:43:26.047Z</time></trkpt><trkpt lat="43.42391" lon="11.3502017"><ele>458.5</ele><time>2026-04-18T11:43:27.047Z</time></trkpt><trkpt lat="43.423845" lon="11.350155"><ele>460.3333333333333</ele><time>2026-04-18T11:43:28.048Z</time></trkpt><trkpt lat="43.42377" lon="11.3501383"><ele>462.16666666666663</ele><time>2026-04-18T11:43:29.047Z</time></trkpt><trkpt lat="43.42369" lon="11.3501417"><ele>464.0</ele><time>2026-04-18T11:43:30.047Z</time></trkpt><trkpt lat="43.4235933" lon="11.3501717"><ele>466.4</ele><time>2026-04-18T11:43:31.048Z</time></trkpt><trkpt lat="43.4234983" lon="11.3502167"><ele>468.79999999999995</ele><time>2026-04-18T11:43:32.047Z</time></trkpt><trkpt lat="43.4233883" lon="11.35028"><ele>471.20000000000005</ele><time>2026-04-18T11:43:33.047Z</time></trkpt><trkpt lat="43.4232883" lon="11.3503567"><ele>473.6</ele><time>2026-04-18T11:43:34.047Z</time></trkpt><trkpt lat="43.423195" lon="11.3504333"><ele>476.0</ele><time>2026-04-18T11:43:35.048Z</time></trkpt><trkpt lat="43.4231133" lon="11.3505183"><ele>477.3333333333333</ele><time>2026-04-18T11:43:36.047Z</time></trkpt><trkpt lat="43.4230417" lon="11.35059"><ele>478.66666666666663</ele><time>2026-04-18T11:43:37.047Z</time></trkpt><trkpt lat="43.422975" lon="11.3506233"><ele>480.0</ele><time>2026-04-18T11:43:38.048Z</time></trkpt><trkpt lat="43.42288" lon="11.350605"><ele>481.33333333333337</ele><time>2026-04-18T11:43:40.047Z</time></trkpt><trkpt lat="43.4228333" lon="11.3504883"><ele>482.6666666666667</ele><time>2026-04-18T11:43:42.047Z</time></trkpt><trkpt lat="43.4228117" lon="11.3503967"><ele>484.0</ele><time>2026-04-18T11:43:43.048Z</time></trkpt><trkpt lat="43.42278" lon="11.3502983"><ele>484.0</ele><time>2026-04-18T11:43:44.048Z</time></trkpt><trkpt lat="43.422725" lon="11.3502067"><ele>484.0</ele><time>2026-04-18T11:43:45.048Z</time></trkpt><trkpt lat="43.422655" lon="11.3501217"><ele>484.0</ele><time>2026-04-18T11:43:46.048Z</time></trkpt><trkpt lat="43.4225733" lon="11.350055"><ele>484.0</ele><time>2026-04-18T11:43:47.047Z</time></trkpt><trkpt lat="43.4224833" lon="11.3499883"><ele>484.0</ele><time>2026-04-18T11:43:48.048Z</time></trkpt><trkpt lat="43.4223917" lon="11.3499367"><ele>484.0</ele><time>2026-04-18T11:43:49.047Z</time></trkpt><trkpt lat="43.4222983" lon="11.3498733"><ele>484.0</ele><time>2026-04-18T11:43:50.048Z</time></trkpt><trkpt lat="43.4222167" lon="11.3498017"><ele>484.0</ele><time>2026-04-18T11:43:51.048Z</time></trkpt><trkpt lat="43.4221483" lon="11.3497283"><ele>484.0</ele><time>2026-04-18T11:43:52.047Z</time></trkpt><trkpt lat="43.4220767" lon="11.3496483"><ele>484.0</ele><time>2026-04-18T11:43:53.048Z</time></trkpt><trkpt lat="43.4220067" lon="11.34958"><ele>486.33333333333337</ele><time>2026-04-18T11:43:54.047Z</time></trkpt><trkpt lat="43.42193" lon="11.34953"><ele>488.6666666666667</ele><time>2026-04-18T11:43:55.047Z</time></trkpt><trkpt lat="43.42185" lon="11.34951"><ele>491.0</ele><time>2026-04-18T11:43:56.047Z</time></trkpt><trkpt lat="43.4217633" lon="11.3495133"><ele>493.33333333333337</ele><time>2026-04-18T11:43:57.047Z</time></trkpt><trkpt lat="43.4216717" lon="11.3495317"><ele>495.6666666666667</ele><time>2026-04-18T11:43:58.048Z</time></trkpt><trkpt lat="43.4215917" lon="11.3495417"><ele>498.0</ele><time>2026-04-18T11:43:59.047Z</time></trkpt><trkpt lat="43.4215233" lon="11.3495317"><ele>498.0</ele><time>2026-04-18T11:44:00.047Z</time></trkpt><trkpt lat="43.4214533" lon="11.3494933"><ele>498.0</ele><time>2026-04-18T11:44:01.047Z</time></trkpt><trkpt lat="43.4214" lon="11.3494267"><ele>498.0</ele><time>2026-04-18T11:44:02.048Z</time></trkpt><trkpt lat="43.421365" lon="11.3493233"><ele>498.0</ele><time>2026-04-18T11:44:03.048Z</time></trkpt><trkpt lat="43.421345" lon="11.3491917"><ele>498.0</ele><time>2026-04-18T11:44:04.047Z</time></trkpt><trkpt lat="43.4213417" lon="11.3490517"><ele>498.0</ele><time>2026-04-18T11:44:05.048Z</time></trkpt><trkpt lat="43.4213417" lon="11.3489117"><ele>499.2</ele><time>2026-04-18T11:44:06.047Z</time></trkpt><trkpt lat="43.4213483" lon="11.3487683"><ele>500.4</ele><time>2026-04-18T11:44:07.047Z</time></trkpt><trkpt lat="43.4213583" lon="11.3486283"><ele>501.59999999999997</ele><time>2026-04-18T11:44:08.047Z</time></trkpt><trkpt lat="43.4213733" lon="11.3485"><ele>502.79999999999995</ele><time>2026-04-18T11:44:09.047Z</time></trkpt><trkpt lat="43.421385" lon="11.348375"><ele>504.0</ele><time>2026-04-18T11:44:10.047Z</time></trkpt><trkpt lat="43.4213967" lon="11.3482567"><ele>504.0</ele><time>2026-04-18T11:44:11.047Z</time></trkpt><trkpt lat="43.4214083" lon="11.34815"><ele>504.0</ele><time>2026-04-18T11:44:12.047Z</time></trkpt><trkpt lat="43.4214117" lon="11.348045"><ele>504.0</ele><time>2026-04-18T11:44:13.047Z</time></trkpt><trkpt lat="43.42142" lon="11.347945"><ele>504.0</ele><time>2026-04-18T11:44:14.047Z</time></trkpt><trkpt lat="43.4214217" lon="11.3478533"><ele>504.0</ele><time>2026-04-18T11:44:15.048Z</time></trkpt><trkpt lat="43.42142" lon="11.3477217"><ele>504.0</ele><time>2026-04-18T11:44:17.048Z</time></trkpt><trkpt lat="43.421435" lon="11.3476183"><ele>503.5</ele><time>2026-04-18T11:44:20.048Z</time></trkpt><trkpt lat="43.4213883" lon="11.3475117"><ele>503.0</ele><time>2026-04-18T11:44:27.048Z</time></trkpt><trkpt lat="43.4213117" lon="11.3474317"><ele>502.5</ele><time>2026-04-18T11:44:29.048Z</time></trkpt><trkpt lat="43.4212517" lon="11.34738"><ele>502.0</ele><time>2026-04-18T11:44:30.047Z</time></trkpt><trkpt lat="43.4211767" lon="11.3473283"><ele>501.5</ele><time>2026-04-18T11:44:31.047Z</time></trkpt><trkpt lat="43.42108" lon="11.347285"><ele>501.0</ele><time>2026-04-18T11:44:32.047Z</time></trkpt><trkpt lat="43.420975" lon="11.3472583"><ele>501.0</ele><time>2026-04-18T11:44:33.048Z</time></trkpt><trkpt lat="43.42086" lon="11.3472417"><ele>501.0</ele><time>2026-04-18T11:44:34.047Z</time></trkpt><trkpt lat="43.4207517" lon="11.347235"><ele>501.0</ele><time>2026-04-18T11:44:35.047Z</time></trkpt><trkpt lat="43.420645" lon="11.3472267"><ele>501.0</ele><time>2026-04-18T11:44:36.047Z</time></trkpt><trkpt lat="43.4205433" lon="11.3472283"><ele>501.0</ele><time>2026-04-18T11:44:37.047Z</time></trkpt><trkpt lat="43.42046" lon="11.347205"><ele>502.20000000000005</ele><time>2026-04-18T11:44:38.047Z</time></trkpt><trkpt lat="43.4203717" lon="11.34715"><ele>503.40000000000003</ele><time>2026-04-18T11:44:39.048Z</time></trkpt><trkpt lat="43.420285" lon="11.3470783"><ele>504.6</ele><time>2026-04-18T11:44:40.048Z</time></trkpt><trkpt lat="43.4201767" lon="11.34702"><ele>505.8</ele><time>2026-04-18T11:44:41.048Z</time></trkpt><trkpt lat="43.4200617" lon="11.3469717"><ele>507.0</ele><time>2026-04-18T11:44:42.047Z</time></trkpt><trkpt lat="43.41994" lon="11.3469467"><ele>507.0</ele><time>2026-04-18T11:44:43.047Z</time></trkpt><trkpt lat="43.41982" lon="11.34695"><ele>507.0</ele><time>2026-04-18T11:44:44.048Z</time></trkpt><trkpt lat="43.4196967" lon="11.3469583"><ele>507.0</ele><time>2026-04-18T11:44:45.047Z</time></trkpt><trkpt lat="43.4195883" lon="11.34695"><ele>507.0</ele><time>2026-04-18T11:44:46.047Z</time></trkpt><trkpt lat="43.4194783" lon="11.3469183"><ele>505.5</ele><time>2026-04-18T11:44:47.048Z</time></trkpt><trkpt lat="43.4193633" lon="11.3468583"><ele>504.0</ele><time>2026-04-18T11:44:48.048Z</time></trkpt><trkpt lat="43.41925" lon="11.3467717"><ele>502.5</ele><time>2026-04-18T11:44:49.047Z</time></trkpt><trkpt lat="43.419135" lon="11.3466817"><ele>501.0</ele><time>2026-04-18T11:44:50.047Z</time></trkpt><trkpt lat="43.4190383" lon="11.3465883"><ele>501.0</ele><time>2026-04-18T11:44:51.048Z</time></trkpt><trkpt lat="43.4189433" lon="11.3465083"><ele>501.0</ele><time>2026-04-18T11:44:52.047Z</time></trkpt><trkpt lat="43.4188533" lon="11.3464483"><ele>501.0</ele><time>2026-04-18T11:44:53.047Z</time></trkpt><trkpt lat="43.4187533" lon="11.3464117"><ele>501.0</ele><time>2026-04-18T11:44:54.047Z</time></trkpt><trkpt lat="43.4186467" lon="11.3464067"><ele>501.0</ele><time>2026-04-18T11:44:55.047Z</time></trkpt><trkpt lat="43.4185333" lon="11.3464217"><ele>500.5</ele><time>2026-04-18T11:44:56.047Z</time></trkpt><trkpt lat="43.4184167" lon="11.3464467"><ele>500.0</ele><time>2026-04-18T11:44:57.047Z</time></trkpt><trkpt lat="43.4182933" lon="11.3464817"><ele>499.5</ele><time>2026-04-18T11:44:58.047Z</time></trkpt><trkpt lat="43.4181633" lon="11.34653"><ele>499.0</ele><time>2026-04-18T11:44:59.048Z</time></trkpt><trkpt lat="43.418025" lon="11.346585"><ele>502.0</ele><time>2026-04-18T11:45:00.047Z</time></trkpt><trkpt lat="43.4178933" lon="11.346655"><ele>505.0</ele><time>2026-04-18T11:45:01.047Z</time></trkpt><trkpt lat="43.4177667" lon="11.34674"><ele>508.0</ele><time>2026-04-18T11:45:02.048Z</time></trkpt><trkpt lat="43.41764" lon="11.34684"><ele>511.0</ele><time>2026-04-18T11:45:03.047Z</time></trkpt><trkpt lat="43.4175133" lon="11.3469517"><ele>511.0</ele><time>2026-04-18T11:45:04.048Z</time></trkpt><trkpt lat="43.4173983" lon="11.3470717"><ele>511.0</ele><time>2026-04-18T11:45:05.047Z</time></trkpt><trkpt lat="43.4172867" lon="11.3471933"><ele>511.0</ele><time>2026-04-18T11:45:06.047Z</time></trkpt><trkpt lat="43.417185" lon="11.34732"><ele>511.0</ele><time>2026-04-18T11:45:07.047Z</time></trkpt><trkpt lat="43.4171133" lon="11.3474633"><ele>511.0</ele><time>2026-04-18T11:45:08.048Z</time></trkpt><trkpt lat="43.4170833" lon="11.34763"><ele>511.0</ele><time>2026-04-18T11:45:09.047Z</time></trkpt><trkpt lat="43.4170917" lon="11.34782"><ele>511.0</ele><time>2026-04-18T11:45:10.047Z</time></trkpt><trkpt lat="43.4171267" lon="11.3480033"><ele>511.0</ele><time>2026-04-18T11:45:11.047Z</time></trkpt><trkpt lat="43.4171683" lon="11.3481583"><ele>509.8</ele><time>2026-04-18T11:45:12.048Z</time></trkpt><trkpt lat="43.4171867" lon="11.3483067"><ele>508.6</ele><time>2026-04-18T11:45:13.047Z</time></trkpt><trkpt lat="43.4171783" lon="11.3484417"><ele>507.4</ele><time>2026-04-18T11:45:14.047Z</time></trkpt><trkpt lat="43.4171383" lon="11.34855"><ele>506.2</ele><time>2026-04-18T11:45:15.047Z</time></trkpt><trkpt lat="43.4170633" lon="11.3486433"><ele>505.0</ele><time>2026-04-18T11:45:16.048Z</time></trkpt><trkpt lat="43.416955" lon="11.348705"><ele>505.0</ele><time>2026-04-18T11:45:17.048Z</time></trkpt><trkpt lat="43.4168383" lon="11.3487383"><ele>505.0</ele><time>2026-04-18T11:45:18.047Z</time></trkpt><trkpt lat="43.4167183" lon="11.3487717"><ele>505.0</ele><time>2026-04-18T11:45:19.047Z</time></trkpt><trkpt lat="43.416595" lon="11.348805"><ele>505.0</ele><time>2026-04-18T11:45:20.047Z</time></trkpt><trkpt lat="43.4164567" lon="11.3488183"><ele>504.5</ele><time>2026-04-18T11:45:21.047Z</time></trkpt><trkpt lat="43.416315" lon="11.3488317"><ele>504.0</ele><time>2026-04-18T11:45:22.048Z</time></trkpt><trkpt lat="43.4161767" lon="11.3488517"><ele>503.5</ele><time>2026-04-18T11:45:23.047Z</time></trkpt><trkpt lat="43.4160383" lon="11.3488717"><ele>503.0</ele><time>2026-04-18T11:45:24.047Z</time></trkpt><trkpt lat="43.4159067" lon="11.3489017"><ele>503.0</ele><time>2026-04-18T11:45:25.047Z</time></trkpt><trkpt lat="43.4157733" lon="11.348905"><ele>503.0</ele><time>2026-04-18T11:45:26.048Z</time></trkpt><trkpt lat="43.415635" lon="11.3488833"><ele>503.0</ele><time>2026-04-18T11:45:27.048Z</time></trkpt><trkpt lat="43.4154967" lon="11.348855"><ele>503.0</ele><time>2026-04-18T11:45:28.048Z</time></trkpt><trkpt lat="43.4153583" lon="11.3488217"><ele>502.75</ele><time>2026-04-18T11:45:29.048Z</time></trkpt><trkpt lat="43.41524" lon="11.348795"><ele>502.5</ele><time>2026-04-18T11:45:30.048Z</time></trkpt><trkpt lat="43.415115" lon="11.3488167"><ele>502.25</ele><time>2026-04-18T11:45:31.047Z</time></trkpt><trkpt lat="43.4149917" lon="11.348895"><ele>502.0</ele><time>2026-04-18T11:45:32.048Z</time></trkpt><trkpt lat="43.4148733" lon="11.348995"><ele>501.25</ele><time>2026-04-18T11:45:33.047Z</time></trkpt><trkpt lat="43.4147733" lon="11.3491133"><ele>500.5</ele><time>2026-04-18T11:45:34.047Z</time></trkpt><trkpt lat="43.4146917" lon="11.3492517"><ele>499.75</ele><time>2026-04-18T11:45:35.047Z</time></trkpt><trkpt lat="43.4146383" lon="11.3494167"><ele>499.0</ele><time>2026-04-18T11:45:36.047Z</time></trkpt><trkpt lat="43.4146167" lon="11.3496"><ele>497.75</ele><time>2026-04-18T11:45:37.048Z</time></trkpt><trkpt lat="43.4146117" lon="11.349795"><ele>496.5</ele><time>2026-04-18T11:45:38.047Z</time></trkpt><trkpt lat="43.414615" lon="11.3499733"><ele>495.25</ele><time>2026-04-18T11:45:39.047Z</time></trkpt><trkpt lat="43.4146133" lon="11.350135"><ele>494.0</ele><time>2026-04-18T11:45:40.047Z</time></trkpt><trkpt lat="43.414585" lon="11.350275"><ele>494.0</ele><time>2026-04-18T11:45:41.048Z</time></trkpt><trkpt lat="43.4145367" lon="11.3503867"><ele>494.0</ele><time>2026-04-18T11:45:42.048Z</time></trkpt><trkpt lat="43.41447" lon="11.35045"><ele>494.0</ele><time>2026-04-18T11:45:43.048Z</time></trkpt><trkpt lat="43.414395" lon="11.3504783"><ele>494.0</ele><time>2026-04-18T11:45:44.048Z</time></trkpt><trkpt lat="43.4142983" lon="11.3504667"><ele>494.0</ele><time>2026-04-18T11:45:45.048Z</time></trkpt><trkpt lat="43.4141817" lon="11.35042"><ele>494.0</ele><time>2026-04-18T11:45:46.047Z</time></trkpt><trkpt lat="43.4140683" lon="11.3503717"><ele>494.0</ele><time>2026-04-18T11:45:47.047Z</time></trkpt><trkpt lat="43.413955" lon="11.350365"><ele>494.0</ele><time>2026-04-18T11:45:48.047Z</time></trkpt><trkpt lat="43.4138433" lon="11.35041"><ele>494.0</ele><time>2026-04-18T11:45:49.048Z</time></trkpt><trkpt lat="43.4137317" lon="11.35051"><ele>489.3333333333333</ele><time>2026-04-18T11:45:50.048Z</time></trkpt><trkpt lat="43.413615" lon="11.3506467"><ele>484.66666666666663</ele><time>2026-04-18T11:45:51.047Z</time></trkpt><trkpt lat="43.41351" lon="11.3508117"><ele>480.0</ele><time>2026-04-18T11:45:52.047Z</time></trkpt><trkpt lat="43.4133867" lon="11.350975"><ele>480.0</ele><time>2026-04-18T11:45:53.047Z</time></trkpt><trkpt lat="43.41326" lon="11.3511333"><ele>480.0</ele><time>2026-04-18T11:45:54.047Z</time></trkpt><trkpt lat="43.413145" lon="11.3512833"><ele>480.0</ele><time>2026-04-18T11:45:55.048Z</time></trkpt><trkpt lat="43.4130333" lon="11.351425"><ele>478.0</ele><time>2026-04-18T11:45:56.047Z</time></trkpt><trkpt lat="43.412925" lon="11.351555"><ele>476.0</ele><time>2026-04-18T11:45:57.048Z</time></trkpt><trkpt lat="43.4128" lon="11.35166"><ele>474.0</ele><time>2026-04-18T11:45:58.047Z</time></trkpt><trkpt lat="43.412665" lon="11.3517433"><ele>472.0</ele><time>2026-04-18T11:45:59.048Z</time></trkpt><trkpt lat="43.4125067" lon="11.3517867"><ele>472.0</ele><time>2026-04-18T11:46:00.048Z</time></trkpt><trkpt lat="43.4123417" lon="11.3518233"><ele>472.0</ele><time>2026-04-18T11:46:01.048Z</time></trkpt><trkpt lat="43.4121717" lon="11.3518533"><ele>472.0</ele><time>2026-04-18T11:46:02.047Z</time></trkpt><trkpt lat="43.412" lon="11.3518883"><ele>470.33333333333337</ele><time>2026-04-18T11:46:03.048Z</time></trkpt><trkpt lat="43.4118333" lon="11.3519233"><ele>468.66666666666663</ele><time>2026-04-18T11:46:04.048Z</time></trkpt><trkpt lat="43.41167" lon="11.3519583"><ele>467.0</ele><time>2026-04-18T11:46:05.047Z</time></trkpt><trkpt lat="43.4115017" lon="11.3519983"><ele>467.0</ele><time>2026-04-18T11:46:06.047Z</time></trkpt><trkpt lat="43.4113333" lon="11.3520417"><ele>467.0</ele><time>2026-04-18T11:46:07.048Z</time></trkpt><trkpt lat="43.4111733" lon="11.3520833"><ele>467.0</ele><time>2026-04-18T11:46:08.047Z</time></trkpt><trkpt lat="43.4110283" lon="11.352125"><ele>468.0</ele><time>2026-04-18T11:46:09.048Z</time></trkpt><trkpt lat="43.4108883" lon="11.3521533"><ele>469.0</ele><time>2026-04-18T11:46:10.047Z</time></trkpt><trkpt lat="43.4107567" lon="11.3521917"><ele>470.0</ele><time>2026-04-18T11:46:11.048Z</time></trkpt><trkpt lat="43.4106283" lon="11.35223"><ele>471.0</ele><time>2026-04-18T11:46:12.047Z</time></trkpt><trkpt lat="43.4105133" lon="11.3522617"><ele>470.6</ele><time>2026-04-18T11:46:13.047Z</time></trkpt><trkpt lat="43.410415" lon="11.3522833"><ele>470.20000000000005</ele><time>2026-04-18T11:46:14.047Z</time></trkpt><trkpt lat="43.41034" lon="11.352295"><ele>469.79999999999995</ele><time>2026-04-18T11:46:15.047Z</time></trkpt><trkpt lat="43.410225" lon="11.352305"><ele>469.4</ele><time>2026-04-18T11:46:17.047Z</time></trkpt><trkpt lat="43.4101217" lon="11.352425"><ele>469.0</ele><time>2026-04-18T11:46:19.048Z</time></trkpt><trkpt lat="43.4100533" lon="11.35251"><ele>469.0</ele><time>2026-04-18T11:46:20.047Z</time></trkpt><trkpt lat="43.4099733" lon="11.3526167"><ele>469.0</ele><time>2026-04-18T11:46:21.047Z</time></trkpt><trkpt lat="43.4099" lon="11.35273"><ele>469.0</ele><time>2026-04-18T11:46:22.047Z</time></trkpt><trkpt lat="43.409845" lon="11.3528483"><ele>469.0</ele><time>2026-04-18T11:46:23.048Z</time></trkpt><trkpt lat="43.4098083" lon="11.35298"><ele>469.0</ele><time>2026-04-18T11:46:24.048Z</time></trkpt><trkpt lat="43.40978" lon="11.35311"><ele>468.83333333333337</ele><time>2026-04-18T11:46:25.048Z</time></trkpt><trkpt lat="43.40975" lon="11.3532167"><ele>468.6666666666667</ele><time>2026-04-18T11:46:26.047Z</time></trkpt><trkpt lat="43.4097167" lon="11.3532917"><ele>468.5</ele><time>2026-04-18T11:46:27.047Z</time></trkpt><trkpt lat="43.4096133" lon="11.3533417"><ele>468.33333333333337</ele><time>2026-04-18T11:46:29.048Z</time></trkpt><trkpt lat="43.4095483" lon="11.3533083"><ele>468.1666666666667</ele><time>2026-04-18T11:46:30.047Z</time></trkpt><trkpt lat="43.409455" lon="11.35326"><ele>468.0</ele><time>2026-04-18T11:46:31.047Z</time></trkpt><trkpt lat="43.409345" lon="11.3532117"><ele>468.0</ele><time>2026-04-18T11:46:32.048Z</time></trkpt><trkpt lat="43.4092267" lon="11.3531917"><ele>468.0</ele><time>2026-04-18T11:46:33.047Z</time></trkpt><trkpt lat="43.4091117" lon="11.3531967"><ele>468.0</ele><time>2026-04-18T11:46:34.047Z</time></trkpt><trkpt lat="43.4090033" lon="11.3532217"><ele>468.0</ele><time>2026-04-18T11:46:35.047Z</time></trkpt><trkpt lat="43.4089067" lon="11.3532817"><ele>468.0</ele><time>2026-04-18T11:46:36.047Z</time></trkpt><trkpt lat="43.408835" lon="11.3533683"><ele>467.99999999999994</ele><time>2026-04-18T11:46:37.048Z</time></trkpt><trkpt lat="43.4087883" lon="11.35348"><ele>467.99999999999994</ele><time>2026-04-18T11:46:38.048Z</time></trkpt><trkpt lat="43.4087683" lon="11.3536167"><ele>468.0</ele><time>2026-04-18T11:46:39.047Z</time></trkpt><trkpt lat="43.408755" lon="11.3537583"><ele>468.0</ele><time>2026-04-18T11:46:40.047Z</time></trkpt><trkpt lat="43.408735" lon="11.3539033"><ele>468.6666666666667</ele><time>2026-04-18T11:46:41.047Z</time></trkpt><trkpt lat="43.4087033" lon="11.354025"><ele>469.33333333333337</ele><time>2026-04-18T11:46:42.047Z</time></trkpt><trkpt lat="43.4086633" lon="11.3541067"><ele>470.0</ele><time>2026-04-18T11:46:43.048Z</time></trkpt><trkpt lat="43.4086017" lon="11.3541567"><ele>470.6666666666667</ele><time>2026-04-18T11:46:44.047Z</time></trkpt><trkpt lat="43.4085367" lon="11.3541633"><ele>471.33333333333337</ele><time>2026-04-18T11:46:45.047Z</time></trkpt><trkpt lat="43.408455" lon="11.3541317"><ele>472.0</ele><time>2026-04-18T11:46:46.047Z</time></trkpt><trkpt lat="43.4083633" lon="11.3540567"><ele>472.0</ele><time>2026-04-18T11:46:47.048Z</time></trkpt><trkpt lat="43.4082617" lon="11.3539433"><ele>472.00000000000006</ele><time>2026-04-18T11:46:48.047Z</time></trkpt><trkpt lat="43.40817" lon="11.3538467"><ele>472.00000000000006</ele><time>2026-04-18T11:46:49.047Z</time></trkpt><trkpt lat="43.4080833" lon="11.35378"><ele>472.0</ele><time>2026-04-18T11:46:50.047Z</time></trkpt><trkpt lat="43.4079883" lon="11.3537483"><ele>472.0</ele><time>2026-04-18T11:46:51.047Z</time></trkpt><trkpt lat="43.407895" lon="11.3537683"><ele>470.6</ele><time>2026-04-18T11:46:52.048Z</time></trkpt><trkpt lat="43.4078083" lon="11.3538283"><ele>469.20000000000005</ele><time>2026-04-18T11:46:53.048Z</time></trkpt><trkpt lat="43.4077333" lon="11.3539267"><ele>467.8</ele><time>2026-04-18T11:46:54.047Z</time></trkpt><trkpt lat="43.4076817" lon="11.354065"><ele>466.4</ele><time>2026-04-18T11:46:55.046Z</time></trkpt><trkpt lat="43.4076433" lon="11.35419"><ele>465.0</ele><time>2026-04-18T11:46:56.046Z</time></trkpt><trkpt lat="43.407615" lon="11.354295"><ele>465.0</ele><time>2026-04-18T11:46:57.046Z</time></trkpt><trkpt lat="43.4075867" lon="11.3543783"><ele>465.0</ele><time>2026-04-18T11:46:58.046Z</time></trkpt><trkpt lat="43.4074783" lon="11.3544417"><ele>465.0</ele><time>2026-04-18T11:47:00.046Z</time></trkpt><trkpt lat="43.4074" lon="11.3544217"><ele>465.0</ele><time>2026-04-18T11:47:01.046Z</time></trkpt><trkpt lat="43.4073033" lon="11.3543867"><ele>465.0</ele><time>2026-04-18T11:47:02.046Z</time></trkpt><trkpt lat="43.4071933" lon="11.3543733"><ele>462.5</ele><time>2026-04-18T11:47:03.046Z</time></trkpt><trkpt lat="43.4070767" lon="11.354395"><ele>460.0</ele><time>2026-04-18T11:47:04.046Z</time></trkpt><trkpt lat="43.4069567" lon="11.3544633"><ele>457.5</ele><time>2026-04-18T11:47:05.047Z</time></trkpt><trkpt lat="43.4068333" lon="11.3545483"><ele>455.0</ele><time>2026-04-18T11:47:06.046Z</time></trkpt><trkpt lat="43.4067317" lon="11.354635"><ele>456.4</ele><time>2026-04-18T11:47:07.046Z</time></trkpt><trkpt lat="43.4066483" lon="11.3547267"><ele>457.8</ele><time>2026-04-18T11:47:08.046Z</time></trkpt><trkpt lat="43.4066017" lon="11.3548367"><ele>459.20000000000005</ele><time>2026-04-18T11:47:09.046Z</time></trkpt><trkpt lat="43.406575" lon="11.3549683"><ele>460.6</ele><time>2026-04-18T11:47:10.046Z</time></trkpt><trkpt lat="43.4065783" lon="11.355125"><ele>462.0</ele><time>2026-04-18T11:47:11.046Z</time></trkpt><trkpt lat="43.4065967" lon="11.355305"><ele>462.0</ele><time>2026-04-18T11:47:12.046Z</time></trkpt><trkpt lat="43.4066317" lon="11.355485"><ele>462.00000000000006</ele><time>2026-04-18T11:47:13.047Z</time></trkpt><trkpt lat="43.406665" lon="11.3556317"><ele>462.00000000000006</ele><time>2026-04-18T11:47:14.047Z</time></trkpt><trkpt lat="43.406685" lon="11.355755"><ele>462.0</ele><time>2026-04-18T11:47:15.046Z</time></trkpt><trkpt lat="43.4067017" lon="11.355855"><ele>462.0</ele><time>2026-04-18T11:47:16.046Z</time></trkpt><trkpt lat="43.40669" lon="11.3559417"><ele>462.20000000000005</ele><time>2026-04-18T11:47:17.047Z</time></trkpt><trkpt lat="43.4066133" lon="11.3560417"><ele>462.40000000000003</ele><time>2026-04-18T11:47:19.046Z</time></trkpt><trkpt lat="43.4065333" lon="11.356015"><ele>462.59999999999997</ele><time>2026-04-18T11:47:20.047Z</time></trkpt><trkpt lat="43.40645" lon="11.3559717"><ele>462.79999999999995</ele><time>2026-04-18T11:47:21.046Z</time></trkpt><trkpt lat="43.4063517" lon="11.3559017"><ele>463.0</ele><time>2026-04-18T11:47:22.046Z</time></trkpt><trkpt lat="43.4062367" lon="11.35578"><ele>463.0</ele><time>2026-04-18T11:47:23.046Z</time></trkpt><trkpt lat="43.4060983" lon="11.3556467"><ele>463.0</ele><time>2026-04-18T11:47:24.046Z</time></trkpt><trkpt lat="43.4059717" lon="11.3555383"><ele>463.0</ele><time>2026-04-18T11:47:25.046Z</time></trkpt><trkpt lat="43.4058517" lon="11.3554667"><ele>463.0</ele><time>2026-04-18T11:47:26.047Z</time></trkpt><trkpt lat="43.405755" lon="11.3554233"><ele>461.83333333333337</ele><time>2026-04-18T11:47:27.047Z</time></trkpt><trkpt lat="43.4056617" lon="11.3554017"><ele>460.6666666666667</ele><time>2026-04-18T11:47:28.046Z</time></trkpt><trkpt lat="43.4055667" lon="11.3554217"><ele>459.5</ele><time>2026-04-18T11:47:29.046Z</time></trkpt><trkpt lat="43.4054833" lon="11.35549"><ele>458.33333333333337</ele><time>2026-04-18T11:47:30.046Z</time></trkpt><trkpt lat="43.40543" lon="11.3555567"><ele>457.1666666666667</ele><time>2026-04-18T11:47:31.047Z</time></trkpt><trkpt lat="43.4053933" lon="11.355635"><ele>456.0</ele><time>2026-04-18T11:47:32.047Z</time></trkpt><trkpt lat="43.4053717" lon="11.35573"><ele>456.0</ele><time>2026-04-18T11:47:33.046Z</time></trkpt><trkpt lat="43.4053517" lon="11.35583"><ele>456.0</ele><time>2026-04-18T11:47:34.046Z</time></trkpt><trkpt lat="43.4053333" lon="11.35593"><ele>456.0</ele><time>2026-04-18T11:47:35.046Z</time></trkpt><trkpt lat="43.4053133" lon="11.3560133"><ele>456.0</ele><time>2026-04-18T11:47:36.047Z</time></trkpt><trkpt lat="43.4052417" lon="11.35611"><ele>456.0</ele><time>2026-04-18T11:47:38.046Z</time></trkpt><trkpt lat="43.4051183" lon="11.3561067"><ele>456.0</ele><time>2026-04-18T11:47:40.046Z</time></trkpt><trkpt lat="43.4050233" lon="11.3560483"><ele>456.0</ele><time>2026-04-18T11:47:41.046Z</time></trkpt><trkpt lat="43.40491" lon="11.3559583"><ele>456.0</ele><time>2026-04-18T11:47:42.046Z</time></trkpt><trkpt lat="43.4047917" lon="11.3558533"><ele>456.0</ele><time>2026-04-18T11:47:43.046Z</time></trkpt><trkpt lat="43.4046717" lon="11.3557567"><ele>456.0</ele><time>2026-04-18T11:47:44.047Z</time></trkpt><trkpt lat="43.404545" lon="11.35568"><ele>455.0</ele><time>2026-04-18T11:47:45.046Z</time></trkpt><trkpt lat="43.4044217" lon="11.3556267"><ele>454.0</ele><time>2026-04-18T11:47:46.046Z</time></trkpt><trkpt lat="43.4042967" lon="11.3556017"><ele>453.0</ele><time>2026-04-18T11:47:47.047Z</time></trkpt><trkpt lat="43.4041817" lon="11.3555983"><ele>452.0</ele><time>2026-04-18T11:47:48.047Z</time></trkpt><trkpt lat="43.404065" lon="11.355625"><ele>452.0</ele><time>2026-04-18T11:47:49.047Z</time></trkpt><trkpt lat="43.4039517" lon="11.3556867"><ele>452.0</ele><time>2026-04-18T11:47:50.046Z</time></trkpt><trkpt lat="43.4038333" lon="11.3557717"><ele>452.0</ele><time>2026-04-18T11:47:51.046Z</time></trkpt><trkpt lat="43.4037381" lon="11.3558474"><ele>452.0</ele><time>2026-04-18T11:47:52.047Z</time></trkpt><trkpt lat="43.4036651" lon="11.3559224"><ele>451.16666666666663</ele><time>2026-04-18T11:47:53.047Z</time></trkpt><trkpt lat="43.4036124" lon="11.3559935"><ele>450.3333333333333</ele><time>2026-04-18T11:47:54.047Z</time></trkpt><trkpt lat="43.4035815" lon="11.3560833"><ele>449.5</ele><time>2026-04-18T11:47:55.046Z</time></trkpt><trkpt lat="43.4035759" lon="11.3561843"><ele>448.66666666666663</ele><time>2026-04-18T11:47:56.046Z</time></trkpt><trkpt lat="43.4036043" lon="11.356301"><ele>447.8333333333333</ele><time>2026-04-18T11:47:57.046Z</time></trkpt><trkpt lat="43.4036635" lon="11.3564276"><ele>447.0</ele><time>2026-04-18T11:47:58.046Z</time></trkpt><trkpt lat="43.4037409" lon="11.3565508"><ele>447.0</ele><time>2026-04-18T11:47:59.047Z</time></trkpt><trkpt lat="43.4038082" lon="11.3566585"><ele>447.0</ele><time>2026-04-18T11:48:00.046Z</time></trkpt><trkpt lat="43.4038458" lon="11.3567611"><ele>447.0</ele><time>2026-04-18T11:48:01.047Z</time></trkpt><trkpt lat="43.4038549" lon="11.3568667"><ele>447.0</ele><time>2026-04-18T11:48:02.046Z</time></trkpt><trkpt lat="43.4038391" lon="11.3569637"><ele>447.0</ele><time>2026-04-18T11:48:03.046Z</time></trkpt><trkpt lat="43.4038038" lon="11.3570442"><ele>447.0</ele><time>2026-04-18T11:48:04.046Z</time></trkpt><trkpt lat="43.4037476" lon="11.3571054"><ele>447.0</ele><time>2026-04-18T11:48:05.047Z</time></trkpt><trkpt lat="43.4036604" lon="11.3571479"><ele>447.0</ele><time>2026-04-18T11:48:06.046Z</time></trkpt><trkpt lat="43.4035398" lon="11.3571692"><ele>447.0</ele><time>2026-04-18T11:48:07.047Z</time></trkpt><trkpt lat="43.4033853" lon="11.357165"><ele>447.0</ele><time>2026-04-18T11:48:08.046Z</time></trkpt><trkpt lat="43.4032282" lon="11.3571465"><ele>447.0</ele><time>2026-04-18T11:48:09.046Z</time></trkpt><trkpt lat="43.4030884" lon="11.3571396"><ele>447.0</ele><time>2026-04-18T11:48:10.046Z</time></trkpt><trkpt lat="43.402974" lon="11.3571841"><ele>447.0</ele><time>2026-04-18T11:48:11.046Z</time></trkpt><trkpt lat="43.4028832" lon="11.357257"><ele>447.0</ele><time>2026-04-18T11:48:12.046Z</time></trkpt><trkpt lat="43.402814" lon="11.3573653"><ele>446.20000000000005</ele><time>2026-04-18T11:48:13.047Z</time></trkpt><trkpt lat="43.4027685" lon="11.3574879"><ele>445.40000000000003</ele><time>2026-04-18T11:48:14.046Z</time></trkpt><trkpt lat="43.40275" lon="11.3576158"><ele>444.59999999999997</ele><time>2026-04-18T11:48:15.047Z</time></trkpt><trkpt lat="43.402758" lon="11.3577531"><ele>443.79999999999995</ele><time>2026-04-18T11:48:16.047Z</time></trkpt><trkpt lat="43.4027915" lon="11.357919"><ele>443.0</ele><time>2026-04-18T11:48:17.046Z</time></trkpt><trkpt lat="43.4028316" lon="11.3581061"><ele>442.75</ele><time>2026-04-18T11:48:18.046Z</time></trkpt><trkpt lat="43.4028682" lon="11.3582873"><ele>442.5</ele><time>2026-04-18T11:48:19.046Z</time></trkpt><trkpt lat="43.4028938" lon="11.3584533"><ele>442.25</ele><time>2026-04-18T11:48:20.047Z</time></trkpt><trkpt lat="43.4029142" lon="11.3585894"><ele>442.0</ele><time>2026-04-18T11:48:21.046Z</time></trkpt><trkpt lat="43.402948" lon="11.35871"><ele>442.0</ele><time>2026-04-18T11:48:22.047Z</time></trkpt><trkpt lat="43.4029942" lon="11.3588127"><ele>442.00000000000006</ele><time>2026-04-18T11:48:23.047Z</time></trkpt><trkpt lat="43.4030606" lon="11.3589021"><ele>442.00000000000006</ele><time>2026-04-18T11:48:24.046Z</time></trkpt><trkpt lat="43.403151" lon="11.3589661"><ele>442.0</ele><time>2026-04-18T11:48:25.046Z</time></trkpt><trkpt lat="43.4032586" lon="11.3590165"><ele>442.0</ele><time>2026-04-18T11:48:26.046Z</time></trkpt><trkpt lat="43.4033662" lon="11.3590645"><ele>442.6</ele><time>2026-04-18T11:48:27.046Z</time></trkpt><trkpt lat="43.4034601" lon="11.3591277"><ele>443.20000000000005</ele><time>2026-04-18T11:48:28.047Z</time></trkpt><trkpt lat="43.4035283" lon="11.3592154"><ele>443.8</ele><time>2026-04-18T11:48:29.047Z</time></trkpt><trkpt lat="43.4035756" lon="11.3593217"><ele>444.4</ele><time>2026-04-18T11:48:30.046Z</time></trkpt><trkpt lat="43.4035878" lon="11.3594514"><ele>445.0</ele><time>2026-04-18T11:48:31.046Z</time></trkpt><trkpt lat="43.4035689" lon="11.3595971"><ele>443.5</ele><time>2026-04-18T11:48:32.046Z</time></trkpt><trkpt lat="43.4035347" lon="11.359753"><ele>442.0</ele><time>2026-04-18T11:48:33.046Z</time></trkpt><trkpt lat="43.4035033" lon="11.3599029"><ele>440.5</ele><time>2026-04-18T11:48:34.046Z</time></trkpt><trkpt lat="43.4034879" lon="11.3600505"><ele>439.0</ele><time>2026-04-18T11:48:35.047Z</time></trkpt><trkpt lat="43.4034901" lon="11.3602075"><ele>439.00000000000006</ele><time>2026-04-18T11:48:36.047Z</time></trkpt><trkpt lat="43.4034958" lon="11.3603636"><ele>439.0</ele><time>2026-04-18T11:48:37.046Z</time></trkpt><trkpt lat="43.4034993" lon="11.3604906"><ele>439.0</ele><time>2026-04-18T11:48:38.046Z</time></trkpt><trkpt lat="43.4034932" lon="11.3606014"><ele>439.0</ele><time>2026-04-18T11:48:39.046Z</time></trkpt><trkpt lat="43.4034634" lon="11.3607021"><ele>439.00000000000006</ele><time>2026-04-18T11:48:40.046Z</time></trkpt><trkpt lat="43.4034115" lon="11.3607884"><ele>439.0</ele><time>2026-04-18T11:48:41.046Z</time></trkpt><trkpt lat="43.4033294" lon="11.3608459"><ele>439.5</ele><time>2026-04-18T11:48:42.047Z</time></trkpt><trkpt lat="43.4032112" lon="11.3608825"><ele>440.0</ele><time>2026-04-18T11:48:43.046Z</time></trkpt><trkpt lat="43.4030773" lon="11.360918"><ele>440.5</ele><time>2026-04-18T11:48:44.047Z</time></trkpt><trkpt lat="43.4029437" lon="11.3609362"><ele>441.0</ele><time>2026-04-18T11:48:45.046Z</time></trkpt><trkpt lat="43.4028087" lon="11.3609299"><ele>441.0</ele><time>2026-04-18T11:48:46.046Z</time></trkpt><trkpt lat="43.4026799" lon="11.3608982"><ele>441.0</ele><time>2026-04-18T11:48:47.046Z</time></trkpt><trkpt lat="43.4025628" lon="11.3608631"><ele>441.0</ele><time>2026-04-18T11:48:48.046Z</time></trkpt><trkpt lat="43.402452" lon="11.3608446"><ele>441.0</ele><time>2026-04-18T11:48:49.046Z</time></trkpt><trkpt lat="43.4023444" lon="11.3608505"><ele>441.0</ele><time>2026-04-18T11:48:50.047Z</time></trkpt><trkpt lat="43.4022428" lon="11.3608861"><ele>441.0</ele><time>2026-04-18T11:48:51.046Z</time></trkpt><trkpt lat="43.4021529" lon="11.3609522"><ele>441.0</ele><time>2026-04-18T11:48:52.046Z</time></trkpt><trkpt lat="43.4020571" lon="11.3610515"><ele>441.0</ele><time>2026-04-18T11:48:53.046Z</time></trkpt><trkpt lat="43.4019513" lon="11.3611791"><ele>441.75</ele><time>2026-04-18T11:48:54.046Z</time></trkpt><trkpt lat="43.4018481" lon="11.3613228"><ele>442.5</ele><time>2026-04-18T11:48:55.046Z</time></trkpt><trkpt lat="43.4017481" lon="11.361461"><ele>443.25</ele><time>2026-04-18T11:48:56.047Z</time></trkpt><trkpt lat="43.401646" lon="11.3615896"><ele>444.0</ele><time>2026-04-18T11:48:57.047Z</time></trkpt><trkpt lat="43.4015384" lon="11.3617109"><ele>444.0</ele><time>2026-04-18T11:48:58.047Z</time></trkpt><trkpt lat="43.4014479" lon="11.3618156"><ele>444.0</ele><time>2026-04-18T11:48:59.047Z</time></trkpt><trkpt lat="43.4013734" lon="11.3619076"><ele>444.0</ele><time>2026-04-18T11:49:00.046Z</time></trkpt><trkpt lat="43.4013193" lon="11.3620022"><ele>444.0</ele><time>2026-04-18T11:49:01.047Z</time></trkpt><trkpt lat="43.4012873" lon="11.362102"><ele>444.0</ele><time>2026-04-18T11:49:02.046Z</time></trkpt><trkpt lat="43.4012813" lon="11.3622123"><ele>445.0</ele><time>2026-04-18T11:49:03.046Z</time></trkpt><trkpt lat="43.4012959" lon="11.3623382"><ele>446.0</ele><time>2026-04-18T11:49:04.046Z</time></trkpt><trkpt lat="43.401336" lon="11.3624807"><ele>447.0</ele><time>2026-04-18T11:49:05.046Z</time></trkpt><trkpt lat="43.4013703" lon="11.3626383"><ele>448.0</ele><time>2026-04-18T11:49:06.046Z</time></trkpt><trkpt lat="43.4013744" lon="11.3627899"><ele>449.0</ele><time>2026-04-18T11:49:07.047Z</time></trkpt><trkpt lat="43.401348" lon="11.3629215"><ele>447.2</ele><time>2026-04-18T11:49:08.046Z</time></trkpt><trkpt lat="43.4013007" lon="11.3630411"><ele>445.4</ele><time>2026-04-18T11:49:09.047Z</time></trkpt><trkpt lat="43.4012301" lon="11.3631274"><ele>443.6</ele><time>2026-04-18T11:49:10.046Z</time></trkpt><trkpt lat="43.4011266" lon="11.3631965"><ele>441.8</ele><time>2026-04-18T11:49:11.046Z</time></trkpt><trkpt lat="43.4010179" lon="11.3632511"><ele>440.0</ele><time>2026-04-18T11:49:12.047Z</time></trkpt><trkpt lat="43.4009265" lon="11.363308"><ele>439.99999999999994</ele><time>2026-04-18T11:49:13.046Z</time></trkpt><trkpt lat="43.4008611" lon="11.363379"><ele>440.0</ele><time>2026-04-18T11:49:14.046Z</time></trkpt><trkpt lat="43.4008105" lon="11.3634703"><ele>440.0</ele><time>2026-04-18T11:49:15.046Z</time></trkpt><trkpt lat="43.4007754" lon="11.3635778"><ele>440.0</ele><time>2026-04-18T11:49:16.047Z</time></trkpt><trkpt lat="43.4007544" lon="11.3637023"><ele>439.99999999999994</ele><time>2026-04-18T11:49:17.046Z</time></trkpt><trkpt lat="43.400746" lon="11.3638219"><ele>440.0</ele><time>2026-04-18T11:49:18.047Z</time></trkpt><trkpt lat="43.4007536" lon="11.3639327"><ele>440.4</ele><time>2026-04-18T11:49:19.046Z</time></trkpt><trkpt lat="43.4007738" lon="11.3640476"><ele>440.8</ele><time>2026-04-18T11:49:20.046Z</time></trkpt><trkpt lat="43.4008056" lon="11.3641616"><ele>441.20000000000005</ele><time>2026-04-18T11:49:21.047Z</time></trkpt><trkpt lat="43.400845" lon="11.3642792"><ele>441.6</ele><time>2026-04-18T11:49:22.046Z</time></trkpt><trkpt lat="43.4008949" lon="11.3644057"><ele>442.0</ele><time>2026-04-18T11:49:23.047Z</time></trkpt><trkpt lat="43.4009467" lon="11.3645417"><ele>442.0</ele><time>2026-04-18T11:49:24.046Z</time></trkpt><trkpt lat="43.4009899" lon="11.3646851"><ele>442.00000000000006</ele><time>2026-04-18T11:49:25.047Z</time></trkpt><trkpt lat="43.4010236" lon="11.3648309"><ele>442.00000000000006</ele><time>2026-04-18T11:49:26.046Z</time></trkpt><trkpt lat="43.4010468" lon="11.3649669"><ele>442.0</ele><time>2026-04-18T11:49:27.046Z</time></trkpt><trkpt lat="43.4010618" lon="11.3650893"><ele>442.0</ele><time>2026-04-18T11:49:28.046Z</time></trkpt><trkpt lat="43.4010769" lon="11.3652018"><ele>441.83333333333337</ele><time>2026-04-18T11:49:29.046Z</time></trkpt><trkpt lat="43.4010891" lon="11.3653049"><ele>441.6666666666667</ele><time>2026-04-18T11:49:30.047Z</time></trkpt><trkpt lat="43.4011064" lon="11.3654043"><ele>441.5</ele><time>2026-04-18T11:49:31.046Z</time></trkpt><trkpt lat="43.4011283" lon="11.3655117"><ele>441.33333333333337</ele><time>2026-04-18T11:49:32.046Z</time></trkpt><trkpt lat="43.40115" lon="11.3656267"><ele>441.1666666666667</ele><time>2026-04-18T11:49:33.047Z</time></trkpt><trkpt lat="43.4011733" lon="11.3657467"><ele>441.0</ele><time>2026-04-18T11:49:34.046Z</time></trkpt><trkpt lat="43.401195" lon="11.3658717"><ele>441.0</ele><time>2026-04-18T11:49:35.046Z</time></trkpt><trkpt lat="43.401215" lon="11.366"><ele>441.0</ele><time>2026-04-18T11:49:36.046Z</time></trkpt><trkpt lat="43.4012317" lon="11.3661267"><ele>441.0</ele><time>2026-04-18T11:49:37.047Z</time></trkpt><trkpt lat="43.4012567" lon="11.3662533"><ele>441.0</ele><time>2026-04-18T11:49:38.047Z</time></trkpt><trkpt lat="43.401285" lon="11.36638"><ele>441.0</ele><time>2026-04-18T11:49:39.046Z</time></trkpt><trkpt lat="43.401315" lon="11.366495"><ele>440.0</ele><time>2026-04-18T11:49:40.046Z</time></trkpt><trkpt lat="43.4013483" lon="11.366605"><ele>439.0</ele><time>2026-04-18T11:49:41.047Z</time></trkpt><trkpt lat="43.401385" lon="11.366705"><ele>438.0</ele><time>2026-04-18T11:49:42.047Z</time></trkpt><trkpt lat="43.4014283" lon="11.36681"><ele>437.0</ele><time>2026-04-18T11:49:43.046Z</time></trkpt><trkpt lat="43.4014733" lon="11.36692"><ele>436.0</ele><time>2026-04-18T11:49:44.046Z</time></trkpt><trkpt lat="43.401515" lon="11.36704"><ele>435.0</ele><time>2026-04-18T11:49:45.046Z</time></trkpt><trkpt lat="43.40155" lon="11.3671717"><ele>434.8</ele><time>2026-04-18T11:49:46.047Z</time></trkpt><trkpt lat="43.4015733" lon="11.367305"><ele>434.6</ele><time>2026-04-18T11:49:47.047Z</time></trkpt><trkpt lat="43.4015917" lon="11.3674517"><ele>434.4</ele><time>2026-04-18T11:49:48.046Z</time></trkpt><trkpt lat="43.4016033" lon="11.3676083"><ele>434.2</ele><time>2026-04-18T11:49:49.046Z</time></trkpt><trkpt lat="43.401615" lon="11.3677633"><ele>434.0</ele><time>2026-04-18T11:49:50.047Z</time></trkpt><trkpt lat="43.4016283" lon="11.367915"><ele>433.6</ele><time>2026-04-18T11:49:51.047Z</time></trkpt><trkpt lat="43.4016433" lon="11.368065"><ele>433.2</ele><time>2026-04-18T11:49:52.046Z</time></trkpt><trkpt lat="43.4016567" lon="11.3682133"><ele>432.80000000000007</ele><time>2026-04-18T11:49:53.046Z</time></trkpt><trkpt lat="43.4016717" lon="11.3683583"><ele>432.40000000000003</ele><time>2026-04-18T11:49:54.047Z</time></trkpt><trkpt lat="43.4016867" lon="11.3684983"><ele>432.0</ele><time>2026-04-18T11:49:55.046Z</time></trkpt><trkpt lat="43.401695" lon="11.3686467"><ele>432.0</ele><time>2026-04-18T11:49:56.047Z</time></trkpt><trkpt lat="43.4016983" lon="11.368795"><ele>432.0</ele><time>2026-04-18T11:49:57.047Z</time></trkpt><trkpt lat="43.4016967" lon="11.3689583"><ele>432.0</ele><time>2026-04-18T11:49:58.047Z</time></trkpt><trkpt lat="43.4016833" lon="11.369135"><ele>432.0</ele><time>2026-04-18T11:49:59.046Z</time></trkpt><trkpt lat="43.4016633" lon="11.3693317"><ele>431.33333333333337</ele><time>2026-04-18T11:50:00.047Z</time></trkpt><trkpt lat="43.40163" lon="11.369535"><ele>430.6666666666667</ele><time>2026-04-18T11:50:01.046Z</time></trkpt><trkpt lat="43.4015917" lon="11.3697367"><ele>430.0</ele><time>2026-04-18T11:50:02.046Z</time></trkpt><trkpt lat="43.40154" lon="11.3699417"><ele>430.0</ele><time>2026-04-18T11:50:03.047Z</time></trkpt><trkpt lat="43.4014833" lon="11.37014"><ele>430.0</ele><time>2026-04-18T11:50:04.047Z</time></trkpt><trkpt lat="43.4014217" lon="11.37032"><ele>430.0</ele><time>2026-04-18T11:50:05.047Z</time></trkpt><trkpt lat="43.4013683" lon="11.37049"><ele>430.0</ele><time>2026-04-18T11:50:06.046Z</time></trkpt><trkpt lat="43.4013283" lon="11.37066"><ele>430.0</ele><time>2026-04-18T11:50:07.046Z</time></trkpt><trkpt lat="43.4013" lon="11.3708433"><ele>430.0</ele><time>2026-04-18T11:50:08.047Z</time></trkpt><trkpt lat="43.4012767" lon="11.3710383"><ele>430.0</ele><time>2026-04-18T11:50:09.046Z</time></trkpt><trkpt lat="43.40127" lon="11.3712467"><ele>430.0</ele><time>2026-04-18T11:50:10.047Z</time></trkpt><trkpt lat="43.4012717" lon="11.3714517"><ele>431.0</ele><time>2026-04-18T11:50:11.046Z</time></trkpt><trkpt lat="43.4012717" lon="11.37164"><ele>432.0</ele><time>2026-04-18T11:50:12.046Z</time></trkpt><trkpt lat="43.401275" lon="11.3718167"><ele>433.0</ele><time>2026-04-18T11:50:13.047Z</time></trkpt><trkpt lat="43.4012817" lon="11.3719817"><ele>434.0</ele><time>2026-04-18T11:50:14.046Z</time></trkpt><trkpt lat="43.4012883" lon="11.3721533"><ele>434.5</ele><time>2026-04-18T11:50:15.047Z</time></trkpt><trkpt lat="43.4012867" lon="11.3723117"><ele>435.0</ele><time>2026-04-18T11:50:16.046Z</time></trkpt><trkpt lat="43.4012667" lon="11.3724583"><ele>435.5</ele><time>2026-04-18T11:50:17.047Z</time></trkpt><trkpt lat="43.40122" lon="11.3725983"><ele>436.0</ele><time>2026-04-18T11:50:18.047Z</time></trkpt><trkpt lat="43.401155" lon="11.37274"><ele>436.0</ele><time>2026-04-18T11:50:19.046Z</time></trkpt><trkpt lat="43.401065" lon="11.372875"><ele>436.0</ele><time>2026-04-18T11:50:20.046Z</time></trkpt><trkpt lat="43.40096" lon="11.3729967"><ele>436.0</ele><time>2026-04-18T11:50:21.046Z</time></trkpt><trkpt lat="43.4008617" lon="11.3731133"><ele>436.0</ele><time>2026-04-18T11:50:22.047Z</time></trkpt><trkpt lat="43.4007817" lon="11.3732217"><ele>436.5</ele><time>2026-04-18T11:50:23.046Z</time></trkpt><trkpt lat="43.4007217" lon="11.373345"><ele>437.0</ele><time>2026-04-18T11:50:24.046Z</time></trkpt><trkpt lat="43.40067" lon="11.373485"><ele>437.5</ele><time>2026-04-18T11:50:25.047Z</time></trkpt><trkpt lat="43.400625" lon="11.373655"><ele>438.0</ele><time>2026-04-18T11:50:26.046Z</time></trkpt><trkpt lat="43.40059" lon="11.3738283"><ele>438.25</ele><time>2026-04-18T11:50:27.046Z</time></trkpt><trkpt lat="43.400555" lon="11.37399"><ele>438.5</ele><time>2026-04-18T11:50:28.046Z</time></trkpt><trkpt lat="43.4005083" lon="11.3741517"><ele>438.75</ele><time>2026-04-18T11:50:29.047Z</time></trkpt><trkpt lat="43.4004517" lon="11.374305"><ele>439.0</ele><time>2026-04-18T11:50:30.047Z</time></trkpt><trkpt lat="43.4003667" lon="11.3744583"><ele>439.0</ele><time>2026-04-18T11:50:31.046Z</time></trkpt><trkpt lat="43.4002683" lon="11.3746167"><ele>439.0</ele><time>2026-04-18T11:50:32.047Z</time></trkpt><trkpt lat="43.4001733" lon="11.37477"><ele>439.0</ele><time>2026-04-18T11:50:33.046Z</time></trkpt><trkpt lat="43.4000883" lon="11.37492"><ele>439.0</ele><time>2026-04-18T11:50:34.047Z</time></trkpt><trkpt lat="43.400005" lon="11.3750717"><ele>438.25</ele><time>2026-04-18T11:50:35.046Z</time></trkpt><trkpt lat="43.39992" lon="11.37521"><ele>437.5</ele><time>2026-04-18T11:50:36.045Z</time></trkpt><trkpt lat="43.3998433" lon="11.37534"><ele>436.75</ele><time>2026-04-18T11:50:37.046Z</time></trkpt><trkpt lat="43.3997633" lon="11.3754833"><ele>436.0</ele><time>2026-04-18T11:50:38.045Z</time></trkpt><trkpt lat="43.39968" lon="11.3756117"><ele>434.0</ele><time>2026-04-18T11:50:39.046Z</time></trkpt><trkpt lat="43.3995983" lon="11.3757283"><ele>432.0</ele><time>2026-04-18T11:50:40.046Z</time></trkpt><trkpt lat="43.3995067" lon="11.3758317"><ele>430.0</ele><time>2026-04-18T11:50:41.045Z</time></trkpt><trkpt lat="43.3994017" lon="11.3759133"><ele>428.0</ele><time>2026-04-18T11:50:42.045Z</time></trkpt><trkpt lat="43.3992833" lon="11.3759783"><ele>428.0</ele><time>2026-04-18T11:50:43.046Z</time></trkpt><trkpt lat="43.3991583" lon="11.3760117"><ele>428.0</ele><time>2026-04-18T11:50:44.046Z</time></trkpt><trkpt lat="43.3990367" lon="11.3760483"><ele>428.0</ele><time>2026-04-18T11:50:45.045Z</time></trkpt><trkpt lat="43.3989167" lon="11.3760867"><ele>428.0</ele><time>2026-04-18T11:50:46.045Z</time></trkpt><trkpt lat="43.3987967" lon="11.3761333"><ele>426.75</ele><time>2026-04-18T11:50:47.045Z</time></trkpt><trkpt lat="43.3986867" lon="11.376205"><ele>425.5</ele><time>2026-04-18T11:50:48.046Z</time></trkpt><trkpt lat="43.3985633" lon="11.376295"><ele>424.25</ele><time>2026-04-18T11:50:49.045Z</time></trkpt><trkpt lat="43.3984483" lon="11.3763933"><ele>423.0</ele><time>2026-04-18T11:50:50.046Z</time></trkpt><trkpt lat="43.3983367" lon="11.3765"><ele>422.5</ele><time>2026-04-18T11:50:51.046Z</time></trkpt><trkpt lat="43.398235" lon="11.3766217"><ele>422.0</ele><time>2026-04-18T11:50:52.046Z</time></trkpt><trkpt lat="43.3981233" lon="11.37674"><ele>421.5</ele><time>2026-04-18T11:50:53.046Z</time></trkpt><trkpt lat="43.3980217" lon="11.376865"><ele>421.0</ele><time>2026-04-18T11:50:54.045Z</time></trkpt><trkpt lat="43.397915" lon="11.3770033"><ele>420.5</ele><time>2026-04-18T11:50:55.045Z</time></trkpt><trkpt lat="43.3978133" lon="11.377145"><ele>420.0</ele><time>2026-04-18T11:50:56.045Z</time></trkpt><trkpt lat="43.39772" lon="11.3772867"><ele>419.5</ele><time>2026-04-18T11:50:57.045Z</time></trkpt><trkpt lat="43.3976283" lon="11.37743"><ele>419.0</ele><time>2026-04-18T11:50:58.045Z</time></trkpt><trkpt lat="43.3975433" lon="11.377575"><ele>419.0</ele><time>2026-04-18T11:50:59.046Z</time></trkpt><trkpt lat="43.39746" lon="11.3777167"><ele>419.0</ele><time>2026-04-18T11:51:00.045Z</time></trkpt><trkpt lat="43.3973767" lon="11.377855"><ele>419.0</ele><time>2026-04-18T11:51:01.045Z</time></trkpt><trkpt lat="43.397295" lon="11.3779967"><ele>419.0</ele><time>2026-04-18T11:51:02.046Z</time></trkpt><trkpt lat="43.3972217" lon="11.3781317"><ele>418.75</ele><time>2026-04-18T11:51:03.046Z</time></trkpt><trkpt lat="43.3971517" lon="11.3782667"><ele>418.5</ele><time>2026-04-18T11:51:04.045Z</time></trkpt><trkpt lat="43.39708" lon="11.3783867"><ele>418.25</ele><time>2026-04-18T11:51:05.046Z</time></trkpt><trkpt lat="43.3970067" lon="11.3785167"><ele>418.0</ele><time>2026-04-18T11:51:06.045Z</time></trkpt><trkpt lat="43.3969483" lon="11.3786567"><ele>418.0</ele><time>2026-04-18T11:51:07.045Z</time></trkpt><trkpt lat="43.3969" lon="11.3788067"><ele>418.0</ele><time>2026-04-18T11:51:08.045Z</time></trkpt><trkpt lat="43.3968533" lon="11.3789667"><ele>418.0</ele><time>2026-04-18T11:51:09.045Z</time></trkpt><trkpt lat="43.3968133" lon="11.3791467"><ele>418.0</ele><time>2026-04-18T11:51:10.046Z</time></trkpt><trkpt lat="43.396765" lon="11.379345"><ele>416.6666666666667</ele><time>2026-04-18T11:51:11.046Z</time></trkpt><trkpt lat="43.3967217" lon="11.379575"><ele>415.33333333333337</ele><time>2026-04-18T11:51:12.045Z</time></trkpt><trkpt lat="43.396675" lon="11.3798117"><ele>414.0</ele><time>2026-04-18T11:51:13.046Z</time></trkpt><trkpt lat="43.3966283" lon="11.380025"><ele>412.75</ele><time>2026-04-18T11:51:14.045Z</time></trkpt><trkpt lat="43.3965883" lon="11.380225"><ele>411.5</ele><time>2026-04-18T11:51:15.045Z</time></trkpt><trkpt lat="43.3965433" lon="11.38041"><ele>410.25</ele><time>2026-04-18T11:51:16.045Z</time></trkpt><trkpt lat="43.39648" lon="11.38057"><ele>409.0</ele><time>2026-04-18T11:51:17.046Z</time></trkpt><trkpt lat="43.3964" lon="11.3807017"><ele>409.75</ele><time>2026-04-18T11:51:18.046Z</time></trkpt><trkpt lat="43.396315" lon="11.38082"><ele>410.5</ele><time>2026-04-18T11:51:19.045Z</time></trkpt><trkpt lat="43.396215" lon="11.3809133"><ele>411.25</ele><time>2026-04-18T11:51:20.045Z</time></trkpt><trkpt lat="43.3961033" lon="11.3809817"><ele>412.0</ele><time>2026-04-18T11:51:21.046Z</time></trkpt><trkpt lat="43.3959783" lon="11.381015"><ele>412.0</ele><time>2026-04-18T11:51:22.045Z</time></trkpt><trkpt lat="43.3958417" lon="11.3810283"><ele>412.0</ele><time>2026-04-18T11:51:23.046Z</time></trkpt><trkpt lat="43.395705" lon="11.381025"><ele>412.0</ele><time>2026-04-18T11:51:24.045Z</time></trkpt><trkpt lat="43.3955683" lon="11.381005"><ele>412.0</ele><time>2026-04-18T11:51:25.045Z</time></trkpt><trkpt lat="43.3954317" lon="11.3809867"><ele>413.0</ele><time>2026-04-18T11:51:26.046Z</time></trkpt><trkpt lat="43.3952967" lon="11.3809667"><ele>414.0</ele><time>2026-04-18T11:51:27.046Z</time></trkpt><trkpt lat="43.3951633" lon="11.3809533"><ele>415.0</ele><time>2026-04-18T11:51:28.045Z</time></trkpt><trkpt lat="43.3950217" lon="11.38095"><ele>416.0</ele><time>2026-04-18T11:51:29.046Z</time></trkpt><trkpt lat="43.394885" lon="11.3809583"><ele>416.0</ele><time>2026-04-18T11:51:30.046Z</time></trkpt><trkpt lat="43.394745" lon="11.38098"><ele>416.0</ele><time>2026-04-18T11:51:31.045Z</time></trkpt><trkpt lat="43.3946" lon="11.381005"><ele>416.0</ele><time>2026-04-18T11:51:32.045Z</time></trkpt><trkpt lat="43.3944583" lon="11.3810383"><ele>416.0</ele><time>2026-04-18T11:51:33.046Z</time></trkpt><trkpt lat="43.39432" lon="11.381075"><ele>415.75</ele><time>2026-04-18T11:51:34.045Z</time></trkpt><trkpt lat="43.3941833" lon="11.38113"><ele>415.5</ele><time>2026-04-18T11:51:35.045Z</time></trkpt><trkpt lat="43.3940517" lon="11.3811917"><ele>415.25</ele><time>2026-04-18T11:51:36.046Z</time></trkpt><trkpt lat="43.3939233" lon="11.381255"><ele>415.0</ele><time>2026-04-18T11:51:37.045Z</time></trkpt><trkpt lat="43.3937983" lon="11.381325"><ele>416.5</ele><time>2026-04-18T11:51:38.046Z</time></trkpt><trkpt lat="43.3936783" lon="11.3814"><ele>418.0</ele><time>2026-04-18T11:51:39.045Z</time></trkpt><trkpt lat="43.3935617" lon="11.38148"><ele>419.5</ele><time>2026-04-18T11:51:40.045Z</time></trkpt><trkpt lat="43.3934483" lon="11.38157"><ele>421.0</ele><time>2026-04-18T11:51:41.045Z</time></trkpt><trkpt lat="43.3933367" lon="11.3816567"><ele>421.0</ele><time>2026-04-18T11:51:42.046Z</time></trkpt><trkpt lat="43.3932233" lon="11.3817483"><ele>421.0</ele><time>2026-04-18T11:51:43.045Z</time></trkpt><trkpt lat="43.3931033" lon="11.3818417"><ele>421.0</ele><time>2026-04-18T11:51:44.045Z</time></trkpt><trkpt lat="43.3929883" lon="11.3819433"><ele>421.0</ele><time>2026-04-18T11:51:45.046Z</time></trkpt><trkpt lat="43.3928717" lon="11.38204"><ele>422.0</ele><time>2026-04-18T11:51:46.045Z</time></trkpt><trkpt lat="43.3927583" lon="11.3821383"><ele>423.0</ele><time>2026-04-18T11:51:47.045Z</time></trkpt><trkpt lat="43.39264" lon="11.3822383"><ele>424.0</ele><time>2026-04-18T11:51:48.045Z</time></trkpt><trkpt lat="43.3925167" lon="11.3823317"><ele>425.0</ele><time>2026-04-18T11:51:49.046Z</time></trkpt><trkpt lat="43.3924017" lon="11.3824367"><ele>425.0</ele><time>2026-04-18T11:51:50.045Z</time></trkpt><trkpt lat="43.392295" lon="11.38255"><ele>425.0</ele><time>2026-04-18T11:51:51.045Z</time></trkpt><trkpt lat="43.3921933" lon="11.3826733"><ele>425.0</ele><time>2026-04-18T11:51:52.046Z</time></trkpt><trkpt lat="43.39211" lon="11.3828133"><ele>425.0</ele><time>2026-04-18T11:51:53.045Z</time></trkpt><trkpt lat="43.3920433" lon="11.3829667"><ele>425.25</ele><time>2026-04-18T11:51:54.045Z</time></trkpt><trkpt lat="43.3919967" lon="11.3831367"><ele>425.5</ele><time>2026-04-18T11:51:55.045Z</time></trkpt><trkpt lat="43.3919733" lon="11.38332"><ele>425.75</ele><time>2026-04-18T11:51:56.045Z</time></trkpt><trkpt lat="43.391945" lon="11.3835133"><ele>426.0</ele><time>2026-04-18T11:51:57.046Z</time></trkpt><trkpt lat="43.3919217" lon="11.3836933"><ele>425.75</ele><time>2026-04-18T11:51:58.045Z</time></trkpt><trkpt lat="43.3918883" lon="11.3838633"><ele>425.5</ele><time>2026-04-18T11:51:59.045Z</time></trkpt><trkpt lat="43.3918367" lon="11.3840317"><ele>425.25</ele><time>2026-04-18T11:52:00.046Z</time></trkpt><trkpt lat="43.391755" lon="11.38418"><ele>425.0</ele><time>2026-04-18T11:52:01.045Z</time></trkpt><trkpt lat="43.39165" lon="11.3843"><ele>425.0</ele><time>2026-04-18T11:52:02.045Z</time></trkpt><trkpt lat="43.3915283" lon="11.3844133"><ele>425.0</ele><time>2026-04-18T11:52:03.045Z</time></trkpt><trkpt lat="43.3913967" lon="11.38452"><ele>425.0</ele><time>2026-04-18T11:52:04.045Z</time></trkpt><trkpt lat="43.391265" lon="11.3846233"><ele>424.75</ele><time>2026-04-18T11:52:05.045Z</time></trkpt><trkpt lat="43.3911467" lon="11.3847233"><ele>424.5</ele><time>2026-04-18T11:52:06.045Z</time></trkpt><trkpt lat="43.3910283" lon="11.38483"><ele>424.25</ele><time>2026-04-18T11:52:07.045Z</time></trkpt><trkpt lat="43.3909083" lon="11.3849283"><ele>424.0</ele><time>2026-04-18T11:52:08.046Z</time></trkpt><trkpt lat="43.3907883" lon="11.3850267"><ele>424.0</ele><time>2026-04-18T11:52:09.045Z</time></trkpt><trkpt lat="43.3906783" lon="11.3851283"><ele>424.0</ele><time>2026-04-18T11:52:10.046Z</time></trkpt><trkpt lat="43.3905617" lon="11.3852233"><ele>424.0</ele><time>2026-04-18T11:52:11.045Z</time></trkpt><trkpt lat="43.390445" lon="11.3853"><ele>424.0</ele><time>2026-04-18T11:52:12.045Z</time></trkpt><trkpt lat="43.3903283" lon="11.3853883"><ele>423.79999999999995</ele><time>2026-04-18T11:52:13.046Z</time></trkpt><trkpt lat="43.390225" lon="11.3854583"><ele>423.59999999999997</ele><time>2026-04-18T11:52:14.046Z</time></trkpt><trkpt lat="43.390125" lon="11.3855233"><ele>423.4</ele><time>2026-04-18T11:52:15.045Z</time></trkpt><trkpt lat="43.3900283" lon="11.3855917"><ele>423.2</ele><time>2026-04-18T11:52:16.046Z</time></trkpt><trkpt lat="43.3899417" lon="11.3856533"><ele>423.0</ele><time>2026-04-18T11:52:17.046Z</time></trkpt><trkpt lat="43.3898767" lon="11.385735"><ele>422.75</ele><time>2026-04-18T11:52:18.046Z</time></trkpt><trkpt lat="43.3898133" lon="11.3858383"><ele>422.5</ele><time>2026-04-18T11:52:19.045Z</time></trkpt><trkpt lat="43.3897683" lon="11.3859683"><ele>422.25</ele><time>2026-04-18T11:52:20.046Z</time></trkpt><trkpt lat="43.3897233" lon="11.3861217"><ele>422.0</ele><time>2026-04-18T11:52:21.046Z</time></trkpt><trkpt lat="43.3896717" lon="11.3862833"><ele>422.75</ele><time>2026-04-18T11:52:22.046Z</time></trkpt><trkpt lat="43.3896033" lon="11.3864383"><ele>423.5</ele><time>2026-04-18T11:52:23.045Z</time></trkpt><trkpt lat="43.3895317" lon="11.3866017"><ele>424.25</ele><time>2026-04-18T11:52:24.045Z</time></trkpt><trkpt lat="43.389455" lon="11.38677"><ele>425.0</ele><time>2026-04-18T11:52:25.045Z</time></trkpt><trkpt lat="43.3893683" lon="11.3869333"><ele>425.0</ele><time>2026-04-18T11:52:26.045Z</time></trkpt><trkpt lat="43.3892817" lon="11.3871017"><ele>425.0</ele><time>2026-04-18T11:52:27.046Z</time></trkpt><trkpt lat="43.3892" lon="11.3872783"><ele>425.0</ele><time>2026-04-18T11:52:28.046Z</time></trkpt><trkpt lat="43.3891133" lon="11.38747"><ele>424.0</ele><time>2026-04-18T11:52:29.046Z</time></trkpt><trkpt lat="43.3890317" lon="11.38767"><ele>423.0</ele><time>2026-04-18T11:52:30.045Z</time></trkpt><trkpt lat="43.3889517" lon="11.3878683"><ele>422.0</ele><time>2026-04-18T11:52:31.045Z</time></trkpt><trkpt lat="43.3888733" lon="11.388065"><ele>424.3333333333333</ele><time>2026-04-18T11:52:32.046Z</time></trkpt><trkpt lat="43.3887917" lon="11.3882583"><ele>426.66666666666663</ele><time>2026-04-18T11:52:33.045Z</time></trkpt><trkpt lat="43.3887083" lon="11.3884433"><ele>429.0</ele><time>2026-04-18T11:52:34.045Z</time></trkpt><trkpt lat="43.3886217" lon="11.3886283"><ele>429.0</ele><time>2026-04-18T11:52:35.046Z</time></trkpt><trkpt lat="43.38854" lon="11.3888133"><ele>429.0</ele><time>2026-04-18T11:52:36.045Z</time></trkpt><trkpt lat="43.3884567" lon="11.389"><ele>429.0</ele><time>2026-04-18T11:52:37.045Z</time></trkpt><trkpt lat="43.3883783" lon="11.3891883"><ele>428.75</ele><time>2026-04-18T11:52:38.046Z</time></trkpt><trkpt lat="43.3883017" lon="11.3893683"><ele>428.5</ele><time>2026-04-18T11:52:39.045Z</time></trkpt><trkpt lat="43.3882317" lon="11.3895533"><ele>428.25</ele><time>2026-04-18T11:52:40.046Z</time></trkpt><trkpt lat="43.3881717" lon="11.3897283"><ele>428.0</ele><time>2026-04-18T11:52:41.046Z</time></trkpt><trkpt lat="43.3881333" lon="11.3899183"><ele>428.0</ele><time>2026-04-18T11:52:42.046Z</time></trkpt><trkpt lat="43.3881" lon="11.3901083"><ele>428.0</ele><time>2026-04-18T11:52:43.045Z</time></trkpt><trkpt lat="43.3880733" lon="11.3902833"><ele>428.0</ele><time>2026-04-18T11:52:44.045Z</time></trkpt><trkpt lat="43.388025" lon="11.3904533"><ele>428.0</ele><time>2026-04-18T11:52:45.045Z</time></trkpt><trkpt lat="43.3879467" lon="11.3906033"><ele>430.66666666666663</ele><time>2026-04-18T11:52:46.045Z</time></trkpt><trkpt lat="43.3878417" lon="11.3907633"><ele>433.33333333333337</ele><time>2026-04-18T11:52:47.045Z</time></trkpt><trkpt lat="43.3877217" lon="11.3909433"><ele>436.0</ele><time>2026-04-18T11:52:48.045Z</time></trkpt><trkpt lat="43.38759" lon="11.3911517"><ele>435.33333333333337</ele><time>2026-04-18T11:52:49.045Z</time></trkpt><trkpt lat="43.3874567" lon="11.3913517"><ele>434.66666666666663</ele><time>2026-04-18T11:52:50.045Z</time></trkpt><trkpt lat="43.3873367" lon="11.391535"><ele>434.0</ele><time>2026-04-18T11:52:51.046Z</time></trkpt><trkpt lat="43.3872283" lon="11.3917017"><ele>433.25</ele><time>2026-04-18T11:52:52.046Z</time></trkpt><trkpt lat="43.3871333" lon="11.391855"><ele>432.5</ele><time>2026-04-18T11:52:53.046Z</time></trkpt><trkpt lat="43.387035" lon="11.3919983"><ele>431.75</ele><time>2026-04-18T11:52:54.046Z</time></trkpt><trkpt lat="43.3869333" lon="11.3921367"><ele>431.0</ele><time>2026-04-18T11:52:55.045Z</time></trkpt><trkpt lat="43.3868217" lon="11.39227"><ele>431.0</ele><time>2026-04-18T11:52:56.046Z</time></trkpt><trkpt lat="43.3867033" lon="11.39239"><ele>431.0</ele><time>2026-04-18T11:52:57.045Z</time></trkpt><trkpt lat="43.3865833" lon="11.3924917"><ele>431.0</ele><time>2026-04-18T11:52:58.045Z</time></trkpt><trkpt lat="43.386465" lon="11.3926017"><ele>431.0</ele><time>2026-04-18T11:52:59.046Z</time></trkpt><trkpt lat="43.3863517" lon="11.3927283"><ele>430.0</ele><time>2026-04-18T11:53:00.045Z</time></trkpt><trkpt lat="43.386235" lon="11.3928733"><ele>429.0</ele><time>2026-04-18T11:53:01.046Z</time></trkpt><trkpt lat="43.3861117" lon="11.3930367"><ele>428.0</ele><time>2026-04-18T11:53:02.046Z</time></trkpt><trkpt lat="43.3859833" lon="11.39322"><ele>428.0</ele><time>2026-04-18T11:53:03.046Z</time></trkpt><trkpt lat="43.3858467" lon="11.3934117"><ele>428.0</ele><time>2026-04-18T11:53:04.045Z</time></trkpt><trkpt lat="43.3857117" lon="11.3936133"><ele>428.0</ele><time>2026-04-18T11:53:05.046Z</time></trkpt><trkpt lat="43.3855767" lon="11.3938183"><ele>427.0</ele><time>2026-04-18T11:53:06.046Z</time></trkpt><trkpt lat="43.38546" lon="11.3939967"><ele>426.0</ele><time>2026-04-18T11:53:07.046Z</time></trkpt><trkpt lat="43.3853417" lon="11.3941683"><ele>425.0</ele><time>2026-04-18T11:53:08.046Z</time></trkpt><trkpt lat="43.3852167" lon="11.394355"><ele>425.0</ele><time>2026-04-18T11:53:09.045Z</time></trkpt><trkpt lat="43.385095" lon="11.3945367"><ele>425.0</ele><time>2026-04-18T11:53:10.045Z</time></trkpt><trkpt lat="43.3849783" lon="11.3947133"><ele>425.0</ele><time>2026-04-18T11:53:11.045Z</time></trkpt><trkpt lat="43.38487" lon="11.39488"><ele>424.3333333333333</ele><time>2026-04-18T11:53:12.046Z</time></trkpt><trkpt lat="43.3847567" lon="11.3950367"><ele>423.66666666666663</ele><time>2026-04-18T11:53:13.045Z</time></trkpt><trkpt lat="43.3846433" lon="11.395175"><ele>423.0</ele><time>2026-04-18T11:53:14.046Z</time></trkpt><trkpt lat="43.38451" lon="11.3953017"><ele>422.66666666666663</ele><time>2026-04-18T11:53:15.046Z</time></trkpt><trkpt lat="43.3843633" lon="11.3953933"><ele>422.3333333333333</ele><time>2026-04-18T11:53:16.045Z</time></trkpt><trkpt lat="43.3841917" lon="11.39546"><ele>422.0</ele><time>2026-04-18T11:53:17.046Z</time></trkpt><trkpt lat="43.383995" lon="11.395525"><ele>420.66666666666663</ele><time>2026-04-18T11:53:18.046Z</time></trkpt><trkpt lat="43.3837983" lon="11.3956033"><ele>419.33333333333337</ele><time>2026-04-18T11:53:19.046Z</time></trkpt><trkpt lat="43.3836033" lon="11.3956783"><ele>418.0</ele><time>2026-04-18T11:53:20.045Z</time></trkpt><trkpt lat="43.3834167" lon="11.3957533"><ele>418.0</ele><time>2026-04-18T11:53:21.046Z</time></trkpt><trkpt lat="43.383235" lon="11.3958167"><ele>418.0</ele><time>2026-04-18T11:53:22.045Z</time></trkpt><trkpt lat="43.3830567" lon="11.3958867"><ele>418.0</ele><time>2026-04-18T11:53:23.046Z</time></trkpt><trkpt lat="43.38288" lon="11.3959533"><ele>416.6666666666667</ele><time>2026-04-18T11:53:24.046Z</time></trkpt><trkpt lat="43.382695" lon="11.3960117"><ele>415.33333333333337</ele><time>2026-04-18T11:53:25.045Z</time></trkpt><trkpt lat="43.38251" lon="11.3960617"><ele>414.0</ele><time>2026-04-18T11:53:26.046Z</time></trkpt><trkpt lat="43.3823317" lon="11.3961033"><ele>412.66666666666663</ele><time>2026-04-18T11:53:27.045Z</time></trkpt><trkpt lat="43.38216" lon="11.3961433"><ele>411.3333333333333</ele><time>2026-04-18T11:53:28.045Z</time></trkpt><trkpt lat="43.3819883" lon="11.3961717"><ele>410.0</ele><time>2026-04-18T11:53:29.046Z</time></trkpt><trkpt lat="43.3818196" lon="11.3962015"><ele>410.0</ele><time>2026-04-18T11:53:30.046Z</time></trkpt><trkpt lat="43.3816576" lon="11.3962266"><ele>410.0</ele><time>2026-04-18T11:53:31.046Z</time></trkpt><trkpt lat="43.3815026" lon="11.3962453"><ele>410.0</ele><time>2026-04-18T11:53:32.045Z</time></trkpt><trkpt lat="43.3813558" lon="11.3962532"><ele>409.5</ele><time>2026-04-18T11:53:33.046Z</time></trkpt><trkpt lat="43.3812121" lon="11.3962556"><ele>409.0</ele><time>2026-04-18T11:53:34.046Z</time></trkpt><trkpt lat="43.3810767" lon="11.3962562"><ele>408.5</ele><time>2026-04-18T11:53:35.045Z</time></trkpt><trkpt lat="43.3809471" lon="11.3962567"><ele>408.0</ele><time>2026-04-18T11:53:36.045Z</time></trkpt><trkpt lat="43.3808178" lon="11.3962676"><ele>408.0</ele><time>2026-04-18T11:53:37.045Z</time></trkpt><trkpt lat="43.3806885" lon="11.3962868"><ele>408.0</ele><time>2026-04-18T11:53:38.046Z</time></trkpt><trkpt lat="43.380556" lon="11.396312"><ele>408.0</ele><time>2026-04-18T11:53:39.045Z</time></trkpt><trkpt lat="43.3804189" lon="11.3963472"><ele>408.0</ele><time>2026-04-18T11:53:40.045Z</time></trkpt><trkpt lat="43.3802825" lon="11.3963833"><ele>407.0</ele><time>2026-04-18T11:53:41.045Z</time></trkpt><trkpt lat="43.3801471" lon="11.3964165"><ele>406.0</ele><time>2026-04-18T11:53:42.045Z</time></trkpt><trkpt lat="43.3800132" lon="11.3964519"><ele>405.0</ele><time>2026-04-18T11:53:43.046Z</time></trkpt><trkpt lat="43.3798802" lon="11.3964869"><ele>404.0</ele><time>2026-04-18T11:53:44.046Z</time></trkpt><trkpt lat="43.3797481" lon="11.3965242"><ele>403.0</ele><time>2026-04-18T11:53:45.045Z</time></trkpt><trkpt lat="43.3796151" lon="11.3965597"><ele>402.0</ele><time>2026-04-18T11:53:46.046Z</time></trkpt><trkpt lat="43.3794829" lon="11.3965952"><ele>401.0</ele><time>2026-04-18T11:53:47.045Z</time></trkpt><trkpt lat="43.3793529" lon="11.3966345"><ele>400.0</ele><time>2026-04-18T11:53:48.045Z</time></trkpt><trkpt lat="43.3792195" lon="11.3966765"><ele>400.0</ele><time>2026-04-18T11:53:49.045Z</time></trkpt><trkpt lat="43.3790833" lon="11.3967253"><ele>400.0</ele><time>2026-04-18T11:53:50.045Z</time></trkpt><trkpt lat="43.37895" lon="11.3967757"><ele>400.0</ele><time>2026-04-18T11:53:51.045Z</time></trkpt><trkpt lat="43.3788189" lon="11.3968193"><ele>400.0</ele><time>2026-04-18T11:53:52.046Z</time></trkpt><trkpt lat="43.3786837" lon="11.3968641"><ele>398.5</ele><time>2026-04-18T11:53:53.045Z</time></trkpt><trkpt lat="43.3785512" lon="11.3969098"><ele>397.0</ele><time>2026-04-18T11:53:54.046Z</time></trkpt><trkpt lat="43.3784156" lon="11.3969541"><ele>395.5</ele><time>2026-04-18T11:53:55.045Z</time></trkpt><trkpt lat="43.3782792" lon="11.397"><ele>394.0</ele><time>2026-04-18T11:53:56.045Z</time></trkpt><trkpt lat="43.3781438" lon="11.3970417"><ele>392.75</ele><time>2026-04-18T11:53:57.046Z</time></trkpt><trkpt lat="43.3780082" lon="11.3970745"><ele>391.5</ele><time>2026-04-18T11:53:58.045Z</time></trkpt><trkpt lat="43.3778781" lon="11.3970976"><ele>390.25</ele><time>2026-04-18T11:53:59.045Z</time></trkpt><trkpt lat="43.3777542" lon="11.3971209"><ele>389.0</ele><time>2026-04-18T11:54:00.046Z</time></trkpt><trkpt lat="43.3776359" lon="11.3971405"><ele>388.6</ele><time>2026-04-18T11:54:01.046Z</time></trkpt><trkpt lat="43.3775241" lon="11.3971784"><ele>388.2</ele><time>2026-04-18T11:54:02.045Z</time></trkpt><trkpt lat="43.3774267" lon="11.3972467"><ele>387.8</ele><time>2026-04-18T11:54:03.046Z</time></trkpt><trkpt lat="43.377335" lon="11.3973217"><ele>387.40000000000003</ele><time>2026-04-18T11:54:04.045Z</time></trkpt><trkpt lat="43.3772467" lon="11.397395"><ele>387.0</ele><time>2026-04-18T11:54:05.045Z</time></trkpt><trkpt lat="43.3771633" lon="11.3974583"><ele>387.0</ele><time>2026-04-18T11:54:06.045Z</time></trkpt><trkpt lat="43.3770883" lon="11.3975317"><ele>387.0</ele><time>2026-04-18T11:54:07.045Z</time></trkpt><trkpt lat="43.3770183" lon="11.3976033"><ele>387.0</ele><time>2026-04-18T11:54:08.046Z</time></trkpt><trkpt lat="43.3769533" lon="11.3976717"><ele>387.0</ele><time>2026-04-18T11:54:09.046Z</time></trkpt><trkpt lat="43.3768883" lon="11.3977367"><ele>387.0</ele><time>2026-04-18T11:54:10.046Z</time></trkpt><trkpt lat="43.3768267" lon="11.3977967"><ele>387.0</ele><time>2026-04-18T11:54:11.046Z</time></trkpt><trkpt lat="43.3767633" lon="11.3978583"><ele>387.0</ele><time>2026-04-18T11:54:12.046Z</time></trkpt><trkpt lat="43.3767067" lon="11.397915"><ele>387.0</ele><time>2026-04-18T11:54:13.046Z</time></trkpt><trkpt lat="43.376645" lon="11.3979717"><ele>387.0</ele><time>2026-04-18T11:54:14.046Z</time></trkpt><trkpt lat="43.3765817" lon="11.3980183"><ele>387.0</ele><time>2026-04-18T11:54:15.046Z</time></trkpt><trkpt lat="43.3765167" lon="11.3980583"><ele>387.0</ele><time>2026-04-18T11:54:16.046Z</time></trkpt><trkpt lat="43.3764433" lon="11.3980933"><ele>387.0</ele><time>2026-04-18T11:54:17.046Z</time></trkpt><trkpt lat="43.3763483" lon="11.3981333"><ele>386.0</ele><time>2026-04-18T11:54:18.045Z</time></trkpt><trkpt lat="43.3762333" lon="11.3981767"><ele>385.0</ele><time>2026-04-18T11:54:19.046Z</time></trkpt><trkpt lat="43.3761067" lon="11.3982233"><ele>384.0</ele><time>2026-04-18T11:54:20.045Z</time></trkpt><trkpt lat="43.3759733" lon="11.3982733"><ele>383.0</ele><time>2026-04-18T11:54:21.045Z</time></trkpt><trkpt lat="43.3758317" lon="11.398325"><ele>383.0</ele><time>2026-04-18T11:54:22.045Z</time></trkpt><trkpt lat="43.375685" lon="11.3983833"><ele>383.0</ele><time>2026-04-18T11:54:23.046Z</time></trkpt><trkpt lat="43.3755417" lon="11.3984517"><ele>383.0</ele><time>2026-04-18T11:54:24.046Z</time></trkpt><trkpt lat="43.3754" lon="11.398545"><ele>383.0</ele><time>2026-04-18T11:54:25.046Z</time></trkpt><trkpt lat="43.3752633" lon="11.3986517"><ele>383.0</ele><time>2026-04-18T11:54:26.045Z</time></trkpt><trkpt lat="43.37513" lon="11.39878"><ele>383.0</ele><time>2026-04-18T11:54:27.046Z</time></trkpt><trkpt lat="43.3749967" lon="11.3989233"><ele>382.6666666666667</ele><time>2026-04-18T11:54:28.045Z</time></trkpt><trkpt lat="43.3748567" lon="11.39908"><ele>382.3333333333333</ele><time>2026-04-18T11:54:29.045Z</time></trkpt><trkpt lat="43.3747133" lon="11.399245"><ele>382.0</ele><time>2026-04-18T11:54:30.044Z</time></trkpt><trkpt lat="43.3745733" lon="11.3994017"><ele>382.3333333333333</ele><time>2026-04-18T11:54:31.044Z</time></trkpt><trkpt lat="43.3744417" lon="11.3995483"><ele>382.6666666666667</ele><time>2026-04-18T11:54:32.044Z</time></trkpt><trkpt lat="43.3743033" lon="11.39968"><ele>383.0</ele><time>2026-04-18T11:54:33.044Z</time></trkpt><trkpt lat="43.374155" lon="11.399795"><ele>383.0</ele><time>2026-04-18T11:54:34.044Z</time></trkpt><trkpt lat="43.37399" lon="11.3998967"><ele>383.0</ele><time>2026-04-18T11:54:35.045Z</time></trkpt><trkpt lat="43.3738217" lon="11.3999783"><ele>383.0</ele><time>2026-04-18T11:54:36.044Z</time></trkpt><trkpt lat="43.37366" lon="11.4000433"><ele>383.0</ele><time>2026-04-18T11:54:37.044Z</time></trkpt><trkpt lat="43.3735083" lon="11.4000983"><ele>383.0</ele><time>2026-04-18T11:54:38.044Z</time></trkpt><trkpt lat="43.3733633" lon="11.4001683"><ele>383.0</ele><time>2026-04-18T11:54:39.045Z</time></trkpt><trkpt lat="43.37322" lon="11.4002583"><ele>383.0</ele><time>2026-04-18T11:54:40.044Z</time></trkpt><trkpt lat="43.3730767" lon="11.400375"><ele>383.0</ele><time>2026-04-18T11:54:41.044Z</time></trkpt><trkpt lat="43.3729383" lon="11.4005167"><ele>383.0</ele><time>2026-04-18T11:54:42.044Z</time></trkpt><trkpt lat="43.3728083" lon="11.400665"><ele>383.75</ele><time>2026-04-18T11:54:43.044Z</time></trkpt><trkpt lat="43.3726917" lon="11.4008017"><ele>384.5</ele><time>2026-04-18T11:54:44.044Z</time></trkpt><trkpt lat="43.3725783" lon="11.40093"><ele>385.25</ele><time>2026-04-18T11:54:45.044Z</time></trkpt><trkpt lat="43.3724683" lon="11.4010533"><ele>386.0</ele><time>2026-04-18T11:54:46.044Z</time></trkpt><trkpt lat="43.37236" lon="11.4011617"><ele>386.0</ele><time>2026-04-18T11:54:47.044Z</time></trkpt><trkpt lat="43.372255" lon="11.4012633"><ele>386.0</ele><time>2026-04-18T11:54:48.045Z</time></trkpt><trkpt lat="43.3721567" lon="11.4013583"><ele>386.0</ele><time>2026-04-18T11:54:49.044Z</time></trkpt><trkpt lat="43.3720617" lon="11.401445"><ele>386.0</ele><time>2026-04-18T11:54:50.044Z</time></trkpt><trkpt lat="43.3719817" lon="11.4015417"><ele>385.0</ele><time>2026-04-18T11:54:51.044Z</time></trkpt><trkpt lat="43.3719233" lon="11.4016433"><ele>384.0</ele><time>2026-04-18T11:54:52.044Z</time></trkpt><trkpt lat="43.371875" lon="11.4017717"><ele>383.0</ele><time>2026-04-18T11:54:53.044Z</time></trkpt><trkpt lat="43.3718517" lon="11.4019117"><ele>382.0</ele><time>2026-04-18T11:54:54.044Z</time></trkpt><trkpt lat="43.371845" lon="11.4020667"><ele>381.0</ele><time>2026-04-18T11:54:55.044Z</time></trkpt><trkpt lat="43.3718217" lon="11.4022167"><ele>380.5</ele><time>2026-04-18T11:54:56.045Z</time></trkpt><trkpt lat="43.371785" lon="11.4023617"><ele>380.0</ele><time>2026-04-18T11:54:57.044Z</time></trkpt><trkpt lat="43.3717283" lon="11.4024917"><ele>379.5</ele><time>2026-04-18T11:54:58.044Z</time></trkpt><trkpt lat="43.3716633" lon="11.4026283"><ele>379.0</ele><time>2026-04-18T11:54:59.045Z</time></trkpt><trkpt lat="43.371605" lon="11.402765"><ele>379.0</ele><time>2026-04-18T11:55:00.044Z</time></trkpt><trkpt lat="43.3715483" lon="11.4029117"><ele>379.0</ele><time>2026-04-18T11:55:01.044Z</time></trkpt><trkpt lat="43.371485" lon="11.4030533"><ele>379.0</ele><time>2026-04-18T11:55:02.045Z</time></trkpt><trkpt lat="43.3714217" lon="11.4032017"><ele>379.0</ele><time>2026-04-18T11:55:03.045Z</time></trkpt><trkpt lat="43.3713667" lon="11.40334"><ele>376.79999999999995</ele><time>2026-04-18T11:55:04.045Z</time></trkpt><trkpt lat="43.3713117" lon="11.4034733"><ele>374.59999999999997</ele><time>2026-04-18T11:55:05.044Z</time></trkpt><trkpt lat="43.3712583" lon="11.4036083"><ele>372.4</ele><time>2026-04-18T11:55:06.045Z</time></trkpt><trkpt lat="43.3712033" lon="11.4037367"><ele>370.2</ele><time>2026-04-18T11:55:07.044Z</time></trkpt><trkpt lat="43.3711517" lon="11.40386"><ele>368.0</ele><time>2026-04-18T11:55:08.044Z</time></trkpt><trkpt lat="43.3710967" lon="11.4039917"><ele>367.59999999999997</ele><time>2026-04-18T11:55:09.044Z</time></trkpt><trkpt lat="43.3710383" lon="11.4041167"><ele>367.2</ele><time>2026-04-18T11:55:10.045Z</time></trkpt><trkpt lat="43.370975" lon="11.404225"><ele>366.8</ele><time>2026-04-18T11:55:11.045Z</time></trkpt><trkpt lat="43.3708917" lon="11.404325"><ele>366.4</ele><time>2026-04-18T11:55:12.044Z</time></trkpt><trkpt lat="43.3707983" lon="11.40441"><ele>366.0</ele><time>2026-04-18T11:55:13.044Z</time></trkpt><trkpt lat="43.3706817" lon="11.4044633"><ele>366.0</ele><time>2026-04-18T11:55:14.044Z</time></trkpt><trkpt lat="43.3705517" lon="11.4044917"><ele>366.0</ele><time>2026-04-18T11:55:15.044Z</time></trkpt><trkpt lat="43.37041" lon="11.4045"><ele>366.0</ele><time>2026-04-18T11:55:16.045Z</time></trkpt><trkpt lat="43.37026" lon="11.4044983"><ele>366.0</ele><time>2026-04-18T11:55:17.045Z</time></trkpt><trkpt lat="43.370105" lon="11.4044883"><ele>364.3333333333333</ele><time>2026-04-18T11:55:18.045Z</time></trkpt><trkpt lat="43.369945" lon="11.4044833"><ele>362.66666666666663</ele><time>2026-04-18T11:55:19.044Z</time></trkpt><trkpt lat="43.3697783" lon="11.4044767"><ele>361.0</ele><time>2026-04-18T11:55:20.045Z</time></trkpt><trkpt lat="43.369615" lon="11.4044633"><ele>359.0</ele><time>2026-04-18T11:55:21.044Z</time></trkpt><trkpt lat="43.3694517" lon="11.40446"><ele>357.0</ele><time>2026-04-18T11:55:22.044Z</time></trkpt><trkpt lat="43.36928" lon="11.4044617"><ele>355.0</ele><time>2026-04-18T11:55:23.044Z</time></trkpt><trkpt lat="43.36911" lon="11.4044683"><ele>355.0</ele><time>2026-04-18T11:55:24.044Z</time></trkpt><trkpt lat="43.3689333" lon="11.4044783"><ele>355.0</ele><time>2026-04-18T11:55:25.044Z</time></trkpt><trkpt lat="43.368765" lon="11.4044767"><ele>355.0</ele><time>2026-04-18T11:55:26.045Z</time></trkpt><trkpt lat="43.3685967" lon="11.4044633"><ele>354.0</ele><time>2026-04-18T11:55:27.045Z</time></trkpt><trkpt lat="43.36843" lon="11.4044417"><ele>353.0</ele><time>2026-04-18T11:55:28.044Z</time></trkpt><trkpt lat="43.3682667" lon="11.4044167"><ele>352.0</ele><time>2026-04-18T11:55:29.044Z</time></trkpt><trkpt lat="43.368115" lon="11.4043917"><ele>351.25</ele><time>2026-04-18T11:55:30.044Z</time></trkpt><trkpt lat="43.3679683" lon="11.404365"><ele>350.5</ele><time>2026-04-18T11:55:31.045Z</time></trkpt><trkpt lat="43.3678233" lon="11.4043367"><ele>349.75</ele><time>2026-04-18T11:55:32.044Z</time></trkpt><trkpt lat="43.3676833" lon="11.40431"><ele>349.0</ele><time>2026-04-18T11:55:33.044Z</time></trkpt><trkpt lat="43.3675417" lon="11.4042883"><ele>349.0</ele><time>2026-04-18T11:55:34.045Z</time></trkpt><trkpt lat="43.367405" lon="11.404265"><ele>349.0</ele><time>2026-04-18T11:55:35.045Z</time></trkpt><trkpt lat="43.3672683" lon="11.4042533"><ele>349.0</ele><time>2026-04-18T11:55:36.045Z</time></trkpt><trkpt lat="43.3671367" lon="11.40426"><ele>349.0</ele><time>2026-04-18T11:55:37.045Z</time></trkpt><trkpt lat="43.3670017" lon="11.4042867"><ele>349.0</ele><time>2026-04-18T11:55:38.045Z</time></trkpt><trkpt lat="43.3668683" lon="11.4043483"><ele>349.0</ele><time>2026-04-18T11:55:39.044Z</time></trkpt><trkpt lat="43.3667433" lon="11.4044433"><ele>349.0</ele><time>2026-04-18T11:55:40.044Z</time></trkpt><trkpt lat="43.3666283" lon="11.4045633"><ele>349.0</ele><time>2026-04-18T11:55:41.044Z</time></trkpt><trkpt lat="43.36653" lon="11.4047033"><ele>348.66666666666663</ele><time>2026-04-18T11:55:42.044Z</time></trkpt><trkpt lat="43.366445" lon="11.404865"><ele>348.3333333333333</ele><time>2026-04-18T11:55:43.045Z</time></trkpt><trkpt lat="43.3663683" lon="11.40505"><ele>348.0</ele><time>2026-04-18T11:55:44.044Z</time></trkpt><trkpt lat="43.3662917" lon="11.4052433"><ele>348.0</ele><time>2026-04-18T11:55:45.044Z</time></trkpt><trkpt lat="43.3662233" lon="11.4054217"><ele>348.0</ele><time>2026-04-18T11:55:46.044Z</time></trkpt><trkpt lat="43.36616" lon="11.4055917"><ele>348.0</ele><time>2026-04-18T11:55:47.044Z</time></trkpt><trkpt lat="43.366095" lon="11.4057533"><ele>348.0</ele><time>2026-04-18T11:55:48.044Z</time></trkpt><trkpt lat="43.36604" lon="11.40589"><ele>347.2</ele><time>2026-04-18T11:55:49.045Z</time></trkpt><trkpt lat="43.3659817" lon="11.4060133"><ele>346.4</ele><time>2026-04-18T11:55:50.045Z</time></trkpt><trkpt lat="43.3659217" lon="11.406105"><ele>345.59999999999997</ele><time>2026-04-18T11:55:51.044Z</time></trkpt><trkpt lat="43.3658367" lon="11.4061817"><ele>344.79999999999995</ele><time>2026-04-18T11:55:52.044Z</time></trkpt><trkpt lat="43.3657283" lon="11.4062517"><ele>344.0</ele><time>2026-04-18T11:55:53.045Z</time></trkpt><trkpt lat="43.3656017" lon="11.4063067"><ele>342.75</ele><time>2026-04-18T11:55:54.044Z</time></trkpt><trkpt lat="43.365475" lon="11.406355"><ele>341.5</ele><time>2026-04-18T11:55:55.044Z</time></trkpt><trkpt lat="43.3653617" lon="11.4063983"><ele>340.25</ele><time>2026-04-18T11:55:56.044Z</time></trkpt><trkpt lat="43.3652583" lon="11.406435"><ele>339.0</ele><time>2026-04-18T11:55:57.045Z</time></trkpt><trkpt lat="43.3651617" lon="11.4064567"><ele>339.0</ele><time>2026-04-18T11:55:58.044Z</time></trkpt><trkpt lat="43.365075" lon="11.4064567"><ele>339.0</ele><time>2026-04-18T11:55:59.045Z</time></trkpt><trkpt lat="43.36499" lon="11.406435"><ele>339.0</ele><time>2026-04-18T11:56:00.044Z</time></trkpt><trkpt lat="43.36491" lon="11.4063967"><ele>339.0</ele><time>2026-04-18T11:56:01.044Z</time></trkpt><trkpt lat="43.3648383" lon="11.4063167"><ele>339.0</ele><time>2026-04-18T11:56:02.044Z</time></trkpt><trkpt lat="43.3647783" lon="11.4062283"><ele>339.0</ele><time>2026-04-18T11:56:03.044Z</time></trkpt><trkpt lat="43.3647217" lon="11.4061433"><ele>337.57142857142856</ele><time>2026-04-18T11:56:04.044Z</time></trkpt><trkpt lat="43.3646717" lon="11.4060717"><ele>336.14285714285717</ele><time>2026-04-18T11:56:05.045Z</time></trkpt><trkpt lat="43.3646167" lon="11.40602"><ele>334.7142857142857</ele><time>2026-04-18T11:56:06.045Z</time></trkpt><trkpt lat="43.3645517" lon="11.405995"><ele>333.2857142857143</ele><time>2026-04-18T11:56:07.045Z</time></trkpt><trkpt lat="43.3644817" lon="11.4059933"><ele>331.8571428571429</ele><time>2026-04-18T11:56:08.044Z</time></trkpt><trkpt lat="43.3644067" lon="11.4060183"><ele>330.42857142857144</ele><time>2026-04-18T11:56:09.044Z</time></trkpt><trkpt lat="43.36432" lon="11.406075"><ele>329.0</ele><time>2026-04-18T11:56:10.044Z</time></trkpt><trkpt lat="43.3642283" lon="11.4061417"><ele>329.0</ele><time>2026-04-18T11:56:11.044Z</time></trkpt><trkpt lat="43.3641367" lon="11.4062083"><ele>329.0</ele><time>2026-04-18T11:56:12.045Z</time></trkpt><trkpt lat="43.3640383" lon="11.406275"><ele>329.0</ele><time>2026-04-18T11:56:13.044Z</time></trkpt><trkpt lat="43.3639383" lon="11.4063483"><ele>329.0</ele><time>2026-04-18T11:56:14.044Z</time></trkpt><trkpt lat="43.3638333" lon="11.4064183"><ele>329.0</ele><time>2026-04-18T11:56:15.044Z</time></trkpt><trkpt lat="43.36373" lon="11.4064883"><ele>326.5</ele><time>2026-04-18T11:56:16.045Z</time></trkpt><trkpt lat="43.3636217" lon="11.406555"><ele>324.0</ele><time>2026-04-18T11:56:17.044Z</time></trkpt><trkpt lat="43.363515" lon="11.4066267"><ele>321.5</ele><time>2026-04-18T11:56:18.044Z</time></trkpt><trkpt lat="43.3634067" lon="11.4066967"><ele>319.0</ele><time>2026-04-18T11:56:19.045Z</time></trkpt><trkpt lat="43.3633017" lon="11.4067667"><ele>319.0</ele><time>2026-04-18T11:56:20.045Z</time></trkpt><trkpt lat="43.3632" lon="11.40683"><ele>319.0</ele><time>2026-04-18T11:56:21.044Z</time></trkpt><trkpt lat="43.3631017" lon="11.4068933"><ele>319.0</ele><time>2026-04-18T11:56:22.045Z</time></trkpt><trkpt lat="43.3630017" lon="11.4069433"><ele>319.0</ele><time>2026-04-18T11:56:23.044Z</time></trkpt><trkpt lat="43.3629033" lon="11.406995"><ele>319.0</ele><time>2026-04-18T11:56:24.045Z</time></trkpt><trkpt lat="43.36281" lon="11.407045"><ele>318.0</ele><time>2026-04-18T11:56:25.044Z</time></trkpt><trkpt lat="43.36272" lon="11.4070867"><ele>317.0</ele><time>2026-04-18T11:56:26.044Z</time></trkpt><trkpt lat="43.36263" lon="11.4071233"><ele>316.0</ele><time>2026-04-18T11:56:27.044Z</time></trkpt><trkpt lat="43.362545" lon="11.407155"><ele>315.0</ele><time>2026-04-18T11:56:28.045Z</time></trkpt><trkpt lat="43.36246" lon="11.407185"><ele>314.0</ele><time>2026-04-18T11:56:29.045Z</time></trkpt><trkpt lat="43.3623767" lon="11.4072117"><ele>314.0</ele><time>2026-04-18T11:56:30.044Z</time></trkpt><trkpt lat="43.3622867" lon="11.4072333"><ele>314.0</ele><time>2026-04-18T11:56:31.045Z</time></trkpt><trkpt lat="43.3622" lon="11.4072617"><ele>314.0</ele><time>2026-04-18T11:56:32.044Z</time></trkpt><trkpt lat="43.362115" lon="11.407295"><ele>314.0</ele><time>2026-04-18T11:56:33.045Z</time></trkpt><trkpt lat="43.3620317" lon="11.4073183"><ele>314.0</ele><time>2026-04-18T11:56:34.045Z</time></trkpt><trkpt lat="43.3619467" lon="11.407345"><ele>314.0</ele><time>2026-04-18T11:56:35.044Z</time></trkpt><trkpt lat="43.3618667" lon="11.4073667"><ele>312.6666666666667</ele><time>2026-04-18T11:56:36.044Z</time></trkpt><trkpt lat="43.3617867" lon="11.4073867"><ele>311.33333333333337</ele><time>2026-04-18T11:56:37.045Z</time></trkpt><trkpt lat="43.3617067" lon="11.4074133"><ele>310.0</ele><time>2026-04-18T11:56:38.044Z</time></trkpt><trkpt lat="43.3616217" lon="11.407435"><ele>308.6666666666667</ele><time>2026-04-18T11:56:39.044Z</time></trkpt><trkpt lat="43.3615467" lon="11.4074583"><ele>307.3333333333333</ele><time>2026-04-18T11:56:40.044Z</time></trkpt><trkpt lat="43.3614667" lon="11.4074783"><ele>306.0</ele><time>2026-04-18T11:56:41.045Z</time></trkpt><trkpt lat="43.361385" lon="11.4074933"><ele>304.6666666666667</ele><time>2026-04-18T11:56:42.045Z</time></trkpt><trkpt lat="43.3613033" lon="11.40751"><ele>303.3333333333333</ele><time>2026-04-18T11:56:43.044Z</time></trkpt><trkpt lat="43.361225" lon="11.4075233"><ele>302.0</ele><time>2026-04-18T11:56:44.044Z</time></trkpt><trkpt lat="43.36114" lon="11.40753"><ele>300.66666666666663</ele><time>2026-04-18T11:56:45.045Z</time></trkpt><trkpt lat="43.3610567" lon="11.407535"><ele>299.3333333333333</ele><time>2026-04-18T11:56:46.044Z</time></trkpt><trkpt lat="43.360975" lon="11.4075383"><ele>298.0</ele><time>2026-04-18T11:56:47.044Z</time></trkpt><trkpt lat="43.3609" lon="11.4075433"><ele>298.0</ele><time>2026-04-18T11:56:48.045Z</time></trkpt><trkpt lat="43.36082" lon="11.4075417"><ele>298.0</ele><time>2026-04-18T11:56:49.045Z</time></trkpt><trkpt lat="43.3607333" lon="11.40754"><ele>298.0</ele><time>2026-04-18T11:56:50.045Z</time></trkpt><trkpt lat="43.3606483" lon="11.4075333"><ele>298.0</ele><time>2026-04-18T11:56:51.045Z</time></trkpt><trkpt lat="43.3605683" lon="11.4075233"><ele>298.0</ele><time>2026-04-18T11:56:52.044Z</time></trkpt><trkpt lat="43.3604883" lon="11.4075083"><ele>298.0</ele><time>2026-04-18T11:56:53.044Z</time></trkpt><trkpt lat="43.3604067" lon="11.4074967"><ele>297.5</ele><time>2026-04-18T11:56:54.044Z</time></trkpt><trkpt lat="43.3603333" lon="11.4074767"><ele>297.0</ele><time>2026-04-18T11:56:55.044Z</time></trkpt><trkpt lat="43.3602617" lon="11.40746"><ele>296.5</ele><time>2026-04-18T11:56:56.044Z</time></trkpt><trkpt lat="43.3601917" lon="11.4074417"><ele>296.0</ele><time>2026-04-18T11:56:57.044Z</time></trkpt><trkpt lat="43.3601283" lon="11.4074233"><ele>295.5</ele><time>2026-04-18T11:56:58.044Z</time></trkpt><trkpt lat="43.3600267" lon="11.4074"><ele>295.0</ele><time>2026-04-18T11:57:00.045Z</time></trkpt><trkpt lat="43.3599617" lon="11.4073833"><ele>295.0</ele><time>2026-04-18T11:57:02.044Z</time></trkpt><trkpt lat="43.3598917" lon="11.4073683"><ele>295.0</ele><time>2026-04-18T11:57:16.044Z</time></trkpt><trkpt lat="43.3598117" lon="11.407365"><ele>295.0</ele><time>2026-04-18T11:57:18.044Z</time></trkpt><trkpt lat="43.3597367" lon="11.4073567"><ele>295.0</ele><time>2026-04-18T11:57:20.044Z</time></trkpt><trkpt lat="43.3596917" lon="11.4074183"><ele>295.0</ele><time>2026-04-18T11:57:24.044Z</time></trkpt><trkpt lat="43.35977" lon="11.4074283"><ele>295.0</ele><time>2026-04-18T11:57:27.044Z</time></trkpt><trkpt lat="43.3598967" lon="11.4074217"><ele>295.0</ele><time>2026-04-18T11:57:29.044Z</time></trkpt><trkpt lat="43.35999" lon="11.4074383"><ele>295.0</ele><time>2026-04-18T11:57:30.045Z</time></trkpt><trkpt lat="43.3601033" lon="11.40747"><ele>295.0</ele><time>2026-04-18T11:57:31.044Z</time></trkpt><trkpt lat="43.360225" lon="11.4075"><ele>295.0</ele><time>2026-04-18T11:57:32.045Z</time></trkpt><trkpt lat="43.36036" lon="11.4075283"><ele>295.0</ele><time>2026-04-18T11:57:33.044Z</time></trkpt><trkpt lat="43.3605217" lon="11.407545"><ele>295.0</ele><time>2026-04-18T11:57:34.044Z</time></trkpt><trkpt lat="43.3606933" lon="11.407565"><ele>295.0</ele><time>2026-04-18T11:57:35.044Z</time></trkpt><trkpt lat="43.3608783" lon="11.4075733"><ele>296.5</ele><time>2026-04-18T11:57:36.044Z</time></trkpt><trkpt lat="43.3610667" lon="11.4075567"><ele>298.0</ele><time>2026-04-18T11:57:37.044Z</time></trkpt><trkpt lat="43.3613917" lon="11.4075133"><ele>300.66666666666663</ele><time>2026-04-18T11:57:39.044Z</time></trkpt><trkpt lat="43.3615517" lon="11.4074833"><ele>303.3333333333333</ele><time>2026-04-18T11:57:40.044Z</time></trkpt><trkpt lat="43.3617183" lon="11.40744"><ele>306.0</ele><time>2026-04-18T11:57:41.045Z</time></trkpt><trkpt lat="43.3618967" lon="11.4073933"><ele>306.0</ele><time>2026-04-18T11:57:42.045Z</time></trkpt><trkpt lat="43.3620783" lon="11.4073417"><ele>306.0</ele><time>2026-04-18T11:57:43.045Z</time></trkpt><trkpt lat="43.362255" lon="11.4072867"><ele>306.0</ele><time>2026-04-18T11:57:44.044Z</time></trkpt><trkpt lat="43.3623917" lon="11.40724"><ele>306.8333333333333</ele><time>2026-04-18T11:57:45.044Z</time></trkpt><trkpt lat="43.362495" lon="11.4072133"><ele>307.6666666666667</ele><time>2026-04-18T11:57:46.044Z</time></trkpt><trkpt lat="43.3625783" lon="11.4071783"><ele>308.5</ele><time>2026-04-18T11:57:47.044Z</time></trkpt><trkpt lat="43.3626533" lon="11.4071483"><ele>309.33333333333337</ele><time>2026-04-18T11:57:48.044Z</time></trkpt><trkpt lat="43.362725" lon="11.40712"><ele>310.1666666666667</ele><time>2026-04-18T11:57:49.044Z</time></trkpt><trkpt lat="43.362795" lon="11.4070867"><ele>311.0</ele><time>2026-04-18T11:57:50.044Z</time></trkpt><trkpt lat="43.3628683" lon="11.4070567"><ele>311.0</ele><time>2026-04-18T11:57:51.045Z</time></trkpt><trkpt lat="43.3629333" lon="11.407025"><ele>311.0</ele><time>2026-04-18T11:57:52.045Z</time></trkpt><trkpt lat="43.3630267" lon="11.4069833"><ele>311.0</ele><time>2026-04-18T11:57:54.045Z</time></trkpt><trkpt lat="43.36308" lon="11.4069367"><ele>311.0</ele><time>2026-04-18T11:57:57.045Z</time></trkpt><trkpt lat="43.3629833" lon="11.4069467"><ele>311.0</ele><time>2026-04-18T11:58:00.044Z</time></trkpt><trkpt lat="43.3629067" lon="11.4069883"><ele>311.0</ele><time>2026-04-18T11:58:01.045Z</time></trkpt><trkpt lat="43.3628067" lon="11.4070483"><ele>311.0</ele><time>2026-04-18T11:58:02.044Z</time></trkpt><trkpt lat="43.3626917" lon="11.4071067"><ele>311.0</ele><time>2026-04-18T11:58:03.044Z</time></trkpt><trkpt lat="43.3625867" lon="11.40715"><ele>311.0</ele><time>2026-04-18T11:58:04.045Z</time></trkpt><trkpt lat="43.3625067" lon="11.4071783"><ele>311.0</ele><time>2026-04-18T11:58:05.044Z</time></trkpt><trkpt lat="43.36241" lon="11.4072167"><ele>311.0</ele><time>2026-04-18T11:58:07.044Z</time></trkpt><trkpt lat="43.3623283" lon="11.407245"><ele>311.75</ele><time>2026-04-18T11:58:25.043Z</time></trkpt><trkpt lat="43.3622583" lon="11.4072617"><ele>312.5</ele><time>2026-04-18T11:58:26.043Z</time></trkpt><trkpt lat="43.362155" lon="11.4072817"><ele>313.25</ele><time>2026-04-18T11:58:27.044Z</time></trkpt><trkpt lat="43.3620183" lon="11.4073117"><ele>314.0</ele><time>2026-04-18T11:58:28.043Z</time></trkpt><trkpt lat="43.3618833" lon="11.4073467"><ele>311.33333333333337</ele><time>2026-04-18T11:58:29.044Z</time></trkpt><trkpt lat="43.3617483" lon="11.4073867"><ele>308.6666666666667</ele><time>2026-04-18T11:58:30.043Z</time></trkpt><trkpt lat="43.361605" lon="11.4074283"><ele>306.0</ele><time>2026-04-18T11:58:31.044Z</time></trkpt><trkpt lat="43.3614417" lon="11.4074617"><ele>303.3333333333333</ele><time>2026-04-18T11:58:32.043Z</time></trkpt><trkpt lat="43.3612733" lon="11.4074983"><ele>300.66666666666663</ele><time>2026-04-18T11:58:33.043Z</time></trkpt><trkpt lat="43.3611033" lon="11.4075233"><ele>298.0</ele><time>2026-04-18T11:58:34.043Z</time></trkpt><trkpt lat="43.3609267" lon="11.4075367"><ele>298.0</ele><time>2026-04-18T11:58:35.044Z</time></trkpt><trkpt lat="43.36075" lon="11.40754"><ele>298.0</ele><time>2026-04-18T11:58:36.043Z</time></trkpt><trkpt lat="43.36059" lon="11.4075233"><ele>298.0</ele><time>2026-04-18T11:58:37.044Z</time></trkpt><trkpt lat="43.3604317" lon="11.4074933"><ele>297.25</ele><time>2026-04-18T11:58:38.044Z</time></trkpt><trkpt lat="43.36028" lon="11.4074683"><ele>296.5</ele><time>2026-04-18T11:58:39.043Z</time></trkpt><trkpt lat="43.3601483" lon="11.4074383"><ele>295.75</ele><time>2026-04-18T11:58:40.044Z</time></trkpt><trkpt lat="43.360025" lon="11.407415"><ele>295.0</ele><time>2026-04-18T11:58:41.044Z</time></trkpt><trkpt lat="43.3599117" lon="11.4074017"><ele>295.0</ele><time>2026-04-18T11:58:42.043Z</time></trkpt><trkpt lat="43.359805" lon="11.4074067"><ele>295.0</ele><time>2026-04-18T11:58:43.043Z</time></trkpt><trkpt lat="43.3597067" lon="11.4074517"><ele>295.0</ele><time>2026-04-18T11:58:44.043Z</time></trkpt><trkpt lat="43.359615" lon="11.4075383"><ele>295.0</ele><time>2026-04-18T11:58:45.044Z</time></trkpt><trkpt lat="43.3595467" lon="11.40765"><ele>295.0</ele><time>2026-04-18T11:58:46.043Z</time></trkpt><trkpt lat="43.3595033" lon="11.4077717"><ele>295.2</ele><time>2026-04-18T11:58:47.043Z</time></trkpt><trkpt lat="43.3594783" lon="11.4079083"><ele>295.4</ele><time>2026-04-18T11:58:48.043Z</time></trkpt><trkpt lat="43.35949" lon="11.4080433"><ele>295.6</ele><time>2026-04-18T11:58:49.044Z</time></trkpt><trkpt lat="43.3595233" lon="11.4081767"><ele>295.8</ele><time>2026-04-18T11:58:50.044Z</time></trkpt><trkpt lat="43.359585" lon="11.4082833"><ele>296.0</ele><time>2026-04-18T11:58:51.044Z</time></trkpt><trkpt lat="43.3596683" lon="11.4083733"><ele>294.25</ele><time>2026-04-18T11:58:52.044Z</time></trkpt><trkpt lat="43.3597783" lon="11.4084583"><ele>292.5</ele><time>2026-04-18T11:58:53.043Z</time></trkpt><trkpt lat="43.3599133" lon="11.4085533"><ele>290.75</ele><time>2026-04-18T11:58:54.043Z</time></trkpt><trkpt lat="43.360045" lon="11.40866"><ele>289.0</ele><time>2026-04-18T11:58:55.043Z</time></trkpt><trkpt lat="43.360165" lon="11.40876"><ele>288.5</ele><time>2026-04-18T11:58:56.043Z</time></trkpt><trkpt lat="43.360275" lon="11.4088717"><ele>288.0</ele><time>2026-04-18T11:58:57.044Z</time></trkpt><trkpt lat="43.3603833" lon="11.4090033"><ele>287.5</ele><time>2026-04-18T11:58:58.044Z</time></trkpt><trkpt lat="43.3604767" lon="11.40917"><ele>287.0</ele><time>2026-04-18T11:58:59.043Z</time></trkpt><trkpt lat="43.3605617" lon="11.4093433"><ele>287.0</ele><time>2026-04-18T11:59:00.043Z</time></trkpt><trkpt lat="43.3606417" lon="11.4095167"><ele>287.0</ele><time>2026-04-18T11:59:01.043Z</time></trkpt><trkpt lat="43.3607067" lon="11.4096667"><ele>287.0</ele><time>2026-04-18T11:59:02.044Z</time></trkpt><trkpt lat="43.3607683" lon="11.409815"><ele>287.0</ele><time>2026-04-18T11:59:03.043Z</time></trkpt><trkpt lat="43.36082" lon="11.40995"><ele>285.8</ele><time>2026-04-18T11:59:04.043Z</time></trkpt><trkpt lat="43.3608567" lon="11.4100867"><ele>284.6</ele><time>2026-04-18T11:59:05.043Z</time></trkpt><trkpt lat="43.3608717" lon="11.4102383"><ele>283.40000000000003</ele><time>2026-04-18T11:59:06.043Z</time></trkpt><trkpt lat="43.36087" lon="11.4103917"><ele>282.2</ele><time>2026-04-18T11:59:07.044Z</time></trkpt><trkpt lat="43.3608367" lon="11.4105367"><ele>281.0</ele><time>2026-04-18T11:59:08.044Z</time></trkpt><trkpt lat="43.3607717" lon="11.41066"><ele>280.25</ele><time>2026-04-18T11:59:09.043Z</time></trkpt><trkpt lat="43.36068" lon="11.41075"><ele>279.5</ele><time>2026-04-18T11:59:10.044Z</time></trkpt><trkpt lat="43.360555" lon="11.41082"><ele>278.75</ele><time>2026-04-18T11:59:11.043Z</time></trkpt><trkpt lat="43.3604217" lon="11.4108817"><ele>278.0</ele><time>2026-04-18T11:59:12.043Z</time></trkpt><trkpt lat="43.3603" lon="11.410935"><ele>276.4</ele><time>2026-04-18T11:59:13.043Z</time></trkpt><trkpt lat="43.36019" lon="11.410985"><ele>274.8</ele><time>2026-04-18T11:59:14.044Z</time></trkpt><trkpt lat="43.3600917" lon="11.4110533"><ele>273.2</ele><time>2026-04-18T11:59:15.044Z</time></trkpt><trkpt lat="43.3600183" lon="11.41114"><ele>271.6</ele><time>2026-04-18T11:59:16.044Z</time></trkpt><trkpt lat="43.3599617" lon="11.4112417"><ele>270.0</ele><time>2026-04-18T11:59:17.044Z</time></trkpt><trkpt lat="43.3599267" lon="11.4113517"><ele>270.0</ele><time>2026-04-18T11:59:18.043Z</time></trkpt><trkpt lat="43.3599133" lon="11.411465"><ele>270.0</ele><time>2026-04-18T11:59:19.043Z</time></trkpt><trkpt lat="43.3599217" lon="11.41159"><ele>270.0</ele><time>2026-04-18T11:59:20.044Z</time></trkpt><trkpt lat="43.3599333" lon="11.4116983"><ele>270.0</ele><time>2026-04-18T11:59:21.043Z</time></trkpt><trkpt lat="43.3599483" lon="11.4118033"><ele>270.0</ele><time>2026-04-18T11:59:22.044Z</time></trkpt><trkpt lat="43.3599533" lon="11.4119533"><ele>270.0</ele><time>2026-04-18T11:59:24.044Z</time></trkpt><trkpt lat="43.3598833" lon="11.4120333"><ele>270.0</ele><time>2026-04-18T11:59:26.043Z</time></trkpt><trkpt lat="43.359765" lon="11.41197"><ele>270.0</ele><time>2026-04-18T11:59:28.044Z</time></trkpt><trkpt lat="43.3597067" lon="11.41187"><ele>270.0</ele><time>2026-04-18T11:59:29.043Z</time></trkpt><trkpt lat="43.3596683" lon="11.4117333"><ele>270.0</ele><time>2026-04-18T11:59:30.044Z</time></trkpt><trkpt lat="43.35963" lon="11.4115683"><ele>268.8</ele><time>2026-04-18T11:59:31.043Z</time></trkpt><trkpt lat="43.359605" lon="11.4114217"><ele>267.6</ele><time>2026-04-18T11:59:32.044Z</time></trkpt><trkpt lat="43.35958" lon="11.4112917"><ele>266.4</ele><time>2026-04-18T11:59:33.043Z</time></trkpt><trkpt lat="43.359545" lon="11.4111767"><ele>265.2</ele><time>2026-04-18T11:59:34.043Z</time></trkpt><trkpt lat="43.359505" lon="11.4110767"><ele>264.0</ele><time>2026-04-18T11:59:35.043Z</time></trkpt><trkpt lat="43.359455" lon="11.4109983"><ele>264.0</ele><time>2026-04-18T11:59:36.043Z</time></trkpt><trkpt lat="43.3593867" lon="11.4109383"><ele>264.0</ele><time>2026-04-18T11:59:37.043Z</time></trkpt><trkpt lat="43.3593167" lon="11.4109083"><ele>264.0</ele><time>2026-04-18T11:59:38.043Z</time></trkpt><trkpt lat="43.3592433" lon="11.4109083"><ele>264.0</ele><time>2026-04-18T11:59:39.044Z</time></trkpt><trkpt lat="43.359165" lon="11.41094"><ele>264.0</ele><time>2026-04-18T11:59:40.043Z</time></trkpt><trkpt lat="43.359095" lon="11.4110083"><ele>264.0</ele><time>2026-04-18T11:59:41.044Z</time></trkpt><trkpt lat="43.35904" lon="11.411105"><ele>264.0</ele><time>2026-04-18T11:59:42.044Z</time></trkpt><trkpt lat="43.3590083" lon="11.4112217"><ele>264.0</ele><time>2026-04-18T11:59:43.043Z</time></trkpt><trkpt lat="43.3589833" lon="11.4113467"><ele>264.0</ele><time>2026-04-18T11:59:44.043Z</time></trkpt><trkpt lat="43.3589667" lon="11.4114933"><ele>264.0</ele><time>2026-04-18T11:59:45.043Z</time></trkpt><trkpt lat="43.358965" lon="11.4116517"><ele>264.0</ele><time>2026-04-18T11:59:46.043Z</time></trkpt><trkpt lat="43.3589617" lon="11.4118117"><ele>262.8</ele><time>2026-04-18T11:59:47.044Z</time></trkpt><trkpt lat="43.3589617" lon="11.4119483"><ele>261.59999999999997</ele><time>2026-04-18T11:59:48.043Z</time></trkpt><trkpt lat="43.3589617" lon="11.4120667"><ele>260.4</ele><time>2026-04-18T11:59:49.043Z</time></trkpt><trkpt lat="43.35894" lon="11.4121783"><ele>259.2</ele><time>2026-04-18T11:59:50.044Z</time></trkpt><trkpt lat="43.3588833" lon="11.4122683"><ele>258.0</ele><time>2026-04-18T11:59:51.044Z</time></trkpt><trkpt lat="43.3587983" lon="11.4123367"><ele>255.25</ele><time>2026-04-18T11:59:52.043Z</time></trkpt><trkpt lat="43.3586833" lon="11.4123883"><ele>252.5</ele><time>2026-04-18T11:59:53.044Z</time></trkpt><trkpt lat="43.358525" lon="11.4124083"><ele>249.75</ele><time>2026-04-18T11:59:54.043Z</time></trkpt><trkpt lat="43.3583633" lon="11.41241"><ele>247.0</ele><time>2026-04-18T11:59:55.043Z</time></trkpt><trkpt lat="43.3582233" lon="11.4124083"><ele>247.0</ele><time>2026-04-18T11:59:56.044Z</time></trkpt><trkpt lat="43.35809" lon="11.4123883"><ele>247.0</ele><time>2026-04-18T11:59:57.044Z</time></trkpt><trkpt lat="43.3579717" lon="11.4123583"><ele>247.0</ele><time>2026-04-18T11:59:58.043Z</time></trkpt><trkpt lat="43.3578567" lon="11.412315"><ele>247.0</ele><time>2026-04-18T11:59:59.043Z</time></trkpt><trkpt lat="43.3577383" lon="11.4122833"><ele>246.0</ele><time>2026-04-18T12:00:00.044Z</time></trkpt><trkpt lat="43.3576317" lon="11.41226"><ele>245.0</ele><time>2026-04-18T12:00:01.044Z</time></trkpt><trkpt lat="43.3575217" lon="11.4122717"><ele>244.0</ele><time>2026-04-18T12:00:02.043Z</time></trkpt><trkpt lat="43.35741" lon="11.412315"><ele>243.0</ele><time>2026-04-18T12:00:03.044Z</time></trkpt><trkpt lat="43.3573117" lon="11.4123867"><ele>242.0</ele><time>2026-04-18T12:00:04.043Z</time></trkpt><trkpt lat="43.3572183" lon="11.41249"><ele>240.75</ele><time>2026-04-18T12:00:05.044Z</time></trkpt><trkpt lat="43.3571333" lon="11.412615"><ele>239.5</ele><time>2026-04-18T12:00:06.043Z</time></trkpt><trkpt lat="43.3570567" lon="11.41277"><ele>238.25</ele><time>2026-04-18T12:00:07.043Z</time></trkpt><trkpt lat="43.3569917" lon="11.4129433"><ele>237.0</ele><time>2026-04-18T12:00:08.043Z</time></trkpt><trkpt lat="43.35693" lon="11.4131267"><ele>236.25</ele><time>2026-04-18T12:00:09.043Z</time></trkpt><trkpt lat="43.3568683" lon="11.4133167"><ele>235.5</ele><time>2026-04-18T12:00:10.044Z</time></trkpt><trkpt lat="43.3568167" lon="11.4134933"><ele>234.75</ele><time>2026-04-18T12:00:11.043Z</time></trkpt><trkpt lat="43.3567683" lon="11.4136733"><ele>234.0</ele><time>2026-04-18T12:00:12.044Z</time></trkpt><trkpt lat="43.3567183" lon="11.4138533"><ele>233.25</ele><time>2026-04-18T12:00:13.043Z</time></trkpt><trkpt lat="43.3566767" lon="11.4140233"><ele>232.5</ele><time>2026-04-18T12:00:14.044Z</time></trkpt><trkpt lat="43.3566383" lon="11.4141917"><ele>231.75</ele><time>2026-04-18T12:00:15.044Z</time></trkpt><trkpt lat="43.3565983" lon="11.4143567"><ele>231.0</ele><time>2026-04-18T12:00:16.043Z</time></trkpt><trkpt lat="43.3565683" lon="11.4145067"><ele>231.0</ele><time>2026-04-18T12:00:17.044Z</time></trkpt><trkpt lat="43.3565367" lon="11.4146467"><ele>231.00000000000003</ele><time>2026-04-18T12:00:18.044Z</time></trkpt><trkpt lat="43.3565033" lon="11.41478"><ele>231.00000000000003</ele><time>2026-04-18T12:00:19.043Z</time></trkpt><trkpt lat="43.3564733" lon="11.4149183"><ele>231.0</ele><time>2026-04-18T12:00:20.044Z</time></trkpt><trkpt lat="43.3564417" lon="11.4150517"><ele>231.0</ele><time>2026-04-18T12:00:21.043Z</time></trkpt><trkpt lat="43.3564133" lon="11.4151783"><ele>230.66666666666666</ele><time>2026-04-18T12:00:22.044Z</time></trkpt><trkpt lat="43.3563883" lon="11.4153"><ele>230.33333333333331</ele><time>2026-04-18T12:00:23.043Z</time></trkpt><trkpt lat="43.356365" lon="11.4154167"><ele>230.0</ele><time>2026-04-18T12:00:24.044Z</time></trkpt><trkpt lat="43.3563433" lon="11.4155183"><ele>229.66666666666666</ele><time>2026-04-18T12:00:25.044Z</time></trkpt><trkpt lat="43.35633" lon="11.4156117"><ele>229.33333333333331</ele><time>2026-04-18T12:00:26.043Z</time></trkpt><trkpt lat="43.3562967" lon="11.41572"><ele>229.0</ele><time>2026-04-18T12:00:28.044Z</time></trkpt><trkpt lat="43.3562033" lon="11.4157817"><ele>227.6</ele><time>2026-04-18T12:00:40.043Z</time></trkpt><trkpt lat="43.356135" lon="11.4158133"><ele>226.2</ele><time>2026-04-18T12:00:41.043Z</time></trkpt><trkpt lat="43.356045" lon="11.41585"><ele>224.79999999999998</ele><time>2026-04-18T12:00:42.044Z</time></trkpt><trkpt lat="43.3559433" lon="11.4159083"><ele>223.39999999999998</ele><time>2026-04-18T12:00:43.043Z</time></trkpt><trkpt lat="43.355835" lon="11.4159817"><ele>222.0</ele><time>2026-04-18T12:00:44.043Z</time></trkpt><trkpt lat="43.3557267" lon="11.4160633"><ele>222.0</ele><time>2026-04-18T12:00:45.043Z</time></trkpt><trkpt lat="43.3556217" lon="11.4161367"><ele>222.0</ele><time>2026-04-18T12:00:46.044Z</time></trkpt><trkpt lat="43.3555083" lon="11.4161933"><ele>222.0</ele><time>2026-04-18T12:00:47.044Z</time></trkpt><trkpt lat="43.355395" lon="11.4162233"><ele>222.0</ele><time>2026-04-18T12:00:48.043Z</time></trkpt><trkpt lat="43.35528" lon="11.4162267"><ele>223.25</ele><time>2026-04-18T12:00:49.043Z</time></trkpt><trkpt lat="43.3551433" lon="11.41621"><ele>224.5</ele><time>2026-04-18T12:00:50.044Z</time></trkpt><trkpt lat="43.3550233" lon="11.416205"><ele>225.75</ele><time>2026-04-18T12:00:51.043Z</time></trkpt><trkpt lat="43.354895" lon="11.4161967"><ele>227.0</ele><time>2026-04-18T12:00:52.044Z</time></trkpt><trkpt lat="43.35477" lon="11.4161767"><ele>226.5</ele><time>2026-04-18T12:00:53.043Z</time></trkpt><trkpt lat="43.354635" lon="11.416155"><ele>226.0</ele><time>2026-04-18T12:00:54.044Z</time></trkpt><trkpt lat="43.3544967" lon="11.4161367"><ele>225.5</ele><time>2026-04-18T12:00:55.043Z</time></trkpt><trkpt lat="43.354365" lon="11.4161233"><ele>225.0</ele><time>2026-04-18T12:00:56.044Z</time></trkpt><trkpt lat="43.35423" lon="11.416105"><ele>225.0</ele><time>2026-04-18T12:00:57.043Z</time></trkpt><trkpt lat="43.35409" lon="11.4160917"><ele>225.0</ele><time>2026-04-18T12:00:58.043Z</time></trkpt><trkpt lat="43.353955" lon="11.41607"><ele>225.0</ele><time>2026-04-18T12:00:59.043Z</time></trkpt><trkpt lat="43.353815" lon="11.41605"><ele>225.0</ele><time>2026-04-18T12:01:00.044Z</time></trkpt><trkpt lat="43.35368" lon="11.41602"><ele>224.5</ele><time>2026-04-18T12:01:01.044Z</time></trkpt><trkpt lat="43.3535483" lon="11.4159867"><ele>224.0</ele><time>2026-04-18T12:01:02.043Z</time></trkpt><trkpt lat="43.3534183" lon="11.4159467"><ele>223.5</ele><time>2026-04-18T12:01:03.043Z</time></trkpt><trkpt lat="43.3532917" lon="11.4159117"><ele>223.0</ele><time>2026-04-18T12:01:04.044Z</time></trkpt><trkpt lat="43.3531667" lon="11.41588"><ele>223.0</ele><time>2026-04-18T12:01:05.043Z</time></trkpt><trkpt lat="43.353045" lon="11.4158467"><ele>223.0</ele><time>2026-04-18T12:01:06.043Z</time></trkpt><trkpt lat="43.3529283" lon="11.41581"><ele>223.0</ele><time>2026-04-18T12:01:07.044Z</time></trkpt><trkpt lat="43.3528067" lon="11.4157733"><ele>223.0</ele><time>2026-04-18T12:01:08.043Z</time></trkpt><trkpt lat="43.3526817" lon="11.4157333"><ele>223.0</ele><time>2026-04-18T12:01:09.043Z</time></trkpt><trkpt lat="43.3525617" lon="11.4157"><ele>223.0</ele><time>2026-04-18T12:01:10.043Z</time></trkpt><trkpt lat="43.3524417" lon="11.415665"><ele>223.0</ele><time>2026-04-18T12:01:11.043Z</time></trkpt><trkpt lat="43.3523267" lon="11.41564"><ele>223.0</ele><time>2026-04-18T12:01:12.044Z</time></trkpt><trkpt lat="43.3522133" lon="11.4156117"><ele>222.60000000000002</ele><time>2026-04-18T12:01:13.043Z</time></trkpt><trkpt lat="43.3521133" lon="11.4155817"><ele>222.20000000000002</ele><time>2026-04-18T12:01:14.044Z</time></trkpt><trkpt lat="43.3520133" lon="11.4155533"><ele>221.8</ele><time>2026-04-18T12:01:15.043Z</time></trkpt><trkpt lat="43.3519117" lon="11.41552"><ele>221.4</ele><time>2026-04-18T12:01:16.043Z</time></trkpt><trkpt lat="43.35181" lon="11.4154917"><ele>221.0</ele><time>2026-04-18T12:01:17.044Z</time></trkpt><trkpt lat="43.3517017" lon="11.415455"><ele>221.0</ele><time>2026-04-18T12:01:18.043Z</time></trkpt><trkpt lat="43.3515917" lon="11.4154233"><ele>221.0</ele><time>2026-04-18T12:01:19.043Z</time></trkpt><trkpt lat="43.3514767" lon="11.4153967"><ele>221.0</ele><time>2026-04-18T12:01:20.043Z</time></trkpt><trkpt lat="43.3513583" lon="11.415365"><ele>221.0</ele><time>2026-04-18T12:01:21.043Z</time></trkpt><trkpt lat="43.35124" lon="11.4153333"><ele>220.75</ele><time>2026-04-18T12:01:22.043Z</time></trkpt><trkpt lat="43.3511217" lon="11.4152967"><ele>220.5</ele><time>2026-04-18T12:01:23.044Z</time></trkpt><trkpt lat="43.3510017" lon="11.4152567"><ele>220.25</ele><time>2026-04-18T12:01:24.043Z</time></trkpt><trkpt lat="43.3508767" lon="11.4152183"><ele>220.0</ele><time>2026-04-18T12:01:25.044Z</time></trkpt><trkpt lat="43.3507467" lon="11.4151817"><ele>220.0</ele><time>2026-04-18T12:01:26.043Z</time></trkpt><trkpt lat="43.3506217" lon="11.4151417"><ele>220.0</ele><time>2026-04-18T12:01:27.043Z</time></trkpt><trkpt lat="43.3504983" lon="11.4150983"><ele>220.0</ele><time>2026-04-18T12:01:28.043Z</time></trkpt><trkpt lat="43.3503683" lon="11.4150633"><ele>220.0</ele><time>2026-04-18T12:01:29.043Z</time></trkpt><trkpt lat="43.3502467" lon="11.4150117"><ele>220.5</ele><time>2026-04-18T12:01:30.043Z</time></trkpt><trkpt lat="43.35014" lon="11.4149233"><ele>221.0</ele><time>2026-04-18T12:01:31.043Z</time></trkpt><trkpt lat="43.350045" lon="11.4148133"><ele>221.5</ele><time>2026-04-18T12:01:32.043Z</time></trkpt><trkpt lat="43.349955" lon="11.4146733"><ele>222.0</ele><time>2026-04-18T12:01:33.044Z</time></trkpt><trkpt lat="43.3498667" lon="11.414525"><ele>222.0</ele><time>2026-04-18T12:01:34.044Z</time></trkpt><trkpt lat="43.349785" lon="11.4143717"><ele>222.0</ele><time>2026-04-18T12:01:35.044Z</time></trkpt><trkpt lat="43.3497" lon="11.4142017"><ele>222.0</ele><time>2026-04-18T12:01:36.043Z</time></trkpt><trkpt lat="43.3496133" lon="11.4140283"><ele>222.0</ele><time>2026-04-18T12:01:37.043Z</time></trkpt><trkpt lat="43.3495333" lon="11.41385"><ele>223.25</ele><time>2026-04-18T12:01:38.044Z</time></trkpt><trkpt lat="43.349465" lon="11.413665"><ele>224.5</ele><time>2026-04-18T12:01:39.043Z</time></trkpt><trkpt lat="43.3493983" lon="11.4134833"><ele>225.75</ele><time>2026-04-18T12:01:40.043Z</time></trkpt><trkpt lat="43.3493267" lon="11.41331"><ele>227.0</ele><time>2026-04-18T12:01:41.043Z</time></trkpt><trkpt lat="43.3492383" lon="11.4131433"><ele>227.0</ele><time>2026-04-18T12:01:42.043Z</time></trkpt><trkpt lat="43.3491367" lon="11.4129967"><ele>227.0</ele><time>2026-04-18T12:01:43.044Z</time></trkpt><trkpt lat="43.3490283" lon="11.4128483"><ele>227.0</ele><time>2026-04-18T12:01:44.043Z</time></trkpt><trkpt lat="43.3489267" lon="11.412695"><ele>228.66666666666669</ele><time>2026-04-18T12:01:45.043Z</time></trkpt><trkpt lat="43.3488417" lon="11.412535"><ele>230.33333333333331</ele><time>2026-04-18T12:01:46.044Z</time></trkpt><trkpt lat="43.348755" lon="11.4123583"><ele>232.0</ele><time>2026-04-18T12:01:47.044Z</time></trkpt><trkpt lat="43.348685" lon="11.41217"><ele>232.0</ele><time>2026-04-18T12:01:48.043Z</time></trkpt><trkpt lat="43.3486333" lon="11.4119767"><ele>232.0</ele><time>2026-04-18T12:01:49.044Z</time></trkpt><trkpt lat="43.348595" lon="11.411775"><ele>232.0</ele><time>2026-04-18T12:01:50.043Z</time></trkpt><trkpt lat="43.348565" lon="11.4115633"><ele>232.0</ele><time>2026-04-18T12:01:51.044Z</time></trkpt><trkpt lat="43.3485467" lon="11.41135"><ele>232.0</ele><time>2026-04-18T12:01:52.044Z</time></trkpt><trkpt lat="43.3485317" lon="11.4111417"><ele>232.0</ele><time>2026-04-18T12:01:53.044Z</time></trkpt><trkpt lat="43.3485067" lon="11.41093"><ele>234.0</ele><time>2026-04-18T12:01:54.043Z</time></trkpt><trkpt lat="43.3484717" lon="11.4107167"><ele>236.0</ele><time>2026-04-18T12:01:55.044Z</time></trkpt><trkpt lat="43.3484267" lon="11.4105017"><ele>238.0</ele><time>2026-04-18T12:01:56.043Z</time></trkpt><trkpt lat="43.34838" lon="11.4102883"><ele>238.66666666666666</ele><time>2026-04-18T12:01:57.043Z</time></trkpt><trkpt lat="43.348325" lon="11.4100767"><ele>239.33333333333331</ele><time>2026-04-18T12:01:58.044Z</time></trkpt><trkpt lat="43.34827" lon="11.4098683"><ele>240.0</ele><time>2026-04-18T12:01:59.043Z</time></trkpt><trkpt lat="43.34822" lon="11.40966"><ele>240.0</ele><time>2026-04-18T12:02:00.043Z</time></trkpt><trkpt lat="43.348165" lon="11.409455"><ele>240.0</ele><time>2026-04-18T12:02:01.042Z</time></trkpt><trkpt lat="43.3481183" lon="11.4092417"><ele>240.0</ele><time>2026-04-18T12:02:02.042Z</time></trkpt><trkpt lat="43.3480783" lon="11.40903"><ele>241.0</ele><time>2026-04-18T12:02:03.042Z</time></trkpt><trkpt lat="43.3480533" lon="11.40881"><ele>242.0</ele><time>2026-04-18T12:02:04.043Z</time></trkpt><trkpt lat="43.3480367" lon="11.4085983"><ele>243.0</ele><time>2026-04-18T12:02:05.043Z</time></trkpt><trkpt lat="43.3480267" lon="11.40838"><ele>250.0</ele><time>2026-04-18T12:02:06.042Z</time></trkpt><trkpt lat="43.3480267" lon="11.40815"><ele>257.0</ele><time>2026-04-18T12:02:07.043Z</time></trkpt><trkpt lat="43.3480283" lon="11.4079217"><ele>264.0</ele><time>2026-04-18T12:02:08.042Z</time></trkpt><trkpt lat="43.3480383" lon="11.4076933"><ele>259.0</ele><time>2026-04-18T12:02:09.043Z</time></trkpt><trkpt lat="43.34805" lon="11.4074633"><ele>254.0</ele><time>2026-04-18T12:02:10.042Z</time></trkpt><trkpt lat="43.348055" lon="11.4072383"><ele>249.0</ele><time>2026-04-18T12:02:11.042Z</time></trkpt><trkpt lat="43.3480667" lon="11.40701"><ele>249.0</ele><time>2026-04-18T12:02:12.042Z</time></trkpt><trkpt lat="43.34808" lon="11.4067883"><ele>249.0</ele><time>2026-04-18T12:02:13.042Z</time></trkpt><trkpt lat="43.348105" lon="11.406575"><ele>249.0</ele><time>2026-04-18T12:02:14.042Z</time></trkpt><trkpt lat="43.3481433" lon="11.4063567"><ele>251.33333333333331</ele><time>2026-04-18T12:02:15.042Z</time></trkpt><trkpt lat="43.3481967" lon="11.4061467"><ele>253.66666666666666</ele><time>2026-04-18T12:02:16.043Z</time></trkpt><trkpt lat="43.3482533" lon="11.4059383"><ele>256.0</ele><time>2026-04-18T12:02:17.043Z</time></trkpt><trkpt lat="43.3483133" lon="11.4057417"><ele>256.0</ele><time>2026-04-18T12:02:18.043Z</time></trkpt><trkpt lat="43.34838" lon="11.4055417"><ele>256.0</ele><time>2026-04-18T12:02:19.042Z</time></trkpt><trkpt lat="43.34842" lon="11.4053283"><ele>256.0</ele><time>2026-04-18T12:02:20.042Z</time></trkpt><trkpt lat="43.3484517" lon="11.4051067"><ele>259.66666666666663</ele><time>2026-04-18T12:02:21.042Z</time></trkpt><trkpt lat="43.3484683" lon="11.4048917"><ele>263.3333333333333</ele><time>2026-04-18T12:02:22.042Z</time></trkpt><trkpt lat="43.3484983" lon="11.4046833"><ele>267.0</ele><time>2026-04-18T12:02:23.043Z</time></trkpt><trkpt lat="43.34855" lon="11.4044833"><ele>267.6666666666667</ele><time>2026-04-18T12:02:24.043Z</time></trkpt><trkpt lat="43.3486183" lon="11.4043"><ele>268.33333333333337</ele><time>2026-04-18T12:02:25.043Z</time></trkpt><trkpt lat="43.3487117" lon="11.4041333"><ele>269.0</ele><time>2026-04-18T12:02:26.043Z</time></trkpt><trkpt lat="43.3488117" lon="11.4039717"><ele>269.75</ele><time>2026-04-18T12:02:27.043Z</time></trkpt><trkpt lat="43.34891" lon="11.4038167"><ele>270.5</ele><time>2026-04-18T12:02:28.042Z</time></trkpt><trkpt lat="43.3490083" lon="11.4036533"><ele>271.25</ele><time>2026-04-18T12:02:29.043Z</time></trkpt><trkpt lat="43.349085" lon="11.4034833"><ele>272.0</ele><time>2026-04-18T12:02:30.043Z</time></trkpt><trkpt lat="43.3491367" lon="11.4032917"><ele>272.0</ele><time>2026-04-18T12:02:31.043Z</time></trkpt><trkpt lat="43.3491583" lon="11.40309"><ele>272.0</ele><time>2026-04-18T12:02:32.042Z</time></trkpt><trkpt lat="43.34917" lon="11.4028817"><ele>272.0</ele><time>2026-04-18T12:02:33.042Z</time></trkpt><trkpt lat="43.3491783" lon="11.402675"><ele>273.75</ele><time>2026-04-18T12:02:34.042Z</time></trkpt><trkpt lat="43.34918" lon="11.40248"><ele>275.5</ele><time>2026-04-18T12:02:35.042Z</time></trkpt><trkpt lat="43.34919" lon="11.4022883"><ele>277.25</ele><time>2026-04-18T12:02:36.043Z</time></trkpt><trkpt lat="43.3492083" lon="11.4021067"><ele>279.0</ele><time>2026-04-18T12:02:37.043Z</time></trkpt><trkpt lat="43.3492367" lon="11.40195"><ele>280.59999999999997</ele><time>2026-04-18T12:02:38.042Z</time></trkpt><trkpt lat="43.3492733" lon="11.4018033"><ele>282.2</ele><time>2026-04-18T12:02:39.042Z</time></trkpt><trkpt lat="43.3493333" lon="11.4016733"><ele>283.79999999999995</ele><time>2026-04-18T12:02:40.042Z</time></trkpt><trkpt lat="43.3494117" lon="11.401575"><ele>285.4</ele><time>2026-04-18T12:02:41.042Z</time></trkpt><trkpt lat="43.3495183" lon="11.4015167"><ele>287.0</ele><time>2026-04-18T12:02:42.042Z</time></trkpt><trkpt lat="43.3496333" lon="11.4015167"><ele>285.75</ele><time>2026-04-18T12:02:43.043Z</time></trkpt><trkpt lat="43.3497483" lon="11.40155"><ele>284.5</ele><time>2026-04-18T12:02:44.043Z</time></trkpt><trkpt lat="43.34986" lon="11.401605"><ele>283.25</ele><time>2026-04-18T12:02:45.042Z</time></trkpt><trkpt lat="43.3499683" lon="11.40165"><ele>282.0</ele><time>2026-04-18T12:02:46.043Z</time></trkpt><trkpt lat="43.350075" lon="11.40164"><ele>282.0</ele><time>2026-04-18T12:02:47.042Z</time></trkpt><trkpt lat="43.3501683" lon="11.4015817"><ele>282.0</ele><time>2026-04-18T12:02:48.042Z</time></trkpt><trkpt lat="43.35024" lon="11.4014783"><ele>282.0</ele><time>2026-04-18T12:02:49.042Z</time></trkpt><trkpt lat="43.350265" lon="11.4013467"><ele>282.0</ele><time>2026-04-18T12:02:50.042Z</time></trkpt><trkpt lat="43.3502517" lon="11.4012167"><ele>282.0</ele><time>2026-04-18T12:02:51.042Z</time></trkpt><trkpt lat="43.3501967" lon="11.4010833"><ele>285.3333333333333</ele><time>2026-04-18T12:02:52.043Z</time></trkpt><trkpt lat="43.3500933" lon="11.4009433"><ele>288.66666666666663</ele><time>2026-04-18T12:02:53.043Z</time></trkpt><trkpt lat="43.3499683" lon="11.4008017"><ele>292.0</ele><time>2026-04-18T12:02:54.042Z</time></trkpt><trkpt lat="43.3498433" lon="11.4007017"><ele>292.0</ele><time>2026-04-18T12:02:55.042Z</time></trkpt><trkpt lat="43.3497117" lon="11.4006383"><ele>292.0</ele><time>2026-04-18T12:02:56.043Z</time></trkpt><trkpt lat="43.34957" lon="11.4006233"><ele>292.0</ele><time>2026-04-18T12:02:57.042Z</time></trkpt><trkpt lat="43.3494217" lon="11.4006633"><ele>292.0</ele><time>2026-04-18T12:02:58.042Z</time></trkpt><trkpt lat="43.3492633" lon="11.40074"><ele>292.66666666666663</ele><time>2026-04-18T12:02:59.043Z</time></trkpt><trkpt lat="43.3491167" lon="11.4008283"><ele>293.3333333333333</ele><time>2026-04-18T12:03:00.042Z</time></trkpt><trkpt lat="43.3489783" lon="11.40092"><ele>294.0</ele><time>2026-04-18T12:03:01.042Z</time></trkpt><trkpt lat="43.3488533" lon="11.4009967"><ele>295.5</ele><time>2026-04-18T12:03:02.042Z</time></trkpt><trkpt lat="43.3487417" lon="11.4010367"><ele>297.0</ele><time>2026-04-18T12:03:03.042Z</time></trkpt><trkpt lat="43.3486367" lon="11.4010233"><ele>298.5</ele><time>2026-04-18T12:03:04.042Z</time></trkpt><trkpt lat="43.34853" lon="11.4009567"><ele>300.0</ele><time>2026-04-18T12:03:05.042Z</time></trkpt><trkpt lat="43.348425" lon="11.4008483"><ele>300.0</ele><time>2026-04-18T12:03:06.042Z</time></trkpt><trkpt lat="43.3483067" lon="11.4007"><ele>300.0</ele><time>2026-04-18T12:03:07.042Z</time></trkpt><trkpt lat="43.3481833" lon="11.400555"><ele>300.0</ele><time>2026-04-18T12:03:08.043Z</time></trkpt><trkpt lat="43.3480583" lon="11.400435"><ele>301.75</ele><time>2026-04-18T12:03:09.042Z</time></trkpt><trkpt lat="43.3479183" lon="11.4003433"><ele>303.5</ele><time>2026-04-18T12:03:10.042Z</time></trkpt><trkpt lat="43.3477883" lon="11.4002717"><ele>305.25</ele><time>2026-04-18T12:03:11.042Z</time></trkpt><trkpt lat="43.34768" lon="11.400195"><ele>307.0</ele><time>2026-04-18T12:03:12.042Z</time></trkpt><trkpt lat="43.3475867" lon="11.4001183"><ele>307.0</ele><time>2026-04-18T12:03:13.042Z</time></trkpt><trkpt lat="43.3475067" lon="11.40001"><ele>307.0</ele><time>2026-04-18T12:03:14.043Z</time></trkpt><trkpt lat="43.3474517" lon="11.3998817"><ele>307.0</ele><time>2026-04-18T12:03:15.043Z</time></trkpt><trkpt lat="43.347425" lon="11.3997467"><ele>307.0</ele><time>2026-04-18T12:03:16.042Z</time></trkpt><trkpt lat="43.3474367" lon="11.3996217"><ele>307.0</ele><time>2026-04-18T12:03:17.042Z</time></trkpt><trkpt lat="43.347485" lon="11.3995133"><ele>307.2</ele><time>2026-04-18T12:03:18.042Z</time></trkpt><trkpt lat="43.3475483" lon="11.3994167"><ele>307.4</ele><time>2026-04-18T12:03:19.042Z</time></trkpt><trkpt lat="43.3476283" lon="11.3993283"><ele>307.6</ele><time>2026-04-18T12:03:20.043Z</time></trkpt><trkpt lat="43.3477183" lon="11.399255"><ele>307.8</ele><time>2026-04-18T12:03:21.042Z</time></trkpt><trkpt lat="43.34781" lon="11.39919"><ele>308.0</ele><time>2026-04-18T12:03:22.043Z</time></trkpt><trkpt lat="43.3479083" lon="11.3991383"><ele>308.0</ele><time>2026-04-18T12:03:23.042Z</time></trkpt><trkpt lat="43.3480017" lon="11.3990933"><ele>308.0</ele><time>2026-04-18T12:03:24.043Z</time></trkpt><trkpt lat="43.3480983" lon="11.3990533"><ele>308.0</ele><time>2026-04-18T12:03:25.042Z</time></trkpt><trkpt lat="43.3481933" lon="11.3990267"><ele>308.0</ele><time>2026-04-18T12:03:26.042Z</time></trkpt><trkpt lat="43.3482833" lon="11.3990117"><ele>308.0</ele><time>2026-04-18T12:03:27.042Z</time></trkpt><trkpt lat="43.3483617" lon="11.399"><ele>308.33333333333337</ele><time>2026-04-18T12:03:28.043Z</time></trkpt><trkpt lat="43.3484483" lon="11.3989333"><ele>308.6666666666667</ele><time>2026-04-18T12:03:30.043Z</time></trkpt><trkpt lat="43.34842" lon="11.3988217"><ele>309.0</ele><time>2026-04-18T12:03:32.042Z</time></trkpt><trkpt lat="43.3483783" lon="11.3987367"><ele>309.3333333333333</ele><time>2026-04-18T12:03:33.042Z</time></trkpt><trkpt lat="43.3483267" lon="11.3986433"><ele>309.66666666666663</ele><time>2026-04-18T12:03:34.042Z</time></trkpt><trkpt lat="43.3482633" lon="11.398565"><ele>310.0</ele><time>2026-04-18T12:03:35.043Z</time></trkpt><trkpt lat="43.3482083" lon="11.3985033"><ele>309.16666666666663</ele><time>2026-04-18T12:03:36.042Z</time></trkpt><trkpt lat="43.34814" lon="11.3984767"><ele>308.3333333333333</ele><time>2026-04-18T12:03:37.043Z</time></trkpt><trkpt lat="43.3480667" lon="11.3984833"><ele>307.5</ele><time>2026-04-18T12:03:38.042Z</time></trkpt><trkpt lat="43.3479783" lon="11.398515"><ele>306.6666666666667</ele><time>2026-04-18T12:03:39.042Z</time></trkpt><trkpt lat="43.347885" lon="11.3985667"><ele>305.83333333333337</ele><time>2026-04-18T12:03:40.043Z</time></trkpt><trkpt lat="43.34778" lon="11.3986133"><ele>305.0</ele><time>2026-04-18T12:03:41.042Z</time></trkpt><trkpt lat="43.3476617" lon="11.3986483"><ele>303.5</ele><time>2026-04-18T12:03:42.042Z</time></trkpt><trkpt lat="43.3475383" lon="11.3986733"><ele>302.0</ele><time>2026-04-18T12:03:43.042Z</time></trkpt><trkpt lat="43.347405" lon="11.398695"><ele>300.5</ele><time>2026-04-18T12:03:44.042Z</time></trkpt><trkpt lat="43.3472767" lon="11.39872"><ele>299.0</ele><time>2026-04-18T12:03:45.042Z</time></trkpt><trkpt lat="43.3471567" lon="11.3987367"><ele>299.75</ele><time>2026-04-18T12:03:46.042Z</time></trkpt><trkpt lat="43.3470483" lon="11.398765"><ele>300.5</ele><time>2026-04-18T12:03:47.042Z</time></trkpt><trkpt lat="43.34694" lon="11.3988133"><ele>301.25</ele><time>2026-04-18T12:03:48.043Z</time></trkpt><trkpt lat="43.34684" lon="11.3988767"><ele>302.0</ele><time>2026-04-18T12:03:49.043Z</time></trkpt><trkpt lat="43.3467433" lon="11.3989717"><ele>302.0</ele><time>2026-04-18T12:03:50.042Z</time></trkpt><trkpt lat="43.3466567" lon="11.399085"><ele>302.0</ele><time>2026-04-18T12:03:51.043Z</time></trkpt><trkpt lat="43.3465717" lon="11.39921"><ele>302.0</ele><time>2026-04-18T12:03:52.043Z</time></trkpt><trkpt lat="43.3464883" lon="11.399345"><ele>302.0</ele><time>2026-04-18T12:03:53.043Z</time></trkpt><trkpt lat="43.3463983" lon="11.3994783"><ele>301.25</ele><time>2026-04-18T12:03:54.042Z</time></trkpt><trkpt lat="43.3463183" lon="11.3996167"><ele>300.5</ele><time>2026-04-18T12:03:55.043Z</time></trkpt><trkpt lat="43.3462283" lon="11.3997683"><ele>299.75</ele><time>2026-04-18T12:03:56.042Z</time></trkpt><trkpt lat="43.3461383" lon="11.3999117"><ele>299.0</ele><time>2026-04-18T12:03:57.043Z</time></trkpt><trkpt lat="43.3460433" lon="11.4000583"><ele>299.0</ele><time>2026-04-18T12:03:58.042Z</time></trkpt><trkpt lat="43.3459467" lon="11.4002033"><ele>299.0</ele><time>2026-04-18T12:03:59.042Z</time></trkpt><trkpt lat="43.3458533" lon="11.4003467"><ele>299.0</ele><time>2026-04-18T12:04:00.042Z</time></trkpt><trkpt lat="43.3457583" lon="11.4004967"><ele>299.0</ele><time>2026-04-18T12:04:01.042Z</time></trkpt><trkpt lat="43.345675" lon="11.4006283"><ele>299.0</ele><time>2026-04-18T12:04:02.042Z</time></trkpt><trkpt lat="43.3455967" lon="11.40075"><ele>299.0</ele><time>2026-04-18T12:04:03.043Z</time></trkpt><trkpt lat="43.3455233" lon="11.4008733"><ele>299.0</ele><time>2026-04-18T12:04:04.043Z</time></trkpt><trkpt lat="43.345445" lon="11.4009733"><ele>299.0</ele><time>2026-04-18T12:04:05.042Z</time></trkpt><trkpt lat="43.345355" lon="11.4010583"><ele>299.0</ele><time>2026-04-18T12:04:06.043Z</time></trkpt><trkpt lat="43.3452533" lon="11.401125"><ele>299.0</ele><time>2026-04-18T12:04:07.043Z</time></trkpt><trkpt lat="43.345135" lon="11.4011833"><ele>299.0</ele><time>2026-04-18T12:04:08.042Z</time></trkpt><trkpt lat="43.345005" lon="11.4012333"><ele>299.0</ele><time>2026-04-18T12:04:09.042Z</time></trkpt><trkpt lat="43.3448767" lon="11.4012783"><ele>299.0</ele><time>2026-04-18T12:04:10.043Z</time></trkpt><trkpt lat="43.34475" lon="11.4013067"><ele>299.0</ele><time>2026-04-18T12:04:11.042Z</time></trkpt><trkpt lat="43.3446133" lon="11.4013233"><ele>299.0</ele><time>2026-04-18T12:04:12.042Z</time></trkpt><trkpt lat="43.3444867" lon="11.4013317"><ele>299.0</ele><time>2026-04-18T12:04:13.042Z</time></trkpt><trkpt lat="43.3443567" lon="11.401325"><ele>297.5</ele><time>2026-04-18T12:04:14.042Z</time></trkpt><trkpt lat="43.3442233" lon="11.401345"><ele>296.0</ele><time>2026-04-18T12:04:15.042Z</time></trkpt><trkpt lat="43.34408" lon="11.4013883"><ele>294.5</ele><time>2026-04-18T12:04:16.043Z</time></trkpt><trkpt lat="43.3439433" lon="11.40144"><ele>293.0</ele><time>2026-04-18T12:04:17.042Z</time></trkpt><trkpt lat="43.3438117" lon="11.4015133"><ele>292.75</ele><time>2026-04-18T12:04:18.042Z</time></trkpt><trkpt lat="43.34369" lon="11.40158"><ele>292.5</ele><time>2026-04-18T12:04:19.043Z</time></trkpt><trkpt lat="43.3435717" lon="11.40165"><ele>292.25</ele><time>2026-04-18T12:04:20.042Z</time></trkpt><trkpt lat="43.3434667" lon="11.401715"><ele>292.0</ele><time>2026-04-18T12:04:21.043Z</time></trkpt><trkpt lat="43.343375" lon="11.4017967"><ele>292.0</ele><time>2026-04-18T12:04:22.042Z</time></trkpt><trkpt lat="43.343285" lon="11.4019067"><ele>292.0</ele><time>2026-04-18T12:04:23.042Z</time></trkpt><trkpt lat="43.34321" lon="11.4020417"><ele>292.0</ele><time>2026-04-18T12:04:24.043Z</time></trkpt><trkpt lat="43.343155" lon="11.4021933"><ele>292.0</ele><time>2026-04-18T12:04:25.042Z</time></trkpt><trkpt lat="43.3431167" lon="11.4023633"><ele>291.25</ele><time>2026-04-18T12:04:26.042Z</time></trkpt><trkpt lat="43.3430967" lon="11.4025317"><ele>290.5</ele><time>2026-04-18T12:04:27.043Z</time></trkpt><trkpt lat="43.34308" lon="11.402695"><ele>289.75</ele><time>2026-04-18T12:04:28.042Z</time></trkpt><trkpt lat="43.343065" lon="11.402855"><ele>289.0</ele><time>2026-04-18T12:04:29.042Z</time></trkpt><trkpt lat="43.3430333" lon="11.403"><ele>289.0</ele><time>2026-04-18T12:04:30.043Z</time></trkpt><trkpt lat="43.34299" lon="11.4031233"><ele>289.0</ele><time>2026-04-18T12:04:31.042Z</time></trkpt><trkpt lat="43.3429267" lon="11.4032167"><ele>289.0</ele><time>2026-04-18T12:04:32.042Z</time></trkpt><trkpt lat="43.3428383" lon="11.403275"><ele>289.0</ele><time>2026-04-18T12:04:33.043Z</time></trkpt><trkpt lat="43.3427283" lon="11.4033033"><ele>289.0</ele><time>2026-04-18T12:04:34.043Z</time></trkpt><trkpt lat="43.34262" lon="11.4033233"><ele>289.0</ele><time>2026-04-18T12:04:35.042Z</time></trkpt><trkpt lat="43.34252" lon="11.403345"><ele>289.0</ele><time>2026-04-18T12:04:36.042Z</time></trkpt><trkpt lat="43.3424183" lon="11.4033833"><ele>289.0</ele><time>2026-04-18T12:04:37.042Z</time></trkpt><trkpt lat="43.3423183" lon="11.40347"><ele>289.0</ele><time>2026-04-18T12:04:38.042Z</time></trkpt><trkpt lat="43.342215" lon="11.4035683"><ele>287.75</ele><time>2026-04-18T12:04:39.042Z</time></trkpt><trkpt lat="43.3421117" lon="11.403675"><ele>286.5</ele><time>2026-04-18T12:04:40.043Z</time></trkpt><trkpt lat="43.342" lon="11.4038"><ele>285.25</ele><time>2026-04-18T12:04:41.042Z</time></trkpt><trkpt lat="43.341895" lon="11.4039217"><ele>284.0</ele><time>2026-04-18T12:04:42.042Z</time></trkpt><trkpt lat="43.3417883" lon="11.4040433"><ele>284.0</ele><time>2026-04-18T12:04:43.042Z</time></trkpt><trkpt lat="43.3416833" lon="11.40416"><ele>284.0</ele><time>2026-04-18T12:04:44.042Z</time></trkpt><trkpt lat="43.3415867" lon="11.404275"><ele>284.0</ele><time>2026-04-18T12:04:45.042Z</time></trkpt><trkpt lat="43.3414867" lon="11.4043883"><ele>284.0</ele><time>2026-04-18T12:04:46.042Z</time></trkpt><trkpt lat="43.3413917" lon="11.40451"><ele>285.5</ele><time>2026-04-18T12:04:47.042Z</time></trkpt><trkpt lat="43.3413067" lon="11.404645"><ele>287.0</ele><time>2026-04-18T12:04:48.042Z</time></trkpt><trkpt lat="43.3412217" lon="11.4047883"><ele>288.5</ele><time>2026-04-18T12:04:49.043Z</time></trkpt><trkpt lat="43.3411383" lon="11.4049267"><ele>290.0</ele><time>2026-04-18T12:04:50.042Z</time></trkpt><trkpt lat="43.341055" lon="11.40506"><ele>290.0</ele><time>2026-04-18T12:04:51.042Z</time></trkpt><trkpt lat="43.3409617" lon="11.40518"><ele>290.0</ele><time>2026-04-18T12:04:52.042Z</time></trkpt><trkpt lat="43.3408567" lon="11.4052867"><ele>290.0</ele><time>2026-04-18T12:04:53.042Z</time></trkpt><trkpt lat="43.3407367" lon="11.4053783"><ele>290.0</ele><time>2026-04-18T12:04:54.042Z</time></trkpt><trkpt lat="43.3406117" lon="11.4054567"><ele>290.0</ele><time>2026-04-18T12:04:55.042Z</time></trkpt><trkpt lat="43.3404867" lon="11.405535"><ele>290.0</ele><time>2026-04-18T12:04:56.042Z</time></trkpt><trkpt lat="43.340355" lon="11.4056117"><ele>290.0</ele><time>2026-04-18T12:04:57.043Z</time></trkpt><trkpt lat="43.3402317" lon="11.405685"><ele>290.0</ele><time>2026-04-18T12:04:58.043Z</time></trkpt><trkpt lat="43.3401033" lon="11.405765"><ele>290.0</ele><time>2026-04-18T12:04:59.042Z</time></trkpt><trkpt lat="43.3399783" lon="11.4058383"><ele>290.0</ele><time>2026-04-18T12:05:00.042Z</time></trkpt><trkpt lat="43.339865" lon="11.4059067"><ele>290.0</ele><time>2026-04-18T12:05:01.043Z</time></trkpt><trkpt lat="43.339765" lon="11.405975"><ele>290.0</ele><time>2026-04-18T12:05:02.043Z</time></trkpt><trkpt lat="43.3396733" lon="11.4060483"><ele>289.4</ele><time>2026-04-18T12:05:03.043Z</time></trkpt><trkpt lat="43.3396" lon="11.4061367"><ele>288.8</ele><time>2026-04-18T12:05:04.043Z</time></trkpt><trkpt lat="43.3395383" lon="11.40625"><ele>288.2</ele><time>2026-04-18T12:05:05.042Z</time></trkpt><trkpt lat="43.33948" lon="11.4063917"><ele>287.6</ele><time>2026-04-18T12:05:06.043Z</time></trkpt><trkpt lat="43.3394083" lon="11.4065367"><ele>287.0</ele><time>2026-04-18T12:05:07.042Z</time></trkpt><trkpt lat="43.339325" lon="11.406675"><ele>287.0</ele><time>2026-04-18T12:05:08.042Z</time></trkpt><trkpt lat="43.33924" lon="11.4067867"><ele>287.0</ele><time>2026-04-18T12:05:09.042Z</time></trkpt><trkpt lat="43.3391333" lon="11.4069233"><ele>287.0</ele><time>2026-04-18T12:05:10.042Z</time></trkpt><trkpt lat="43.3390283" lon="11.4070517"><ele>287.0</ele><time>2026-04-18T12:05:11.043Z</time></trkpt><trkpt lat="43.338925" lon="11.40717"><ele>287.5</ele><time>2026-04-18T12:05:12.042Z</time></trkpt><trkpt lat="43.338825" lon="11.4072917"><ele>288.0</ele><time>2026-04-18T12:05:13.042Z</time></trkpt><trkpt lat="43.338725" lon="11.4074117"><ele>288.5</ele><time>2026-04-18T12:05:14.043Z</time></trkpt><trkpt lat="43.33862" lon="11.4075233"><ele>289.0</ele><time>2026-04-18T12:05:15.042Z</time></trkpt><trkpt lat="43.3385117" lon="11.40762"><ele>289.0</ele><time>2026-04-18T12:05:16.043Z</time></trkpt><trkpt lat="43.33841" lon="11.4077"><ele>289.0</ele><time>2026-04-18T12:05:17.043Z</time></trkpt><trkpt lat="43.3383167" lon="11.40777"><ele>289.0</ele><time>2026-04-18T12:05:18.042Z</time></trkpt><trkpt lat="43.3382167" lon="11.4078067"><ele>289.0</ele><time>2026-04-18T12:05:19.043Z</time></trkpt><trkpt lat="43.33812" lon="11.40781"><ele>289.0</ele><time>2026-04-18T12:05:20.042Z</time></trkpt><trkpt lat="43.3380333" lon="11.4077733"><ele>289.5</ele><time>2026-04-18T12:05:21.043Z</time></trkpt><trkpt lat="43.33794" lon="11.4077067"><ele>290.0</ele><time>2026-04-18T12:05:22.042Z</time></trkpt><trkpt lat="43.3378333" lon="11.4076033"><ele>290.5</ele><time>2026-04-18T12:05:23.042Z</time></trkpt><trkpt lat="43.3377183" lon="11.4074917"><ele>291.0</ele><time>2026-04-18T12:05:24.042Z</time></trkpt><trkpt lat="43.337605" lon="11.40738"><ele>291.0</ele><time>2026-04-18T12:05:25.043Z</time></trkpt><trkpt lat="43.3374967" lon="11.4072717"><ele>291.0</ele><time>2026-04-18T12:05:26.042Z</time></trkpt><trkpt lat="43.3373867" lon="11.4071667"><ele>291.0</ele><time>2026-04-18T12:05:27.042Z</time></trkpt><trkpt lat="43.33728" lon="11.4070817"><ele>291.0</ele><time>2026-04-18T12:05:28.042Z</time></trkpt><trkpt lat="43.337175" lon="11.4069933"><ele>291.25</ele><time>2026-04-18T12:05:29.043Z</time></trkpt><trkpt lat="43.337035" lon="11.4069217"><ele>291.5</ele><time>2026-04-18T12:05:30.043Z</time></trkpt><trkpt lat="43.3369017" lon="11.406865"><ele>291.75</ele><time>2026-04-18T12:05:31.042Z</time></trkpt><trkpt lat="43.33678" lon="11.4068067"><ele>292.0</ele><time>2026-04-18T12:05:32.042Z</time></trkpt><trkpt lat="43.3366617" lon="11.406755"><ele>292.0</ele><time>2026-04-18T12:05:33.042Z</time></trkpt><trkpt lat="43.33655" lon="11.4067117"><ele>292.0</ele><time>2026-04-18T12:05:34.042Z</time></trkpt><trkpt lat="43.3364417" lon="11.4066733"><ele>292.0</ele><time>2026-04-18T12:05:35.042Z</time></trkpt><trkpt lat="43.3363367" lon="11.4066517"><ele>292.0</ele><time>2026-04-18T12:05:36.042Z</time></trkpt><trkpt lat="43.3362283" lon="11.4066567"><ele>292.0</ele><time>2026-04-18T12:05:37.043Z</time></trkpt><trkpt lat="43.3361283" lon="11.4066833"><ele>293.4</ele><time>2026-04-18T12:05:38.043Z</time></trkpt><trkpt lat="43.3360333" lon="11.4067317"><ele>294.79999999999995</ele><time>2026-04-18T12:05:39.042Z</time></trkpt><trkpt lat="43.33595" lon="11.4068017"><ele>296.2</ele><time>2026-04-18T12:05:40.042Z</time></trkpt><trkpt lat="43.3358833" lon="11.4068883"><ele>297.59999999999997</ele><time>2026-04-18T12:05:41.042Z</time></trkpt><trkpt lat="43.3358033" lon="11.4069817"><ele>299.0</ele><time>2026-04-18T12:05:42.041Z</time></trkpt><trkpt lat="43.335725" lon="11.4070783"><ele>298.59999999999997</ele><time>2026-04-18T12:05:43.041Z</time></trkpt><trkpt lat="43.3356433" lon="11.407165"><ele>298.2</ele><time>2026-04-18T12:05:44.042Z</time></trkpt><trkpt lat="43.3355667" lon="11.407245"><ele>297.79999999999995</ele><time>2026-04-18T12:05:45.041Z</time></trkpt><trkpt lat="43.3354917" lon="11.4073117"><ele>297.4</ele><time>2026-04-18T12:05:46.041Z</time></trkpt><trkpt lat="43.3354133" lon="11.4073567"><ele>297.0</ele><time>2026-04-18T12:05:47.042Z</time></trkpt><trkpt lat="43.3353333" lon="11.4073733"><ele>297.0</ele><time>2026-04-18T12:05:48.041Z</time></trkpt><trkpt lat="43.3352383" lon="11.4073933"><ele>297.0</ele><time>2026-04-18T12:05:49.041Z</time></trkpt><trkpt lat="43.3351417" lon="11.407405"><ele>297.0</ele><time>2026-04-18T12:05:50.042Z</time></trkpt><trkpt lat="43.3350383" lon="11.4074233"><ele>297.0</ele><time>2026-04-18T12:05:51.042Z</time></trkpt><trkpt lat="43.3349333" lon="11.4074433"><ele>297.0</ele><time>2026-04-18T12:05:52.041Z</time></trkpt><trkpt lat="43.3348217" lon="11.40746"><ele>295.6</ele><time>2026-04-18T12:05:53.041Z</time></trkpt><trkpt lat="43.334715" lon="11.40747"><ele>294.2</ele><time>2026-04-18T12:05:54.041Z</time></trkpt><trkpt lat="43.334615" lon="11.4074817"><ele>292.8</ele><time>2026-04-18T12:05:55.041Z</time></trkpt><trkpt lat="43.334515" lon="11.40748"><ele>291.4</ele><time>2026-04-18T12:05:56.042Z</time></trkpt><trkpt lat="43.33443" lon="11.4074767"><ele>290.0</ele><time>2026-04-18T12:05:57.042Z</time></trkpt><trkpt lat="43.334355" lon="11.407455"><ele>290.0</ele><time>2026-04-18T12:05:58.042Z</time></trkpt><trkpt lat="43.3342667" lon="11.40736"><ele>290.0</ele><time>2026-04-18T12:06:00.041Z</time></trkpt><trkpt lat="43.3342517" lon="11.40726"><ele>290.0</ele><time>2026-04-18T12:06:01.041Z</time></trkpt><trkpt lat="43.3342417" lon="11.4071333"><ele>290.0</ele><time>2026-04-18T12:06:02.042Z</time></trkpt><trkpt lat="43.334225" lon="11.4069867"><ele>290.0</ele><time>2026-04-18T12:06:03.041Z</time></trkpt><trkpt lat="43.3342067" lon="11.40684"><ele>289.8</ele><time>2026-04-18T12:06:04.042Z</time></trkpt><trkpt lat="43.3341867" lon="11.40669"><ele>289.6</ele><time>2026-04-18T12:06:05.041Z</time></trkpt><trkpt lat="43.3341667" lon="11.4065367"><ele>289.4</ele><time>2026-04-18T12:06:06.042Z</time></trkpt><trkpt lat="43.3341483" lon="11.40639"><ele>289.2</ele><time>2026-04-18T12:06:07.042Z</time></trkpt><trkpt lat="43.3341283" lon="11.4062483"><ele>289.0</ele><time>2026-04-18T12:06:08.041Z</time></trkpt><trkpt lat="43.3341133" lon="11.4061133"><ele>288.4</ele><time>2026-04-18T12:06:09.042Z</time></trkpt><trkpt lat="43.3341017" lon="11.4059783"><ele>287.79999999999995</ele><time>2026-04-18T12:06:10.041Z</time></trkpt><trkpt lat="43.3340974" lon="11.4058429"><ele>287.20000000000005</ele><time>2026-04-18T12:06:11.042Z</time></trkpt><trkpt lat="43.3341019" lon="11.4056982"><ele>286.6</ele><time>2026-04-18T12:06:12.041Z</time></trkpt><trkpt lat="43.3341155" lon="11.4055494"><ele>286.0</ele><time>2026-04-18T12:06:13.041Z</time></trkpt><trkpt lat="43.3341306" lon="11.4054041"><ele>285.2</ele><time>2026-04-18T12:06:14.041Z</time></trkpt><trkpt lat="43.3341411" lon="11.4052596"><ele>284.40000000000003</ele><time>2026-04-18T12:06:15.042Z</time></trkpt><trkpt lat="43.3341541" lon="11.4051139"><ele>283.6</ele><time>2026-04-18T12:06:16.042Z</time></trkpt><trkpt lat="43.3341684" lon="11.4049731"><ele>282.8</ele><time>2026-04-18T12:06:17.041Z</time></trkpt><trkpt lat="43.3341837" lon="11.404839"><ele>282.0</ele><time>2026-04-18T12:06:18.041Z</time></trkpt><trkpt lat="43.3341935" lon="11.4047121"><ele>282.0</ele><time>2026-04-18T12:06:19.041Z</time></trkpt><trkpt lat="43.3342021" lon="11.4045963"><ele>282.0</ele><time>2026-04-18T12:06:20.041Z</time></trkpt><trkpt lat="43.334208" lon="11.4044912"><ele>282.0</ele><time>2026-04-18T12:06:21.041Z</time></trkpt><trkpt lat="43.3342091" lon="11.404395"><ele>282.0</ele><time>2026-04-18T12:06:22.042Z</time></trkpt><trkpt lat="43.3342094" lon="11.404306"><ele>282.0</ele><time>2026-04-18T12:06:23.042Z</time></trkpt><trkpt lat="43.3342078" lon="11.4042174"><ele>282.0</ele><time>2026-04-18T12:06:24.041Z</time></trkpt><trkpt lat="43.3341721" lon="11.4040715"><ele>282.0</ele><time>2026-04-18T12:06:26.042Z</time></trkpt><trkpt lat="43.3340747" lon="11.4040215"><ele>282.0</ele><time>2026-04-18T12:06:28.042Z</time></trkpt><trkpt lat="43.3340029" lon="11.4040368"><ele>282.0</ele><time>2026-04-18T12:06:29.042Z</time></trkpt><trkpt lat="43.3339248" lon="11.4040732"><ele>282.0</ele><time>2026-04-18T12:06:30.042Z</time></trkpt><trkpt lat="43.333845" lon="11.4041208"><ele>282.0</ele><time>2026-04-18T12:06:31.041Z</time></trkpt><trkpt lat="43.3337574" lon="11.4041693"><ele>282.0</ele><time>2026-04-18T12:06:32.041Z</time></trkpt><trkpt lat="43.3336673" lon="11.4042182"><ele>281.6</ele><time>2026-04-18T12:06:33.041Z</time></trkpt><trkpt lat="43.3335758" lon="11.4042687"><ele>281.2</ele><time>2026-04-18T12:06:34.042Z</time></trkpt><trkpt lat="43.3334862" lon="11.4043137"><ele>280.8</ele><time>2026-04-18T12:06:35.042Z</time></trkpt><trkpt lat="43.333393" lon="11.4043625"><ele>280.4</ele><time>2026-04-18T12:06:36.041Z</time></trkpt><trkpt lat="43.3332988" lon="11.4044123"><ele>280.0</ele><time>2026-04-18T12:06:37.041Z</time></trkpt><trkpt lat="43.3332029" lon="11.404461"><ele>280.0</ele><time>2026-04-18T12:06:38.041Z</time></trkpt><trkpt lat="43.3331045" lon="11.4045093"><ele>280.0</ele><time>2026-04-18T12:06:39.041Z</time></trkpt><trkpt lat="43.3330046" lon="11.4045582"><ele>280.0</ele><time>2026-04-18T12:06:40.042Z</time></trkpt><trkpt lat="43.3329026" lon="11.4046094"><ele>280.0</ele><time>2026-04-18T12:06:41.041Z</time></trkpt><trkpt lat="43.3327948" lon="11.4046642"><ele>280.0</ele><time>2026-04-18T12:06:42.041Z</time></trkpt><trkpt lat="43.332692" lon="11.4047232"><ele>279.6</ele><time>2026-04-18T12:06:43.041Z</time></trkpt><trkpt lat="43.3325917" lon="11.4047817"><ele>279.2</ele><time>2026-04-18T12:06:44.041Z</time></trkpt><trkpt lat="43.33249" lon="11.4048417"><ele>278.8</ele><time>2026-04-18T12:06:45.041Z</time></trkpt><trkpt lat="43.3323867" lon="11.404895"><ele>278.4</ele><time>2026-04-18T12:06:46.041Z</time></trkpt><trkpt lat="43.3322883" lon="11.4049483"><ele>278.0</ele><time>2026-04-18T12:06:47.041Z</time></trkpt><trkpt lat="43.3321817" lon="11.4050033"><ele>278.0</ele><time>2026-04-18T12:06:48.042Z</time></trkpt><trkpt lat="43.3320783" lon="11.4050583"><ele>278.0</ele><time>2026-04-18T12:06:49.042Z</time></trkpt><trkpt lat="43.3319767" lon="11.40511"><ele>278.0</ele><time>2026-04-18T12:06:50.042Z</time></trkpt><trkpt lat="43.3318783" lon="11.4051617"><ele>278.0</ele><time>2026-04-18T12:06:51.041Z</time></trkpt><trkpt lat="43.331775" lon="11.4052017"><ele>278.0</ele><time>2026-04-18T12:06:52.042Z</time></trkpt><trkpt lat="43.33166" lon="11.4052283"><ele>278.0</ele><time>2026-04-18T12:06:53.041Z</time></trkpt><trkpt lat="43.331545" lon="11.4052467"><ele>278.0</ele><time>2026-04-18T12:06:54.041Z</time></trkpt><trkpt lat="43.3314317" lon="11.405285"><ele>278.0</ele><time>2026-04-18T12:06:55.042Z</time></trkpt><trkpt lat="43.3313167" lon="11.4053083"><ele>278.0</ele><time>2026-04-18T12:06:56.041Z</time></trkpt><trkpt lat="43.331195" lon="11.4053383"><ele>276.5</ele><time>2026-04-18T12:06:57.041Z</time></trkpt><trkpt lat="43.3310683" lon="11.40538"><ele>275.0</ele><time>2026-04-18T12:06:58.041Z</time></trkpt><trkpt lat="43.3309383" lon="11.405415"><ele>273.5</ele><time>2026-04-18T12:06:59.042Z</time></trkpt><trkpt lat="43.33081" lon="11.4054517"><ele>272.0</ele><time>2026-04-18T12:07:00.041Z</time></trkpt><trkpt lat="43.3306833" lon="11.405495"><ele>270.0</ele><time>2026-04-18T12:07:01.041Z</time></trkpt><trkpt lat="43.3305567" lon="11.4055367"><ele>268.0</ele><time>2026-04-18T12:07:02.042Z</time></trkpt><trkpt lat="43.3304267" lon="11.405575"><ele>266.0</ele><time>2026-04-18T12:07:03.041Z</time></trkpt><trkpt lat="43.3302983" lon="11.40563"><ele>264.0</ele><time>2026-04-18T12:07:04.041Z</time></trkpt><trkpt lat="43.3301717" lon="11.405695"><ele>264.0</ele><time>2026-04-18T12:07:05.041Z</time></trkpt><trkpt lat="43.3300433" lon="11.4057683"><ele>264.0</ele><time>2026-04-18T12:07:06.041Z</time></trkpt><trkpt lat="43.3299217" lon="11.4058433"><ele>264.0</ele><time>2026-04-18T12:07:07.041Z</time></trkpt><trkpt lat="43.3298017" lon="11.4059233"><ele>264.0</ele><time>2026-04-18T12:07:08.041Z</time></trkpt><trkpt lat="43.3296883" lon="11.40601"><ele>262.75</ele><time>2026-04-18T12:07:09.041Z</time></trkpt><trkpt lat="43.3295833" lon="11.4061083"><ele>261.5</ele><time>2026-04-18T12:07:10.041Z</time></trkpt><trkpt lat="43.3294867" lon="11.406215"><ele>260.25</ele><time>2026-04-18T12:07:11.041Z</time></trkpt><trkpt lat="43.3293883" lon="11.4063217"><ele>259.0</ele><time>2026-04-18T12:07:12.041Z</time></trkpt><trkpt lat="43.3292933" lon="11.4064383"><ele>258.75</ele><time>2026-04-18T12:07:13.041Z</time></trkpt><trkpt lat="43.329195" lon="11.4065583"><ele>258.5</ele><time>2026-04-18T12:07:14.041Z</time></trkpt><trkpt lat="43.3290933" lon="11.40668"><ele>258.25</ele><time>2026-04-18T12:07:15.042Z</time></trkpt><trkpt lat="43.328985" lon="11.4068083"><ele>258.0</ele><time>2026-04-18T12:07:16.042Z</time></trkpt><trkpt lat="43.3288717" lon="11.4069267"><ele>257.75</ele><time>2026-04-18T12:07:17.042Z</time></trkpt><trkpt lat="43.328765" lon="11.4070633"><ele>257.5</ele><time>2026-04-18T12:07:18.041Z</time></trkpt><trkpt lat="43.3286617" lon="11.4071917"><ele>257.25</ele><time>2026-04-18T12:07:19.041Z</time></trkpt><trkpt lat="43.328555" lon="11.4073233"><ele>257.0</ele><time>2026-04-18T12:07:20.041Z</time></trkpt><trkpt lat="43.3284483" lon="11.40745"><ele>256.0</ele><time>2026-04-18T12:07:21.041Z</time></trkpt><trkpt lat="43.3283433" lon="11.4075817"><ele>255.0</ele><time>2026-04-18T12:07:22.041Z</time></trkpt><trkpt lat="43.328235" lon="11.4077133"><ele>254.0</ele><time>2026-04-18T12:07:23.041Z</time></trkpt><trkpt lat="43.328125" lon="11.4078417"><ele>253.0</ele><time>2026-04-18T12:07:24.041Z</time></trkpt><trkpt lat="43.32802" lon="11.4079683"><ele>253.0</ele><time>2026-04-18T12:07:25.042Z</time></trkpt><trkpt lat="43.3279167" lon="11.408095"><ele>253.0</ele><time>2026-04-18T12:07:26.042Z</time></trkpt><trkpt lat="43.3278083" lon="11.4082133"><ele>253.0</ele><time>2026-04-18T12:07:27.041Z</time></trkpt><trkpt lat="43.3277033" lon="11.4083317"><ele>253.0</ele><time>2026-04-18T12:07:28.041Z</time></trkpt><trkpt lat="43.327595" lon="11.408445"><ele>253.0</ele><time>2026-04-18T12:07:29.042Z</time></trkpt><trkpt lat="43.3274933" lon="11.4085617"><ele>253.0</ele><time>2026-04-18T12:07:30.041Z</time></trkpt><trkpt lat="43.3274" lon="11.4086717"><ele>253.0</ele><time>2026-04-18T12:07:31.041Z</time></trkpt><trkpt lat="43.327305" lon="11.4087833"><ele>253.0</ele><time>2026-04-18T12:07:32.041Z</time></trkpt><trkpt lat="43.3272183" lon="11.40888"><ele>251.60000000000002</ele><time>2026-04-18T12:07:33.041Z</time></trkpt><trkpt lat="43.3271333" lon="11.4089833"><ele>250.20000000000002</ele><time>2026-04-18T12:07:34.041Z</time></trkpt><trkpt lat="43.3270533" lon="11.409085"><ele>248.8</ele><time>2026-04-18T12:07:35.041Z</time></trkpt><trkpt lat="43.3269883" lon="11.40919"><ele>247.4</ele><time>2026-04-18T12:07:36.042Z</time></trkpt><trkpt lat="43.3269217" lon="11.4093017"><ele>246.0</ele><time>2026-04-18T12:07:37.041Z</time></trkpt><trkpt lat="43.32686" lon="11.4094133"><ele>246.0</ele><time>2026-04-18T12:07:38.041Z</time></trkpt><trkpt lat="43.3268033" lon="11.4095267"><ele>246.00000000000003</ele><time>2026-04-18T12:07:39.042Z</time></trkpt><trkpt lat="43.3267417" lon="11.4096283"><ele>246.00000000000003</ele><time>2026-04-18T12:07:40.041Z</time></trkpt><trkpt lat="43.32667" lon="11.4097083"><ele>246.0</ele><time>2026-04-18T12:07:41.042Z</time></trkpt><trkpt lat="43.3265933" lon="11.4097767"><ele>246.0</ele><time>2026-04-18T12:07:42.042Z</time></trkpt><trkpt lat="43.3265167" lon="11.409845"><ele>245.5</ele><time>2026-04-18T12:07:43.041Z</time></trkpt><trkpt lat="43.3264433" lon="11.409925"><ele>245.0</ele><time>2026-04-18T12:07:44.041Z</time></trkpt><trkpt lat="43.3263783" lon="11.4100017"><ele>244.5</ele><time>2026-04-18T12:07:45.041Z</time></trkpt><trkpt lat="43.326315" lon="11.4100733"><ele>244.0</ele><time>2026-04-18T12:07:46.041Z</time></trkpt><trkpt lat="43.3262583" lon="11.4101383"><ele>243.5</ele><time>2026-04-18T12:07:47.041Z</time></trkpt><trkpt lat="43.3262067" lon="11.410195"><ele>243.0</ele><time>2026-04-18T12:07:48.042Z</time></trkpt><trkpt lat="43.3261183" lon="11.41029"><ele>243.0</ele><time>2026-04-18T12:07:50.041Z</time></trkpt><trkpt lat="43.3260333" lon="11.4103217"><ele>243.0</ele><time>2026-04-18T12:07:52.041Z</time></trkpt><trkpt lat="43.3259467" lon="11.410245"><ele>243.0</ele><time>2026-04-18T12:07:54.042Z</time></trkpt><trkpt lat="43.3259133" lon="11.4101633"><ele>243.0</ele><time>2026-04-18T12:07:55.042Z</time></trkpt><trkpt lat="43.3258817" lon="11.41007"><ele>243.0</ele><time>2026-04-18T12:07:56.042Z</time></trkpt><trkpt lat="43.32585" lon="11.4099583"><ele>243.0</ele><time>2026-04-18T12:07:57.041Z</time></trkpt><trkpt lat="43.3258267" lon="11.409825"><ele>243.0</ele><time>2026-04-18T12:07:58.042Z</time></trkpt><trkpt lat="43.32582" lon="11.4096733"><ele>243.0</ele><time>2026-04-18T12:07:59.041Z</time></trkpt><trkpt lat="43.3258333" lon="11.4094917"><ele>243.0</ele><time>2026-04-18T12:08:00.041Z</time></trkpt><trkpt lat="43.3258433" lon="11.4092983"><ele>243.0</ele><time>2026-04-18T12:08:01.042Z</time></trkpt><trkpt lat="43.3258467" lon="11.4090917"><ele>240.33333333333331</ele><time>2026-04-18T12:08:02.042Z</time></trkpt><trkpt lat="43.3258383" lon="11.408865"><ele>237.66666666666666</ele><time>2026-04-18T12:08:03.041Z</time></trkpt><trkpt lat="43.3258167" lon="11.40863"><ele>235.0</ele><time>2026-04-18T12:08:04.041Z</time></trkpt><trkpt lat="43.325785" lon="11.4084033"><ele>233.66666666666666</ele><time>2026-04-18T12:08:05.041Z</time></trkpt><trkpt lat="43.3257567" lon="11.40819"><ele>232.33333333333331</ele><time>2026-04-18T12:08:06.042Z</time></trkpt><trkpt lat="43.3257367" lon="11.4079783"><ele>231.0</ele><time>2026-04-18T12:08:07.041Z</time></trkpt><trkpt lat="43.3257117" lon="11.4077683"><ele>229.66666666666669</ele><time>2026-04-18T12:08:08.041Z</time></trkpt><trkpt lat="43.325685" lon="11.40756"><ele>228.33333333333334</ele><time>2026-04-18T12:08:09.041Z</time></trkpt><trkpt lat="43.3256583" lon="11.4073567"><ele>227.0</ele><time>2026-04-18T12:08:10.042Z</time></trkpt><trkpt lat="43.325635" lon="11.4071517"><ele>226.0</ele><time>2026-04-18T12:08:11.042Z</time></trkpt><trkpt lat="43.3256133" lon="11.4069583"><ele>225.0</ele><time>2026-04-18T12:08:12.042Z</time></trkpt><trkpt lat="43.32558" lon="11.4067617"><ele>224.0</ele><time>2026-04-18T12:08:13.041Z</time></trkpt><trkpt lat="43.3255217" lon="11.4065767"><ele>223.0</ele><time>2026-04-18T12:08:14.041Z</time></trkpt><trkpt lat="43.3254367" lon="11.4064083"><ele>221.0</ele><time>2026-04-18T12:08:15.041Z</time></trkpt><trkpt lat="43.3253433" lon="11.4062317"><ele>219.0</ele><time>2026-04-18T12:08:16.042Z</time></trkpt><trkpt lat="43.3252633" lon="11.4060417"><ele>217.0</ele><time>2026-04-18T12:08:17.041Z</time></trkpt><trkpt lat="43.32519" lon="11.4058383"><ele>217.0</ele><time>2026-04-18T12:08:18.042Z</time></trkpt><trkpt lat="43.32513" lon="11.4056417"><ele>217.0</ele><time>2026-04-18T12:08:19.041Z</time></trkpt><trkpt lat="43.3250767" lon="11.40545"><ele>217.0</ele><time>2026-04-18T12:08:20.041Z</time></trkpt><trkpt lat="43.32503" lon="11.4052517"><ele>216.33333333333331</ele><time>2026-04-18T12:08:21.041Z</time></trkpt><trkpt lat="43.3249967" lon="11.4050467"><ele>215.66666666666669</ele><time>2026-04-18T12:08:22.042Z</time></trkpt><trkpt lat="43.324975" lon="11.4048283"><ele>215.0</ele><time>2026-04-18T12:08:23.041Z</time></trkpt><trkpt lat="43.3249617" lon="11.40461"><ele>214.66666666666669</ele><time>2026-04-18T12:08:24.041Z</time></trkpt><trkpt lat="43.324955" lon="11.4043867"><ele>214.33333333333331</ele><time>2026-04-18T12:08:25.042Z</time></trkpt><trkpt lat="43.3249517" lon="11.4041717"><ele>214.0</ele><time>2026-04-18T12:08:26.041Z</time></trkpt><trkpt lat="43.32495" lon="11.4039733"><ele>213.5</ele><time>2026-04-18T12:08:27.042Z</time></trkpt><trkpt lat="43.3249583" lon="11.4037833"><ele>213.0</ele><time>2026-04-18T12:08:28.042Z</time></trkpt><trkpt lat="43.324965" lon="11.4036133"><ele>212.5</ele><time>2026-04-18T12:08:29.041Z</time></trkpt><trkpt lat="43.324975" lon="11.4034517"><ele>212.0</ele><time>2026-04-18T12:08:30.042Z</time></trkpt><trkpt lat="43.324985" lon="11.4032917"><ele>212.0</ele><time>2026-04-18T12:08:31.041Z</time></trkpt><trkpt lat="43.325" lon="11.4031133"><ele>212.0</ele><time>2026-04-18T12:08:32.041Z</time></trkpt><trkpt lat="43.3250133" lon="11.40292"><ele>212.0</ele><time>2026-04-18T12:08:33.042Z</time></trkpt><trkpt lat="43.325025" lon="11.4027233"><ele>212.0</ele><time>2026-04-18T12:08:34.042Z</time></trkpt><trkpt lat="43.3250467" lon="11.40252"><ele>213.33333333333334</ele><time>2026-04-18T12:08:35.042Z</time></trkpt><trkpt lat="43.325065" lon="11.402315"><ele>214.66666666666669</ele><time>2026-04-18T12:08:36.042Z</time></trkpt><trkpt lat="43.325085" lon="11.4021067"><ele>216.0</ele><time>2026-04-18T12:08:37.041Z</time></trkpt><trkpt lat="43.3250967" lon="11.4019"><ele>218.5</ele><time>2026-04-18T12:08:38.041Z</time></trkpt><trkpt lat="43.3250967" lon="11.4016967"><ele>221.0</ele><time>2026-04-18T12:08:39.042Z</time></trkpt><trkpt lat="43.32509" lon="11.4014983"><ele>223.5</ele><time>2026-04-18T12:08:40.041Z</time></trkpt><trkpt lat="43.3250867" lon="11.4013"><ele>226.0</ele><time>2026-04-18T12:08:41.042Z</time></trkpt><trkpt lat="43.3250817" lon="11.4011133"><ele>227.25</ele><time>2026-04-18T12:08:42.042Z</time></trkpt><trkpt lat="43.3250767" lon="11.400945"><ele>228.5</ele><time>2026-04-18T12:08:43.042Z</time></trkpt><trkpt lat="43.3250783" lon="11.4007883"><ele>229.75</ele><time>2026-04-18T12:08:44.042Z</time></trkpt><trkpt lat="43.3250933" lon="11.4006383"><ele>231.0</ele><time>2026-04-18T12:08:45.042Z</time></trkpt><trkpt lat="43.3251183" lon="11.4004783"><ele>232.25</ele><time>2026-04-18T12:08:46.042Z</time></trkpt><trkpt lat="43.3251417" lon="11.4003133"><ele>233.5</ele><time>2026-04-18T12:08:47.041Z</time></trkpt><trkpt lat="43.325165" lon="11.400135"><ele>234.75</ele><time>2026-04-18T12:08:48.041Z</time></trkpt><trkpt lat="43.32518" lon="11.3999567"><ele>236.0</ele><time>2026-04-18T12:08:49.042Z</time></trkpt><trkpt lat="43.3251733" lon="11.3997767"><ele>237.25</ele><time>2026-04-18T12:08:50.042Z</time></trkpt><trkpt lat="43.32516" lon="11.3995933"><ele>238.5</ele><time>2026-04-18T12:08:51.041Z</time></trkpt><trkpt lat="43.3251483" lon="11.39941"><ele>239.75</ele><time>2026-04-18T12:08:52.041Z</time></trkpt><trkpt lat="43.3251383" lon="11.399225"><ele>241.0</ele><time>2026-04-18T12:08:53.041Z</time></trkpt><trkpt lat="43.3251283" lon="11.399045"><ele>241.0</ele><time>2026-04-18T12:08:54.041Z</time></trkpt><trkpt lat="43.325115" lon="11.398865"><ele>241.0</ele><time>2026-04-18T12:08:55.042Z</time></trkpt><trkpt lat="43.3251033" lon="11.3986883"><ele>241.0</ele><time>2026-04-18T12:08:56.042Z</time></trkpt><trkpt lat="43.3250967" lon="11.398525"><ele>241.0</ele><time>2026-04-18T12:08:57.042Z</time></trkpt><trkpt lat="43.3250933" lon="11.398365"><ele>242.20000000000002</ele><time>2026-04-18T12:08:58.041Z</time></trkpt><trkpt lat="43.325085" lon="11.3982083"><ele>243.40000000000003</ele><time>2026-04-18T12:08:59.041Z</time></trkpt><trkpt lat="43.3250817" lon="11.3980533"><ele>244.6</ele><time>2026-04-18T12:09:00.041Z</time></trkpt><trkpt lat="43.32509" lon="11.3979033"><ele>245.8</ele><time>2026-04-18T12:09:01.041Z</time></trkpt><trkpt lat="43.32511" lon="11.397765"><ele>247.0</ele><time>2026-04-18T12:09:02.042Z</time></trkpt><trkpt lat="43.3251467" lon="11.3976233"><ele>247.0</ele><time>2026-04-18T12:09:03.041Z</time></trkpt><trkpt lat="43.3251983" lon="11.3974883"><ele>247.0</ele><time>2026-04-18T12:09:04.042Z</time></trkpt><trkpt lat="43.32525" lon="11.397345"><ele>247.0</ele><time>2026-04-18T12:09:05.041Z</time></trkpt><trkpt lat="43.3253083" lon="11.397195"><ele>247.0</ele><time>2026-04-18T12:09:06.042Z</time></trkpt><trkpt lat="43.3253517" lon="11.3970333"><ele>247.0</ele><time>2026-04-18T12:09:07.041Z</time></trkpt><trkpt lat="43.3254017" lon="11.3968683"><ele>247.0</ele><time>2026-04-18T12:09:08.041Z</time></trkpt><trkpt lat="43.32546" lon="11.3967017"><ele>247.0</ele><time>2026-04-18T12:09:09.042Z</time></trkpt><trkpt lat="43.32551" lon="11.3965267"><ele>247.0</ele><time>2026-04-18T12:09:10.041Z</time></trkpt><trkpt lat="43.325565" lon="11.3963517"><ele>247.75</ele><time>2026-04-18T12:09:11.041Z</time></trkpt><trkpt lat="43.3256167" lon="11.3961783"><ele>248.5</ele><time>2026-04-18T12:09:12.041Z</time></trkpt><trkpt lat="43.3256533" lon="11.3960117"><ele>249.25</ele><time>2026-04-18T12:09:13.041Z</time></trkpt><trkpt lat="43.3256833" lon="11.3958283"><ele>250.0</ele><time>2026-04-18T12:09:14.041Z</time></trkpt><trkpt lat="43.3257" lon="11.3956383"><ele>250.5</ele><time>2026-04-18T12:09:15.041Z</time></trkpt><trkpt lat="43.3257033" lon="11.3954433"><ele>251.0</ele><time>2026-04-18T12:09:16.041Z</time></trkpt><trkpt lat="43.3257033" lon="11.39525"><ele>251.5</ele><time>2026-04-18T12:09:17.041Z</time></trkpt><trkpt lat="43.3256983" lon="11.3950533"><ele>252.0</ele><time>2026-04-18T12:09:18.041Z</time></trkpt><trkpt lat="43.3257017" lon="11.39486"><ele>252.0</ele><time>2026-04-18T12:09:19.042Z</time></trkpt><trkpt lat="43.32569" lon="11.39468"><ele>252.0</ele><time>2026-04-18T12:09:20.041Z</time></trkpt><trkpt lat="43.3256667" lon="11.3945017"><ele>252.0</ele><time>2026-04-18T12:09:21.042Z</time></trkpt><trkpt lat="43.3256267" lon="11.39432"><ele>252.0</ele><time>2026-04-18T12:09:22.042Z</time></trkpt><trkpt lat="43.3255817" lon="11.394135"><ele>252.75</ele><time>2026-04-18T12:09:23.041Z</time></trkpt><trkpt lat="43.3255267" lon="11.3939383"><ele>253.5</ele><time>2026-04-18T12:09:24.041Z</time></trkpt><trkpt lat="43.32547" lon="11.3937533"><ele>254.25</ele><time>2026-04-18T12:09:25.041Z</time></trkpt><trkpt lat="43.32541" lon="11.3935683"><ele>255.0</ele><time>2026-04-18T12:09:26.041Z</time></trkpt><trkpt lat="43.3253533" lon="11.3933867"><ele>256.25</ele><time>2026-04-18T12:09:27.04Z</time></trkpt><trkpt lat="43.3252917" lon="11.39321"><ele>257.5</ele><time>2026-04-18T12:09:28.04Z</time></trkpt><trkpt lat="43.32524" lon="11.3930383"><ele>258.75</ele><time>2026-04-18T12:09:29.04Z</time></trkpt><trkpt lat="43.3251867" lon="11.392885"><ele>260.0</ele><time>2026-04-18T12:09:30.04Z</time></trkpt><trkpt lat="43.3251317" lon="11.3927433"><ele>260.8</ele><time>2026-04-18T12:09:31.04Z</time></trkpt><trkpt lat="43.325075" lon="11.392625"><ele>261.6</ele><time>2026-04-18T12:09:32.04Z</time></trkpt><trkpt lat="43.3250167" lon="11.392545"><ele>262.4</ele><time>2026-04-18T12:09:33.04Z</time></trkpt><trkpt lat="43.3249317" lon="11.3925017"><ele>263.2</ele><time>2026-04-18T12:09:34.041Z</time></trkpt><trkpt lat="43.3248333" lon="11.3924967"><ele>264.0</ele><time>2026-04-18T12:09:35.04Z</time></trkpt><trkpt lat="43.3247183" lon="11.39252"><ele>264.25</ele><time>2026-04-18T12:09:36.04Z</time></trkpt><trkpt lat="43.324595" lon="11.392535"><ele>264.5</ele><time>2026-04-18T12:09:37.04Z</time></trkpt><trkpt lat="43.3244783" lon="11.3925167"><ele>264.75</ele><time>2026-04-18T12:09:38.04Z</time></trkpt><trkpt lat="43.324365" lon="11.3924733"><ele>265.0</ele><time>2026-04-18T12:09:39.04Z</time></trkpt><trkpt lat="43.3242533" lon="11.3924183"><ele>265.0</ele><time>2026-04-18T12:09:40.041Z</time></trkpt><trkpt lat="43.3241367" lon="11.39237"><ele>265.0</ele><time>2026-04-18T12:09:41.04Z</time></trkpt><trkpt lat="43.3240033" lon="11.39233"><ele>265.0</ele><time>2026-04-18T12:09:42.041Z</time></trkpt><trkpt lat="43.3238717" lon="11.3922967"><ele>265.0</ele><time>2026-04-18T12:09:43.041Z</time></trkpt><trkpt lat="43.3237317" lon="11.3922667"><ele>264.75</ele><time>2026-04-18T12:09:44.04Z</time></trkpt><trkpt lat="43.3235983" lon="11.39224"><ele>264.5</ele><time>2026-04-18T12:09:45.04Z</time></trkpt><trkpt lat="43.3234633" lon="11.3922083"><ele>264.25</ele><time>2026-04-18T12:09:46.04Z</time></trkpt><trkpt lat="43.3233317" lon="11.392175"><ele>264.0</ele><time>2026-04-18T12:09:47.04Z</time></trkpt><trkpt lat="43.3232033" lon="11.3921417"><ele>262.25</ele><time>2026-04-18T12:09:48.04Z</time></trkpt><trkpt lat="43.3230817" lon="11.3920967"><ele>260.5</ele><time>2026-04-18T12:09:49.04Z</time></trkpt><trkpt lat="43.3229583" lon="11.3920583"><ele>258.75</ele><time>2026-04-18T12:09:50.04Z</time></trkpt><trkpt lat="43.322835" lon="11.3920317"><ele>257.0</ele><time>2026-04-18T12:09:51.04Z</time></trkpt><trkpt lat="43.3227183" lon="11.3920117"><ele>257.0</ele><time>2026-04-18T12:09:52.041Z</time></trkpt><trkpt lat="43.32259" lon="11.3919633"><ele>257.0</ele><time>2026-04-18T12:09:53.041Z</time></trkpt><trkpt lat="43.3224483" lon="11.3919267"><ele>257.0</ele><time>2026-04-18T12:09:54.04Z</time></trkpt><trkpt lat="43.322315" lon="11.3918783"><ele>257.0</ele><time>2026-04-18T12:09:55.041Z</time></trkpt><trkpt lat="43.322175" lon="11.39185"><ele>256.0</ele><time>2026-04-18T12:09:56.04Z</time></trkpt><trkpt lat="43.322045" lon="11.391805"><ele>255.0</ele><time>2026-04-18T12:09:57.041Z</time></trkpt><trkpt lat="43.321895" lon="11.391765"><ele>254.0</ele><time>2026-04-18T12:09:58.04Z</time></trkpt><trkpt lat="43.32175" lon="11.3917167"><ele>253.0</ele><time>2026-04-18T12:09:59.04Z</time></trkpt><trkpt lat="43.3216167" lon="11.3916617"><ele>253.0</ele><time>2026-04-18T12:10:00.04Z</time></trkpt><trkpt lat="43.3214917" lon="11.3915983"><ele>253.0</ele><time>2026-04-18T12:10:01.041Z</time></trkpt><trkpt lat="43.321365" lon="11.391515"><ele>253.0</ele><time>2026-04-18T12:10:02.04Z</time></trkpt><trkpt lat="43.3212317" lon="11.3914283"><ele>253.0</ele><time>2026-04-18T12:10:03.041Z</time></trkpt><trkpt lat="43.3211" lon="11.3913317"><ele>251.5</ele><time>2026-04-18T12:10:04.04Z</time></trkpt><trkpt lat="43.32097" lon="11.3912383"><ele>250.0</ele><time>2026-04-18T12:10:05.04Z</time></trkpt><trkpt lat="43.3208433" lon="11.3911483"><ele>248.5</ele><time>2026-04-18T12:10:06.041Z</time></trkpt><trkpt lat="43.320725" lon="11.3910767"><ele>247.0</ele><time>2026-04-18T12:10:07.041Z</time></trkpt><trkpt lat="43.3206133" lon="11.391015"><ele>247.39999999999998</ele><time>2026-04-18T12:10:08.04Z</time></trkpt><trkpt lat="43.3205083" lon="11.3909717"><ele>247.79999999999998</ele><time>2026-04-18T12:10:09.041Z</time></trkpt><trkpt lat="43.3203983" lon="11.39094"><ele>248.2</ele><time>2026-04-18T12:10:10.04Z</time></trkpt><trkpt lat="43.3202917" lon="11.390915"><ele>248.6</ele><time>2026-04-18T12:10:11.04Z</time></trkpt><trkpt lat="43.3202033" lon="11.3908733"><ele>249.0</ele><time>2026-04-18T12:10:12.041Z</time></trkpt><trkpt lat="43.3201433" lon="11.3908017"><ele>249.0</ele><time>2026-04-18T12:10:13.04Z</time></trkpt><trkpt lat="43.320105" lon="11.3906917"><ele>248.99999999999997</ele><time>2026-04-18T12:10:14.04Z</time></trkpt><trkpt lat="43.3200767" lon="11.39056"><ele>248.99999999999997</ele><time>2026-04-18T12:10:15.04Z</time></trkpt><trkpt lat="43.32006" lon="11.3903967"><ele>249.0</ele><time>2026-04-18T12:10:16.041Z</time></trkpt><trkpt lat="43.3200383" lon="11.3902333"><ele>249.0</ele><time>2026-04-18T12:10:17.04Z</time></trkpt><trkpt lat="43.3200133" lon="11.39007"><ele>248.5</ele><time>2026-04-18T12:10:18.041Z</time></trkpt><trkpt lat="43.3199733" lon="11.3898967"><ele>248.0</ele><time>2026-04-18T12:10:19.041Z</time></trkpt><trkpt lat="43.3199283" lon="11.3897233"><ele>247.5</ele><time>2026-04-18T12:10:20.041Z</time></trkpt><trkpt lat="43.3198783" lon="11.3895567"><ele>247.0</ele><time>2026-04-18T12:10:21.04Z</time></trkpt><trkpt lat="43.3198317" lon="11.3893867"><ele>246.0</ele><time>2026-04-18T12:10:22.041Z</time></trkpt><trkpt lat="43.3197867" lon="11.389225"><ele>245.0</ele><time>2026-04-18T12:10:23.04Z</time></trkpt><trkpt lat="43.3197417" lon="11.3890683"><ele>244.0</ele><time>2026-04-18T12:10:24.041Z</time></trkpt><trkpt lat="43.3197083" lon="11.3889133"><ele>243.0</ele><time>2026-04-18T12:10:25.041Z</time></trkpt><trkpt lat="43.3196817" lon="11.38876"><ele>239.5</ele><time>2026-04-18T12:10:26.04Z</time></trkpt><trkpt lat="43.3196517" lon="11.388605"><ele>236.0</ele><time>2026-04-18T12:10:27.04Z</time></trkpt><trkpt lat="43.319625" lon="11.3884517"><ele>232.5</ele><time>2026-04-18T12:10:28.04Z</time></trkpt><trkpt lat="43.319595" lon="11.3882967"><ele>229.0</ele><time>2026-04-18T12:10:29.041Z</time></trkpt><trkpt lat="43.3195617" lon="11.3881383"><ele>229.0</ele><time>2026-04-18T12:10:30.04Z</time></trkpt><trkpt lat="43.3195317" lon="11.3879833"><ele>228.99999999999997</ele><time>2026-04-18T12:10:31.04Z</time></trkpt><trkpt lat="43.3195" lon="11.3878333"><ele>228.99999999999997</ele><time>2026-04-18T12:10:32.041Z</time></trkpt><trkpt lat="43.3194717" lon="11.3876933"><ele>229.0</ele><time>2026-04-18T12:10:33.04Z</time></trkpt><trkpt lat="43.31943" lon="11.3875717"><ele>229.0</ele><time>2026-04-18T12:10:34.041Z</time></trkpt><trkpt lat="43.319365" lon="11.3874783"><ele>229.0</ele><time>2026-04-18T12:10:35.04Z</time></trkpt><trkpt lat="43.3192783" lon="11.3874133"><ele>228.99999999999997</ele><time>2026-04-18T12:10:36.04Z</time></trkpt><trkpt lat="43.3191817" lon="11.3873567"><ele>228.99999999999997</ele><time>2026-04-18T12:10:37.04Z</time></trkpt><trkpt lat="43.3191" lon="11.3872867"><ele>229.0</ele><time>2026-04-18T12:10:38.04Z</time></trkpt><trkpt lat="43.3190433" lon="11.3871883"><ele>229.0</ele><time>2026-04-18T12:10:39.041Z</time></trkpt><trkpt lat="43.319035" lon="11.3870633"><ele>228.6</ele><time>2026-04-18T12:10:40.04Z</time></trkpt><trkpt lat="43.3190533" lon="11.3869183"><ele>228.2</ele><time>2026-04-18T12:10:41.041Z</time></trkpt><trkpt lat="43.3190817" lon="11.3867783"><ele>227.79999999999998</ele><time>2026-04-18T12:10:42.04Z</time></trkpt><trkpt lat="43.319135" lon="11.38665"><ele>227.39999999999998</ele><time>2026-04-18T12:10:43.04Z</time></trkpt><trkpt lat="43.31921" lon="11.38654"><ele>227.0</ele><time>2026-04-18T12:10:44.04Z</time></trkpt><trkpt lat="43.3193017" lon="11.3864533"><ele>227.0</ele><time>2026-04-18T12:10:45.041Z</time></trkpt><trkpt lat="43.3194133" lon="11.3863833"><ele>227.0</ele><time>2026-04-18T12:10:46.04Z</time></trkpt><trkpt lat="43.31953" lon="11.3863217"><ele>227.0</ele><time>2026-04-18T12:10:47.04Z</time></trkpt><trkpt lat="43.31964" lon="11.38626"><ele>227.0</ele><time>2026-04-18T12:10:48.041Z</time></trkpt><trkpt lat="43.319745" lon="11.3861917"><ele>226.0</ele><time>2026-04-18T12:10:49.04Z</time></trkpt><trkpt lat="43.3198467" lon="11.3861367"><ele>225.0</ele><time>2026-04-18T12:10:50.04Z</time></trkpt><trkpt lat="43.3199433" lon="11.3860683"><ele>224.0</ele><time>2026-04-18T12:10:51.04Z</time></trkpt><trkpt lat="43.3200233" lon="11.3859767"><ele>223.0</ele><time>2026-04-18T12:10:52.041Z</time></trkpt><trkpt lat="43.320085" lon="11.3858633"><ele>222.0</ele><time>2026-04-18T12:10:53.04Z</time></trkpt><trkpt lat="43.3201217" lon="11.3857233"><ele>222.0</ele><time>2026-04-18T12:10:54.04Z</time></trkpt><trkpt lat="43.32014" lon="11.3855767"><ele>222.0</ele><time>2026-04-18T12:10:55.04Z</time></trkpt><trkpt lat="43.3201367" lon="11.3854217"><ele>222.0</ele><time>2026-04-18T12:10:56.041Z</time></trkpt><trkpt lat="43.3201317" lon="11.3852667"><ele>222.0</ele><time>2026-04-18T12:10:57.041Z</time></trkpt><trkpt lat="43.3201417" lon="11.3851133"><ele>222.0</ele><time>2026-04-18T12:10:58.04Z</time></trkpt><trkpt lat="43.3201783" lon="11.38497"><ele>220.75</ele><time>2026-04-18T12:10:59.04Z</time></trkpt><trkpt lat="43.320235" lon="11.3848333"><ele>219.5</ele><time>2026-04-18T12:11:00.04Z</time></trkpt><trkpt lat="43.3203183" lon="11.3847033"><ele>218.25</ele><time>2026-04-18T12:11:01.04Z</time></trkpt><trkpt lat="43.3204017" lon="11.3845767"><ele>217.0</ele><time>2026-04-18T12:11:02.041Z</time></trkpt><trkpt lat="43.32049" lon="11.3844567"><ele>215.6</ele><time>2026-04-18T12:11:03.04Z</time></trkpt><trkpt lat="43.3205817" lon="11.3843483"><ele>214.2</ele><time>2026-04-18T12:11:04.041Z</time></trkpt><trkpt lat="43.32067" lon="11.3842433"><ele>212.8</ele><time>2026-04-18T12:11:05.04Z</time></trkpt><trkpt lat="43.3207333" lon="11.384125"><ele>211.4</ele><time>2026-04-18T12:11:06.04Z</time></trkpt><trkpt lat="43.3207717" lon="11.3839967"><ele>210.0</ele><time>2026-04-18T12:11:07.04Z</time></trkpt><trkpt lat="43.32078" lon="11.3838617"><ele>208.0</ele><time>2026-04-18T12:11:08.041Z</time></trkpt><trkpt lat="43.3207583" lon="11.38372"><ele>206.0</ele><time>2026-04-18T12:11:09.04Z</time></trkpt><trkpt lat="43.3207167" lon="11.3835767"><ele>204.0</ele><time>2026-04-18T12:11:10.04Z</time></trkpt><trkpt lat="43.32067" lon="11.3834283"><ele>202.0</ele><time>2026-04-18T12:11:11.04Z</time></trkpt><trkpt lat="43.3206333" lon="11.3832717"><ele>202.0</ele><time>2026-04-18T12:11:12.041Z</time></trkpt><trkpt lat="43.32061" lon="11.3831067"><ele>202.0</ele><time>2026-04-18T12:11:13.04Z</time></trkpt><trkpt lat="43.3206" lon="11.3829483"><ele>202.0</ele><time>2026-04-18T12:11:14.041Z</time></trkpt><trkpt lat="43.3205817" lon="11.3827833"><ele>202.0</ele><time>2026-04-18T12:11:15.04Z</time></trkpt><trkpt lat="43.3205617" lon="11.38261"><ele>201.25</ele><time>2026-04-18T12:11:16.04Z</time></trkpt><trkpt lat="43.3205383" lon="11.3824383"><ele>200.5</ele><time>2026-04-18T12:11:17.041Z</time></trkpt><trkpt lat="43.320515" lon="11.3822717"><ele>199.75</ele><time>2026-04-18T12:11:18.041Z</time></trkpt><trkpt lat="43.32049" lon="11.3821067"><ele>199.0</ele><time>2026-04-18T12:11:19.04Z</time></trkpt><trkpt lat="43.32046" lon="11.3819433"><ele>198.75</ele><time>2026-04-18T12:11:20.04Z</time></trkpt><trkpt lat="43.32043" lon="11.3817733"><ele>198.5</ele><time>2026-04-18T12:11:21.041Z</time></trkpt><trkpt lat="43.320405" lon="11.3816017"><ele>198.25</ele><time>2026-04-18T12:11:22.041Z</time></trkpt><trkpt lat="43.3203767" lon="11.3814183"><ele>198.0</ele><time>2026-04-18T12:11:23.041Z</time></trkpt><trkpt lat="43.3203467" lon="11.3812467"><ele>197.75</ele><time>2026-04-18T12:11:24.041Z</time></trkpt><trkpt lat="43.320325" lon="11.3810733"><ele>197.5</ele><time>2026-04-18T12:11:25.041Z</time></trkpt><trkpt lat="43.3203183" lon="11.380905"><ele>197.25</ele><time>2026-04-18T12:11:26.04Z</time></trkpt><trkpt lat="43.3203233" lon="11.38074"><ele>197.0</ele><time>2026-04-18T12:11:27.04Z</time></trkpt><trkpt lat="43.3203383" lon="11.3805783"><ele>197.0</ele><time>2026-04-18T12:11:28.041Z</time></trkpt><trkpt lat="43.32036" lon="11.380415"><ele>197.0</ele><time>2026-04-18T12:11:29.04Z</time></trkpt><trkpt lat="43.3203833" lon="11.3802517"><ele>197.0</ele><time>2026-04-18T12:11:30.04Z</time></trkpt><trkpt lat="43.32041" lon="11.3800783"><ele>197.0</ele><time>2026-04-18T12:11:31.04Z</time></trkpt><trkpt lat="43.3204317" lon="11.3798967"><ele>197.0</ele><time>2026-04-18T12:11:32.041Z</time></trkpt><trkpt lat="43.3204583" lon="11.3797183"><ele>197.0</ele><time>2026-04-18T12:11:33.041Z</time></trkpt><trkpt lat="43.32048" lon="11.3795333"><ele>197.0</ele><time>2026-04-18T12:11:34.04Z</time></trkpt><trkpt lat="43.3205067" lon="11.3793533"><ele>197.0</ele><time>2026-04-18T12:11:35.04Z</time></trkpt><trkpt lat="43.3205317" lon="11.3791783"><ele>197.75</ele><time>2026-04-18T12:11:36.041Z</time></trkpt><trkpt lat="43.3205617" lon="11.3790017"><ele>198.5</ele><time>2026-04-18T12:11:37.041Z</time></trkpt><trkpt lat="43.320575" lon="11.3788283"><ele>199.25</ele><time>2026-04-18T12:11:38.041Z</time></trkpt><trkpt lat="43.3205883" lon="11.3786483"><ele>200.0</ele><time>2026-04-18T12:11:39.04Z</time></trkpt><trkpt lat="43.3206033" lon="11.378465"><ele>201.5</ele><time>2026-04-18T12:11:40.041Z</time></trkpt><trkpt lat="43.320595" lon="11.3782867"><ele>203.0</ele><time>2026-04-18T12:11:41.04Z</time></trkpt><trkpt lat="43.3205817" lon="11.378095"><ele>204.5</ele><time>2026-04-18T12:11:42.04Z</time></trkpt><trkpt lat="43.3205617" lon="11.3779017"><ele>206.0</ele><time>2026-04-18T12:11:43.04Z</time></trkpt><trkpt lat="43.3205367" lon="11.37771"><ele>208.0</ele><time>2026-04-18T12:11:44.04Z</time></trkpt><trkpt lat="43.32051" lon="11.37752"><ele>210.0</ele><time>2026-04-18T12:11:45.04Z</time></trkpt><trkpt lat="43.3204883" lon="11.3773317"><ele>212.0</ele><time>2026-04-18T12:11:46.04Z</time></trkpt><trkpt lat="43.3204667" lon="11.3771467"><ele>214.0</ele><time>2026-04-18T12:11:47.041Z</time></trkpt><trkpt lat="43.320455" lon="11.3769617"><ele>215.75</ele><time>2026-04-18T12:11:48.04Z</time></trkpt><trkpt lat="43.3204483" lon="11.3767667"><ele>217.5</ele><time>2026-04-18T12:11:49.04Z</time></trkpt><trkpt lat="43.3204583" lon="11.3765767"><ele>219.25</ele><time>2026-04-18T12:11:50.04Z</time></trkpt><trkpt lat="43.3204733" lon="11.3763883"><ele>221.0</ele><time>2026-04-18T12:11:51.04Z</time></trkpt><trkpt lat="43.3204867" lon="11.3762033"><ele>221.0</ele><time>2026-04-18T12:11:52.041Z</time></trkpt><trkpt lat="43.320495" lon="11.3760317"><ele>221.0</ele><time>2026-04-18T12:11:53.04Z</time></trkpt><trkpt lat="43.3205017" lon="11.3758617"><ele>221.0</ele><time>2026-04-18T12:11:54.04Z</time></trkpt><trkpt lat="43.3205033" lon="11.3757033"><ele>221.0</ele><time>2026-04-18T12:11:55.041Z</time></trkpt><trkpt lat="43.32049" lon="11.3755517"><ele>220.5</ele><time>2026-04-18T12:11:56.041Z</time></trkpt><trkpt lat="43.3204383" lon="11.375405"><ele>220.0</ele><time>2026-04-18T12:11:57.041Z</time></trkpt><trkpt lat="43.3203667" lon="11.375275"><ele>219.5</ele><time>2026-04-18T12:11:58.04Z</time></trkpt><trkpt lat="43.3202983" lon="11.3751483"><ele>219.0</ele><time>2026-04-18T12:11:59.04Z</time></trkpt><trkpt lat="43.3202483" lon="11.3750183"><ele>219.0</ele><time>2026-04-18T12:12:00.041Z</time></trkpt><trkpt lat="43.3202367" lon="11.3748883"><ele>219.0</ele><time>2026-04-18T12:12:01.04Z</time></trkpt><trkpt lat="43.3202483" lon="11.3747417"><ele>219.0</ele><time>2026-04-18T12:12:02.04Z</time></trkpt><trkpt lat="43.3202867" lon="11.3745733"><ele>219.0</ele><time>2026-04-18T12:12:03.041Z</time></trkpt><trkpt lat="43.3203333" lon="11.3743917"><ele>219.5</ele><time>2026-04-18T12:12:04.04Z</time></trkpt><trkpt lat="43.3203883" lon="11.3742017"><ele>220.0</ele><time>2026-04-18T12:12:05.041Z</time></trkpt><trkpt lat="43.3204467" lon="11.3740117"><ele>220.5</ele><time>2026-04-18T12:12:06.041Z</time></trkpt><trkpt lat="43.320505" lon="11.3738233"><ele>221.0</ele><time>2026-04-18T12:12:07.04Z</time></trkpt><trkpt lat="43.3205717" lon="11.37364"><ele>223.0</ele><time>2026-04-18T12:12:08.04Z</time></trkpt><trkpt lat="43.32065" lon="11.3734633"><ele>225.0</ele><time>2026-04-18T12:12:09.04Z</time></trkpt><trkpt lat="43.3207317" lon="11.373295"><ele>227.0</ele><time>2026-04-18T12:12:10.04Z</time></trkpt><trkpt lat="43.3208183" lon="11.3731417"><ele>229.0</ele><time>2026-04-18T12:12:11.041Z</time></trkpt><trkpt lat="43.3208967" lon="11.3729983"><ele>231.25</ele><time>2026-04-18T12:12:12.04Z</time></trkpt><trkpt lat="43.3209633" lon="11.3728467"><ele>233.5</ele><time>2026-04-18T12:12:13.04Z</time></trkpt><trkpt lat="43.3210183" lon="11.3726783"><ele>235.75</ele><time>2026-04-18T12:12:14.04Z</time></trkpt><trkpt lat="43.32106" lon="11.3725"><ele>238.0</ele><time>2026-04-18T12:12:15.04Z</time></trkpt><trkpt lat="43.3210883" lon="11.3723033"><ele>240.25</ele><time>2026-04-18T12:12:16.04Z</time></trkpt><trkpt lat="43.3211133" lon="11.3721117"><ele>242.5</ele><time>2026-04-18T12:12:17.041Z</time></trkpt><trkpt lat="43.3211417" lon="11.37191"><ele>244.75</ele><time>2026-04-18T12:12:18.04Z</time></trkpt><trkpt lat="43.3211683" lon="11.3717083"><ele>247.0</ele><time>2026-04-18T12:12:19.04Z</time></trkpt><trkpt lat="43.321195" lon="11.3715067"><ele>248.25</ele><time>2026-04-18T12:12:20.041Z</time></trkpt><trkpt lat="43.3212083" lon="11.3713033"><ele>249.5</ele><time>2026-04-18T12:12:21.04Z</time></trkpt><trkpt lat="43.321235" lon="11.3711"><ele>250.75</ele><time>2026-04-18T12:12:22.04Z</time></trkpt><trkpt lat="43.32128" lon="11.3709067"><ele>252.0</ele><time>2026-04-18T12:12:23.04Z</time></trkpt><trkpt lat="43.32134" lon="11.370715"><ele>252.0</ele><time>2026-04-18T12:12:24.04Z</time></trkpt><trkpt lat="43.3214117" lon="11.3705417"><ele>252.0</ele><time>2026-04-18T12:12:25.04Z</time></trkpt><trkpt lat="43.32149" lon="11.3703683"><ele>252.0</ele><time>2026-04-18T12:12:26.04Z</time></trkpt><trkpt lat="43.3215817" lon="11.3701917"><ele>252.0</ele><time>2026-04-18T12:12:27.04Z</time></trkpt><trkpt lat="43.3216767" lon="11.37002"><ele>252.0</ele><time>2026-04-18T12:12:28.04Z</time></trkpt><trkpt lat="43.32177" lon="11.369855"><ele>252.0</ele><time>2026-04-18T12:12:29.04Z</time></trkpt><trkpt lat="43.3218517" lon="11.3697083"><ele>252.0</ele><time>2026-04-18T12:12:30.041Z</time></trkpt><trkpt lat="43.3219217" lon="11.3695717"><ele>253.5</ele><time>2026-04-18T12:12:31.04Z</time></trkpt><trkpt lat="43.32198" lon="11.3694533"><ele>255.0</ele><time>2026-04-18T12:12:32.04Z</time></trkpt><trkpt lat="43.3220267" lon="11.3693567"><ele>256.5</ele><time>2026-04-18T12:12:33.041Z</time></trkpt><trkpt lat="43.32204" lon="11.3692583"><ele>258.0</ele><time>2026-04-18T12:12:34.04Z</time></trkpt><trkpt lat="43.3219783" lon="11.369135"><ele>259.5</ele><time>2026-04-18T12:12:36.041Z</time></trkpt><trkpt lat="43.32191" lon="11.3691317"><ele>261.0</ele><time>2026-04-18T12:12:37.041Z</time></trkpt><trkpt lat="43.32183" lon="11.3691817"><ele>261.0</ele><time>2026-04-18T12:12:38.04Z</time></trkpt><trkpt lat="43.3217533" lon="11.36926"><ele>261.0</ele><time>2026-04-18T12:12:39.04Z</time></trkpt><trkpt lat="43.3216683" lon="11.3693417"><ele>261.0</ele><time>2026-04-18T12:12:40.04Z</time></trkpt><trkpt lat="43.3215867" lon="11.3693983"><ele>261.0</ele><time>2026-04-18T12:12:41.041Z</time></trkpt><trkpt lat="43.321495" lon="11.36941"><ele>261.0</ele><time>2026-04-18T12:12:42.041Z</time></trkpt><trkpt lat="43.3214" lon="11.369375"><ele>261.5</ele><time>2026-04-18T12:12:43.041Z</time></trkpt><trkpt lat="43.32131" lon="11.3693017"><ele>262.0</ele><time>2026-04-18T12:12:44.04Z</time></trkpt><trkpt lat="43.32122" lon="11.369195"><ele>262.5</ele><time>2026-04-18T12:12:45.04Z</time></trkpt><trkpt lat="43.3211283" lon="11.3690833"><ele>263.0</ele><time>2026-04-18T12:12:46.04Z</time></trkpt><trkpt lat="43.3210483" lon="11.3689917"><ele>263.0</ele><time>2026-04-18T12:12:47.04Z</time></trkpt><trkpt lat="43.3209883" lon="11.3689067"><ele>263.0</ele><time>2026-04-18T12:12:48.041Z</time></trkpt><trkpt lat="43.320945" lon="11.368815"><ele>263.0</ele><time>2026-04-18T12:12:49.041Z</time></trkpt><trkpt lat="43.320925" lon="11.3687217"><ele>263.0</ele><time>2026-04-18T12:12:50.04Z</time></trkpt><trkpt lat="43.320935" lon="11.368625"><ele>263.0</ele><time>2026-04-18T12:12:51.04Z</time></trkpt><trkpt lat="43.3209683" lon="11.368515"><ele>263.0</ele><time>2026-04-18T12:12:52.04Z</time></trkpt><trkpt lat="43.32101" lon="11.368385"><ele>263.0</ele><time>2026-04-18T12:12:53.04Z</time></trkpt><trkpt lat="43.3210583" lon="11.368235"><ele>263.0</ele><time>2026-04-18T12:12:54.041Z</time></trkpt><trkpt lat="43.3210783" lon="11.3680683"><ele>263.0</ele><time>2026-04-18T12:12:55.04Z</time></trkpt><trkpt lat="43.3210983" lon="11.3678933"><ele>263.0</ele><time>2026-04-18T12:12:56.04Z</time></trkpt><trkpt lat="43.3211" lon="11.3677117"><ele>264.0</ele><time>2026-04-18T12:12:57.041Z</time></trkpt><trkpt lat="43.3211033" lon="11.3675267"><ele>265.0</ele><time>2026-04-18T12:12:58.041Z</time></trkpt><trkpt lat="43.321115" lon="11.3673333"><ele>266.0</ele><time>2026-04-18T12:12:59.04Z</time></trkpt><trkpt lat="43.3211233" lon="11.3671417"><ele>267.0</ele><time>2026-04-18T12:13:00.04Z</time></trkpt><trkpt lat="43.32113" lon="11.3669633"><ele>268.0</ele><time>2026-04-18T12:13:01.041Z</time></trkpt><trkpt lat="43.3211317" lon="11.3667933"><ele>269.0</ele><time>2026-04-18T12:13:02.04Z</time></trkpt><trkpt lat="43.3211067" lon="11.3666333"><ele>270.0</ele><time>2026-04-18T12:13:03.04Z</time></trkpt><trkpt lat="43.3210833" lon="11.3664817"><ele>271.0</ele><time>2026-04-18T12:13:04.039Z</time></trkpt><trkpt lat="43.32106" lon="11.3663467"><ele>271.0</ele><time>2026-04-18T12:13:05.04Z</time></trkpt><trkpt lat="43.3210433" lon="11.3662233"><ele>271.0</ele><time>2026-04-18T12:13:06.039Z</time></trkpt><trkpt lat="43.3210433" lon="11.3661083"><ele>271.0</ele><time>2026-04-18T12:13:07.039Z</time></trkpt><trkpt lat="43.3210383" lon="11.365995"><ele>271.0</ele><time>2026-04-18T12:13:08.039Z</time></trkpt><trkpt lat="43.3210117" lon="11.3658683"><ele>271.0</ele><time>2026-04-18T12:13:09.039Z</time></trkpt><trkpt lat="43.3209717" lon="11.36573"><ele>271.0</ele><time>2026-04-18T12:13:10.039Z</time></trkpt><trkpt lat="43.3209267" lon="11.3655883"><ele>271.0</ele><time>2026-04-18T12:13:11.039Z</time></trkpt><trkpt lat="43.3208767" lon="11.3654367"><ele>271.0</ele><time>2026-04-18T12:13:12.04Z</time></trkpt><trkpt lat="43.3208217" lon="11.3652867"><ele>271.0</ele><time>2026-04-18T12:13:13.039Z</time></trkpt><trkpt lat="43.32077" lon="11.3651483"><ele>271.25</ele><time>2026-04-18T12:13:14.039Z</time></trkpt><trkpt lat="43.32072" lon="11.3650067"><ele>271.5</ele><time>2026-04-18T12:13:15.039Z</time></trkpt><trkpt lat="43.32066" lon="11.3648767"><ele>271.75</ele><time>2026-04-18T12:13:16.039Z</time></trkpt><trkpt lat="43.3205917" lon="11.3647483"><ele>272.0</ele><time>2026-04-18T12:13:17.039Z</time></trkpt><trkpt lat="43.32052" lon="11.364625"><ele>272.4</ele><time>2026-04-18T12:13:18.04Z</time></trkpt><trkpt lat="43.3204467" lon="11.3645"><ele>272.79999999999995</ele><time>2026-04-18T12:13:19.04Z</time></trkpt><trkpt lat="43.3203833" lon="11.3643833"><ele>273.2</ele><time>2026-04-18T12:13:20.039Z</time></trkpt><trkpt lat="43.320315" lon="11.36427"><ele>273.59999999999997</ele><time>2026-04-18T12:13:21.039Z</time></trkpt><trkpt lat="43.3202467" lon="11.36415"><ele>274.0</ele><time>2026-04-18T12:13:22.04Z</time></trkpt><trkpt lat="43.3201767" lon="11.3640317"><ele>274.0</ele><time>2026-04-18T12:13:23.039Z</time></trkpt><trkpt lat="43.3201033" lon="11.36391"><ele>274.0</ele><time>2026-04-18T12:13:24.039Z</time></trkpt><trkpt lat="43.320035" lon="11.363785"><ele>274.0</ele><time>2026-04-18T12:13:25.04Z</time></trkpt><trkpt lat="43.31995" lon="11.3636667"><ele>274.0</ele><time>2026-04-18T12:13:26.039Z</time></trkpt><trkpt lat="43.31986" lon="11.3635467"><ele>274.75</ele><time>2026-04-18T12:13:27.039Z</time></trkpt><trkpt lat="43.3197683" lon="11.3634317"><ele>275.5</ele><time>2026-04-18T12:13:28.039Z</time></trkpt><trkpt lat="43.319675" lon="11.3633233"><ele>276.25</ele><time>2026-04-18T12:13:29.039Z</time></trkpt><trkpt lat="43.319595" lon="11.3631983"><ele>277.0</ele><time>2026-04-18T12:13:30.04Z</time></trkpt><trkpt lat="43.3195267" lon="11.363065"><ele>275.6</ele><time>2026-04-18T12:13:31.04Z</time></trkpt><trkpt lat="43.3194683" lon="11.3629317"><ele>274.2</ele><time>2026-04-18T12:13:32.04Z</time></trkpt><trkpt lat="43.31943" lon="11.3627867"><ele>272.8</ele><time>2026-04-18T12:13:33.04Z</time></trkpt><trkpt lat="43.319395" lon="11.3626417"><ele>271.4</ele><time>2026-04-18T12:13:34.04Z</time></trkpt><trkpt lat="43.3193417" lon="11.3625117"><ele>270.0</ele><time>2026-04-18T12:13:35.04Z</time></trkpt><trkpt lat="43.3192717" lon="11.3623867"><ele>270.0</ele><time>2026-04-18T12:13:36.039Z</time></trkpt><trkpt lat="43.3191867" lon="11.3622667"><ele>270.0</ele><time>2026-04-18T12:13:37.039Z</time></trkpt><trkpt lat="43.3191017" lon="11.3621367"><ele>270.0</ele><time>2026-04-18T12:13:38.039Z</time></trkpt><trkpt lat="43.3190133" lon="11.3620067"><ele>270.0</ele><time>2026-04-18T12:13:39.039Z</time></trkpt><trkpt lat="43.318925" lon="11.3618667"><ele>269.0</ele><time>2026-04-18T12:13:40.039Z</time></trkpt><trkpt lat="43.3188417" lon="11.36174"><ele>268.0</ele><time>2026-04-18T12:13:41.04Z</time></trkpt><trkpt lat="43.31877" lon="11.3616"><ele>267.0</ele><time>2026-04-18T12:13:42.039Z</time></trkpt><trkpt lat="43.31871" lon="11.3614683"><ele>266.0</ele><time>2026-04-18T12:13:43.039Z</time></trkpt><trkpt lat="43.3186517" lon="11.3613217"><ele>264.40000000000003</ele><time>2026-04-18T12:13:44.04Z</time></trkpt><trkpt lat="43.3186017" lon="11.3611783"><ele>262.8</ele><time>2026-04-18T12:13:45.039Z</time></trkpt><trkpt lat="43.3185467" lon="11.36104"><ele>261.20000000000005</ele><time>2026-04-18T12:13:46.039Z</time></trkpt><trkpt lat="43.318495" lon="11.36091"><ele>259.6</ele><time>2026-04-18T12:13:47.039Z</time></trkpt><trkpt lat="43.3184483" lon="11.3607833"><ele>258.0</ele><time>2026-04-18T12:13:48.04Z</time></trkpt><trkpt lat="43.31839" lon="11.3606667"><ele>258.0</ele><time>2026-04-18T12:13:49.039Z</time></trkpt><trkpt lat="43.31834" lon="11.36054"><ele>258.0</ele><time>2026-04-18T12:13:50.039Z</time></trkpt><trkpt lat="43.3182867" lon="11.36042"><ele>258.0</ele><time>2026-04-18T12:13:51.04Z</time></trkpt><trkpt lat="43.31823" lon="11.3603033"><ele>258.0</ele><time>2026-04-18T12:13:52.039Z</time></trkpt><trkpt lat="43.3181767" lon="11.36019"><ele>258.0</ele><time>2026-04-18T12:13:53.04Z</time></trkpt><trkpt lat="43.31812" lon="11.360085"><ele>256.6</ele><time>2026-04-18T12:13:54.039Z</time></trkpt><trkpt lat="43.3180617" lon="11.35999"><ele>255.20000000000002</ele><time>2026-04-18T12:13:55.039Z</time></trkpt><trkpt lat="43.3180017" lon="11.3598933"><ele>253.8</ele><time>2026-04-18T12:13:56.039Z</time></trkpt><trkpt lat="43.3179433" lon="11.35979"><ele>252.4</ele><time>2026-04-18T12:13:57.039Z</time></trkpt><trkpt lat="43.3178967" lon="11.3596783"><ele>251.0</ele><time>2026-04-18T12:13:58.039Z</time></trkpt><trkpt lat="43.3178467" lon="11.3595467"><ele>249.0</ele><time>2026-04-18T12:13:59.039Z</time></trkpt><trkpt lat="43.3178033" lon="11.3594067"><ele>247.00000000000003</ele><time>2026-04-18T12:14:00.04Z</time></trkpt><trkpt lat="43.3177783" lon="11.3592633"><ele>245.00000000000003</ele><time>2026-04-18T12:14:01.039Z</time></trkpt><trkpt lat="43.3177617" lon="11.3591167"><ele>243.0</ele><time>2026-04-18T12:14:02.039Z</time></trkpt><trkpt lat="43.3177333" lon="11.3589717"><ele>241.0</ele><time>2026-04-18T12:14:03.039Z</time></trkpt><trkpt lat="43.3176933" lon="11.358835"><ele>240.20000000000002</ele><time>2026-04-18T12:14:04.039Z</time></trkpt><trkpt lat="43.31765" lon="11.3587083"><ele>239.40000000000003</ele><time>2026-04-18T12:14:05.039Z</time></trkpt><trkpt lat="43.3175933" lon="11.3585817"><ele>238.6</ele><time>2026-04-18T12:14:06.039Z</time></trkpt><trkpt lat="43.3175133" lon="11.3584767"><ele>237.8</ele><time>2026-04-18T12:14:07.04Z</time></trkpt><trkpt lat="43.3174133" lon="11.358395"><ele>237.0</ele><time>2026-04-18T12:14:08.04Z</time></trkpt><trkpt lat="43.317305" lon="11.3583333"><ele>235.25</ele><time>2026-04-18T12:14:09.039Z</time></trkpt><trkpt lat="43.31718" lon="11.3582983"><ele>233.5</ele><time>2026-04-18T12:14:10.04Z</time></trkpt><trkpt lat="43.317055" lon="11.358285"><ele>231.75</ele><time>2026-04-18T12:14:11.04Z</time></trkpt><trkpt lat="43.3169267" lon="11.3582733"><ele>230.0</ele><time>2026-04-18T12:14:12.039Z</time></trkpt><trkpt lat="43.3168117" lon="11.358255"><ele>230.0</ele><time>2026-04-18T12:14:13.04Z</time></trkpt><trkpt lat="43.3167083" lon="11.35821"><ele>230.0</ele><time>2026-04-18T12:14:14.039Z</time></trkpt><trkpt lat="43.3166183" lon="11.358125"><ele>230.0</ele><time>2026-04-18T12:14:15.039Z</time></trkpt><trkpt lat="43.3165433" lon="11.35801"><ele>230.0</ele><time>2026-04-18T12:14:16.04Z</time></trkpt><trkpt lat="43.3164733" lon="11.357875"><ele>230.5</ele><time>2026-04-18T12:14:17.039Z</time></trkpt><trkpt lat="43.316405" lon="11.357745"><ele>231.0</ele><time>2026-04-18T12:14:18.039Z</time></trkpt><trkpt lat="43.31633" lon="11.3576317"><ele>231.5</ele><time>2026-04-18T12:14:19.039Z</time></trkpt><trkpt lat="43.3162517" lon="11.3575183"><ele>232.0</ele><time>2026-04-18T12:14:20.039Z</time></trkpt><trkpt lat="43.3161867" lon="11.3573933"><ele>230.75</ele><time>2026-04-18T12:14:21.04Z</time></trkpt><trkpt lat="43.3161383" lon="11.3572567"><ele>229.5</ele><time>2026-04-18T12:14:22.039Z</time></trkpt><trkpt lat="43.3160967" lon="11.3571033"><ele>228.25</ele><time>2026-04-18T12:14:23.039Z</time></trkpt><trkpt lat="43.3160733" lon="11.356955"><ele>227.0</ele><time>2026-04-18T12:14:24.04Z</time></trkpt><trkpt lat="43.3160567" lon="11.356805"><ele>226.8</ele><time>2026-04-18T12:14:25.039Z</time></trkpt><trkpt lat="43.3160483" lon="11.3566633"><ele>226.6</ele><time>2026-04-18T12:14:26.04Z</time></trkpt><trkpt lat="43.3160417" lon="11.356535"><ele>226.40000000000003</ele><time>2026-04-18T12:14:27.04Z</time></trkpt><trkpt lat="43.316035" lon="11.3564267"><ele>226.20000000000002</ele><time>2026-04-18T12:14:28.039Z</time></trkpt><trkpt lat="43.31604" lon="11.3562767"><ele>226.0</ele><time>2026-04-18T12:14:30.039Z</time></trkpt><trkpt lat="43.3160633" lon="11.3561467"><ele>225.75</ele><time>2026-04-18T12:14:33.039Z</time></trkpt><trkpt lat="43.316105" lon="11.356025"><ele>225.5</ele><time>2026-04-18T12:14:35.039Z</time></trkpt><trkpt lat="43.3161617" lon="11.3558917"><ele>225.25</ele><time>2026-04-18T12:14:37.039Z</time></trkpt><trkpt lat="43.3162433" lon="11.3557733"><ele>225.0</ele><time>2026-04-18T12:14:39.04Z</time></trkpt><trkpt lat="43.3163233" lon="11.355645"><ele>225.0</ele><time>2026-04-18T12:14:41.04Z</time></trkpt><trkpt lat="43.3163633" lon="11.3555767"><ele>225.0</ele><time>2026-04-18T12:14:42.04Z</time></trkpt><trkpt lat="43.316395" lon="11.3555017"><ele>225.0</ele><time>2026-04-18T12:14:43.04Z</time></trkpt><trkpt lat="43.31638" lon="11.355335"><ele>225.0</ele><time>2026-04-18T12:14:45.039Z</time></trkpt><trkpt lat="43.3163233" lon="11.3552717"><ele>225.0</ele><time>2026-04-18T12:14:46.04Z</time></trkpt><trkpt lat="43.31626" lon="11.3552383"><ele>225.0</ele><time>2026-04-18T12:14:47.039Z</time></trkpt><trkpt lat="43.3161933" lon="11.3552433"><ele>225.0</ele><time>2026-04-18T12:14:48.04Z</time></trkpt><trkpt lat="43.3161367" lon="11.3553017"><ele>225.0</ele><time>2026-04-18T12:14:49.039Z</time></trkpt><trkpt lat="43.3160967" lon="11.3553867"><ele>225.0</ele><time>2026-04-18T12:14:50.04Z</time></trkpt><trkpt lat="43.3160683" lon="11.3554883"><ele>225.0</ele><time>2026-04-18T12:14:51.039Z</time></trkpt><trkpt lat="43.3160517" lon="11.3556017"><ele>225.0</ele><time>2026-04-18T12:14:52.04Z</time></trkpt><trkpt lat="43.31602" lon="11.355725"><ele>225.0</ele><time>2026-04-18T12:14:53.04Z</time></trkpt><trkpt lat="43.3159683" lon="11.35584"><ele>225.0</ele><time>2026-04-18T12:14:54.039Z</time></trkpt><trkpt lat="43.315905" lon="11.3559367"><ele>225.0</ele><time>2026-04-18T12:14:55.039Z</time></trkpt><trkpt lat="43.3158283" lon="11.3560283"><ele>225.0</ele><time>2026-04-18T12:14:56.039Z</time></trkpt><trkpt lat="43.315755" lon="11.3561167"><ele>225.0</ele><time>2026-04-18T12:14:57.039Z</time></trkpt><trkpt lat="43.3156833" lon="11.3562017"><ele>225.0</ele><time>2026-04-18T12:14:58.039Z</time></trkpt><trkpt lat="43.31561" lon="11.3562833"><ele>225.0</ele><time>2026-04-18T12:14:59.039Z</time></trkpt><trkpt lat="43.31553" lon="11.3563683"><ele>225.0</ele><time>2026-04-18T12:15:00.039Z</time></trkpt><trkpt lat="43.31546" lon="11.3564533"><ele>225.0</ele><time>2026-04-18T12:15:01.04Z</time></trkpt><trkpt lat="43.31538" lon="11.3565333"><ele>225.0</ele><time>2026-04-18T12:15:02.04Z</time></trkpt><trkpt lat="43.3153033" lon="11.35661"><ele>225.0</ele><time>2026-04-18T12:15:03.04Z</time></trkpt><trkpt lat="43.315235" lon="11.3567017"><ele>225.0</ele><time>2026-04-18T12:15:04.039Z</time></trkpt><trkpt lat="43.31517" lon="11.3568033"><ele>225.0</ele><time>2026-04-18T12:15:05.039Z</time></trkpt><trkpt lat="43.3151017" lon="11.3569083"><ele>225.0</ele><time>2026-04-18T12:15:06.04Z</time></trkpt><trkpt lat="43.315025" lon="11.3570133"><ele>225.0</ele><time>2026-04-18T12:15:07.039Z</time></trkpt><trkpt lat="43.3149467" lon="11.3571267"><ele>225.0</ele><time>2026-04-18T12:15:08.039Z</time></trkpt><trkpt lat="43.3148667" lon="11.3572367"><ele>225.0</ele><time>2026-04-18T12:15:09.04Z</time></trkpt><trkpt lat="43.3147867" lon="11.357345"><ele>225.0</ele><time>2026-04-18T12:15:10.039Z</time></trkpt><trkpt lat="43.314705" lon="11.357455"><ele>225.0</ele><time>2026-04-18T12:15:11.039Z</time></trkpt><trkpt lat="43.3146233" lon="11.3575633"><ele>225.0</ele><time>2026-04-18T12:15:12.039Z</time></trkpt><trkpt lat="43.3145433" lon="11.3576683"><ele>225.0</ele><time>2026-04-18T12:15:13.039Z</time></trkpt><trkpt lat="43.3144617" lon="11.3577733"><ele>225.0</ele><time>2026-04-18T12:15:14.04Z</time></trkpt><trkpt lat="43.3143767" lon="11.3578767"><ele>225.0</ele><time>2026-04-18T12:15:15.039Z</time></trkpt><trkpt lat="43.3142983" lon="11.357975"><ele>225.0</ele><time>2026-04-18T12:15:16.039Z</time></trkpt><trkpt lat="43.314225" lon="11.3580733"><ele>225.0</ele><time>2026-04-18T12:15:17.039Z</time></trkpt><trkpt lat="43.314145" lon="11.35816"><ele>225.0</ele><time>2026-04-18T12:15:18.039Z</time></trkpt><trkpt lat="43.3140717" lon="11.35825"><ele>225.0</ele><time>2026-04-18T12:15:19.04Z</time></trkpt><trkpt lat="43.3139783" lon="11.3583283"><ele>225.0</ele><time>2026-04-18T12:15:20.039Z</time></trkpt><trkpt lat="43.313885" lon="11.3584083"><ele>225.0</ele><time>2026-04-18T12:15:21.039Z</time></trkpt><trkpt lat="43.3137933" lon="11.35848"><ele>225.0</ele><time>2026-04-18T12:15:22.039Z</time></trkpt><trkpt lat="43.3136983" lon="11.358545"><ele>224.2</ele><time>2026-04-18T12:15:23.04Z</time></trkpt><trkpt lat="43.3136" lon="11.3586067"><ele>223.4</ele><time>2026-04-18T12:15:24.04Z</time></trkpt><trkpt lat="43.3135" lon="11.3586617"><ele>222.60000000000002</ele><time>2026-04-18T12:15:25.04Z</time></trkpt><trkpt lat="43.3134017" lon="11.3587167"><ele>221.8</ele><time>2026-04-18T12:15:26.039Z</time></trkpt><trkpt lat="43.313305" lon="11.3587667"><ele>221.0</ele><time>2026-04-18T12:15:27.039Z</time></trkpt><trkpt lat="43.3132117" lon="11.358815"><ele>221.00000000000003</ele><time>2026-04-18T12:15:28.039Z</time></trkpt><trkpt lat="43.3131217" lon="11.358855"><ele>221.0</ele><time>2026-04-18T12:15:29.04Z</time></trkpt><trkpt lat="43.3130383" lon="11.35889"><ele>221.0</ele><time>2026-04-18T12:15:30.04Z</time></trkpt><trkpt lat="43.3129617" lon="11.3589167"><ele>221.0</ele><time>2026-04-18T12:15:31.039Z</time></trkpt><trkpt lat="43.3128983" lon="11.3589317"><ele>221.00000000000003</ele><time>2026-04-18T12:15:32.039Z</time></trkpt><trkpt lat="43.3127983" lon="11.3589317"><ele>221.0</ele><time>2026-04-18T12:15:34.039Z</time></trkpt><trkpt lat="43.3126683" lon="11.3589117"><ele>220.75</ele><time>2026-04-18T12:15:36.039Z</time></trkpt><trkpt lat="43.3125617" lon="11.3589933"><ele>220.5</ele><time>2026-04-18T12:15:38.039Z</time></trkpt><trkpt lat="43.312565" lon="11.3591567"><ele>220.25</ele><time>2026-04-18T12:15:40.039Z</time></trkpt><trkpt lat="43.3126583" lon="11.359255"><ele>220.0</ele><time>2026-04-18T12:15:42.04Z</time></trkpt><trkpt lat="43.3127833" lon="11.35921"><ele>220.0</ele><time>2026-04-18T12:15:44.039Z</time></trkpt><trkpt lat="43.3128533" lon="11.3591267"><ele>220.0</ele><time>2026-04-18T12:15:45.039Z</time></trkpt><trkpt lat="43.3129367" lon="11.3590367"><ele>220.0</ele><time>2026-04-18T12:15:46.039Z</time></trkpt><trkpt lat="43.31304" lon="11.3589567"><ele>220.0</ele><time>2026-04-18T12:15:47.039Z</time></trkpt><trkpt lat="43.3131517" lon="11.3589"><ele>220.0</ele><time>2026-04-18T12:15:48.039Z</time></trkpt><trkpt lat="43.3132667" lon="11.358845"><ele>220.2</ele><time>2026-04-18T12:15:49.039Z</time></trkpt><trkpt lat="43.3133633" lon="11.3587917"><ele>220.4</ele><time>2026-04-18T12:15:50.039Z</time></trkpt><trkpt lat="43.313455" lon="11.358745"><ele>220.60000000000002</ele><time>2026-04-18T12:15:51.039Z</time></trkpt><trkpt lat="43.3135433" lon="11.3587"><ele>220.8</ele><time>2026-04-18T12:15:52.04Z</time></trkpt><trkpt lat="43.3136317" lon="11.3586533"><ele>221.0</ele><time>2026-04-18T12:15:53.04Z</time></trkpt><trkpt lat="43.3137217" lon="11.3586017"><ele>221.0</ele><time>2026-04-18T12:15:54.04Z</time></trkpt><trkpt lat="43.3138067" lon="11.3585417"><ele>221.00000000000003</ele><time>2026-04-18T12:15:55.039Z</time></trkpt><trkpt lat="43.31389" lon="11.35849"><ele>221.00000000000003</ele><time>2026-04-18T12:15:56.039Z</time></trkpt><trkpt lat="43.313975" lon="11.3584217"><ele>221.0</ele><time>2026-04-18T12:15:57.039Z</time></trkpt><trkpt lat="43.314055" lon="11.3583533"><ele>221.0</ele><time>2026-04-18T12:15:58.04Z</time></trkpt><trkpt lat="43.31413" lon="11.3582833"><ele>221.66666666666669</ele><time>2026-04-18T12:15:59.039Z</time></trkpt><trkpt lat="43.3141967" lon="11.358205"><ele>222.33333333333334</ele><time>2026-04-18T12:16:00.04Z</time></trkpt><trkpt lat="43.3142567" lon="11.358125"><ele>223.0</ele><time>2026-04-18T12:16:01.04Z</time></trkpt><trkpt lat="43.3143183" lon="11.3580433"><ele>223.66666666666669</ele><time>2026-04-18T12:16:02.04Z</time></trkpt><trkpt lat="43.3143867" lon="11.3579517"><ele>224.33333333333334</ele><time>2026-04-18T12:16:03.04Z</time></trkpt><trkpt lat="43.3144433" lon="11.3578617"><ele>225.0</ele><time>2026-04-18T12:16:04.04Z</time></trkpt><trkpt lat="43.3145117" lon="11.3577667"><ele>225.0</ele><time>2026-04-18T12:16:05.04Z</time></trkpt><trkpt lat="43.314585" lon="11.3576817"><ele>225.0</ele><time>2026-04-18T12:16:06.039Z</time></trkpt><trkpt lat="43.314665" lon="11.357585"><ele>225.0</ele><time>2026-04-18T12:16:07.039Z</time></trkpt><trkpt lat="43.3147417" lon="11.3574883"><ele>225.0</ele><time>2026-04-18T12:16:08.039Z</time></trkpt><trkpt lat="43.314825" lon="11.3574067"><ele>225.0</ele><time>2026-04-18T12:16:09.039Z</time></trkpt><trkpt lat="43.3149033" lon="11.357325"><ele>225.0</ele><time>2026-04-18T12:16:10.04Z</time></trkpt><trkpt lat="43.3149817" lon="11.35724"><ele>225.0</ele><time>2026-04-18T12:16:11.04Z</time></trkpt><trkpt lat="43.3150567" lon="11.3571567"><ele>225.0</ele><time>2026-04-18T12:16:12.04Z</time></trkpt><trkpt lat="43.31514" lon="11.3570717"><ele>225.0</ele><time>2026-04-18T12:16:13.039Z</time></trkpt><trkpt lat="43.31522" lon="11.3569817"><ele>225.0</ele><time>2026-04-18T12:16:14.04Z</time></trkpt><trkpt lat="43.3153033" lon="11.35689"><ele>225.0</ele><time>2026-04-18T12:16:15.039Z</time></trkpt><trkpt lat="43.3153867" lon="11.3567983"><ele>225.0</ele><time>2026-04-18T12:16:16.04Z</time></trkpt><trkpt lat="43.3154617" lon="11.3567017"><ele>225.0</ele><time>2026-04-18T12:16:17.039Z</time></trkpt><trkpt lat="43.3155483" lon="11.356615"><ele>225.0</ele><time>2026-04-18T12:16:18.04Z</time></trkpt><trkpt lat="43.315635" lon="11.3565133"><ele>225.0</ele><time>2026-04-18T12:16:19.04Z</time></trkpt><trkpt lat="43.31572" lon="11.356415"><ele>225.0</ele><time>2026-04-18T12:16:20.039Z</time></trkpt><trkpt lat="43.3158033" lon="11.356335"><ele>225.0</ele><time>2026-04-18T12:16:21.04Z</time></trkpt><trkpt lat="43.3158817" lon="11.356245"><ele>225.0</ele><time>2026-04-18T12:16:22.04Z</time></trkpt><trkpt lat="43.31596" lon="11.3561583"><ele>225.0</ele><time>2026-04-18T12:16:23.04Z</time></trkpt><trkpt lat="43.3160317" lon="11.3560733"><ele>225.0</ele><time>2026-04-18T12:16:24.04Z</time></trkpt><trkpt lat="43.3160967" lon="11.35598"><ele>225.0</ele><time>2026-04-18T12:16:25.039Z</time></trkpt><trkpt lat="43.31615" lon="11.3559"><ele>225.0</ele><time>2026-04-18T12:16:26.039Z</time></trkpt><trkpt lat="43.316195" lon="11.3558067"><ele>225.0</ele><time>2026-04-18T12:16:27.04Z</time></trkpt><trkpt lat="43.316255" lon="11.3557267"><ele>225.0</ele><time>2026-04-18T12:16:28.04Z</time></trkpt><trkpt lat="43.316315" lon="11.355645"><ele>225.0</ele><time>2026-04-18T12:16:29.04Z</time></trkpt><trkpt lat="43.31637" lon="11.3555567"><ele>225.0</ele><time>2026-04-18T12:16:30.039Z</time></trkpt><trkpt lat="43.3163967" lon="11.35547"><ele>225.33333333333334</ele><time>2026-04-18T12:16:31.039Z</time></trkpt><trkpt lat="43.3163883" lon="11.355375"><ele>225.66666666666669</ele><time>2026-04-18T12:16:32.038Z</time></trkpt><trkpt lat="43.3163517" lon="11.355295"><ele>226.0</ele><time>2026-04-18T12:16:33.038Z</time></trkpt><trkpt lat="43.3163" lon="11.355235"><ele>226.33333333333334</ele><time>2026-04-18T12:16:34.039Z</time></trkpt><trkpt lat="43.3162283" lon="11.3552083"><ele>226.66666666666669</ele><time>2026-04-18T12:16:35.038Z</time></trkpt><trkpt lat="43.316115" lon="11.3553017"><ele>227.0</ele><time>2026-04-18T12:16:37.038Z</time></trkpt><trkpt lat="43.3160817" lon="11.3554133"><ele>226.66666666666669</ele><time>2026-04-18T12:16:38.039Z</time></trkpt><trkpt lat="43.3160617" lon="11.3555433"><ele>226.33333333333334</ele><time>2026-04-18T12:16:39.038Z</time></trkpt><trkpt lat="43.3160333" lon="11.35567"><ele>226.0</ele><time>2026-04-18T12:16:40.038Z</time></trkpt><trkpt lat="43.3159967" lon="11.3557783"><ele>225.66666666666669</ele><time>2026-04-18T12:16:41.038Z</time></trkpt><trkpt lat="43.3159517" lon="11.3558633"><ele>225.33333333333334</ele><time>2026-04-18T12:16:42.039Z</time></trkpt><trkpt lat="43.3159" lon="11.3559283"><ele>225.0</ele><time>2026-04-18T12:16:43.038Z</time></trkpt><trkpt lat="43.3158417" lon="11.355965"><ele>225.0</ele><time>2026-04-18T12:16:44.038Z</time></trkpt><trkpt lat="43.315735" lon="11.35596"><ele>225.0</ele><time>2026-04-18T12:16:46.038Z</time></trkpt><trkpt lat="43.3156733" lon="11.35591"><ele>225.0</ele><time>2026-04-18T12:16:47.039Z</time></trkpt><trkpt lat="43.3155917" lon="11.355865"><ele>225.0</ele><time>2026-04-18T12:16:48.038Z</time></trkpt><trkpt lat="43.3154817" lon="11.3558267"><ele>225.0</ele><time>2026-04-18T12:16:49.038Z</time></trkpt><trkpt lat="43.31537" lon="11.355795"><ele>225.8</ele><time>2026-04-18T12:16:50.038Z</time></trkpt><trkpt lat="43.3152583" lon="11.35579"><ele>226.6</ele><time>2026-04-18T12:16:51.038Z</time></trkpt><trkpt lat="43.31516" lon="11.35582"><ele>227.39999999999998</ele><time>2026-04-18T12:16:52.038Z</time></trkpt><trkpt lat="43.315065" lon="11.3558983"><ele>228.2</ele><time>2026-04-18T12:16:53.038Z</time></trkpt><trkpt lat="43.3149633" lon="11.355995"><ele>229.0</ele><time>2026-04-18T12:16:54.039Z</time></trkpt><trkpt lat="43.3148633" lon="11.3560983"><ele>229.0</ele><time>2026-04-18T12:16:55.039Z</time></trkpt><trkpt lat="43.314765" lon="11.3561933"><ele>228.99999999999997</ele><time>2026-04-18T12:16:56.038Z</time></trkpt><trkpt lat="43.31467" lon="11.3562717"><ele>228.99999999999997</ele><time>2026-04-18T12:16:57.038Z</time></trkpt><trkpt lat="43.3145917" lon="11.35634"><ele>229.0</ele><time>2026-04-18T12:16:58.039Z</time></trkpt><trkpt lat="43.3145233" lon="11.35638"><ele>229.0</ele><time>2026-04-18T12:16:59.038Z</time></trkpt><trkpt lat="43.3144533" lon="11.35638"><ele>231.79999999999998</ele><time>2026-04-18T12:17:00.039Z</time></trkpt><trkpt lat="43.3143933" lon="11.3562717"><ele>234.59999999999997</ele><time>2026-04-18T12:17:02.038Z</time></trkpt><trkpt lat="43.3144217" lon="11.3561683"><ele>237.4</ele><time>2026-04-18T12:17:03.039Z</time></trkpt><trkpt lat="43.314475" lon="11.356025"><ele>240.2</ele><time>2026-04-18T12:17:04.038Z</time></trkpt><trkpt lat="43.31454" lon="11.3558583"><ele>243.0</ele><time>2026-04-18T12:17:05.039Z</time></trkpt><trkpt lat="43.3145967" lon="11.3556833"><ele>245.75</ele><time>2026-04-18T12:17:06.039Z</time></trkpt><trkpt lat="43.3146367" lon="11.355505"><ele>248.5</ele><time>2026-04-18T12:17:07.038Z</time></trkpt><trkpt lat="43.31466" lon="11.35532"><ele>251.25</ele><time>2026-04-18T12:17:08.038Z</time></trkpt><trkpt lat="43.31467" lon="11.355135"><ele>254.0</ele><time>2026-04-18T12:17:09.038Z</time></trkpt><trkpt lat="43.3146683" lon="11.3549483"><ele>254.0</ele><time>2026-04-18T12:17:10.038Z</time></trkpt><trkpt lat="43.3146617" lon="11.3547717"><ele>254.0</ele><time>2026-04-18T12:17:11.039Z</time></trkpt><trkpt lat="43.3146383" lon="11.354625"><ele>254.0</ele><time>2026-04-18T12:17:12.039Z</time></trkpt><trkpt lat="43.3145967" lon="11.354495"><ele>254.0</ele><time>2026-04-18T12:17:13.038Z</time></trkpt><trkpt lat="43.314525" lon="11.3543683"><ele>254.25</ele><time>2026-04-18T12:17:14.038Z</time></trkpt><trkpt lat="43.3144483" lon="11.3542467"><ele>254.5</ele><time>2026-04-18T12:17:15.039Z</time></trkpt><trkpt lat="43.31437" lon="11.354115"><ele>254.75</ele><time>2026-04-18T12:17:16.039Z</time></trkpt><trkpt lat="43.3143017" lon="11.353965"><ele>255.0</ele><time>2026-04-18T12:17:17.038Z</time></trkpt><trkpt lat="43.3142417" lon="11.35382"><ele>255.0</ele><time>2026-04-18T12:17:18.038Z</time></trkpt><trkpt lat="43.314175" lon="11.3536833"><ele>255.0</ele><time>2026-04-18T12:17:19.038Z</time></trkpt><trkpt lat="43.3140917" lon="11.3535567"><ele>255.0</ele><time>2026-04-18T12:17:20.039Z</time></trkpt><trkpt lat="43.31399" lon="11.3534283"><ele>255.0</ele><time>2026-04-18T12:17:21.038Z</time></trkpt><trkpt lat="43.313875" lon="11.3533033"><ele>258.5</ele><time>2026-04-18T12:17:22.039Z</time></trkpt><trkpt lat="43.3137567" lon="11.35318"><ele>262.0</ele><time>2026-04-18T12:17:23.038Z</time></trkpt><trkpt lat="43.3136467" lon="11.353055"><ele>265.5</ele><time>2026-04-18T12:17:24.038Z</time></trkpt><trkpt lat="43.3135467" lon="11.35292"><ele>269.0</ele><time>2026-04-18T12:17:25.038Z</time></trkpt><trkpt lat="43.313455" lon="11.3527817"><ele>269.0</ele><time>2026-04-18T12:17:26.038Z</time></trkpt><trkpt lat="43.313375" lon="11.3526383"><ele>269.0</ele><time>2026-04-18T12:17:27.038Z</time></trkpt><trkpt lat="43.313295" lon="11.3524967"><ele>269.0</ele><time>2026-04-18T12:17:28.038Z</time></trkpt><trkpt lat="43.3132233" lon="11.3523583"><ele>269.0</ele><time>2026-04-18T12:17:29.038Z</time></trkpt><trkpt lat="43.3131533" lon="11.3522317"><ele>267.8</ele><time>2026-04-18T12:17:30.038Z</time></trkpt><trkpt lat="43.313095" lon="11.3521117"><ele>266.59999999999997</ele><time>2026-04-18T12:17:31.039Z</time></trkpt><trkpt lat="43.3130433" lon="11.3519967"><ele>265.4</ele><time>2026-04-18T12:17:32.038Z</time></trkpt><trkpt lat="43.3129917" lon="11.3518633"><ele>264.2</ele><time>2026-04-18T12:17:33.039Z</time></trkpt><trkpt lat="43.3129433" lon="11.3517167"><ele>263.0</ele><time>2026-04-18T12:17:34.039Z</time></trkpt><trkpt lat="43.3129067" lon="11.351565"><ele>266.25</ele><time>2026-04-18T12:17:35.038Z</time></trkpt><trkpt lat="43.3128683" lon="11.3514033"><ele>269.5</ele><time>2026-04-18T12:17:36.038Z</time></trkpt><trkpt lat="43.31284" lon="11.3512417"><ele>272.75</ele><time>2026-04-18T12:17:37.038Z</time></trkpt><trkpt lat="43.312805" lon="11.3510933"><ele>276.0</ele><time>2026-04-18T12:17:38.038Z</time></trkpt><trkpt lat="43.3127667" lon="11.3509433"><ele>276.6</ele><time>2026-04-18T12:17:39.038Z</time></trkpt><trkpt lat="43.3127367" lon="11.3507917"><ele>277.20000000000005</ele><time>2026-04-18T12:17:40.039Z</time></trkpt><trkpt lat="43.3126983" lon="11.3506583"><ele>277.79999999999995</ele><time>2026-04-18T12:17:41.039Z</time></trkpt><trkpt lat="43.3126583" lon="11.350525"><ele>278.4</ele><time>2026-04-18T12:17:42.038Z</time></trkpt><trkpt lat="43.31261" lon="11.350395"><ele>279.0</ele><time>2026-04-18T12:17:43.039Z</time></trkpt><trkpt lat="43.312565" lon="11.35026"><ele>279.0</ele><time>2026-04-18T12:17:44.038Z</time></trkpt><trkpt lat="43.31253" lon="11.3501317"><ele>279.0</ele><time>2026-04-18T12:17:45.038Z</time></trkpt><trkpt lat="43.3125067" lon="11.35"><ele>279.0</ele><time>2026-04-18T12:17:46.038Z</time></trkpt><trkpt lat="43.3124983" lon="11.3499033"><ele>279.0</ele><time>2026-04-18T12:17:47.038Z</time></trkpt><trkpt lat="43.312505" lon="11.349795"><ele>279.0</ele><time>2026-04-18T12:17:48.039Z</time></trkpt><trkpt lat="43.3125267" lon="11.3497017"><ele>279.0</ele><time>2026-04-18T12:17:49.039Z</time></trkpt><trkpt lat="43.3125667" lon="11.3496083"><ele>278.1666666666667</ele><time>2026-04-18T12:17:50.038Z</time></trkpt><trkpt lat="43.3126117" lon="11.3495067"><ele>277.3333333333333</ele><time>2026-04-18T12:17:51.039Z</time></trkpt><trkpt lat="43.3126583" lon="11.3493967"><ele>276.5</ele><time>2026-04-18T12:17:52.038Z</time></trkpt><trkpt lat="43.3127017" lon="11.3492883"><ele>275.66666666666663</ele><time>2026-04-18T12:17:53.038Z</time></trkpt><trkpt lat="43.3127467" lon="11.349195"><ele>274.8333333333333</ele><time>2026-04-18T12:17:54.039Z</time></trkpt><trkpt lat="43.3127683" lon="11.3490967"><ele>274.0</ele><time>2026-04-18T12:17:55.039Z</time></trkpt><trkpt lat="43.3127667" lon="11.3490083"><ele>274.0</ele><time>2026-04-18T12:17:56.038Z</time></trkpt><trkpt lat="43.312745" lon="11.3489083"><ele>274.0</ele><time>2026-04-18T12:17:57.038Z</time></trkpt><trkpt lat="43.3127333" lon="11.3488017"><ele>274.0</ele><time>2026-04-18T12:17:58.039Z</time></trkpt><trkpt lat="43.3127067" lon="11.3486833"><ele>274.0</ele><time>2026-04-18T12:17:59.039Z</time></trkpt><trkpt lat="43.3126717" lon="11.3485767"><ele>274.0</ele><time>2026-04-18T12:18:00.039Z</time></trkpt><trkpt lat="43.3126217" lon="11.3484667"><ele>274.0</ele><time>2026-04-18T12:18:01.039Z</time></trkpt><trkpt lat="43.3125767" lon="11.3483633"><ele>273.3333333333333</ele><time>2026-04-18T12:18:02.038Z</time></trkpt><trkpt lat="43.3125267" lon="11.348265"><ele>272.66666666666663</ele><time>2026-04-18T12:18:03.039Z</time></trkpt><trkpt lat="43.3124783" lon="11.3481883"><ele>272.0</ele><time>2026-04-18T12:18:04.038Z</time></trkpt><trkpt lat="43.3124283" lon="11.348125"><ele>271.3333333333333</ele><time>2026-04-18T12:18:05.038Z</time></trkpt><trkpt lat="43.3123467" lon="11.3480333"><ele>270.6666666666667</ele><time>2026-04-18T12:18:07.038Z</time></trkpt><trkpt lat="43.312275" lon="11.3480333"><ele>270.0</ele><time>2026-04-18T12:18:10.039Z</time></trkpt><trkpt lat="43.3122117" lon="11.3481433"><ele>269.0</ele><time>2026-04-18T12:18:12.038Z</time></trkpt><trkpt lat="43.3121683" lon="11.34823"><ele>268.0</ele><time>2026-04-18T12:18:13.038Z</time></trkpt><trkpt lat="43.3121133" lon="11.3483483"><ele>267.0</ele><time>2026-04-18T12:18:14.038Z</time></trkpt><trkpt lat="43.31205" lon="11.3484883"><ele>266.0</ele><time>2026-04-18T12:18:15.038Z</time></trkpt><trkpt lat="43.3119967" lon="11.34867"><ele>265.0</ele><time>2026-04-18T12:18:16.038Z</time></trkpt><trkpt lat="43.3119483" lon="11.3488383"><ele>264.25</ele><time>2026-04-18T12:18:17.038Z</time></trkpt><trkpt lat="43.3119067" lon="11.3490067"><ele>263.5</ele><time>2026-04-18T12:18:18.038Z</time></trkpt><trkpt lat="43.3118683" lon="11.3491667"><ele>262.75</ele><time>2026-04-18T12:18:19.038Z</time></trkpt><trkpt lat="43.31183" lon="11.349315"><ele>262.0</ele><time>2026-04-18T12:18:20.039Z</time></trkpt><trkpt lat="43.3117767" lon="11.3494433"><ele>262.0</ele><time>2026-04-18T12:18:21.039Z</time></trkpt><trkpt lat="43.3117133" lon="11.34955"><ele>262.0</ele><time>2026-04-18T12:18:22.038Z</time></trkpt><trkpt lat="43.3116417" lon="11.349635"><ele>262.0</ele><time>2026-04-18T12:18:23.038Z</time></trkpt><trkpt lat="43.3115567" lon="11.349705"><ele>262.0</ele><time>2026-04-18T12:18:24.039Z</time></trkpt><trkpt lat="43.3114617" lon="11.3497667"><ele>262.0</ele><time>2026-04-18T12:18:25.039Z</time></trkpt><trkpt lat="43.3113717" lon="11.34982"><ele>262.0</ele><time>2026-04-18T12:18:26.039Z</time></trkpt><trkpt lat="43.3112783" lon="11.3498683"><ele>262.0</ele><time>2026-04-18T12:18:27.038Z</time></trkpt><trkpt lat="43.311185" lon="11.3499083"><ele>262.0</ele><time>2026-04-18T12:18:28.039Z</time></trkpt><trkpt lat="43.3110917" lon="11.3499433"><ele>262.0</ele><time>2026-04-18T12:18:29.039Z</time></trkpt><trkpt lat="43.3109967" lon="11.349965"><ele>262.0</ele><time>2026-04-18T12:18:30.038Z</time></trkpt><trkpt lat="43.31091" lon="11.3499983"><ele>262.0</ele><time>2026-04-18T12:18:31.038Z</time></trkpt><trkpt lat="43.3108233" lon="11.3500233"><ele>262.0</ele><time>2026-04-18T12:18:32.038Z</time></trkpt><trkpt lat="43.310735" lon="11.3500533"><ele>262.0</ele><time>2026-04-18T12:18:33.038Z</time></trkpt><trkpt lat="43.3106417" lon="11.350095"><ele>262.0</ele><time>2026-04-18T12:18:34.038Z</time></trkpt><trkpt lat="43.31056" lon="11.3501567"><ele>262.0</ele><time>2026-04-18T12:18:35.038Z</time></trkpt><trkpt lat="43.31048" lon="11.3502217"><ele>262.0</ele><time>2026-04-18T12:18:36.039Z</time></trkpt><trkpt lat="43.3103967" lon="11.3502883"><ele>262.0</ele><time>2026-04-18T12:18:37.039Z</time></trkpt><trkpt lat="43.3103217" lon="11.350365"><ele>262.0</ele><time>2026-04-18T12:18:38.038Z</time></trkpt><trkpt lat="43.3102317" lon="11.3504267"><ele>262.0</ele><time>2026-04-18T12:18:39.038Z</time></trkpt><trkpt lat="43.3101333" lon="11.3505283"><ele>262.0</ele><time>2026-04-18T12:18:40.038Z</time></trkpt><trkpt lat="43.3100433" lon="11.3506267"><ele>261.8</ele><time>2026-04-18T12:18:41.038Z</time></trkpt><trkpt lat="43.3099683" lon="11.3507283"><ele>261.6</ele><time>2026-04-18T12:18:42.039Z</time></trkpt><trkpt lat="43.3099067" lon="11.350845"><ele>261.40000000000003</ele><time>2026-04-18T12:18:43.038Z</time></trkpt><trkpt lat="43.309845" lon="11.3509417"><ele>261.2</ele><time>2026-04-18T12:18:44.038Z</time></trkpt><trkpt lat="43.3097767" lon="11.3510683"><ele>261.0</ele><time>2026-04-18T12:18:45.039Z</time></trkpt><trkpt lat="43.3097167" lon="11.3511967"><ele>262.0</ele><time>2026-04-18T12:18:46.038Z</time></trkpt><trkpt lat="43.309665" lon="11.351335"><ele>263.0</ele><time>2026-04-18T12:18:47.039Z</time></trkpt><trkpt lat="43.3096217" lon="11.3514883"><ele>264.0</ele><time>2026-04-18T12:18:48.039Z</time></trkpt><trkpt lat="43.309585" lon="11.3516533"><ele>265.0</ele><time>2026-04-18T12:18:49.038Z</time></trkpt><trkpt lat="43.3095517" lon="11.35182"><ele>265.0</ele><time>2026-04-18T12:18:50.038Z</time></trkpt><trkpt lat="43.3095167" lon="11.351985"><ele>265.0</ele><time>2026-04-18T12:18:51.038Z</time></trkpt><trkpt lat="43.309485" lon="11.3521533"><ele>265.0</ele><time>2026-04-18T12:18:52.039Z</time></trkpt><trkpt lat="43.3094583" lon="11.3523267"><ele>265.0</ele><time>2026-04-18T12:18:53.038Z</time></trkpt><trkpt lat="43.3094317" lon="11.352505"><ele>265.0</ele><time>2026-04-18T12:18:54.039Z</time></trkpt><trkpt lat="43.3094017" lon="11.3526817"><ele>265.0</ele><time>2026-04-18T12:18:55.038Z</time></trkpt><trkpt lat="43.3093767" lon="11.3528583"><ele>265.0</ele><time>2026-04-18T12:18:56.038Z</time></trkpt><trkpt lat="43.30935" lon="11.3530267"><ele>265.0</ele><time>2026-04-18T12:18:57.038Z</time></trkpt><trkpt lat="43.3093217" lon="11.35319"><ele>265.0</ele><time>2026-04-18T12:18:58.038Z</time></trkpt><trkpt lat="43.3092933" lon="11.3533383"><ele>265.0</ele><time>2026-04-18T12:18:59.038Z</time></trkpt><trkpt lat="43.3092683" lon="11.3534783"><ele>265.0</ele><time>2026-04-18T12:19:00.038Z</time></trkpt><trkpt lat="43.3092483" lon="11.3536167"><ele>265.0</ele><time>2026-04-18T12:19:01.038Z</time></trkpt><trkpt lat="43.30923" lon="11.35376"><ele>265.0</ele><time>2026-04-18T12:19:02.039Z</time></trkpt><trkpt lat="43.3092183" lon="11.3539183"><ele>264.25</ele><time>2026-04-18T12:19:03.039Z</time></trkpt><trkpt lat="43.3091967" lon="11.354075"><ele>263.5</ele><time>2026-04-18T12:19:04.038Z</time></trkpt><trkpt lat="43.309195" lon="11.3542433"><ele>262.75</ele><time>2026-04-18T12:19:05.039Z</time></trkpt><trkpt lat="43.309195" lon="11.354405"><ele>262.0</ele><time>2026-04-18T12:19:06.038Z</time></trkpt><trkpt lat="43.309195" lon="11.3545617"><ele>262.2</ele><time>2026-04-18T12:19:07.038Z</time></trkpt><trkpt lat="43.3092017" lon="11.3547117"><ele>262.4</ele><time>2026-04-18T12:19:08.039Z</time></trkpt><trkpt lat="43.3092183" lon="11.35485"><ele>262.6</ele><time>2026-04-18T12:19:09.038Z</time></trkpt><trkpt lat="43.309235" lon="11.3549867"><ele>262.8</ele><time>2026-04-18T12:19:10.038Z</time></trkpt><trkpt lat="43.3092617" lon="11.355125"><ele>263.0</ele><time>2026-04-18T12:19:11.039Z</time></trkpt><trkpt lat="43.3092967" lon="11.3552733"><ele>263.0</ele><time>2026-04-18T12:19:12.039Z</time></trkpt><trkpt lat="43.30933" lon="11.355435"><ele>263.0</ele><time>2026-04-18T12:19:13.039Z</time></trkpt><trkpt lat="43.3093683" lon="11.3556017"><ele>263.0</ele><time>2026-04-18T12:19:14.038Z</time></trkpt><trkpt lat="43.30941" lon="11.3557617"><ele>263.0</ele><time>2026-04-18T12:19:15.038Z</time></trkpt><trkpt lat="43.3094483" lon="11.3559133"><ele>262.6</ele><time>2026-04-18T12:19:16.039Z</time></trkpt><trkpt lat="43.3094783" lon="11.3560633"><ele>262.20000000000005</ele><time>2026-04-18T12:19:17.038Z</time></trkpt><trkpt lat="43.309505" lon="11.35621"><ele>261.8</ele><time>2026-04-18T12:19:18.039Z</time></trkpt><trkpt lat="43.3095233" lon="11.3563533"><ele>261.40000000000003</ele><time>2026-04-18T12:19:19.039Z</time></trkpt><trkpt lat="43.3095183" lon="11.3565"><ele>261.0</ele><time>2026-04-18T12:19:20.038Z</time></trkpt><trkpt lat="43.3094917" lon="11.35665"><ele>259.5</ele><time>2026-04-18T12:19:21.038Z</time></trkpt><trkpt lat="43.30946" lon="11.3568017"><ele>258.0</ele><time>2026-04-18T12:19:22.038Z</time></trkpt><trkpt lat="43.3094167" lon="11.3569517"><ele>256.5</ele><time>2026-04-18T12:19:23.039Z</time></trkpt><trkpt lat="43.309375" lon="11.3570983"><ele>255.0</ele><time>2026-04-18T12:19:24.038Z</time></trkpt><trkpt lat="43.3093217" lon="11.3572367"><ele>254.5</ele><time>2026-04-18T12:19:25.039Z</time></trkpt><trkpt lat="43.309245" lon="11.3573567"><ele>254.0</ele><time>2026-04-18T12:19:26.038Z</time></trkpt><trkpt lat="43.3091517" lon="11.357465"><ele>253.5</ele><time>2026-04-18T12:19:27.038Z</time></trkpt><trkpt lat="43.309045" lon="11.3575717"><ele>253.0</ele><time>2026-04-18T12:19:28.039Z</time></trkpt><trkpt lat="43.3089283" lon="11.3576783"><ele>251.5</ele><time>2026-04-18T12:19:29.039Z</time></trkpt><trkpt lat="43.308825" lon="11.3577867"><ele>250.0</ele><time>2026-04-18T12:19:30.038Z</time></trkpt><trkpt lat="43.3087267" lon="11.357885"><ele>248.5</ele><time>2026-04-18T12:19:31.039Z</time></trkpt><trkpt lat="43.3086267" lon="11.3579767"><ele>247.0</ele><time>2026-04-18T12:19:32.039Z</time></trkpt><trkpt lat="43.308525" lon="11.358065"><ele>247.0</ele><time>2026-04-18T12:19:33.038Z</time></trkpt><trkpt lat="43.30842" lon="11.3581467"><ele>247.0</ele><time>2026-04-18T12:19:34.038Z</time></trkpt><trkpt lat="43.3083017" lon="11.3582267"><ele>247.0</ele><time>2026-04-18T12:19:35.039Z</time></trkpt><trkpt lat="43.30819" lon="11.35831"><ele>247.0</ele><time>2026-04-18T12:19:36.038Z</time></trkpt><trkpt lat="43.3080833" lon="11.3583967"><ele>244.75</ele><time>2026-04-18T12:19:37.039Z</time></trkpt><trkpt lat="43.3079833" lon="11.3584983"><ele>242.5</ele><time>2026-04-18T12:19:38.038Z</time></trkpt><trkpt lat="43.3078783" lon="11.3586167"><ele>240.25</ele><time>2026-04-18T12:19:39.038Z</time></trkpt><trkpt lat="43.30777" lon="11.35874"><ele>238.0</ele><time>2026-04-18T12:19:40.038Z</time></trkpt><trkpt lat="43.307665" lon="11.3588717"><ele>238.0</ele><time>2026-04-18T12:19:41.038Z</time></trkpt><trkpt lat="43.30756" lon="11.3589983"><ele>238.0</ele><time>2026-04-18T12:19:42.039Z</time></trkpt><trkpt lat="43.3074483" lon="11.3591367"><ele>238.0</ele><time>2026-04-18T12:19:43.038Z</time></trkpt><trkpt lat="43.3073283" lon="11.359275"><ele>238.0</ele><time>2026-04-18T12:19:44.039Z</time></trkpt><trkpt lat="43.307215" lon="11.3594083"><ele>238.75</ele><time>2026-04-18T12:19:45.038Z</time></trkpt><trkpt lat="43.307105" lon="11.3595417"><ele>239.5</ele><time>2026-04-18T12:19:46.037Z</time></trkpt><trkpt lat="43.3070017" lon="11.3596683"><ele>240.25</ele><time>2026-04-18T12:19:47.038Z</time></trkpt><trkpt lat="43.306905" lon="11.359795"><ele>241.0</ele><time>2026-04-18T12:19:48.037Z</time></trkpt><trkpt lat="43.30681" lon="11.3599233"><ele>241.0</ele><time>2026-04-18T12:19:49.037Z</time></trkpt><trkpt lat="43.306715" lon="11.360055"><ele>241.0</ele><time>2026-04-18T12:19:50.038Z</time></trkpt><trkpt lat="43.306625" lon="11.36019"><ele>241.0</ele><time>2026-04-18T12:19:51.037Z</time></trkpt><trkpt lat="43.30654" lon="11.3603283"><ele>241.0</ele><time>2026-04-18T12:19:52.037Z</time></trkpt><trkpt lat="43.3064517" lon="11.36047"><ele>243.75</ele><time>2026-04-18T12:19:53.038Z</time></trkpt><trkpt lat="43.3063667" lon="11.36062"><ele>246.5</ele><time>2026-04-18T12:19:54.038Z</time></trkpt><trkpt lat="43.3062667" lon="11.3607567"><ele>249.25</ele><time>2026-04-18T12:19:55.037Z</time></trkpt><trkpt lat="43.30618" lon="11.3609033"><ele>252.0</ele><time>2026-04-18T12:19:56.038Z</time></trkpt><trkpt lat="43.306105" lon="11.3610567"><ele>252.0</ele><time>2026-04-18T12:19:57.037Z</time></trkpt><trkpt lat="43.3060417" lon="11.3612067"><ele>252.0</ele><time>2026-04-18T12:19:58.037Z</time></trkpt><trkpt lat="43.3059783" lon="11.3613483"><ele>252.0</ele><time>2026-04-18T12:19:59.037Z</time></trkpt><trkpt lat="43.3059083" lon="11.3614683"><ele>252.0</ele><time>2026-04-18T12:20:00.037Z</time></trkpt><trkpt lat="43.30583" lon="11.3615633"><ele>250.75</ele><time>2026-04-18T12:20:01.037Z</time></trkpt><trkpt lat="43.3057383" lon="11.3616367"><ele>249.5</ele><time>2026-04-18T12:20:02.037Z</time></trkpt><trkpt lat="43.3056233" lon="11.3616833"><ele>248.25</ele><time>2026-04-18T12:20:03.037Z</time></trkpt><trkpt lat="43.3054967" lon="11.3617117"><ele>247.0</ele><time>2026-04-18T12:20:04.038Z</time></trkpt><trkpt lat="43.3053783" lon="11.36173"><ele>247.0</ele><time>2026-04-18T12:20:05.037Z</time></trkpt><trkpt lat="43.3052633" lon="11.3617533"><ele>247.0</ele><time>2026-04-18T12:20:06.037Z</time></trkpt><trkpt lat="43.3051567" lon="11.3617683"><ele>247.0</ele><time>2026-04-18T12:20:07.037Z</time></trkpt><trkpt lat="43.30505" lon="11.3617817"><ele>247.0</ele><time>2026-04-18T12:20:08.038Z</time></trkpt><trkpt lat="43.3049467" lon="11.361805"><ele>247.0</ele><time>2026-04-18T12:20:09.037Z</time></trkpt><trkpt lat="43.3048383" lon="11.3618133"><ele>245.0</ele><time>2026-04-18T12:20:10.037Z</time></trkpt><trkpt lat="43.30474" lon="11.36183"><ele>243.0</ele><time>2026-04-18T12:20:11.038Z</time></trkpt><trkpt lat="43.3046267" lon="11.3618367"><ele>241.0</ele><time>2026-04-18T12:20:12.038Z</time></trkpt><trkpt lat="43.3045167" lon="11.3618517"><ele>239.0</ele><time>2026-04-18T12:20:13.037Z</time></trkpt><trkpt lat="43.304405" lon="11.3618833"><ele>237.0</ele><time>2026-04-18T12:20:14.037Z</time></trkpt><trkpt lat="43.3042917" lon="11.3619417"><ele>237.0</ele><time>2026-04-18T12:20:15.038Z</time></trkpt><trkpt lat="43.304175" lon="11.3620183"><ele>237.0</ele><time>2026-04-18T12:20:16.038Z</time></trkpt><trkpt lat="43.3040517" lon="11.3621117"><ele>237.0</ele><time>2026-04-18T12:20:17.037Z</time></trkpt><trkpt lat="43.30393" lon="11.3622133"><ele>237.0</ele><time>2026-04-18T12:20:18.037Z</time></trkpt><trkpt lat="43.3038133" lon="11.3623067"><ele>239.25</ele><time>2026-04-18T12:20:19.037Z</time></trkpt><trkpt lat="43.3037117" lon="11.3624033"><ele>241.5</ele><time>2026-04-18T12:20:20.038Z</time></trkpt><trkpt lat="43.3036117" lon="11.362515"><ele>243.75</ele><time>2026-04-18T12:20:21.037Z</time></trkpt><trkpt lat="43.3035233" lon="11.3626417"><ele>246.0</ele><time>2026-04-18T12:20:22.037Z</time></trkpt><trkpt lat="43.3034533" lon="11.3627817"><ele>246.0</ele><time>2026-04-18T12:20:23.037Z</time></trkpt><trkpt lat="43.3034117" lon="11.3629383"><ele>246.0</ele><time>2026-04-18T12:20:24.037Z</time></trkpt><trkpt lat="43.30339" lon="11.3631067"><ele>246.0</ele><time>2026-04-18T12:20:25.038Z</time></trkpt><trkpt lat="43.303375" lon="11.3632767"><ele>246.0</ele><time>2026-04-18T12:20:26.038Z</time></trkpt><trkpt lat="43.3033633" lon="11.36342"><ele>246.0</ele><time>2026-04-18T12:20:27.038Z</time></trkpt><trkpt lat="43.3033417" lon="11.36355"><ele>246.00000000000003</ele><time>2026-04-18T12:20:28.038Z</time></trkpt><trkpt lat="43.30331" lon="11.3636617"><ele>246.00000000000003</ele><time>2026-04-18T12:20:29.037Z</time></trkpt><trkpt lat="43.3032583" lon="11.3637633"><ele>246.0</ele><time>2026-04-18T12:20:30.037Z</time></trkpt><trkpt lat="43.3031983" lon="11.3638617"><ele>246.0</ele><time>2026-04-18T12:20:31.038Z</time></trkpt><trkpt lat="43.3031217" lon="11.3639167"><ele>247.4</ele><time>2026-04-18T12:20:32.037Z</time></trkpt><trkpt lat="43.3030267" lon="11.363945"><ele>248.8</ele><time>2026-04-18T12:20:33.037Z</time></trkpt><trkpt lat="43.302915" lon="11.3639583"><ele>250.20000000000002</ele><time>2026-04-18T12:20:34.038Z</time></trkpt><trkpt lat="43.3028083" lon="11.3639583"><ele>251.60000000000002</ele><time>2026-04-18T12:20:35.037Z</time></trkpt><trkpt lat="43.3027117" lon="11.3639583"><ele>253.0</ele><time>2026-04-18T12:20:36.037Z</time></trkpt><trkpt lat="43.3026117" lon="11.36398"><ele>253.0</ele><time>2026-04-18T12:20:37.037Z</time></trkpt><trkpt lat="43.3025" lon="11.364015"><ele>253.0</ele><time>2026-04-18T12:20:38.037Z</time></trkpt><trkpt lat="43.3023933" lon="11.3640683"><ele>253.0</ele><time>2026-04-18T12:20:39.037Z</time></trkpt><trkpt lat="43.30229" lon="11.3641233"><ele>253.0</ele><time>2026-04-18T12:20:40.038Z</time></trkpt><trkpt lat="43.30218" lon="11.3641967"><ele>251.0</ele><time>2026-04-18T12:20:41.038Z</time></trkpt><trkpt lat="43.3020817" lon="11.3642733"><ele>249.0</ele><time>2026-04-18T12:20:42.037Z</time></trkpt><trkpt lat="43.3019933" lon="11.3643617"><ele>247.0</ele><time>2026-04-18T12:20:43.038Z</time></trkpt><trkpt lat="43.30192" lon="11.3644683"><ele>245.0</ele><time>2026-04-18T12:20:44.038Z</time></trkpt><trkpt lat="43.3018567" lon="11.3645917"><ele>243.0</ele><time>2026-04-18T12:20:45.037Z</time></trkpt><trkpt lat="43.3018017" lon="11.36474"><ele>243.0</ele><time>2026-04-18T12:20:46.038Z</time></trkpt><trkpt lat="43.3017467" lon="11.364885"><ele>243.0</ele><time>2026-04-18T12:20:47.038Z</time></trkpt><trkpt lat="43.301695" lon="11.3650233"><ele>243.0</ele><time>2026-04-18T12:20:48.037Z</time></trkpt><trkpt lat="43.301645" lon="11.3651433"><ele>243.0</ele><time>2026-04-18T12:20:49.038Z</time></trkpt><trkpt lat="43.3015733" lon="11.365245"><ele>243.0</ele><time>2026-04-18T12:20:50.037Z</time></trkpt><trkpt lat="43.3014683" lon="11.3653283"><ele>242.5</ele><time>2026-04-18T12:20:51.037Z</time></trkpt><trkpt lat="43.301355" lon="11.3654017"><ele>242.0</ele><time>2026-04-18T12:20:52.037Z</time></trkpt><trkpt lat="43.3012317" lon="11.3654783"><ele>241.5</ele><time>2026-04-18T12:20:53.037Z</time></trkpt><trkpt lat="43.3011133" lon="11.3655483"><ele>241.0</ele><time>2026-04-18T12:20:54.037Z</time></trkpt><trkpt lat="43.3010017" lon="11.3656117"><ele>241.0</ele><time>2026-04-18T12:20:55.037Z</time></trkpt><trkpt lat="43.300895" lon="11.3656717"><ele>241.0</ele><time>2026-04-18T12:20:56.037Z</time></trkpt><trkpt lat="43.3007833" lon="11.3657083"><ele>241.0</ele><time>2026-04-18T12:20:57.038Z</time></trkpt><trkpt lat="43.3006733" lon="11.3657183"><ele>241.0</ele><time>2026-04-18T12:20:58.037Z</time></trkpt><trkpt lat="43.300555" lon="11.3657267"><ele>241.75</ele><time>2026-04-18T12:20:59.037Z</time></trkpt><trkpt lat="43.300435" lon="11.3657283"><ele>242.5</ele><time>2026-04-18T12:21:00.037Z</time></trkpt><trkpt lat="43.30032" lon="11.3657333"><ele>243.25</ele><time>2026-04-18T12:21:01.037Z</time></trkpt><trkpt lat="43.3002133" lon="11.3657533"><ele>244.0</ele><time>2026-04-18T12:21:02.038Z</time></trkpt><trkpt lat="43.30011" lon="11.3657917"><ele>244.0</ele><time>2026-04-18T12:21:03.037Z</time></trkpt><trkpt lat="43.300005" lon="11.3658567"><ele>244.0</ele><time>2026-04-18T12:21:04.037Z</time></trkpt><trkpt lat="43.2999017" lon="11.3659433"><ele>244.0</ele><time>2026-04-18T12:21:05.037Z</time></trkpt><trkpt lat="43.2998083" lon="11.36604"><ele>244.0</ele><time>2026-04-18T12:21:06.037Z</time></trkpt><trkpt lat="43.2997167" lon="11.3661467"><ele>242.25</ele><time>2026-04-18T12:21:07.037Z</time></trkpt><trkpt lat="43.2996283" lon="11.3662667"><ele>240.5</ele><time>2026-04-18T12:21:08.038Z</time></trkpt><trkpt lat="43.29954" lon="11.36639"><ele>238.75</ele><time>2026-04-18T12:21:09.037Z</time></trkpt><trkpt lat="43.29945" lon="11.36651"><ele>237.0</ele><time>2026-04-18T12:21:10.037Z</time></trkpt><trkpt lat="43.2993533" lon="11.3666233"><ele>237.0</ele><time>2026-04-18T12:21:11.038Z</time></trkpt><trkpt lat="43.2992617" lon="11.366735"><ele>237.0</ele><time>2026-04-18T12:21:12.037Z</time></trkpt><trkpt lat="43.2991767" lon="11.36685"><ele>237.0</ele><time>2026-04-18T12:21:13.037Z</time></trkpt><trkpt lat="43.2990983" lon="11.3669717"><ele>237.0</ele><time>2026-04-18T12:21:14.037Z</time></trkpt><trkpt lat="43.2990267" lon="11.3671"><ele>237.5</ele><time>2026-04-18T12:21:15.038Z</time></trkpt><trkpt lat="43.2989583" lon="11.3672433"><ele>238.0</ele><time>2026-04-18T12:21:16.038Z</time></trkpt><trkpt lat="43.2989067" lon="11.3673833"><ele>238.5</ele><time>2026-04-18T12:21:17.037Z</time></trkpt><trkpt lat="43.29885" lon="11.3675383"><ele>239.0</ele><time>2026-04-18T12:21:18.037Z</time></trkpt><trkpt lat="43.2987933" lon="11.36769"><ele>238.0</ele><time>2026-04-18T12:21:19.037Z</time></trkpt><trkpt lat="43.2987367" lon="11.367835"><ele>237.0</ele><time>2026-04-18T12:21:20.038Z</time></trkpt><trkpt lat="43.298675" lon="11.36797"><ele>236.0</ele><time>2026-04-18T12:21:21.037Z</time></trkpt><trkpt lat="43.2986133" lon="11.3680983"><ele>235.0</ele><time>2026-04-18T12:21:22.037Z</time></trkpt><trkpt lat="43.29855" lon="11.3682217"><ele>235.0</ele><time>2026-04-18T12:21:23.037Z</time></trkpt><trkpt lat="43.2984867" lon="11.368325"><ele>235.0</ele><time>2026-04-18T12:21:24.037Z</time></trkpt><trkpt lat="43.2984017" lon="11.3684017"><ele>235.0</ele><time>2026-04-18T12:21:25.037Z</time></trkpt><trkpt lat="43.2983017" lon="11.36846"><ele>235.0</ele><time>2026-04-18T12:21:26.038Z</time></trkpt><trkpt lat="43.2981883" lon="11.36849"><ele>235.0</ele><time>2026-04-18T12:21:27.037Z</time></trkpt><trkpt lat="43.2980867" lon="11.3685167"><ele>235.6</ele><time>2026-04-18T12:21:28.038Z</time></trkpt><trkpt lat="43.2979883" lon="11.3685267"><ele>236.2</ele><time>2026-04-18T12:21:29.038Z</time></trkpt><trkpt lat="43.2978783" lon="11.3684967"><ele>236.8</ele><time>2026-04-18T12:21:30.038Z</time></trkpt><trkpt lat="43.29777" lon="11.3684617"><ele>237.4</ele><time>2026-04-18T12:21:31.037Z</time></trkpt><trkpt lat="43.2976633" lon="11.36841"><ele>238.0</ele><time>2026-04-18T12:21:32.038Z</time></trkpt><trkpt lat="43.2975567" lon="11.368345"><ele>238.0</ele><time>2026-04-18T12:21:33.037Z</time></trkpt><trkpt lat="43.2974483" lon="11.36827"><ele>238.0</ele><time>2026-04-18T12:21:34.037Z</time></trkpt><trkpt lat="43.297335" lon="11.3682117"><ele>238.0</ele><time>2026-04-18T12:21:35.037Z</time></trkpt><trkpt lat="43.2972167" lon="11.3681567"><ele>238.0</ele><time>2026-04-18T12:21:36.037Z</time></trkpt><trkpt lat="43.2970983" lon="11.36811"><ele>237.25</ele><time>2026-04-18T12:21:37.037Z</time></trkpt><trkpt lat="43.2969783" lon="11.3680667"><ele>236.5</ele><time>2026-04-18T12:21:38.037Z</time></trkpt><trkpt lat="43.296855" lon="11.368035"><ele>235.75</ele><time>2026-04-18T12:21:39.037Z</time></trkpt><trkpt lat="43.29673" lon="11.3680117"><ele>235.0</ele><time>2026-04-18T12:21:40.037Z</time></trkpt><trkpt lat="43.2966" lon="11.3680083"><ele>234.75</ele><time>2026-04-18T12:21:41.038Z</time></trkpt><trkpt lat="43.2964733" lon="11.3680183"><ele>234.5</ele><time>2026-04-18T12:21:42.038Z</time></trkpt><trkpt lat="43.2963483" lon="11.3680317"><ele>234.25</ele><time>2026-04-18T12:21:43.037Z</time></trkpt><trkpt lat="43.296225" lon="11.368055"><ele>234.0</ele><time>2026-04-18T12:21:44.037Z</time></trkpt><trkpt lat="43.2961067" lon="11.3680967"><ele>236.2</ele><time>2026-04-18T12:21:45.038Z</time></trkpt><trkpt lat="43.29599" lon="11.3681467"><ele>238.39999999999998</ele><time>2026-04-18T12:21:46.038Z</time></trkpt><trkpt lat="43.295875" lon="11.3682117"><ele>240.6</ele><time>2026-04-18T12:21:47.037Z</time></trkpt><trkpt lat="43.2957767" lon="11.3682617"><ele>242.8</ele><time>2026-04-18T12:21:48.038Z</time></trkpt><trkpt lat="43.29569" lon="11.368305"><ele>245.0</ele><time>2026-04-18T12:21:49.037Z</time></trkpt><trkpt lat="43.2955983" lon="11.368315"><ele>243.6</ele><time>2026-04-18T12:21:50.037Z</time></trkpt><trkpt lat="43.2955083" lon="11.3683217"><ele>242.2</ele><time>2026-04-18T12:21:51.038Z</time></trkpt><trkpt lat="43.2954167" lon="11.3683433"><ele>240.8</ele><time>2026-04-18T12:21:52.037Z</time></trkpt><trkpt lat="43.2953217" lon="11.3683717"><ele>239.4</ele><time>2026-04-18T12:21:53.037Z</time></trkpt><trkpt lat="43.295225" lon="11.368415"><ele>238.0</ele><time>2026-04-18T12:21:54.037Z</time></trkpt><trkpt lat="43.2951283" lon="11.3684633"><ele>238.0</ele><time>2026-04-18T12:21:55.038Z</time></trkpt><trkpt lat="43.2950383" lon="11.368535"><ele>238.0</ele><time>2026-04-18T12:21:56.037Z</time></trkpt><trkpt lat="43.29496" lon="11.36863"><ele>238.0</ele><time>2026-04-18T12:21:57.038Z</time></trkpt><trkpt lat="43.2948967" lon="11.368735"><ele>238.0</ele><time>2026-04-18T12:21:58.037Z</time></trkpt><trkpt lat="43.2948417" lon="11.368845"><ele>238.0</ele><time>2026-04-18T12:21:59.037Z</time></trkpt><trkpt lat="43.2947967" lon="11.3689583"><ele>236.4</ele><time>2026-04-18T12:22:00.037Z</time></trkpt><trkpt lat="43.294735" lon="11.3690533"><ele>234.8</ele><time>2026-04-18T12:22:01.037Z</time></trkpt><trkpt lat="43.294665" lon="11.3691383"><ele>233.2</ele><time>2026-04-18T12:22:02.038Z</time></trkpt><trkpt lat="43.2945783" lon="11.3692117"><ele>231.6</ele><time>2026-04-18T12:22:03.037Z</time></trkpt><trkpt lat="43.2944817" lon="11.3692867"><ele>230.0</ele><time>2026-04-18T12:22:04.038Z</time></trkpt><trkpt lat="43.2943817" lon="11.3693567"><ele>230.0</ele><time>2026-04-18T12:22:05.038Z</time></trkpt><trkpt lat="43.2942717" lon="11.3694283"><ele>230.0</ele><time>2026-04-18T12:22:06.038Z</time></trkpt><trkpt lat="43.2941567" lon="11.3694967"><ele>230.0</ele><time>2026-04-18T12:22:07.038Z</time></trkpt><trkpt lat="43.2940417" lon="11.3695633"><ele>230.0</ele><time>2026-04-18T12:22:08.037Z</time></trkpt><trkpt lat="43.293925" lon="11.3696383"><ele>228.75</ele><time>2026-04-18T12:22:09.037Z</time></trkpt><trkpt lat="43.2938083" lon="11.369715"><ele>227.5</ele><time>2026-04-18T12:22:10.037Z</time></trkpt><trkpt lat="43.29369" lon="11.36979"><ele>226.25</ele><time>2026-04-18T12:22:11.037Z</time></trkpt><trkpt lat="43.293565" lon="11.36986"><ele>225.0</ele><time>2026-04-18T12:22:12.037Z</time></trkpt><trkpt lat="43.29344" lon="11.3699183"><ele>225.0</ele><time>2026-04-18T12:22:13.037Z</time></trkpt><trkpt lat="43.293315" lon="11.369965"><ele>225.0</ele><time>2026-04-18T12:22:14.037Z</time></trkpt><trkpt lat="43.2931883" lon="11.370005"><ele>225.0</ele><time>2026-04-18T12:22:15.037Z</time></trkpt><trkpt lat="43.29306" lon="11.3700317"><ele>225.0</ele><time>2026-04-18T12:22:16.037Z</time></trkpt><trkpt lat="43.2929283" lon="11.3700483"><ele>224.25</ele><time>2026-04-18T12:22:17.038Z</time></trkpt><trkpt lat="43.2928" lon="11.37006"><ele>223.5</ele><time>2026-04-18T12:22:18.037Z</time></trkpt><trkpt lat="43.29267" lon="11.3700633"><ele>222.75</ele><time>2026-04-18T12:22:19.038Z</time></trkpt><trkpt lat="43.292545" lon="11.3700583"><ele>222.0</ele><time>2026-04-18T12:22:20.038Z</time></trkpt><trkpt lat="43.2924183" lon="11.3700567"><ele>222.0</ele><time>2026-04-18T12:22:21.037Z</time></trkpt><trkpt lat="43.2922967" lon="11.3700517"><ele>222.0</ele><time>2026-04-18T12:22:22.037Z</time></trkpt><trkpt lat="43.292175" lon="11.3700467"><ele>222.0</ele><time>2026-04-18T12:22:23.037Z</time></trkpt><trkpt lat="43.2920533" lon="11.3700533"><ele>222.0</ele><time>2026-04-18T12:22:24.038Z</time></trkpt><trkpt lat="43.29194" lon="11.37006"><ele>222.2</ele><time>2026-04-18T12:22:25.037Z</time></trkpt><trkpt lat="43.2918267" lon="11.3700767"><ele>222.39999999999998</ele><time>2026-04-18T12:22:26.037Z</time></trkpt><trkpt lat="43.2917167" lon="11.370105"><ele>222.60000000000002</ele><time>2026-04-18T12:22:27.037Z</time></trkpt><trkpt lat="43.29161" lon="11.3701517"><ele>222.8</ele><time>2026-04-18T12:22:28.037Z</time></trkpt><trkpt lat="43.2915067" lon="11.3702083"><ele>223.0</ele><time>2026-04-18T12:22:29.037Z</time></trkpt><trkpt lat="43.2914033" lon="11.3702833"><ele>223.5</ele><time>2026-04-18T12:22:30.037Z</time></trkpt><trkpt lat="43.2913017" lon="11.3703567"><ele>224.0</ele><time>2026-04-18T12:22:31.037Z</time></trkpt><trkpt lat="43.2912017" lon="11.3704383"><ele>224.5</ele><time>2026-04-18T12:22:32.038Z</time></trkpt><trkpt lat="43.2910983" lon="11.3705067"><ele>225.0</ele><time>2026-04-18T12:22:33.037Z</time></trkpt><trkpt lat="43.2909933" lon="11.370555"><ele>225.0</ele><time>2026-04-18T12:22:34.038Z</time></trkpt><trkpt lat="43.2908883" lon="11.3705967"><ele>225.0</ele><time>2026-04-18T12:22:35.037Z</time></trkpt><trkpt lat="43.2907883" lon="11.370635"><ele>225.0</ele><time>2026-04-18T12:22:36.038Z</time></trkpt><trkpt lat="43.2906933" lon="11.3706733"><ele>225.0</ele><time>2026-04-18T12:22:37.037Z</time></trkpt><trkpt lat="43.2906083" lon="11.370735"><ele>225.0</ele><time>2026-04-18T12:22:38.037Z</time></trkpt><trkpt lat="43.2905283" lon="11.3708083"><ele>225.0</ele><time>2026-04-18T12:22:39.038Z</time></trkpt><trkpt lat="43.2904567" lon="11.3709133"><ele>225.0</ele><time>2026-04-18T12:22:40.037Z</time></trkpt><trkpt lat="43.2904017" lon="11.3710383"><ele>225.0</ele><time>2026-04-18T12:22:41.037Z</time></trkpt><trkpt lat="43.2903533" lon="11.3711683"><ele>225.0</ele><time>2026-04-18T12:22:42.038Z</time></trkpt><trkpt lat="43.290295" lon="11.3712817"><ele>225.0</ele><time>2026-04-18T12:22:43.037Z</time></trkpt><trkpt lat="43.2902267" lon="11.3713733"><ele>225.0</ele><time>2026-04-18T12:22:44.038Z</time></trkpt><trkpt lat="43.2901467" lon="11.37144"><ele>225.0</ele><time>2026-04-18T12:22:45.038Z</time></trkpt><trkpt lat="43.2900633" lon="11.3714933"><ele>225.0</ele><time>2026-04-18T12:22:46.037Z</time></trkpt><trkpt lat="43.28999" lon="11.3715433"><ele>225.0</ele><time>2026-04-18T12:22:47.037Z</time></trkpt><trkpt lat="43.28994" lon="11.3716217"><ele>225.0</ele><time>2026-04-18T12:22:48.037Z</time></trkpt><trkpt lat="43.2899067" lon="11.3717183"><ele>225.0</ele><time>2026-04-18T12:22:49.037Z</time></trkpt><trkpt lat="43.289895" lon="11.3718367"><ele>225.0</ele><time>2026-04-18T12:22:50.038Z</time></trkpt><trkpt lat="43.289885" lon="11.3719483"><ele>225.0</ele><time>2026-04-18T12:22:51.038Z</time></trkpt><trkpt lat="43.2898667" lon="11.3720433"><ele>225.0</ele><time>2026-04-18T12:22:52.037Z</time></trkpt><trkpt lat="43.28978" lon="11.3721583"><ele>225.0</ele><time>2026-04-18T12:22:54.038Z</time></trkpt><trkpt lat="43.2897017" lon="11.3722033"><ele>225.0</ele><time>2026-04-18T12:22:55.037Z</time></trkpt><trkpt lat="43.289625" lon="11.37225"><ele>225.0</ele><time>2026-04-18T12:22:56.037Z</time></trkpt><trkpt lat="43.289545" lon="11.3722933"><ele>223.66666666666666</ele><time>2026-04-18T12:22:57.038Z</time></trkpt><trkpt lat="43.28947" lon="11.3723317"><ele>222.33333333333331</ele><time>2026-04-18T12:22:58.037Z</time></trkpt><trkpt lat="43.2894" lon="11.3723567"><ele>221.0</ele><time>2026-04-18T12:22:59.037Z</time></trkpt><trkpt lat="43.28933" lon="11.372385"><ele>219.66666666666666</ele><time>2026-04-18T12:23:00.037Z</time></trkpt><trkpt lat="43.2892267" lon="11.3724433"><ele>218.33333333333331</ele><time>2026-04-18T12:23:02.037Z</time></trkpt><trkpt lat="43.289155" lon="11.3725167"><ele>217.0</ele><time>2026-04-18T12:23:04.037Z</time></trkpt><trkpt lat="43.289115" lon="11.3726167"><ele>217.0</ele><time>2026-04-18T12:23:06.037Z</time></trkpt><trkpt lat="43.2891033" lon="11.372805"><ele>217.0</ele><time>2026-04-18T12:23:08.038Z</time></trkpt><trkpt lat="43.2890967" lon="11.3729533"><ele>217.0</ele><time>2026-04-18T12:23:09.037Z</time></trkpt><trkpt lat="43.2890967" lon="11.37312"><ele>217.0</ele><time>2026-04-18T12:23:10.038Z</time></trkpt><trkpt lat="43.2890933" lon="11.3732983"><ele>214.66666666666666</ele><time>2026-04-18T12:23:11.038Z</time></trkpt><trkpt lat="43.289085" lon="11.3734983"><ele>212.33333333333331</ele><time>2026-04-18T12:23:12.037Z</time></trkpt><trkpt lat="43.2890833" lon="11.3737267"><ele>210.0</ele><time>2026-04-18T12:23:13.037Z</time></trkpt><trkpt lat="43.28909" lon="11.3739617"><ele>207.33333333333331</ele><time>2026-04-18T12:23:14.036Z</time></trkpt><trkpt lat="43.2890967" lon="11.3742117"><ele>204.66666666666666</ele><time>2026-04-18T12:23:15.036Z</time></trkpt><trkpt lat="43.2891033" lon="11.3744617"><ele>202.0</ele><time>2026-04-18T12:23:16.036Z</time></trkpt><trkpt lat="43.2891167" lon="11.3747133"><ele>199.33333333333331</ele><time>2026-04-18T12:23:17.036Z</time></trkpt><trkpt lat="43.2891283" lon="11.3749667"><ele>196.66666666666669</ele><time>2026-04-18T12:23:18.037Z</time></trkpt><trkpt lat="43.28914" lon="11.375215"><ele>194.0</ele><time>2026-04-18T12:23:19.036Z</time></trkpt><trkpt lat="43.289145" lon="11.3754683"><ele>191.33333333333334</ele><time>2026-04-18T12:23:20.036Z</time></trkpt><trkpt lat="43.2891583" lon="11.3757233"><ele>188.66666666666669</ele><time>2026-04-18T12:23:21.037Z</time></trkpt><trkpt lat="43.2891683" lon="11.3759683"><ele>186.0</ele><time>2026-04-18T12:23:22.037Z</time></trkpt><trkpt lat="43.2891733" lon="11.3762183"><ele>185.0</ele><time>2026-04-18T12:23:23.037Z</time></trkpt><trkpt lat="43.289185" lon="11.37646"><ele>184.0</ele><time>2026-04-18T12:23:24.037Z</time></trkpt><trkpt lat="43.2891933" lon="11.376705"><ele>183.0</ele><time>2026-04-18T12:23:25.036Z</time></trkpt><trkpt lat="43.2892167" lon="11.3769433"><ele>183.0</ele><time>2026-04-18T12:23:26.037Z</time></trkpt><trkpt lat="43.2892367" lon="11.377155"><ele>183.0</ele><time>2026-04-18T12:23:27.036Z</time></trkpt><trkpt lat="43.2892517" lon="11.37735"><ele>183.0</ele><time>2026-04-18T12:23:28.036Z</time></trkpt><trkpt lat="43.28926" lon="11.377515"><ele>183.0</ele><time>2026-04-18T12:23:29.037Z</time></trkpt><trkpt lat="43.2892567" lon="11.37765"><ele>183.4</ele><time>2026-04-18T12:23:30.036Z</time></trkpt><trkpt lat="43.2892433" lon="11.3777533"><ele>183.8</ele><time>2026-04-18T12:23:31.036Z</time></trkpt><trkpt lat="43.2891867" lon="11.3778667"><ele>184.2</ele><time>2026-04-18T12:23:33.036Z</time></trkpt><trkpt lat="43.289125" lon="11.3779117"><ele>184.6</ele><time>2026-04-18T12:23:34.036Z</time></trkpt><trkpt lat="43.2890333" lon="11.3779633"><ele>185.0</ele><time>2026-04-18T12:23:35.036Z</time></trkpt><trkpt lat="43.2889183" lon="11.3780383"><ele>188.25</ele><time>2026-04-18T12:23:36.036Z</time></trkpt><trkpt lat="43.28877" lon="11.3781233"><ele>191.5</ele><time>2026-04-18T12:23:37.036Z</time></trkpt><trkpt lat="43.288635" lon="11.3781967"><ele>194.75</ele><time>2026-04-18T12:23:38.037Z</time></trkpt><trkpt lat="43.2885167" lon="11.3782667"><ele>198.0</ele><time>2026-04-18T12:23:39.037Z</time></trkpt><trkpt lat="43.28841" lon="11.37833"><ele>198.0</ele><time>2026-04-18T12:23:40.036Z</time></trkpt><trkpt lat="43.2883283" lon="11.3784083"><ele>198.0</ele><time>2026-04-18T12:23:41.036Z</time></trkpt><trkpt lat="43.2882517" lon="11.3784933"><ele>198.0</ele><time>2026-04-18T12:23:42.037Z</time></trkpt><trkpt lat="43.28818" lon="11.3785917"><ele>198.0</ele><time>2026-04-18T12:23:43.036Z</time></trkpt><trkpt lat="43.288115" lon="11.378695"><ele>198.0</ele><time>2026-04-18T12:23:44.036Z</time></trkpt><trkpt lat="43.288055" lon="11.3787833"><ele>198.33333333333334</ele><time>2026-04-18T12:23:45.037Z</time></trkpt><trkpt lat="43.28802" lon="11.3788733"><ele>198.66666666666669</ele><time>2026-04-18T12:23:46.037Z</time></trkpt><trkpt lat="43.2879933" lon="11.3789667"><ele>199.0</ele><time>2026-04-18T12:23:47.036Z</time></trkpt><trkpt lat="43.2879933" lon="11.3790783"><ele>199.33333333333334</ele><time>2026-04-18T12:23:48.037Z</time></trkpt><trkpt lat="43.288" lon="11.3791883"><ele>199.66666666666669</ele><time>2026-04-18T12:23:49.037Z</time></trkpt><trkpt lat="43.2880067" lon="11.3792817"><ele>200.0</ele><time>2026-04-18T12:23:50.036Z</time></trkpt><trkpt lat="43.2880067" lon="11.379405"><ele>200.0</ele><time>2026-04-18T12:23:52.036Z</time></trkpt><trkpt lat="43.2879333" lon="11.3795383"><ele>200.0</ele><time>2026-04-18T12:24:04.036Z</time></trkpt><trkpt lat="43.28781" lon="11.37961"><ele>200.0</ele><time>2026-04-18T12:24:06.037Z</time></trkpt><trkpt lat="43.2877217" lon="11.3796567"><ele>200.0</ele><time>2026-04-18T12:24:07.037Z</time></trkpt><trkpt lat="43.2876233" lon="11.379705"><ele>199.5</ele><time>2026-04-18T12:24:08.036Z</time></trkpt><trkpt lat="43.287515" lon="11.3797517"><ele>199.0</ele><time>2026-04-18T12:24:09.037Z</time></trkpt><trkpt lat="43.2874033" lon="11.3798"><ele>198.5</ele><time>2026-04-18T12:24:10.036Z</time></trkpt><trkpt lat="43.2872933" lon="11.37984"><ele>198.0</ele><time>2026-04-18T12:24:11.036Z</time></trkpt><trkpt lat="43.287185" lon="11.3798683"><ele>197.25</ele><time>2026-04-18T12:24:12.037Z</time></trkpt><trkpt lat="43.28706" lon="11.3798683"><ele>196.5</ele><time>2026-04-18T12:24:13.037Z</time></trkpt><trkpt lat="43.2869417" lon="11.3798583"><ele>195.75</ele><time>2026-04-18T12:24:14.036Z</time></trkpt><trkpt lat="43.28681" lon="11.37984"><ele>195.0</ele><time>2026-04-18T12:24:15.036Z</time></trkpt><trkpt lat="43.2866717" lon="11.3798117"><ele>195.0</ele><time>2026-04-18T12:24:16.036Z</time></trkpt><trkpt lat="43.28654" lon="11.3797633"><ele>195.0</ele><time>2026-04-18T12:24:17.036Z</time></trkpt><trkpt lat="43.2864083" lon="11.3797067"><ele>195.0</ele><time>2026-04-18T12:24:18.036Z</time></trkpt><trkpt lat="43.286275" lon="11.3796333"><ele>195.0</ele><time>2026-04-18T12:24:19.036Z</time></trkpt><trkpt lat="43.28614" lon="11.379555"><ele>195.5</ele><time>2026-04-18T12:24:20.037Z</time></trkpt><trkpt lat="43.2860067" lon="11.3794667"><ele>196.0</ele><time>2026-04-18T12:24:21.036Z</time></trkpt><trkpt lat="43.285885" lon="11.3793717"><ele>196.5</ele><time>2026-04-18T12:24:22.036Z</time></trkpt><trkpt lat="43.2857583" lon="11.3792817"><ele>197.0</ele><time>2026-04-18T12:24:23.036Z</time></trkpt><trkpt lat="43.2856333" lon="11.37919"><ele>196.25</ele><time>2026-04-18T12:24:24.037Z</time></trkpt><trkpt lat="43.2855017" lon="11.3791117"><ele>195.5</ele><time>2026-04-18T12:24:25.037Z</time></trkpt><trkpt lat="43.2853717" lon="11.3790533"><ele>194.75</ele><time>2026-04-18T12:24:26.037Z</time></trkpt><trkpt lat="43.2852367" lon="11.3790117"><ele>194.0</ele><time>2026-04-18T12:24:27.036Z</time></trkpt><trkpt lat="43.2850983" lon="11.378985"><ele>194.0</ele><time>2026-04-18T12:24:28.036Z</time></trkpt><trkpt lat="43.284965" lon="11.3789683"><ele>194.0</ele><time>2026-04-18T12:24:29.037Z</time></trkpt><trkpt lat="43.2848417" lon="11.378955"><ele>194.0</ele><time>2026-04-18T12:24:30.037Z</time></trkpt><trkpt lat="43.2847283" lon="11.37894"><ele>194.0</ele><time>2026-04-18T12:24:31.037Z</time></trkpt><trkpt lat="43.2846133" lon="11.37892"><ele>193.75</ele><time>2026-04-18T12:24:32.036Z</time></trkpt><trkpt lat="43.2844967" lon="11.378905"><ele>193.5</ele><time>2026-04-18T12:24:33.036Z</time></trkpt><trkpt lat="43.2843817" lon="11.3788767"><ele>193.25</ele><time>2026-04-18T12:24:34.037Z</time></trkpt><trkpt lat="43.2842717" lon="11.3788417"><ele>193.0</ele><time>2026-04-18T12:24:35.037Z</time></trkpt><trkpt lat="43.2841733" lon="11.3787783"><ele>191.5</ele><time>2026-04-18T12:24:36.037Z</time></trkpt><trkpt lat="43.284085" lon="11.3786833"><ele>190.0</ele><time>2026-04-18T12:24:37.036Z</time></trkpt><trkpt lat="43.2840067" lon="11.3785567"><ele>188.5</ele><time>2026-04-18T12:24:38.036Z</time></trkpt><trkpt lat="43.2839367" lon="11.378415"><ele>187.0</ele><time>2026-04-18T12:24:39.036Z</time></trkpt><trkpt lat="43.2838783" lon="11.378265"><ele>185.5</ele><time>2026-04-18T12:24:40.036Z</time></trkpt><trkpt lat="43.283815" lon="11.3781317"><ele>184.0</ele><time>2026-04-18T12:24:41.037Z</time></trkpt><trkpt lat="43.2837367" lon="11.3780067"><ele>182.5</ele><time>2026-04-18T12:24:42.036Z</time></trkpt><trkpt lat="43.2836433" lon="11.3779083"><ele>181.0</ele><time>2026-04-18T12:24:43.036Z</time></trkpt><trkpt lat="43.283545" lon="11.3778317"><ele>180.5</ele><time>2026-04-18T12:24:44.036Z</time></trkpt><trkpt lat="43.283425" lon="11.3777783"><ele>180.0</ele><time>2026-04-18T12:24:45.036Z</time></trkpt><trkpt lat="43.28329" lon="11.377755"><ele>179.5</ele><time>2026-04-18T12:24:46.036Z</time></trkpt><trkpt lat="43.2831517" lon="11.37776"><ele>179.0</ele><time>2026-04-18T12:24:47.036Z</time></trkpt><trkpt lat="43.28302" lon="11.3777883"><ele>178.75</ele><time>2026-04-18T12:24:48.036Z</time></trkpt><trkpt lat="43.2828883" lon="11.377835"><ele>178.5</ele><time>2026-04-18T12:24:49.036Z</time></trkpt><trkpt lat="43.282765" lon="11.3778783"><ele>178.25</ele><time>2026-04-18T12:24:50.036Z</time></trkpt><trkpt lat="43.2826417" lon="11.377915"><ele>178.0</ele><time>2026-04-18T12:24:51.036Z</time></trkpt><trkpt lat="43.2825233" lon="11.3779217"><ele>178.0</ele><time>2026-04-18T12:24:52.036Z</time></trkpt><trkpt lat="43.2824067" lon="11.37791"><ele>178.0</ele><time>2026-04-18T12:24:53.036Z</time></trkpt><trkpt lat="43.2823017" lon="11.377875"><ele>178.0</ele><time>2026-04-18T12:24:54.036Z</time></trkpt><trkpt lat="43.28221" lon="11.3778033"><ele>178.0</ele><time>2026-04-18T12:24:55.036Z</time></trkpt><trkpt lat="43.28213" lon="11.377705"><ele>178.0</ele><time>2026-04-18T12:24:56.036Z</time></trkpt><trkpt lat="43.2820617" lon="11.377585"><ele>177.8</ele><time>2026-04-18T12:24:57.037Z</time></trkpt><trkpt lat="43.28201" lon="11.377445"><ele>177.60000000000002</ele><time>2026-04-18T12:24:58.037Z</time></trkpt><trkpt lat="43.2819733" lon="11.3773167"><ele>177.39999999999998</ele><time>2026-04-18T12:24:59.037Z</time></trkpt><trkpt lat="43.281945" lon="11.3771967"><ele>177.2</ele><time>2026-04-18T12:25:00.036Z</time></trkpt><trkpt lat="43.2819283" lon="11.37709"><ele>177.0</ele><time>2026-04-18T12:25:01.037Z</time></trkpt><trkpt lat="43.2819067" lon="11.376995"><ele>176.6</ele><time>2026-04-18T12:25:02.037Z</time></trkpt><trkpt lat="43.2818833" lon="11.3768283"><ele>176.2</ele><time>2026-04-18T12:25:04.036Z</time></trkpt><trkpt lat="43.28189" lon="11.3766683"><ele>175.8</ele><time>2026-04-18T12:25:06.036Z</time></trkpt><trkpt lat="43.2819133" lon="11.376585"><ele>175.4</ele><time>2026-04-18T12:25:07.036Z</time></trkpt><trkpt lat="43.281945" lon="11.3764933"><ele>175.0</ele><time>2026-04-18T12:25:08.036Z</time></trkpt><trkpt lat="43.2819683" lon="11.3763817"><ele>175.33333333333334</ele><time>2026-04-18T12:25:09.036Z</time></trkpt><trkpt lat="43.2819683" lon="11.37627"><ele>175.66666666666669</ele><time>2026-04-18T12:25:10.036Z</time></trkpt><trkpt lat="43.28194" lon="11.3761667"><ele>176.0</ele><time>2026-04-18T12:25:11.037Z</time></trkpt><trkpt lat="43.2818967" lon="11.3760717"><ele>176.33333333333334</ele><time>2026-04-18T12:25:12.037Z</time></trkpt><trkpt lat="43.2818367" lon="11.375995"><ele>176.66666666666666</ele><time>2026-04-18T12:25:13.036Z</time></trkpt><trkpt lat="43.28176" lon="11.3759133"><ele>177.0</ele><time>2026-04-18T12:25:14.036Z</time></trkpt><trkpt lat="43.2816767" lon="11.3758033"><ele>177.0</ele><time>2026-04-18T12:25:15.036Z</time></trkpt><trkpt lat="43.2816117" lon="11.375665"><ele>177.0</ele><time>2026-04-18T12:25:16.036Z</time></trkpt><trkpt lat="43.281565" lon="11.3754867"><ele>177.0</ele><time>2026-04-18T12:25:17.036Z</time></trkpt><trkpt lat="43.28155" lon="11.3752933"><ele>177.0</ele><time>2026-04-18T12:25:18.036Z</time></trkpt><trkpt lat="43.2815483" lon="11.3750933"><ele>178.66666666666666</ele><time>2026-04-18T12:25:19.036Z</time></trkpt><trkpt lat="43.2815733" lon="11.374885"><ele>180.33333333333331</ele><time>2026-04-18T12:25:20.037Z</time></trkpt><trkpt lat="43.2816217" lon="11.3746767"><ele>182.0</ele><time>2026-04-18T12:25:21.036Z</time></trkpt><trkpt lat="43.2816867" lon="11.37447"><ele>184.33333333333331</ele><time>2026-04-18T12:25:22.037Z</time></trkpt><trkpt lat="43.28177" lon="11.3742667"><ele>186.66666666666666</ele><time>2026-04-18T12:25:23.036Z</time></trkpt><trkpt lat="43.2818633" lon="11.3740717"><ele>189.0</ele><time>2026-04-18T12:25:24.036Z</time></trkpt><trkpt lat="43.2819633" lon="11.37388"><ele>190.33333333333331</ele><time>2026-04-18T12:25:25.037Z</time></trkpt><trkpt lat="43.28206" lon="11.37369"><ele>191.66666666666666</ele><time>2026-04-18T12:25:26.037Z</time></trkpt><trkpt lat="43.2821333" lon="11.373505"><ele>193.0</ele><time>2026-04-18T12:25:27.036Z</time></trkpt><trkpt lat="43.2822017" lon="11.37332"><ele>193.0</ele><time>2026-04-18T12:25:28.036Z</time></trkpt><trkpt lat="43.2822433" lon="11.373125"><ele>193.0</ele><time>2026-04-18T12:25:29.037Z</time></trkpt><trkpt lat="43.2822633" lon="11.3729233"><ele>193.0</ele><time>2026-04-18T12:25:30.036Z</time></trkpt><trkpt lat="43.28228" lon="11.3727233"><ele>193.0</ele><time>2026-04-18T12:25:31.036Z</time></trkpt><trkpt lat="43.2822983" lon="11.372515"><ele>193.66666666666666</ele><time>2026-04-18T12:25:32.036Z</time></trkpt><trkpt lat="43.2823167" lon="11.3723067"><ele>194.33333333333331</ele><time>2026-04-18T12:25:33.037Z</time></trkpt><trkpt lat="43.2823367" lon="11.3720983"><ele>195.0</ele><time>2026-04-18T12:25:34.036Z</time></trkpt><trkpt lat="43.2823533" lon="11.3718883"><ele>196.33333333333331</ele><time>2026-04-18T12:25:35.036Z</time></trkpt><trkpt lat="43.2823717" lon="11.3716833"><ele>197.66666666666666</ele><time>2026-04-18T12:25:36.037Z</time></trkpt><trkpt lat="43.2823867" lon="11.3714767"><ele>199.0</ele><time>2026-04-18T12:25:37.037Z</time></trkpt><trkpt lat="43.282405" lon="11.3712733"><ele>199.5</ele><time>2026-04-18T12:25:38.036Z</time></trkpt><trkpt lat="43.2824233" lon="11.3710767"><ele>200.0</ele><time>2026-04-18T12:25:39.036Z</time></trkpt><trkpt lat="43.2824417" lon="11.37088"><ele>200.5</ele><time>2026-04-18T12:25:40.036Z</time></trkpt><trkpt lat="43.282465" lon="11.3706917"><ele>201.0</ele><time>2026-04-18T12:25:41.037Z</time></trkpt><trkpt lat="43.282495" lon="11.370505"><ele>202.0</ele><time>2026-04-18T12:25:42.037Z</time></trkpt><trkpt lat="43.2825383" lon="11.3703233"><ele>203.0</ele><time>2026-04-18T12:25:43.037Z</time></trkpt><trkpt lat="43.2825933" lon="11.3701483"><ele>204.0</ele><time>2026-04-18T12:25:44.036Z</time></trkpt><trkpt lat="43.2826533" lon="11.3699783"><ele>205.0</ele><time>2026-04-18T12:25:45.036Z</time></trkpt><trkpt lat="43.2827217" lon="11.369815"><ele>204.75</ele><time>2026-04-18T12:25:46.037Z</time></trkpt><trkpt lat="43.2827967" lon="11.369655"><ele>204.5</ele><time>2026-04-18T12:25:47.036Z</time></trkpt><trkpt lat="43.2828767" lon="11.3694983"><ele>204.25</ele><time>2026-04-18T12:25:48.037Z</time></trkpt><trkpt lat="43.2829567" lon="11.3693467"><ele>204.0</ele><time>2026-04-18T12:25:49.036Z</time></trkpt><trkpt lat="43.2830367" lon="11.3691967"><ele>204.75</ele><time>2026-04-18T12:25:50.036Z</time></trkpt><trkpt lat="43.2831133" lon="11.3690467"><ele>205.5</ele><time>2026-04-18T12:25:51.036Z</time></trkpt><trkpt lat="43.28319" lon="11.3688983"><ele>206.25</ele><time>2026-04-18T12:25:52.036Z</time></trkpt><trkpt lat="43.283265" lon="11.3687483"><ele>207.0</ele><time>2026-04-18T12:25:53.036Z</time></trkpt><trkpt lat="43.28333" lon="11.3685917"><ele>207.25</ele><time>2026-04-18T12:25:54.036Z</time></trkpt><trkpt lat="43.2833883" lon="11.3684333"><ele>207.5</ele><time>2026-04-18T12:25:55.036Z</time></trkpt><trkpt lat="43.2834333" lon="11.3682683"><ele>207.75</ele><time>2026-04-18T12:25:56.037Z</time></trkpt><trkpt lat="43.2834733" lon="11.368095"><ele>208.0</ele><time>2026-04-18T12:25:57.037Z</time></trkpt><trkpt lat="43.2834967" lon="11.3679083"><ele>208.0</ele><time>2026-04-18T12:25:58.037Z</time></trkpt><trkpt lat="43.283505" lon="11.3677317"><ele>208.0</ele><time>2026-04-18T12:25:59.036Z</time></trkpt><trkpt lat="43.2835033" lon="11.3675583"><ele>208.0</ele><time>2026-04-18T12:26:00.036Z</time></trkpt><trkpt lat="43.28349" lon="11.367385"><ele>208.0</ele><time>2026-04-18T12:26:01.037Z</time></trkpt><trkpt lat="43.2834617" lon="11.3672083"><ele>208.75</ele><time>2026-04-18T12:26:02.036Z</time></trkpt><trkpt lat="43.2834217" lon="11.3670267"><ele>209.5</ele><time>2026-04-18T12:26:03.037Z</time></trkpt><trkpt lat="43.2833667" lon="11.3668583"><ele>210.25</ele><time>2026-04-18T12:26:04.037Z</time></trkpt><trkpt lat="43.283305" lon="11.3666933"><ele>211.0</ele><time>2026-04-18T12:26:05.036Z</time></trkpt><trkpt lat="43.2832417" lon="11.36654"><ele>211.0</ele><time>2026-04-18T12:26:06.037Z</time></trkpt><trkpt lat="43.2831667" lon="11.36639"><ele>211.0</ele><time>2026-04-18T12:26:07.036Z</time></trkpt><trkpt lat="43.2830933" lon="11.3662533"><ele>211.0</ele><time>2026-04-18T12:26:08.036Z</time></trkpt><trkpt lat="43.2830067" lon="11.36612"><ele>211.0</ele><time>2026-04-18T12:26:09.037Z</time></trkpt><trkpt lat="43.2829017" lon="11.3660033"><ele>212.0</ele><time>2026-04-18T12:26:10.036Z</time></trkpt><trkpt lat="43.2828" lon="11.3658967"><ele>213.0</ele><time>2026-04-18T12:26:11.036Z</time></trkpt><trkpt lat="43.282695" lon="11.3657933"><ele>214.0</ele><time>2026-04-18T12:26:12.036Z</time></trkpt><trkpt lat="43.2825883" lon="11.3656883"><ele>215.0</ele><time>2026-04-18T12:26:13.036Z</time></trkpt><trkpt lat="43.2824933" lon="11.3655733"><ele>215.0</ele><time>2026-04-18T12:26:14.036Z</time></trkpt><trkpt lat="43.28241" lon="11.3654633"><ele>215.0</ele><time>2026-04-18T12:26:15.037Z</time></trkpt><trkpt lat="43.28233" lon="11.3653467"><ele>215.0</ele><time>2026-04-18T12:26:16.036Z</time></trkpt><trkpt lat="43.2822633" lon="11.3652133"><ele>215.0</ele><time>2026-04-18T12:26:17.036Z</time></trkpt><trkpt lat="43.2822117" lon="11.3650667"><ele>215.0</ele><time>2026-04-18T12:26:18.036Z</time></trkpt><trkpt lat="43.2821833" lon="11.36491"><ele>215.0</ele><time>2026-04-18T12:26:19.037Z</time></trkpt><trkpt lat="43.2821667" lon="11.36475"><ele>215.0</ele><time>2026-04-18T12:26:20.037Z</time></trkpt><trkpt lat="43.2821767" lon="11.3645883"><ele>215.0</ele><time>2026-04-18T12:26:21.036Z</time></trkpt><trkpt lat="43.28219" lon="11.3644217"><ele>214.0</ele><time>2026-04-18T12:26:22.036Z</time></trkpt><trkpt lat="43.282215" lon="11.364255"><ele>213.0</ele><time>2026-04-18T12:26:23.037Z</time></trkpt><trkpt lat="43.2822433" lon="11.3640983"><ele>212.0</ele><time>2026-04-18T12:26:24.037Z</time></trkpt><trkpt lat="43.2822867" lon="11.3639333"><ele>211.0</ele><time>2026-04-18T12:26:25.036Z</time></trkpt><trkpt lat="43.2823367" lon="11.36377"><ele>213.25</ele><time>2026-04-18T12:26:26.036Z</time></trkpt><trkpt lat="43.2824067" lon="11.36361"><ele>215.5</ele><time>2026-04-18T12:26:27.037Z</time></trkpt><trkpt lat="43.2824733" lon="11.3634433"><ele>217.75</ele><time>2026-04-18T12:26:28.036Z</time></trkpt><trkpt lat="43.2825567" lon="11.3632733"><ele>220.0</ele><time>2026-04-18T12:26:29.036Z</time></trkpt><trkpt lat="43.2826467" lon="11.3631033"><ele>218.0</ele><time>2026-04-18T12:26:30.036Z</time></trkpt><trkpt lat="43.2827267" lon="11.3629283"><ele>216.0</ele><time>2026-04-18T12:26:31.037Z</time></trkpt><trkpt lat="43.282815" lon="11.3627633"><ele>214.0</ele><time>2026-04-18T12:26:32.037Z</time></trkpt><trkpt lat="43.2828917" lon="11.362605"><ele>212.0</ele><time>2026-04-18T12:26:33.036Z</time></trkpt><trkpt lat="43.2829617" lon="11.362455"><ele>212.0</ele><time>2026-04-18T12:26:34.037Z</time></trkpt><trkpt lat="43.2830283" lon="11.362305"><ele>212.0</ele><time>2026-04-18T12:26:35.037Z</time></trkpt><trkpt lat="43.2830883" lon="11.3621533"><ele>212.0</ele><time>2026-04-18T12:26:36.036Z</time></trkpt><trkpt lat="43.2831467" lon="11.3619967"><ele>212.0</ele><time>2026-04-18T12:26:37.036Z</time></trkpt><trkpt lat="43.2832" lon="11.361825"><ele>215.66666666666669</ele><time>2026-04-18T12:26:38.036Z</time></trkpt><trkpt lat="43.2832483" lon="11.3616217"><ele>219.33333333333331</ele><time>2026-04-18T12:26:39.036Z</time></trkpt><trkpt lat="43.2832983" lon="11.36139"><ele>223.0</ele><time>2026-04-18T12:26:40.037Z</time></trkpt><trkpt lat="43.2833383" lon="11.3611467"><ele>223.0</ele><time>2026-04-18T12:26:41.036Z</time></trkpt><trkpt lat="43.2833933" lon="11.3609033"><ele>223.0</ele><time>2026-04-18T12:26:42.037Z</time></trkpt><trkpt lat="43.2834517" lon="11.360655"><ele>223.0</ele><time>2026-04-18T12:26:43.035Z</time></trkpt><trkpt lat="43.2835167" lon="11.3604117"><ele>221.0</ele><time>2026-04-18T12:26:44.035Z</time></trkpt><trkpt lat="43.2835833" lon="11.360175"><ele>219.0</ele><time>2026-04-18T12:26:45.035Z</time></trkpt><trkpt lat="43.2836533" lon="11.35994"><ele>217.0</ele><time>2026-04-18T12:26:46.036Z</time></trkpt><trkpt lat="43.283725" lon="11.3597017"><ele>216.33333333333331</ele><time>2026-04-18T12:26:47.035Z</time></trkpt><trkpt lat="43.2837933" lon="11.359455"><ele>215.66666666666669</ele><time>2026-04-18T12:26:48.036Z</time></trkpt><trkpt lat="43.2838633" lon="11.35921"><ele>215.0</ele><time>2026-04-18T12:26:49.035Z</time></trkpt><trkpt lat="43.2839317" lon="11.3589683"><ele>219.66666666666669</ele><time>2026-04-18T12:26:50.036Z</time></trkpt><trkpt lat="43.284005" lon="11.358725"><ele>224.33333333333331</ele><time>2026-04-18T12:26:51.035Z</time></trkpt><trkpt lat="43.2840733" lon="11.3584867"><ele>229.0</ele><time>2026-04-18T12:26:52.035Z</time></trkpt><trkpt lat="43.28414" lon="11.3582467"><ele>228.66666666666666</ele><time>2026-04-18T12:26:53.035Z</time></trkpt><trkpt lat="43.284195" lon="11.3580083"><ele>228.33333333333331</ele><time>2026-04-18T12:26:54.036Z</time></trkpt><trkpt lat="43.284245" lon="11.357765"><ele>228.0</ele><time>2026-04-18T12:26:55.036Z</time></trkpt><trkpt lat="43.2842867" lon="11.35753"><ele>228.0</ele><time>2026-04-18T12:26:56.036Z</time></trkpt><trkpt lat="43.284335" lon="11.3572967"><ele>228.0</ele><time>2026-04-18T12:26:57.035Z</time></trkpt><trkpt lat="43.2843883" lon="11.3570717"><ele>228.0</ele><time>2026-04-18T12:26:58.036Z</time></trkpt><trkpt lat="43.2844483" lon="11.3568517"><ele>227.66666666666669</ele><time>2026-04-18T12:26:59.035Z</time></trkpt><trkpt lat="43.2845133" lon="11.3566367"><ele>227.33333333333334</ele><time>2026-04-18T12:27:00.035Z</time></trkpt><trkpt lat="43.2845783" lon="11.3564267"><ele>227.0</ele><time>2026-04-18T12:27:01.036Z</time></trkpt><trkpt lat="43.2846517" lon="11.35622"><ele>226.66666666666669</ele><time>2026-04-18T12:27:02.035Z</time></trkpt><trkpt lat="43.2847267" lon="11.356015"><ele>226.33333333333331</ele><time>2026-04-18T12:27:03.035Z</time></trkpt><trkpt lat="43.284805" lon="11.3558183"><ele>226.0</ele><time>2026-04-18T12:27:04.035Z</time></trkpt><trkpt lat="43.28488" lon="11.35562"><ele>228.5</ele><time>2026-04-18T12:27:05.036Z</time></trkpt><trkpt lat="43.284945" lon="11.3554333"><ele>231.0</ele><time>2026-04-18T12:27:06.035Z</time></trkpt><trkpt lat="43.28501" lon="11.3552483"><ele>233.5</ele><time>2026-04-18T12:27:07.035Z</time></trkpt><trkpt lat="43.2850667" lon="11.35508"><ele>236.0</ele><time>2026-04-18T12:27:08.035Z</time></trkpt><trkpt lat="43.2851017" lon="11.3549017"><ele>236.0</ele><time>2026-04-18T12:27:09.036Z</time></trkpt><trkpt lat="43.28511" lon="11.354715"><ele>236.0</ele><time>2026-04-18T12:27:10.035Z</time></trkpt><trkpt lat="43.2850217" lon="11.3543483"><ele>236.0</ele><time>2026-04-18T12:27:12.035Z</time></trkpt><trkpt lat="43.2849483" lon="11.35418"><ele>236.0</ele><time>2026-04-18T12:27:13.035Z</time></trkpt><trkpt lat="43.2848583" lon="11.35404"><ele>236.0</ele><time>2026-04-18T12:27:14.035Z</time></trkpt><trkpt lat="43.2847667" lon="11.3539067"><ele>236.0</ele><time>2026-04-18T12:27:15.035Z</time></trkpt><trkpt lat="43.2846817" lon="11.35378"><ele>236.0</ele><time>2026-04-18T12:27:16.036Z</time></trkpt><trkpt lat="43.2846067" lon="11.353665"><ele>236.00000000000003</ele><time>2026-04-18T12:27:17.035Z</time></trkpt><trkpt lat="43.28455" lon="11.3535567"><ele>236.0</ele><time>2026-04-18T12:27:18.036Z</time></trkpt><trkpt lat="43.28451" lon="11.3534833"><ele>236.0</ele><time>2026-04-18T12:27:19.035Z</time></trkpt><trkpt lat="43.284455" lon="11.35339"><ele>236.0</ele><time>2026-04-18T12:27:21.035Z</time></trkpt><trkpt lat="43.2843883" lon="11.3533217"><ele>236.00000000000003</ele><time>2026-04-18T12:27:32.035Z</time></trkpt><trkpt lat="43.2843233" lon="11.353325"><ele>236.0</ele><time>2026-04-18T12:27:33.035Z</time></trkpt><trkpt lat="43.28424" lon="11.3533767"><ele>236.0</ele><time>2026-04-18T12:27:34.035Z</time></trkpt><trkpt lat="43.284145" lon="11.35344"><ele>236.0</ele><time>2026-04-18T12:27:35.035Z</time></trkpt><trkpt lat="43.2840283" lon="11.3535117"><ele>236.0</ele><time>2026-04-18T12:27:36.036Z</time></trkpt><trkpt lat="43.283905" lon="11.3535717"><ele>236.0</ele><time>2026-04-18T12:27:37.035Z</time></trkpt><trkpt lat="43.2837717" lon="11.3536183"><ele>236.5</ele><time>2026-04-18T12:27:38.036Z</time></trkpt><trkpt lat="43.283635" lon="11.353655"><ele>237.0</ele><time>2026-04-18T12:27:39.036Z</time></trkpt><trkpt lat="43.2834967" lon="11.3536633"><ele>237.5</ele><time>2026-04-18T12:27:40.035Z</time></trkpt><trkpt lat="43.2833533" lon="11.35366"><ele>238.0</ele><time>2026-04-18T12:27:41.035Z</time></trkpt><trkpt lat="43.2832067" lon="11.3536483"><ele>238.0</ele><time>2026-04-18T12:27:42.035Z</time></trkpt><trkpt lat="43.28306" lon="11.3536283"><ele>238.0</ele><time>2026-04-18T12:27:43.036Z</time></trkpt><trkpt lat="43.2829083" lon="11.35359"><ele>238.0</ele><time>2026-04-18T12:27:44.035Z</time></trkpt><trkpt lat="43.28276" lon="11.3535617"><ele>238.0</ele><time>2026-04-18T12:27:45.035Z</time></trkpt><trkpt lat="43.2826117" lon="11.35353"><ele>238.0</ele><time>2026-04-18T12:27:46.035Z</time></trkpt><trkpt lat="43.2824683" lon="11.3535017"><ele>238.0</ele><time>2026-04-18T12:27:47.036Z</time></trkpt><trkpt lat="43.2823267" lon="11.3534683"><ele>238.0</ele><time>2026-04-18T12:27:48.035Z</time></trkpt><trkpt lat="43.282185" lon="11.3534317"><ele>238.0</ele><time>2026-04-18T12:27:49.036Z</time></trkpt><trkpt lat="43.2820483" lon="11.3533917"><ele>238.0</ele><time>2026-04-18T12:27:50.036Z</time></trkpt><trkpt lat="43.2819083" lon="11.3533617"><ele>238.0</ele><time>2026-04-18T12:27:51.035Z</time></trkpt><trkpt lat="43.2817667" lon="11.3533267"><ele>238.0</ele><time>2026-04-18T12:27:52.035Z</time></trkpt><trkpt lat="43.281615" lon="11.3532967"><ele>238.0</ele><time>2026-04-18T12:27:53.036Z</time></trkpt><trkpt lat="43.2814683" lon="11.3532533"><ele>238.0</ele><time>2026-04-18T12:27:54.035Z</time></trkpt><trkpt lat="43.2813117" lon="11.3532133"><ele>238.0</ele><time>2026-04-18T12:27:55.036Z</time></trkpt><trkpt lat="43.281155" lon="11.3531733"><ele>238.0</ele><time>2026-04-18T12:27:56.035Z</time></trkpt><trkpt lat="43.2809983" lon="11.3531167"><ele>238.0</ele><time>2026-04-18T12:27:57.036Z</time></trkpt><trkpt lat="43.28085" lon="11.3530633"><ele>238.0</ele><time>2026-04-18T12:27:58.035Z</time></trkpt><trkpt lat="43.2807" lon="11.3530033"><ele>235.33333333333331</ele><time>2026-04-18T12:27:59.036Z</time></trkpt><trkpt lat="43.2805433" lon="11.3529533"><ele>232.66666666666669</ele><time>2026-04-18T12:28:00.035Z</time></trkpt><trkpt lat="43.2803867" lon="11.3528983"><ele>230.0</ele><time>2026-04-18T12:28:01.035Z</time></trkpt><trkpt lat="43.2802283" lon="11.35285"><ele>230.0</ele><time>2026-04-18T12:28:02.036Z</time></trkpt><trkpt lat="43.2800617" lon="11.3528"><ele>230.0</ele><time>2026-04-18T12:28:03.035Z</time></trkpt><trkpt lat="43.2798933" lon="11.3527533"><ele>230.0</ele><time>2026-04-18T12:28:04.035Z</time></trkpt><trkpt lat="43.27973" lon="11.3527133"><ele>229.25</ele><time>2026-04-18T12:28:05.036Z</time></trkpt><trkpt lat="43.2795817" lon="11.35268"><ele>228.5</ele><time>2026-04-18T12:28:06.035Z</time></trkpt><trkpt lat="43.27944" lon="11.3526517"><ele>227.75</ele><time>2026-04-18T12:28:07.036Z</time></trkpt><trkpt lat="43.2793017" lon="11.3526267"><ele>227.0</ele><time>2026-04-18T12:28:08.036Z</time></trkpt><trkpt lat="43.279155" lon="11.35262"><ele>227.0</ele><time>2026-04-18T12:28:09.035Z</time></trkpt><trkpt lat="43.279015" lon="11.3526183"><ele>227.0</ele><time>2026-04-18T12:28:10.035Z</time></trkpt><trkpt lat="43.27888" lon="11.3526317"><ele>227.0</ele><time>2026-04-18T12:28:11.035Z</time></trkpt><trkpt lat="43.2787333" lon="11.3526717"><ele>227.0</ele><time>2026-04-18T12:28:12.035Z</time></trkpt><trkpt lat="43.2785867" lon="11.3527333"><ele>227.0</ele><time>2026-04-18T12:28:13.035Z</time></trkpt><trkpt lat="43.278435" lon="11.35281"><ele>227.0</ele><time>2026-04-18T12:28:14.035Z</time></trkpt><trkpt lat="43.2782933" lon="11.3529017"><ele>227.0</ele><time>2026-04-18T12:28:15.035Z</time></trkpt><trkpt lat="43.2781383" lon="11.3529933"><ele>228.33333333333334</ele><time>2026-04-18T12:28:16.036Z</time></trkpt><trkpt lat="43.27799" lon="11.3530783"><ele>229.66666666666669</ele><time>2026-04-18T12:28:17.035Z</time></trkpt><trkpt lat="43.2778433" lon="11.3531733"><ele>231.0</ele><time>2026-04-18T12:28:18.035Z</time></trkpt><trkpt lat="43.2777067" lon="11.353265"><ele>231.0</ele><time>2026-04-18T12:28:19.036Z</time></trkpt><trkpt lat="43.2775683" lon="11.35335"><ele>231.0</ele><time>2026-04-18T12:28:20.036Z</time></trkpt><trkpt lat="43.277425" lon="11.3534333"><ele>231.0</ele><time>2026-04-18T12:28:21.035Z</time></trkpt><trkpt lat="43.27728" lon="11.353515"><ele>231.33333333333331</ele><time>2026-04-18T12:28:22.035Z</time></trkpt><trkpt lat="43.2771333" lon="11.35358"><ele>231.66666666666666</ele><time>2026-04-18T12:28:23.035Z</time></trkpt><trkpt lat="43.276985" lon="11.35363"><ele>232.0</ele><time>2026-04-18T12:28:24.035Z</time></trkpt><trkpt lat="43.27683" lon="11.3536733"><ele>232.0</ele><time>2026-04-18T12:28:25.036Z</time></trkpt><trkpt lat="43.27667" lon="11.35371"><ele>232.0</ele><time>2026-04-18T12:28:26.036Z</time></trkpt><trkpt lat="43.2765117" lon="11.3537417"><ele>232.0</ele><time>2026-04-18T12:28:27.035Z</time></trkpt><trkpt lat="43.2763533" lon="11.353775"><ele>230.33333333333331</ele><time>2026-04-18T12:28:28.035Z</time></trkpt><trkpt lat="43.2761967" lon="11.3538167"><ele>228.66666666666669</ele><time>2026-04-18T12:28:29.036Z</time></trkpt><trkpt lat="43.27603" lon="11.3538417"><ele>227.0</ele><time>2026-04-18T12:28:30.035Z</time></trkpt><trkpt lat="43.275865" lon="11.3538733"><ele>225.66666666666669</ele><time>2026-04-18T12:28:31.035Z</time></trkpt><trkpt lat="43.2757" lon="11.3539083"><ele>224.33333333333331</ele><time>2026-04-18T12:28:32.035Z</time></trkpt><trkpt lat="43.2755333" lon="11.3539383"><ele>223.0</ele><time>2026-04-18T12:28:33.035Z</time></trkpt><trkpt lat="43.2753667" lon="11.3539667"><ele>222.66666666666666</ele><time>2026-04-18T12:28:34.035Z</time></trkpt><trkpt lat="43.2751983" lon="11.3540017"><ele>222.33333333333331</ele><time>2026-04-18T12:28:35.036Z</time></trkpt><trkpt lat="43.275035" lon="11.35404"><ele>222.0</ele><time>2026-04-18T12:28:36.035Z</time></trkpt><trkpt lat="43.274875" lon="11.35409"><ele>223.0</ele><time>2026-04-18T12:28:37.036Z</time></trkpt><trkpt lat="43.2747167" lon="11.3541583"><ele>224.0</ele><time>2026-04-18T12:28:38.035Z</time></trkpt><trkpt lat="43.274575" lon="11.35425"><ele>225.0</ele><time>2026-04-18T12:28:39.035Z</time></trkpt><trkpt lat="43.2744467" lon="11.3543833"><ele>225.0</ele><time>2026-04-18T12:28:40.035Z</time></trkpt><trkpt lat="43.2743317" lon="11.3545383"><ele>225.0</ele><time>2026-04-18T12:28:41.036Z</time></trkpt><trkpt lat="43.274225" lon="11.3547067"><ele>225.0</ele><time>2026-04-18T12:28:42.035Z</time></trkpt><trkpt lat="43.2741067" lon="11.35487"><ele>224.0</ele><time>2026-04-18T12:28:43.035Z</time></trkpt><trkpt lat="43.27399" lon="11.3550383"><ele>223.0</ele><time>2026-04-18T12:28:44.036Z</time></trkpt><trkpt lat="43.2738683" lon="11.3551983"><ele>222.0</ele><time>2026-04-18T12:28:45.036Z</time></trkpt><trkpt lat="43.273745" lon="11.3553433"><ele>222.33333333333331</ele><time>2026-04-18T12:28:46.035Z</time></trkpt><trkpt lat="43.273615" lon="11.3554833"><ele>222.66666666666666</ele><time>2026-04-18T12:28:47.036Z</time></trkpt><trkpt lat="43.2734867" lon="11.355615"><ele>223.0</ele><time>2026-04-18T12:28:48.036Z</time></trkpt><trkpt lat="43.27336" lon="11.3557483"><ele>223.0</ele><time>2026-04-18T12:28:49.035Z</time></trkpt><trkpt lat="43.273235" lon="11.355885"><ele>223.0</ele><time>2026-04-18T12:28:50.035Z</time></trkpt><trkpt lat="43.2731167" lon="11.3560283"><ele>223.0</ele><time>2026-04-18T12:28:51.036Z</time></trkpt><trkpt lat="43.2729867" lon="11.3561583"><ele>224.33333333333331</ele><time>2026-04-18T12:28:52.035Z</time></trkpt><trkpt lat="43.27286" lon="11.356295"><ele>225.66666666666669</ele><time>2026-04-18T12:28:53.035Z</time></trkpt><trkpt lat="43.2727383" lon="11.356435"><ele>227.0</ele><time>2026-04-18T12:28:54.035Z</time></trkpt><trkpt lat="43.2726167" lon="11.3565667"><ele>227.0</ele><time>2026-04-18T12:28:55.035Z</time></trkpt><trkpt lat="43.2725017" lon="11.356695"><ele>227.0</ele><time>2026-04-18T12:28:56.035Z</time></trkpt><trkpt lat="43.2723967" lon="11.3568083"><ele>227.0</ele><time>2026-04-18T12:28:57.035Z</time></trkpt><trkpt lat="43.2722983" lon="11.3569217"><ele>227.0</ele><time>2026-04-18T12:28:58.036Z</time></trkpt><trkpt lat="43.272205" lon="11.3570233"><ele>226.2</ele><time>2026-04-18T12:28:59.036Z</time></trkpt><trkpt lat="43.2721133" lon="11.35712"><ele>225.39999999999998</ele><time>2026-04-18T12:29:00.036Z</time></trkpt><trkpt lat="43.272035" lon="11.3572133"><ele>224.60000000000002</ele><time>2026-04-18T12:29:01.035Z</time></trkpt><trkpt lat="43.271965" lon="11.3572883"><ele>223.8</ele><time>2026-04-18T12:29:02.035Z</time></trkpt><trkpt lat="43.2719117" lon="11.357355"><ele>223.0</ele><time>2026-04-18T12:29:03.035Z</time></trkpt><trkpt lat="43.271775" lon="11.3573583"><ele>223.0</ele><time>2026-04-18T12:29:05.036Z</time></trkpt><trkpt lat="43.2716883" lon="11.3572917"><ele>223.0</ele><time>2026-04-18T12:29:06.036Z</time></trkpt><trkpt lat="43.2715967" lon="11.3571883"><ele>223.0</ele><time>2026-04-18T12:29:07.035Z</time></trkpt><trkpt lat="43.2715" lon="11.357075"><ele>223.0</ele><time>2026-04-18T12:29:08.035Z</time></trkpt><trkpt lat="43.2713967" lon="11.3569633"><ele>222.75</ele><time>2026-04-18T12:29:09.035Z</time></trkpt><trkpt lat="43.27129" lon="11.3568483"><ele>222.5</ele><time>2026-04-18T12:29:10.036Z</time></trkpt><trkpt lat="43.27118" lon="11.3567333"><ele>222.25</ele><time>2026-04-18T12:29:11.036Z</time></trkpt><trkpt lat="43.2710833" lon="11.3566283"><ele>222.0</ele><time>2026-04-18T12:29:12.035Z</time></trkpt><trkpt lat="43.270975" lon="11.356525"><ele>222.0</ele><time>2026-04-18T12:29:13.035Z</time></trkpt><trkpt lat="43.2708683" lon="11.35642"><ele>222.0</ele><time>2026-04-18T12:29:14.035Z</time></trkpt><trkpt lat="43.2707667" lon="11.3563183"><ele>222.0</ele><time>2026-04-18T12:29:15.036Z</time></trkpt><trkpt lat="43.2706717" lon="11.356225"><ele>222.0</ele><time>2026-04-18T12:29:16.036Z</time></trkpt><trkpt lat="43.2705817" lon="11.356135"><ele>219.6</ele><time>2026-04-18T12:29:17.036Z</time></trkpt><trkpt lat="43.2705017" lon="11.3560517"><ele>217.2</ele><time>2026-04-18T12:29:18.035Z</time></trkpt><trkpt lat="43.270425" lon="11.355975"><ele>214.8</ele><time>2026-04-18T12:29:19.035Z</time></trkpt><trkpt lat="43.2703383" lon="11.3559267"><ele>212.4</ele><time>2026-04-18T12:29:20.036Z</time></trkpt><trkpt lat="43.2702417" lon="11.3559017"><ele>210.0</ele><time>2026-04-18T12:29:21.036Z</time></trkpt><trkpt lat="43.2701317" lon="11.3558917"><ele>210.0</ele><time>2026-04-18T12:29:22.035Z</time></trkpt><trkpt lat="43.2700183" lon="11.3558983"><ele>210.0</ele><time>2026-04-18T12:29:23.035Z</time></trkpt><trkpt lat="43.26991" lon="11.35591"><ele>210.0</ele><time>2026-04-18T12:29:24.035Z</time></trkpt><trkpt lat="43.2697967" lon="11.35593"><ele>210.0</ele><time>2026-04-18T12:29:25.036Z</time></trkpt><trkpt lat="43.26969" lon="11.3559733"><ele>210.0</ele><time>2026-04-18T12:29:26.035Z</time></trkpt><trkpt lat="43.2695867" lon="11.3560367"><ele>208.0</ele><time>2026-04-18T12:29:27.035Z</time></trkpt><trkpt lat="43.2694817" lon="11.3561167"><ele>206.0</ele><time>2026-04-18T12:29:28.036Z</time></trkpt><trkpt lat="43.2693867" lon="11.3562183"><ele>204.0</ele><time>2026-04-18T12:29:29.035Z</time></trkpt><trkpt lat="43.2692917" lon="11.356325"><ele>202.0</ele><time>2026-04-18T12:29:30.036Z</time></trkpt><trkpt lat="43.2692083" lon="11.356445"><ele>202.0</ele><time>2026-04-18T12:29:31.035Z</time></trkpt><trkpt lat="43.269135" lon="11.3565717"><ele>202.0</ele><time>2026-04-18T12:29:32.035Z</time></trkpt><trkpt lat="43.2690767" lon="11.356715"><ele>202.0</ele><time>2026-04-18T12:29:33.036Z</time></trkpt><trkpt lat="43.2690267" lon="11.3568583"><ele>202.0</ele><time>2026-04-18T12:29:34.035Z</time></trkpt><trkpt lat="43.2689883" lon="11.3570133"><ele>202.0</ele><time>2026-04-18T12:29:35.036Z</time></trkpt><trkpt lat="43.2689583" lon="11.35718"><ele>202.0</ele><time>2026-04-18T12:29:36.035Z</time></trkpt><trkpt lat="43.2689467" lon="11.3573567"><ele>202.0</ele><time>2026-04-18T12:29:37.035Z</time></trkpt><trkpt lat="43.268945" lon="11.357535"><ele>202.0</ele><time>2026-04-18T12:29:38.036Z</time></trkpt><trkpt lat="43.2689417" lon="11.3577167"><ele>198.75</ele><time>2026-04-18T12:29:39.035Z</time></trkpt><trkpt lat="43.2689417" lon="11.3578883"><ele>195.5</ele><time>2026-04-18T12:29:40.035Z</time></trkpt><trkpt lat="43.2689333" lon="11.3580633"><ele>192.25</ele><time>2026-04-18T12:29:41.035Z</time></trkpt><trkpt lat="43.2689183" lon="11.3582283"><ele>189.0</ele><time>2026-04-18T12:29:42.035Z</time></trkpt><trkpt lat="43.2688983" lon="11.35839"><ele>189.0</ele><time>2026-04-18T12:29:43.035Z</time></trkpt><trkpt lat="43.26887" lon="11.358545"><ele>189.0</ele><time>2026-04-18T12:29:44.036Z</time></trkpt><trkpt lat="43.2688233" lon="11.358695"><ele>189.0</ele><time>2026-04-18T12:29:45.035Z</time></trkpt><trkpt lat="43.2687683" lon="11.3588367"><ele>189.0</ele><time>2026-04-18T12:29:46.036Z</time></trkpt><trkpt lat="43.2686983" lon="11.3589617"><ele>189.25</ele><time>2026-04-18T12:29:47.036Z</time></trkpt><trkpt lat="43.2686167" lon="11.35908"><ele>189.5</ele><time>2026-04-18T12:29:48.036Z</time></trkpt><trkpt lat="43.2685233" lon="11.3591733"><ele>189.75</ele><time>2026-04-18T12:29:49.035Z</time></trkpt><trkpt lat="43.26841" lon="11.3592517"><ele>190.0</ele><time>2026-04-18T12:29:50.035Z</time></trkpt><trkpt lat="43.2682767" lon="11.3593233"><ele>190.0</ele><time>2026-04-18T12:29:51.035Z</time></trkpt><trkpt lat="43.2681367" lon="11.3593617"><ele>190.0</ele><time>2026-04-18T12:29:52.036Z</time></trkpt><trkpt lat="43.2679967" lon="11.3593767"><ele>190.0</ele><time>2026-04-18T12:29:53.036Z</time></trkpt><trkpt lat="43.2678567" lon="11.359365"><ele>190.0</ele><time>2026-04-18T12:29:54.036Z</time></trkpt><trkpt lat="43.2677133" lon="11.359325"><ele>188.66666666666669</ele><time>2026-04-18T12:29:55.035Z</time></trkpt><trkpt lat="43.2675617" lon="11.359265"><ele>187.33333333333334</ele><time>2026-04-18T12:29:56.036Z</time></trkpt><trkpt lat="43.2674033" lon="11.3592033"><ele>186.0</ele><time>2026-04-18T12:29:57.035Z</time></trkpt><trkpt lat="43.267245" lon="11.3591383"><ele>185.66666666666666</ele><time>2026-04-18T12:29:58.035Z</time></trkpt><trkpt lat="43.2670817" lon="11.3590717"><ele>185.33333333333331</ele><time>2026-04-18T12:29:59.035Z</time></trkpt><trkpt lat="43.2669233" lon="11.3590067"><ele>185.0</ele><time>2026-04-18T12:30:00.035Z</time></trkpt><trkpt lat="43.2667717" lon="11.3589417"><ele>185.0</ele><time>2026-04-18T12:30:01.035Z</time></trkpt><trkpt lat="43.2666167" lon="11.358875"><ele>185.0</ele><time>2026-04-18T12:30:02.035Z</time></trkpt><trkpt lat="43.2664617" lon="11.358805"><ele>185.0</ele><time>2026-04-18T12:30:03.035Z</time></trkpt><trkpt lat="43.2662967" lon="11.35873"><ele>185.0</ele><time>2026-04-18T12:30:04.035Z</time></trkpt><trkpt lat="43.2661267" lon="11.3586633"><ele>185.0</ele><time>2026-04-18T12:30:05.036Z</time></trkpt><trkpt lat="43.2659583" lon="11.3585933"><ele>185.0</ele><time>2026-04-18T12:30:06.034Z</time></trkpt><trkpt lat="43.2657967" lon="11.3585233"><ele>185.0</ele><time>2026-04-18T12:30:07.034Z</time></trkpt><trkpt lat="43.2656433" lon="11.3584533"><ele>185.0</ele><time>2026-04-18T12:30:08.034Z</time></trkpt><trkpt lat="43.2655" lon="11.358385"><ele>185.0</ele><time>2026-04-18T12:30:09.034Z</time></trkpt><trkpt lat="43.2653617" lon="11.3583317"><ele>184.75</ele><time>2026-04-18T12:30:10.035Z</time></trkpt><trkpt lat="43.2652333" lon="11.358275"><ele>184.5</ele><time>2026-04-18T12:30:11.034Z</time></trkpt><trkpt lat="43.2651217" lon="11.3582283"><ele>184.25</ele><time>2026-04-18T12:30:12.034Z</time></trkpt><trkpt lat="43.2650183" lon="11.3582"><ele>184.0</ele><time>2026-04-18T12:30:13.034Z</time></trkpt><trkpt lat="43.2649133" lon="11.35819"><ele>184.0</ele><time>2026-04-18T12:30:14.035Z</time></trkpt><trkpt lat="43.2648117" lon="11.3582083"><ele>184.0</ele><time>2026-04-18T12:30:15.035Z</time></trkpt><trkpt lat="43.2647117" lon="11.3582517"><ele>184.0</ele><time>2026-04-18T12:30:16.035Z</time></trkpt><trkpt lat="43.264615" lon="11.3583433"><ele>184.0</ele><time>2026-04-18T12:30:17.035Z</time></trkpt><trkpt lat="43.2645333" lon="11.35846"><ele>184.0</ele><time>2026-04-18T12:30:18.034Z</time></trkpt><trkpt lat="43.264455" lon="11.3586017"><ele>184.0</ele><time>2026-04-18T12:30:19.035Z</time></trkpt><trkpt lat="43.2643733" lon="11.3587517"><ele>184.0</ele><time>2026-04-18T12:30:20.035Z</time></trkpt><trkpt lat="43.2642983" lon="11.3588983"><ele>184.0</ele><time>2026-04-18T12:30:21.035Z</time></trkpt><trkpt lat="43.264205" lon="11.3590367"><ele>184.0</ele><time>2026-04-18T12:30:22.035Z</time></trkpt><trkpt lat="43.264105" lon="11.3591633"><ele>184.0</ele><time>2026-04-18T12:30:23.034Z</time></trkpt><trkpt lat="43.26399" lon="11.359265"><ele>184.0</ele><time>2026-04-18T12:30:24.034Z</time></trkpt><trkpt lat="43.26387" lon="11.3593467"><ele>184.0</ele><time>2026-04-18T12:30:25.035Z</time></trkpt><trkpt lat="43.26374" lon="11.3594433"><ele>184.0</ele><time>2026-04-18T12:30:26.035Z</time></trkpt><trkpt lat="43.263605" lon="11.3595433"><ele>183.66666666666669</ele><time>2026-04-18T12:30:27.034Z</time></trkpt><trkpt lat="43.2634717" lon="11.3596533"><ele>183.33333333333334</ele><time>2026-04-18T12:30:28.034Z</time></trkpt><trkpt lat="43.2633433" lon="11.359765"><ele>183.0</ele><time>2026-04-18T12:30:29.034Z</time></trkpt><trkpt lat="43.2632167" lon="11.35989"><ele>183.75</ele><time>2026-04-18T12:30:30.034Z</time></trkpt><trkpt lat="43.2630967" lon="11.3600233"><ele>184.5</ele><time>2026-04-18T12:30:31.035Z</time></trkpt><trkpt lat="43.2629817" lon="11.36016"><ele>185.25</ele><time>2026-04-18T12:30:32.034Z</time></trkpt><trkpt lat="43.262875" lon="11.36029"><ele>186.0</ele><time>2026-04-18T12:30:33.034Z</time></trkpt><trkpt lat="43.2627617" lon="11.3604233"><ele>185.0</ele><time>2026-04-18T12:30:34.035Z</time></trkpt><trkpt lat="43.2626367" lon="11.3605483"><ele>184.0</ele><time>2026-04-18T12:30:35.034Z</time></trkpt><trkpt lat="43.262515" lon="11.3606817"><ele>183.0</ele><time>2026-04-18T12:30:36.035Z</time></trkpt><trkpt lat="43.2624" lon="11.3608183"><ele>183.0</ele><time>2026-04-18T12:30:37.035Z</time></trkpt><trkpt lat="43.2622917" lon="11.36097"><ele>183.0</ele><time>2026-04-18T12:30:38.034Z</time></trkpt><trkpt lat="43.2621783" lon="11.3611067"><ele>183.0</ele><time>2026-04-18T12:30:39.035Z</time></trkpt><trkpt lat="43.2620633" lon="11.3612483"><ele>182.66666666666666</ele><time>2026-04-18T12:30:40.034Z</time></trkpt><trkpt lat="43.2619367" lon="11.36136"><ele>182.33333333333331</ele><time>2026-04-18T12:30:41.035Z</time></trkpt><trkpt lat="43.2617983" lon="11.36147"><ele>182.0</ele><time>2026-04-18T12:30:42.034Z</time></trkpt><trkpt lat="43.2616583" lon="11.3615767"><ele>182.0</ele><time>2026-04-18T12:30:43.035Z</time></trkpt><trkpt lat="43.26152" lon="11.3616733"><ele>182.0</ele><time>2026-04-18T12:30:44.035Z</time></trkpt><trkpt lat="43.26137" lon="11.36176"><ele>182.0</ele><time>2026-04-18T12:30:45.034Z</time></trkpt><trkpt lat="43.26121" lon="11.3618467"><ele>182.0</ele><time>2026-04-18T12:30:46.034Z</time></trkpt><trkpt lat="43.2610517" lon="11.3619033"><ele>182.0</ele><time>2026-04-18T12:30:47.034Z</time></trkpt><trkpt lat="43.2608967" lon="11.3619417"><ele>182.0</ele><time>2026-04-18T12:30:48.034Z</time></trkpt><trkpt lat="43.2607317" lon="11.3619567"><ele>183.0</ele><time>2026-04-18T12:30:49.035Z</time></trkpt><trkpt lat="43.2605583" lon="11.3619467"><ele>184.0</ele><time>2026-04-18T12:30:50.035Z</time></trkpt><trkpt lat="43.2603867" lon="11.3619233"><ele>185.0</ele><time>2026-04-18T12:30:51.035Z</time></trkpt><trkpt lat="43.2602233" lon="11.361885"><ele>185.0</ele><time>2026-04-18T12:30:52.035Z</time></trkpt><trkpt lat="43.26006" lon="11.3618383"><ele>185.0</ele><time>2026-04-18T12:30:53.035Z</time></trkpt><trkpt lat="43.2598967" lon="11.361785"><ele>185.0</ele><time>2026-04-18T12:30:54.034Z</time></trkpt><trkpt lat="43.2597383" lon="11.3617267"><ele>187.66666666666666</ele><time>2026-04-18T12:30:55.034Z</time></trkpt><trkpt lat="43.25958" lon="11.36166"><ele>190.33333333333331</ele><time>2026-04-18T12:30:56.034Z</time></trkpt><trkpt lat="43.2594267" lon="11.3615833"><ele>193.0</ele><time>2026-04-18T12:30:57.034Z</time></trkpt><trkpt lat="43.2592733" lon="11.3615017"><ele>193.0</ele><time>2026-04-18T12:30:58.034Z</time></trkpt><trkpt lat="43.25912" lon="11.36142"><ele>193.0</ele><time>2026-04-18T12:30:59.035Z</time></trkpt><trkpt lat="43.258965" lon="11.36133"><ele>193.0</ele><time>2026-04-18T12:31:00.035Z</time></trkpt><trkpt lat="43.2588217" lon="11.3612283"><ele>193.66666666666666</ele><time>2026-04-18T12:31:01.034Z</time></trkpt><trkpt lat="43.2586833" lon="11.36111"><ele>194.33333333333331</ele><time>2026-04-18T12:31:02.035Z</time></trkpt><trkpt lat="43.2585483" lon="11.3609667"><ele>195.0</ele><time>2026-04-18T12:31:03.035Z</time></trkpt><trkpt lat="43.2584067" lon="11.3608433"><ele>195.0</ele><time>2026-04-18T12:31:04.034Z</time></trkpt><trkpt lat="43.2582683" lon="11.3607183"><ele>195.0</ele><time>2026-04-18T12:31:05.034Z</time></trkpt><trkpt lat="43.258135" lon="11.3605967"><ele>195.0</ele><time>2026-04-18T12:31:06.034Z</time></trkpt><trkpt lat="43.2580083" lon="11.3604867"><ele>195.0</ele><time>2026-04-18T12:31:07.034Z</time></trkpt><trkpt lat="43.2578767" lon="11.3603967"><ele>195.0</ele><time>2026-04-18T12:31:08.035Z</time></trkpt><trkpt lat="43.2577367" lon="11.36032"><ele>195.0</ele><time>2026-04-18T12:31:09.035Z</time></trkpt><trkpt lat="43.257595" lon="11.3602483"><ele>195.0</ele><time>2026-04-18T12:31:10.035Z</time></trkpt><trkpt lat="43.2574467" lon="11.3601917"><ele>195.0</ele><time>2026-04-18T12:31:11.035Z</time></trkpt><trkpt lat="43.257295" lon="11.360145"><ele>195.0</ele><time>2026-04-18T12:31:12.035Z</time></trkpt><trkpt lat="43.2571383" lon="11.3601083"><ele>195.0</ele><time>2026-04-18T12:31:13.035Z</time></trkpt><trkpt lat="43.2569833" lon="11.3600933"><ele>196.33333333333331</ele><time>2026-04-18T12:31:14.034Z</time></trkpt><trkpt lat="43.25682" lon="11.3600917"><ele>197.66666666666666</ele><time>2026-04-18T12:31:15.034Z</time></trkpt><trkpt lat="43.2566583" lon="11.3601067"><ele>199.0</ele><time>2026-04-18T12:31:16.034Z</time></trkpt><trkpt lat="43.2565017" lon="11.3601333"><ele>200.0</ele><time>2026-04-18T12:31:17.034Z</time></trkpt><trkpt lat="43.25636" lon="11.3601567"><ele>201.0</ele><time>2026-04-18T12:31:18.034Z</time></trkpt><trkpt lat="43.2562133" lon="11.3602"><ele>202.0</ele><time>2026-04-18T12:31:19.034Z</time></trkpt><trkpt lat="43.2560667" lon="11.3602733"><ele>203.0</ele><time>2026-04-18T12:31:20.034Z</time></trkpt><trkpt lat="43.2559217" lon="11.3603717"><ele>203.0</ele><time>2026-04-18T12:31:21.034Z</time></trkpt><trkpt lat="43.2557733" lon="11.3604767"><ele>203.0</ele><time>2026-04-18T12:31:22.034Z</time></trkpt><trkpt lat="43.255635" lon="11.3605767"><ele>203.0</ele><time>2026-04-18T12:31:23.035Z</time></trkpt><trkpt lat="43.2555017" lon="11.36067"><ele>205.75</ele><time>2026-04-18T12:31:24.035Z</time></trkpt><trkpt lat="43.2553717" lon="11.3607583"><ele>208.5</ele><time>2026-04-18T12:31:25.034Z</time></trkpt><trkpt lat="43.25525" lon="11.3608783"><ele>211.25</ele><time>2026-04-18T12:31:26.034Z</time></trkpt><trkpt lat="43.2551383" lon="11.361025"><ele>214.0</ele><time>2026-04-18T12:31:27.034Z</time></trkpt><trkpt lat="43.2550383" lon="11.3611933"><ele>214.0</ele><time>2026-04-18T12:31:28.034Z</time></trkpt><trkpt lat="43.25494" lon="11.361375"><ele>214.0</ele><time>2026-04-18T12:31:29.035Z</time></trkpt><trkpt lat="43.2548467" lon="11.3615517"><ele>214.0</ele><time>2026-04-18T12:31:30.035Z</time></trkpt><trkpt lat="43.2547617" lon="11.3617133"><ele>216.75</ele><time>2026-04-18T12:31:31.034Z</time></trkpt><trkpt lat="43.2546817" lon="11.361865"><ele>219.5</ele><time>2026-04-18T12:31:32.034Z</time></trkpt><trkpt lat="43.2545917" lon="11.3619917"><ele>222.25</ele><time>2026-04-18T12:31:33.035Z</time></trkpt><trkpt lat="43.254495" lon="11.3620883"><ele>225.0</ele><time>2026-04-18T12:31:34.034Z</time></trkpt><trkpt lat="43.2543917" lon="11.3621733"><ele>225.0</ele><time>2026-04-18T12:31:35.035Z</time></trkpt><trkpt lat="43.2542933" lon="11.3622417"><ele>225.0</ele><time>2026-04-18T12:31:36.034Z</time></trkpt><trkpt lat="43.2541867" lon="11.36229"><ele>225.0</ele><time>2026-04-18T12:31:37.034Z</time></trkpt><trkpt lat="43.254085" lon="11.3623333"><ele>225.0</ele><time>2026-04-18T12:31:38.035Z</time></trkpt><trkpt lat="43.25397" lon="11.3623517"><ele>225.0</ele><time>2026-04-18T12:31:39.034Z</time></trkpt><trkpt lat="43.2538567" lon="11.36237"><ele>225.0</ele><time>2026-04-18T12:31:40.034Z</time></trkpt><trkpt lat="43.25374" lon="11.3623833"><ele>225.0</ele><time>2026-04-18T12:31:41.034Z</time></trkpt><trkpt lat="43.253625" lon="11.362405"><ele>225.0</ele><time>2026-04-18T12:31:42.035Z</time></trkpt><trkpt lat="43.253505" lon="11.3624267"><ele>225.0</ele><time>2026-04-18T12:31:43.035Z</time></trkpt><trkpt lat="43.2533883" lon="11.36246"><ele>225.0</ele><time>2026-04-18T12:31:44.034Z</time></trkpt><trkpt lat="43.25327" lon="11.3624967"><ele>225.0</ele><time>2026-04-18T12:31:45.034Z</time></trkpt><trkpt lat="43.25315" lon="11.36254"><ele>225.0</ele><time>2026-04-18T12:31:46.035Z</time></trkpt><trkpt lat="43.2530333" lon="11.3626017"><ele>225.0</ele><time>2026-04-18T12:31:47.035Z</time></trkpt><trkpt lat="43.252915" lon="11.3626633"><ele>225.75</ele><time>2026-04-18T12:31:48.035Z</time></trkpt><trkpt lat="43.2528017" lon="11.362725"><ele>226.5</ele><time>2026-04-18T12:31:49.034Z</time></trkpt><trkpt lat="43.2526933" lon="11.362795"><ele>227.25</ele><time>2026-04-18T12:31:50.034Z</time></trkpt><trkpt lat="43.2525883" lon="11.3628567"><ele>228.0</ele><time>2026-04-18T12:31:51.034Z</time></trkpt><trkpt lat="43.25249" lon="11.3629267"><ele>228.0</ele><time>2026-04-18T12:31:52.035Z</time></trkpt><trkpt lat="43.252405" lon="11.3630133"><ele>228.0</ele><time>2026-04-18T12:31:53.034Z</time></trkpt><trkpt lat="43.2523133" lon="11.3631067"><ele>228.0</ele><time>2026-04-18T12:31:54.035Z</time></trkpt><trkpt lat="43.2522233" lon="11.3632083"><ele>228.0</ele><time>2026-04-18T12:31:55.034Z</time></trkpt><trkpt lat="43.2521483" lon="11.3633"><ele>228.0</ele><time>2026-04-18T12:31:56.034Z</time></trkpt><trkpt lat="43.2520683" lon="11.3633817"><ele>229.0</ele><time>2026-04-18T12:31:57.034Z</time></trkpt><trkpt lat="43.25199" lon="11.3634533"><ele>230.0</ele><time>2026-04-18T12:31:58.034Z</time></trkpt><trkpt lat="43.2519067" lon="11.3635167"><ele>231.0</ele><time>2026-04-18T12:31:59.035Z</time></trkpt><trkpt lat="43.25182" lon="11.3635683"><ele>232.0</ele><time>2026-04-18T12:32:00.034Z</time></trkpt><trkpt lat="43.2517267" lon="11.3635983"><ele>233.0</ele><time>2026-04-18T12:32:01.035Z</time></trkpt><trkpt lat="43.2516283" lon="11.3636133"><ele>233.0</ele><time>2026-04-18T12:32:02.035Z</time></trkpt><trkpt lat="43.2515333" lon="11.3636133"><ele>233.0</ele><time>2026-04-18T12:32:03.034Z</time></trkpt><trkpt lat="43.2514333" lon="11.3635983"><ele>233.0</ele><time>2026-04-18T12:32:04.035Z</time></trkpt><trkpt lat="43.25133" lon="11.3635667"><ele>233.0</ele><time>2026-04-18T12:32:05.034Z</time></trkpt><trkpt lat="43.2512267" lon="11.363525"><ele>233.0</ele><time>2026-04-18T12:32:06.034Z</time></trkpt><trkpt lat="43.2511183" lon="11.363475"><ele>231.0</ele><time>2026-04-18T12:32:07.034Z</time></trkpt><trkpt lat="43.2510033" lon="11.3634267"><ele>229.0</ele><time>2026-04-18T12:32:08.034Z</time></trkpt><trkpt lat="43.2508867" lon="11.3633817"><ele>227.0</ele><time>2026-04-18T12:32:09.034Z</time></trkpt><trkpt lat="43.2507617" lon="11.3633333"><ele>225.0</ele><time>2026-04-18T12:32:10.035Z</time></trkpt><trkpt lat="43.2506367" lon="11.3632933"><ele>224.5</ele><time>2026-04-18T12:32:11.035Z</time></trkpt><trkpt lat="43.25051" lon="11.36326"><ele>224.0</ele><time>2026-04-18T12:32:12.034Z</time></trkpt><trkpt lat="43.2503783" lon="11.36322"><ele>223.5</ele><time>2026-04-18T12:32:13.035Z</time></trkpt><trkpt lat="43.2502467" lon="11.363185"><ele>223.0</ele><time>2026-04-18T12:32:14.034Z</time></trkpt><trkpt lat="43.2501233" lon="11.3631517"><ele>223.0</ele><time>2026-04-18T12:32:15.034Z</time></trkpt><trkpt lat="43.2500117" lon="11.3631217"><ele>223.0</ele><time>2026-04-18T12:32:16.034Z</time></trkpt><trkpt lat="43.249895" lon="11.3630867"><ele>223.0</ele><time>2026-04-18T12:32:17.035Z</time></trkpt><trkpt lat="43.2497833" lon="11.3630567"><ele>223.0</ele><time>2026-04-18T12:32:18.034Z</time></trkpt><trkpt lat="43.2496667" lon="11.3630417"><ele>224.25</ele><time>2026-04-18T12:32:19.034Z</time></trkpt><trkpt lat="43.2495467" lon="11.3630517"><ele>225.5</ele><time>2026-04-18T12:32:20.035Z</time></trkpt><trkpt lat="43.2494217" lon="11.36309"><ele>226.75</ele><time>2026-04-18T12:32:21.035Z</time></trkpt><trkpt lat="43.249295" lon="11.3631517"><ele>228.0</ele><time>2026-04-18T12:32:22.034Z</time></trkpt><trkpt lat="43.24917" lon="11.3632417"><ele>228.0</ele><time>2026-04-18T12:32:23.035Z</time></trkpt><trkpt lat="43.2490683" lon="11.3633483"><ele>228.0</ele><time>2026-04-18T12:32:24.034Z</time></trkpt><trkpt lat="43.2489667" lon="11.363475"><ele>228.0</ele><time>2026-04-18T12:32:25.035Z</time></trkpt><trkpt lat="43.2488633" lon="11.3636217"><ele>228.0</ele><time>2026-04-18T12:32:26.034Z</time></trkpt><trkpt lat="43.2487517" lon="11.363785"><ele>227.75</ele><time>2026-04-18T12:32:27.035Z</time></trkpt><trkpt lat="43.2486417" lon="11.36393"><ele>227.5</ele><time>2026-04-18T12:32:28.034Z</time></trkpt><trkpt lat="43.2485433" lon="11.3640583"><ele>227.25</ele><time>2026-04-18T12:32:29.034Z</time></trkpt><trkpt lat="43.2484567" lon="11.3641783"><ele>227.0</ele><time>2026-04-18T12:32:30.035Z</time></trkpt><trkpt lat="43.24839" lon="11.3642967"><ele>227.0</ele><time>2026-04-18T12:32:31.034Z</time></trkpt><trkpt lat="43.2483383" lon="11.364425"><ele>227.0</ele><time>2026-04-18T12:32:32.035Z</time></trkpt><trkpt lat="43.2482933" lon="11.36456"><ele>227.0</ele><time>2026-04-18T12:32:33.034Z</time></trkpt><trkpt lat="43.2482667" lon="11.3647217"><ele>227.0</ele><time>2026-04-18T12:32:34.035Z</time></trkpt><trkpt lat="43.248255" lon="11.3648967"><ele>226.5</ele><time>2026-04-18T12:32:35.034Z</time></trkpt><trkpt lat="43.2482517" lon="11.3650683"><ele>226.0</ele><time>2026-04-18T12:32:36.035Z</time></trkpt><trkpt lat="43.248235" lon="11.365225"><ele>225.5</ele><time>2026-04-18T12:32:37.034Z</time></trkpt><trkpt lat="43.248195" lon="11.3653767"><ele>225.0</ele><time>2026-04-18T12:32:38.035Z</time></trkpt><trkpt lat="43.2481367" lon="11.365515"><ele>224.6</ele><time>2026-04-18T12:32:39.035Z</time></trkpt><trkpt lat="43.2480633" lon="11.3656433"><ele>224.2</ele><time>2026-04-18T12:32:40.034Z</time></trkpt><trkpt lat="43.247985" lon="11.365755"><ele>223.8</ele><time>2026-04-18T12:32:41.035Z</time></trkpt><trkpt lat="43.2479117" lon="11.3658517"><ele>223.4</ele><time>2026-04-18T12:32:42.035Z</time></trkpt><trkpt lat="43.2478367" lon="11.36593"><ele>223.0</ele><time>2026-04-18T12:32:43.035Z</time></trkpt><trkpt lat="43.24776" lon="11.3659833"><ele>222.99999999999997</ele><time>2026-04-18T12:32:44.035Z</time></trkpt><trkpt lat="43.2476783" lon="11.3660217"><ele>223.0</ele><time>2026-04-18T12:32:45.034Z</time></trkpt><trkpt lat="43.2475917" lon="11.366045"><ele>223.0</ele><time>2026-04-18T12:32:46.034Z</time></trkpt><trkpt lat="43.2475117" lon="11.3660567"><ele>223.0</ele><time>2026-04-18T12:32:47.034Z</time></trkpt><trkpt lat="43.2474367" lon="11.3660717"><ele>222.99999999999997</ele><time>2026-04-18T12:32:48.035Z</time></trkpt><trkpt lat="43.2473633" lon="11.366085"><ele>223.0</ele><time>2026-04-18T12:32:49.034Z</time></trkpt><trkpt lat="43.2472933" lon="11.3661"><ele>222.66666666666666</ele><time>2026-04-18T12:32:50.035Z</time></trkpt><trkpt lat="43.2472217" lon="11.3661183"><ele>222.33333333333331</ele><time>2026-04-18T12:32:51.035Z</time></trkpt><trkpt lat="43.2471483" lon="11.3661417"><ele>222.0</ele><time>2026-04-18T12:32:52.035Z</time></trkpt><trkpt lat="43.2470667" lon="11.3661633"><ele>221.66666666666669</ele><time>2026-04-18T12:32:53.034Z</time></trkpt><trkpt lat="43.2469783" lon="11.3661883"><ele>221.33333333333334</ele><time>2026-04-18T12:32:54.034Z</time></trkpt><trkpt lat="43.2468883" lon="11.366225"><ele>221.0</ele><time>2026-04-18T12:32:55.034Z</time></trkpt><trkpt lat="43.2468" lon="11.36627"><ele>221.00000000000003</ele><time>2026-04-18T12:32:56.035Z</time></trkpt><trkpt lat="43.246705" lon="11.3663117"><ele>221.0</ele><time>2026-04-18T12:32:57.034Z</time></trkpt><trkpt lat="43.2466067" lon="11.3663467"><ele>221.0</ele><time>2026-04-18T12:32:58.034Z</time></trkpt><trkpt lat="43.2465217" lon="11.3663917"><ele>221.0</ele><time>2026-04-18T12:32:59.035Z</time></trkpt><trkpt lat="43.2464467" lon="11.3664317"><ele>221.00000000000003</ele><time>2026-04-18T12:33:00.034Z</time></trkpt><trkpt lat="43.246385" lon="11.36647"><ele>221.0</ele><time>2026-04-18T12:33:01.035Z</time></trkpt><trkpt lat="43.2462867" lon="11.3665533"><ele>221.50000000000003</ele><time>2026-04-18T12:33:03.035Z</time></trkpt><trkpt lat="43.2462182" lon="11.3666069"><ele>222.0</ele><time>2026-04-18T12:33:05.034Z</time></trkpt><trkpt lat="43.2461383" lon="11.366635"><ele>222.5</ele><time>2026-04-18T12:33:08.034Z</time></trkpt><trkpt lat="43.24609" lon="11.3666933"><ele>223.0</ele><time>2026-04-18T12:53:11.027Z</time></trkpt><trkpt lat="43.24601" lon="11.3668083"><ele>223.50000000000003</ele><time>2026-04-18T12:53:13.028Z</time></trkpt><trkpt lat="43.2459567" lon="11.3668633"><ele>224.0</ele><time>2026-04-18T12:53:14.027Z</time></trkpt><trkpt lat="43.2458967" lon="11.3669283"><ele>224.0</ele><time>2026-04-18T12:53:15.028Z</time></trkpt><trkpt lat="43.2458267" lon="11.3669983"><ele>224.0</ele><time>2026-04-18T12:53:16.027Z</time></trkpt><trkpt lat="43.24574" lon="11.367085"><ele>224.0</ele><time>2026-04-18T12:53:17.027Z</time></trkpt><trkpt lat="43.2456333" lon="11.3671817"><ele>224.0</ele><time>2026-04-18T12:53:18.027Z</time></trkpt><trkpt lat="43.2455067" lon="11.36727"><ele>222.66666666666669</ele><time>2026-04-18T12:53:19.027Z</time></trkpt><trkpt lat="43.2453517" lon="11.3673533"><ele>221.33333333333331</ele><time>2026-04-18T12:53:20.027Z</time></trkpt><trkpt lat="43.2451733" lon="11.36743"><ele>220.0</ele><time>2026-04-18T12:53:21.027Z</time></trkpt><trkpt lat="43.2449517" lon="11.367505"><ele>221.5</ele><time>2026-04-18T12:53:22.027Z</time></trkpt><trkpt lat="43.2446967" lon="11.367585"><ele>223.0</ele><time>2026-04-18T12:53:23.028Z</time></trkpt><trkpt lat="43.2444467" lon="11.3676633"><ele>223.0</ele><time>2026-04-18T12:53:24.027Z</time></trkpt><trkpt lat="43.2442183" lon="11.3677333"><ele>223.0</ele><time>2026-04-18T12:53:25.027Z</time></trkpt><trkpt lat="43.244025" lon="11.3677983"><ele>223.0</ele><time>2026-04-18T12:53:26.027Z</time></trkpt><trkpt lat="43.2438667" lon="11.3678483"><ele>224.0</ele><time>2026-04-18T12:53:27.028Z</time></trkpt><trkpt lat="43.2437183" lon="11.3679"><ele>225.0</ele><time>2026-04-18T12:53:28.027Z</time></trkpt><trkpt lat="43.243545" lon="11.3679433"><ele>226.0</ele><time>2026-04-18T12:53:29.027Z</time></trkpt><trkpt lat="43.2433683" lon="11.36798"><ele>226.0</ele><time>2026-04-18T12:53:30.027Z</time></trkpt><trkpt lat="43.2432033" lon="11.3680167"><ele>226.0</ele><time>2026-04-18T12:53:31.027Z</time></trkpt><trkpt lat="43.2430483" lon="11.368065"><ele>226.0</ele><time>2026-04-18T12:53:32.028Z</time></trkpt><trkpt lat="43.2429083" lon="11.36812"><ele>225.0</ele><time>2026-04-18T12:53:33.027Z</time></trkpt><trkpt lat="43.2427867" lon="11.368195"><ele>224.0</ele><time>2026-04-18T12:53:34.028Z</time></trkpt><trkpt lat="43.24266" lon="11.3682833"><ele>223.0</ele><time>2026-04-18T12:53:35.028Z</time></trkpt><trkpt lat="43.2425317" lon="11.368405"><ele>222.0</ele><time>2026-04-18T12:53:36.027Z</time></trkpt><trkpt lat="43.2423967" lon="11.36856"><ele>222.33333333333331</ele><time>2026-04-18T12:53:37.028Z</time></trkpt><trkpt lat="43.2422617" lon="11.368745"><ele>222.66666666666666</ele><time>2026-04-18T12:53:38.027Z</time></trkpt><trkpt lat="43.2421317" lon="11.3689233"><ele>223.0</ele><time>2026-04-18T12:53:39.028Z</time></trkpt><trkpt lat="43.2420033" lon="11.3690967"><ele>222.0</ele><time>2026-04-18T12:53:40.027Z</time></trkpt><trkpt lat="43.2418733" lon="11.369255"><ele>221.0</ele><time>2026-04-18T12:53:41.027Z</time></trkpt><trkpt lat="43.2417533" lon="11.369415"><ele>220.0</ele><time>2026-04-18T12:53:42.027Z</time></trkpt><trkpt lat="43.2416283" lon="11.3695717"><ele>219.0</ele><time>2026-04-18T12:53:43.028Z</time></trkpt><trkpt lat="43.241485" lon="11.3697233"><ele>218.0</ele><time>2026-04-18T12:53:44.028Z</time></trkpt><trkpt lat="43.2413367" lon="11.3698817"><ele>217.0</ele><time>2026-04-18T12:53:45.027Z</time></trkpt><trkpt lat="43.2411867" lon="11.3700367"><ele>216.33333333333331</ele><time>2026-04-18T12:53:46.028Z</time></trkpt><trkpt lat="43.2410433" lon="11.3701733"><ele>215.66666666666669</ele><time>2026-04-18T12:53:47.028Z</time></trkpt><trkpt lat="43.2409083" lon="11.370305"><ele>215.0</ele><time>2026-04-18T12:53:48.027Z</time></trkpt><trkpt lat="43.2407783" lon="11.370425"><ele>215.0</ele><time>2026-04-18T12:53:49.027Z</time></trkpt><trkpt lat="43.24066" lon="11.3705367"><ele>215.0</ele><time>2026-04-18T12:53:50.028Z</time></trkpt><trkpt lat="43.2405467" lon="11.370675"><ele>215.0</ele><time>2026-04-18T12:53:51.028Z</time></trkpt><trkpt lat="43.2404317" lon="11.3708283"><ele>214.75</ele><time>2026-04-18T12:53:52.027Z</time></trkpt><trkpt lat="43.2403333" lon="11.3709933"><ele>214.5</ele><time>2026-04-18T12:53:53.027Z</time></trkpt><trkpt lat="43.2402383" lon="11.371145"><ele>214.25</ele><time>2026-04-18T12:53:54.028Z</time></trkpt><trkpt lat="43.240155" lon="11.3712933"><ele>214.0</ele><time>2026-04-18T12:53:55.027Z</time></trkpt><trkpt lat="43.2400717" lon="11.37144"><ele>214.0</ele><time>2026-04-18T12:53:56.027Z</time></trkpt><trkpt lat="43.2399967" lon="11.3715783"><ele>214.0</ele><time>2026-04-18T12:53:57.027Z</time></trkpt><trkpt lat="43.2399283" lon="11.3717133"><ele>214.0</ele><time>2026-04-18T12:53:58.027Z</time></trkpt><trkpt lat="43.239865" lon="11.3718517"><ele>214.0</ele><time>2026-04-18T12:53:59.027Z</time></trkpt><trkpt lat="43.2398067" lon="11.3719817"><ele>213.79999999999998</ele><time>2026-04-18T12:54:00.027Z</time></trkpt><trkpt lat="43.2397533" lon="11.372105"><ele>213.59999999999997</ele><time>2026-04-18T12:54:01.027Z</time></trkpt><trkpt lat="43.2397017" lon="11.37222"><ele>213.4</ele><time>2026-04-18T12:54:02.028Z</time></trkpt><trkpt lat="43.2396483" lon="11.372325"><ele>213.2</ele><time>2026-04-18T12:54:03.027Z</time></trkpt><trkpt lat="43.2395917" lon="11.3724367"><ele>213.0</ele><time>2026-04-18T12:54:04.028Z</time></trkpt><trkpt lat="43.2395183" lon="11.3725383"><ele>213.0</ele><time>2026-04-18T12:54:05.028Z</time></trkpt><trkpt lat="43.239435" lon="11.3726083"><ele>213.0</ele><time>2026-04-18T12:54:06.027Z</time></trkpt><trkpt lat="43.23933" lon="11.3726517"><ele>213.0</ele><time>2026-04-18T12:54:07.027Z</time></trkpt><trkpt lat="43.239205" lon="11.37267"><ele>213.0</ele><time>2026-04-18T12:54:08.027Z</time></trkpt><trkpt lat="43.23906" lon="11.3726767"><ele>213.0</ele><time>2026-04-18T12:54:09.028Z</time></trkpt><trkpt lat="43.2389183" lon="11.3726867"><ele>213.0</ele><time>2026-04-18T12:54:10.028Z</time></trkpt><trkpt lat="43.2387833" lon="11.37271"><ele>213.0</ele><time>2026-04-18T12:54:11.028Z</time></trkpt><trkpt lat="43.2386567" lon="11.3727483"><ele>213.0</ele><time>2026-04-18T12:54:12.028Z</time></trkpt><trkpt lat="43.238535" lon="11.3728083"><ele>213.0</ele><time>2026-04-18T12:54:13.028Z</time></trkpt><trkpt lat="43.238435" lon="11.3728733"><ele>213.0</ele><time>2026-04-18T12:54:14.027Z</time></trkpt><trkpt lat="43.2383433" lon="11.3729383"><ele>213.0</ele><time>2026-04-18T12:54:15.027Z</time></trkpt><trkpt lat="43.2382817" lon="11.3730217"><ele>213.0</ele><time>2026-04-18T12:54:16.027Z</time></trkpt><trkpt lat="43.23824" lon="11.3731317"><ele>213.0</ele><time>2026-04-18T12:54:17.028Z</time></trkpt><trkpt lat="43.238215" lon="11.37327"><ele>211.0</ele><time>2026-04-18T12:54:18.027Z</time></trkpt><trkpt lat="43.2382117" lon="11.3734367"><ele>209.0</ele><time>2026-04-18T12:54:19.028Z</time></trkpt><trkpt lat="43.238225" lon="11.37364"><ele>207.0</ele><time>2026-04-18T12:54:20.027Z</time></trkpt><trkpt lat="43.2382467" lon="11.3738683"><ele>205.0</ele><time>2026-04-18T12:54:21.027Z</time></trkpt><trkpt lat="43.23826" lon="11.3741133"><ele>204.75</ele><time>2026-04-18T12:54:22.028Z</time></trkpt><trkpt lat="43.238275" lon="11.3743333"><ele>204.5</ele><time>2026-04-18T12:54:23.027Z</time></trkpt><trkpt lat="43.2382867" lon="11.37452"><ele>204.25</ele><time>2026-04-18T12:54:24.028Z</time></trkpt><trkpt lat="43.2382867" lon="11.374685"><ele>204.0</ele><time>2026-04-18T12:54:25.028Z</time></trkpt><trkpt lat="43.23827" lon="11.374835"><ele>204.0</ele><time>2026-04-18T12:54:26.027Z</time></trkpt><trkpt lat="43.238235" lon="11.3749783"><ele>204.0</ele><time>2026-04-18T12:54:27.027Z</time></trkpt><trkpt lat="43.2381667" lon="11.3751"><ele>204.0</ele><time>2026-04-18T12:54:28.027Z</time></trkpt><trkpt lat="43.2380683" lon="11.3752083"><ele>204.0</ele><time>2026-04-18T12:54:29.027Z</time></trkpt><trkpt lat="43.237935" lon="11.3753283"><ele>204.0</ele><time>2026-04-18T12:54:30.027Z</time></trkpt><trkpt lat="43.2377717" lon="11.375465"><ele>204.0</ele><time>2026-04-18T12:54:31.028Z</time></trkpt><trkpt lat="43.2376083" lon="11.375625"><ele>204.0</ele><time>2026-04-18T12:54:32.027Z</time></trkpt><trkpt lat="43.2374683" lon="11.3757767"><ele>202.75</ele><time>2026-04-18T12:54:33.028Z</time></trkpt><trkpt lat="43.2373483" lon="11.3759183"><ele>201.5</ele><time>2026-04-18T12:54:34.027Z</time></trkpt><trkpt lat="43.23724" lon="11.3760467"><ele>200.25</ele><time>2026-04-18T12:54:35.028Z</time></trkpt><trkpt lat="43.2371367" lon="11.3761617"><ele>199.0</ele><time>2026-04-18T12:54:36.027Z</time></trkpt><trkpt lat="43.2370417" lon="11.3762483"><ele>198.25</ele><time>2026-04-18T12:54:37.027Z</time></trkpt><trkpt lat="43.236935" lon="11.3763117"><ele>197.5</ele><time>2026-04-18T12:54:38.027Z</time></trkpt><trkpt lat="43.236815" lon="11.3763467"><ele>196.75</ele><time>2026-04-18T12:54:39.027Z</time></trkpt><trkpt lat="43.2366783" lon="11.3763483"><ele>196.0</ele><time>2026-04-18T12:54:40.027Z</time></trkpt><trkpt lat="43.23655" lon="11.3763167"><ele>193.5</ele><time>2026-04-18T12:54:41.027Z</time></trkpt><trkpt lat="43.2364333" lon="11.376255"><ele>191.0</ele><time>2026-04-18T12:54:42.027Z</time></trkpt><trkpt lat="43.2363417" lon="11.3761567"><ele>188.5</ele><time>2026-04-18T12:54:43.027Z</time></trkpt><trkpt lat="43.23627" lon="11.3760217"><ele>186.0</ele><time>2026-04-18T12:54:44.028Z</time></trkpt><trkpt lat="43.2362217" lon="11.3758667"><ele>186.0</ele><time>2026-04-18T12:54:45.027Z</time></trkpt><trkpt lat="43.2362" lon="11.37569"><ele>186.0</ele><time>2026-04-18T12:54:46.028Z</time></trkpt><trkpt lat="43.236195" lon="11.3755083"><ele>186.0</ele><time>2026-04-18T12:54:47.027Z</time></trkpt><trkpt lat="43.2362133" lon="11.3753333"><ele>186.0</ele><time>2026-04-18T12:54:48.027Z</time></trkpt><trkpt lat="43.2362583" lon="11.37517"><ele>185.0</ele><time>2026-04-18T12:54:49.028Z</time></trkpt><trkpt lat="43.23633" lon="11.37501"><ele>184.0</ele><time>2026-04-18T12:54:50.028Z</time></trkpt><trkpt lat="43.2364017" lon="11.37484"><ele>183.0</ele><time>2026-04-18T12:54:51.028Z</time></trkpt><trkpt lat="43.2364567" lon="11.3746633"><ele>182.0</ele><time>2026-04-18T12:54:52.027Z</time></trkpt><trkpt lat="43.2365033" lon="11.3744917"><ele>184.25</ele><time>2026-04-18T12:54:53.027Z</time></trkpt><trkpt lat="43.2365333" lon="11.3743183"><ele>186.5</ele><time>2026-04-18T12:54:54.027Z</time></trkpt><trkpt lat="43.23656" lon="11.3741583"><ele>188.75</ele><time>2026-04-18T12:54:55.027Z</time></trkpt><trkpt lat="43.2365683" lon="11.3740067"><ele>191.0</ele><time>2026-04-18T12:54:56.027Z</time></trkpt><trkpt lat="43.2365567" lon="11.37386"><ele>190.20000000000002</ele><time>2026-04-18T12:54:57.027Z</time></trkpt><trkpt lat="43.2365217" lon="11.3737167"><ele>189.4</ele><time>2026-04-18T12:54:58.028Z</time></trkpt><trkpt lat="43.236465" lon="11.37359"><ele>188.6</ele><time>2026-04-18T12:54:59.028Z</time></trkpt><trkpt lat="43.2363833" lon="11.37349"><ele>187.8</ele><time>2026-04-18T12:55:00.028Z</time></trkpt><trkpt lat="43.2362883" lon="11.3734283"><ele>187.0</ele><time>2026-04-18T12:55:01.028Z</time></trkpt><trkpt lat="43.2361833" lon="11.3733983"><ele>185.33333333333334</ele><time>2026-04-18T12:55:02.027Z</time></trkpt><trkpt lat="43.23606" lon="11.373405"><ele>183.66666666666666</ele><time>2026-04-18T12:55:03.027Z</time></trkpt><trkpt lat="43.2359" lon="11.3734217"><ele>182.0</ele><time>2026-04-18T12:55:04.027Z</time></trkpt><trkpt lat="43.2357133" lon="11.3734383"><ele>180.33333333333331</ele><time>2026-04-18T12:55:05.027Z</time></trkpt><trkpt lat="43.2355067" lon="11.373455"><ele>178.66666666666666</ele><time>2026-04-18T12:55:06.028Z</time></trkpt><trkpt lat="43.2352917" lon="11.37347"><ele>177.0</ele><time>2026-04-18T12:55:07.028Z</time></trkpt><trkpt lat="43.2350917" lon="11.3734833"><ele>177.0</ele><time>2026-04-18T12:55:08.027Z</time></trkpt><trkpt lat="43.2349017" lon="11.373505"><ele>177.0</ele><time>2026-04-18T12:55:09.027Z</time></trkpt><trkpt lat="43.234715" lon="11.3735167"><ele>177.0</ele><time>2026-04-18T12:55:10.027Z</time></trkpt><trkpt lat="43.2345267" lon="11.37353"><ele>177.33333333333334</ele><time>2026-04-18T12:55:11.027Z</time></trkpt><trkpt lat="43.234355" lon="11.3735433"><ele>177.66666666666669</ele><time>2026-04-18T12:55:12.028Z</time></trkpt><trkpt lat="43.2342" lon="11.3735567"><ele>178.0</ele><time>2026-04-18T12:55:13.027Z</time></trkpt><trkpt lat="43.2340617" lon="11.3735683"><ele>178.25</ele><time>2026-04-18T12:55:14.027Z</time></trkpt><trkpt lat="43.2339267" lon="11.3735867"><ele>178.5</ele><time>2026-04-18T12:55:15.028Z</time></trkpt><trkpt lat="43.2337983" lon="11.3736067"><ele>178.75</ele><time>2026-04-18T12:55:16.027Z</time></trkpt><trkpt lat="43.2336567" lon="11.3736567"><ele>179.0</ele><time>2026-04-18T12:55:17.028Z</time></trkpt><trkpt lat="43.233495" lon="11.3737483"><ele>179.0</ele><time>2026-04-18T12:55:18.027Z</time></trkpt><trkpt lat="43.233315" lon="11.37388"><ele>179.0</ele><time>2026-04-18T12:55:19.027Z</time></trkpt><trkpt lat="43.233115" lon="11.3740233"><ele>179.0</ele><time>2026-04-18T12:55:20.027Z</time></trkpt><trkpt lat="43.23289" lon="11.3741817"><ele>179.0</ele><time>2026-04-18T12:55:21.027Z</time></trkpt><trkpt lat="43.2326517" lon="11.374355"><ele>179.0</ele><time>2026-04-18T12:55:22.028Z</time></trkpt><trkpt lat="43.23241" lon="11.3745233"><ele>179.0</ele><time>2026-04-18T12:55:23.027Z</time></trkpt><trkpt lat="43.23217" lon="11.3746933"><ele>179.0</ele><time>2026-04-18T12:55:24.027Z</time></trkpt><trkpt lat="43.231945" lon="11.3748567"><ele>179.0</ele><time>2026-04-18T12:55:25.027Z</time></trkpt><trkpt lat="43.23173" lon="11.3750083"><ele>179.0</ele><time>2026-04-18T12:55:26.028Z</time></trkpt><trkpt lat="43.2315183" lon="11.3751583"><ele>181.5</ele><time>2026-04-18T12:55:27.028Z</time></trkpt><trkpt lat="43.2313017" lon="11.3753083"><ele>184.0</ele><time>2026-04-18T12:55:28.028Z</time></trkpt><trkpt lat="43.2310817" lon="11.375465"><ele>181.5</ele><time>2026-04-18T12:55:29.027Z</time></trkpt><trkpt lat="43.2308683" lon="11.37562"><ele>179.0</ele><time>2026-04-18T12:55:30.027Z</time></trkpt><trkpt lat="43.2306717" lon="11.3757667"><ele>180.66666666666666</ele><time>2026-04-18T12:55:31.028Z</time></trkpt><trkpt lat="43.2304867" lon="11.3759033"><ele>182.33333333333334</ele><time>2026-04-18T12:55:32.028Z</time></trkpt><trkpt lat="43.23031" lon="11.3760283"><ele>184.0</ele><time>2026-04-18T12:55:33.026Z</time></trkpt><trkpt lat="43.2301267" lon="11.3761667"><ele>184.0</ele><time>2026-04-18T12:55:34.026Z</time></trkpt><trkpt lat="43.2299483" lon="11.3763033"><ele>184.0</ele><time>2026-04-18T12:55:35.027Z</time></trkpt><trkpt lat="43.2297733" lon="11.37644"><ele>184.0</ele><time>2026-04-18T12:55:36.026Z</time></trkpt><trkpt lat="43.22961" lon="11.376575"><ele>184.66666666666669</ele><time>2026-04-18T12:55:37.026Z</time></trkpt><trkpt lat="43.2294483" lon="11.3767"><ele>185.33333333333334</ele><time>2026-04-18T12:55:38.026Z</time></trkpt><trkpt lat="43.2293033" lon="11.3768133"><ele>186.0</ele><time>2026-04-18T12:55:39.027Z</time></trkpt><trkpt lat="43.22917" lon="11.3769183"><ele>186.0</ele><time>2026-04-18T12:55:40.027Z</time></trkpt><trkpt lat="43.2290433" lon="11.37701"><ele>186.0</ele><time>2026-04-18T12:55:41.027Z</time></trkpt><trkpt lat="43.2289233" lon="11.3770917"><ele>186.0</ele><time>2026-04-18T12:55:42.026Z</time></trkpt><trkpt lat="43.2287883" lon="11.377155"><ele>186.0</ele><time>2026-04-18T12:55:43.026Z</time></trkpt><trkpt lat="43.228635" lon="11.3772"><ele>183.33333333333334</ele><time>2026-04-18T12:55:44.027Z</time></trkpt><trkpt lat="43.2284867" lon="11.377235"><ele>180.66666666666669</ele><time>2026-04-18T12:55:45.026Z</time></trkpt><trkpt lat="43.228325" lon="11.37726"><ele>178.0</ele><time>2026-04-18T12:55:46.027Z</time></trkpt><trkpt lat="43.2281733" lon="11.3772683"><ele>178.0</ele><time>2026-04-18T12:55:47.027Z</time></trkpt><trkpt lat="43.2280333" lon="11.37728"><ele>178.0</ele><time>2026-04-18T12:55:48.026Z</time></trkpt><trkpt lat="43.2279033" lon="11.3772883"><ele>178.0</ele><time>2026-04-18T12:55:49.027Z</time></trkpt><trkpt lat="43.2277633" lon="11.3773017"><ele>178.0</ele><time>2026-04-18T12:55:50.026Z</time></trkpt><trkpt lat="43.2276283" lon="11.377295"><ele>178.0</ele><time>2026-04-18T12:55:51.026Z</time></trkpt><trkpt lat="43.2274933" lon="11.3772917"><ele>178.0</ele><time>2026-04-18T12:55:52.027Z</time></trkpt><trkpt lat="43.2273633" lon="11.3772717"><ele>178.0</ele><time>2026-04-18T12:55:53.027Z</time></trkpt><trkpt lat="43.2272283" lon="11.3772383"><ele>178.0</ele><time>2026-04-18T12:55:54.026Z</time></trkpt><trkpt lat="43.22709" lon="11.37718"><ele>178.75</ele><time>2026-04-18T12:55:55.027Z</time></trkpt><trkpt lat="43.2269533" lon="11.3770967"><ele>179.5</ele><time>2026-04-18T12:55:56.027Z</time></trkpt><trkpt lat="43.2268183" lon="11.3770033"><ele>180.25</ele><time>2026-04-18T12:55:57.026Z</time></trkpt><trkpt lat="43.22669" lon="11.3769083"><ele>181.0</ele><time>2026-04-18T12:55:58.026Z</time></trkpt><trkpt lat="43.2265783" lon="11.3768083"><ele>180.5</ele><time>2026-04-18T12:55:59.026Z</time></trkpt><trkpt lat="43.226465" lon="11.376685"><ele>180.0</ele><time>2026-04-18T12:56:00.027Z</time></trkpt><trkpt lat="43.2263633" lon="11.37654"><ele>179.5</ele><time>2026-04-18T12:56:01.026Z</time></trkpt><trkpt lat="43.2262717" lon="11.37637"><ele>179.0</ele><time>2026-04-18T12:56:02.027Z</time></trkpt><trkpt lat="43.2261917" lon="11.3761883"><ele>179.0</ele><time>2026-04-18T12:56:03.027Z</time></trkpt><trkpt lat="43.226125" lon="11.3759883"><ele>179.0</ele><time>2026-04-18T12:56:04.026Z</time></trkpt><trkpt lat="43.22607" lon="11.3757883"><ele>179.0</ele><time>2026-04-18T12:56:05.026Z</time></trkpt><trkpt lat="43.2260367" lon="11.3755883"><ele>178.66666666666666</ele><time>2026-04-18T12:56:06.027Z</time></trkpt><trkpt lat="43.226025" lon="11.3753817"><ele>178.33333333333334</ele><time>2026-04-18T12:56:07.027Z</time></trkpt><trkpt lat="43.226035" lon="11.375155"><ele>178.0</ele><time>2026-04-18T12:56:08.027Z</time></trkpt><trkpt lat="43.22605" lon="11.3748933"><ele>177.66666666666669</ele><time>2026-04-18T12:56:09.026Z</time></trkpt><trkpt lat="43.2260783" lon="11.3746367"><ele>177.33333333333334</ele><time>2026-04-18T12:56:10.027Z</time></trkpt><trkpt lat="43.2261033" lon="11.3744067"><ele>177.0</ele><time>2026-04-18T12:56:11.027Z</time></trkpt><trkpt lat="43.2261167" lon="11.3741933"><ele>177.0</ele><time>2026-04-18T12:56:12.027Z</time></trkpt><trkpt lat="43.2261233" lon="11.3739933"><ele>177.0</ele><time>2026-04-18T12:56:13.027Z</time></trkpt><trkpt lat="43.2261167" lon="11.3738017"><ele>177.0</ele><time>2026-04-18T12:56:14.026Z</time></trkpt><trkpt lat="43.226095" lon="11.3736"><ele>177.0</ele><time>2026-04-18T12:56:15.027Z</time></trkpt><trkpt lat="43.226045" lon="11.3733883"><ele>177.33333333333334</ele><time>2026-04-18T12:56:16.027Z</time></trkpt><trkpt lat="43.2259817" lon="11.37316"><ele>177.66666666666669</ele><time>2026-04-18T12:56:17.026Z</time></trkpt><trkpt lat="43.2259117" lon="11.372935"><ele>178.0</ele><time>2026-04-18T12:56:18.026Z</time></trkpt><trkpt lat="43.2258567" lon="11.3727433"><ele>178.60000000000002</ele><time>2026-04-18T12:56:19.027Z</time></trkpt><trkpt lat="43.2258083" lon="11.37259"><ele>179.20000000000002</ele><time>2026-04-18T12:56:20.026Z</time></trkpt><trkpt lat="43.225765" lon="11.372455"><ele>179.8</ele><time>2026-04-18T12:56:21.027Z</time></trkpt><trkpt lat="43.225715" lon="11.37234"><ele>180.4</ele><time>2026-04-18T12:56:22.027Z</time></trkpt><trkpt lat="43.2256683" lon="11.3722517"><ele>181.0</ele><time>2026-04-18T12:56:23.027Z</time></trkpt><trkpt lat="43.2256067" lon="11.3721767"><ele>181.0</ele><time>2026-04-18T12:56:24.027Z</time></trkpt><trkpt lat="43.2255367" lon="11.3721417"><ele>181.0</ele><time>2026-04-18T12:56:25.026Z</time></trkpt><trkpt lat="43.22546" lon="11.37214"><ele>181.0</ele><time>2026-04-18T12:56:26.027Z</time></trkpt><trkpt lat="43.22539" lon="11.3721967"><ele>181.0</ele><time>2026-04-18T12:56:27.027Z</time></trkpt><trkpt lat="43.22533" lon="11.3722933"><ele>181.0</ele><time>2026-04-18T12:56:28.026Z</time></trkpt><trkpt lat="43.2252783" lon="11.372415"><ele>181.0</ele><time>2026-04-18T12:56:29.026Z</time></trkpt><trkpt lat="43.2252217" lon="11.3725783"><ele>180.75</ele><time>2026-04-18T12:56:30.026Z</time></trkpt><trkpt lat="43.22515" lon="11.3727583"><ele>180.5</ele><time>2026-04-18T12:56:31.026Z</time></trkpt><trkpt lat="43.2250767" lon="11.3729367"><ele>180.25</ele><time>2026-04-18T12:56:32.027Z</time></trkpt><trkpt lat="43.224995" lon="11.3731"><ele>180.0</ele><time>2026-04-18T12:56:33.026Z</time></trkpt><trkpt lat="43.22492" lon="11.3732283"><ele>180.0</ele><time>2026-04-18T12:56:34.026Z</time></trkpt><trkpt lat="43.2248333" lon="11.37333"><ele>180.0</ele><time>2026-04-18T12:56:35.026Z</time></trkpt><trkpt lat="43.2247417" lon="11.3734167"><ele>180.0</ele><time>2026-04-18T12:56:36.027Z</time></trkpt><trkpt lat="43.224635" lon="11.373475"><ele>180.0</ele><time>2026-04-18T12:56:37.026Z</time></trkpt><trkpt lat="43.2245083" lon="11.3735067"><ele>182.0</ele><time>2026-04-18T12:56:38.026Z</time></trkpt><trkpt lat="43.2243833" lon="11.3735183"><ele>184.0</ele><time>2026-04-18T12:56:39.026Z</time></trkpt><trkpt lat="43.2242567" lon="11.37351"><ele>186.0</ele><time>2026-04-18T12:56:40.027Z</time></trkpt><trkpt lat="43.224135" lon="11.3734667"><ele>188.0</ele><time>2026-04-18T12:56:41.026Z</time></trkpt><trkpt lat="43.2240183" lon="11.373405"><ele>192.5</ele><time>2026-04-18T12:56:42.027Z</time></trkpt><trkpt lat="43.2239117" lon="11.37332"><ele>197.0</ele><time>2026-04-18T12:56:43.026Z</time></trkpt><trkpt lat="43.2238267" lon="11.3732167"><ele>201.5</ele><time>2026-04-18T12:56:44.027Z</time></trkpt><trkpt lat="43.22374" lon="11.3730983"><ele>206.0</ele><time>2026-04-18T12:56:45.027Z</time></trkpt><trkpt lat="43.2236667" lon="11.3729617"><ele>206.0</ele><time>2026-04-18T12:56:46.027Z</time></trkpt><trkpt lat="43.2236233" lon="11.3728167"><ele>206.0</ele><time>2026-04-18T12:56:47.026Z</time></trkpt><trkpt lat="43.2236017" lon="11.3726667"><ele>206.0</ele><time>2026-04-18T12:56:48.027Z</time></trkpt><trkpt lat="43.223595" lon="11.3725117"><ele>206.0</ele><time>2026-04-18T12:56:49.026Z</time></trkpt><trkpt lat="43.2236067" lon="11.3723417"><ele>206.0</ele><time>2026-04-18T12:56:50.027Z</time></trkpt><trkpt lat="43.2236267" lon="11.3721617"><ele>206.0</ele><time>2026-04-18T12:56:51.027Z</time></trkpt><trkpt lat="43.2236383" lon="11.3720017"><ele>206.0</ele><time>2026-04-18T12:56:52.026Z</time></trkpt><trkpt lat="43.2236183" lon="11.3718517"><ele>206.0</ele><time>2026-04-18T12:56:53.026Z</time></trkpt><trkpt lat="43.2236033" lon="11.3717"><ele>206.0</ele><time>2026-04-18T12:56:54.027Z</time></trkpt><trkpt lat="43.2235567" lon="11.3715517"><ele>206.0</ele><time>2026-04-18T12:56:55.026Z</time></trkpt><trkpt lat="43.2235" lon="11.3714317"><ele>206.0</ele><time>2026-04-18T12:56:56.026Z</time></trkpt><trkpt lat="43.2234283" lon="11.3713167"><ele>206.0</ele><time>2026-04-18T12:56:57.027Z</time></trkpt><trkpt lat="43.2233433" lon="11.3712333"><ele>206.0</ele><time>2026-04-18T12:56:58.026Z</time></trkpt><trkpt lat="43.2232567" lon="11.3711783"><ele>206.4</ele><time>2026-04-18T12:56:59.026Z</time></trkpt><trkpt lat="43.223165" lon="11.3711517"><ele>206.8</ele><time>2026-04-18T12:57:00.027Z</time></trkpt><trkpt lat="43.2230667" lon="11.3711717"><ele>207.20000000000002</ele><time>2026-04-18T12:57:01.026Z</time></trkpt><trkpt lat="43.2229667" lon="11.371245"><ele>207.60000000000002</ele><time>2026-04-18T12:57:02.027Z</time></trkpt><trkpt lat="43.2228817" lon="11.3713567"><ele>208.0</ele><time>2026-04-18T12:57:03.027Z</time></trkpt><trkpt lat="43.22279" lon="11.3714983"><ele>208.0</ele><time>2026-04-18T12:57:04.026Z</time></trkpt><trkpt lat="43.2226917" lon="11.3716617"><ele>208.0</ele><time>2026-04-18T12:57:05.026Z</time></trkpt><trkpt lat="43.2225867" lon="11.3718383"><ele>208.0</ele><time>2026-04-18T12:57:06.026Z</time></trkpt><trkpt lat="43.22248" lon="11.3720067"><ele>208.0</ele><time>2026-04-18T12:57:07.026Z</time></trkpt><trkpt lat="43.2223733" lon="11.3721683"><ele>208.0</ele><time>2026-04-18T12:57:08.026Z</time></trkpt><trkpt lat="43.2222633" lon="11.3723133"><ele>208.0</ele><time>2026-04-18T12:57:09.027Z</time></trkpt><trkpt lat="43.2221417" lon="11.3724267"><ele>212.33333333333331</ele><time>2026-04-18T12:57:10.026Z</time></trkpt><trkpt lat="43.222005" lon="11.3725233"><ele>216.66666666666669</ele><time>2026-04-18T12:57:11.026Z</time></trkpt><trkpt lat="43.2218617" lon="11.3725983"><ele>221.0</ele><time>2026-04-18T12:57:12.027Z</time></trkpt><trkpt lat="43.2216933" lon="11.3726583"><ele>221.0</ele><time>2026-04-18T12:57:13.026Z</time></trkpt><trkpt lat="43.22151" lon="11.3727"><ele>221.0</ele><time>2026-04-18T12:57:14.026Z</time></trkpt><trkpt lat="43.221315" lon="11.3727467"><ele>221.0</ele><time>2026-04-18T12:57:15.026Z</time></trkpt><trkpt lat="43.221105" lon="11.372795"><ele>223.0</ele><time>2026-04-18T12:57:16.027Z</time></trkpt><trkpt lat="43.2208967" lon="11.3728433"><ele>225.0</ele><time>2026-04-18T12:57:17.026Z</time></trkpt><trkpt lat="43.2207083" lon="11.372885"><ele>227.0</ele><time>2026-04-18T12:57:18.026Z</time></trkpt><trkpt lat="43.2205183" lon="11.3729217"><ele>228.33333333333334</ele><time>2026-04-18T12:57:19.027Z</time></trkpt><trkpt lat="43.2203433" lon="11.3729583"><ele>229.66666666666669</ele><time>2026-04-18T12:57:20.026Z</time></trkpt><trkpt lat="43.220185" lon="11.3729967"><ele>231.0</ele><time>2026-04-18T12:57:21.027Z</time></trkpt><trkpt lat="43.2200317" lon="11.37303"><ele>231.0</ele><time>2026-04-18T12:57:22.026Z</time></trkpt><trkpt lat="43.2198983" lon="11.3730517"><ele>231.0</ele><time>2026-04-18T12:57:23.026Z</time></trkpt><trkpt lat="43.2197817" lon="11.3730717"><ele>231.0</ele><time>2026-04-18T12:57:24.026Z</time></trkpt><trkpt lat="43.2196717" lon="11.373085"><ele>231.0</ele><time>2026-04-18T12:57:25.027Z</time></trkpt><trkpt lat="43.2195633" lon="11.3730933"><ele>233.60000000000002</ele><time>2026-04-18T12:57:26.026Z</time></trkpt><trkpt lat="43.2194533" lon="11.37308"><ele>236.20000000000002</ele><time>2026-04-18T12:57:27.026Z</time></trkpt><trkpt lat="43.2193633" lon="11.373065"><ele>238.79999999999998</ele><time>2026-04-18T12:57:28.027Z</time></trkpt><trkpt lat="43.2192767" lon="11.3730467"><ele>241.39999999999998</ele><time>2026-04-18T12:57:29.027Z</time></trkpt><trkpt lat="43.2191917" lon="11.37303"><ele>244.0</ele><time>2026-04-18T12:57:30.026Z</time></trkpt><trkpt lat="43.219105" lon="11.3730183"><ele>245.33333333333331</ele><time>2026-04-18T12:57:31.027Z</time></trkpt><trkpt lat="43.2190233" lon="11.3730117"><ele>246.66666666666666</ele><time>2026-04-18T12:57:32.027Z</time></trkpt><trkpt lat="43.218945" lon="11.3729983"><ele>248.0</ele><time>2026-04-18T12:57:33.027Z</time></trkpt><trkpt lat="43.218855" lon="11.3729533"><ele>249.33333333333331</ele><time>2026-04-18T12:57:34.026Z</time></trkpt><trkpt lat="43.21877" lon="11.3729117"><ele>250.66666666666666</ele><time>2026-04-18T12:57:35.027Z</time></trkpt><trkpt lat="43.218685" lon="11.3728767"><ele>252.0</ele><time>2026-04-18T12:57:36.026Z</time></trkpt><trkpt lat="43.2186" lon="11.37283"><ele>252.0</ele><time>2026-04-18T12:57:37.026Z</time></trkpt><trkpt lat="43.2185117" lon="11.3727833"><ele>252.0</ele><time>2026-04-18T12:57:38.026Z</time></trkpt><trkpt lat="43.21842" lon="11.3727367"><ele>252.0</ele><time>2026-04-18T12:57:39.026Z</time></trkpt><trkpt lat="43.2183267" lon="11.3726917"><ele>252.0</ele><time>2026-04-18T12:57:40.026Z</time></trkpt><trkpt lat="43.21823" lon="11.3726433"><ele>252.0</ele><time>2026-04-18T12:57:41.027Z</time></trkpt><trkpt lat="43.2181283" lon="11.3725917"><ele>250.0</ele><time>2026-04-18T12:57:42.026Z</time></trkpt><trkpt lat="43.2180317" lon="11.3725417"><ele>248.0</ele><time>2026-04-18T12:57:43.026Z</time></trkpt><trkpt lat="43.2179383" lon="11.3724983"><ele>246.0</ele><time>2026-04-18T12:57:44.026Z</time></trkpt><trkpt lat="43.2178483" lon="11.372455"><ele>244.0</ele><time>2026-04-18T12:57:45.026Z</time></trkpt><trkpt lat="43.2177567" lon="11.37241"><ele>242.0</ele><time>2026-04-18T12:57:46.026Z</time></trkpt><trkpt lat="43.2176683" lon="11.3723567"><ele>242.00000000000003</ele><time>2026-04-18T12:57:47.027Z</time></trkpt><trkpt lat="43.217585" lon="11.3723083"><ele>242.0</ele><time>2026-04-18T12:57:48.026Z</time></trkpt><trkpt lat="43.2175167" lon="11.37227"><ele>242.0</ele><time>2026-04-18T12:57:49.027Z</time></trkpt><trkpt lat="43.217455" lon="11.3722433"><ele>242.0</ele><time>2026-04-18T12:57:50.026Z</time></trkpt><trkpt lat="43.21739" lon="11.3721983"><ele>242.00000000000003</ele><time>2026-04-18T12:57:52.026Z</time></trkpt><trkpt lat="43.2173283" lon="11.3721617"><ele>242.0</ele><time>2026-04-18T12:57:56.026Z</time></trkpt><trkpt lat="43.217255" lon="11.3721133"><ele>241.2</ele><time>2026-04-18T12:57:59.027Z</time></trkpt><trkpt lat="43.2171533" lon="11.372055"><ele>240.39999999999998</ele><time>2026-04-18T12:58:01.026Z</time></trkpt><trkpt lat="43.2170767" lon="11.3720167"><ele>239.60000000000002</ele><time>2026-04-18T12:58:02.026Z</time></trkpt><trkpt lat="43.21698" lon="11.3719667"><ele>238.8</ele><time>2026-04-18T12:58:03.027Z</time></trkpt><trkpt lat="43.2168667" lon="11.3719117"><ele>238.0</ele><time>2026-04-18T12:58:04.027Z</time></trkpt><trkpt lat="43.2167317" lon="11.3718533"><ele>238.0</ele><time>2026-04-18T12:58:05.027Z</time></trkpt><trkpt lat="43.2165983" lon="11.3717917"><ele>238.0</ele><time>2026-04-18T12:58:06.026Z</time></trkpt><trkpt lat="43.2164833" lon="11.3717317"><ele>238.0</ele><time>2026-04-18T12:58:07.026Z</time></trkpt><trkpt lat="43.216365" lon="11.37169"><ele>238.0</ele><time>2026-04-18T12:58:08.026Z</time></trkpt><trkpt lat="43.2162433" lon="11.37163"><ele>239.5</ele><time>2026-04-18T12:58:09.026Z</time></trkpt><trkpt lat="43.2161167" lon="11.371575"><ele>241.0</ele><time>2026-04-18T12:58:10.026Z</time></trkpt><trkpt lat="43.2159983" lon="11.3715133"><ele>242.5</ele><time>2026-04-18T12:58:11.026Z</time></trkpt><trkpt lat="43.2158983" lon="11.3714433"><ele>244.0</ele><time>2026-04-18T12:58:12.027Z</time></trkpt><trkpt lat="43.2158067" lon="11.3713833"><ele>243.2</ele><time>2026-04-18T12:58:13.026Z</time></trkpt><trkpt lat="43.2157283" lon="11.3712933"><ele>242.39999999999998</ele><time>2026-04-18T12:58:14.026Z</time></trkpt><trkpt lat="43.21565" lon="11.371205"><ele>241.6</ele><time>2026-04-18T12:58:15.027Z</time></trkpt><trkpt lat="43.2155533" lon="11.3711133"><ele>240.8</ele><time>2026-04-18T12:58:16.026Z</time></trkpt><trkpt lat="43.215455" lon="11.3710167"><ele>240.0</ele><time>2026-04-18T12:58:17.027Z</time></trkpt><trkpt lat="43.2153483" lon="11.3709283"><ele>240.0</ele><time>2026-04-18T12:58:18.026Z</time></trkpt><trkpt lat="43.2152383" lon="11.3708433"><ele>240.0</ele><time>2026-04-18T12:58:19.026Z</time></trkpt><trkpt lat="43.2151333" lon="11.370765"><ele>240.0</ele><time>2026-04-18T12:58:20.026Z</time></trkpt><trkpt lat="43.215025" lon="11.37073"><ele>240.0</ele><time>2026-04-18T12:58:21.027Z</time></trkpt><trkpt lat="43.2149133" lon="11.3706917"><ele>237.0</ele><time>2026-04-18T12:58:22.027Z</time></trkpt><trkpt lat="43.2147917" lon="11.3706817"><ele>234.0</ele><time>2026-04-18T12:58:23.027Z</time></trkpt><trkpt lat="43.2146817" lon="11.3707117"><ele>231.0</ele><time>2026-04-18T12:58:24.026Z</time></trkpt><trkpt lat="43.214575" lon="11.37077"><ele>228.0</ele><time>2026-04-18T12:58:25.026Z</time></trkpt><trkpt lat="43.214475" lon="11.370825"><ele>228.0</ele><time>2026-04-18T12:58:26.026Z</time></trkpt><trkpt lat="43.2143667" lon="11.3708883"><ele>228.0</ele><time>2026-04-18T12:58:27.026Z</time></trkpt><trkpt lat="43.2142533" lon="11.3709567"><ele>228.0</ele><time>2026-04-18T12:58:28.027Z</time></trkpt><trkpt lat="43.21414" lon="11.3710167"><ele>228.0</ele><time>2026-04-18T12:58:29.027Z</time></trkpt><trkpt lat="43.2140283" lon="11.3710933"><ele>226.5</ele><time>2026-04-18T12:58:30.026Z</time></trkpt><trkpt lat="43.2139117" lon="11.3711633"><ele>225.0</ele><time>2026-04-18T12:58:31.026Z</time></trkpt><trkpt lat="43.2137983" lon="11.37124"><ele>223.5</ele><time>2026-04-18T12:58:32.026Z</time></trkpt><trkpt lat="43.2136917" lon="11.3713083"><ele>222.0</ele><time>2026-04-18T12:58:33.026Z</time></trkpt><trkpt lat="43.2135883" lon="11.3713517"><ele>222.0</ele><time>2026-04-18T12:58:34.026Z</time></trkpt><trkpt lat="43.2134867" lon="11.3713767"><ele>222.0</ele><time>2026-04-18T12:58:35.026Z</time></trkpt><trkpt lat="43.21338" lon="11.371355"><ele>222.0</ele><time>2026-04-18T12:58:36.026Z</time></trkpt><trkpt lat="43.2132817" lon="11.3712867"><ele>222.0</ele><time>2026-04-18T12:58:37.026Z</time></trkpt><trkpt lat="43.2132" lon="11.37117"><ele>222.0</ele><time>2026-04-18T12:58:38.027Z</time></trkpt><trkpt lat="43.2131283" lon="11.3710267"><ele>222.0</ele><time>2026-04-18T12:58:39.027Z</time></trkpt><trkpt lat="43.2130533" lon="11.3708683"><ele>222.0</ele><time>2026-04-18T12:58:40.026Z</time></trkpt><trkpt lat="43.21298" lon="11.3707033"><ele>222.0</ele><time>2026-04-18T12:58:41.027Z</time></trkpt><trkpt lat="43.2129" lon="11.3705333"><ele>222.0</ele><time>2026-04-18T12:58:42.026Z</time></trkpt><trkpt lat="43.2128067" lon="11.3703483"><ele>223.66666666666669</ele><time>2026-04-18T12:58:43.027Z</time></trkpt><trkpt lat="43.212705" lon="11.3701583"><ele>225.33333333333334</ele><time>2026-04-18T12:58:44.026Z</time></trkpt><trkpt lat="43.2125983" lon="11.3699717"><ele>227.0</ele><time>2026-04-18T12:58:45.026Z</time></trkpt><trkpt lat="43.2124917" lon="11.3698033"><ele>226.33333333333334</ele><time>2026-04-18T12:58:46.027Z</time></trkpt><trkpt lat="43.2123817" lon="11.3696217"><ele>225.66666666666669</ele><time>2026-04-18T12:58:47.026Z</time></trkpt><trkpt lat="43.212275" lon="11.3694567"><ele>225.0</ele><time>2026-04-18T12:58:48.026Z</time></trkpt><trkpt lat="43.21217" lon="11.369305"><ele>225.5</ele><time>2026-04-18T12:58:49.026Z</time></trkpt><trkpt lat="43.2120567" lon="11.369175"><ele>226.0</ele><time>2026-04-18T12:58:50.026Z</time></trkpt><trkpt lat="43.2119367" lon="11.369065"><ele>226.5</ele><time>2026-04-18T12:58:51.025Z</time></trkpt><trkpt lat="43.211805" lon="11.3689517"><ele>227.0</ele><time>2026-04-18T12:58:52.026Z</time></trkpt><trkpt lat="43.21166" lon="11.3688583"><ele>227.0</ele><time>2026-04-18T12:58:53.025Z</time></trkpt><trkpt lat="43.2115033" lon="11.368775"><ele>227.0</ele><time>2026-04-18T12:58:54.025Z</time></trkpt><trkpt lat="43.2113383" lon="11.368705"><ele>227.0</ele><time>2026-04-18T12:58:55.025Z</time></trkpt><trkpt lat="43.21115" lon="11.368645"><ele>228.33333333333334</ele><time>2026-04-18T12:58:56.025Z</time></trkpt><trkpt lat="43.21095" lon="11.3685867"><ele>229.66666666666669</ele><time>2026-04-18T12:58:57.026Z</time></trkpt><trkpt lat="43.2107517" lon="11.36852"><ele>231.0</ele><time>2026-04-18T12:58:58.025Z</time></trkpt><trkpt lat="43.210565" lon="11.36845"><ele>231.0</ele><time>2026-04-18T12:58:59.025Z</time></trkpt><trkpt lat="43.2103967" lon="11.3683917"><ele>231.0</ele><time>2026-04-18T12:59:00.025Z</time></trkpt><trkpt lat="43.2102433" lon="11.3683383"><ele>231.0</ele><time>2026-04-18T12:59:01.025Z</time></trkpt><trkpt lat="43.2101083" lon="11.3683017"><ele>231.0</ele><time>2026-04-18T12:59:02.025Z</time></trkpt><trkpt lat="43.209985" lon="11.3682533"><ele>231.00000000000003</ele><time>2026-04-18T12:59:03.026Z</time></trkpt><trkpt lat="43.209875" lon="11.3682217"><ele>231.00000000000003</ele><time>2026-04-18T12:59:04.025Z</time></trkpt><trkpt lat="43.2097717" lon="11.3682117"><ele>231.0</ele><time>2026-04-18T12:59:05.026Z</time></trkpt><trkpt lat="43.2096767" lon="11.3682383"><ele>231.0</ele><time>2026-04-18T12:59:06.025Z</time></trkpt><trkpt lat="43.20959" lon="11.36831"><ele>233.0</ele><time>2026-04-18T12:59:07.026Z</time></trkpt><trkpt lat="43.2095033" lon="11.3684233"><ele>235.0</ele><time>2026-04-18T12:59:08.025Z</time></trkpt><trkpt lat="43.2094117" lon="11.3685733"><ele>237.0</ele><time>2026-04-18T12:59:09.026Z</time></trkpt><trkpt lat="43.2092917" lon="11.3687633"><ele>239.0</ele><time>2026-04-18T12:59:10.025Z</time></trkpt><trkpt lat="43.2091583" lon="11.3689683"><ele>239.0</ele><time>2026-04-18T12:59:11.026Z</time></trkpt><trkpt lat="43.2090183" lon="11.3691683"><ele>239.0</ele><time>2026-04-18T12:59:12.025Z</time></trkpt><trkpt lat="43.208885" lon="11.3693667"><ele>239.0</ele><time>2026-04-18T12:59:13.025Z</time></trkpt><trkpt lat="43.2087483" lon="11.3695667"><ele>243.66666666666669</ele><time>2026-04-18T12:59:14.025Z</time></trkpt><trkpt lat="43.2086067" lon="11.3697633"><ele>248.33333333333331</ele><time>2026-04-18T12:59:15.025Z</time></trkpt><trkpt lat="43.208465" lon="11.3699733"><ele>253.0</ele><time>2026-04-18T12:59:16.026Z</time></trkpt><trkpt lat="43.2083217" lon="11.3701717"><ele>253.0</ele><time>2026-04-18T12:59:17.026Z</time></trkpt><trkpt lat="43.2081867" lon="11.3703617"><ele>253.0</ele><time>2026-04-18T12:59:18.025Z</time></trkpt><trkpt lat="43.20806" lon="11.3705533"><ele>253.0</ele><time>2026-04-18T12:59:19.025Z</time></trkpt><trkpt lat="43.2079267" lon="11.3707383"><ele>258.66666666666663</ele><time>2026-04-18T12:59:20.025Z</time></trkpt><trkpt lat="43.2077983" lon="11.3709233"><ele>264.3333333333333</ele><time>2026-04-18T12:59:21.026Z</time></trkpt><trkpt lat="43.20767" lon="11.3710933"><ele>270.0</ele><time>2026-04-18T12:59:22.026Z</time></trkpt><trkpt lat="43.2075467" lon="11.37124"><ele>266.3333333333333</ele><time>2026-04-18T12:59:23.026Z</time></trkpt><trkpt lat="43.2074283" lon="11.3713883"><ele>262.66666666666663</ele><time>2026-04-18T12:59:24.025Z</time></trkpt><trkpt lat="43.2073133" lon="11.37153"><ele>259.0</ele><time>2026-04-18T12:59:25.026Z</time></trkpt><trkpt lat="43.2072017" lon="11.3716683"><ele>262.0</ele><time>2026-04-18T12:59:26.025Z</time></trkpt><trkpt lat="43.20712" lon="11.3718217"><ele>265.0</ele><time>2026-04-18T12:59:27.025Z</time></trkpt><trkpt lat="43.2070317" lon="11.3719833"><ele>268.0</ele><time>2026-04-18T12:59:28.026Z</time></trkpt><trkpt lat="43.2069417" lon="11.3721533"><ele>271.0</ele><time>2026-04-18T12:59:29.025Z</time></trkpt><trkpt lat="43.2068617" lon="11.3723217"><ele>271.0</ele><time>2026-04-18T12:59:30.025Z</time></trkpt><trkpt lat="43.2067717" lon="11.3724817"><ele>271.0</ele><time>2026-04-18T12:59:31.025Z</time></trkpt><trkpt lat="43.20667" lon="11.37262"><ele>271.0</ele><time>2026-04-18T12:59:32.025Z</time></trkpt><trkpt lat="43.206565" lon="11.3727533"><ele>271.0</ele><time>2026-04-18T12:59:33.025Z</time></trkpt><trkpt lat="43.2064467" lon="11.37287"><ele>269.66666666666663</ele><time>2026-04-18T12:59:34.026Z</time></trkpt><trkpt lat="43.2062967" lon="11.37299"><ele>268.3333333333333</ele><time>2026-04-18T12:59:35.025Z</time></trkpt><trkpt lat="43.20614" lon="11.373095"><ele>267.0</ele><time>2026-04-18T12:59:36.026Z</time></trkpt><trkpt lat="43.20599" lon="11.3731967"><ele>267.0</ele><time>2026-04-18T12:59:37.026Z</time></trkpt><trkpt lat="43.20584" lon="11.373305"><ele>267.0</ele><time>2026-04-18T12:59:38.025Z</time></trkpt><trkpt lat="43.2057083" lon="11.3734133"><ele>267.0</ele><time>2026-04-18T12:59:39.026Z</time></trkpt><trkpt lat="43.2055983" lon="11.373525"><ele>267.25</ele><time>2026-04-18T12:59:40.025Z</time></trkpt><trkpt lat="43.2054933" lon="11.3736233"><ele>267.5</ele><time>2026-04-18T12:59:41.025Z</time></trkpt><trkpt lat="43.2053883" lon="11.3737017"><ele>267.75</ele><time>2026-04-18T12:59:42.025Z</time></trkpt><trkpt lat="43.2052717" lon="11.3737567"><ele>268.0</ele><time>2026-04-18T12:59:43.025Z</time></trkpt><trkpt lat="43.2051333" lon="11.3737767"><ele>268.0</ele><time>2026-04-18T12:59:44.026Z</time></trkpt><trkpt lat="43.2049783" lon="11.3737717"><ele>268.0</ele><time>2026-04-18T12:59:45.026Z</time></trkpt><trkpt lat="43.204825" lon="11.373775"><ele>268.0</ele><time>2026-04-18T12:59:46.025Z</time></trkpt><trkpt lat="43.20467" lon="11.3737883"><ele>267.66666666666663</ele><time>2026-04-18T12:59:47.026Z</time></trkpt><trkpt lat="43.2045117" lon="11.3738217"><ele>267.3333333333333</ele><time>2026-04-18T12:59:48.026Z</time></trkpt><trkpt lat="43.204355" lon="11.3738733"><ele>267.0</ele><time>2026-04-18T12:59:49.026Z</time></trkpt><trkpt lat="43.2041883" lon="11.3739317"><ele>264.75</ele><time>2026-04-18T12:59:50.025Z</time></trkpt><trkpt lat="43.2040333" lon="11.3739883"><ele>262.5</ele><time>2026-04-18T12:59:51.025Z</time></trkpt><trkpt lat="43.2038917" lon="11.37404"><ele>260.25</ele><time>2026-04-18T12:59:52.025Z</time></trkpt><trkpt lat="43.2037583" lon="11.3741017"><ele>258.0</ele><time>2026-04-18T12:59:53.026Z</time></trkpt><trkpt lat="43.2036267" lon="11.374175"><ele>258.0</ele><time>2026-04-18T12:59:54.025Z</time></trkpt><trkpt lat="43.2034983" lon="11.3742783"><ele>258.0</ele><time>2026-04-18T12:59:55.026Z</time></trkpt><trkpt lat="43.20337" lon="11.374395"><ele>258.0</ele><time>2026-04-18T12:59:56.025Z</time></trkpt><trkpt lat="43.2032483" lon="11.3744917"><ele>258.0</ele><time>2026-04-18T12:59:57.025Z</time></trkpt><trkpt lat="43.203115" lon="11.3745633"><ele>256.0</ele><time>2026-04-18T12:59:58.025Z</time></trkpt><trkpt lat="43.2029367" lon="11.3746133"><ele>254.0</ele><time>2026-04-18T12:59:59.026Z</time></trkpt><trkpt lat="43.2027433" lon="11.3746567"><ele>252.0</ele><time>2026-04-18T13:00:00.025Z</time></trkpt><trkpt lat="43.20255" lon="11.3746983"><ele>252.0</ele><time>2026-04-18T13:00:01.026Z</time></trkpt><trkpt lat="43.2023767" lon="11.37475"><ele>252.0</ele><time>2026-04-18T13:00:02.025Z</time></trkpt><trkpt lat="43.2022133" lon="11.3747833"><ele>252.0</ele><time>2026-04-18T13:00:03.025Z</time></trkpt><trkpt lat="43.2020767" lon="11.374825"><ele>255.5</ele><time>2026-04-18T13:00:04.026Z</time></trkpt><trkpt lat="43.2019467" lon="11.37487"><ele>259.0</ele><time>2026-04-18T13:00:05.025Z</time></trkpt><trkpt lat="43.2018133" lon="11.37492"><ele>262.5</ele><time>2026-04-18T13:00:06.025Z</time></trkpt><trkpt lat="43.2016883" lon="11.3749917"><ele>266.0</ele><time>2026-04-18T13:00:07.026Z</time></trkpt><trkpt lat="43.201565" lon="11.3750783"><ele>267.25</ele><time>2026-04-18T13:00:08.026Z</time></trkpt><trkpt lat="43.20144" lon="11.3751783"><ele>268.5</ele><time>2026-04-18T13:00:09.025Z</time></trkpt><trkpt lat="43.20133" lon="11.37526"><ele>269.75</ele><time>2026-04-18T13:00:10.025Z</time></trkpt><trkpt lat="43.2012217" lon="11.3753317"><ele>271.0</ele><time>2026-04-18T13:00:11.026Z</time></trkpt><trkpt lat="43.2011333" lon="11.375375"><ele>271.0</ele><time>2026-04-18T13:00:12.025Z</time></trkpt><trkpt lat="43.2010633" lon="11.3754033"><ele>271.0</ele><time>2026-04-18T13:00:13.025Z</time></trkpt><trkpt lat="43.20099" lon="11.37541"><ele>271.0</ele><time>2026-04-18T13:00:14.026Z</time></trkpt><trkpt lat="43.2009183" lon="11.3753933"><ele>271.0</ele><time>2026-04-18T13:00:15.026Z</time></trkpt><trkpt lat="43.200845" lon="11.3753567"><ele>271.0</ele><time>2026-04-18T13:00:16.025Z</time></trkpt><trkpt lat="43.2007533" lon="11.3753"><ele>271.0</ele><time>2026-04-18T13:00:17.025Z</time></trkpt><trkpt lat="43.2006583" lon="11.3752433"><ele>268.0</ele><time>2026-04-18T13:00:18.025Z</time></trkpt><trkpt lat="43.2005567" lon="11.3751883"><ele>265.0</ele><time>2026-04-18T13:00:19.026Z</time></trkpt><trkpt lat="43.2004567" lon="11.3751217"><ele>262.0</ele><time>2026-04-18T13:00:20.026Z</time></trkpt><trkpt lat="43.2003717" lon="11.3750717"><ele>259.0</ele><time>2026-04-18T13:00:21.025Z</time></trkpt><trkpt lat="43.200285" lon="11.3750233"><ele>256.0</ele><time>2026-04-18T13:00:22.025Z</time></trkpt><trkpt lat="43.2002067" lon="11.375005"><ele>255.99999999999997</ele><time>2026-04-18T13:00:23.026Z</time></trkpt><trkpt lat="43.20013" lon="11.3749917"><ele>256.0</ele><time>2026-04-18T13:00:24.025Z</time></trkpt><trkpt lat="43.2000633" lon="11.3750117"><ele>256.0</ele><time>2026-04-18T13:00:25.026Z</time></trkpt><trkpt lat="43.2000083" lon="11.3750783"><ele>256.0</ele><time>2026-04-18T13:00:26.025Z</time></trkpt><trkpt lat="43.199955" lon="11.3751767"><ele>255.99999999999997</ele><time>2026-04-18T13:00:27.025Z</time></trkpt><trkpt lat="43.1998967" lon="11.3753017"><ele>256.0</ele><time>2026-04-18T13:00:28.025Z</time></trkpt><trkpt lat="43.1998317" lon="11.3754283"><ele>253.60000000000002</ele><time>2026-04-18T13:00:29.026Z</time></trkpt><trkpt lat="43.1997567" lon="11.3755367"><ele>251.20000000000002</ele><time>2026-04-18T13:00:30.026Z</time></trkpt><trkpt lat="43.1996833" lon="11.3756283"><ele>248.79999999999998</ele><time>2026-04-18T13:00:31.025Z</time></trkpt><trkpt lat="43.1996167" lon="11.3757133"><ele>246.39999999999998</ele><time>2026-04-18T13:00:32.025Z</time></trkpt><trkpt lat="43.1995467" lon="11.3757867"><ele>244.0</ele><time>2026-04-18T13:00:33.026Z</time></trkpt><trkpt lat="43.1994783" lon="11.3758683"><ele>244.0</ele><time>2026-04-18T13:00:34.025Z</time></trkpt><trkpt lat="43.1994117" lon="11.3759517"><ele>243.99999999999997</ele><time>2026-04-18T13:00:35.025Z</time></trkpt><trkpt lat="43.19934" lon="11.3760367"><ele>243.99999999999997</ele><time>2026-04-18T13:00:36.025Z</time></trkpt><trkpt lat="43.1992533" lon="11.3761117"><ele>244.0</ele><time>2026-04-18T13:00:37.025Z</time></trkpt><trkpt lat="43.199155" lon="11.3761633"><ele>244.0</ele><time>2026-04-18T13:00:38.025Z</time></trkpt><trkpt lat="43.1990367" lon="11.3762017"><ele>242.0</ele><time>2026-04-18T13:00:39.026Z</time></trkpt><trkpt lat="43.1989033" lon="11.3762267"><ele>240.0</ele><time>2026-04-18T13:00:40.025Z</time></trkpt><trkpt lat="43.1987717" lon="11.3762583"><ele>238.0</ele><time>2026-04-18T13:00:41.026Z</time></trkpt><trkpt lat="43.198635" lon="11.3762933"><ele>236.0</ele><time>2026-04-18T13:00:42.026Z</time></trkpt><trkpt lat="43.198515" lon="11.3763433"><ele>236.0</ele><time>2026-04-18T13:00:43.026Z</time></trkpt><trkpt lat="43.1983967" lon="11.3764067"><ele>236.0</ele><time>2026-04-18T13:00:44.026Z</time></trkpt><trkpt lat="43.1982683" lon="11.37649"><ele>236.0</ele><time>2026-04-18T13:00:45.025Z</time></trkpt><trkpt lat="43.1981517" lon="11.3766133"><ele>236.0</ele><time>2026-04-18T13:00:46.026Z</time></trkpt><trkpt lat="43.1980317" lon="11.3767583"><ele>236.0</ele><time>2026-04-18T13:00:47.026Z</time></trkpt><trkpt lat="43.197915" lon="11.376885"><ele>236.0</ele><time>2026-04-18T13:00:48.025Z</time></trkpt><trkpt lat="43.1977967" lon="11.3769917"><ele>236.0</ele><time>2026-04-18T13:00:49.025Z</time></trkpt><trkpt lat="43.1976767" lon="11.3770817"><ele>236.0</ele><time>2026-04-18T13:00:50.025Z</time></trkpt><trkpt lat="43.19756" lon="11.3771583"><ele>237.0</ele><time>2026-04-18T13:00:51.025Z</time></trkpt><trkpt lat="43.1974433" lon="11.3772333"><ele>238.0</ele><time>2026-04-18T13:00:52.025Z</time></trkpt><trkpt lat="43.1973233" lon="11.3773033"><ele>239.0</ele><time>2026-04-18T13:00:53.025Z</time></trkpt><trkpt lat="43.1972067" lon="11.377385"><ele>240.0</ele><time>2026-04-18T13:00:54.026Z</time></trkpt><trkpt lat="43.1970933" lon="11.3774633"><ele>238.0</ele><time>2026-04-18T13:00:55.026Z</time></trkpt><trkpt lat="43.1969767" lon="11.3775367"><ele>236.0</ele><time>2026-04-18T13:00:56.025Z</time></trkpt><trkpt lat="43.196865" lon="11.377605"><ele>234.0</ele><time>2026-04-18T13:00:57.025Z</time></trkpt><trkpt lat="43.1967467" lon="11.3776817"><ele>232.0</ele><time>2026-04-18T13:00:58.026Z</time></trkpt><trkpt lat="43.1966367" lon="11.3777633"><ele>232.0</ele><time>2026-04-18T13:00:59.026Z</time></trkpt><trkpt lat="43.1965233" lon="11.3778433"><ele>232.0</ele><time>2026-04-18T13:01:00.025Z</time></trkpt><trkpt lat="43.1964167" lon="11.3779333"><ele>232.0</ele><time>2026-04-18T13:01:01.025Z</time></trkpt><trkpt lat="43.1963" lon="11.3780133"><ele>232.0</ele><time>2026-04-18T13:01:02.025Z</time></trkpt><trkpt lat="43.1961883" lon="11.378085"><ele>232.5</ele><time>2026-04-18T13:01:03.025Z</time></trkpt><trkpt lat="43.1960733" lon="11.378155"><ele>233.0</ele><time>2026-04-18T13:01:04.025Z</time></trkpt><trkpt lat="43.195955" lon="11.3782283"><ele>233.5</ele><time>2026-04-18T13:01:05.026Z</time></trkpt><trkpt lat="43.1958367" lon="11.3783033"><ele>234.0</ele><time>2026-04-18T13:01:06.026Z</time></trkpt><trkpt lat="43.1957167" lon="11.3783683"><ele>233.0</ele><time>2026-04-18T13:01:07.025Z</time></trkpt><trkpt lat="43.1955883" lon="11.3784217"><ele>232.0</ele><time>2026-04-18T13:01:08.025Z</time></trkpt><trkpt lat="43.195465" lon="11.378475"><ele>231.0</ele><time>2026-04-18T13:01:09.025Z</time></trkpt><trkpt lat="43.1953417" lon="11.3785367"><ele>230.0</ele><time>2026-04-18T13:01:10.025Z</time></trkpt><trkpt lat="43.1952233" lon="11.3786233"><ele>230.0</ele><time>2026-04-18T13:01:11.025Z</time></trkpt><trkpt lat="43.1951133" lon="11.3787417"><ele>230.0</ele><time>2026-04-18T13:01:12.025Z</time></trkpt><trkpt lat="43.1950067" lon="11.37888"><ele>230.0</ele><time>2026-04-18T13:01:13.025Z</time></trkpt><trkpt lat="43.1949133" lon="11.379035"><ele>230.0</ele><time>2026-04-18T13:01:14.025Z</time></trkpt><trkpt lat="43.1948267" lon="11.37917"><ele>229.25</ele><time>2026-04-18T13:01:15.025Z</time></trkpt><trkpt lat="43.1947617" lon="11.3793383"><ele>228.5</ele><time>2026-04-18T13:01:16.025Z</time></trkpt><trkpt lat="43.194695" lon="11.3794917"><ele>227.75</ele><time>2026-04-18T13:01:17.026Z</time></trkpt><trkpt lat="43.1946383" lon="11.3796783"><ele>227.0</ele><time>2026-04-18T13:01:18.025Z</time></trkpt><trkpt lat="43.1945917" lon="11.3798983"><ele>227.0</ele><time>2026-04-18T13:01:19.026Z</time></trkpt><trkpt lat="43.194555" lon="11.380155"><ele>227.0</ele><time>2026-04-18T13:01:20.026Z</time></trkpt><trkpt lat="43.1945317" lon="11.380405"><ele>227.0</ele><time>2026-04-18T13:01:21.025Z</time></trkpt><trkpt lat="43.1945083" lon="11.3806333"><ele>227.33333333333334</ele><time>2026-04-18T13:01:22.025Z</time></trkpt><trkpt lat="43.1944683" lon="11.3808433"><ele>227.66666666666669</ele><time>2026-04-18T13:01:23.025Z</time></trkpt><trkpt lat="43.1944217" lon="11.3810767"><ele>228.0</ele><time>2026-04-18T13:01:24.026Z</time></trkpt><trkpt lat="43.1943483" lon="11.381315"><ele>228.0</ele><time>2026-04-18T13:01:25.025Z</time></trkpt><trkpt lat="43.194265" lon="11.3815867"><ele>228.0</ele><time>2026-04-18T13:01:26.026Z</time></trkpt><trkpt lat="43.1941767" lon="11.3818717"><ele>228.0</ele><time>2026-04-18T13:01:27.026Z</time></trkpt><trkpt lat="43.194085" lon="11.382125"><ele>225.66666666666669</ele><time>2026-04-18T13:01:28.026Z</time></trkpt><trkpt lat="43.194" lon="11.38236"><ele>223.33333333333334</ele><time>2026-04-18T13:01:29.026Z</time></trkpt><trkpt lat="43.1939283" lon="11.3825667"><ele>221.0</ele><time>2026-04-18T13:01:30.026Z</time></trkpt><trkpt lat="43.19386" lon="11.3827633"><ele>221.0</ele><time>2026-04-18T13:01:31.025Z</time></trkpt><trkpt lat="43.193795" lon="11.3829483"><ele>221.0</ele><time>2026-04-18T13:01:32.026Z</time></trkpt><trkpt lat="43.19372" lon="11.3831167"><ele>221.0</ele><time>2026-04-18T13:01:33.025Z</time></trkpt><trkpt lat="43.193635" lon="11.3832533"><ele>221.0</ele><time>2026-04-18T13:01:34.025Z</time></trkpt><trkpt lat="43.1935417" lon="11.3833817"><ele>221.0</ele><time>2026-04-18T13:01:35.026Z</time></trkpt><trkpt lat="43.1934233" lon="11.38349"><ele>221.0</ele><time>2026-04-18T13:01:36.026Z</time></trkpt><trkpt lat="43.1932683" lon="11.3835817"><ele>221.0</ele><time>2026-04-18T13:01:37.025Z</time></trkpt><trkpt lat="43.1930867" lon="11.38367"><ele>221.0</ele><time>2026-04-18T13:01:38.025Z</time></trkpt><trkpt lat="43.192905" lon="11.3837483"><ele>221.0</ele><time>2026-04-18T13:01:39.025Z</time></trkpt><trkpt lat="43.19274" lon="11.3838283"><ele>221.0</ele><time>2026-04-18T13:01:40.025Z</time></trkpt><trkpt lat="43.1925917" lon="11.3838983"><ele>221.75</ele><time>2026-04-18T13:01:41.025Z</time></trkpt><trkpt lat="43.1924433" lon="11.38394"><ele>222.5</ele><time>2026-04-18T13:01:42.025Z</time></trkpt><trkpt lat="43.1922967" lon="11.3839633"><ele>223.25</ele><time>2026-04-18T13:01:43.025Z</time></trkpt><trkpt lat="43.1921617" lon="11.38396"><ele>224.0</ele><time>2026-04-18T13:01:44.025Z</time></trkpt><trkpt lat="43.1920333" lon="11.3839517"><ele>224.25</ele><time>2026-04-18T13:01:45.025Z</time></trkpt><trkpt lat="43.1919117" lon="11.3839483"><ele>224.5</ele><time>2026-04-18T13:01:46.025Z</time></trkpt><trkpt lat="43.1917983" lon="11.3839817"><ele>224.75</ele><time>2026-04-18T13:01:47.026Z</time></trkpt><trkpt lat="43.1916933" lon="11.3840617"><ele>225.0</ele><time>2026-04-18T13:01:48.026Z</time></trkpt><trkpt lat="43.1915833" lon="11.3841833"><ele>226.0</ele><time>2026-04-18T13:01:49.026Z</time></trkpt><trkpt lat="43.1914667" lon="11.3843533"><ele>227.0</ele><time>2026-04-18T13:01:50.025Z</time></trkpt><trkpt lat="43.1913433" lon="11.3845267"><ele>228.0</ele><time>2026-04-18T13:01:51.025Z</time></trkpt><trkpt lat="43.1912283" lon="11.3846917"><ele>228.0</ele><time>2026-04-18T13:01:52.025Z</time></trkpt><trkpt lat="43.1911233" lon="11.38484"><ele>228.0</ele><time>2026-04-18T13:01:53.026Z</time></trkpt><trkpt lat="43.1910067" lon="11.3849683"><ele>228.0</ele><time>2026-04-18T13:01:54.026Z</time></trkpt><trkpt lat="43.1908833" lon="11.3850917"><ele>228.0</ele><time>2026-04-18T13:01:55.026Z</time></trkpt><trkpt lat="43.1907583" lon="11.3852"><ele>228.0</ele><time>2026-04-18T13:01:56.026Z</time></trkpt><trkpt lat="43.1906283" lon="11.3852917"><ele>228.0</ele><time>2026-04-18T13:01:57.026Z</time></trkpt><trkpt lat="43.1904967" lon="11.38539"><ele>228.0</ele><time>2026-04-18T13:01:58.026Z</time></trkpt><trkpt lat="43.190355" lon="11.3854733"><ele>226.0</ele><time>2026-04-18T13:01:59.026Z</time></trkpt><trkpt lat="43.1902033" lon="11.3855367"><ele>224.0</ele><time>2026-04-18T13:02:00.025Z</time></trkpt><trkpt lat="43.1900417" lon="11.3855883"><ele>222.0</ele><time>2026-04-18T13:02:01.025Z</time></trkpt><trkpt lat="43.18986" lon="11.3856367"><ele>221.0</ele><time>2026-04-18T13:02:02.025Z</time></trkpt><trkpt lat="43.1896833" lon="11.38568"><ele>220.0</ele><time>2026-04-18T13:02:03.025Z</time></trkpt><trkpt lat="43.1894967" lon="11.38574"><ele>219.0</ele><time>2026-04-18T13:02:04.025Z</time></trkpt><trkpt lat="43.1893183" lon="11.3857867"><ele>219.0</ele><time>2026-04-18T13:02:05.025Z</time></trkpt><trkpt lat="43.18914" lon="11.3858467"><ele>219.0</ele><time>2026-04-18T13:02:06.026Z</time></trkpt><trkpt lat="43.1889733" lon="11.3858983"><ele>219.0</ele><time>2026-04-18T13:02:07.025Z</time></trkpt><trkpt lat="43.188825" lon="11.38594"><ele>220.75</ele><time>2026-04-18T13:02:08.026Z</time></trkpt><trkpt lat="43.1887017" lon="11.385945"><ele>222.5</ele><time>2026-04-18T13:02:09.025Z</time></trkpt><trkpt lat="43.1885783" lon="11.3859167"><ele>224.25</ele><time>2026-04-18T13:02:10.026Z</time></trkpt><trkpt lat="43.1884517" lon="11.3858517"><ele>226.0</ele><time>2026-04-18T13:02:11.025Z</time></trkpt><trkpt lat="43.1883283" lon="11.385775"><ele>226.0</ele><time>2026-04-18T13:02:12.025Z</time></trkpt><trkpt lat="43.188205" lon="11.385685"><ele>226.0</ele><time>2026-04-18T13:02:13.025Z</time></trkpt><trkpt lat="43.1880683" lon="11.38557"><ele>226.0</ele><time>2026-04-18T13:02:14.025Z</time></trkpt><trkpt lat="43.1879283" lon="11.38548"><ele>229.5</ele><time>2026-04-18T13:02:15.025Z</time></trkpt><trkpt lat="43.1877817" lon="11.385405"><ele>233.0</ele><time>2026-04-18T13:02:16.025Z</time></trkpt><trkpt lat="43.1876383" lon="11.3853383"><ele>236.5</ele><time>2026-04-18T13:02:17.025Z</time></trkpt><trkpt lat="43.1875117" lon="11.3852833"><ele>240.0</ele><time>2026-04-18T13:02:18.025Z</time></trkpt><trkpt lat="43.1873917" lon="11.3852333"><ele>242.0</ele><time>2026-04-18T13:02:19.025Z</time></trkpt><trkpt lat="43.187265" lon="11.3852233"><ele>244.0</ele><time>2026-04-18T13:02:20.025Z</time></trkpt><trkpt lat="43.1871233" lon="11.38524"><ele>246.0</ele><time>2026-04-18T13:02:21.025Z</time></trkpt><trkpt lat="43.1869517" lon="11.385275"><ele>248.0</ele><time>2026-04-18T13:02:22.025Z</time></trkpt><trkpt lat="43.1867617" lon="11.3853167"><ele>248.0</ele><time>2026-04-18T13:02:23.025Z</time></trkpt><trkpt lat="43.1865617" lon="11.3853717"><ele>248.0</ele><time>2026-04-18T13:02:24.024Z</time></trkpt><trkpt lat="43.1863583" lon="11.3854083"><ele>248.0</ele><time>2026-04-18T13:02:25.024Z</time></trkpt><trkpt lat="43.1861617" lon="11.3854183"><ele>250.66666666666669</ele><time>2026-04-18T13:02:26.025Z</time></trkpt><trkpt lat="43.1859867" lon="11.3854183"><ele>253.33333333333331</ele><time>2026-04-18T13:02:27.025Z</time></trkpt><trkpt lat="43.1858367" lon="11.38542"><ele>256.0</ele><time>2026-04-18T13:02:28.025Z</time></trkpt><trkpt lat="43.185705" lon="11.38542"><ele>258.75</ele><time>2026-04-18T13:02:29.024Z</time></trkpt><trkpt lat="43.1855783" lon="11.3854067"><ele>261.5</ele><time>2026-04-18T13:02:30.024Z</time></trkpt><trkpt lat="43.1854583" lon="11.3853783"><ele>264.25</ele><time>2026-04-18T13:02:31.025Z</time></trkpt><trkpt lat="43.1853533" lon="11.38532"><ele>267.0</ele><time>2026-04-18T13:02:32.024Z</time></trkpt><trkpt lat="43.1852467" lon="11.3852183"><ele>267.0</ele><time>2026-04-18T13:02:33.024Z</time></trkpt><trkpt lat="43.1851483" lon="11.3850917"><ele>267.0</ele><time>2026-04-18T13:02:34.024Z</time></trkpt><trkpt lat="43.1850483" lon="11.3849417"><ele>267.0</ele><time>2026-04-18T13:02:35.024Z</time></trkpt><trkpt lat="43.1849567" lon="11.384795"><ele>267.0</ele><time>2026-04-18T13:02:36.025Z</time></trkpt><trkpt lat="43.18486" lon="11.3846617"><ele>269.0</ele><time>2026-04-18T13:02:37.024Z</time></trkpt><trkpt lat="43.184765" lon="11.3845333"><ele>271.0</ele><time>2026-04-18T13:02:38.024Z</time></trkpt><trkpt lat="43.1846617" lon="11.3844117"><ele>273.0</ele><time>2026-04-18T13:02:39.024Z</time></trkpt><trkpt lat="43.1845517" lon="11.3842933"><ele>275.0</ele><time>2026-04-18T13:02:40.024Z</time></trkpt><trkpt lat="43.1844433" lon="11.38418"><ele>275.0</ele><time>2026-04-18T13:02:41.025Z</time></trkpt><trkpt lat="43.18433" lon="11.3840733"><ele>275.0</ele><time>2026-04-18T13:02:42.025Z</time></trkpt><trkpt lat="43.1842133" lon="11.3839867"><ele>275.0</ele><time>2026-04-18T13:02:43.024Z</time></trkpt><trkpt lat="43.1840933" lon="11.3839167"><ele>275.0</ele><time>2026-04-18T13:02:44.024Z</time></trkpt><trkpt lat="43.1839717" lon="11.3838617"><ele>274.75</ele><time>2026-04-18T13:02:45.024Z</time></trkpt><trkpt lat="43.183855" lon="11.3838167"><ele>274.5</ele><time>2026-04-18T13:02:46.024Z</time></trkpt><trkpt lat="43.1837408" lon="11.3837726"><ele>274.25</ele><time>2026-04-18T13:02:47.025Z</time></trkpt><trkpt lat="43.1836278" lon="11.3837291"><ele>274.0</ele><time>2026-04-18T13:02:48.025Z</time></trkpt><trkpt lat="43.1835151" lon="11.3836836"><ele>274.0</ele><time>2026-04-18T13:02:49.024Z</time></trkpt><trkpt lat="43.1834045" lon="11.3836419"><ele>274.0</ele><time>2026-04-18T13:02:50.024Z</time></trkpt><trkpt lat="43.1832969" lon="11.3836034"><ele>274.0</ele><time>2026-04-18T13:02:51.025Z</time></trkpt><trkpt lat="43.1831898" lon="11.383557"><ele>274.0</ele><time>2026-04-18T13:02:52.024Z</time></trkpt><trkpt lat="43.1830804" lon="11.3835129"><ele>273.25</ele><time>2026-04-18T13:02:53.024Z</time></trkpt><trkpt lat="43.182972" lon="11.383454"><ele>272.5</ele><time>2026-04-18T13:02:54.024Z</time></trkpt><trkpt lat="43.1828636" lon="11.3834034"><ele>271.75</ele><time>2026-04-18T13:02:55.024Z</time></trkpt><trkpt lat="43.182755" lon="11.3833541"><ele>271.0</ele><time>2026-04-18T13:02:56.025Z</time></trkpt><trkpt lat="43.1826451" lon="11.3833025"><ele>271.0</ele><time>2026-04-18T13:02:57.024Z</time></trkpt><trkpt lat="43.1825347" lon="11.3832509"><ele>271.0</ele><time>2026-04-18T13:02:58.024Z</time></trkpt><trkpt lat="43.1824229" lon="11.3831985"><ele>271.0</ele><time>2026-04-18T13:02:59.025Z</time></trkpt><trkpt lat="43.1823147" lon="11.3831501"><ele>271.0</ele><time>2026-04-18T13:03:00.024Z</time></trkpt><trkpt lat="43.1822015" lon="11.3831099"><ele>270.6</ele><time>2026-04-18T13:03:01.025Z</time></trkpt><trkpt lat="43.1820887" lon="11.3830827"><ele>270.20000000000005</ele><time>2026-04-18T13:03:02.025Z</time></trkpt><trkpt lat="43.1819813" lon="11.3830584"><ele>269.79999999999995</ele><time>2026-04-18T13:03:03.025Z</time></trkpt><trkpt lat="43.1818792" lon="11.3830392"><ele>269.4</ele><time>2026-04-18T13:03:04.025Z</time></trkpt><trkpt lat="43.1817798" lon="11.3830157"><ele>269.0</ele><time>2026-04-18T13:03:05.024Z</time></trkpt><trkpt lat="43.1816862" lon="11.3829933"><ele>268.5</ele><time>2026-04-18T13:03:06.025Z</time></trkpt><trkpt lat="43.181603" lon="11.3829732"><ele>268.0</ele><time>2026-04-18T13:03:07.024Z</time></trkpt><trkpt lat="43.181533" lon="11.3829565"><ele>267.5</ele><time>2026-04-18T13:03:08.025Z</time></trkpt><trkpt lat="43.1814436" lon="11.3829452"><ele>267.0</ele><time>2026-04-18T13:03:10.024Z</time></trkpt><trkpt lat="43.18135" lon="11.382925"><ele>266.5</ele><time>2026-04-18T13:03:16.024Z</time></trkpt><trkpt lat="43.181265" lon="11.382895"><ele>266.0</ele><time>2026-04-18T13:03:18.024Z</time></trkpt><trkpt lat="43.1811983" lon="11.382865"><ele>266.0</ele><time>2026-04-18T13:03:20.024Z</time></trkpt><trkpt lat="43.1810933" lon="11.382815"><ele>266.0</ele><time>2026-04-18T13:03:53.024Z</time></trkpt><trkpt lat="43.1810333" lon="11.3827783"><ele>266.0</ele><time>2026-04-18T13:03:56.024Z</time></trkpt><trkpt lat="43.1809683" lon="11.3827217"><ele>266.0</ele><time>2026-04-18T13:03:59.024Z</time></trkpt><trkpt lat="43.1810267" lon="11.3828167"><ele>266.0</ele><time>2026-04-18T13:07:50.024Z</time></trkpt><trkpt lat="43.18115" lon="11.3828617"><ele>266.0</ele><time>2026-04-18T13:07:52.023Z</time></trkpt><trkpt lat="43.181215" lon="11.382895"><ele>266.0</ele><time>2026-04-18T13:07:53.024Z</time></trkpt><trkpt lat="43.1812767" lon="11.3829217"><ele>266.0</ele><time>2026-04-18T13:07:54.023Z</time></trkpt><trkpt lat="43.18134" lon="11.3829433"><ele>266.0</ele><time>2026-04-18T13:07:55.023Z</time></trkpt><trkpt lat="43.1814083" lon="11.3829633"><ele>266.0</ele><time>2026-04-18T13:07:56.024Z</time></trkpt><trkpt lat="43.1814783" lon="11.3829783"><ele>266.0</ele><time>2026-04-18T13:07:57.024Z</time></trkpt><trkpt lat="43.1815533" lon="11.3829917"><ele>266.0</ele><time>2026-04-18T13:07:58.023Z</time></trkpt><trkpt lat="43.1816317" lon="11.3830083"><ele>266.75</ele><time>2026-04-18T13:07:59.024Z</time></trkpt><trkpt lat="43.181705" lon="11.383025"><ele>267.5</ele><time>2026-04-18T13:08:00.023Z</time></trkpt><trkpt lat="43.181785" lon="11.3830583"><ele>268.25</ele><time>2026-04-18T13:08:01.024Z</time></trkpt><trkpt lat="43.18197" lon="11.383105"><ele>269.0</ele><time>2026-04-18T13:08:03.024Z</time></trkpt><trkpt lat="43.1820783" lon="11.383125"><ele>269.0</ele><time>2026-04-18T13:08:04.023Z</time></trkpt><trkpt lat="43.1821867" lon="11.3831483"><ele>269.0</ele><time>2026-04-18T13:08:05.023Z</time></trkpt><trkpt lat="43.1822917" lon="11.38318"><ele>269.0</ele><time>2026-04-18T13:08:06.023Z</time></trkpt><trkpt lat="43.1823917" lon="11.3832133"><ele>269.0</ele><time>2026-04-18T13:08:07.023Z</time></trkpt><trkpt lat="43.182475" lon="11.3832367"><ele>269.0</ele><time>2026-04-18T13:08:08.024Z</time></trkpt><trkpt lat="43.18258" lon="11.3832833"><ele>269.0</ele><time>2026-04-18T13:08:10.023Z</time></trkpt><trkpt lat="43.1826417" lon="11.3833117"><ele>269.0</ele><time>2026-04-18T13:08:12.024Z</time></trkpt><trkpt lat="43.1825517" lon="11.3832433"><ele>269.0</ele><time>2026-04-18T13:08:42.023Z</time></trkpt><trkpt lat="43.18248" lon="11.3832183"><ele>269.0</ele><time>2026-04-18T13:08:43.023Z</time></trkpt><trkpt lat="43.1823917" lon="11.3831817"><ele>269.0</ele><time>2026-04-18T13:08:44.023Z</time></trkpt><trkpt lat="43.1822867" lon="11.3831467"><ele>269.0</ele><time>2026-04-18T13:08:45.023Z</time></trkpt><trkpt lat="43.18215" lon="11.3831133"><ele>269.0</ele><time>2026-04-18T13:08:46.023Z</time></trkpt><trkpt lat="43.18197" lon="11.3830733"><ele>269.0</ele><time>2026-04-18T13:08:47.023Z</time></trkpt><trkpt lat="43.1817933" lon="11.3830367"><ele>269.0</ele><time>2026-04-18T13:08:48.022Z</time></trkpt><trkpt lat="43.1816383" lon="11.382995"><ele>268.4</ele><time>2026-04-18T13:08:49.022Z</time></trkpt><trkpt lat="43.1815167" lon="11.3829633"><ele>267.79999999999995</ele><time>2026-04-18T13:08:50.022Z</time></trkpt><trkpt lat="43.1814133" lon="11.3829383"><ele>267.20000000000005</ele><time>2026-04-18T13:08:51.023Z</time></trkpt><trkpt lat="43.1813183" lon="11.3829033"><ele>266.6</ele><time>2026-04-18T13:08:52.023Z</time></trkpt><trkpt lat="43.1812283" lon="11.3828717"><ele>266.0</ele><time>2026-04-18T13:08:53.023Z</time></trkpt><trkpt lat="43.1811517" lon="11.3828333"><ele>266.0</ele><time>2026-04-18T13:08:54.023Z</time></trkpt><trkpt lat="43.1810833" lon="11.3827967"><ele>266.0</ele><time>2026-04-18T13:08:55.023Z</time></trkpt><trkpt lat="43.1810133" lon="11.3827517"><ele>266.0</ele><time>2026-04-18T13:08:57.023Z</time></trkpt><trkpt lat="43.1809383" lon="11.3827"><ele>266.0</ele><time>2026-04-18T13:09:17.022Z</time></trkpt><trkpt lat="43.1808667" lon="11.3826617"><ele>266.0</ele><time>2026-04-18T13:09:20.022Z</time></trkpt><trkpt lat="43.1807917" lon="11.3826883"><ele>266.0</ele><time>2026-04-18T13:09:22.022Z</time></trkpt><trkpt lat="43.1806783" lon="11.3828033"><ele>266.0</ele><time>2026-04-18T13:09:24.022Z</time></trkpt><trkpt lat="43.1805917" lon="11.3828867"><ele>266.0</ele><time>2026-04-18T13:09:25.022Z</time></trkpt><trkpt lat="43.1804967" lon="11.3829833"><ele>266.0</ele><time>2026-04-18T13:09:26.022Z</time></trkpt><trkpt lat="43.1803883" lon="11.3830867"><ele>266.0</ele><time>2026-04-18T13:09:27.023Z</time></trkpt><trkpt lat="43.1802683" lon="11.3831967"><ele>266.0</ele><time>2026-04-18T13:09:28.023Z</time></trkpt><trkpt lat="43.1801333" lon="11.3833017"><ele>266.0</ele><time>2026-04-18T13:09:29.023Z</time></trkpt><trkpt lat="43.179985" lon="11.3834017"><ele>266.0</ele><time>2026-04-18T13:09:30.022Z</time></trkpt><trkpt lat="43.1798217" lon="11.3834967"><ele>265.0</ele><time>2026-04-18T13:09:31.023Z</time></trkpt><trkpt lat="43.1796433" lon="11.3835917"><ele>264.0</ele><time>2026-04-18T13:09:32.022Z</time></trkpt><trkpt lat="43.17947" lon="11.3836783"><ele>263.0</ele><time>2026-04-18T13:09:33.022Z</time></trkpt><trkpt lat="43.1792983" lon="11.3837567"><ele>263.0</ele><time>2026-04-18T13:09:34.022Z</time></trkpt><trkpt lat="43.1791317" lon="11.38384"><ele>263.0</ele><time>2026-04-18T13:09:35.022Z</time></trkpt><trkpt lat="43.1789717" lon="11.38393"><ele>263.0</ele><time>2026-04-18T13:09:36.022Z</time></trkpt><trkpt lat="43.1788167" lon="11.3840383"><ele>265.0</ele><time>2026-04-18T13:09:37.022Z</time></trkpt><trkpt lat="43.17867" lon="11.38418"><ele>267.0</ele><time>2026-04-18T13:09:38.023Z</time></trkpt><trkpt lat="43.17854" lon="11.3843333"><ele>269.0</ele><time>2026-04-18T13:09:39.022Z</time></trkpt><trkpt lat="43.1784133" lon="11.3844983"><ele>269.0</ele><time>2026-04-18T13:09:40.022Z</time></trkpt><trkpt lat="43.1782883" lon="11.384655"><ele>269.0</ele><time>2026-04-18T13:09:41.022Z</time></trkpt><trkpt lat="43.1781683" lon="11.384815"><ele>269.0</ele><time>2026-04-18T13:09:42.023Z</time></trkpt><trkpt lat="43.1780317" lon="11.3849483"><ele>269.0</ele><time>2026-04-18T13:09:43.022Z</time></trkpt><trkpt lat="43.1778883" lon="11.3850683"><ele>269.0</ele><time>2026-04-18T13:09:44.023Z</time></trkpt><trkpt lat="43.177745" lon="11.3851783"><ele>269.0</ele><time>2026-04-18T13:09:45.022Z</time></trkpt><trkpt lat="43.1776" lon="11.3852917"><ele>269.0</ele><time>2026-04-18T13:09:46.022Z</time></trkpt><trkpt lat="43.1774683" lon="11.3854167"><ele>269.0</ele><time>2026-04-18T13:09:47.023Z</time></trkpt><trkpt lat="43.177355" lon="11.38558"><ele>269.0</ele><time>2026-04-18T13:09:48.022Z</time></trkpt><trkpt lat="43.17725" lon="11.3857583"><ele>270.0</ele><time>2026-04-18T13:09:49.023Z</time></trkpt><trkpt lat="43.1771567" lon="11.3859583"><ele>271.0</ele><time>2026-04-18T13:09:50.022Z</time></trkpt><trkpt lat="43.177075" lon="11.3861617"><ele>272.0</ele><time>2026-04-18T13:09:51.022Z</time></trkpt><trkpt lat="43.1769867" lon="11.38637"><ele>272.0</ele><time>2026-04-18T13:09:52.022Z</time></trkpt><trkpt lat="43.1768983" lon="11.38658"><ele>272.0</ele><time>2026-04-18T13:09:53.022Z</time></trkpt><trkpt lat="43.1768133" lon="11.38679"><ele>272.0</ele><time>2026-04-18T13:09:54.022Z</time></trkpt><trkpt lat="43.176725" lon="11.3870067"><ele>271.33333333333337</ele><time>2026-04-18T13:09:55.023Z</time></trkpt><trkpt lat="43.1766367" lon="11.387225"><ele>270.6666666666667</ele><time>2026-04-18T13:09:56.022Z</time></trkpt><trkpt lat="43.1765483" lon="11.38743"><ele>270.0</ele><time>2026-04-18T13:09:57.022Z</time></trkpt><trkpt lat="43.176455" lon="11.3876233"><ele>271.3333333333333</ele><time>2026-04-18T13:09:58.022Z</time></trkpt><trkpt lat="43.1763517" lon="11.3878083"><ele>272.66666666666663</ele><time>2026-04-18T13:09:59.023Z</time></trkpt><trkpt lat="43.17623" lon="11.3879767"><ele>274.0</ele><time>2026-04-18T13:10:00.022Z</time></trkpt><trkpt lat="43.1760867" lon="11.388125"><ele>274.0</ele><time>2026-04-18T13:10:01.023Z</time></trkpt><trkpt lat="43.1759367" lon="11.3882567"><ele>274.0</ele><time>2026-04-18T13:10:02.023Z</time></trkpt><trkpt lat="43.1757817" lon="11.38837"><ele>274.0</ele><time>2026-04-18T13:10:03.022Z</time></trkpt><trkpt lat="43.1756267" lon="11.3884583"><ele>273.66666666666663</ele><time>2026-04-18T13:10:04.023Z</time></trkpt><trkpt lat="43.1754567" lon="11.38852"><ele>273.3333333333333</ele><time>2026-04-18T13:10:05.022Z</time></trkpt><trkpt lat="43.1752883" lon="11.3885833"><ele>273.0</ele><time>2026-04-18T13:10:06.023Z</time></trkpt><trkpt lat="43.1751317" lon="11.3886517"><ele>273.0</ele><time>2026-04-18T13:10:07.023Z</time></trkpt><trkpt lat="43.1749767" lon="11.3887183"><ele>273.0</ele><time>2026-04-18T13:10:08.023Z</time></trkpt><trkpt lat="43.1748267" lon="11.3887833"><ele>273.0</ele><time>2026-04-18T13:10:09.022Z</time></trkpt><trkpt lat="43.17468" lon="11.3888417"><ele>274.5</ele><time>2026-04-18T13:10:10.023Z</time></trkpt><trkpt lat="43.174535" lon="11.3889"><ele>276.0</ele><time>2026-04-18T13:10:11.022Z</time></trkpt><trkpt lat="43.1743967" lon="11.3889633"><ele>277.5</ele><time>2026-04-18T13:10:12.022Z</time></trkpt><trkpt lat="43.17426" lon="11.389025"><ele>279.0</ele><time>2026-04-18T13:10:13.022Z</time></trkpt><trkpt lat="43.1741283" lon="11.3890983"><ele>282.0</ele><time>2026-04-18T13:10:14.023Z</time></trkpt><trkpt lat="43.1739983" lon="11.3891883"><ele>285.0</ele><time>2026-04-18T13:10:15.022Z</time></trkpt><trkpt lat="43.17388" lon="11.3892983"><ele>288.0</ele><time>2026-04-18T13:10:16.022Z</time></trkpt><trkpt lat="43.173775" lon="11.3894317"><ele>291.0</ele><time>2026-04-18T13:10:17.022Z</time></trkpt><trkpt lat="43.1736783" lon="11.38958"><ele>289.75</ele><time>2026-04-18T13:10:18.022Z</time></trkpt><trkpt lat="43.1735817" lon="11.3897267"><ele>288.5</ele><time>2026-04-18T13:10:19.022Z</time></trkpt><trkpt lat="43.1734833" lon="11.3898733"><ele>287.25</ele><time>2026-04-18T13:10:20.022Z</time></trkpt><trkpt lat="43.1733867" lon="11.3900283"><ele>286.0</ele><time>2026-04-18T13:10:21.022Z</time></trkpt><trkpt lat="43.17329" lon="11.3901817"><ele>286.0</ele><time>2026-04-18T13:10:22.022Z</time></trkpt><trkpt lat="43.1732067" lon="11.3903233"><ele>286.0</ele><time>2026-04-18T13:10:23.022Z</time></trkpt><trkpt lat="43.173115" lon="11.3904467"><ele>286.0</ele><time>2026-04-18T13:10:24.022Z</time></trkpt><trkpt lat="43.17301" lon="11.3905633"><ele>286.0</ele><time>2026-04-18T13:10:25.022Z</time></trkpt><trkpt lat="43.1728967" lon="11.3906683"><ele>289.0</ele><time>2026-04-18T13:10:26.023Z</time></trkpt><trkpt lat="43.1727733" lon="11.3907433"><ele>292.0</ele><time>2026-04-18T13:10:27.022Z</time></trkpt><trkpt lat="43.1726333" lon="11.3908133"><ele>295.0</ele><time>2026-04-18T13:10:28.023Z</time></trkpt><trkpt lat="43.1725017" lon="11.3908767"><ele>298.0</ele><time>2026-04-18T13:10:29.022Z</time></trkpt><trkpt lat="43.1723683" lon="11.390945"><ele>299.75</ele><time>2026-04-18T13:10:30.022Z</time></trkpt><trkpt lat="43.172235" lon="11.3910067"><ele>301.5</ele><time>2026-04-18T13:10:31.022Z</time></trkpt><trkpt lat="43.17211" lon="11.391065"><ele>303.25</ele><time>2026-04-18T13:10:32.022Z</time></trkpt><trkpt lat="43.1719917" lon="11.39112"><ele>305.0</ele><time>2026-04-18T13:10:33.023Z</time></trkpt><trkpt lat="43.171875" lon="11.3911717"><ele>305.0</ele><time>2026-04-18T13:10:34.022Z</time></trkpt><trkpt lat="43.171745" lon="11.391215"><ele>305.0</ele><time>2026-04-18T13:10:35.022Z</time></trkpt><trkpt lat="43.17163" lon="11.39126"><ele>305.0</ele><time>2026-04-18T13:10:36.022Z</time></trkpt><trkpt lat="43.17152" lon="11.391285"><ele>305.0</ele><time>2026-04-18T13:10:37.023Z</time></trkpt><trkpt lat="43.171405" lon="11.391285"><ele>304.25</ele><time>2026-04-18T13:10:38.022Z</time></trkpt><trkpt lat="43.17128" lon="11.3912817"><ele>303.5</ele><time>2026-04-18T13:10:39.022Z</time></trkpt><trkpt lat="43.1711567" lon="11.3912317"><ele>302.75</ele><time>2026-04-18T13:10:40.022Z</time></trkpt><trkpt lat="43.1710433" lon="11.3911833"><ele>302.0</ele><time>2026-04-18T13:10:41.023Z</time></trkpt><trkpt lat="43.1709267" lon="11.3911133"><ele>302.0</ele><time>2026-04-18T13:10:42.022Z</time></trkpt><trkpt lat="43.1708" lon="11.3910533"><ele>302.0</ele><time>2026-04-18T13:10:43.023Z</time></trkpt><trkpt lat="43.17068" lon="11.390985"><ele>302.0</ele><time>2026-04-18T13:10:44.023Z</time></trkpt><trkpt lat="43.17057" lon="11.3909167"><ele>302.0</ele><time>2026-04-18T13:10:45.022Z</time></trkpt><trkpt lat="43.1704667" lon="11.39084"><ele>302.0</ele><time>2026-04-18T13:10:46.022Z</time></trkpt><trkpt lat="43.170355" lon="11.3907717"><ele>302.0</ele><time>2026-04-18T13:10:47.022Z</time></trkpt><trkpt lat="43.1702467" lon="11.3907017"><ele>302.0</ele><time>2026-04-18T13:10:48.022Z</time></trkpt><trkpt lat="43.1701317" lon="11.39061"><ele>302.0</ele><time>2026-04-18T13:10:49.022Z</time></trkpt><trkpt lat="43.17002" lon="11.390515"><ele>301.75</ele><time>2026-04-18T13:10:50.022Z</time></trkpt><trkpt lat="43.1699017" lon="11.3904217"><ele>301.5</ele><time>2026-04-18T13:10:51.022Z</time></trkpt><trkpt lat="43.169795" lon="11.3903367"><ele>301.25</ele><time>2026-04-18T13:10:52.023Z</time></trkpt><trkpt lat="43.1696833" lon="11.39025"><ele>301.0</ele><time>2026-04-18T13:10:53.022Z</time></trkpt><trkpt lat="43.1695633" lon="11.3901783"><ele>298.25</ele><time>2026-04-18T13:10:54.022Z</time></trkpt><trkpt lat="43.169435" lon="11.3901167"><ele>295.5</ele><time>2026-04-18T13:10:55.023Z</time></trkpt><trkpt lat="43.1693117" lon="11.3900683"><ele>292.75</ele><time>2026-04-18T13:10:56.023Z</time></trkpt><trkpt lat="43.1691817" lon="11.390035"><ele>290.0</ele><time>2026-04-18T13:10:57.022Z</time></trkpt><trkpt lat="43.1690483" lon="11.3900067"><ele>287.25</ele><time>2026-04-18T13:10:58.022Z</time></trkpt><trkpt lat="43.16891" lon="11.3899867"><ele>284.5</ele><time>2026-04-18T13:10:59.022Z</time></trkpt><trkpt lat="43.168775" lon="11.3899717"><ele>281.75</ele><time>2026-04-18T13:11:00.022Z</time></trkpt><trkpt lat="43.168635" lon="11.3899567"><ele>279.0</ele><time>2026-04-18T13:11:01.022Z</time></trkpt><trkpt lat="43.1685017" lon="11.3899417"><ele>279.0</ele><time>2026-04-18T13:11:02.022Z</time></trkpt><trkpt lat="43.16836" lon="11.3899217"><ele>279.0</ele><time>2026-04-18T13:11:03.022Z</time></trkpt><trkpt lat="43.168215" lon="11.389915"><ele>279.0</ele><time>2026-04-18T13:11:04.022Z</time></trkpt><trkpt lat="43.1680683" lon="11.389895"><ele>279.0</ele><time>2026-04-18T13:11:05.023Z</time></trkpt><trkpt lat="43.1679233" lon="11.3898817"><ele>277.75</ele><time>2026-04-18T13:11:06.022Z</time></trkpt><trkpt lat="43.1677767" lon="11.3898717"><ele>276.5</ele><time>2026-04-18T13:11:07.022Z</time></trkpt><trkpt lat="43.1676383" lon="11.3898617"><ele>275.25</ele><time>2026-04-18T13:11:08.023Z</time></trkpt><trkpt lat="43.1675" lon="11.3898533"><ele>274.0</ele><time>2026-04-18T13:11:09.023Z</time></trkpt><trkpt lat="43.167355" lon="11.3898367"><ele>274.0</ele><time>2026-04-18T13:11:10.022Z</time></trkpt><trkpt lat="43.1672167" lon="11.3898317"><ele>274.0</ele><time>2026-04-18T13:11:11.022Z</time></trkpt><trkpt lat="43.1670733" lon="11.389835"><ele>274.0</ele><time>2026-04-18T13:11:12.022Z</time></trkpt><trkpt lat="43.1669333" lon="11.3898583"><ele>274.0</ele><time>2026-04-18T13:11:13.022Z</time></trkpt><trkpt lat="43.1667917" lon="11.38991"><ele>274.0</ele><time>2026-04-18T13:11:14.023Z</time></trkpt><trkpt lat="43.1666633" lon="11.38999"><ele>274.0</ele><time>2026-04-18T13:11:15.023Z</time></trkpt><trkpt lat="43.1665483" lon="11.390095"><ele>274.0</ele><time>2026-04-18T13:11:16.023Z</time></trkpt><trkpt lat="43.1664533" lon="11.390215"><ele>274.0</ele><time>2026-04-18T13:11:17.022Z</time></trkpt><trkpt lat="43.1663667" lon="11.3903333"><ele>274.59999999999997</ele><time>2026-04-18T13:11:18.022Z</time></trkpt><trkpt lat="43.1662867" lon="11.3904333"><ele>275.2</ele><time>2026-04-18T13:11:19.023Z</time></trkpt><trkpt lat="43.1662183" lon="11.39052"><ele>275.79999999999995</ele><time>2026-04-18T13:11:20.023Z</time></trkpt><trkpt lat="43.1661483" lon="11.3905783"><ele>276.4</ele><time>2026-04-18T13:11:21.023Z</time></trkpt><trkpt lat="43.16607" lon="11.3906383"><ele>277.0</ele><time>2026-04-18T13:11:22.023Z</time></trkpt><trkpt lat="43.165965" lon="11.3906967"><ele>276.25</ele><time>2026-04-18T13:11:23.022Z</time></trkpt><trkpt lat="43.1658467" lon="11.390755"><ele>275.5</ele><time>2026-04-18T13:11:24.023Z</time></trkpt><trkpt lat="43.16571" lon="11.39081"><ele>274.75</ele><time>2026-04-18T13:11:25.022Z</time></trkpt><trkpt lat="43.1655633" lon="11.390865"><ele>274.0</ele><time>2026-04-18T13:11:26.022Z</time></trkpt><trkpt lat="43.16542" lon="11.3909133"><ele>274.0</ele><time>2026-04-18T13:11:27.022Z</time></trkpt><trkpt lat="43.1652683" lon="11.390955"><ele>274.0</ele><time>2026-04-18T13:11:28.022Z</time></trkpt><trkpt lat="43.1651133" lon="11.3909967"><ele>274.0</ele><time>2026-04-18T13:11:29.022Z</time></trkpt><trkpt lat="43.16494" lon="11.3910317"><ele>274.3333333333333</ele><time>2026-04-18T13:11:30.022Z</time></trkpt><trkpt lat="43.1647717" lon="11.391075"><ele>274.6666666666667</ele><time>2026-04-18T13:11:31.022Z</time></trkpt><trkpt lat="43.1646067" lon="11.3911217"><ele>275.0</ele><time>2026-04-18T13:11:32.022Z</time></trkpt><trkpt lat="43.164445" lon="11.391165"><ele>275.0</ele><time>2026-04-18T13:11:33.023Z</time></trkpt><trkpt lat="43.1642833" lon="11.3912033"><ele>275.0</ele><time>2026-04-18T13:11:34.023Z</time></trkpt><trkpt lat="43.1641183" lon="11.39124"><ele>275.0</ele><time>2026-04-18T13:11:35.022Z</time></trkpt><trkpt lat="43.163955" lon="11.3912817"><ele>275.6666666666667</ele><time>2026-04-18T13:11:36.022Z</time></trkpt><trkpt lat="43.163795" lon="11.39132"><ele>276.3333333333333</ele><time>2026-04-18T13:11:37.023Z</time></trkpt><trkpt lat="43.1636367" lon="11.39136"><ele>277.0</ele><time>2026-04-18T13:11:38.022Z</time></trkpt><trkpt lat="43.1634817" lon="11.3914067"><ele>277.0</ele><time>2026-04-18T13:11:39.023Z</time></trkpt><trkpt lat="43.1633233" lon="11.3914483"><ele>277.0</ele><time>2026-04-18T13:11:40.022Z</time></trkpt><trkpt lat="43.1631683" lon="11.391485"><ele>277.0</ele><time>2026-04-18T13:11:41.022Z</time></trkpt><trkpt lat="43.1630167" lon="11.3915167"><ele>278.25</ele><time>2026-04-18T13:11:42.023Z</time></trkpt><trkpt lat="43.1628667" lon="11.3915467"><ele>279.5</ele><time>2026-04-18T13:11:43.023Z</time></trkpt><trkpt lat="43.1627217" lon="11.3915717"><ele>280.75</ele><time>2026-04-18T13:11:44.022Z</time></trkpt><trkpt lat="43.1625817" lon="11.3915917"><ele>282.0</ele><time>2026-04-18T13:11:45.022Z</time></trkpt><trkpt lat="43.1624467" lon="11.3916067"><ele>282.8</ele><time>2026-04-18T13:11:46.023Z</time></trkpt><trkpt lat="43.162315" lon="11.39162"><ele>283.6</ele><time>2026-04-18T13:11:47.022Z</time></trkpt><trkpt lat="43.1622033" lon="11.391635"><ele>284.40000000000003</ele><time>2026-04-18T13:11:48.022Z</time></trkpt><trkpt lat="43.1620983" lon="11.3916583"><ele>285.2</ele><time>2026-04-18T13:11:49.021Z</time></trkpt><trkpt lat="43.1620117" lon="11.39168"><ele>286.0</ele><time>2026-04-18T13:11:50.022Z</time></trkpt><trkpt lat="43.16193" lon="11.3916833"><ele>286.0</ele><time>2026-04-18T13:11:51.021Z</time></trkpt><trkpt lat="43.1618583" lon="11.391655"><ele>286.0</ele><time>2026-04-18T13:11:52.021Z</time></trkpt><trkpt lat="43.1617967" lon="11.3915933"><ele>286.0</ele><time>2026-04-18T13:11:53.021Z</time></trkpt><trkpt lat="43.1617417" lon="11.3914883"><ele>286.0</ele><time>2026-04-18T13:11:54.022Z</time></trkpt><trkpt lat="43.1616783" lon="11.3913683"><ele>286.0</ele><time>2026-04-18T13:11:55.021Z</time></trkpt><trkpt lat="43.161615" lon="11.3912467"><ele>285.8</ele><time>2026-04-18T13:11:56.021Z</time></trkpt><trkpt lat="43.1615483" lon="11.3911333"><ele>285.6</ele><time>2026-04-18T13:11:57.021Z</time></trkpt><trkpt lat="43.1614767" lon="11.3910183"><ele>285.4</ele><time>2026-04-18T13:11:58.022Z</time></trkpt><trkpt lat="43.1614067" lon="11.3909083"><ele>285.2</ele><time>2026-04-18T13:11:59.021Z</time></trkpt><trkpt lat="43.1613317" lon="11.39079"><ele>285.0</ele><time>2026-04-18T13:12:00.021Z</time></trkpt><trkpt lat="43.1612517" lon="11.3906783"><ele>284.75</ele><time>2026-04-18T13:12:01.022Z</time></trkpt><trkpt lat="43.1611667" lon="11.390575"><ele>284.5</ele><time>2026-04-18T13:12:02.021Z</time></trkpt><trkpt lat="43.1610833" lon="11.3904783"><ele>284.25</ele><time>2026-04-18T13:12:03.021Z</time></trkpt><trkpt lat="43.16099" lon="11.3903883"><ele>284.0</ele><time>2026-04-18T13:12:04.021Z</time></trkpt><trkpt lat="43.1608883" lon="11.3902967"><ele>284.2</ele><time>2026-04-18T13:12:05.022Z</time></trkpt><trkpt lat="43.1607833" lon="11.3902117"><ele>284.4</ele><time>2026-04-18T13:12:06.022Z</time></trkpt><trkpt lat="43.16069" lon="11.39013"><ele>284.6</ele><time>2026-04-18T13:12:07.022Z</time></trkpt><trkpt lat="43.1605983" lon="11.3900583"><ele>284.8</ele><time>2026-04-18T13:12:08.021Z</time></trkpt><trkpt lat="43.1605117" lon="11.3899933"><ele>285.0</ele><time>2026-04-18T13:12:09.021Z</time></trkpt><trkpt lat="43.16043" lon="11.38993"><ele>285.0</ele><time>2026-04-18T13:12:10.022Z</time></trkpt><trkpt lat="43.160355" lon="11.3898617"><ele>285.0</ele><time>2026-04-18T13:12:11.022Z</time></trkpt><trkpt lat="43.1602883" lon="11.389795"><ele>285.0</ele><time>2026-04-18T13:12:12.022Z</time></trkpt><trkpt lat="43.1602267" lon="11.38973"><ele>285.0</ele><time>2026-04-18T13:12:13.022Z</time></trkpt><trkpt lat="43.1601767" lon="11.3896717"><ele>285.0</ele><time>2026-04-18T13:12:14.021Z</time></trkpt><trkpt lat="43.1601033" lon="11.389555"><ele>285.0</ele><time>2026-04-18T13:12:16.021Z</time></trkpt><trkpt lat="43.1600533" lon="11.3894967"><ele>285.0</ele><time>2026-04-18T13:12:18.021Z</time></trkpt><trkpt lat="43.1600417" lon="11.389595"><ele>285.0</ele><time>2026-04-18T13:12:22.021Z</time></trkpt><trkpt lat="43.1600983" lon="11.38967"><ele>285.0</ele><time>2026-04-18T13:12:32.021Z</time></trkpt><trkpt lat="43.1601533" lon="11.3897183"><ele>285.0</ele><time>2026-04-18T13:12:33.021Z</time></trkpt><trkpt lat="43.1602283" lon="11.3897833"><ele>285.0</ele><time>2026-04-18T13:12:34.021Z</time></trkpt><trkpt lat="43.16031" lon="11.3898567"><ele>285.0</ele><time>2026-04-18T13:12:35.021Z</time></trkpt><trkpt lat="43.1604083" lon="11.389935"><ele>285.0</ele><time>2026-04-18T13:12:36.022Z</time></trkpt><trkpt lat="43.160515" lon="11.390025"><ele>285.0</ele><time>2026-04-18T13:12:37.022Z</time></trkpt><trkpt lat="43.1606267" lon="11.3901133"><ele>285.0</ele><time>2026-04-18T13:12:38.021Z</time></trkpt><trkpt lat="43.1607483" lon="11.3902167"><ele>285.0</ele><time>2026-04-18T13:12:39.021Z</time></trkpt><trkpt lat="43.160865" lon="11.3903183"><ele>285.25</ele><time>2026-04-18T13:12:40.021Z</time></trkpt><trkpt lat="43.1609867" lon="11.3904267"><ele>285.5</ele><time>2026-04-18T13:12:41.022Z</time></trkpt><trkpt lat="43.1611067" lon="11.3905467"><ele>285.75</ele><time>2026-04-18T13:12:42.021Z</time></trkpt><trkpt lat="43.1612183" lon="11.3906817"><ele>286.0</ele><time>2026-04-18T13:12:43.021Z</time></trkpt><trkpt lat="43.1613183" lon="11.39082"><ele>285.75</ele><time>2026-04-18T13:12:44.022Z</time></trkpt><trkpt lat="43.16142" lon="11.3909517"><ele>285.5</ele><time>2026-04-18T13:12:45.021Z</time></trkpt><trkpt lat="43.161505" lon="11.3910833"><ele>285.25</ele><time>2026-04-18T13:12:46.021Z</time></trkpt><trkpt lat="43.16158" lon="11.3912083"><ele>285.0</ele><time>2026-04-18T13:12:47.022Z</time></trkpt><trkpt lat="43.1616483" lon="11.391335"><ele>285.1666666666667</ele><time>2026-04-18T13:12:48.022Z</time></trkpt><trkpt lat="43.1617067" lon="11.3914517"><ele>285.3333333333333</ele><time>2026-04-18T13:12:49.022Z</time></trkpt><trkpt lat="43.1617467" lon="11.3915567"><ele>285.5</ele><time>2026-04-18T13:12:50.022Z</time></trkpt><trkpt lat="43.1617633" lon="11.3916567"><ele>285.66666666666663</ele><time>2026-04-18T13:12:51.021Z</time></trkpt><trkpt lat="43.1617667" lon="11.391755"><ele>285.8333333333333</ele><time>2026-04-18T13:12:52.021Z</time></trkpt><trkpt lat="43.161755" lon="11.3918567"><ele>286.0</ele><time>2026-04-18T13:12:53.022Z</time></trkpt><trkpt lat="43.1617283" lon="11.3919683"><ele>286.0</ele><time>2026-04-18T13:12:54.021Z</time></trkpt><trkpt lat="43.1616917" lon="11.3921167"><ele>286.0</ele><time>2026-04-18T13:12:55.022Z</time></trkpt><trkpt lat="43.1616367" lon="11.3922917"><ele>286.0</ele><time>2026-04-18T13:12:56.021Z</time></trkpt><trkpt lat="43.1615867" lon="11.3924667"><ele>286.0</ele><time>2026-04-18T13:12:57.021Z</time></trkpt><trkpt lat="43.161535" lon="11.392625"><ele>284.25</ele><time>2026-04-18T13:12:58.021Z</time></trkpt><trkpt lat="43.1614683" lon="11.3927583"><ele>282.5</ele><time>2026-04-18T13:12:59.022Z</time></trkpt><trkpt lat="43.1613833" lon="11.39288"><ele>280.75</ele><time>2026-04-18T13:13:00.022Z</time></trkpt><trkpt lat="43.1612883" lon="11.39298"><ele>279.0</ele><time>2026-04-18T13:13:01.021Z</time></trkpt><trkpt lat="43.1611667" lon="11.3930533"><ele>279.0</ele><time>2026-04-18T13:13:02.021Z</time></trkpt><trkpt lat="43.161025" lon="11.393115"><ele>279.0</ele><time>2026-04-18T13:13:03.021Z</time></trkpt><trkpt lat="43.160875" lon="11.39318"><ele>279.0</ele><time>2026-04-18T13:13:04.022Z</time></trkpt><trkpt lat="43.1607217" lon="11.39325"><ele>278.3333333333333</ele><time>2026-04-18T13:13:05.021Z</time></trkpt><trkpt lat="43.1605617" lon="11.3933167"><ele>277.66666666666663</ele><time>2026-04-18T13:13:06.021Z</time></trkpt><trkpt lat="43.1604083" lon="11.3933817"><ele>277.0</ele><time>2026-04-18T13:13:07.022Z</time></trkpt><trkpt lat="43.1602683" lon="11.39345"><ele>277.0</ele><time>2026-04-18T13:13:08.022Z</time></trkpt><trkpt lat="43.1601317" lon="11.3935133"><ele>277.0</ele><time>2026-04-18T13:13:09.021Z</time></trkpt><trkpt lat="43.1599917" lon="11.39358"><ele>277.0</ele><time>2026-04-18T13:13:10.021Z</time></trkpt><trkpt lat="43.1598433" lon="11.3936617"><ele>276.66666666666663</ele><time>2026-04-18T13:13:11.022Z</time></trkpt><trkpt lat="43.1596933" lon="11.3937517"><ele>276.3333333333333</ele><time>2026-04-18T13:13:12.021Z</time></trkpt><trkpt lat="43.15955" lon="11.3938567"><ele>276.0</ele><time>2026-04-18T13:13:13.022Z</time></trkpt><trkpt lat="43.1594183" lon="11.39398"><ele>276.0</ele><time>2026-04-18T13:13:14.022Z</time></trkpt><trkpt lat="43.1592883" lon="11.3941267"><ele>276.0</ele><time>2026-04-18T13:13:15.022Z</time></trkpt><trkpt lat="43.1591617" lon="11.39429"><ele>276.0</ele><time>2026-04-18T13:13:16.021Z</time></trkpt><trkpt lat="43.1590417" lon="11.39447"><ele>277.0</ele><time>2026-04-18T13:13:17.022Z</time></trkpt><trkpt lat="43.15893" lon="11.3946717"><ele>278.0</ele><time>2026-04-18T13:13:18.021Z</time></trkpt><trkpt lat="43.1588317" lon="11.394885"><ele>279.0</ele><time>2026-04-18T13:13:19.021Z</time></trkpt><trkpt lat="43.1587567" lon="11.3951233"><ele>279.0</ele><time>2026-04-18T13:13:20.021Z</time></trkpt><trkpt lat="43.1587167" lon="11.395375"><ele>279.0</ele><time>2026-04-18T13:13:21.021Z</time></trkpt><trkpt lat="43.1586983" lon="11.39563"><ele>279.0</ele><time>2026-04-18T13:13:22.022Z</time></trkpt><trkpt lat="43.15869" lon="11.39589"><ele>279.0</ele><time>2026-04-18T13:13:23.022Z</time></trkpt><trkpt lat="43.1586867" lon="11.3961467"><ele>279.0</ele><time>2026-04-18T13:13:24.021Z</time></trkpt><trkpt lat="43.1586783" lon="11.3963967"><ele>279.0</ele><time>2026-04-18T13:13:25.022Z</time></trkpt><trkpt lat="43.1586783" lon="11.3966433"><ele>279.3333333333333</ele><time>2026-04-18T13:13:26.022Z</time></trkpt><trkpt lat="43.1586733" lon="11.3968917"><ele>279.66666666666663</ele><time>2026-04-18T13:13:27.022Z</time></trkpt><trkpt lat="43.158675" lon="11.3971417"><ele>280.0</ele><time>2026-04-18T13:13:28.021Z</time></trkpt><trkpt lat="43.1586817" lon="11.3973933"><ele>280.0</ele><time>2026-04-18T13:13:29.021Z</time></trkpt><trkpt lat="43.1586883" lon="11.39764"><ele>280.0</ele><time>2026-04-18T13:13:30.022Z</time></trkpt><trkpt lat="43.1587083" lon="11.3978883"><ele>280.0</ele><time>2026-04-18T13:13:31.021Z</time></trkpt><trkpt lat="43.15875" lon="11.3981317"><ele>280.66666666666663</ele><time>2026-04-18T13:13:32.021Z</time></trkpt><trkpt lat="43.1588033" lon="11.39837"><ele>281.3333333333333</ele><time>2026-04-18T13:13:33.021Z</time></trkpt><trkpt lat="43.1588583" lon="11.3986083"><ele>282.0</ele><time>2026-04-18T13:13:34.021Z</time></trkpt><trkpt lat="43.158895" lon="11.39884"><ele>282.5</ele><time>2026-04-18T13:13:35.021Z</time></trkpt><trkpt lat="43.1589067" lon="11.3990633"><ele>283.0</ele><time>2026-04-18T13:13:36.022Z</time></trkpt><trkpt lat="43.1589033" lon="11.3992633"><ele>283.5</ele><time>2026-04-18T13:13:37.021Z</time></trkpt><trkpt lat="43.1588667" lon="11.3994333"><ele>284.0</ele><time>2026-04-18T13:13:38.021Z</time></trkpt><trkpt lat="43.1587867" lon="11.3995517"><ele>284.0</ele><time>2026-04-18T13:13:39.021Z</time></trkpt><trkpt lat="43.15868" lon="11.3996183"><ele>284.0</ele><time>2026-04-18T13:13:40.021Z</time></trkpt><trkpt lat="43.1585533" lon="11.3996333"><ele>284.0</ele><time>2026-04-18T13:13:41.022Z</time></trkpt><trkpt lat="43.1584067" lon="11.3996183"><ele>284.0</ele><time>2026-04-18T13:13:42.021Z</time></trkpt><trkpt lat="43.1582483" lon="11.3996067"><ele>286.0</ele><time>2026-04-18T13:13:43.021Z</time></trkpt><trkpt lat="43.1580817" lon="11.3996367"><ele>288.0</ele><time>2026-04-18T13:13:44.022Z</time></trkpt><trkpt lat="43.15793" lon="11.399705"><ele>290.0</ele><time>2026-04-18T13:13:45.021Z</time></trkpt><trkpt lat="43.1577833" lon="11.3998167"><ele>290.0</ele><time>2026-04-18T13:13:46.021Z</time></trkpt><trkpt lat="43.1576283" lon="11.399935"><ele>290.0</ele><time>2026-04-18T13:13:47.022Z</time></trkpt><trkpt lat="43.1574933" lon="11.40006"><ele>290.0</ele><time>2026-04-18T13:13:48.021Z</time></trkpt><trkpt lat="43.1573567" lon="11.400145"><ele>291.33333333333337</ele><time>2026-04-18T13:13:49.021Z</time></trkpt><trkpt lat="43.1571983" lon="11.4001683"><ele>292.6666666666667</ele><time>2026-04-18T13:13:50.021Z</time></trkpt><trkpt lat="43.1570333" lon="11.4001483"><ele>294.0</ele><time>2026-04-18T13:13:51.022Z</time></trkpt><trkpt lat="43.1568683" lon="11.4000917"><ele>294.0</ele><time>2026-04-18T13:13:52.021Z</time></trkpt><trkpt lat="43.1567267" lon="11.4000317"><ele>294.0</ele><time>2026-04-18T13:13:53.022Z</time></trkpt><trkpt lat="43.1566067" lon="11.3999917"><ele>294.0</ele><time>2026-04-18T13:13:54.022Z</time></trkpt><trkpt lat="43.1564983" lon="11.3999933"><ele>294.0</ele><time>2026-04-18T13:13:55.021Z</time></trkpt><trkpt lat="43.156405" lon="11.4000217"><ele>296.59999999999997</ele><time>2026-04-18T13:13:56.021Z</time></trkpt><trkpt lat="43.1563283" lon="11.400095"><ele>299.2</ele><time>2026-04-18T13:13:57.021Z</time></trkpt><trkpt lat="43.1562833" lon="11.4002133"><ele>301.79999999999995</ele><time>2026-04-18T13:13:58.021Z</time></trkpt><trkpt lat="43.1562817" lon="11.40037"><ele>304.4</ele><time>2026-04-18T13:13:59.021Z</time></trkpt><trkpt lat="43.1563167" lon="11.4005267"><ele>307.0</ele><time>2026-04-18T13:14:00.022Z</time></trkpt><trkpt lat="43.1563867" lon="11.40071"><ele>307.3333333333333</ele><time>2026-04-18T13:14:01.021Z</time></trkpt><trkpt lat="43.1564733" lon="11.400905"><ele>307.6666666666667</ele><time>2026-04-18T13:14:02.021Z</time></trkpt><trkpt lat="43.15656" lon="11.4011067"><ele>308.0</ele><time>2026-04-18T13:14:03.021Z</time></trkpt><trkpt lat="43.1566283" lon="11.401295"><ele>300.33333333333337</ele><time>2026-04-18T13:14:04.021Z</time></trkpt><trkpt lat="43.1566717" lon="11.4014917"><ele>292.6666666666667</ele><time>2026-04-18T13:14:05.022Z</time></trkpt><trkpt lat="43.156695" lon="11.401705"><ele>285.0</ele><time>2026-04-18T13:14:06.021Z</time></trkpt><trkpt lat="43.1566733" lon="11.4019333"><ele>284.3333333333333</ele><time>2026-04-18T13:14:07.021Z</time></trkpt><trkpt lat="43.1566333" lon="11.402165"><ele>283.66666666666663</ele><time>2026-04-18T13:14:08.022Z</time></trkpt><trkpt lat="43.15659" lon="11.4024033"><ele>283.0</ele><time>2026-04-18T13:14:09.022Z</time></trkpt><trkpt lat="43.1565417" lon="11.40265"><ele>288.0</ele><time>2026-04-18T13:14:10.021Z</time></trkpt><trkpt lat="43.1564983" lon="11.4028967"><ele>293.0</ele><time>2026-04-18T13:14:11.022Z</time></trkpt><trkpt lat="43.15647" lon="11.4031533"><ele>298.0</ele><time>2026-04-18T13:14:12.021Z</time></trkpt><trkpt lat="43.156445" lon="11.4033967"><ele>298.0</ele><time>2026-04-18T13:14:13.022Z</time></trkpt><trkpt lat="43.156425" lon="11.40364"><ele>298.0</ele><time>2026-04-18T13:14:14.022Z</time></trkpt><trkpt lat="43.1564083" lon="11.4038633"><ele>298.0</ele><time>2026-04-18T13:14:15.021Z</time></trkpt><trkpt lat="43.1563967" lon="11.4040683"><ele>296.0</ele><time>2026-04-18T13:14:16.022Z</time></trkpt><trkpt lat="43.15635" lon="11.404255"><ele>294.0</ele><time>2026-04-18T13:14:17.021Z</time></trkpt><trkpt lat="43.1562617" lon="11.40442"><ele>292.0</ele><time>2026-04-18T13:14:18.021Z</time></trkpt><trkpt lat="43.1561483" lon="11.4045717"><ele>286.3333333333333</ele><time>2026-04-18T13:14:19.022Z</time></trkpt><trkpt lat="43.1560233" lon="11.4046967"><ele>280.6666666666667</ele><time>2026-04-18T13:14:20.022Z</time></trkpt><trkpt lat="43.1558683" lon="11.40479"><ele>275.0</ele><time>2026-04-18T13:14:21.022Z</time></trkpt><trkpt lat="43.155705" lon="11.4048533"><ele>278.33333333333337</ele><time>2026-04-18T13:14:22.021Z</time></trkpt><trkpt lat="43.15553" lon="11.4048767"><ele>281.6666666666667</ele><time>2026-04-18T13:14:23.021Z</time></trkpt><trkpt lat="43.1553417" lon="11.4049033"><ele>285.0</ele><time>2026-04-18T13:14:24.021Z</time></trkpt><trkpt lat="43.15516" lon="11.4049533"><ele>285.0</ele><time>2026-04-18T13:14:25.021Z</time></trkpt><trkpt lat="43.1549767" lon="11.405015"><ele>285.0</ele><time>2026-04-18T13:14:26.022Z</time></trkpt><trkpt lat="43.1548" lon="11.4051"><ele>285.0</ele><time>2026-04-18T13:14:27.021Z</time></trkpt><trkpt lat="43.1546333" lon="11.4051883"><ele>283.0</ele><time>2026-04-18T13:14:28.021Z</time></trkpt><trkpt lat="43.154475" lon="11.4052883"><ele>281.0</ele><time>2026-04-18T13:14:29.022Z</time></trkpt><trkpt lat="43.154315" lon="11.4054033"><ele>279.0</ele><time>2026-04-18T13:14:30.022Z</time></trkpt><trkpt lat="43.15416" lon="11.4055183"><ele>281.3333333333333</ele><time>2026-04-18T13:14:31.021Z</time></trkpt><trkpt lat="43.1540133" lon="11.40561"><ele>283.66666666666663</ele><time>2026-04-18T13:14:32.021Z</time></trkpt><trkpt lat="43.1538517" lon="11.4056583"><ele>286.0</ele><time>2026-04-18T13:14:33.021Z</time></trkpt><trkpt lat="43.1536767" lon="11.4056733"><ele>286.0</ele><time>2026-04-18T13:14:34.021Z</time></trkpt><trkpt lat="43.1534933" lon="11.40569"><ele>286.0</ele><time>2026-04-18T13:14:35.022Z</time></trkpt><trkpt lat="43.1533233" lon="11.405755"><ele>286.0</ele><time>2026-04-18T13:14:36.021Z</time></trkpt><trkpt lat="43.1531567" lon="11.4058667"><ele>289.3333333333333</ele><time>2026-04-18T13:14:37.021Z</time></trkpt><trkpt lat="43.1530133" lon="11.406015"><ele>292.6666666666667</ele><time>2026-04-18T13:14:38.021Z</time></trkpt><trkpt lat="43.1528633" lon="11.4061667"><ele>296.0</ele><time>2026-04-18T13:14:39.021Z</time></trkpt><trkpt lat="43.1527017" lon="11.406305"><ele>291.6666666666667</ele><time>2026-04-18T13:14:40.021Z</time></trkpt><trkpt lat="43.152525" lon="11.4064183"><ele>287.3333333333333</ele><time>2026-04-18T13:14:41.022Z</time></trkpt><trkpt lat="43.152345" lon="11.406515"><ele>283.0</ele><time>2026-04-18T13:14:42.021Z</time></trkpt><trkpt lat="43.1521683" lon="11.4065783"><ele>283.0</ele><time>2026-04-18T13:14:43.022Z</time></trkpt><trkpt lat="43.15198" lon="11.4065967"><ele>283.0</ele><time>2026-04-18T13:14:44.021Z</time></trkpt><trkpt lat="43.1517783" lon="11.4066033"><ele>283.0</ele><time>2026-04-18T13:14:45.022Z</time></trkpt><trkpt lat="43.1515783" lon="11.4066283"><ele>284.0</ele><time>2026-04-18T13:14:46.022Z</time></trkpt><trkpt lat="43.1513767" lon="11.4066633"><ele>285.0</ele><time>2026-04-18T13:14:47.022Z</time></trkpt><trkpt lat="43.1511917" lon="11.4067267"><ele>286.0</ele><time>2026-04-18T13:14:48.021Z</time></trkpt><trkpt lat="43.15101" lon="11.40677"><ele>286.0</ele><time>2026-04-18T13:14:49.021Z</time></trkpt><trkpt lat="43.1508233" lon="11.4067867"><ele>286.0</ele><time>2026-04-18T13:14:50.021Z</time></trkpt><trkpt lat="43.1506333" lon="11.4067767"><ele>286.0</ele><time>2026-04-18T13:14:51.022Z</time></trkpt><trkpt lat="43.1504617" lon="11.4067467"><ele>284.3333333333333</ele><time>2026-04-18T13:14:52.021Z</time></trkpt><trkpt lat="43.1503017" lon="11.40669"><ele>282.6666666666667</ele><time>2026-04-18T13:14:53.021Z</time></trkpt><trkpt lat="43.15016" lon="11.4066033"><ele>281.0</ele><time>2026-04-18T13:14:54.022Z</time></trkpt><trkpt lat="43.150035" lon="11.40647"><ele>281.0</ele><time>2026-04-18T13:14:55.021Z</time></trkpt><trkpt lat="43.1499333" lon="11.4063367"><ele>281.0</ele><time>2026-04-18T13:14:56.022Z</time></trkpt><trkpt lat="43.149825" lon="11.4062367"><ele>281.0</ele><time>2026-04-18T13:14:57.021Z</time></trkpt><trkpt lat="43.1497017" lon="11.4061967"><ele>281.0</ele><time>2026-04-18T13:14:58.021Z</time></trkpt><trkpt lat="43.1495667" lon="11.4062117"><ele>282.0</ele><time>2026-04-18T13:14:59.022Z</time></trkpt><trkpt lat="43.149435" lon="11.40629"><ele>283.0</ele><time>2026-04-18T13:15:00.021Z</time></trkpt><trkpt lat="43.14932" lon="11.40643"><ele>284.0</ele><time>2026-04-18T13:15:01.021Z</time></trkpt><trkpt lat="43.1492233" lon="11.406565"><ele>285.0</ele><time>2026-04-18T13:15:02.021Z</time></trkpt><trkpt lat="43.1491183" lon="11.4066667"><ele>286.0</ele><time>2026-04-18T13:15:03.021Z</time></trkpt><trkpt lat="43.14899" lon="11.4067217"><ele>287.0</ele><time>2026-04-18T13:15:04.021Z</time></trkpt><trkpt lat="43.14884" lon="11.4067467"><ele>288.0</ele><time>2026-04-18T13:15:05.022Z</time></trkpt><trkpt lat="43.1486867" lon="11.4067817"><ele>289.0</ele><time>2026-04-18T13:15:06.02Z</time></trkpt><trkpt lat="43.1485433" lon="11.4068533"><ele>289.0</ele><time>2026-04-18T13:15:07.02Z</time></trkpt><trkpt lat="43.14842" lon="11.4069733"><ele>289.0</ele><time>2026-04-18T13:15:08.02Z</time></trkpt><trkpt lat="43.1483033" lon="11.4071333"><ele>289.0</ele><time>2026-04-18T13:15:09.02Z</time></trkpt><trkpt lat="43.1481933" lon="11.407335"><ele>290.0</ele><time>2026-04-18T13:15:10.02Z</time></trkpt><trkpt lat="43.1480967" lon="11.4075467"><ele>291.0</ele><time>2026-04-18T13:15:11.02Z</time></trkpt><trkpt lat="43.148015" lon="11.4077583"><ele>292.0</ele><time>2026-04-18T13:15:12.02Z</time></trkpt><trkpt lat="43.1479467" lon="11.4079683"><ele>290.0</ele><time>2026-04-18T13:15:13.02Z</time></trkpt><trkpt lat="43.1479" lon="11.4082017"><ele>288.0</ele><time>2026-04-18T13:15:14.021Z</time></trkpt><trkpt lat="43.14787" lon="11.40846"><ele>286.0</ele><time>2026-04-18T13:15:15.02Z</time></trkpt><trkpt lat="43.1478467" lon="11.40873"><ele>284.0</ele><time>2026-04-18T13:15:16.021Z</time></trkpt><trkpt lat="43.147815" lon="11.4089817"><ele>282.0</ele><time>2026-04-18T13:15:17.02Z</time></trkpt><trkpt lat="43.1478017" lon="11.4092167"><ele>280.0</ele><time>2026-04-18T13:15:18.02Z</time></trkpt><trkpt lat="43.14777" lon="11.4094533"><ele>277.66666666666663</ele><time>2026-04-18T13:15:19.021Z</time></trkpt><trkpt lat="43.147735" lon="11.40967"><ele>275.3333333333333</ele><time>2026-04-18T13:15:20.02Z</time></trkpt><trkpt lat="43.1476833" lon="11.4098917"><ele>273.0</ele><time>2026-04-18T13:15:21.021Z</time></trkpt><trkpt lat="43.1476183" lon="11.4100983"><ele>273.0</ele><time>2026-04-18T13:15:22.02Z</time></trkpt><trkpt lat="43.14754" lon="11.41028"><ele>273.0</ele><time>2026-04-18T13:15:23.02Z</time></trkpt><trkpt lat="43.1474233" lon="11.4104333"><ele>273.0</ele><time>2026-04-18T13:15:24.02Z</time></trkpt><trkpt lat="43.1472817" lon="11.4105633"><ele>270.6666666666667</ele><time>2026-04-18T13:15:25.021Z</time></trkpt><trkpt lat="43.1471133" lon="11.41067"><ele>268.33333333333337</ele><time>2026-04-18T13:15:26.021Z</time></trkpt><trkpt lat="43.1469517" lon="11.4107783"><ele>266.0</ele><time>2026-04-18T13:15:27.021Z</time></trkpt><trkpt lat="43.1467933" lon="11.4109117"><ele>266.0</ele><time>2026-04-18T13:15:28.02Z</time></trkpt><trkpt lat="43.1466533" lon="11.4110917"><ele>266.0</ele><time>2026-04-18T13:15:29.02Z</time></trkpt><trkpt lat="43.1465217" lon="11.411285"><ele>266.0</ele><time>2026-04-18T13:15:30.02Z</time></trkpt><trkpt lat="43.1463967" lon="11.4114917"><ele>264.33333333333337</ele><time>2026-04-18T13:15:31.021Z</time></trkpt><trkpt lat="43.1462733" lon="11.4116967"><ele>262.6666666666667</ele><time>2026-04-18T13:15:32.021Z</time></trkpt><trkpt lat="43.1461617" lon="11.411905"><ele>261.0</ele><time>2026-04-18T13:15:33.02Z</time></trkpt><trkpt lat="43.146055" lon="11.4121283"><ele>258.3333333333333</ele><time>2026-04-18T13:15:34.02Z</time></trkpt><trkpt lat="43.145965" lon="11.4123617"><ele>255.66666666666666</ele><time>2026-04-18T13:15:35.021Z</time></trkpt><trkpt lat="43.1459067" lon="11.41262"><ele>253.0</ele><time>2026-04-18T13:15:36.021Z</time></trkpt><trkpt lat="43.1458517" lon="11.4128683"><ele>252.66666666666666</ele><time>2026-04-18T13:15:37.021Z</time></trkpt><trkpt lat="43.14579" lon="11.4130967"><ele>252.33333333333331</ele><time>2026-04-18T13:15:38.02Z</time></trkpt><trkpt lat="43.145705" lon="11.4133183"><ele>252.0</ele><time>2026-04-18T13:15:39.02Z</time></trkpt><trkpt lat="43.145595" lon="11.4135283"><ele>250.0</ele><time>2026-04-18T13:15:40.021Z</time></trkpt><trkpt lat="43.14548" lon="11.413705"><ele>248.0</ele><time>2026-04-18T13:15:41.021Z</time></trkpt><trkpt lat="43.145365" lon="11.413865"><ele>246.0</ele><time>2026-04-18T13:15:42.02Z</time></trkpt><trkpt lat="43.1452767" lon="11.41404"><ele>244.66666666666669</ele><time>2026-04-18T13:15:43.021Z</time></trkpt><trkpt lat="43.1452283" lon="11.4142417"><ele>243.33333333333334</ele><time>2026-04-18T13:15:44.021Z</time></trkpt><trkpt lat="43.14522" lon="11.4144567"><ele>242.0</ele><time>2026-04-18T13:15:45.021Z</time></trkpt><trkpt lat="43.1452583" lon="11.4146633"><ele>240.0</ele><time>2026-04-18T13:15:46.02Z</time></trkpt><trkpt lat="43.14534" lon="11.4148533"><ele>238.0</ele><time>2026-04-18T13:15:47.021Z</time></trkpt><trkpt lat="43.145465" lon="11.4150383"><ele>236.0</ele><time>2026-04-18T13:15:48.02Z</time></trkpt><trkpt lat="43.145585" lon="11.4152167"><ele>236.0</ele><time>2026-04-18T13:15:49.02Z</time></trkpt><trkpt lat="43.1456833" lon="11.415405"><ele>236.0</ele><time>2026-04-18T13:15:50.02Z</time></trkpt><trkpt lat="43.14575" lon="11.4156117"><ele>236.0</ele><time>2026-04-18T13:15:51.021Z</time></trkpt><trkpt lat="43.1457833" lon="11.4158283"><ele>236.0</ele><time>2026-04-18T13:15:52.021Z</time></trkpt><trkpt lat="43.1457833" lon="11.4160767"><ele>236.0</ele><time>2026-04-18T13:15:53.021Z</time></trkpt><trkpt lat="43.1457683" lon="11.4163517"><ele>236.0</ele><time>2026-04-18T13:15:54.02Z</time></trkpt><trkpt lat="43.14573" lon="11.4166283"><ele>231.33333333333334</ele><time>2026-04-18T13:15:55.02Z</time></trkpt><trkpt lat="43.14569" lon="11.4168967"><ele>226.66666666666669</ele><time>2026-04-18T13:15:56.02Z</time></trkpt><trkpt lat="43.1456417" lon="11.4171533"><ele>222.0</ele><time>2026-04-18T13:15:57.02Z</time></trkpt><trkpt lat="43.14559" lon="11.4173933"><ele>220.33333333333331</ele><time>2026-04-18T13:15:58.02Z</time></trkpt><trkpt lat="43.1455233" lon="11.4176183"><ele>218.66666666666666</ele><time>2026-04-18T13:15:59.02Z</time></trkpt><trkpt lat="43.14546" lon="11.4178383"><ele>217.0</ele><time>2026-04-18T13:16:00.02Z</time></trkpt><trkpt lat="43.1454117" lon="11.4180567"><ele>216.0</ele><time>2026-04-18T13:16:01.021Z</time></trkpt><trkpt lat="43.145375" lon="11.4182717"><ele>215.0</ele><time>2026-04-18T13:16:02.02Z</time></trkpt><trkpt lat="43.1453533" lon="11.4184933"><ele>214.0</ele><time>2026-04-18T13:16:03.02Z</time></trkpt><trkpt lat="43.1453433" lon="11.4187183"><ele>213.66666666666666</ele><time>2026-04-18T13:16:04.02Z</time></trkpt><trkpt lat="43.145335" lon="11.4189367"><ele>213.33333333333331</ele><time>2026-04-18T13:16:05.02Z</time></trkpt><trkpt lat="43.1453233" lon="11.419155"><ele>213.0</ele><time>2026-04-18T13:16:06.02Z</time></trkpt><trkpt lat="43.1452983" lon="11.4193633"><ele>213.0</ele><time>2026-04-18T13:16:07.02Z</time></trkpt><trkpt lat="43.1452567" lon="11.4195633"><ele>213.0</ele><time>2026-04-18T13:16:08.02Z</time></trkpt><trkpt lat="43.1452133" lon="11.4197583"><ele>213.0</ele><time>2026-04-18T13:16:09.021Z</time></trkpt><trkpt lat="43.14518" lon="11.41995"><ele>213.0</ele><time>2026-04-18T13:16:10.02Z</time></trkpt><trkpt lat="43.1451533" lon="11.42014"><ele>212.25</ele><time>2026-04-18T13:16:11.021Z</time></trkpt><trkpt lat="43.1451483" lon="11.42034"><ele>211.5</ele><time>2026-04-18T13:16:12.021Z</time></trkpt><trkpt lat="43.14515" lon="11.4205367"><ele>210.75</ele><time>2026-04-18T13:16:13.021Z</time></trkpt><trkpt lat="43.1451467" lon="11.4207217"><ele>210.0</ele><time>2026-04-18T13:16:14.021Z</time></trkpt><trkpt lat="43.1451483" lon="11.4209067"><ele>209.25</ele><time>2026-04-18T13:16:15.02Z</time></trkpt><trkpt lat="43.145165" lon="11.4210783"><ele>208.5</ele><time>2026-04-18T13:16:16.02Z</time></trkpt><trkpt lat="43.1451967" lon="11.421255"><ele>207.75</ele><time>2026-04-18T13:16:17.02Z</time></trkpt><trkpt lat="43.145245" lon="11.4214517"><ele>207.0</ele><time>2026-04-18T13:16:18.021Z</time></trkpt><trkpt lat="43.145305" lon="11.42166"><ele>206.66666666666669</ele><time>2026-04-18T13:16:19.02Z</time></trkpt><trkpt lat="43.1453817" lon="11.421895"><ele>206.33333333333334</ele><time>2026-04-18T13:16:20.021Z</time></trkpt><trkpt lat="43.14547" lon="11.4221483"><ele>206.0</ele><time>2026-04-18T13:16:21.02Z</time></trkpt><trkpt lat="43.145565" lon="11.42241"><ele>206.33333333333334</ele><time>2026-04-18T13:16:22.021Z</time></trkpt><trkpt lat="43.14564" lon="11.4226367"><ele>206.66666666666669</ele><time>2026-04-18T13:16:23.02Z</time></trkpt><trkpt lat="43.1457117" lon="11.4228383"><ele>207.0</ele><time>2026-04-18T13:16:24.02Z</time></trkpt><trkpt lat="43.145775" lon="11.4230267"><ele>207.0</ele><time>2026-04-18T13:16:25.021Z</time></trkpt><trkpt lat="43.1458367" lon="11.4232117"><ele>207.0</ele><time>2026-04-18T13:16:26.021Z</time></trkpt><trkpt lat="43.14589" lon="11.4233933"><ele>207.0</ele><time>2026-04-18T13:16:27.02Z</time></trkpt><trkpt lat="43.14593" lon="11.42357"><ele>207.0</ele><time>2026-04-18T13:16:28.021Z</time></trkpt><trkpt lat="43.1459483" lon="11.42374"><ele>206.75</ele><time>2026-04-18T13:16:29.02Z</time></trkpt><trkpt lat="43.14595" lon="11.423905"><ele>206.5</ele><time>2026-04-18T13:16:30.02Z</time></trkpt><trkpt lat="43.1459233" lon="11.4240767"><ele>206.25</ele><time>2026-04-18T13:16:31.021Z</time></trkpt><trkpt lat="43.1458733" lon="11.42425"><ele>206.0</ele><time>2026-04-18T13:16:32.02Z</time></trkpt><trkpt lat="43.1457933" lon="11.4244167"><ele>206.0</ele><time>2026-04-18T13:16:33.021Z</time></trkpt><trkpt lat="43.1457167" lon="11.4245633"><ele>206.0</ele><time>2026-04-18T13:16:34.02Z</time></trkpt><trkpt lat="43.1456483" lon="11.4246883"><ele>206.0</ele><time>2026-04-18T13:16:35.021Z</time></trkpt><trkpt lat="43.1455883" lon="11.4247967"><ele>206.0</ele><time>2026-04-18T13:16:36.021Z</time></trkpt><trkpt lat="43.14555" lon="11.4248967"><ele>206.0</ele><time>2026-04-18T13:16:37.02Z</time></trkpt><trkpt lat="43.1455383" lon="11.4250067"><ele>206.0</ele><time>2026-04-18T13:16:38.021Z</time></trkpt><trkpt lat="43.14555" lon="11.42512"><ele>206.0</ele><time>2026-04-18T13:16:39.02Z</time></trkpt><trkpt lat="43.14559" lon="11.4252133"><ele>206.0</ele><time>2026-04-18T13:16:40.02Z</time></trkpt><trkpt lat="43.145665" lon="11.4252983"><ele>206.0</ele><time>2026-04-18T13:16:41.02Z</time></trkpt><trkpt lat="43.1457667" lon="11.425365"><ele>206.0</ele><time>2026-04-18T13:16:42.021Z</time></trkpt><trkpt lat="43.1459" lon="11.4254317"><ele>208.33333333333334</ele><time>2026-04-18T13:16:43.02Z</time></trkpt><trkpt lat="43.1460267" lon="11.4255183"><ele>210.66666666666669</ele><time>2026-04-18T13:16:44.021Z</time></trkpt><trkpt lat="43.1461467" lon="11.42564"><ele>213.0</ele><time>2026-04-18T13:16:45.02Z</time></trkpt><trkpt lat="43.1462683" lon="11.42578"><ele>213.0</ele><time>2026-04-18T13:16:46.02Z</time></trkpt><trkpt lat="43.1464117" lon="11.4259367"><ele>213.0</ele><time>2026-04-18T13:16:47.02Z</time></trkpt><trkpt lat="43.1465583" lon="11.426085"><ele>213.0</ele><time>2026-04-18T13:16:48.02Z</time></trkpt><trkpt lat="43.1467133" lon="11.4262183"><ele>212.66666666666669</ele><time>2026-04-18T13:16:49.02Z</time></trkpt><trkpt lat="43.1468717" lon="11.42634"><ele>212.33333333333334</ele><time>2026-04-18T13:16:50.021Z</time></trkpt><trkpt lat="43.1470183" lon="11.4264633"><ele>212.0</ele><time>2026-04-18T13:16:51.021Z</time></trkpt><trkpt lat="43.147155" lon="11.4265983"><ele>212.0</ele><time>2026-04-18T13:16:52.021Z</time></trkpt><trkpt lat="43.14728" lon="11.4267383"><ele>212.0</ele><time>2026-04-18T13:16:53.02Z</time></trkpt><trkpt lat="43.147395" lon="11.4268817"><ele>212.0</ele><time>2026-04-18T13:16:54.02Z</time></trkpt><trkpt lat="43.147505" lon="11.4269933"><ele>211.0</ele><time>2026-04-18T13:16:55.021Z</time></trkpt><trkpt lat="43.1476167" lon="11.42709"><ele>210.0</ele><time>2026-04-18T13:16:56.021Z</time></trkpt><trkpt lat="43.1477433" lon="11.42717"><ele>209.0</ele><time>2026-04-18T13:16:57.021Z</time></trkpt><trkpt lat="43.1478967" lon="11.4272233"><ele>208.0</ele><time>2026-04-18T13:16:58.02Z</time></trkpt><trkpt lat="43.148055" lon="11.4272667"><ele>207.0</ele><time>2026-04-18T13:16:59.021Z</time></trkpt><trkpt lat="43.1482133" lon="11.4273283"><ele>206.0</ele><time>2026-04-18T13:17:00.021Z</time></trkpt><trkpt lat="43.1483783" lon="11.4274067"><ele>205.0</ele><time>2026-04-18T13:17:01.02Z</time></trkpt><trkpt lat="43.14854" lon="11.4275"><ele>205.0</ele><time>2026-04-18T13:17:02.02Z</time></trkpt><trkpt lat="43.148695" lon="11.427585"><ele>205.0</ele><time>2026-04-18T13:17:03.021Z</time></trkpt><trkpt lat="43.1488483" lon="11.4276533"><ele>205.0</ele><time>2026-04-18T13:17:04.021Z</time></trkpt><trkpt lat="43.1489967" lon="11.4277317"><ele>204.66666666666666</ele><time>2026-04-18T13:17:05.02Z</time></trkpt><trkpt lat="43.1491367" lon="11.4278217"><ele>204.33333333333331</ele><time>2026-04-18T13:17:06.02Z</time></trkpt><trkpt lat="43.1492767" lon="11.4279283"><ele>204.0</ele><time>2026-04-18T13:17:07.02Z</time></trkpt><trkpt lat="43.1494133" lon="11.4280633"><ele>200.66666666666669</ele><time>2026-04-18T13:17:08.02Z</time></trkpt><trkpt lat="43.1495617" lon="11.4282133"><ele>197.33333333333334</ele><time>2026-04-18T13:17:09.02Z</time></trkpt><trkpt lat="43.149705" lon="11.42836"><ele>194.0</ele><time>2026-04-18T13:17:10.02Z</time></trkpt><trkpt lat="43.1498383" lon="11.4284917"><ele>195.33333333333334</ele><time>2026-04-18T13:17:11.02Z</time></trkpt><trkpt lat="43.1499567" lon="11.4286283"><ele>196.66666666666669</ele><time>2026-04-18T13:17:12.021Z</time></trkpt><trkpt lat="43.1500583" lon="11.4287783"><ele>198.0</ele><time>2026-04-18T13:17:13.02Z</time></trkpt><trkpt lat="43.1501483" lon="11.4289483"><ele>195.75</ele><time>2026-04-18T13:17:14.021Z</time></trkpt><trkpt lat="43.15024" lon="11.429105"><ele>193.5</ele><time>2026-04-18T13:17:15.021Z</time></trkpt><trkpt lat="43.1503267" lon="11.4292533"><ele>191.25</ele><time>2026-04-18T13:17:16.02Z</time></trkpt><trkpt lat="43.1504183" lon="11.4293867"><ele>189.0</ele><time>2026-04-18T13:17:17.021Z</time></trkpt><trkpt lat="43.150515" lon="11.4295167"><ele>189.25</ele><time>2026-04-18T13:17:18.02Z</time></trkpt><trkpt lat="43.1506183" lon="11.4296433"><ele>189.5</ele><time>2026-04-18T13:17:19.021Z</time></trkpt><trkpt lat="43.1507233" lon="11.4297567"><ele>189.75</ele><time>2026-04-18T13:17:20.02Z</time></trkpt><trkpt lat="43.15083" lon="11.4298517"><ele>190.0</ele><time>2026-04-18T13:17:21.02Z</time></trkpt><trkpt lat="43.1509267" lon="11.4299517"><ele>190.0</ele><time>2026-04-18T13:17:22.021Z</time></trkpt><trkpt lat="43.1510133" lon="11.4300683"><ele>190.0</ele><time>2026-04-18T13:17:23.021Z</time></trkpt><trkpt lat="43.1510767" lon="11.4302033"><ele>190.0</ele><time>2026-04-18T13:17:24.02Z</time></trkpt><trkpt lat="43.1511217" lon="11.4303517"><ele>190.0</ele><time>2026-04-18T13:17:25.02Z</time></trkpt><trkpt lat="43.15113" lon="11.43051"><ele>187.66666666666669</ele><time>2026-04-18T13:17:26.02Z</time></trkpt><trkpt lat="43.15112" lon="11.430705"><ele>185.33333333333334</ele><time>2026-04-18T13:17:27.021Z</time></trkpt><trkpt lat="43.1511" lon="11.430925"><ele>183.0</ele><time>2026-04-18T13:17:28.02Z</time></trkpt><trkpt lat="43.151085" lon="11.43113"><ele>181.5</ele><time>2026-04-18T13:17:29.02Z</time></trkpt><trkpt lat="43.1510767" lon="11.4313383"><ele>180.0</ele><time>2026-04-18T13:17:30.021Z</time></trkpt><trkpt lat="43.1510767" lon="11.4315417"><ele>178.5</ele><time>2026-04-18T13:17:31.02Z</time></trkpt><trkpt lat="43.1510933" lon="11.4317417"><ele>177.0</ele><time>2026-04-18T13:17:32.021Z</time></trkpt><trkpt lat="43.1511083" lon="11.4319333"><ele>177.0</ele><time>2026-04-18T13:17:33.021Z</time></trkpt><trkpt lat="43.151115" lon="11.4321167"><ele>177.0</ele><time>2026-04-18T13:17:34.021Z</time></trkpt><trkpt lat="43.1511" lon="11.4322917"><ele>177.0</ele><time>2026-04-18T13:17:35.02Z</time></trkpt><trkpt lat="43.1510967" lon="11.4324567"><ele>177.0</ele><time>2026-04-18T13:17:36.02Z</time></trkpt><trkpt lat="43.1511083" lon="11.4326233"><ele>176.25</ele><time>2026-04-18T13:17:37.02Z</time></trkpt><trkpt lat="43.1511517" lon="11.4327783"><ele>175.5</ele><time>2026-04-18T13:17:38.021Z</time></trkpt><trkpt lat="43.1512233" lon="11.4329233"><ele>174.75</ele><time>2026-04-18T13:17:39.02Z</time></trkpt><trkpt lat="43.151315" lon="11.4330667"><ele>174.0</ele><time>2026-04-18T13:17:40.021Z</time></trkpt><trkpt lat="43.1514283" lon="11.4332033"><ele>175.0</ele><time>2026-04-18T13:17:41.021Z</time></trkpt><trkpt lat="43.151545" lon="11.4333333"><ele>176.0</ele><time>2026-04-18T13:17:42.02Z</time></trkpt><trkpt lat="43.1516583" lon="11.4334283"><ele>177.0</ele><time>2026-04-18T13:17:43.021Z</time></trkpt><trkpt lat="43.1517567" lon="11.4334917"><ele>178.0</ele><time>2026-04-18T13:17:44.02Z</time></trkpt><trkpt lat="43.151875" lon="11.4335233"><ele>178.0</ele><time>2026-04-18T13:17:45.02Z</time></trkpt><trkpt lat="43.1519833" lon="11.4335083"><ele>178.0</ele><time>2026-04-18T13:17:46.02Z</time></trkpt><trkpt lat="43.152085" lon="11.4334617"><ele>178.0</ele><time>2026-04-18T13:17:47.02Z</time></trkpt><trkpt lat="43.152195" lon="11.4333633"><ele>178.0</ele><time>2026-04-18T13:17:48.02Z</time></trkpt><trkpt lat="43.1523017" lon="11.4332383"><ele>178.4</ele><time>2026-04-18T13:17:49.02Z</time></trkpt><trkpt lat="43.1524083" lon="11.433115"><ele>178.8</ele><time>2026-04-18T13:17:50.021Z</time></trkpt><trkpt lat="43.1525017" lon="11.4330117"><ele>179.2</ele><time>2026-04-18T13:17:51.02Z</time></trkpt><trkpt lat="43.15258" lon="11.4329567"><ele>179.6</ele><time>2026-04-18T13:17:52.021Z</time></trkpt><trkpt lat="43.152655" lon="11.4329433"><ele>180.0</ele><time>2026-04-18T13:17:53.02Z</time></trkpt><trkpt lat="43.1527167" lon="11.4329983"><ele>178.5</ele><time>2026-04-18T13:17:54.021Z</time></trkpt><trkpt lat="43.1527667" lon="11.433085"><ele>177.0</ele><time>2026-04-18T13:17:55.02Z</time></trkpt><trkpt lat="43.15278" lon="11.4331967"><ele>175.5</ele><time>2026-04-18T13:17:56.02Z</time></trkpt><trkpt lat="43.1527633" lon="11.4333083"><ele>174.0</ele><time>2026-04-18T13:17:57.02Z</time></trkpt><trkpt lat="43.15272" lon="11.433405"><ele>172.5</ele><time>2026-04-18T13:17:58.02Z</time></trkpt><trkpt lat="43.1526517" lon="11.433505"><ele>171.0</ele><time>2026-04-18T13:17:59.02Z</time></trkpt><trkpt lat="43.1525333" lon="11.43362"><ele>171.0</ele><time>2026-04-18T13:18:00.021Z</time></trkpt><trkpt lat="43.152395" lon="11.4337733"><ele>171.0</ele><time>2026-04-18T13:18:01.02Z</time></trkpt><trkpt lat="43.152245" lon="11.4339517"><ele>171.0</ele><time>2026-04-18T13:18:02.021Z</time></trkpt><trkpt lat="43.152095" lon="11.4341217"><ele>170.0</ele><time>2026-04-18T13:18:03.02Z</time></trkpt><trkpt lat="43.15196" lon="11.4342767"><ele>169.0</ele><time>2026-04-18T13:18:04.021Z</time></trkpt><trkpt lat="43.1518467" lon="11.4344183"><ele>168.0</ele><time>2026-04-18T13:18:05.02Z</time></trkpt><trkpt lat="43.1517517" lon="11.4345567"><ele>165.75</ele><time>2026-04-18T13:18:06.02Z</time></trkpt><trkpt lat="43.15167" lon="11.4346817"><ele>163.5</ele><time>2026-04-18T13:18:07.02Z</time></trkpt><trkpt lat="43.1516167" lon="11.4348183"><ele>161.25</ele><time>2026-04-18T13:18:08.021Z</time></trkpt><trkpt lat="43.15158" lon="11.43498"><ele>159.0</ele><time>2026-04-18T13:18:09.02Z</time></trkpt><trkpt lat="43.15157" lon="11.4351717"><ele>159.0</ele><time>2026-04-18T13:18:10.021Z</time></trkpt><trkpt lat="43.1515933" lon="11.4353917"><ele>159.0</ele><time>2026-04-18T13:18:11.02Z</time></trkpt><trkpt lat="43.15163" lon="11.4356433"><ele>159.0</ele><time>2026-04-18T13:18:12.021Z</time></trkpt><trkpt lat="43.151675" lon="11.4359217"><ele>158.0</ele><time>2026-04-18T13:18:13.02Z</time></trkpt><trkpt lat="43.1517267" lon="11.4362383"><ele>157.0</ele><time>2026-04-18T13:18:14.02Z</time></trkpt><trkpt lat="43.15178" lon="11.4365717"><ele>156.66666666666669</ele><time>2026-04-18T13:18:15.02Z</time></trkpt><trkpt lat="43.1518233" lon="11.4368783"><ele>156.33333333333334</ele><time>2026-04-18T13:18:16.021Z</time></trkpt><trkpt lat="43.1518683" lon="11.4371583"><ele>156.0</ele><time>2026-04-18T13:18:17.02Z</time></trkpt><trkpt lat="43.1519083" lon="11.43741"><ele>156.0</ele><time>2026-04-18T13:18:18.02Z</time></trkpt><trkpt lat="43.1519483" lon="11.4376433"><ele>156.0</ele><time>2026-04-18T13:18:19.021Z</time></trkpt><trkpt lat="43.1519817" lon="11.4378717"><ele>156.0</ele><time>2026-04-18T13:18:20.02Z</time></trkpt><trkpt lat="43.15201" lon="11.4380817"><ele>157.25</ele><time>2026-04-18T13:18:21.02Z</time></trkpt><trkpt lat="43.1520167" lon="11.4382617"><ele>158.5</ele><time>2026-04-18T13:18:22.021Z</time></trkpt><trkpt lat="43.152005" lon="11.4384333"><ele>159.75</ele><time>2026-04-18T13:18:23.021Z</time></trkpt><trkpt lat="43.1519633" lon="11.438605"><ele>161.0</ele><time>2026-04-18T13:18:24.021Z</time></trkpt><trkpt lat="43.1518967" lon="11.4387683"><ele>162.0</ele><time>2026-04-18T13:18:25.021Z</time></trkpt><trkpt lat="43.151805" lon="11.4389383"><ele>163.0</ele><time>2026-04-18T13:18:26.02Z</time></trkpt><trkpt lat="43.1517117" lon="11.4391"><ele>164.0</ele><time>2026-04-18T13:18:27.02Z</time></trkpt><trkpt lat="43.151605" lon="11.4392517"><ele>163.33333333333331</ele><time>2026-04-18T13:18:28.02Z</time></trkpt><trkpt lat="43.1515" lon="11.4394217"><ele>162.66666666666666</ele><time>2026-04-18T13:18:29.021Z</time></trkpt><trkpt lat="43.151395" lon="11.4395917"><ele>162.0</ele><time>2026-04-18T13:18:30.02Z</time></trkpt><trkpt lat="43.1512983" lon="11.4397717"><ele>162.0</ele><time>2026-04-18T13:18:31.019Z</time></trkpt><trkpt lat="43.1512167" lon="11.439965"><ele>162.0</ele><time>2026-04-18T13:18:32.019Z</time></trkpt><trkpt lat="43.15114" lon="11.44015"><ele>162.0</ele><time>2026-04-18T13:18:33.02Z</time></trkpt><trkpt lat="43.1510633" lon="11.4403333"><ele>162.25</ele><time>2026-04-18T13:18:34.019Z</time></trkpt><trkpt lat="43.150995" lon="11.440505"><ele>162.5</ele><time>2026-04-18T13:18:35.019Z</time></trkpt><trkpt lat="43.1509183" lon="11.4406533"><ele>162.75</ele><time>2026-04-18T13:18:36.02Z</time></trkpt><trkpt lat="43.1508083" lon="11.44079"><ele>163.0</ele><time>2026-04-18T13:18:37.019Z</time></trkpt><trkpt lat="43.1506583" lon="11.4409167"><ele>163.0</ele><time>2026-04-18T13:18:38.019Z</time></trkpt><trkpt lat="43.15049" lon="11.4410683"><ele>163.0</ele><time>2026-04-18T13:18:39.019Z</time></trkpt><trkpt lat="43.15029" lon="11.4412317"><ele>163.0</ele><time>2026-04-18T13:18:40.02Z</time></trkpt><trkpt lat="43.1500767" lon="11.4414017"><ele>163.0</ele><time>2026-04-18T13:18:41.019Z</time></trkpt><trkpt lat="43.149875" lon="11.4415567"><ele>163.0</ele><time>2026-04-18T13:18:42.02Z</time></trkpt><trkpt lat="43.1496933" lon="11.4416983"><ele>163.0</ele><time>2026-04-18T13:18:43.019Z</time></trkpt><trkpt lat="43.1495217" lon="11.4418217"><ele>163.0</ele><time>2026-04-18T13:18:44.019Z</time></trkpt><trkpt lat="43.14936" lon="11.441945"><ele>163.0</ele><time>2026-04-18T13:18:45.02Z</time></trkpt><trkpt lat="43.1492067" lon="11.4420683"><ele>163.0</ele><time>2026-04-18T13:18:46.019Z</time></trkpt><trkpt lat="43.1490633" lon="11.4421767"><ele>163.33333333333334</ele><time>2026-04-18T13:18:47.019Z</time></trkpt><trkpt lat="43.1489367" lon="11.4422833"><ele>163.66666666666666</ele><time>2026-04-18T13:18:48.02Z</time></trkpt><trkpt lat="43.1488167" lon="11.442405"><ele>164.0</ele><time>2026-04-18T13:18:49.02Z</time></trkpt><trkpt lat="43.1487" lon="11.4425533"><ele>164.0</ele><time>2026-04-18T13:18:50.019Z</time></trkpt><trkpt lat="43.1485767" lon="11.4427317"><ele>164.0</ele><time>2026-04-18T13:18:51.019Z</time></trkpt><trkpt lat="43.1484617" lon="11.442915"><ele>164.0</ele><time>2026-04-18T13:18:52.02Z</time></trkpt><trkpt lat="43.1483517" lon="11.4430783"><ele>163.75</ele><time>2026-04-18T13:18:53.019Z</time></trkpt><trkpt lat="43.14825" lon="11.4432233"><ele>163.5</ele><time>2026-04-18T13:18:54.02Z</time></trkpt><trkpt lat="43.1481667" lon="11.4433583"><ele>163.25</ele><time>2026-04-18T13:18:55.019Z</time></trkpt><trkpt lat="43.148105" lon="11.4434867"><ele>163.0</ele><time>2026-04-18T13:18:56.019Z</time></trkpt><trkpt lat="43.1480667" lon="11.4436183"><ele>163.0</ele><time>2026-04-18T13:18:57.02Z</time></trkpt><trkpt lat="43.148055" lon="11.4437583"><ele>163.0</ele><time>2026-04-18T13:18:58.019Z</time></trkpt><trkpt lat="43.1480817" lon="11.4439067"><ele>163.0</ele><time>2026-04-18T13:18:59.019Z</time></trkpt><trkpt lat="43.1481317" lon="11.444065"><ele>163.0</ele><time>2026-04-18T13:19:00.02Z</time></trkpt><trkpt lat="43.1481917" lon="11.4442267"><ele>163.2</ele><time>2026-04-18T13:19:01.02Z</time></trkpt><trkpt lat="43.1482167" lon="11.444355"><ele>163.4</ele><time>2026-04-18T13:19:02.019Z</time></trkpt><trkpt lat="43.1482183" lon="11.44449"><ele>163.6</ele><time>2026-04-18T13:19:03.02Z</time></trkpt><trkpt lat="43.1481867" lon="11.4446167"><ele>163.79999999999998</ele><time>2026-04-18T13:19:04.02Z</time></trkpt><trkpt lat="43.148135" lon="11.4447183"><ele>164.0</ele><time>2026-04-18T13:19:05.019Z</time></trkpt><trkpt lat="43.1480683" lon="11.4447867"><ele>165.75</ele><time>2026-04-18T13:19:06.02Z</time></trkpt><trkpt lat="43.1479767" lon="11.444805"><ele>167.5</ele><time>2026-04-18T13:19:07.02Z</time></trkpt><trkpt lat="43.1478617" lon="11.4448"><ele>169.25</ele><time>2026-04-18T13:19:08.019Z</time></trkpt><trkpt lat="43.1477183" lon="11.444735"><ele>171.0</ele><time>2026-04-18T13:19:09.019Z</time></trkpt><trkpt lat="43.1475733" lon="11.4446633"><ele>168.66666666666666</ele><time>2026-04-18T13:19:10.02Z</time></trkpt><trkpt lat="43.147415" lon="11.4445933"><ele>166.33333333333331</ele><time>2026-04-18T13:19:11.02Z</time></trkpt><trkpt lat="43.1472533" lon="11.4445433"><ele>164.0</ele><time>2026-04-18T13:19:12.02Z</time></trkpt><trkpt lat="43.1471033" lon="11.4445167"><ele>163.5</ele><time>2026-04-18T13:19:13.02Z</time></trkpt><trkpt lat="43.1469467" lon="11.4445017"><ele>163.0</ele><time>2026-04-18T13:19:14.019Z</time></trkpt><trkpt lat="43.1468" lon="11.444505"><ele>162.5</ele><time>2026-04-18T13:19:15.019Z</time></trkpt><trkpt lat="43.1466633" lon="11.4445183"><ele>162.0</ele><time>2026-04-18T13:19:16.02Z</time></trkpt><trkpt lat="43.1465333" lon="11.44455"><ele>162.0</ele><time>2026-04-18T13:19:17.02Z</time></trkpt><trkpt lat="43.1464183" lon="11.4446"><ele>162.0</ele><time>2026-04-18T13:19:18.02Z</time></trkpt><trkpt lat="43.1463183" lon="11.4446733"><ele>162.0</ele><time>2026-04-18T13:19:19.02Z</time></trkpt><trkpt lat="43.1462383" lon="11.444775"><ele>162.0</ele><time>2026-04-18T13:19:20.02Z</time></trkpt><trkpt lat="43.1461783" lon="11.4449183"><ele>162.0</ele><time>2026-04-18T13:19:21.019Z</time></trkpt><trkpt lat="43.146135" lon="11.44508"><ele>162.0</ele><time>2026-04-18T13:19:22.019Z</time></trkpt><trkpt lat="43.146115" lon="11.4452367"><ele>162.0</ele><time>2026-04-18T13:19:23.02Z</time></trkpt><trkpt lat="43.1461267" lon="11.4454083"><ele>162.0</ele><time>2026-04-18T13:19:24.019Z</time></trkpt><trkpt lat="43.1461667" lon="11.44559"><ele>161.66666666666666</ele><time>2026-04-18T13:19:25.02Z</time></trkpt><trkpt lat="43.14622" lon="11.445805"><ele>161.33333333333331</ele><time>2026-04-18T13:19:26.019Z</time></trkpt><trkpt lat="43.146275" lon="11.4460133"><ele>161.0</ele><time>2026-04-18T13:19:27.02Z</time></trkpt><trkpt lat="43.1463283" lon="11.4462033"><ele>162.0</ele><time>2026-04-18T13:19:28.019Z</time></trkpt><trkpt lat="43.1463767" lon="11.4463667"><ele>163.0</ele><time>2026-04-18T13:19:29.02Z</time></trkpt><trkpt lat="43.1464133" lon="11.446515"><ele>164.0</ele><time>2026-04-18T13:19:30.019Z</time></trkpt><trkpt lat="43.14643" lon="11.4466317"><ele>165.0</ele><time>2026-04-18T13:19:31.02Z</time></trkpt><trkpt lat="43.14643" lon="11.4467467"><ele>166.0</ele><time>2026-04-18T13:19:32.02Z</time></trkpt><trkpt lat="43.146405" lon="11.446845"><ele>166.0</ele><time>2026-04-18T13:19:33.019Z</time></trkpt><trkpt lat="43.1463517" lon="11.4469017"><ele>166.0</ele><time>2026-04-18T13:19:34.019Z</time></trkpt><trkpt lat="43.146275" lon="11.446925"><ele>166.0</ele><time>2026-04-18T13:19:35.019Z</time></trkpt><trkpt lat="43.1461767" lon="11.446915"><ele>166.0</ele><time>2026-04-18T13:19:36.019Z</time></trkpt><trkpt lat="43.1460467" lon="11.44689"><ele>166.0</ele><time>2026-04-18T13:19:37.019Z</time></trkpt><trkpt lat="43.1459067" lon="11.4468683"><ele>166.0</ele><time>2026-04-18T13:19:38.02Z</time></trkpt><trkpt lat="43.1457667" lon="11.44686"><ele>166.0</ele><time>2026-04-18T13:19:39.019Z</time></trkpt><trkpt lat="43.1456333" lon="11.44688"><ele>166.0</ele><time>2026-04-18T13:19:40.019Z</time></trkpt><trkpt lat="43.1455017" lon="11.446915"><ele>166.0</ele><time>2026-04-18T13:19:41.019Z</time></trkpt><trkpt lat="43.1453733" lon="11.4469933"><ele>166.5</ele><time>2026-04-18T13:19:42.02Z</time></trkpt><trkpt lat="43.1452433" lon="11.4471167"><ele>167.0</ele><time>2026-04-18T13:19:43.02Z</time></trkpt><trkpt lat="43.1451317" lon="11.4472483"><ele>167.5</ele><time>2026-04-18T13:19:44.019Z</time></trkpt><trkpt lat="43.1450367" lon="11.4473717"><ele>168.0</ele><time>2026-04-18T13:19:45.02Z</time></trkpt><trkpt lat="43.144965" lon="11.4474867"><ele>168.0</ele><time>2026-04-18T13:19:46.019Z</time></trkpt><trkpt lat="43.1449283" lon="11.4475967"><ele>168.0</ele><time>2026-04-18T13:19:47.02Z</time></trkpt><trkpt lat="43.1449217" lon="11.4477117"><ele>168.0</ele><time>2026-04-18T13:19:48.02Z</time></trkpt><trkpt lat="43.1449367" lon="11.4478133"><ele>168.0</ele><time>2026-04-18T13:19:49.019Z</time></trkpt><trkpt lat="43.1449617" lon="11.4479067"><ele>168.0</ele><time>2026-04-18T13:19:51.019Z</time></trkpt><trkpt lat="43.1448967" lon="11.447955"><ele>168.0</ele><time>2026-04-18T13:20:12.019Z</time></trkpt><trkpt lat="43.144885" lon="11.4480867"><ele>167.83333333333334</ele><time>2026-04-18T13:20:14.019Z</time></trkpt><trkpt lat="43.1448833" lon="11.4481933"><ele>167.66666666666666</ele><time>2026-04-18T13:20:15.019Z</time></trkpt><trkpt lat="43.1448667" lon="11.4482967"><ele>167.5</ele><time>2026-04-18T13:20:16.019Z</time></trkpt><trkpt lat="43.144825" lon="11.448395"><ele>167.33333333333331</ele><time>2026-04-18T13:20:17.019Z</time></trkpt><trkpt lat="43.144765" lon="11.4484783"><ele>167.16666666666666</ele><time>2026-04-18T13:20:18.019Z</time></trkpt><trkpt lat="43.1446933" lon="11.44854"><ele>167.0</ele><time>2026-04-18T13:20:19.019Z</time></trkpt><trkpt lat="43.1446017" lon="11.4485767"><ele>167.0</ele><time>2026-04-18T13:20:20.019Z</time></trkpt><trkpt lat="43.1444767" lon="11.4485683"><ele>167.0</ele><time>2026-04-18T13:20:21.019Z</time></trkpt><trkpt lat="43.14433" lon="11.448535"><ele>167.0</ele><time>2026-04-18T13:20:22.019Z</time></trkpt><trkpt lat="43.1441783" lon="11.4484917"><ele>167.0</ele><time>2026-04-18T13:20:23.019Z</time></trkpt><trkpt lat="43.1440233" lon="11.4484233"><ele>168.66666666666666</ele><time>2026-04-18T13:20:24.019Z</time></trkpt><trkpt lat="43.1438617" lon="11.44834"><ele>170.33333333333334</ele><time>2026-04-18T13:20:25.02Z</time></trkpt><trkpt lat="43.14371" lon="11.4482383"><ele>172.0</ele><time>2026-04-18T13:20:26.02Z</time></trkpt><trkpt lat="43.14356" lon="11.44813"><ele>172.0</ele><time>2026-04-18T13:20:27.02Z</time></trkpt><trkpt lat="43.1434217" lon="11.44803"><ele>172.0</ele><time>2026-04-18T13:20:28.019Z</time></trkpt><trkpt lat="43.143285" lon="11.4479283"><ele>172.0</ele><time>2026-04-18T13:20:29.019Z</time></trkpt><trkpt lat="43.1431633" lon="11.447845"><ele>172.0</ele><time>2026-04-18T13:20:30.02Z</time></trkpt><trkpt lat="43.143045" lon="11.4477767"><ele>169.75</ele><time>2026-04-18T13:20:31.019Z</time></trkpt><trkpt lat="43.14293" lon="11.4477233"><ele>167.5</ele><time>2026-04-18T13:20:32.019Z</time></trkpt><trkpt lat="43.1428133" lon="11.447685"><ele>165.25</ele><time>2026-04-18T13:20:33.02Z</time></trkpt><trkpt lat="43.1426817" lon="11.4476633"><ele>163.0</ele><time>2026-04-18T13:20:34.019Z</time></trkpt><trkpt lat="43.1425367" lon="11.4476783"><ele>163.0</ele><time>2026-04-18T13:20:35.02Z</time></trkpt><trkpt lat="43.1423883" lon="11.4476983"><ele>163.0</ele><time>2026-04-18T13:20:36.019Z</time></trkpt><trkpt lat="43.1422217" lon="11.447745"><ele>163.0</ele><time>2026-04-18T13:20:37.019Z</time></trkpt><trkpt lat="43.1420467" lon="11.4478083"><ele>162.66666666666669</ele><time>2026-04-18T13:20:38.019Z</time></trkpt><trkpt lat="43.1418683" lon="11.4478733"><ele>162.33333333333334</ele><time>2026-04-18T13:20:39.02Z</time></trkpt><trkpt lat="43.1416867" lon="11.4479433"><ele>162.0</ele><time>2026-04-18T13:20:40.019Z</time></trkpt><trkpt lat="43.1415083" lon="11.4480033"><ele>165.0</ele><time>2026-04-18T13:20:41.02Z</time></trkpt><trkpt lat="43.1413233" lon="11.4480483"><ele>168.0</ele><time>2026-04-18T13:20:42.019Z</time></trkpt><trkpt lat="43.1411417" lon="11.4480817"><ele>171.0</ele><time>2026-04-18T13:20:43.02Z</time></trkpt><trkpt lat="43.1409767" lon="11.4481133"><ele>171.0</ele><time>2026-04-18T13:20:44.019Z</time></trkpt><trkpt lat="43.140835" lon="11.4481367"><ele>171.0</ele><time>2026-04-18T13:20:45.019Z</time></trkpt><trkpt lat="43.14071" lon="11.448155"><ele>171.0</ele><time>2026-04-18T13:20:46.019Z</time></trkpt><trkpt lat="43.14059" lon="11.4481617"><ele>171.0</ele><time>2026-04-18T13:20:47.02Z</time></trkpt><trkpt lat="43.1404567" lon="11.4481433"><ele>170.25</ele><time>2026-04-18T13:20:48.02Z</time></trkpt><trkpt lat="43.1403117" lon="11.4481"><ele>169.5</ele><time>2026-04-18T13:20:49.019Z</time></trkpt><trkpt lat="43.1401683" lon="11.4480467"><ele>168.75</ele><time>2026-04-18T13:20:50.019Z</time></trkpt><trkpt lat="43.1400417" lon="11.44798"><ele>168.0</ele><time>2026-04-18T13:20:51.019Z</time></trkpt><trkpt lat="43.1399317" lon="11.4479167"><ele>166.0</ele><time>2026-04-18T13:20:52.019Z</time></trkpt><trkpt lat="43.1398417" lon="11.44785"><ele>164.0</ele><time>2026-04-18T13:20:53.02Z</time></trkpt><trkpt lat="43.1397533" lon="11.4478017"><ele>162.0</ele><time>2026-04-18T13:20:54.02Z</time></trkpt><trkpt lat="43.13967" lon="11.4477833"><ele>160.0</ele><time>2026-04-18T13:20:55.019Z</time></trkpt><trkpt lat="43.1395817" lon="11.447805"><ele>158.0</ele><time>2026-04-18T13:20:56.02Z</time></trkpt><trkpt lat="43.1394933" lon="11.4478667"><ele>158.0</ele><time>2026-04-18T13:20:57.019Z</time></trkpt><trkpt lat="43.1394217" lon="11.447955"><ele>158.0</ele><time>2026-04-18T13:20:58.02Z</time></trkpt><trkpt lat="43.13937" lon="11.44808"><ele>158.0</ele><time>2026-04-18T13:20:59.019Z</time></trkpt><trkpt lat="43.1393367" lon="11.448235"><ele>158.0</ele><time>2026-04-18T13:21:00.019Z</time></trkpt><trkpt lat="43.1393167" lon="11.4484217"><ele>158.66666666666666</ele><time>2026-04-18T13:21:01.019Z</time></trkpt><trkpt lat="43.1393" lon="11.4486467"><ele>159.33333333333334</ele><time>2026-04-18T13:21:02.019Z</time></trkpt><trkpt lat="43.1392883" lon="11.448885"><ele>160.0</ele><time>2026-04-18T13:21:03.019Z</time></trkpt><trkpt lat="43.1392833" lon="11.4491383"><ele>160.0</ele><time>2026-04-18T13:21:04.019Z</time></trkpt><trkpt lat="43.13928" lon="11.44939"><ele>160.0</ele><time>2026-04-18T13:21:05.019Z</time></trkpt><trkpt lat="43.1392817" lon="11.4496267"><ele>160.0</ele><time>2026-04-18T13:21:06.019Z</time></trkpt><trkpt lat="43.1392883" lon="11.4498617"><ele>160.0</ele><time>2026-04-18T13:21:07.02Z</time></trkpt><trkpt lat="43.1392967" lon="11.4500917"><ele>160.0</ele><time>2026-04-18T13:21:08.019Z</time></trkpt><trkpt lat="43.1393033" lon="11.450315"><ele>160.0</ele><time>2026-04-18T13:21:09.02Z</time></trkpt><trkpt lat="43.1392983" lon="11.4505283"><ele>160.5</ele><time>2026-04-18T13:21:10.02Z</time></trkpt><trkpt lat="43.13927" lon="11.4507217"><ele>161.0</ele><time>2026-04-18T13:21:11.02Z</time></trkpt><trkpt lat="43.13922" lon="11.4509"><ele>161.5</ele><time>2026-04-18T13:21:12.02Z</time></trkpt><trkpt lat="43.1391467" lon="11.4510783"><ele>162.0</ele><time>2026-04-18T13:21:13.02Z</time></trkpt><trkpt lat="43.13905" lon="11.4512833"><ele>159.66666666666666</ele><time>2026-04-18T13:21:14.019Z</time></trkpt><trkpt lat="43.138935" lon="11.4515083"><ele>157.33333333333331</ele><time>2026-04-18T13:21:15.02Z</time></trkpt><trkpt lat="43.138825" lon="11.451725"><ele>155.0</ele><time>2026-04-18T13:21:16.019Z</time></trkpt><trkpt lat="43.1387283" lon="11.451905"><ele>155.0</ele><time>2026-04-18T13:21:17.02Z</time></trkpt><trkpt lat="43.1386233" lon="11.4520683"><ele>155.0</ele><time>2026-04-18T13:21:18.019Z</time></trkpt><trkpt lat="43.13851" lon="11.452225"><ele>155.0</ele><time>2026-04-18T13:21:19.019Z</time></trkpt><trkpt lat="43.1383867" lon="11.4523783"><ele>154.33333333333331</ele><time>2026-04-18T13:21:20.019Z</time></trkpt><trkpt lat="43.138255" lon="11.4525183"><ele>153.66666666666666</ele><time>2026-04-18T13:21:21.019Z</time></trkpt><trkpt lat="43.1381033" lon="11.4526517"><ele>153.0</ele><time>2026-04-18T13:21:22.019Z</time></trkpt><trkpt lat="43.13793" lon="11.4527783"><ele>153.0</ele><time>2026-04-18T13:21:23.02Z</time></trkpt><trkpt lat="43.1377633" lon="11.45288"><ele>153.0</ele><time>2026-04-18T13:21:24.02Z</time></trkpt><trkpt lat="43.1376033" lon="11.45298"><ele>153.0</ele><time>2026-04-18T13:21:25.02Z</time></trkpt><trkpt lat="43.1374433" lon="11.4530867"><ele>153.0</ele><time>2026-04-18T13:21:26.02Z</time></trkpt><trkpt lat="43.1372917" lon="11.4532"><ele>153.0</ele><time>2026-04-18T13:21:27.019Z</time></trkpt><trkpt lat="43.1371483" lon="11.4533367"><ele>153.0</ele><time>2026-04-18T13:21:28.019Z</time></trkpt><trkpt lat="43.1370133" lon="11.4534733"><ele>153.0</ele><time>2026-04-18T13:21:29.019Z</time></trkpt><trkpt lat="43.1368733" lon="11.4536217"><ele>153.0</ele><time>2026-04-18T13:21:30.019Z</time></trkpt><trkpt lat="43.1367383" lon="11.4537633"><ele>153.0</ele><time>2026-04-18T13:21:31.02Z</time></trkpt><trkpt lat="43.1366167" lon="11.453915"><ele>152.33333333333334</ele><time>2026-04-18T13:21:32.019Z</time></trkpt><trkpt lat="43.1364983" lon="11.454075"><ele>151.66666666666669</ele><time>2026-04-18T13:21:33.02Z</time></trkpt><trkpt lat="43.1363867" lon="11.454245"><ele>151.0</ele><time>2026-04-18T13:21:34.019Z</time></trkpt><trkpt lat="43.1362783" lon="11.4544317"><ele>152.66666666666669</ele><time>2026-04-18T13:21:35.019Z</time></trkpt><trkpt lat="43.136175" lon="11.4546367"><ele>154.33333333333334</ele><time>2026-04-18T13:21:36.019Z</time></trkpt><trkpt lat="43.136075" lon="11.4548583"><ele>156.0</ele><time>2026-04-18T13:21:37.019Z</time></trkpt><trkpt lat="43.13598" lon="11.455075"><ele>156.0</ele><time>2026-04-18T13:21:38.02Z</time></trkpt><trkpt lat="43.13589" lon="11.4552683"><ele>156.0</ele><time>2026-04-18T13:21:39.019Z</time></trkpt><trkpt lat="43.1358" lon="11.455435"><ele>156.0</ele><time>2026-04-18T13:21:40.019Z</time></trkpt><trkpt lat="43.1356967" lon="11.45558"><ele>154.66666666666666</ele><time>2026-04-18T13:21:41.019Z</time></trkpt><trkpt lat="43.1355717" lon="11.4557233"><ele>153.33333333333331</ele><time>2026-04-18T13:21:42.019Z</time></trkpt><trkpt lat="43.1354417" lon="11.45586"><ele>152.0</ele><time>2026-04-18T13:21:43.02Z</time></trkpt><trkpt lat="43.1353067" lon="11.4559983"><ele>152.0</ele><time>2026-04-18T13:21:44.019Z</time></trkpt><trkpt lat="43.13517" lon="11.456145"><ele>152.0</ele><time>2026-04-18T13:21:45.02Z</time></trkpt><trkpt lat="43.1350233" lon="11.4562967"><ele>152.0</ele><time>2026-04-18T13:21:46.019Z</time></trkpt><trkpt lat="43.1348617" lon="11.4564617"><ele>152.0</ele><time>2026-04-18T13:21:47.02Z</time></trkpt><trkpt lat="43.13468" lon="11.45665"><ele>152.0</ele><time>2026-04-18T13:21:48.019Z</time></trkpt><trkpt lat="43.1344767" lon="11.456845"><ele>152.0</ele><time>2026-04-18T13:21:49.019Z</time></trkpt><trkpt lat="43.13428" lon="11.4570383"><ele>152.0</ele><time>2026-04-18T13:21:50.019Z</time></trkpt><trkpt lat="43.13409" lon="11.45723"><ele>151.33333333333331</ele><time>2026-04-18T13:21:51.019Z</time></trkpt><trkpt lat="43.1339167" lon="11.457405"><ele>150.66666666666666</ele><time>2026-04-18T13:21:52.018Z</time></trkpt><trkpt lat="43.1337517" lon="11.4575583"><ele>150.0</ele><time>2026-04-18T13:21:53.018Z</time></trkpt><trkpt lat="43.133595" lon="11.4577067"><ele>150.0</ele><time>2026-04-18T13:21:54.019Z</time></trkpt><trkpt lat="43.133445" lon="11.457835"><ele>150.0</ele><time>2026-04-18T13:21:55.018Z</time></trkpt><trkpt lat="43.1333083" lon="11.45797"><ele>150.0</ele><time>2026-04-18T13:21:56.019Z</time></trkpt><trkpt lat="43.1331783" lon="11.45811"><ele>149.0</ele><time>2026-04-18T13:21:57.019Z</time></trkpt><trkpt lat="43.133055" lon="11.4582517"><ele>148.0</ele><time>2026-04-18T13:21:58.018Z</time></trkpt><trkpt lat="43.1329383" lon="11.4583917"><ele>147.0</ele><time>2026-04-18T13:21:59.018Z</time></trkpt><trkpt lat="43.132825" lon="11.4585333"><ele>147.0</ele><time>2026-04-18T13:22:00.018Z</time></trkpt><trkpt lat="43.1327217" lon="11.4586733"><ele>147.0</ele><time>2026-04-18T13:22:01.019Z</time></trkpt><trkpt lat="43.13263" lon="11.458835"><ele>147.0</ele><time>2026-04-18T13:22:02.018Z</time></trkpt><trkpt lat="43.1325517" lon="11.4590317"><ele>146.33333333333334</ele><time>2026-04-18T13:22:03.019Z</time></trkpt><trkpt lat="43.1324767" lon="11.4592567"><ele>145.66666666666669</ele><time>2026-04-18T13:22:04.019Z</time></trkpt><trkpt lat="43.1324083" lon="11.4594983"><ele>145.0</ele><time>2026-04-18T13:22:05.019Z</time></trkpt><trkpt lat="43.13235" lon="11.4597283"><ele>145.0</ele><time>2026-04-18T13:22:06.018Z</time></trkpt><trkpt lat="43.1322983" lon="11.459945"><ele>145.0</ele><time>2026-04-18T13:22:07.018Z</time></trkpt><trkpt lat="43.1322483" lon="11.4601583"><ele>145.0</ele><time>2026-04-18T13:22:08.019Z</time></trkpt><trkpt lat="43.132205" lon="11.46035"><ele>145.25</ele><time>2026-04-18T13:22:09.018Z</time></trkpt><trkpt lat="43.13216" lon="11.46052"><ele>145.5</ele><time>2026-04-18T13:22:10.018Z</time></trkpt><trkpt lat="43.1321333" lon="11.4606667"><ele>145.75</ele><time>2026-04-18T13:22:11.018Z</time></trkpt><trkpt lat="43.1321117" lon="11.4608167"><ele>146.0</ele><time>2026-04-18T13:22:12.018Z</time></trkpt><trkpt lat="43.1321083" lon="11.4609667"><ele>146.0</ele><time>2026-04-18T13:22:13.019Z</time></trkpt><trkpt lat="43.1321167" lon="11.4611283"><ele>146.0</ele><time>2026-04-18T13:22:14.019Z</time></trkpt><trkpt lat="43.1321317" lon="11.4612783"><ele>146.0</ele><time>2026-04-18T13:22:15.018Z</time></trkpt><trkpt lat="43.1321483" lon="11.4614283"><ele>146.0</ele><time>2026-04-18T13:22:16.018Z</time></trkpt><trkpt lat="43.1321567" lon="11.46155"><ele>146.0</ele><time>2026-04-18T13:22:17.019Z</time></trkpt><trkpt lat="43.1321567" lon="11.461715"><ele>146.0</ele><time>2026-04-18T13:22:19.018Z</time></trkpt><trkpt lat="43.1321417" lon="11.461825"><ele>146.0</ele><time>2026-04-18T13:22:22.019Z</time></trkpt><trkpt lat="43.1320717" lon="11.4618233"><ele>146.0</ele><time>2026-04-18T13:22:28.019Z</time></trkpt><trkpt lat="43.132005" lon="11.4617133"><ele>146.0</ele><time>2026-04-18T13:22:46.019Z</time></trkpt><trkpt lat="43.1319417" lon="11.4616183"><ele>146.0</ele><time>2026-04-18T13:22:48.018Z</time></trkpt><trkpt lat="43.1318167" lon="11.4615767"><ele>146.0</ele><time>2026-04-18T13:22:50.019Z</time></trkpt><trkpt lat="43.13173" lon="11.4615683"><ele>146.0</ele><time>2026-04-18T13:22:51.019Z</time></trkpt><trkpt lat="43.1316367" lon="11.46156"><ele>146.0</ele><time>2026-04-18T13:22:52.019Z</time></trkpt><trkpt lat="43.1315483" lon="11.4615533"><ele>146.0</ele><time>2026-04-18T13:22:53.018Z</time></trkpt><trkpt lat="43.1314667" lon="11.461525"><ele>146.0</ele><time>2026-04-18T13:22:54.018Z</time></trkpt><trkpt lat="43.13139" lon="11.4614767"><ele>146.0</ele><time>2026-04-18T13:22:55.018Z</time></trkpt><trkpt lat="43.1313283" lon="11.461415"><ele>145.5</ele><time>2026-04-18T13:22:56.019Z</time></trkpt><trkpt lat="43.1312717" lon="11.461335"><ele>145.0</ele><time>2026-04-18T13:22:57.018Z</time></trkpt><trkpt lat="43.13122" lon="11.461235"><ele>144.5</ele><time>2026-04-18T13:22:58.018Z</time></trkpt><trkpt lat="43.131165" lon="11.46113"><ele>144.0</ele><time>2026-04-18T13:22:59.018Z</time></trkpt><trkpt lat="43.13111" lon="11.4610267"><ele>143.5</ele><time>2026-04-18T13:23:00.018Z</time></trkpt><trkpt lat="43.1310583" lon="11.460945"><ele>143.0</ele><time>2026-04-18T13:23:01.018Z</time></trkpt><trkpt lat="43.131" lon="11.46088"><ele>143.0</ele><time>2026-04-18T13:23:02.019Z</time></trkpt><trkpt lat="43.1309167" lon="11.4608267"><ele>143.0</ele><time>2026-04-18T13:23:03.019Z</time></trkpt><trkpt lat="43.1308183" lon="11.460795"><ele>143.0</ele><time>2026-04-18T13:23:04.018Z</time></trkpt><trkpt lat="43.1307283" lon="11.4607767"><ele>143.0</ele><time>2026-04-18T13:23:05.019Z</time></trkpt><trkpt lat="43.1306383" lon="11.4607383"><ele>143.0</ele><time>2026-04-18T13:23:06.018Z</time></trkpt><trkpt lat="43.1305567" lon="11.4606733"><ele>142.75</ele><time>2026-04-18T13:23:07.018Z</time></trkpt><trkpt lat="43.1304917" lon="11.4605833"><ele>142.5</ele><time>2026-04-18T13:23:08.019Z</time></trkpt><trkpt lat="43.1304417" lon="11.4604717"><ele>142.25</ele><time>2026-04-18T13:23:09.018Z</time></trkpt><trkpt lat="43.1304017" lon="11.4603017"><ele>142.0</ele><time>2026-04-18T13:23:10.018Z</time></trkpt><trkpt lat="43.1303483" lon="11.4600733"><ele>142.66666666666669</ele><time>2026-04-18T13:23:11.018Z</time></trkpt><trkpt lat="43.130295" lon="11.459795"><ele>143.33333333333334</ele><time>2026-04-18T13:23:12.018Z</time></trkpt><trkpt lat="43.1302383" lon="11.45951"><ele>144.0</ele><time>2026-04-18T13:23:13.018Z</time></trkpt><trkpt lat="43.1301883" lon="11.4592533"><ele>144.33333333333334</ele><time>2026-04-18T13:23:14.019Z</time></trkpt><trkpt lat="43.1301383" lon="11.45902"><ele>144.66666666666669</ele><time>2026-04-18T13:23:15.018Z</time></trkpt><trkpt lat="43.13009" lon="11.4588233"><ele>145.0</ele><time>2026-04-18T13:23:16.019Z</time></trkpt><trkpt lat="43.1300533" lon="11.458665"><ele>146.2</ele><time>2026-04-18T13:23:17.019Z</time></trkpt><trkpt lat="43.130025" lon="11.4585383"><ele>147.4</ele><time>2026-04-18T13:23:18.019Z</time></trkpt><trkpt lat="43.1300133" lon="11.45843"><ele>148.6</ele><time>2026-04-18T13:23:19.018Z</time></trkpt><trkpt lat="43.13002" lon="11.4582733"><ele>149.8</ele><time>2026-04-18T13:23:21.018Z</time></trkpt><trkpt lat="43.1299767" lon="11.4581233"><ele>151.0</ele><time>2026-04-18T13:23:23.018Z</time></trkpt><trkpt lat="43.129925" lon="11.4580367"><ele>153.5</ele><time>2026-04-18T13:23:24.018Z</time></trkpt><trkpt lat="43.1298633" lon="11.4579317"><ele>156.0</ele><time>2026-04-18T13:23:25.018Z</time></trkpt><trkpt lat="43.1297983" lon="11.45781"><ele>158.5</ele><time>2026-04-18T13:23:26.018Z</time></trkpt><trkpt lat="43.1297117" lon="11.4576483"><ele>161.0</ele><time>2026-04-18T13:23:27.018Z</time></trkpt><trkpt lat="43.12959" lon="11.4574583"><ele>161.0</ele><time>2026-04-18T13:23:28.018Z</time></trkpt><trkpt lat="43.129475" lon="11.457265"><ele>161.0</ele><time>2026-04-18T13:23:29.018Z</time></trkpt><trkpt lat="43.1293717" lon="11.4570733"><ele>161.0</ele><time>2026-04-18T13:23:30.018Z</time></trkpt><trkpt lat="43.1292617" lon="11.4568767"><ele>161.66666666666666</ele><time>2026-04-18T13:23:31.019Z</time></trkpt><trkpt lat="43.12915" lon="11.456675"><ele>162.33333333333334</ele><time>2026-04-18T13:23:32.018Z</time></trkpt><trkpt lat="43.1290367" lon="11.4564733"><ele>163.0</ele><time>2026-04-18T13:23:33.018Z</time></trkpt><trkpt lat="43.1289233" lon="11.4562733"><ele>167.0</ele><time>2026-04-18T13:23:34.019Z</time></trkpt><trkpt lat="43.128815" lon="11.45608"><ele>171.0</ele><time>2026-04-18T13:23:35.019Z</time></trkpt><trkpt lat="43.1287117" lon="11.4558933"><ele>175.0</ele><time>2026-04-18T13:23:36.019Z</time></trkpt><trkpt lat="43.1286083" lon="11.455725"><ele>175.0</ele><time>2026-04-18T13:23:37.018Z</time></trkpt><trkpt lat="43.1284967" lon="11.45558"><ele>175.0</ele><time>2026-04-18T13:23:38.019Z</time></trkpt><trkpt lat="43.1283617" lon="11.4554683"><ele>175.0</ele><time>2026-04-18T13:23:39.019Z</time></trkpt><trkpt lat="43.1282083" lon="11.4553717"><ele>181.0</ele><time>2026-04-18T13:23:40.018Z</time></trkpt><trkpt lat="43.1280383" lon="11.4552917"><ele>187.0</ele><time>2026-04-18T13:23:41.019Z</time></trkpt><trkpt lat="43.1278517" lon="11.455205"><ele>193.0</ele><time>2026-04-18T13:23:42.018Z</time></trkpt><trkpt lat="43.1276783" lon="11.4551233"><ele>193.0</ele><time>2026-04-18T13:23:43.018Z</time></trkpt><trkpt lat="43.127515" lon="11.45505"><ele>193.0</ele><time>2026-04-18T13:23:44.018Z</time></trkpt><trkpt lat="43.1273583" lon="11.454965"><ele>193.0</ele><time>2026-04-18T13:23:45.019Z</time></trkpt><trkpt lat="43.127215" lon="11.45485"><ele>196.66666666666666</ele><time>2026-04-18T13:23:46.018Z</time></trkpt><trkpt lat="43.1270767" lon="11.4546967"><ele>200.33333333333331</ele><time>2026-04-18T13:23:47.019Z</time></trkpt><trkpt lat="43.1269667" lon="11.4545083"><ele>204.0</ele><time>2026-04-18T13:23:48.019Z</time></trkpt><trkpt lat="43.1268767" lon="11.4542967"><ele>207.0</ele><time>2026-04-18T13:23:49.018Z</time></trkpt><trkpt lat="43.1268217" lon="11.45407"><ele>210.0</ele><time>2026-04-18T13:23:50.019Z</time></trkpt><trkpt lat="43.1267933" lon="11.4538067"><ele>213.0</ele><time>2026-04-18T13:23:51.018Z</time></trkpt><trkpt lat="43.1267817" lon="11.453535"><ele>215.0</ele><time>2026-04-18T13:23:52.018Z</time></trkpt><trkpt lat="43.1267783" lon="11.4532667"><ele>217.0</ele><time>2026-04-18T13:23:53.019Z</time></trkpt><trkpt lat="43.126775" lon="11.4530017"><ele>219.0</ele><time>2026-04-18T13:23:54.018Z</time></trkpt><trkpt lat="43.1267767" lon="11.4527483"><ele>220.0</ele><time>2026-04-18T13:23:55.018Z</time></trkpt><trkpt lat="43.126785" lon="11.4524967"><ele>221.0</ele><time>2026-04-18T13:23:56.019Z</time></trkpt><trkpt lat="43.1267783" lon="11.4522333"><ele>222.0</ele><time>2026-04-18T13:23:57.018Z</time></trkpt><trkpt lat="43.1267633" lon="11.4519617"><ele>223.0</ele><time>2026-04-18T13:23:58.018Z</time></trkpt><trkpt lat="43.12674" lon="11.451695"><ele>224.0</ele><time>2026-04-18T13:23:59.018Z</time></trkpt><trkpt lat="43.1266967" lon="11.451415"><ele>225.0</ele><time>2026-04-18T13:24:00.019Z</time></trkpt><trkpt lat="43.126635" lon="11.4511417"><ele>225.0</ele><time>2026-04-18T13:24:01.019Z</time></trkpt><trkpt lat="43.1265567" lon="11.4508733"><ele>225.0</ele><time>2026-04-18T13:24:02.019Z</time></trkpt><trkpt lat="43.1264717" lon="11.45061"><ele>225.0</ele><time>2026-04-18T13:24:03.018Z</time></trkpt><trkpt lat="43.126385" lon="11.450355"><ele>227.0</ele><time>2026-04-18T13:24:04.018Z</time></trkpt><trkpt lat="43.1263083" lon="11.4501167"><ele>229.0</ele><time>2026-04-18T13:24:05.018Z</time></trkpt><trkpt lat="43.1262367" lon="11.4498917"><ele>231.0</ele><time>2026-04-18T13:24:06.018Z</time></trkpt><trkpt lat="43.1261817" lon="11.4496917"><ele>234.0</ele><time>2026-04-18T13:24:07.019Z</time></trkpt><trkpt lat="43.126115" lon="11.4495067"><ele>237.0</ele><time>2026-04-18T13:24:08.018Z</time></trkpt><trkpt lat="43.12601" lon="11.4493567"><ele>240.0</ele><time>2026-04-18T13:24:09.018Z</time></trkpt><trkpt lat="43.1258783" lon="11.4492333"><ele>239.66666666666669</ele><time>2026-04-18T13:24:10.018Z</time></trkpt><trkpt lat="43.1257183" lon="11.449145"><ele>239.33333333333334</ele><time>2026-04-18T13:24:11.018Z</time></trkpt><trkpt lat="43.1255517" lon="11.44908"><ele>239.0</ele><time>2026-04-18T13:24:12.019Z</time></trkpt><trkpt lat="43.1254033" lon="11.44903"><ele>239.0</ele><time>2026-04-18T13:24:13.019Z</time></trkpt><trkpt lat="43.1252833" lon="11.4489817"><ele>238.99999999999997</ele><time>2026-04-18T13:24:14.018Z</time></trkpt><trkpt lat="43.1251733" lon="11.4489367"><ele>238.99999999999997</ele><time>2026-04-18T13:24:15.018Z</time></trkpt><trkpt lat="43.1250767" lon="11.448895"><ele>239.0</ele><time>2026-04-18T13:24:16.018Z</time></trkpt><trkpt lat="43.125" lon="11.4488533"><ele>239.0</ele><time>2026-04-18T13:24:17.018Z</time></trkpt><trkpt lat="43.12493" lon="11.448815"><ele>239.16666666666669</ele><time>2026-04-18T13:24:18.018Z</time></trkpt><trkpt lat="43.1248533" lon="11.4487733"><ele>239.33333333333334</ele><time>2026-04-18T13:24:19.018Z</time></trkpt><trkpt lat="43.1247733" lon="11.44874"><ele>239.5</ele><time>2026-04-18T13:24:20.019Z</time></trkpt><trkpt lat="43.1246917" lon="11.448735"><ele>239.66666666666669</ele><time>2026-04-18T13:24:21.018Z</time></trkpt><trkpt lat="43.1246117" lon="11.44877"><ele>239.83333333333334</ele><time>2026-04-18T13:24:22.018Z</time></trkpt><trkpt lat="43.1245317" lon="11.448845"><ele>240.0</ele><time>2026-04-18T13:24:23.019Z</time></trkpt><trkpt lat="43.1244583" lon="11.448945"><ele>239.4</ele><time>2026-04-18T13:24:24.018Z</time></trkpt><trkpt lat="43.12439" lon="11.4490483"><ele>238.8</ele><time>2026-04-18T13:24:25.019Z</time></trkpt><trkpt lat="43.1243117" lon="11.4491383"><ele>238.2</ele><time>2026-04-18T13:24:26.019Z</time></trkpt><trkpt lat="43.1242283" lon="11.4491967"><ele>237.6</ele><time>2026-04-18T13:24:27.018Z</time></trkpt><trkpt lat="43.12414" lon="11.4492167"><ele>237.0</ele><time>2026-04-18T13:24:28.018Z</time></trkpt><trkpt lat="43.1240333" lon="11.4492033"><ele>236.25</ele><time>2026-04-18T13:24:29.019Z</time></trkpt><trkpt lat="43.1239217" lon="11.4491833"><ele>235.5</ele><time>2026-04-18T13:24:30.018Z</time></trkpt><trkpt lat="43.1238" lon="11.44915"><ele>234.75</ele><time>2026-04-18T13:24:31.019Z</time></trkpt><trkpt lat="43.12369" lon="11.4491183"><ele>234.0</ele><time>2026-04-18T13:24:32.019Z</time></trkpt><trkpt lat="43.1235733" lon="11.4490683"><ele>234.0</ele><time>2026-04-18T13:24:33.019Z</time></trkpt><trkpt lat="43.1234517" lon="11.4490217"><ele>234.0</ele><time>2026-04-18T13:24:34.018Z</time></trkpt><trkpt lat="43.1233317" lon="11.4489833"><ele>234.0</ele><time>2026-04-18T13:24:35.018Z</time></trkpt><trkpt lat="43.1232067" lon="11.448945"><ele>234.0</ele><time>2026-04-18T13:24:36.018Z</time></trkpt><trkpt lat="43.1230783" lon="11.448905"><ele>233.25</ele><time>2026-04-18T13:24:37.018Z</time></trkpt><trkpt lat="43.1229483" lon="11.4488567"><ele>232.5</ele><time>2026-04-18T13:24:38.019Z</time></trkpt><trkpt lat="43.1228167" lon="11.4488083"><ele>231.75</ele><time>2026-04-18T13:24:39.018Z</time></trkpt><trkpt lat="43.1226867" lon="11.4487683"><ele>231.0</ele><time>2026-04-18T13:24:40.018Z</time></trkpt><trkpt lat="43.1225567" lon="11.4487283"><ele>230.75</ele><time>2026-04-18T13:24:41.019Z</time></trkpt><trkpt lat="43.1224333" lon="11.4486867"><ele>230.5</ele><time>2026-04-18T13:24:42.019Z</time></trkpt><trkpt lat="43.1223133" lon="11.4486417"><ele>230.25</ele><time>2026-04-18T13:24:43.019Z</time></trkpt><trkpt lat="43.1221833" lon="11.4485917"><ele>230.0</ele><time>2026-04-18T13:24:44.018Z</time></trkpt><trkpt lat="43.1220517" lon="11.4485467"><ele>228.5</ele><time>2026-04-18T13:24:45.018Z</time></trkpt><trkpt lat="43.1219283" lon="11.4485033"><ele>227.0</ele><time>2026-04-18T13:24:46.019Z</time></trkpt><trkpt lat="43.1218017" lon="11.4484567"><ele>225.5</ele><time>2026-04-18T13:24:47.018Z</time></trkpt><trkpt lat="43.1216833" lon="11.4484033"><ele>224.0</ele><time>2026-04-18T13:24:48.018Z</time></trkpt><trkpt lat="43.121575" lon="11.4483433"><ele>222.25</ele><time>2026-04-18T13:24:49.018Z</time></trkpt><trkpt lat="43.12147" lon="11.4482533"><ele>220.5</ele><time>2026-04-18T13:24:50.018Z</time></trkpt><trkpt lat="43.12138" lon="11.4481433"><ele>218.75</ele><time>2026-04-18T13:24:51.018Z</time></trkpt><trkpt lat="43.121305" lon="11.448"><ele>217.0</ele><time>2026-04-18T13:24:52.018Z</time></trkpt><trkpt lat="43.121245" lon="11.4478383"><ele>217.0</ele><time>2026-04-18T13:24:53.019Z</time></trkpt><trkpt lat="43.1211867" lon="11.4476683"><ele>217.0</ele><time>2026-04-18T13:24:54.019Z</time></trkpt><trkpt lat="43.1211283" lon="11.4474983"><ele>217.0</ele><time>2026-04-18T13:24:55.019Z</time></trkpt><trkpt lat="43.1210767" lon="11.4473267"><ele>217.0</ele><time>2026-04-18T13:24:56.018Z</time></trkpt><trkpt lat="43.1210283" lon="11.4471583"><ele>216.0</ele><time>2026-04-18T13:24:57.018Z</time></trkpt><trkpt lat="43.1209817" lon="11.4470033"><ele>215.0</ele><time>2026-04-18T13:24:58.019Z</time></trkpt><trkpt lat="43.1209383" lon="11.446845"><ele>214.0</ele><time>2026-04-18T13:24:59.019Z</time></trkpt><trkpt lat="43.1208883" lon="11.4466933"><ele>213.0</ele><time>2026-04-18T13:25:00.018Z</time></trkpt><trkpt lat="43.1208367" lon="11.4465417"><ele>213.0</ele><time>2026-04-18T13:25:01.018Z</time></trkpt><trkpt lat="43.1207933" lon="11.4464"><ele>213.0</ele><time>2026-04-18T13:25:02.018Z</time></trkpt><trkpt lat="43.1207517" lon="11.4462633"><ele>213.0</ele><time>2026-04-18T13:25:03.019Z</time></trkpt><trkpt lat="43.1207167" lon="11.4461283"><ele>213.0</ele><time>2026-04-18T13:25:04.018Z</time></trkpt><trkpt lat="43.1207033" lon="11.4459883"><ele>213.0</ele><time>2026-04-18T13:25:05.018Z</time></trkpt><trkpt lat="43.1207033" lon="11.4458417"><ele>212.5</ele><time>2026-04-18T13:25:06.019Z</time></trkpt><trkpt lat="43.1207317" lon="11.4456983"><ele>212.0</ele><time>2026-04-18T13:25:07.019Z</time></trkpt><trkpt lat="43.1207767" lon="11.4455533"><ele>211.5</ele><time>2026-04-18T13:25:08.018Z</time></trkpt><trkpt lat="43.1208283" lon="11.445405"><ele>211.0</ele><time>2026-04-18T13:25:09.019Z</time></trkpt><trkpt lat="43.12087" lon="11.445265"><ele>211.0</ele><time>2026-04-18T13:25:10.019Z</time></trkpt><trkpt lat="43.1208967" lon="11.4451183"><ele>211.0</ele><time>2026-04-18T13:25:11.018Z</time></trkpt><trkpt lat="43.1208983" lon="11.444965"><ele>211.0</ele><time>2026-04-18T13:25:12.019Z</time></trkpt><trkpt lat="43.1208733" lon="11.4448217"><ele>211.0</ele><time>2026-04-18T13:25:13.019Z</time></trkpt><trkpt lat="43.1208083" lon="11.4446867"><ele>211.0</ele><time>2026-04-18T13:25:14.019Z</time></trkpt><trkpt lat="43.1207333" lon="11.444585"><ele>209.25</ele><time>2026-04-18T13:25:15.018Z</time></trkpt><trkpt lat="43.1206317" lon="11.44449"><ele>207.5</ele><time>2026-04-18T13:25:16.017Z</time></trkpt><trkpt lat="43.12051" lon="11.4443967"><ele>205.75</ele><time>2026-04-18T13:25:17.017Z</time></trkpt><trkpt lat="43.1203683" lon="11.4443"><ele>204.0</ele><time>2026-04-18T13:25:18.017Z</time></trkpt><trkpt lat="43.120235" lon="11.4442133"><ele>204.0</ele><time>2026-04-18T13:25:19.017Z</time></trkpt><trkpt lat="43.1200983" lon="11.444115"><ele>204.0</ele><time>2026-04-18T13:25:20.018Z</time></trkpt><trkpt lat="43.119965" lon="11.4440183"><ele>204.0</ele><time>2026-04-18T13:25:21.018Z</time></trkpt><trkpt lat="43.11982" lon="11.443935"><ele>201.33333333333331</ele><time>2026-04-18T13:25:22.018Z</time></trkpt><trkpt lat="43.11968" lon="11.4438467"><ele>198.66666666666666</ele><time>2026-04-18T13:25:23.017Z</time></trkpt><trkpt lat="43.119545" lon="11.4437533"><ele>196.0</ele><time>2026-04-18T13:25:24.018Z</time></trkpt><trkpt lat="43.1194017" lon="11.4436733"><ele>194.75</ele><time>2026-04-18T13:25:25.018Z</time></trkpt><trkpt lat="43.1192667" lon="11.443585"><ele>193.5</ele><time>2026-04-18T13:25:26.018Z</time></trkpt><trkpt lat="43.1191367" lon="11.4434783"><ele>192.25</ele><time>2026-04-18T13:25:27.017Z</time></trkpt><trkpt lat="43.119015" lon="11.443365"><ele>191.0</ele><time>2026-04-18T13:25:28.017Z</time></trkpt><trkpt lat="43.1188933" lon="11.4432367"><ele>190.0</ele><time>2026-04-18T13:25:29.018Z</time></trkpt><trkpt lat="43.11878" lon="11.44311"><ele>189.0</ele><time>2026-04-18T13:25:30.017Z</time></trkpt><trkpt lat="43.1186767" lon="11.44297"><ele>188.0</ele><time>2026-04-18T13:25:31.017Z</time></trkpt><trkpt lat="43.1185883" lon="11.442835"><ele>187.0</ele><time>2026-04-18T13:25:32.018Z</time></trkpt><trkpt lat="43.1184833" lon="11.442715"><ele>184.25</ele><time>2026-04-18T13:25:33.017Z</time></trkpt><trkpt lat="43.118365" lon="11.442605"><ele>181.5</ele><time>2026-04-18T13:25:34.017Z</time></trkpt><trkpt lat="43.1182567" lon="11.4424933"><ele>178.75</ele><time>2026-04-18T13:25:35.017Z</time></trkpt><trkpt lat="43.1181483" lon="11.4423983"><ele>176.0</ele><time>2026-04-18T13:25:36.017Z</time></trkpt><trkpt lat="43.11804" lon="11.4423083"><ele>176.0</ele><time>2026-04-18T13:25:37.017Z</time></trkpt><trkpt lat="43.11794" lon="11.4422233"><ele>176.0</ele><time>2026-04-18T13:25:38.017Z</time></trkpt><trkpt lat="43.1178467" lon="11.4421483"><ele>176.0</ele><time>2026-04-18T13:25:39.017Z</time></trkpt><trkpt lat="43.117755" lon="11.44208"><ele>176.0</ele><time>2026-04-18T13:25:40.017Z</time></trkpt><trkpt lat="43.1176733" lon="11.4420167"><ele>176.0</ele><time>2026-04-18T13:25:41.017Z</time></trkpt><trkpt lat="43.1175883" lon="11.4419767"><ele>173.8</ele><time>2026-04-18T13:25:42.017Z</time></trkpt><trkpt lat="43.1174967" lon="11.4419483"><ele>171.60000000000002</ele><time>2026-04-18T13:25:43.018Z</time></trkpt><trkpt lat="43.1173933" lon="11.4419433"><ele>169.4</ele><time>2026-04-18T13:25:44.017Z</time></trkpt><trkpt lat="43.117285" lon="11.4419683"><ele>167.2</ele><time>2026-04-18T13:25:45.018Z</time></trkpt><trkpt lat="43.1171767" lon="11.4420217"><ele>165.0</ele><time>2026-04-18T13:25:46.017Z</time></trkpt><trkpt lat="43.1170667" lon="11.442085"><ele>165.75</ele><time>2026-04-18T13:25:47.018Z</time></trkpt><trkpt lat="43.1169517" lon="11.44216"><ele>166.5</ele><time>2026-04-18T13:25:48.018Z</time></trkpt><trkpt lat="43.1168317" lon="11.4422083"><ele>167.25</ele><time>2026-04-18T13:25:49.017Z</time></trkpt><trkpt lat="43.11672" lon="11.4422317"><ele>168.0</ele><time>2026-04-18T13:25:50.017Z</time></trkpt><trkpt lat="43.11662" lon="11.4422333"><ele>168.0</ele><time>2026-04-18T13:25:51.017Z</time></trkpt><trkpt lat="43.1165283" lon="11.4421983"><ele>168.0</ele><time>2026-04-18T13:25:52.018Z</time></trkpt><trkpt lat="43.1164367" lon="11.4421083"><ele>168.0</ele><time>2026-04-18T13:25:53.017Z</time></trkpt><trkpt lat="43.1163367" lon="11.4419833"><ele>168.0</ele><time>2026-04-18T13:25:54.018Z</time></trkpt><trkpt lat="43.116235" lon="11.441855"><ele>165.75</ele><time>2026-04-18T13:25:55.018Z</time></trkpt><trkpt lat="43.1161433" lon="11.4417333"><ele>163.5</ele><time>2026-04-18T13:25:56.017Z</time></trkpt><trkpt lat="43.11605" lon="11.441615"><ele>161.25</ele><time>2026-04-18T13:25:57.017Z</time></trkpt><trkpt lat="43.1159533" lon="11.4415167"><ele>159.0</ele><time>2026-04-18T13:25:58.018Z</time></trkpt><trkpt lat="43.1158617" lon="11.44142"><ele>159.0</ele><time>2026-04-18T13:25:59.018Z</time></trkpt><trkpt lat="43.11578" lon="11.4413417"><ele>159.0</ele><time>2026-04-18T13:26:00.017Z</time></trkpt><trkpt lat="43.1156983" lon="11.4412733"><ele>159.0</ele><time>2026-04-18T13:26:01.018Z</time></trkpt><trkpt lat="43.1156033" lon="11.4412333"><ele>159.0</ele><time>2026-04-18T13:26:02.017Z</time></trkpt><trkpt lat="43.115495" lon="11.4412167"><ele>159.0</ele><time>2026-04-18T13:26:03.017Z</time></trkpt><trkpt lat="43.11537" lon="11.4412333"><ele>156.66666666666666</ele><time>2026-04-18T13:26:04.017Z</time></trkpt><trkpt lat="43.1152317" lon="11.4412617"><ele>154.33333333333331</ele><time>2026-04-18T13:26:05.018Z</time></trkpt><trkpt lat="43.11508" lon="11.4413017"><ele>152.0</ele><time>2026-04-18T13:26:06.017Z</time></trkpt><trkpt lat="43.1149133" lon="11.4413233"><ele>148.33333333333331</ele><time>2026-04-18T13:26:07.017Z</time></trkpt><trkpt lat="43.114735" lon="11.4413383"><ele>144.66666666666666</ele><time>2026-04-18T13:26:08.017Z</time></trkpt><trkpt lat="43.1145583" lon="11.4413483"><ele>141.0</ele><time>2026-04-18T13:26:09.017Z</time></trkpt><trkpt lat="43.1143817" lon="11.44136"><ele>141.0</ele><time>2026-04-18T13:26:10.017Z</time></trkpt><trkpt lat="43.11421" lon="11.4413717"><ele>141.0</ele><time>2026-04-18T13:26:11.017Z</time></trkpt><trkpt lat="43.11404" lon="11.44138"><ele>141.0</ele><time>2026-04-18T13:26:12.018Z</time></trkpt><trkpt lat="43.11387" lon="11.4413883"><ele>140.0</ele><time>2026-04-18T13:26:13.018Z</time></trkpt><trkpt lat="43.113695" lon="11.441395"><ele>139.0</ele><time>2026-04-18T13:26:14.017Z</time></trkpt><trkpt lat="43.1135233" lon="11.4414067"><ele>138.0</ele><time>2026-04-18T13:26:15.018Z</time></trkpt><trkpt lat="43.1133517" lon="11.4414217"><ele>137.66666666666666</ele><time>2026-04-18T13:26:16.017Z</time></trkpt><trkpt lat="43.1131833" lon="11.4414367"><ele>137.33333333333331</ele><time>2026-04-18T13:26:17.017Z</time></trkpt><trkpt lat="43.1130133" lon="11.4414533"><ele>137.0</ele><time>2026-04-18T13:26:18.018Z</time></trkpt><trkpt lat="43.1128483" lon="11.4414767"><ele>137.0</ele><time>2026-04-18T13:26:19.017Z</time></trkpt><trkpt lat="43.11268" lon="11.44149"><ele>137.0</ele><time>2026-04-18T13:26:20.018Z</time></trkpt><trkpt lat="43.1125183" lon="11.4415083"><ele>137.0</ele><time>2026-04-18T13:26:21.017Z</time></trkpt><trkpt lat="43.1123567" lon="11.4415217"><ele>136.66666666666666</ele><time>2026-04-18T13:26:22.018Z</time></trkpt><trkpt lat="43.1121983" lon="11.4415383"><ele>136.33333333333334</ele><time>2026-04-18T13:26:23.018Z</time></trkpt><trkpt lat="43.1120383" lon="11.441555"><ele>136.0</ele><time>2026-04-18T13:26:24.017Z</time></trkpt><trkpt lat="43.111885" lon="11.4415733"><ele>136.0</ele><time>2026-04-18T13:26:25.018Z</time></trkpt><trkpt lat="43.111735" lon="11.4415883"><ele>136.0</ele><time>2026-04-18T13:26:26.018Z</time></trkpt><trkpt lat="43.111575" lon="11.441605"><ele>136.0</ele><time>2026-04-18T13:26:27.017Z</time></trkpt><trkpt lat="43.1114167" lon="11.441625"><ele>135.66666666666669</ele><time>2026-04-18T13:26:28.017Z</time></trkpt><trkpt lat="43.1112517" lon="11.44165"><ele>135.33333333333334</ele><time>2026-04-18T13:26:29.017Z</time></trkpt><trkpt lat="43.1110783" lon="11.4416733"><ele>135.0</ele><time>2026-04-18T13:26:30.017Z</time></trkpt><trkpt lat="43.110905" lon="11.4416883"><ele>134.33333333333334</ele><time>2026-04-18T13:26:31.017Z</time></trkpt><trkpt lat="43.11073" lon="11.4417067"><ele>133.66666666666669</ele><time>2026-04-18T13:26:32.017Z</time></trkpt><trkpt lat="43.11056" lon="11.4417167"><ele>133.0</ele><time>2026-04-18T13:26:33.017Z</time></trkpt><trkpt lat="43.110385" lon="11.4417333"><ele>133.0</ele><time>2026-04-18T13:26:34.017Z</time></trkpt><trkpt lat="43.1101967" lon="11.4417683"><ele>133.0</ele><time>2026-04-18T13:26:35.017Z</time></trkpt><trkpt lat="43.110005" lon="11.4418217"><ele>133.0</ele><time>2026-04-18T13:26:36.018Z</time></trkpt><trkpt lat="43.1097983" lon="11.4418883"><ele>133.0</ele><time>2026-04-18T13:26:37.017Z</time></trkpt><trkpt lat="43.109595" lon="11.441975"><ele>133.0</ele><time>2026-04-18T13:26:38.017Z</time></trkpt><trkpt lat="43.109395" lon="11.44205"><ele>133.0</ele><time>2026-04-18T13:26:39.017Z</time></trkpt><trkpt lat="43.1091983" lon="11.4421183"><ele>133.0</ele><time>2026-04-18T13:26:40.018Z</time></trkpt><trkpt lat="43.1090067" lon="11.4421767"><ele>133.0</ele><time>2026-04-18T13:26:41.017Z</time></trkpt><trkpt lat="43.1088117" lon="11.4422267"><ele>133.0</ele><time>2026-04-18T13:26:42.017Z</time></trkpt><trkpt lat="43.1086211" lon="11.442277"><ele>133.0</ele><time>2026-04-18T13:26:43.017Z</time></trkpt><trkpt lat="43.1084485" lon="11.4423141"><ele>133.0</ele><time>2026-04-18T13:26:44.018Z</time></trkpt><trkpt lat="43.1082899" lon="11.4423429"><ele>133.0</ele><time>2026-04-18T13:26:45.017Z</time></trkpt><trkpt lat="43.1081401" lon="11.4423696"><ele>133.25</ele><time>2026-04-18T13:26:46.017Z</time></trkpt><trkpt lat="43.1080024" lon="11.4423947"><ele>133.5</ele><time>2026-04-18T13:26:47.017Z</time></trkpt><trkpt lat="43.1078713" lon="11.4424175"><ele>133.75</ele><time>2026-04-18T13:26:48.017Z</time></trkpt><trkpt lat="43.1077492" lon="11.4424351"><ele>134.0</ele><time>2026-04-18T13:26:49.017Z</time></trkpt><trkpt lat="43.1076328" lon="11.442439"><ele>134.0</ele><time>2026-04-18T13:26:50.017Z</time></trkpt><trkpt lat="43.1075236" lon="11.4424172"><ele>134.0</ele><time>2026-04-18T13:26:51.018Z</time></trkpt><trkpt lat="43.1074217" lon="11.4423537"><ele>134.0</ele><time>2026-04-18T13:26:52.017Z</time></trkpt><trkpt lat="43.107323" lon="11.4422453"><ele>134.0</ele><time>2026-04-18T13:26:53.017Z</time></trkpt><trkpt lat="43.1072177" lon="11.4421069"><ele>133.0</ele><time>2026-04-18T13:26:54.017Z</time></trkpt><trkpt lat="43.107112" lon="11.4419539"><ele>132.0</ele><time>2026-04-18T13:26:55.018Z</time></trkpt><trkpt lat="43.1070008" lon="11.4417897"><ele>131.0</ele><time>2026-04-18T13:26:56.017Z</time></trkpt><trkpt lat="43.1068831" lon="11.4416204"><ele>131.0</ele><time>2026-04-18T13:26:57.017Z</time></trkpt><trkpt lat="43.1067591" lon="11.4414391"><ele>131.0</ele><time>2026-04-18T13:26:58.018Z</time></trkpt><trkpt lat="43.1066247" lon="11.4412496"><ele>131.0</ele><time>2026-04-18T13:26:59.018Z</time></trkpt><trkpt lat="43.1064819" lon="11.441052"><ele>131.0</ele><time>2026-04-18T13:27:00.017Z</time></trkpt><trkpt lat="43.1063358" lon="11.4408486"><ele>131.0</ele><time>2026-04-18T13:27:01.018Z</time></trkpt><trkpt lat="43.1061863" lon="11.4406374"><ele>131.0</ele><time>2026-04-18T13:27:02.018Z</time></trkpt><trkpt lat="43.1060391" lon="11.4404347"><ele>131.0</ele><time>2026-04-18T13:27:03.017Z</time></trkpt><trkpt lat="43.1059012" lon="11.4402436"><ele>131.0</ele><time>2026-04-18T13:27:04.018Z</time></trkpt><trkpt lat="43.1057677" lon="11.4400646"><ele>131.0</ele><time>2026-04-18T13:27:05.018Z</time></trkpt><trkpt lat="43.1056354" lon="11.4398974"><ele>130.66666666666666</ele><time>2026-04-18T13:27:06.017Z</time></trkpt><trkpt lat="43.1055093" lon="11.4397389"><ele>130.33333333333334</ele><time>2026-04-18T13:27:07.017Z</time></trkpt><trkpt lat="43.1053892" lon="11.4395785"><ele>130.0</ele><time>2026-04-18T13:27:08.017Z</time></trkpt><trkpt lat="43.1052728" lon="11.439397"><ele>129.66666666666669</ele><time>2026-04-18T13:27:09.018Z</time></trkpt><trkpt lat="43.1051517" lon="11.4392032"><ele>129.33333333333334</ele><time>2026-04-18T13:27:10.017Z</time></trkpt><trkpt lat="43.1050272" lon="11.4389931"><ele>129.0</ele><time>2026-04-18T13:27:11.018Z</time></trkpt><trkpt lat="43.1048905" lon="11.4387713"><ele>129.66666666666666</ele><time>2026-04-18T13:27:12.018Z</time></trkpt><trkpt lat="43.1047402" lon="11.4385506"><ele>130.33333333333331</ele><time>2026-04-18T13:27:13.017Z</time></trkpt><trkpt lat="43.104586" lon="11.4383334"><ele>131.0</ele><time>2026-04-18T13:27:14.018Z</time></trkpt><trkpt lat="43.1044352" lon="11.4381189"><ele>131.0</ele><time>2026-04-18T13:27:15.017Z</time></trkpt><trkpt lat="43.1042815" lon="11.4379002"><ele>131.0</ele><time>2026-04-18T13:27:16.018Z</time></trkpt><trkpt lat="43.1041235" lon="11.4376775"><ele>131.0</ele><time>2026-04-18T13:27:17.017Z</time></trkpt><trkpt lat="43.1039625" lon="11.4374551"><ele>131.5</ele><time>2026-04-18T13:27:18.018Z</time></trkpt><trkpt lat="43.1037996" lon="11.4372342"><ele>132.0</ele><time>2026-04-18T13:27:19.018Z</time></trkpt><trkpt lat="43.1036415" lon="11.4370179"><ele>132.66666666666666</ele><time>2026-04-18T13:27:20.018Z</time></trkpt><trkpt lat="43.1034885" lon="11.4368029"><ele>133.33333333333331</ele><time>2026-04-18T13:27:21.018Z</time></trkpt><trkpt lat="43.1033357" lon="11.4365879"><ele>134.0</ele><time>2026-04-18T13:27:22.017Z</time></trkpt><trkpt lat="43.1031815" lon="11.4363762"><ele>134.66666666666666</ele><time>2026-04-18T13:27:23.018Z</time></trkpt><trkpt lat="43.1030308" lon="11.4361653"><ele>135.33333333333334</ele><time>2026-04-18T13:27:24.018Z</time></trkpt><trkpt lat="43.1028862" lon="11.4359611"><ele>136.0</ele><time>2026-04-18T13:27:25.017Z</time></trkpt><trkpt lat="43.1027567" lon="11.4357683"><ele>136.0</ele><time>2026-04-18T13:27:26.018Z</time></trkpt><trkpt lat="43.1026333" lon="11.4355933"><ele>136.0</ele><time>2026-04-18T13:27:27.017Z</time></trkpt><trkpt lat="43.102515" lon="11.4354317"><ele>136.0</ele><time>2026-04-18T13:27:28.018Z</time></trkpt><trkpt lat="43.1024133" lon="11.43527"><ele>136.75</ele><time>2026-04-18T13:27:29.018Z</time></trkpt><trkpt lat="43.1023183" lon="11.4351067"><ele>137.5</ele><time>2026-04-18T13:27:30.017Z</time></trkpt><trkpt lat="43.1022483" lon="11.4349517"><ele>138.25</ele><time>2026-04-18T13:27:31.017Z</time></trkpt><trkpt lat="43.1022033" lon="11.4347783"><ele>139.0</ele><time>2026-04-18T13:27:32.018Z</time></trkpt><trkpt lat="43.1021983" lon="11.4346083"><ele>140.5</ele><time>2026-04-18T13:27:33.017Z</time></trkpt><trkpt lat="43.1022117" lon="11.4344267"><ele>142.0</ele><time>2026-04-18T13:27:34.018Z</time></trkpt><trkpt lat="43.1022433" lon="11.434225"><ele>143.5</ele><time>2026-04-18T13:27:35.017Z</time></trkpt><trkpt lat="43.10228" lon="11.434025"><ele>145.0</ele><time>2026-04-18T13:27:36.018Z</time></trkpt><trkpt lat="43.102305" lon="11.43384"><ele>146.25</ele><time>2026-04-18T13:27:37.018Z</time></trkpt><trkpt lat="43.1023217" lon="11.4336717"><ele>147.5</ele><time>2026-04-18T13:27:38.017Z</time></trkpt><trkpt lat="43.1023267" lon="11.4335133"><ele>148.75</ele><time>2026-04-18T13:27:39.018Z</time></trkpt><trkpt lat="43.1023283" lon="11.4333617"><ele>150.0</ele><time>2026-04-18T13:27:40.017Z</time></trkpt><trkpt lat="43.1023183" lon="11.4332117"><ele>150.0</ele><time>2026-04-18T13:27:41.018Z</time></trkpt><trkpt lat="43.1022983" lon="11.4330683"><ele>150.0</ele><time>2026-04-18T13:27:42.017Z</time></trkpt><trkpt lat="43.10226" lon="11.4329333"><ele>150.0</ele><time>2026-04-18T13:27:43.017Z</time></trkpt><trkpt lat="43.1022183" lon="11.4328017"><ele>150.0</ele><time>2026-04-18T13:27:44.017Z</time></trkpt><trkpt lat="43.1021567" lon="11.4326933"><ele>150.0</ele><time>2026-04-18T13:27:45.017Z</time></trkpt><trkpt lat="43.10208" lon="11.4325967"><ele>150.4</ele><time>2026-04-18T13:27:46.017Z</time></trkpt><trkpt lat="43.101995" lon="11.43252"><ele>150.8</ele><time>2026-04-18T13:27:47.017Z</time></trkpt><trkpt lat="43.1018983" lon="11.4324683"><ele>151.2</ele><time>2026-04-18T13:27:48.017Z</time></trkpt><trkpt lat="43.1017983" lon="11.432435"><ele>151.6</ele><time>2026-04-18T13:27:49.018Z</time></trkpt><trkpt lat="43.1016917" lon="11.4324283"><ele>152.0</ele><time>2026-04-18T13:27:50.017Z</time></trkpt><trkpt lat="43.10158" lon="11.43242"><ele>152.0</ele><time>2026-04-18T13:27:51.017Z</time></trkpt><trkpt lat="43.10147" lon="11.4324083"><ele>152.0</ele><time>2026-04-18T13:27:52.017Z</time></trkpt><trkpt lat="43.1013667" lon="11.4323967"><ele>152.0</ele><time>2026-04-18T13:27:53.017Z</time></trkpt><trkpt lat="43.1012533" lon="11.4323833"><ele>152.0</ele><time>2026-04-18T13:27:54.017Z</time></trkpt><trkpt lat="43.1011483" lon="11.4323733"><ele>152.0</ele><time>2026-04-18T13:27:55.017Z</time></trkpt><trkpt lat="43.1010417" lon="11.4323667"><ele>152.0</ele><time>2026-04-18T13:27:56.017Z</time></trkpt><trkpt lat="43.10094" lon="11.432355"><ele>152.0</ele><time>2026-04-18T13:27:57.018Z</time></trkpt><trkpt lat="43.1008367" lon="11.432345"><ele>152.0</ele><time>2026-04-18T13:27:58.018Z</time></trkpt><trkpt lat="43.1007367" lon="11.4323417"><ele>152.0</ele><time>2026-04-18T13:27:59.018Z</time></trkpt><trkpt lat="43.1006367" lon="11.4323283"><ele>152.0</ele><time>2026-04-18T13:28:00.017Z</time></trkpt><trkpt lat="43.1005383" lon="11.4323233"><ele>153.2</ele><time>2026-04-18T13:28:01.017Z</time></trkpt><trkpt lat="43.10044" lon="11.4323133"><ele>154.39999999999998</ele><time>2026-04-18T13:28:02.017Z</time></trkpt><trkpt lat="43.1003383" lon="11.4323033"><ele>155.60000000000002</ele><time>2026-04-18T13:28:03.017Z</time></trkpt><trkpt lat="43.1002367" lon="11.432295"><ele>156.8</ele><time>2026-04-18T13:28:04.018Z</time></trkpt><trkpt lat="43.1001333" lon="11.4322833"><ele>158.0</ele><time>2026-04-18T13:28:05.018Z</time></trkpt><trkpt lat="43.1000367" lon="11.4322733"><ele>158.0</ele><time>2026-04-18T13:28:06.018Z</time></trkpt><trkpt lat="43.0999383" lon="11.4322667"><ele>158.0</ele><time>2026-04-18T13:28:07.017Z</time></trkpt><trkpt lat="43.0998383" lon="11.4322583"><ele>158.0</ele><time>2026-04-18T13:28:08.018Z</time></trkpt><trkpt lat="43.09974" lon="11.4322533"><ele>158.0</ele><time>2026-04-18T13:28:09.017Z</time></trkpt><trkpt lat="43.0996417" lon="11.4322433"><ele>158.0</ele><time>2026-04-18T13:28:10.017Z</time></trkpt><trkpt lat="43.0995433" lon="11.432235"><ele>157.8</ele><time>2026-04-18T13:28:11.017Z</time></trkpt><trkpt lat="43.0994483" lon="11.4322233"><ele>157.60000000000002</ele><time>2026-04-18T13:28:12.018Z</time></trkpt><trkpt lat="43.09935" lon="11.4322117"><ele>157.39999999999998</ele><time>2026-04-18T13:28:13.018Z</time></trkpt><trkpt lat="43.0992567" lon="11.43221"><ele>157.2</ele><time>2026-04-18T13:28:14.018Z</time></trkpt><trkpt lat="43.099165" lon="11.4322017"><ele>157.0</ele><time>2026-04-18T13:28:15.017Z</time></trkpt><trkpt lat="43.0990767" lon="11.4321983"><ele>157.0</ele><time>2026-04-18T13:28:16.017Z</time></trkpt><trkpt lat="43.09899" lon="11.4321867"><ele>157.0</ele><time>2026-04-18T13:28:17.017Z</time></trkpt><trkpt lat="43.0989033" lon="11.4321717"><ele>157.0</ele><time>2026-04-18T13:28:18.017Z</time></trkpt><trkpt lat="43.0988233" lon="11.4321583"><ele>157.0</ele><time>2026-04-18T13:28:19.017Z</time></trkpt><trkpt lat="43.0987417" lon="11.4321383"><ele>157.0</ele><time>2026-04-18T13:28:20.017Z</time></trkpt><trkpt lat="43.0986633" lon="11.4321083"><ele>157.0</ele><time>2026-04-18T13:28:21.018Z</time></trkpt><trkpt lat="43.0985767" lon="11.4320683"><ele>158.0</ele><time>2026-04-18T13:28:22.018Z</time></trkpt><trkpt lat="43.0985" lon="11.4320217"><ele>159.0</ele><time>2026-04-18T13:28:23.017Z</time></trkpt><trkpt lat="43.0984283" lon="11.4319667"><ele>160.0</ele><time>2026-04-18T13:28:24.017Z</time></trkpt><trkpt lat="43.0983633" lon="11.4319117"><ele>161.0</ele><time>2026-04-18T13:28:25.018Z</time></trkpt><trkpt lat="43.0982967" lon="11.4318483"><ele>162.0</ele><time>2026-04-18T13:28:26.017Z</time></trkpt><trkpt lat="43.09823" lon="11.4317933"><ele>163.0</ele><time>2026-04-18T13:28:27.018Z</time></trkpt><trkpt lat="43.0981717" lon="11.43174"><ele>163.0</ele><time>2026-04-18T13:28:28.017Z</time></trkpt><trkpt lat="43.0981133" lon="11.43169"><ele>163.0</ele><time>2026-04-18T13:28:29.018Z</time></trkpt><trkpt lat="43.09806" lon="11.4316417"><ele>163.0</ele><time>2026-04-18T13:28:30.017Z</time></trkpt><trkpt lat="43.0979767" lon="11.4315733"><ele>163.0</ele><time>2026-04-18T13:28:32.017Z</time></trkpt><trkpt lat="43.097875" lon="11.4315183"><ele>163.0</ele><time>2026-04-18T13:29:00.016Z</time></trkpt><trkpt lat="43.09782" lon="11.4314717"><ele>163.0</ele><time>2026-04-18T13:29:03.016Z</time></trkpt><trkpt lat="43.0977133" lon="11.4313633"><ele>163.8</ele><time>2026-04-18T13:45:45.012Z</time></trkpt><trkpt lat="43.0976433" lon="11.4313033"><ele>164.60000000000002</ele><time>2026-04-18T13:45:47.012Z</time></trkpt><trkpt lat="43.09753" lon="11.43122"><ele>165.39999999999998</ele><time>2026-04-18T13:45:49.012Z</time></trkpt><trkpt lat="43.0974467" lon="11.4311383"><ele>166.2</ele><time>2026-04-18T13:45:50.012Z</time></trkpt><trkpt lat="43.0973633" lon="11.4310633"><ele>167.0</ele><time>2026-04-18T13:45:51.013Z</time></trkpt><trkpt lat="43.0972733" lon="11.430985"><ele>167.0</ele><time>2026-04-18T13:45:52.012Z</time></trkpt><trkpt lat="43.097185" lon="11.4309133"><ele>167.0</ele><time>2026-04-18T13:45:53.012Z</time></trkpt><trkpt lat="43.0970933" lon="11.4308367"><ele>167.0</ele><time>2026-04-18T13:45:54.013Z</time></trkpt><trkpt lat="43.097005" lon="11.4307667"><ele>167.0</ele><time>2026-04-18T13:45:55.012Z</time></trkpt><trkpt lat="43.0968217" lon="11.4306217"><ele>167.0</ele><time>2026-04-18T13:45:57.012Z</time></trkpt><trkpt lat="43.0967367" lon="11.430535"><ele>167.0</ele><time>2026-04-18T13:45:58.013Z</time></trkpt><trkpt lat="43.0966583" lon="11.4304367"><ele>167.0</ele><time>2026-04-18T13:45:59.012Z</time></trkpt><trkpt lat="43.096575" lon="11.4303367"><ele>167.0</ele><time>2026-04-18T13:46:00.013Z</time></trkpt><trkpt lat="43.0964967" lon="11.430235"><ele>167.0</ele><time>2026-04-18T13:46:01.012Z</time></trkpt><trkpt lat="43.0964133" lon="11.430125"><ele>167.8</ele><time>2026-04-18T13:46:02.013Z</time></trkpt><trkpt lat="43.0963283" lon="11.4300283"><ele>168.6</ele><time>2026-04-18T13:46:03.012Z</time></trkpt><trkpt lat="43.09625" lon="11.42993"><ele>169.4</ele><time>2026-04-18T13:46:04.013Z</time></trkpt><trkpt lat="43.0961667" lon="11.4298333"><ele>170.20000000000002</ele><time>2026-04-18T13:46:05.012Z</time></trkpt><trkpt lat="43.096085" lon="11.429735"><ele>171.0</ele><time>2026-04-18T13:46:06.012Z</time></trkpt><trkpt lat="43.095995" lon="11.4296417"><ele>172.0</ele><time>2026-04-18T13:46:07.012Z</time></trkpt><trkpt lat="43.0958983" lon="11.4295567"><ele>173.0</ele><time>2026-04-18T13:46:08.013Z</time></trkpt><trkpt lat="43.0957967" lon="11.429475"><ele>174.0</ele><time>2026-04-18T13:46:09.012Z</time></trkpt><trkpt lat="43.0957017" lon="11.4294"><ele>175.0</ele><time>2026-04-18T13:46:10.012Z</time></trkpt><trkpt lat="43.0955983" lon="11.4293333"><ele>175.8</ele><time>2026-04-18T13:46:11.013Z</time></trkpt><trkpt lat="43.0955017" lon="11.4292633"><ele>176.6</ele><time>2026-04-18T13:46:12.012Z</time></trkpt><trkpt lat="43.0954033" lon="11.4291917"><ele>177.39999999999998</ele><time>2026-04-18T13:46:13.012Z</time></trkpt><trkpt lat="43.0953067" lon="11.4291217"><ele>178.2</ele><time>2026-04-18T13:46:14.012Z</time></trkpt><trkpt lat="43.0952083" lon="11.4290483"><ele>179.0</ele><time>2026-04-18T13:46:15.013Z</time></trkpt><trkpt lat="43.0951167" lon="11.4289783"><ele>179.0</ele><time>2026-04-18T13:46:16.012Z</time></trkpt><trkpt lat="43.095025" lon="11.4289117"><ele>179.0</ele><time>2026-04-18T13:46:17.012Z</time></trkpt><trkpt lat="43.0949317" lon="11.4288433"><ele>179.0</ele><time>2026-04-18T13:46:18.013Z</time></trkpt><trkpt lat="43.094835" lon="11.42878"><ele>179.0</ele><time>2026-04-18T13:46:19.013Z</time></trkpt><trkpt lat="43.0947383" lon="11.4287133"><ele>179.0</ele><time>2026-04-18T13:46:20.012Z</time></trkpt><trkpt lat="43.0946483" lon="11.428645"><ele>180.39999999999998</ele><time>2026-04-18T13:46:21.012Z</time></trkpt><trkpt lat="43.094545" lon="11.42858"><ele>181.8</ele><time>2026-04-18T13:46:22.012Z</time></trkpt><trkpt lat="43.094445" lon="11.4285067"><ele>183.2</ele><time>2026-04-18T13:46:23.013Z</time></trkpt><trkpt lat="43.094345" lon="11.4284317"><ele>184.60000000000002</ele><time>2026-04-18T13:46:24.013Z</time></trkpt><trkpt lat="43.0942567" lon="11.4283633"><ele>186.0</ele><time>2026-04-18T13:46:25.012Z</time></trkpt><trkpt lat="43.09416" lon="11.4282967"><ele>186.4</ele><time>2026-04-18T13:46:26.012Z</time></trkpt><trkpt lat="43.0940583" lon="11.4282217"><ele>186.8</ele><time>2026-04-18T13:46:27.013Z</time></trkpt><trkpt lat="43.0939633" lon="11.4281467"><ele>187.20000000000002</ele><time>2026-04-18T13:46:28.013Z</time></trkpt><trkpt lat="43.093865" lon="11.4280767"><ele>187.60000000000002</ele><time>2026-04-18T13:46:29.013Z</time></trkpt><trkpt lat="43.0937683" lon="11.4280017"><ele>188.0</ele><time>2026-04-18T13:46:30.012Z</time></trkpt><trkpt lat="43.093665" lon="11.4279283"><ele>188.60000000000002</ele><time>2026-04-18T13:46:31.012Z</time></trkpt><trkpt lat="43.0935717" lon="11.4278567"><ele>189.20000000000002</ele><time>2026-04-18T13:46:32.012Z</time></trkpt><trkpt lat="43.0934783" lon="11.4277867"><ele>189.8</ele><time>2026-04-18T13:46:33.013Z</time></trkpt><trkpt lat="43.093375" lon="11.4277117"><ele>190.4</ele><time>2026-04-18T13:46:34.012Z</time></trkpt><trkpt lat="43.0932767" lon="11.4276383"><ele>191.0</ele><time>2026-04-18T13:46:35.012Z</time></trkpt><trkpt lat="43.093175" lon="11.427565"><ele>191.75</ele><time>2026-04-18T13:46:36.012Z</time></trkpt><trkpt lat="43.0930633" lon="11.4274883"><ele>192.5</ele><time>2026-04-18T13:46:37.012Z</time></trkpt><trkpt lat="43.0929533" lon="11.4274167"><ele>193.25</ele><time>2026-04-18T13:46:38.012Z</time></trkpt><trkpt lat="43.0928433" lon="11.4273367"><ele>194.0</ele><time>2026-04-18T13:46:39.013Z</time></trkpt><trkpt lat="43.0927417" lon="11.4272617"><ele>194.0</ele><time>2026-04-18T13:46:40.013Z</time></trkpt><trkpt lat="43.0926433" lon="11.4271867"><ele>194.0</ele><time>2026-04-18T13:46:41.012Z</time></trkpt><trkpt lat="43.0925383" lon="11.4271083"><ele>194.0</ele><time>2026-04-18T13:46:42.012Z</time></trkpt><trkpt lat="43.0924367" lon="11.4270333"><ele>194.0</ele><time>2026-04-18T13:46:43.012Z</time></trkpt><trkpt lat="43.092325" lon="11.42695"><ele>195.5</ele><time>2026-04-18T13:46:44.012Z</time></trkpt><trkpt lat="43.092215" lon="11.4268667"><ele>197.0</ele><time>2026-04-18T13:46:45.012Z</time></trkpt><trkpt lat="43.0921" lon="11.4267883"><ele>198.5</ele><time>2026-04-18T13:46:46.012Z</time></trkpt><trkpt lat="43.09199" lon="11.4267083"><ele>200.0</ele><time>2026-04-18T13:46:47.012Z</time></trkpt><trkpt lat="43.09188" lon="11.4266283"><ele>200.0</ele><time>2026-04-18T13:46:48.012Z</time></trkpt><trkpt lat="43.0917733" lon="11.4265517"><ele>200.0</ele><time>2026-04-18T13:46:49.012Z</time></trkpt><trkpt lat="43.0916683" lon="11.4264717"><ele>200.0</ele><time>2026-04-18T13:46:50.013Z</time></trkpt><trkpt lat="43.0915633" lon="11.4263933"><ele>200.0</ele><time>2026-04-18T13:46:51.012Z</time></trkpt><trkpt lat="43.09146" lon="11.4263117"><ele>200.75</ele><time>2026-04-18T13:46:52.012Z</time></trkpt><trkpt lat="43.091355" lon="11.4262267"><ele>201.5</ele><time>2026-04-18T13:46:53.012Z</time></trkpt><trkpt lat="43.0912433" lon="11.4261517"><ele>202.25</ele><time>2026-04-18T13:46:54.013Z</time></trkpt><trkpt lat="43.0911283" lon="11.4260767"><ele>203.0</ele><time>2026-04-18T13:46:55.012Z</time></trkpt><trkpt lat="43.0910133" lon="11.4260133"><ele>203.0</ele><time>2026-04-18T13:46:56.012Z</time></trkpt><trkpt lat="43.0907583" lon="11.4259117"><ele>203.0</ele><time>2026-04-18T13:46:58.013Z</time></trkpt><trkpt lat="43.090625" lon="11.42587"><ele>203.0</ele><time>2026-04-18T13:46:59.012Z</time></trkpt><trkpt lat="43.0904917" lon="11.425835"><ele>204.5</ele><time>2026-04-18T13:47:00.012Z</time></trkpt><trkpt lat="43.090365" lon="11.4258"><ele>206.0</ele><time>2026-04-18T13:47:01.012Z</time></trkpt><trkpt lat="43.0902367" lon="11.4257717"><ele>207.5</ele><time>2026-04-18T13:47:02.013Z</time></trkpt><trkpt lat="43.09011" lon="11.4257333"><ele>209.0</ele><time>2026-04-18T13:47:03.012Z</time></trkpt><trkpt lat="43.08999" lon="11.4257017"><ele>210.25</ele><time>2026-04-18T13:47:04.012Z</time></trkpt><trkpt lat="43.0898667" lon="11.425665"><ele>211.5</ele><time>2026-04-18T13:47:05.012Z</time></trkpt><trkpt lat="43.0897433" lon="11.4256383"><ele>212.75</ele><time>2026-04-18T13:47:06.012Z</time></trkpt><trkpt lat="43.0896233" lon="11.42561"><ele>214.0</ele><time>2026-04-18T13:47:07.013Z</time></trkpt><trkpt lat="43.0895" lon="11.425575"><ele>214.0</ele><time>2026-04-18T13:47:08.012Z</time></trkpt><trkpt lat="43.0893783" lon="11.425535"><ele>213.99999999999997</ele><time>2026-04-18T13:47:09.013Z</time></trkpt><trkpt lat="43.0892683" lon="11.4255033"><ele>213.99999999999997</ele><time>2026-04-18T13:47:10.012Z</time></trkpt><trkpt lat="43.0891617" lon="11.4254633"><ele>214.0</ele><time>2026-04-18T13:47:11.013Z</time></trkpt><trkpt lat="43.0890733" lon="11.4254167"><ele>214.0</ele><time>2026-04-18T13:47:12.012Z</time></trkpt><trkpt lat="43.0890033" lon="11.425355"><ele>219.2</ele><time>2026-04-18T13:47:13.012Z</time></trkpt><trkpt lat="43.08895" lon="11.4252767"><ele>224.39999999999998</ele><time>2026-04-18T13:47:14.012Z</time></trkpt><trkpt lat="43.0889167" lon="11.4251633"><ele>229.6</ele><time>2026-04-18T13:47:15.013Z</time></trkpt><trkpt lat="43.0889117" lon="11.425025"><ele>234.8</ele><time>2026-04-18T13:47:16.013Z</time></trkpt><trkpt lat="43.0889333" lon="11.424885"><ele>240.0</ele><time>2026-04-18T13:47:17.012Z</time></trkpt><trkpt lat="43.088955" lon="11.4247417"><ele>243.2</ele><time>2026-04-18T13:47:18.012Z</time></trkpt><trkpt lat="43.088975" lon="11.4246017"><ele>246.4</ele><time>2026-04-18T13:47:19.012Z</time></trkpt><trkpt lat="43.0889967" lon="11.4244733"><ele>249.60000000000002</ele><time>2026-04-18T13:47:20.012Z</time></trkpt><trkpt lat="43.0890167" lon="11.4243467"><ele>252.8</ele><time>2026-04-18T13:47:21.012Z</time></trkpt><trkpt lat="43.0890417" lon="11.4242233"><ele>256.0</ele><time>2026-04-18T13:47:22.012Z</time></trkpt><trkpt lat="43.0890683" lon="11.4240867"><ele>252.4</ele><time>2026-04-18T13:47:23.012Z</time></trkpt><trkpt lat="43.0890967" lon="11.4239517"><ele>248.8</ele><time>2026-04-18T13:47:24.013Z</time></trkpt><trkpt lat="43.0891167" lon="11.42381"><ele>245.20000000000002</ele><time>2026-04-18T13:47:25.013Z</time></trkpt><trkpt lat="43.089135" lon="11.423665"><ele>241.60000000000002</ele><time>2026-04-18T13:47:26.013Z</time></trkpt><trkpt lat="43.0891467" lon="11.423535"><ele>238.0</ele><time>2026-04-18T13:47:27.012Z</time></trkpt><trkpt lat="43.0891433" lon="11.4233967"><ele>238.0</ele><time>2026-04-18T13:47:28.012Z</time></trkpt><trkpt lat="43.089135" lon="11.4232617"><ele>238.0</ele><time>2026-04-18T13:47:29.012Z</time></trkpt><trkpt lat="43.0891117" lon="11.4231317"><ele>238.0</ele><time>2026-04-18T13:47:30.012Z</time></trkpt><trkpt lat="43.0890733" lon="11.423"><ele>238.0</ele><time>2026-04-18T13:47:31.012Z</time></trkpt><trkpt lat="43.0890283" lon="11.42286"><ele>238.0</ele><time>2026-04-18T13:47:32.013Z</time></trkpt><trkpt lat="43.0889667" lon="11.4227117"><ele>242.75</ele><time>2026-04-18T13:47:33.013Z</time></trkpt><trkpt lat="43.0889" lon="11.42256"><ele>247.5</ele><time>2026-04-18T13:47:34.012Z</time></trkpt><trkpt lat="43.0888417" lon="11.4224117"><ele>252.25</ele><time>2026-04-18T13:47:35.012Z</time></trkpt><trkpt lat="43.0887817" lon="11.4222567"><ele>257.0</ele><time>2026-04-18T13:47:36.012Z</time></trkpt><trkpt lat="43.088725" lon="11.4221167"><ele>257.0</ele><time>2026-04-18T13:47:37.013Z</time></trkpt><trkpt lat="43.0886783" lon="11.42199"><ele>257.0</ele><time>2026-04-18T13:47:38.012Z</time></trkpt><trkpt lat="43.088625" lon="11.42188"><ele>257.0</ele><time>2026-04-18T13:47:39.013Z</time></trkpt><trkpt lat="43.088565" lon="11.421795"><ele>257.0</ele><time>2026-04-18T13:47:40.013Z</time></trkpt><trkpt lat="43.0884983" lon="11.4217317"><ele>257.0</ele><time>2026-04-18T13:47:41.013Z</time></trkpt><trkpt lat="43.0884167" lon="11.4216917"><ele>257.0</ele><time>2026-04-18T13:47:42.013Z</time></trkpt><trkpt lat="43.08833" lon="11.42168"><ele>257.0</ele><time>2026-04-18T13:47:43.012Z</time></trkpt><trkpt lat="43.08825" lon="11.4216933"><ele>257.0</ele><time>2026-04-18T13:47:44.012Z</time></trkpt><trkpt lat="43.0881867" lon="11.4217517"><ele>257.0</ele><time>2026-04-18T13:47:45.012Z</time></trkpt><trkpt lat="43.08813" lon="11.4218417"><ele>257.0</ele><time>2026-04-18T13:47:46.013Z</time></trkpt><trkpt lat="43.08809" lon="11.42196"><ele>257.0</ele><time>2026-04-18T13:47:47.013Z</time></trkpt><trkpt lat="43.0880567" lon="11.4221"><ele>263.25</ele><time>2026-04-18T13:47:48.012Z</time></trkpt><trkpt lat="43.088025" lon="11.4222567"><ele>269.5</ele><time>2026-04-18T13:47:49.013Z</time></trkpt><trkpt lat="43.0879933" lon="11.4224283"><ele>275.75</ele><time>2026-04-18T13:47:50.013Z</time></trkpt><trkpt lat="43.0879567" lon="11.4226033"><ele>282.0</ele><time>2026-04-18T13:47:51.012Z</time></trkpt><trkpt lat="43.0879167" lon="11.4227817"><ele>282.0</ele><time>2026-04-18T13:47:52.012Z</time></trkpt><trkpt lat="43.0878783" lon="11.4229517"><ele>282.0</ele><time>2026-04-18T13:47:53.013Z</time></trkpt><trkpt lat="43.0878333" lon="11.423105"><ele>282.0</ele><time>2026-04-18T13:47:54.013Z</time></trkpt><trkpt lat="43.0877883" lon="11.423235"><ele>282.0</ele><time>2026-04-18T13:47:55.012Z</time></trkpt><trkpt lat="43.0877383" lon="11.4233483"><ele>282.1666666666667</ele><time>2026-04-18T13:47:56.012Z</time></trkpt><trkpt lat="43.0876867" lon="11.4234383"><ele>282.3333333333333</ele><time>2026-04-18T13:47:57.012Z</time></trkpt><trkpt lat="43.087635" lon="11.42349"><ele>282.5</ele><time>2026-04-18T13:47:58.012Z</time></trkpt><trkpt lat="43.0875417" lon="11.4234967"><ele>282.66666666666663</ele><time>2026-04-18T13:48:00.012Z</time></trkpt><trkpt lat="43.0874767" lon="11.423435"><ele>282.8333333333333</ele><time>2026-04-18T13:48:02.012Z</time></trkpt><trkpt lat="43.0874233" lon="11.4232867"><ele>283.0</ele><time>2026-04-18T13:48:04.012Z</time></trkpt><trkpt lat="43.0873983" lon="11.4231717"><ele>287.5</ele><time>2026-04-18T13:48:05.012Z</time></trkpt><trkpt lat="43.0873867" lon="11.4230467"><ele>292.0</ele><time>2026-04-18T13:48:06.013Z</time></trkpt><trkpt lat="43.0873733" lon="11.4229233"><ele>296.5</ele><time>2026-04-18T13:48:07.012Z</time></trkpt><trkpt lat="43.0873583" lon="11.42282"><ele>301.0</ele><time>2026-04-18T13:48:08.013Z</time></trkpt><trkpt lat="43.0873417" lon="11.422735"><ele>305.5</ele><time>2026-04-18T13:48:09.013Z</time></trkpt><trkpt lat="43.0872817" lon="11.4226367"><ele>310.0</ele><time>2026-04-18T13:48:11.013Z</time></trkpt><trkpt lat="43.087205" lon="11.4226467"><ele>310.0</ele><time>2026-04-18T13:48:13.012Z</time></trkpt><trkpt lat="43.087145" lon="11.4227583"><ele>310.0</ele><time>2026-04-18T13:48:15.012Z</time></trkpt><trkpt lat="43.0871217" lon="11.4228467"><ele>310.0</ele><time>2026-04-18T13:48:16.012Z</time></trkpt><trkpt lat="43.0870967" lon="11.42295"><ele>310.0</ele><time>2026-04-18T13:48:17.013Z</time></trkpt><trkpt lat="43.087075" lon="11.4230667"><ele>310.0</ele><time>2026-04-18T13:48:18.013Z</time></trkpt><trkpt lat="43.08705" lon="11.42319"><ele>310.0</ele><time>2026-04-18T13:48:19.011Z</time></trkpt><trkpt lat="43.0870233" lon="11.423315"><ele>310.0</ele><time>2026-04-18T13:48:20.011Z</time></trkpt><trkpt lat="43.0869967" lon="11.4234517"><ele>310.0</ele><time>2026-04-18T13:48:21.012Z</time></trkpt><trkpt lat="43.0869667" lon="11.4235667"><ele>310.0</ele><time>2026-04-18T13:48:22.011Z</time></trkpt><trkpt lat="43.0869283" lon="11.4236767"><ele>310.0</ele><time>2026-04-18T13:48:23.011Z</time></trkpt><trkpt lat="43.0868867" lon="11.42377"><ele>310.0</ele><time>2026-04-18T13:48:24.011Z</time></trkpt><trkpt lat="43.086825" lon="11.4238333"><ele>310.0</ele><time>2026-04-18T13:48:25.011Z</time></trkpt><trkpt lat="43.08676" lon="11.4238633"><ele>311.14285714285717</ele><time>2026-04-18T13:48:26.011Z</time></trkpt><trkpt lat="43.0866933" lon="11.4238683"><ele>312.2857142857143</ele><time>2026-04-18T13:48:27.011Z</time></trkpt><trkpt lat="43.086625" lon="11.4238533"><ele>313.42857142857144</ele><time>2026-04-18T13:48:28.011Z</time></trkpt><trkpt lat="43.0865567" lon="11.4238167"><ele>314.57142857142856</ele><time>2026-04-18T13:48:29.011Z</time></trkpt><trkpt lat="43.0864867" lon="11.4237633"><ele>315.7142857142857</ele><time>2026-04-18T13:48:30.012Z</time></trkpt><trkpt lat="43.08643" lon="11.4236983"><ele>316.85714285714283</ele><time>2026-04-18T13:48:31.012Z</time></trkpt><trkpt lat="43.0863883" lon="11.42362"><ele>318.0</ele><time>2026-04-18T13:48:32.011Z</time></trkpt><trkpt lat="43.086365" lon="11.423535"><ele>320.0</ele><time>2026-04-18T13:48:33.011Z</time></trkpt><trkpt lat="43.0863883" lon="11.42335"><ele>322.0</ele><time>2026-04-18T13:48:35.011Z</time></trkpt><trkpt lat="43.08643" lon="11.42324"><ele>324.0</ele><time>2026-04-18T13:48:36.011Z</time></trkpt><trkpt lat="43.0864717" lon="11.423115"><ele>326.0</ele><time>2026-04-18T13:48:37.011Z</time></trkpt><trkpt lat="43.0865" lon="11.4230033"><ele>328.0</ele><time>2026-04-18T13:48:38.011Z</time></trkpt><trkpt lat="43.08651" lon="11.4228917"><ele>327.99999999999994</ele><time>2026-04-18T13:48:39.011Z</time></trkpt><trkpt lat="43.0865033" lon="11.42279"><ele>328.0</ele><time>2026-04-18T13:48:40.011Z</time></trkpt><trkpt lat="43.0864783" lon="11.422705"><ele>328.0</ele><time>2026-04-18T13:48:41.011Z</time></trkpt><trkpt lat="43.08644" lon="11.422635"><ele>328.0</ele><time>2026-04-18T13:48:42.011Z</time></trkpt><trkpt lat="43.0863783" lon="11.4225967"><ele>328.0</ele><time>2026-04-18T13:48:43.011Z</time></trkpt><trkpt lat="43.0863133" lon="11.422595"><ele>327.99999999999994</ele><time>2026-04-18T13:48:44.011Z</time></trkpt><trkpt lat="43.0862467" lon="11.4226317"><ele>328.0</ele><time>2026-04-18T13:48:45.012Z</time></trkpt><trkpt lat="43.086185" lon="11.4227017"><ele>328.0</ele><time>2026-04-18T13:48:46.011Z</time></trkpt><trkpt lat="43.086125" lon="11.4227917"><ele>328.0</ele><time>2026-04-18T13:48:47.011Z</time></trkpt><trkpt lat="43.0860667" lon="11.4228983"><ele>328.0</ele><time>2026-04-18T13:48:48.012Z</time></trkpt><trkpt lat="43.08601" lon="11.4230033"><ele>328.0</ele><time>2026-04-18T13:48:49.012Z</time></trkpt><trkpt lat="43.085955" lon="11.4231033"><ele>328.0</ele><time>2026-04-18T13:48:50.011Z</time></trkpt><trkpt lat="43.085895" lon="11.4231883"><ele>328.16666666666663</ele><time>2026-04-18T13:48:51.012Z</time></trkpt><trkpt lat="43.0858333" lon="11.4232517"><ele>328.3333333333333</ele><time>2026-04-18T13:48:52.011Z</time></trkpt><trkpt lat="43.085755" lon="11.4232617"><ele>328.5</ele><time>2026-04-18T13:48:53.012Z</time></trkpt><trkpt lat="43.085675" lon="11.4232217"><ele>328.6666666666667</ele><time>2026-04-18T13:48:54.012Z</time></trkpt><trkpt lat="43.085615" lon="11.4231417"><ele>328.83333333333337</ele><time>2026-04-18T13:48:55.012Z</time></trkpt><trkpt lat="43.0855617" lon="11.4230333"><ele>329.0</ele><time>2026-04-18T13:48:56.011Z</time></trkpt><trkpt lat="43.0855183" lon="11.4229017"><ele>334.0</ele><time>2026-04-18T13:48:57.011Z</time></trkpt><trkpt lat="43.085485" lon="11.422755"><ele>339.0</ele><time>2026-04-18T13:48:58.011Z</time></trkpt><trkpt lat="43.0854483" lon="11.422605"><ele>344.0</ele><time>2026-04-18T13:48:59.011Z</time></trkpt><trkpt lat="43.0854167" lon="11.4224533"><ele>349.0</ele><time>2026-04-18T13:49:00.011Z</time></trkpt><trkpt lat="43.0853733" lon="11.4223033"><ele>349.0</ele><time>2026-04-18T13:49:01.012Z</time></trkpt><trkpt lat="43.0853317" lon="11.4221733"><ele>349.0</ele><time>2026-04-18T13:49:02.011Z</time></trkpt><trkpt lat="43.0852733" lon="11.4220467"><ele>349.0</ele><time>2026-04-18T13:49:03.011Z</time></trkpt><trkpt lat="43.0852067" lon="11.4219317"><ele>349.0</ele><time>2026-04-18T13:49:04.012Z</time></trkpt><trkpt lat="43.0851217" lon="11.4218367"><ele>349.0</ele><time>2026-04-18T13:49:05.011Z</time></trkpt><trkpt lat="43.085035" lon="11.4217617"><ele>348.0</ele><time>2026-04-18T13:49:06.011Z</time></trkpt><trkpt lat="43.084925" lon="11.421695"><ele>347.0</ele><time>2026-04-18T13:49:07.011Z</time></trkpt><trkpt lat="43.0848117" lon="11.4216517"><ele>346.0</ele><time>2026-04-18T13:49:08.012Z</time></trkpt><trkpt lat="43.0846917" lon="11.4216133"><ele>345.0</ele><time>2026-04-18T13:49:09.011Z</time></trkpt><trkpt lat="43.084565" lon="11.42157"><ele>345.0</ele><time>2026-04-18T13:49:10.012Z</time></trkpt><trkpt lat="43.0844533" lon="11.421515"><ele>345.0</ele><time>2026-04-18T13:49:11.011Z</time></trkpt><trkpt lat="43.0843467" lon="11.4214533"><ele>345.0</ele><time>2026-04-18T13:49:12.012Z</time></trkpt><trkpt lat="43.0842417" lon="11.42138"><ele>345.0</ele><time>2026-04-18T13:49:13.011Z</time></trkpt><trkpt lat="43.08415" lon="11.4213017"><ele>345.4</ele><time>2026-04-18T13:49:14.012Z</time></trkpt><trkpt lat="43.0840567" lon="11.4212267"><ele>345.8</ele><time>2026-04-18T13:49:15.012Z</time></trkpt><trkpt lat="43.0839633" lon="11.4211467"><ele>346.20000000000005</ele><time>2026-04-18T13:49:16.011Z</time></trkpt><trkpt lat="43.083865" lon="11.4210783"><ele>346.6</ele><time>2026-04-18T13:49:17.011Z</time></trkpt><trkpt lat="43.0837717" lon="11.42101"><ele>347.0</ele><time>2026-04-18T13:49:18.012Z</time></trkpt><trkpt lat="43.08368" lon="11.4209583"><ele>347.0</ele><time>2026-04-18T13:49:19.011Z</time></trkpt><trkpt lat="43.083585" lon="11.42092"><ele>347.0</ele><time>2026-04-18T13:49:20.011Z</time></trkpt><trkpt lat="43.0835" lon="11.4208867"><ele>347.0</ele><time>2026-04-18T13:49:21.011Z</time></trkpt><trkpt lat="43.08341" lon="11.42086"><ele>347.0</ele><time>2026-04-18T13:49:22.012Z</time></trkpt><trkpt lat="43.0833283" lon="11.420835"><ele>347.0</ele><time>2026-04-18T13:49:23.012Z</time></trkpt><trkpt lat="43.08325" lon="11.42081"><ele>347.0</ele><time>2026-04-18T13:49:24.011Z</time></trkpt><trkpt lat="43.0831667" lon="11.420785"><ele>348.33333333333337</ele><time>2026-04-18T13:49:25.012Z</time></trkpt><trkpt lat="43.0830817" lon="11.4207583"><ele>349.6666666666667</ele><time>2026-04-18T13:49:26.012Z</time></trkpt><trkpt lat="43.0829917" lon="11.4207283"><ele>351.0</ele><time>2026-04-18T13:49:27.012Z</time></trkpt><trkpt lat="43.0829" lon="11.4207017"><ele>352.3333333333333</ele><time>2026-04-18T13:49:28.011Z</time></trkpt><trkpt lat="43.0828117" lon="11.4206733"><ele>353.66666666666663</ele><time>2026-04-18T13:49:29.011Z</time></trkpt><trkpt lat="43.0827283" lon="11.42065"><ele>355.0</ele><time>2026-04-18T13:49:30.011Z</time></trkpt><trkpt lat="43.0826467" lon="11.4206217"><ele>355.0</ele><time>2026-04-18T13:49:31.011Z</time></trkpt><trkpt lat="43.082565" lon="11.420605"><ele>355.0</ele><time>2026-04-18T13:49:32.011Z</time></trkpt><trkpt lat="43.08249" lon="11.4205833"><ele>355.0</ele><time>2026-04-18T13:49:33.012Z</time></trkpt><trkpt lat="43.0824133" lon="11.4205667"><ele>355.0</ele><time>2026-04-18T13:49:34.012Z</time></trkpt><trkpt lat="43.082335" lon="11.4205533"><ele>355.0</ele><time>2026-04-18T13:49:35.011Z</time></trkpt><trkpt lat="43.0822483" lon="11.4205433"><ele>355.0</ele><time>2026-04-18T13:49:36.011Z</time></trkpt><trkpt lat="43.08216" lon="11.4205367"><ele>354.8333333333333</ele><time>2026-04-18T13:49:37.011Z</time></trkpt><trkpt lat="43.0820817" lon="11.4205383"><ele>354.66666666666663</ele><time>2026-04-18T13:49:38.012Z</time></trkpt><trkpt lat="43.082015" lon="11.420535"><ele>354.5</ele><time>2026-04-18T13:49:39.012Z</time></trkpt><trkpt lat="43.081945" lon="11.4205233"><ele>354.3333333333333</ele><time>2026-04-18T13:49:40.012Z</time></trkpt><trkpt lat="43.0818767" lon="11.4205033"><ele>354.1666666666667</ele><time>2026-04-18T13:49:41.011Z</time></trkpt><trkpt lat="43.0817783" lon="11.4204717"><ele>354.0</ele><time>2026-04-18T13:49:43.011Z</time></trkpt><trkpt lat="43.0817183" lon="11.4204267"><ele>354.8333333333333</ele><time>2026-04-18T13:49:45.012Z</time></trkpt><trkpt lat="43.08165" lon="11.420355"><ele>355.6666666666667</ele><time>2026-04-18T13:49:47.011Z</time></trkpt><trkpt lat="43.0815567" lon="11.4202517"><ele>356.5</ele><time>2026-04-18T13:49:49.011Z</time></trkpt><trkpt lat="43.0815017" lon="11.4201883"><ele>357.33333333333337</ele><time>2026-04-18T13:49:50.011Z</time></trkpt><trkpt lat="43.081445" lon="11.4201233"><ele>358.1666666666667</ele><time>2026-04-18T13:49:51.011Z</time></trkpt><trkpt lat="43.0813817" lon="11.42004"><ele>359.0</ele><time>2026-04-18T13:49:52.011Z</time></trkpt><trkpt lat="43.0813283" lon="11.4199433"><ele>360.4</ele><time>2026-04-18T13:49:53.011Z</time></trkpt><trkpt lat="43.0812717" lon="11.4198367"><ele>361.79999999999995</ele><time>2026-04-18T13:49:54.011Z</time></trkpt><trkpt lat="43.0812133" lon="11.4197217"><ele>363.20000000000005</ele><time>2026-04-18T13:49:55.011Z</time></trkpt><trkpt lat="43.0811417" lon="11.4196183"><ele>364.6</ele><time>2026-04-18T13:49:56.012Z</time></trkpt><trkpt lat="43.0810617" lon="11.4195333"><ele>366.0</ele><time>2026-04-18T13:49:57.012Z</time></trkpt><trkpt lat="43.0809533" lon="11.4194717"><ele>366.0</ele><time>2026-04-18T13:49:58.011Z</time></trkpt><trkpt lat="43.0808467" lon="11.4194267"><ele>366.0</ele><time>2026-04-18T13:49:59.011Z</time></trkpt><trkpt lat="43.08073" lon="11.4193983"><ele>366.0</ele><time>2026-04-18T13:50:00.012Z</time></trkpt><trkpt lat="43.0806083" lon="11.4193733"><ele>366.0</ele><time>2026-04-18T13:50:01.012Z</time></trkpt><trkpt lat="43.0804967" lon="11.419345"><ele>369.8</ele><time>2026-04-18T13:50:02.011Z</time></trkpt><trkpt lat="43.0803967" lon="11.41931"><ele>373.6</ele><time>2026-04-18T13:50:03.011Z</time></trkpt><trkpt lat="43.0803067" lon="11.4192417"><ele>377.4</ele><time>2026-04-18T13:50:04.011Z</time></trkpt><trkpt lat="43.08023" lon="11.41916"><ele>381.2</ele><time>2026-04-18T13:50:05.012Z</time></trkpt><trkpt lat="43.0801617" lon="11.419045"><ele>385.0</ele><time>2026-04-18T13:50:06.012Z</time></trkpt><trkpt lat="43.08011" lon="11.418915"><ele>382.75</ele><time>2026-04-18T13:50:07.012Z</time></trkpt><trkpt lat="43.0800383" lon="11.4187967"><ele>380.5</ele><time>2026-04-18T13:50:08.011Z</time></trkpt><trkpt lat="43.07995" lon="11.4186983"><ele>378.25</ele><time>2026-04-18T13:50:09.011Z</time></trkpt><trkpt lat="43.079845" lon="11.418615"><ele>376.0</ele><time>2026-04-18T13:50:10.011Z</time></trkpt><trkpt lat="43.0797167" lon="11.4185567"><ele>381.25</ele><time>2026-04-18T13:50:11.012Z</time></trkpt><trkpt lat="43.0795833" lon="11.4185067"><ele>386.5</ele><time>2026-04-18T13:50:12.012Z</time></trkpt><trkpt lat="43.0794467" lon="11.4184483"><ele>391.75</ele><time>2026-04-18T13:50:13.011Z</time></trkpt><trkpt lat="43.07932" lon="11.4183917"><ele>397.0</ele><time>2026-04-18T13:50:14.011Z</time></trkpt><trkpt lat="43.079205" lon="11.4183183"><ele>399.20000000000005</ele><time>2026-04-18T13:50:15.011Z</time></trkpt><trkpt lat="43.0790967" lon="11.4182333"><ele>401.4</ele><time>2026-04-18T13:50:16.012Z</time></trkpt><trkpt lat="43.07901" lon="11.4181483"><ele>403.6</ele><time>2026-04-18T13:50:17.012Z</time></trkpt><trkpt lat="43.0789333" lon="11.4180833"><ele>405.79999999999995</ele><time>2026-04-18T13:50:18.011Z</time></trkpt><trkpt lat="43.07885" lon="11.41803"><ele>408.0</ele><time>2026-04-18T13:50:19.012Z</time></trkpt><trkpt lat="43.0787417" lon="11.4179867"><ele>408.25</ele><time>2026-04-18T13:50:20.011Z</time></trkpt><trkpt lat="43.0786167" lon="11.41796"><ele>408.5</ele><time>2026-04-18T13:50:21.011Z</time></trkpt><trkpt lat="43.07848" lon="11.4179383"><ele>408.75</ele><time>2026-04-18T13:50:22.011Z</time></trkpt><trkpt lat="43.0783417" lon="11.4179367"><ele>409.0</ele><time>2026-04-18T13:50:23.011Z</time></trkpt><trkpt lat="43.0782017" lon="11.4179267"><ele>409.0</ele><time>2026-04-18T13:50:24.011Z</time></trkpt><trkpt lat="43.07806" lon="11.4179183"><ele>409.0</ele><time>2026-04-18T13:50:25.012Z</time></trkpt><trkpt lat="43.0779267" lon="11.4179083"><ele>409.0</ele><time>2026-04-18T13:50:26.011Z</time></trkpt><trkpt lat="43.0778" lon="11.4179017"><ele>409.0</ele><time>2026-04-18T13:50:27.011Z</time></trkpt><trkpt lat="43.0776833" lon="11.4179033"><ele>409.0</ele><time>2026-04-18T13:50:28.011Z</time></trkpt><trkpt lat="43.0775717" lon="11.417895"><ele>409.0</ele><time>2026-04-18T13:50:29.012Z</time></trkpt><trkpt lat="43.07746" lon="11.41787"><ele>409.0</ele><time>2026-04-18T13:50:30.011Z</time></trkpt><trkpt lat="43.0773483" lon="11.4178133"><ele>409.0</ele><time>2026-04-18T13:50:31.011Z</time></trkpt><trkpt lat="43.0772367" lon="11.4177433"><ele>413.5</ele><time>2026-04-18T13:50:32.011Z</time></trkpt><trkpt lat="43.0771233" lon="11.41766"><ele>418.0</ele><time>2026-04-18T13:50:33.012Z</time></trkpt><trkpt lat="43.0770217" lon="11.4175767"><ele>422.5</ele><time>2026-04-18T13:50:34.012Z</time></trkpt><trkpt lat="43.0769367" lon="11.4174867"><ele>427.0</ele><time>2026-04-18T13:50:35.012Z</time></trkpt><trkpt lat="43.0768533" lon="11.4173767"><ele>427.0</ele><time>2026-04-18T13:50:36.011Z</time></trkpt><trkpt lat="43.0767883" lon="11.4172483"><ele>427.00000000000006</ele><time>2026-04-18T13:50:37.012Z</time></trkpt><trkpt lat="43.07674" lon="11.4171217"><ele>427.00000000000006</ele><time>2026-04-18T13:50:38.011Z</time></trkpt><trkpt lat="43.0766933" lon="11.4170233"><ele>427.0</ele><time>2026-04-18T13:50:39.011Z</time></trkpt><trkpt lat="43.076655" lon="11.4169417"><ele>427.0</ele><time>2026-04-18T13:50:40.012Z</time></trkpt><trkpt lat="43.0765883" lon="11.4168867"><ele>427.6</ele><time>2026-04-18T13:50:41.012Z</time></trkpt><trkpt lat="43.0765067" lon="11.416845"><ele>428.20000000000005</ele><time>2026-04-18T13:50:42.011Z</time></trkpt><trkpt lat="43.0764033" lon="11.41681"><ele>428.8</ele><time>2026-04-18T13:50:43.011Z</time></trkpt><trkpt lat="43.0762917" lon="11.4167783"><ele>429.4</ele><time>2026-04-18T13:50:44.012Z</time></trkpt><trkpt lat="43.076175" lon="11.4167383"><ele>430.0</ele><time>2026-04-18T13:50:45.011Z</time></trkpt><trkpt lat="43.076065" lon="11.416685"><ele>430.0</ele><time>2026-04-18T13:50:46.011Z</time></trkpt><trkpt lat="43.0759533" lon="11.4166117"><ele>430.0</ele><time>2026-04-18T13:50:47.011Z</time></trkpt><trkpt lat="43.0758383" lon="11.4165283"><ele>430.0</ele><time>2026-04-18T13:50:48.011Z</time></trkpt><trkpt lat="43.075715" lon="11.4164317"><ele>430.0</ele><time>2026-04-18T13:50:49.012Z</time></trkpt><trkpt lat="43.0755933" lon="11.4163317"><ele>431.25</ele><time>2026-04-18T13:50:50.012Z</time></trkpt><trkpt lat="43.07547" lon="11.416235"><ele>432.5</ele><time>2026-04-18T13:50:51.012Z</time></trkpt><trkpt lat="43.07535" lon="11.4161433"><ele>433.75</ele><time>2026-04-18T13:50:52.012Z</time></trkpt><trkpt lat="43.0752367" lon="11.416055"><ele>435.0</ele><time>2026-04-18T13:50:53.011Z</time></trkpt><trkpt lat="43.075125" lon="11.41597"><ele>435.0</ele><time>2026-04-18T13:50:54.012Z</time></trkpt><trkpt lat="43.0750017" lon="11.4159033"><ele>435.0</ele><time>2026-04-18T13:50:55.012Z</time></trkpt><trkpt lat="43.0748767" lon="11.4158583"><ele>435.0</ele><time>2026-04-18T13:50:56.012Z</time></trkpt><trkpt lat="43.07475" lon="11.415805"><ele>435.0</ele><time>2026-04-18T13:50:57.011Z</time></trkpt><trkpt lat="43.07463" lon="11.4157683"><ele>435.8333333333333</ele><time>2026-04-18T13:50:58.011Z</time></trkpt><trkpt lat="43.0745317" lon="11.4157367"><ele>436.66666666666663</ele><time>2026-04-18T13:50:59.011Z</time></trkpt><trkpt lat="43.074455" lon="11.4156983"><ele>437.5</ele><time>2026-04-18T13:51:00.012Z</time></trkpt><trkpt lat="43.074395" lon="11.41564"><ele>438.3333333333333</ele><time>2026-04-18T13:51:01.012Z</time></trkpt><trkpt lat="43.0743583" lon="11.4155567"><ele>439.16666666666663</ele><time>2026-04-18T13:51:02.011Z</time></trkpt><trkpt lat="43.0743483" lon="11.4154533"><ele>440.0</ele><time>2026-04-18T13:51:03.011Z</time></trkpt><trkpt lat="43.0743467" lon="11.415325"><ele>442.0</ele><time>2026-04-18T13:51:04.012Z</time></trkpt><trkpt lat="43.0743383" lon="11.4151817"><ele>444.0</ele><time>2026-04-18T13:51:05.012Z</time></trkpt><trkpt lat="43.074325" lon="11.415035"><ele>446.0</ele><time>2026-04-18T13:51:06.012Z</time></trkpt><trkpt lat="43.0743033" lon="11.41489"><ele>448.0</ele><time>2026-04-18T13:51:07.012Z</time></trkpt><trkpt lat="43.07427" lon="11.4147633"><ele>450.0</ele><time>2026-04-18T13:51:08.011Z</time></trkpt><trkpt lat="43.0742267" lon="11.4146483"><ele>451.1666666666667</ele><time>2026-04-18T13:51:09.011Z</time></trkpt><trkpt lat="43.0741833" lon="11.41455"><ele>452.33333333333337</ele><time>2026-04-18T13:51:10.012Z</time></trkpt><trkpt lat="43.07413" lon="11.414475"><ele>453.5</ele><time>2026-04-18T13:51:11.011Z</time></trkpt><trkpt lat="43.0740617" lon="11.4144167"><ele>454.6666666666667</ele><time>2026-04-18T13:51:12.012Z</time></trkpt><trkpt lat="43.073975" lon="11.41438"><ele>455.83333333333337</ele><time>2026-04-18T13:51:13.011Z</time></trkpt><trkpt lat="43.0738733" lon="11.41436"><ele>457.0</ele><time>2026-04-18T13:51:14.012Z</time></trkpt><trkpt lat="43.0737583" lon="11.4143483"><ele>459.20000000000005</ele><time>2026-04-18T13:51:15.012Z</time></trkpt><trkpt lat="43.0736433" lon="11.4143367"><ele>461.40000000000003</ele><time>2026-04-18T13:51:16.011Z</time></trkpt><trkpt lat="43.0735267" lon="11.4143283"><ele>463.59999999999997</ele><time>2026-04-18T13:51:17.011Z</time></trkpt><trkpt lat="43.07342" lon="11.4143067"><ele>465.79999999999995</ele><time>2026-04-18T13:51:18.012Z</time></trkpt><trkpt lat="43.0733133" lon="11.4142817"><ele>468.0</ele><time>2026-04-18T13:51:19.011Z</time></trkpt><trkpt lat="43.0731983" lon="11.414265"><ele>470.25</ele><time>2026-04-18T13:51:20.011Z</time></trkpt><trkpt lat="43.0730817" lon="11.4142567"><ele>472.5</ele><time>2026-04-18T13:51:21.012Z</time></trkpt><trkpt lat="43.0729617" lon="11.4142533"><ele>474.75</ele><time>2026-04-18T13:51:22.011Z</time></trkpt><trkpt lat="43.0728433" lon="11.414255"><ele>477.0</ele><time>2026-04-18T13:51:23.011Z</time></trkpt><trkpt lat="43.0727267" lon="11.4142483"><ele>477.0</ele><time>2026-04-18T13:51:24.011Z</time></trkpt><trkpt lat="43.072615" lon="11.4142317"><ele>477.00000000000006</ele><time>2026-04-18T13:51:25.011Z</time></trkpt><trkpt lat="43.0725117" lon="11.414195"><ele>477.00000000000006</ele><time>2026-04-18T13:51:26.012Z</time></trkpt><trkpt lat="43.0724133" lon="11.41415"><ele>477.0</ele><time>2026-04-18T13:51:27.012Z</time></trkpt><trkpt lat="43.0723267" lon="11.4141017"><ele>477.0</ele><time>2026-04-18T13:51:28.012Z</time></trkpt><trkpt lat="43.0722433" lon="11.414045"><ele>476.6</ele><time>2026-04-18T13:51:29.011Z</time></trkpt><trkpt lat="43.0721533" lon="11.41399"><ele>476.20000000000005</ele><time>2026-04-18T13:51:30.011Z</time></trkpt><trkpt lat="43.0720617" lon="11.4139367"><ele>475.8</ele><time>2026-04-18T13:51:31.011Z</time></trkpt><trkpt lat="43.0719783" lon="11.4138967"><ele>475.4</ele><time>2026-04-18T13:51:32.011Z</time></trkpt><trkpt lat="43.071875" lon="11.413855"><ele>475.0</ele><time>2026-04-18T13:51:33.012Z</time></trkpt><trkpt lat="43.0717667" lon="11.41379"><ele>477.2</ele><time>2026-04-18T13:51:34.011Z</time></trkpt><trkpt lat="43.0716633" lon="11.4137133"><ele>479.4</ele><time>2026-04-18T13:51:35.011Z</time></trkpt><trkpt lat="43.0715667" lon="11.4136417"><ele>481.6</ele><time>2026-04-18T13:51:36.012Z</time></trkpt><trkpt lat="43.07147" lon="11.4135833"><ele>483.8</ele><time>2026-04-18T13:51:37.011Z</time></trkpt><trkpt lat="43.07137" lon="11.41355"><ele>486.0</ele><time>2026-04-18T13:51:38.011Z</time></trkpt><trkpt lat="43.0712667" lon="11.413555"><ele>486.0</ele><time>2026-04-18T13:51:39.012Z</time></trkpt><trkpt lat="43.0711567" lon="11.4135717"><ele>486.0</ele><time>2026-04-18T13:51:40.012Z</time></trkpt><trkpt lat="43.071055" lon="11.4135783"><ele>486.0</ele><time>2026-04-18T13:51:41.012Z</time></trkpt><trkpt lat="43.070965" lon="11.41355"><ele>486.0</ele><time>2026-04-18T13:51:42.011Z</time></trkpt><trkpt lat="43.0708867" lon="11.413495"><ele>486.0</ele><time>2026-04-18T13:51:43.012Z</time></trkpt><trkpt lat="43.0708017" lon="11.4134183"><ele>487.8</ele><time>2026-04-18T13:51:44.011Z</time></trkpt><trkpt lat="43.0707183" lon="11.413315"><ele>489.6</ele><time>2026-04-18T13:51:45.011Z</time></trkpt><trkpt lat="43.0706367" lon="11.4132117"><ele>491.4</ele><time>2026-04-18T13:51:46.011Z</time></trkpt><trkpt lat="43.0705567" lon="11.4131167"><ele>493.2</ele><time>2026-04-18T13:51:47.012Z</time></trkpt><trkpt lat="43.070485" lon="11.413035"><ele>495.0</ele><time>2026-04-18T13:51:48.012Z</time></trkpt><trkpt lat="43.0704083" lon="11.412965"><ele>495.0</ele><time>2026-04-18T13:51:49.012Z</time></trkpt><trkpt lat="43.0703483" lon="11.4129217"><ele>495.0</ele><time>2026-04-18T13:51:50.012Z</time></trkpt><trkpt lat="43.0702833" lon="11.4129083"><ele>495.0</ele><time>2026-04-18T13:51:51.011Z</time></trkpt><trkpt lat="43.07022" lon="11.4129333"><ele>495.0</ele><time>2026-04-18T13:51:52.011Z</time></trkpt><trkpt lat="43.0701567" lon="11.413"><ele>495.0</ele><time>2026-04-18T13:51:53.011Z</time></trkpt><trkpt lat="43.0701083" lon="11.4131"><ele>495.0</ele><time>2026-04-18T13:51:54.012Z</time></trkpt><trkpt lat="43.070065" lon="11.4132317"><ele>495.0</ele><time>2026-04-18T13:51:55.011Z</time></trkpt><trkpt lat="43.070025" lon="11.4133733"><ele>495.0</ele><time>2026-04-18T13:51:56.011Z</time></trkpt><trkpt lat="43.0700033" lon="11.4135233"><ele>495.0</ele><time>2026-04-18T13:51:57.011Z</time></trkpt><trkpt lat="43.0699933" lon="11.4136783"><ele>495.0</ele><time>2026-04-18T13:51:58.012Z</time></trkpt><trkpt lat="43.0700033" lon="11.4138483"><ele>494.75</ele><time>2026-04-18T13:51:59.011Z</time></trkpt><trkpt lat="43.0700133" lon="11.414025"><ele>494.5</ele><time>2026-04-18T13:52:00.011Z</time></trkpt><trkpt lat="43.070015" lon="11.4141983"><ele>494.25</ele><time>2026-04-18T13:52:01.012Z</time></trkpt><trkpt lat="43.0700083" lon="11.4143583"><ele>494.0</ele><time>2026-04-18T13:52:02.011Z</time></trkpt><trkpt lat="43.0699783" lon="11.4145217"><ele>495.25</ele><time>2026-04-18T13:52:03.012Z</time></trkpt><trkpt lat="43.0699317" lon="11.4146633"><ele>496.5</ele><time>2026-04-18T13:52:04.012Z</time></trkpt><trkpt lat="43.0698733" lon="11.4147967"><ele>497.75</ele><time>2026-04-18T13:52:05.011Z</time></trkpt><trkpt lat="43.069805" lon="11.4149167"><ele>499.0</ele><time>2026-04-18T13:52:06.012Z</time></trkpt><trkpt lat="43.0697167" lon="11.415015"><ele>499.0</ele><time>2026-04-18T13:52:07.011Z</time></trkpt><trkpt lat="43.0696" lon="11.4151"><ele>499.0</ele><time>2026-04-18T13:52:08.011Z</time></trkpt><trkpt lat="43.0694733" lon="11.4151867"><ele>499.0</ele><time>2026-04-18T13:52:09.012Z</time></trkpt><trkpt lat="43.0693533" lon="11.4152783"><ele>499.0</ele><time>2026-04-18T13:52:10.012Z</time></trkpt><trkpt lat="43.069245" lon="11.4153833"><ele>499.0</ele><time>2026-04-18T13:52:11.012Z</time></trkpt><trkpt lat="43.0691367" lon="11.4154733"><ele>499.0</ele><time>2026-04-18T13:52:12.011Z</time></trkpt><trkpt lat="43.0690233" lon="11.4155183"><ele>499.0</ele><time>2026-04-18T13:52:13.011Z</time></trkpt><trkpt lat="43.0689033" lon="11.4155433"><ele>499.0</ele><time>2026-04-18T13:52:14.011Z</time></trkpt><trkpt lat="43.0687917" lon="11.4155817"><ele>496.25</ele><time>2026-04-18T13:52:15.011Z</time></trkpt><trkpt lat="43.0686817" lon="11.4156333"><ele>493.5</ele><time>2026-04-18T13:52:16.011Z</time></trkpt><trkpt lat="43.0685683" lon="11.41571"><ele>490.75</ele><time>2026-04-18T13:52:17.012Z</time></trkpt><trkpt lat="43.068455" lon="11.4158217"><ele>488.0</ele><time>2026-04-18T13:52:18.012Z</time></trkpt><trkpt lat="43.06834" lon="11.4159517"><ele>487.75</ele><time>2026-04-18T13:52:19.011Z</time></trkpt><trkpt lat="43.068225" lon="11.4160783"><ele>487.5</ele><time>2026-04-18T13:52:20.01Z</time></trkpt><trkpt lat="43.0681167" lon="11.41619"><ele>487.25</ele><time>2026-04-18T13:52:21.01Z</time></trkpt><trkpt lat="43.06801" lon="11.416275"><ele>487.0</ele><time>2026-04-18T13:52:22.01Z</time></trkpt><trkpt lat="43.0679083" lon="11.4163567"><ele>489.0</ele><time>2026-04-18T13:52:23.011Z</time></trkpt><trkpt lat="43.0678233" lon="11.4164417"><ele>491.00000000000006</ele><time>2026-04-18T13:52:24.01Z</time></trkpt><trkpt lat="43.0677533" lon="11.4165383"><ele>493.00000000000006</ele><time>2026-04-18T13:52:25.011Z</time></trkpt><trkpt lat="43.0677" lon="11.4166533"><ele>495.0</ele><time>2026-04-18T13:52:26.01Z</time></trkpt><trkpt lat="43.0676567" lon="11.416795"><ele>497.0</ele><time>2026-04-18T13:52:27.01Z</time></trkpt><trkpt lat="43.0676083" lon="11.4169433"><ele>497.0</ele><time>2026-04-18T13:52:28.011Z</time></trkpt><trkpt lat="43.0675383" lon="11.4170883"><ele>497.0</ele><time>2026-04-18T13:52:29.01Z</time></trkpt><trkpt lat="43.067465" lon="11.41723"><ele>497.0</ele><time>2026-04-18T13:52:30.01Z</time></trkpt><trkpt lat="43.0673867" lon="11.4173533"><ele>497.0</ele><time>2026-04-18T13:52:31.01Z</time></trkpt><trkpt lat="43.0673033" lon="11.4174617"><ele>498.75</ele><time>2026-04-18T13:52:32.011Z</time></trkpt><trkpt lat="43.0672117" lon="11.4175517"><ele>500.5</ele><time>2026-04-18T13:52:33.01Z</time></trkpt><trkpt lat="43.067105" lon="11.41761"><ele>502.25</ele><time>2026-04-18T13:52:34.01Z</time></trkpt><trkpt lat="43.0669933" lon="11.417665"><ele>504.0</ele><time>2026-04-18T13:52:35.011Z</time></trkpt><trkpt lat="43.0668867" lon="11.417725"><ele>504.0</ele><time>2026-04-18T13:52:36.01Z</time></trkpt><trkpt lat="43.0668067" lon="11.4178033"><ele>504.0</ele><time>2026-04-18T13:52:37.011Z</time></trkpt><trkpt lat="43.0667383" lon="11.4179017"><ele>504.0</ele><time>2026-04-18T13:52:38.01Z</time></trkpt><trkpt lat="43.0666817" lon="11.418045"><ele>504.0</ele><time>2026-04-18T13:52:39.01Z</time></trkpt><trkpt lat="43.0666317" lon="11.4182267"><ele>500.0</ele><time>2026-04-18T13:52:40.01Z</time></trkpt><trkpt lat="43.066595" lon="11.4184233"><ele>496.0</ele><time>2026-04-18T13:52:41.01Z</time></trkpt><trkpt lat="43.0665733" lon="11.4186083"><ele>492.0</ele><time>2026-04-18T13:52:42.01Z</time></trkpt><trkpt lat="43.0665583" lon="11.4187833"><ele>488.0</ele><time>2026-04-18T13:52:43.011Z</time></trkpt><trkpt lat="43.066555" lon="11.4189433"><ele>486.25</ele><time>2026-04-18T13:52:44.011Z</time></trkpt><trkpt lat="43.066555" lon="11.419105"><ele>484.5</ele><time>2026-04-18T13:52:45.01Z</time></trkpt><trkpt lat="43.0665617" lon="11.419275"><ele>482.75</ele><time>2026-04-18T13:52:46.01Z</time></trkpt><trkpt lat="43.06657" lon="11.4194483"><ele>481.0</ele><time>2026-04-18T13:52:47.01Z</time></trkpt><trkpt lat="43.0665733" lon="11.419605"><ele>481.8</ele><time>2026-04-18T13:52:48.01Z</time></trkpt><trkpt lat="43.0665683" lon="11.4197567"><ele>482.6</ele><time>2026-04-18T13:52:49.01Z</time></trkpt><trkpt lat="43.0665467" lon="11.4198967"><ele>483.4</ele><time>2026-04-18T13:52:50.011Z</time></trkpt><trkpt lat="43.066505" lon="11.4200367"><ele>484.2</ele><time>2026-04-18T13:52:51.011Z</time></trkpt><trkpt lat="43.066445" lon="11.4201683"><ele>485.0</ele><time>2026-04-18T13:52:52.01Z</time></trkpt><trkpt lat="43.06637" lon="11.4203033"><ele>485.0</ele><time>2026-04-18T13:52:53.01Z</time></trkpt><trkpt lat="43.0662983" lon="11.4204617"><ele>485.0</ele><time>2026-04-18T13:52:54.01Z</time></trkpt><trkpt lat="43.0662283" lon="11.4206217"><ele>485.0</ele><time>2026-04-18T13:52:55.01Z</time></trkpt><trkpt lat="43.066155" lon="11.4207783"><ele>485.0</ele><time>2026-04-18T13:52:56.01Z</time></trkpt><trkpt lat="43.066075" lon="11.4209233"><ele>485.2</ele><time>2026-04-18T13:52:57.01Z</time></trkpt><trkpt lat="43.0660017" lon="11.4210567"><ele>485.4</ele><time>2026-04-18T13:52:58.01Z</time></trkpt><trkpt lat="43.0659333" lon="11.421175"><ele>485.6</ele><time>2026-04-18T13:52:59.011Z</time></trkpt><trkpt lat="43.0658717" lon="11.421275"><ele>485.8</ele><time>2026-04-18T13:53:00.01Z</time></trkpt><trkpt lat="43.065815" lon="11.4213767"><ele>486.0</ele><time>2026-04-18T13:53:01.011Z</time></trkpt><trkpt lat="43.0657633" lon="11.4214817"><ele>486.0</ele><time>2026-04-18T13:53:02.011Z</time></trkpt><trkpt lat="43.0657133" lon="11.42158"><ele>486.0</ele><time>2026-04-18T13:53:03.011Z</time></trkpt><trkpt lat="43.0656583" lon="11.4216767"><ele>486.0</ele><time>2026-04-18T13:53:04.011Z</time></trkpt><trkpt lat="43.0655983" lon="11.4217683"><ele>486.0</ele><time>2026-04-18T13:53:05.01Z</time></trkpt><trkpt lat="43.06553" lon="11.4218533"><ele>486.0</ele><time>2026-04-18T13:53:06.01Z</time></trkpt><trkpt lat="43.065445" lon="11.4219383"><ele>486.0</ele><time>2026-04-18T13:53:07.011Z</time></trkpt><trkpt lat="43.0653567" lon="11.422025"><ele>486.0</ele><time>2026-04-18T13:53:08.01Z</time></trkpt><trkpt lat="43.0652717" lon="11.4220967"><ele>486.0</ele><time>2026-04-18T13:53:09.011Z</time></trkpt><trkpt lat="43.0651783" lon="11.422155"><ele>486.0</ele><time>2026-04-18T13:53:10.01Z</time></trkpt><trkpt lat="43.065095" lon="11.4221883"><ele>486.0</ele><time>2026-04-18T13:53:11.01Z</time></trkpt><trkpt lat="43.0649983" lon="11.422205"><ele>486.0</ele><time>2026-04-18T13:53:12.011Z</time></trkpt><trkpt lat="43.0648867" lon="11.42222"><ele>486.0</ele><time>2026-04-18T13:53:13.01Z</time></trkpt><trkpt lat="43.0647683" lon="11.4222233"><ele>486.0</ele><time>2026-04-18T13:53:14.011Z</time></trkpt><trkpt lat="43.0646533" lon="11.42222"><ele>486.0</ele><time>2026-04-18T13:53:15.01Z</time></trkpt><trkpt lat="43.0645317" lon="11.422195"><ele>486.0</ele><time>2026-04-18T13:53:16.011Z</time></trkpt><trkpt lat="43.064415" lon="11.4221567"><ele>486.0</ele><time>2026-04-18T13:53:17.011Z</time></trkpt><trkpt lat="43.064305" lon="11.42211"><ele>486.0</ele><time>2026-04-18T13:53:18.01Z</time></trkpt><trkpt lat="43.0641967" lon="11.42207"><ele>486.0</ele><time>2026-04-18T13:53:19.01Z</time></trkpt><trkpt lat="43.0641017" lon="11.4220217"><ele>486.0</ele><time>2026-04-18T13:53:20.01Z</time></trkpt><trkpt lat="43.064005" lon="11.4219917"><ele>483.6666666666667</ele><time>2026-04-18T13:53:21.01Z</time></trkpt><trkpt lat="43.0639083" lon="11.4219767"><ele>481.33333333333337</ele><time>2026-04-18T13:53:22.01Z</time></trkpt><trkpt lat="43.0638033" lon="11.42199"><ele>479.0</ele><time>2026-04-18T13:53:23.01Z</time></trkpt><trkpt lat="43.06371" lon="11.4220033"><ele>476.6666666666667</ele><time>2026-04-18T13:53:24.01Z</time></trkpt><trkpt lat="43.06363" lon="11.4220267"><ele>474.33333333333337</ele><time>2026-04-18T13:53:25.01Z</time></trkpt><trkpt lat="43.0635667" lon="11.4220583"><ele>472.0</ele><time>2026-04-18T13:53:26.011Z</time></trkpt><trkpt lat="43.063515" lon="11.422115"><ele>472.00000000000006</ele><time>2026-04-18T13:53:27.011Z</time></trkpt><trkpt lat="43.0634817" lon="11.422195"><ele>472.0</ele><time>2026-04-18T13:53:28.01Z</time></trkpt><trkpt lat="43.063475" lon="11.4222933"><ele>472.0</ele><time>2026-04-18T13:53:29.01Z</time></trkpt><trkpt lat="43.0634967" lon="11.422425"><ele>472.0</ele><time>2026-04-18T13:53:30.011Z</time></trkpt><trkpt lat="43.0635267" lon="11.4225617"><ele>472.00000000000006</ele><time>2026-04-18T13:53:31.011Z</time></trkpt><trkpt lat="43.0635467" lon="11.4226867"><ele>472.0</ele><time>2026-04-18T13:53:32.01Z</time></trkpt><trkpt lat="43.063545" lon="11.422815"><ele>472.0</ele><time>2026-04-18T13:53:33.01Z</time></trkpt><trkpt lat="43.0635183" lon="11.42294"><ele>472.00000000000006</ele><time>2026-04-18T13:53:34.011Z</time></trkpt><trkpt lat="43.06347" lon="11.4230617"><ele>472.00000000000006</ele><time>2026-04-18T13:53:35.01Z</time></trkpt><trkpt lat="43.0634167" lon="11.4231817"><ele>472.0</ele><time>2026-04-18T13:53:36.011Z</time></trkpt><trkpt lat="43.063375" lon="11.4233083"><ele>472.0</ele><time>2026-04-18T13:53:37.01Z</time></trkpt><trkpt lat="43.0633483" lon="11.423435"><ele>471.50000000000006</ele><time>2026-04-18T13:53:38.01Z</time></trkpt><trkpt lat="43.0633417" lon="11.4235483"><ele>471.0</ele><time>2026-04-18T13:53:39.01Z</time></trkpt><trkpt lat="43.0633517" lon="11.4236667"><ele>470.5</ele><time>2026-04-18T13:53:40.011Z</time></trkpt><trkpt lat="43.06337" lon="11.4237683"><ele>470.0</ele><time>2026-04-18T13:53:41.011Z</time></trkpt><trkpt lat="43.0633867" lon="11.4238783"><ele>469.50000000000006</ele><time>2026-04-18T13:53:42.01Z</time></trkpt><trkpt lat="43.0633967" lon="11.4239883"><ele>469.0</ele><time>2026-04-18T13:53:43.01Z</time></trkpt><trkpt lat="43.0633933" lon="11.4240983"><ele>468.2</ele><time>2026-04-18T13:53:44.01Z</time></trkpt><trkpt lat="43.0633667" lon="11.4242117"><ele>467.4</ele><time>2026-04-18T13:53:45.011Z</time></trkpt><trkpt lat="43.0633267" lon="11.42434"><ele>466.6</ele><time>2026-04-18T13:53:46.01Z</time></trkpt><trkpt lat="43.0632917" lon="11.42449"><ele>465.8</ele><time>2026-04-18T13:53:47.011Z</time></trkpt><trkpt lat="43.0632667" lon="11.4246467"><ele>465.0</ele><time>2026-04-18T13:53:48.01Z</time></trkpt><trkpt lat="43.0632417" lon="11.4247917"><ele>464.25</ele><time>2026-04-18T13:53:49.01Z</time></trkpt><trkpt lat="43.0632133" lon="11.4249283"><ele>463.5</ele><time>2026-04-18T13:53:50.01Z</time></trkpt><trkpt lat="43.063175" lon="11.42508"><ele>462.75</ele><time>2026-04-18T13:53:51.01Z</time></trkpt><trkpt lat="43.063105" lon="11.42523"><ele>462.0</ele><time>2026-04-18T13:53:52.01Z</time></trkpt><trkpt lat="43.0630267" lon="11.4253583"><ele>462.0</ele><time>2026-04-18T13:53:53.011Z</time></trkpt><trkpt lat="43.0629533" lon="11.42547"><ele>462.00000000000006</ele><time>2026-04-18T13:53:54.01Z</time></trkpt><trkpt lat="43.0629017" lon="11.4255767"><ele>462.00000000000006</ele><time>2026-04-18T13:53:55.01Z</time></trkpt><trkpt lat="43.0628617" lon="11.4256967"><ele>462.0</ele><time>2026-04-18T13:53:56.01Z</time></trkpt><trkpt lat="43.062835" lon="11.42583"><ele>462.0</ele><time>2026-04-18T13:53:57.011Z</time></trkpt><trkpt lat="43.0628217" lon="11.42597"><ele>463.0</ele><time>2026-04-18T13:53:58.01Z</time></trkpt><trkpt lat="43.062825" lon="11.42613"><ele>464.0</ele><time>2026-04-18T13:53:59.011Z</time></trkpt><trkpt lat="43.06283" lon="11.4263"><ele>465.0</ele><time>2026-04-18T13:54:00.011Z</time></trkpt><trkpt lat="43.0628417" lon="11.4264833"><ele>466.0</ele><time>2026-04-18T13:54:01.01Z</time></trkpt><trkpt lat="43.0628683" lon="11.42666"><ele>466.0</ele><time>2026-04-18T13:54:02.01Z</time></trkpt><trkpt lat="43.0628967" lon="11.42681"><ele>466.0</ele><time>2026-04-18T13:54:03.01Z</time></trkpt><trkpt lat="43.062905" lon="11.4269517"><ele>466.0</ele><time>2026-04-18T13:54:04.01Z</time></trkpt><trkpt lat="43.0628883" lon="11.42707"><ele>466.0</ele><time>2026-04-18T13:54:05.01Z</time></trkpt><trkpt lat="43.0628417" lon="11.4271833"><ele>466.0</ele><time>2026-04-18T13:54:06.01Z</time></trkpt><trkpt lat="43.0627733" lon="11.4272817"><ele>466.0</ele><time>2026-04-18T13:54:07.011Z</time></trkpt><trkpt lat="43.0626917" lon="11.427365"><ele>466.0</ele><time>2026-04-18T13:54:08.011Z</time></trkpt><trkpt lat="43.0625933" lon="11.427425"><ele>466.0</ele><time>2026-04-18T13:54:09.01Z</time></trkpt><trkpt lat="43.0624883" lon="11.427475"><ele>466.0</ele><time>2026-04-18T13:54:10.011Z</time></trkpt><trkpt lat="43.0623817" lon="11.4275183"><ele>466.0</ele><time>2026-04-18T13:54:11.011Z</time></trkpt><trkpt lat="43.0622667" lon="11.4275633"><ele>466.8</ele><time>2026-04-18T13:54:12.011Z</time></trkpt><trkpt lat="43.0621567" lon="11.4276017"><ele>467.6</ele><time>2026-04-18T13:54:13.011Z</time></trkpt><trkpt lat="43.0620467" lon="11.4276233"><ele>468.4</ele><time>2026-04-18T13:54:14.01Z</time></trkpt><trkpt lat="43.0619383" lon="11.4276083"><ele>469.2</ele><time>2026-04-18T13:54:15.011Z</time></trkpt><trkpt lat="43.06184" lon="11.427575"><ele>470.0</ele><time>2026-04-18T13:54:16.011Z</time></trkpt><trkpt lat="43.06174" lon="11.4275167"><ele>470.0</ele><time>2026-04-18T13:54:17.011Z</time></trkpt><trkpt lat="43.0616417" lon="11.42745"><ele>470.0</ele><time>2026-04-18T13:54:18.011Z</time></trkpt><trkpt lat="43.061545" lon="11.4273967"><ele>470.0</ele><time>2026-04-18T13:54:19.01Z</time></trkpt><trkpt lat="43.061445" lon="11.42738"><ele>470.0</ele><time>2026-04-18T13:54:20.01Z</time></trkpt><trkpt lat="43.0613367" lon="11.4273883"><ele>470.0</ele><time>2026-04-18T13:54:21.01Z</time></trkpt><trkpt lat="43.061215" lon="11.4274217"><ele>470.2</ele><time>2026-04-18T13:54:22.01Z</time></trkpt><trkpt lat="43.0610933" lon="11.4274567"><ele>470.4</ele><time>2026-04-18T13:54:23.01Z</time></trkpt><trkpt lat="43.0609917" lon="11.42749"><ele>470.6</ele><time>2026-04-18T13:54:24.01Z</time></trkpt><trkpt lat="43.0609033" lon="11.4274983"><ele>470.8</ele><time>2026-04-18T13:54:25.011Z</time></trkpt><trkpt lat="43.06081" lon="11.4274683"><ele>471.0</ele><time>2026-04-18T13:54:26.01Z</time></trkpt><trkpt lat="43.0607117" lon="11.42741"><ele>472.6</ele><time>2026-04-18T13:54:27.011Z</time></trkpt><trkpt lat="43.060615" lon="11.42734"><ele>474.20000000000005</ele><time>2026-04-18T13:54:28.01Z</time></trkpt><trkpt lat="43.06053" lon="11.42728"><ele>475.79999999999995</ele><time>2026-04-18T13:54:29.01Z</time></trkpt><trkpt lat="43.060465" lon="11.4272517"><ele>477.4</ele><time>2026-04-18T13:54:30.011Z</time></trkpt><trkpt lat="43.060355" lon="11.4272733"><ele>479.0</ele><time>2026-04-18T13:54:32.011Z</time></trkpt><trkpt lat="43.0602767" lon="11.4274283"><ele>478.99999999999994</ele><time>2026-04-18T13:54:34.011Z</time></trkpt><trkpt lat="43.06025" lon="11.4275483"><ele>479.0</ele><time>2026-04-18T13:54:35.011Z</time></trkpt><trkpt lat="43.0602283" lon="11.4276417"><ele>479.0</ele><time>2026-04-18T13:54:36.01Z</time></trkpt><trkpt lat="43.0601883" lon="11.42772"><ele>479.0</ele><time>2026-04-18T13:54:37.01Z</time></trkpt><trkpt lat="43.060125" lon="11.4277933"><ele>478.99999999999994</ele><time>2026-04-18T13:54:38.011Z</time></trkpt><trkpt lat="43.0600517" lon="11.4278467"><ele>479.0</ele><time>2026-04-18T13:54:39.01Z</time></trkpt><trkpt lat="43.0599633" lon="11.4278783"><ele>479.8333333333333</ele><time>2026-04-18T13:54:40.01Z</time></trkpt><trkpt lat="43.059885" lon="11.4278967"><ele>480.66666666666663</ele><time>2026-04-18T13:54:41.01Z</time></trkpt><trkpt lat="43.0598083" lon="11.4278867"><ele>481.5</ele><time>2026-04-18T13:54:42.01Z</time></trkpt><trkpt lat="43.0597367" lon="11.4278433"><ele>482.33333333333337</ele><time>2026-04-18T13:54:43.011Z</time></trkpt><trkpt lat="43.0596783" lon="11.42778"><ele>483.1666666666667</ele><time>2026-04-18T13:54:44.011Z</time></trkpt><trkpt lat="43.0596217" lon="11.4276883"><ele>484.0</ele><time>2026-04-18T13:54:45.01Z</time></trkpt><trkpt lat="43.059555" lon="11.4275683"><ele>484.00000000000006</ele><time>2026-04-18T13:54:46.011Z</time></trkpt><trkpt lat="43.0594867" lon="11.4274633"><ele>484.0</ele><time>2026-04-18T13:54:47.01Z</time></trkpt><trkpt lat="43.059425" lon="11.4273633"><ele>484.0</ele><time>2026-04-18T13:54:48.01Z</time></trkpt><trkpt lat="43.0593533" lon="11.4272883"><ele>484.0</ele><time>2026-04-18T13:54:49.01Z</time></trkpt><trkpt lat="43.0592767" lon="11.427255"><ele>484.00000000000006</ele><time>2026-04-18T13:54:50.011Z</time></trkpt><trkpt lat="43.0591983" lon="11.42725"><ele>484.0</ele><time>2026-04-18T13:54:51.01Z</time></trkpt><trkpt lat="43.059125" lon="11.42728"><ele>486.50000000000006</ele><time>2026-04-18T13:54:52.011Z</time></trkpt><trkpt lat="43.0590617" lon="11.42733"><ele>489.0</ele><time>2026-04-18T13:54:53.011Z</time></trkpt><trkpt lat="43.05902" lon="11.4274033"><ele>491.5</ele><time>2026-04-18T13:54:54.01Z</time></trkpt><trkpt lat="43.059" lon="11.42749"><ele>494.0</ele><time>2026-04-18T13:54:55.011Z</time></trkpt><trkpt lat="43.059005" lon="11.4275817"><ele>496.50000000000006</ele><time>2026-04-18T13:54:56.011Z</time></trkpt><trkpt lat="43.059035" lon="11.4276917"><ele>499.0</ele><time>2026-04-18T13:54:57.01Z</time></trkpt><trkpt lat="43.0590833" lon="11.427825"><ele>497.4</ele><time>2026-04-18T13:54:58.011Z</time></trkpt><trkpt lat="43.0591367" lon="11.427965"><ele>495.79999999999995</ele><time>2026-04-18T13:54:59.01Z</time></trkpt><trkpt lat="43.059175" lon="11.4280967"><ele>494.20000000000005</ele><time>2026-04-18T13:55:00.011Z</time></trkpt><trkpt lat="43.059195" lon="11.4282083"><ele>492.6</ele><time>2026-04-18T13:55:01.011Z</time></trkpt><trkpt lat="43.05918" lon="11.4283033"><ele>491.0</ele><time>2026-04-18T13:55:02.01Z</time></trkpt><trkpt lat="43.0590817" lon="11.4284233"><ele>491.0</ele><time>2026-04-18T13:55:04.01Z</time></trkpt><trkpt lat="43.0589967" lon="11.42846"><ele>491.0</ele><time>2026-04-18T13:55:05.01Z</time></trkpt><trkpt lat="43.0588983" lon="11.4285033"><ele>491.0</ele><time>2026-04-18T13:55:06.01Z</time></trkpt><trkpt lat="43.0588033" lon="11.4285717"><ele>491.0</ele><time>2026-04-18T13:55:07.011Z</time></trkpt><trkpt lat="43.05871" lon="11.42867"><ele>491.0</ele><time>2026-04-18T13:55:08.011Z</time></trkpt><trkpt lat="43.0586317" lon="11.4288033"><ele>489.75</ele><time>2026-04-18T13:55:09.011Z</time></trkpt><trkpt lat="43.0585667" lon="11.4289583"><ele>488.5</ele><time>2026-04-18T13:55:10.01Z</time></trkpt><trkpt lat="43.0585" lon="11.42913"><ele>487.25</ele><time>2026-04-18T13:55:11.01Z</time></trkpt><trkpt lat="43.0584433" lon="11.4293067"><ele>486.0</ele><time>2026-04-18T13:55:12.011Z</time></trkpt><trkpt lat="43.0584" lon="11.429485"><ele>486.0</ele><time>2026-04-18T13:55:13.011Z</time></trkpt><trkpt lat="43.058365" lon="11.4296567"><ele>486.0</ele><time>2026-04-18T13:55:14.01Z</time></trkpt><trkpt lat="43.0583367" lon="11.4298267"><ele>486.0</ele><time>2026-04-18T13:55:15.01Z</time></trkpt><trkpt lat="43.0583083" lon="11.429985"><ele>486.0</ele><time>2026-04-18T13:55:16.01Z</time></trkpt><trkpt lat="43.0582867" lon="11.4301267"><ele>486.0</ele><time>2026-04-18T13:55:17.011Z</time></trkpt><trkpt lat="43.0582817" lon="11.4302733"><ele>486.0</ele><time>2026-04-18T13:55:18.011Z</time></trkpt><trkpt lat="43.0582917" lon="11.4304267"><ele>486.0</ele><time>2026-04-18T13:55:19.011Z</time></trkpt><trkpt lat="43.0582967" lon="11.4305733"><ele>486.0</ele><time>2026-04-18T13:55:20.011Z</time></trkpt><trkpt lat="43.0582867" lon="11.4307067"><ele>486.0</ele><time>2026-04-18T13:55:21.01Z</time></trkpt><trkpt lat="43.05826" lon="11.4308267"><ele>484.8</ele><time>2026-04-18T13:55:22.01Z</time></trkpt><trkpt lat="43.0582083" lon="11.43092"><ele>483.6</ele><time>2026-04-18T13:55:23.01Z</time></trkpt><trkpt lat="43.0581433" lon="11.4309917"><ele>482.4</ele><time>2026-04-18T13:55:24.01Z</time></trkpt><trkpt lat="43.0580483" lon="11.43106"><ele>481.2</ele><time>2026-04-18T13:55:25.01Z</time></trkpt><trkpt lat="43.057925" lon="11.4311333"><ele>480.0</ele><time>2026-04-18T13:55:26.01Z</time></trkpt><trkpt lat="43.0578067" lon="11.4312117"><ele>480.0</ele><time>2026-04-18T13:55:27.01Z</time></trkpt><trkpt lat="43.0576917" lon="11.4312883"><ele>480.0</ele><time>2026-04-18T13:55:28.01Z</time></trkpt><trkpt lat="43.0575833" lon="11.4313667"><ele>480.0</ele><time>2026-04-18T13:55:29.01Z</time></trkpt><trkpt lat="43.05749" lon="11.431465"><ele>480.0</ele><time>2026-04-18T13:55:30.01Z</time></trkpt><trkpt lat="43.0573933" lon="11.4315683"><ele>481.8</ele><time>2026-04-18T13:55:31.01Z</time></trkpt><trkpt lat="43.0573083" lon="11.4316817"><ele>483.6</ele><time>2026-04-18T13:55:32.011Z</time></trkpt><trkpt lat="43.0572317" lon="11.431785"><ele>485.4</ele><time>2026-04-18T13:55:33.01Z</time></trkpt><trkpt lat="43.057165" lon="11.4318833"><ele>487.2</ele><time>2026-04-18T13:55:34.011Z</time></trkpt><trkpt lat="43.0571017" lon="11.4319933"><ele>489.0</ele><time>2026-04-18T13:55:35.01Z</time></trkpt><trkpt lat="43.05704" lon="11.4321217"><ele>489.75</ele><time>2026-04-18T13:55:36.01Z</time></trkpt><trkpt lat="43.05698" lon="11.4322567"><ele>490.5</ele><time>2026-04-18T13:55:37.011Z</time></trkpt><trkpt lat="43.0569117" lon="11.432385"><ele>491.25</ele><time>2026-04-18T13:55:38.01Z</time></trkpt><trkpt lat="43.05683" lon="11.4325"><ele>492.0</ele><time>2026-04-18T13:55:39.01Z</time></trkpt><trkpt lat="43.0567517" lon="11.43262"><ele>492.0</ele><time>2026-04-18T13:55:40.01Z</time></trkpt><trkpt lat="43.0566667" lon="11.432735"><ele>492.00000000000006</ele><time>2026-04-18T13:55:41.01Z</time></trkpt><trkpt lat="43.0565867" lon="11.432855"><ele>492.00000000000006</ele><time>2026-04-18T13:55:42.01Z</time></trkpt><trkpt lat="43.0565217" lon="11.432955"><ele>492.0</ele><time>2026-04-18T13:55:43.011Z</time></trkpt><trkpt lat="43.0564617" lon="11.4330417"><ele>492.0</ele><time>2026-04-18T13:55:44.011Z</time></trkpt><trkpt lat="43.0563983" lon="11.433105"><ele>493.0</ele><time>2026-04-18T13:55:45.01Z</time></trkpt><trkpt lat="43.0563267" lon="11.4331633"><ele>494.00000000000006</ele><time>2026-04-18T13:55:46.01Z</time></trkpt><trkpt lat="43.0562417" lon="11.43321"><ele>495.00000000000006</ele><time>2026-04-18T13:55:47.01Z</time></trkpt><trkpt lat="43.0561483" lon="11.4332517"><ele>496.0</ele><time>2026-04-18T13:55:48.01Z</time></trkpt><trkpt lat="43.0560433" lon="11.4332967"><ele>497.0</ele><time>2026-04-18T13:55:49.01Z</time></trkpt><trkpt lat="43.0559317" lon="11.433335"><ele>497.0</ele><time>2026-04-18T13:55:50.01Z</time></trkpt><trkpt lat="43.05583" lon="11.433375"><ele>497.00000000000006</ele><time>2026-04-18T13:55:51.011Z</time></trkpt><trkpt lat="43.0557383" lon="11.4334067"><ele>497.00000000000006</ele><time>2026-04-18T13:55:52.011Z</time></trkpt><trkpt lat="43.0556517" lon="11.43345"><ele>497.0</ele><time>2026-04-18T13:55:53.011Z</time></trkpt><trkpt lat="43.0555667" lon="11.4334967"><ele>497.0</ele><time>2026-04-18T13:55:54.011Z</time></trkpt><trkpt lat="43.0554883" lon="11.4335483"><ele>496.8333333333333</ele><time>2026-04-18T13:55:55.011Z</time></trkpt><trkpt lat="43.0554167" lon="11.4335983"><ele>496.66666666666663</ele><time>2026-04-18T13:55:56.011Z</time></trkpt><trkpt lat="43.0553367" lon="11.43364"><ele>496.5</ele><time>2026-04-18T13:55:57.01Z</time></trkpt><trkpt lat="43.0552483" lon="11.4336633"><ele>496.33333333333337</ele><time>2026-04-18T13:55:58.011Z</time></trkpt><trkpt lat="43.055165" lon="11.433685"><ele>496.1666666666667</ele><time>2026-04-18T13:55:59.01Z</time></trkpt><trkpt lat="43.0550783" lon="11.4337167"><ele>496.0</ele><time>2026-04-18T13:56:00.01Z</time></trkpt><trkpt lat="43.0549917" lon="11.433755"><ele>496.0</ele><time>2026-04-18T13:56:01.01Z</time></trkpt><trkpt lat="43.0549033" lon="11.433805"><ele>496.0</ele><time>2026-04-18T13:56:02.01Z</time></trkpt><trkpt lat="43.0548117" lon="11.4338633"><ele>496.0</ele><time>2026-04-18T13:56:03.011Z</time></trkpt><trkpt lat="43.0547183" lon="11.433925"><ele>496.0</ele><time>2026-04-18T13:56:04.01Z</time></trkpt><trkpt lat="43.0546183" lon="11.4339883"><ele>496.0</ele><time>2026-04-18T13:56:05.011Z</time></trkpt><trkpt lat="43.0545217" lon="11.4340467"><ele>494.0</ele><time>2026-04-18T13:56:06.01Z</time></trkpt><trkpt lat="43.0544283" lon="11.4340983"><ele>492.0</ele><time>2026-04-18T13:56:07.011Z</time></trkpt><trkpt lat="43.0543317" lon="11.43414"><ele>490.0</ele><time>2026-04-18T13:56:08.01Z</time></trkpt><trkpt lat="43.0542383" lon="11.43418"><ele>488.0</ele><time>2026-04-18T13:56:09.011Z</time></trkpt><trkpt lat="43.05415" lon="11.4342133"><ele>486.0</ele><time>2026-04-18T13:56:10.011Z</time></trkpt><trkpt lat="43.0540617" lon="11.4342417"><ele>485.6666666666667</ele><time>2026-04-18T13:56:11.011Z</time></trkpt><trkpt lat="43.0539717" lon="11.43426"><ele>485.33333333333337</ele><time>2026-04-18T13:56:12.01Z</time></trkpt><trkpt lat="43.0538883" lon="11.4342817"><ele>485.0</ele><time>2026-04-18T13:56:13.011Z</time></trkpt><trkpt lat="43.053805" lon="11.4343067"><ele>484.6666666666667</ele><time>2026-04-18T13:56:14.01Z</time></trkpt><trkpt lat="43.0537267" lon="11.43435"><ele>484.33333333333337</ele><time>2026-04-18T13:56:15.01Z</time></trkpt><trkpt lat="43.0536517" lon="11.4344"><ele>484.0</ele><time>2026-04-18T13:56:16.01Z</time></trkpt><trkpt lat="43.0535717" lon="11.43446"><ele>484.0</ele><time>2026-04-18T13:56:17.011Z</time></trkpt><trkpt lat="43.0535" lon="11.4345317"><ele>484.0</ele><time>2026-04-18T13:56:18.011Z</time></trkpt><trkpt lat="43.0534333" lon="11.4346117"><ele>484.0</ele><time>2026-04-18T13:56:19.011Z</time></trkpt><trkpt lat="43.0533667" lon="11.4347183"><ele>484.0</ele><time>2026-04-18T13:56:20.011Z</time></trkpt><trkpt lat="43.053305" lon="11.4348367"><ele>484.0</ele><time>2026-04-18T13:56:21.01Z</time></trkpt><trkpt lat="43.0532567" lon="11.434965"><ele>482.6</ele><time>2026-04-18T13:56:22.01Z</time></trkpt><trkpt lat="43.0532133" lon="11.4350933"><ele>481.2</ele><time>2026-04-18T13:56:23.01Z</time></trkpt><trkpt lat="43.0531717" lon="11.4352383"><ele>479.80000000000007</ele><time>2026-04-18T13:56:24.01Z</time></trkpt><trkpt lat="43.053125" lon="11.43538"><ele>478.40000000000003</ele><time>2026-04-18T13:56:25.011Z</time></trkpt><trkpt lat="43.0530917" lon="11.435525"><ele>477.0</ele><time>2026-04-18T13:56:26.01Z</time></trkpt><trkpt lat="43.05307" lon="11.435675"><ele>475.20000000000005</ele><time>2026-04-18T13:56:27.01Z</time></trkpt><trkpt lat="43.0530583" lon="11.4358333"><ele>473.40000000000003</ele><time>2026-04-18T13:56:28.011Z</time></trkpt><trkpt lat="43.0530517" lon="11.4359817"><ele>471.59999999999997</ele><time>2026-04-18T13:56:29.01Z</time></trkpt><trkpt lat="43.0530333" lon="11.4361217"><ele>469.79999999999995</ele><time>2026-04-18T13:56:30.011Z</time></trkpt><trkpt lat="43.0530117" lon="11.4362483"><ele>468.0</ele><time>2026-04-18T13:56:31.011Z</time></trkpt><trkpt lat="43.0529817" lon="11.43637"><ele>468.0</ele><time>2026-04-18T13:56:32.011Z</time></trkpt><trkpt lat="43.052935" lon="11.4364767"><ele>467.99999999999994</ele><time>2026-04-18T13:56:33.01Z</time></trkpt><trkpt lat="43.05287" lon="11.43658"><ele>467.99999999999994</ele><time>2026-04-18T13:56:34.01Z</time></trkpt><trkpt lat="43.0527967" lon="11.436675"><ele>468.0</ele><time>2026-04-18T13:56:35.01Z</time></trkpt><trkpt lat="43.0527167" lon="11.4367533"><ele>468.0</ele><time>2026-04-18T13:56:36.01Z</time></trkpt><trkpt lat="43.0526317" lon="11.436795"><ele>468.0</ele><time>2026-04-18T13:56:37.009Z</time></trkpt><trkpt lat="43.05254" lon="11.436795"><ele>467.99999999999994</ele><time>2026-04-18T13:56:38.01Z</time></trkpt><trkpt lat="43.0524483" lon="11.4367767"><ele>467.99999999999994</ele><time>2026-04-18T13:56:39.009Z</time></trkpt><trkpt lat="43.05235" lon="11.4367583"><ele>468.0</ele><time>2026-04-18T13:56:40.009Z</time></trkpt><trkpt lat="43.05225" lon="11.43674"><ele>468.0</ele><time>2026-04-18T13:56:41.01Z</time></trkpt><trkpt lat="43.052155" lon="11.4367417"><ele>468.1666666666667</ele><time>2026-04-18T13:56:42.009Z</time></trkpt><trkpt lat="43.052065" lon="11.4367567"><ele>468.33333333333337</ele><time>2026-04-18T13:56:43.01Z</time></trkpt><trkpt lat="43.05198" lon="11.43678"><ele>468.5</ele><time>2026-04-18T13:56:44.009Z</time></trkpt><trkpt lat="43.051895" lon="11.4368083"><ele>468.6666666666667</ele><time>2026-04-18T13:56:45.01Z</time></trkpt><trkpt lat="43.0518167" lon="11.4368333"><ele>468.83333333333337</ele><time>2026-04-18T13:56:46.009Z</time></trkpt><trkpt lat="43.0517433" lon="11.4368633"><ele>469.0</ele><time>2026-04-18T13:56:47.009Z</time></trkpt><trkpt lat="43.0516717" lon="11.4368933"><ele>469.1666666666667</ele><time>2026-04-18T13:56:48.01Z</time></trkpt><trkpt lat="43.0516017" lon="11.4369333"><ele>469.33333333333337</ele><time>2026-04-18T13:56:49.009Z</time></trkpt><trkpt lat="43.0515417" lon="11.43699"><ele>469.5</ele><time>2026-04-18T13:56:50.01Z</time></trkpt><trkpt lat="43.0514783" lon="11.4370633"><ele>469.66666666666663</ele><time>2026-04-18T13:56:51.009Z</time></trkpt><trkpt lat="43.0514233" lon="11.4371533"><ele>469.8333333333333</ele><time>2026-04-18T13:56:52.009Z</time></trkpt><trkpt lat="43.0513683" lon="11.4372517"><ele>470.0</ele><time>2026-04-18T13:56:53.01Z</time></trkpt><trkpt lat="43.05131" lon="11.43734"><ele>470.0</ele><time>2026-04-18T13:56:54.009Z</time></trkpt><trkpt lat="43.0512417" lon="11.4374133"><ele>470.0</ele><time>2026-04-18T13:56:55.01Z</time></trkpt><trkpt lat="43.0511717" lon="11.4374867"><ele>470.0</ele><time>2026-04-18T13:56:56.01Z</time></trkpt><trkpt lat="43.0510917" lon="11.43755"><ele>470.0</ele><time>2026-04-18T13:56:57.009Z</time></trkpt><trkpt lat="43.05101" lon="11.4376067"><ele>470.0</ele><time>2026-04-18T13:56:58.01Z</time></trkpt><trkpt lat="43.0509283" lon="11.4376633"><ele>469.99999999999994</ele><time>2026-04-18T13:56:59.009Z</time></trkpt><trkpt lat="43.0508433" lon="11.4377133"><ele>470.0</ele><time>2026-04-18T13:57:00.01Z</time></trkpt><trkpt lat="43.0507683" lon="11.4377683"><ele>470.0</ele><time>2026-04-18T13:57:01.01Z</time></trkpt><trkpt lat="43.0506933" lon="11.437815"><ele>470.0</ele><time>2026-04-18T13:57:02.01Z</time></trkpt><trkpt lat="43.05063" lon="11.43788"><ele>469.99999999999994</ele><time>2026-04-18T13:57:03.01Z</time></trkpt><trkpt lat="43.0505683" lon="11.4379517"><ele>470.0</ele><time>2026-04-18T13:57:04.01Z</time></trkpt><trkpt lat="43.0505167" lon="11.438035"><ele>471.99999999999994</ele><time>2026-04-18T13:57:05.01Z</time></trkpt><trkpt lat="43.050475" lon="11.4381383"><ele>474.0</ele><time>2026-04-18T13:57:06.009Z</time></trkpt><trkpt lat="43.05045" lon="11.4382567"><ele>476.0</ele><time>2026-04-18T13:57:07.01Z</time></trkpt><trkpt lat="43.0504317" lon="11.438375"><ele>478.0</ele><time>2026-04-18T13:57:08.01Z</time></trkpt><trkpt lat="43.05041" lon="11.4384917"><ele>479.99999999999994</ele><time>2026-04-18T13:57:09.009Z</time></trkpt><trkpt lat="43.05039" lon="11.4386083"><ele>482.0</ele><time>2026-04-18T13:57:10.009Z</time></trkpt><trkpt lat="43.0503733" lon="11.4387133"><ele>482.8333333333333</ele><time>2026-04-18T13:57:11.01Z</time></trkpt><trkpt lat="43.05037" lon="11.4388083"><ele>483.66666666666663</ele><time>2026-04-18T13:57:12.009Z</time></trkpt><trkpt lat="43.0503933" lon="11.438915"><ele>484.5</ele><time>2026-04-18T13:57:13.009Z</time></trkpt><trkpt lat="43.0504317" lon="11.4390217"><ele>485.33333333333337</ele><time>2026-04-18T13:57:14.01Z</time></trkpt><trkpt lat="43.05049" lon="11.43913"><ele>486.1666666666667</ele><time>2026-04-18T13:57:15.009Z</time></trkpt><trkpt lat="43.0505533" lon="11.4392367"><ele>487.0</ele><time>2026-04-18T13:57:16.009Z</time></trkpt><trkpt lat="43.0506067" lon="11.43934"><ele>487.0</ele><time>2026-04-18T13:57:17.009Z</time></trkpt><trkpt lat="43.050655" lon="11.439455"><ele>487.00000000000006</ele><time>2026-04-18T13:57:18.01Z</time></trkpt><trkpt lat="43.0506833" lon="11.4395817"><ele>487.00000000000006</ele><time>2026-04-18T13:57:19.009Z</time></trkpt><trkpt lat="43.0506967" lon="11.43972"><ele>487.0</ele><time>2026-04-18T13:57:20.009Z</time></trkpt><trkpt lat="43.0507" lon="11.4398517"><ele>487.0</ele><time>2026-04-18T13:57:21.009Z</time></trkpt><trkpt lat="43.050695" lon="11.4399817"><ele>485.8</ele><time>2026-04-18T13:57:22.009Z</time></trkpt><trkpt lat="43.0506733" lon="11.4401183"><ele>484.6</ele><time>2026-04-18T13:57:23.009Z</time></trkpt><trkpt lat="43.0506317" lon="11.4402417"><ele>483.40000000000003</ele><time>2026-04-18T13:57:24.009Z</time></trkpt><trkpt lat="43.0505717" lon="11.4403617"><ele>482.20000000000005</ele><time>2026-04-18T13:57:25.009Z</time></trkpt><trkpt lat="43.0505" lon="11.4404617"><ele>481.0</ele><time>2026-04-18T13:57:26.009Z</time></trkpt><trkpt lat="43.05042" lon="11.4405433"><ele>478.20000000000005</ele><time>2026-04-18T13:57:27.01Z</time></trkpt><trkpt lat="43.0503283" lon="11.440615"><ele>475.40000000000003</ele><time>2026-04-18T13:57:28.01Z</time></trkpt><trkpt lat="43.050245" lon="11.4406967"><ele>472.6</ele><time>2026-04-18T13:57:29.009Z</time></trkpt><trkpt lat="43.050175" lon="11.440785"><ele>469.8</ele><time>2026-04-18T13:57:30.009Z</time></trkpt><trkpt lat="43.05012" lon="11.4408817"><ele>467.0</ele><time>2026-04-18T13:57:31.01Z</time></trkpt><trkpt lat="43.050075" lon="11.4409983"><ele>467.0</ele><time>2026-04-18T13:57:32.009Z</time></trkpt><trkpt lat="43.0500533" lon="11.4411317"><ele>467.0</ele><time>2026-04-18T13:57:33.009Z</time></trkpt><trkpt lat="43.0500517" lon="11.4412817"><ele>467.0</ele><time>2026-04-18T13:57:34.01Z</time></trkpt><trkpt lat="43.0500617" lon="11.441455"><ele>467.0</ele><time>2026-04-18T13:57:35.009Z</time></trkpt><trkpt lat="43.0500767" lon="11.4416517"><ele>466.0</ele><time>2026-04-18T13:57:36.009Z</time></trkpt><trkpt lat="43.05009" lon="11.4418833"><ele>465.0</ele><time>2026-04-18T13:57:37.01Z</time></trkpt><trkpt lat="43.0501017" lon="11.4421383"><ele>464.0</ele><time>2026-04-18T13:57:38.01Z</time></trkpt><trkpt lat="43.0501133" lon="11.4423833"><ele>464.0</ele><time>2026-04-18T13:57:39.009Z</time></trkpt><trkpt lat="43.05012" lon="11.442615"><ele>464.0</ele><time>2026-04-18T13:57:40.01Z</time></trkpt><trkpt lat="43.0501333" lon="11.4428267"><ele>464.0</ele><time>2026-04-18T13:57:41.009Z</time></trkpt><trkpt lat="43.0501417" lon="11.4430267"><ele>465.75</ele><time>2026-04-18T13:57:42.009Z</time></trkpt><trkpt lat="43.05014" lon="11.443205"><ele>467.5</ele><time>2026-04-18T13:57:43.01Z</time></trkpt><trkpt lat="43.0501217" lon="11.443385"><ele>469.25</ele><time>2026-04-18T13:57:44.009Z</time></trkpt><trkpt lat="43.0500917" lon="11.44359"><ele>471.0</ele><time>2026-04-18T13:57:45.009Z</time></trkpt><trkpt lat="43.0500517" lon="11.44381"><ele>470.75</ele><time>2026-04-18T13:57:46.009Z</time></trkpt><trkpt lat="43.0500083" lon="11.444005"><ele>470.5</ele><time>2026-04-18T13:57:47.009Z</time></trkpt><trkpt lat="43.0499733" lon="11.4441783"><ele>470.25</ele><time>2026-04-18T13:57:48.009Z</time></trkpt><trkpt lat="43.0499417" lon="11.44435"><ele>470.0</ele><time>2026-04-18T13:57:49.009Z</time></trkpt><trkpt lat="43.0499383" lon="11.4445317"><ele>467.75</ele><time>2026-04-18T13:57:50.01Z</time></trkpt><trkpt lat="43.0499367" lon="11.444725"><ele>465.5</ele><time>2026-04-18T13:57:51.01Z</time></trkpt><trkpt lat="43.0499317" lon="11.4449033"><ele>463.25</ele><time>2026-04-18T13:57:52.009Z</time></trkpt><trkpt lat="43.04992" lon="11.4450767"><ele>461.0</ele><time>2026-04-18T13:57:53.01Z</time></trkpt><trkpt lat="43.0498833" lon="11.4452467"><ele>461.0</ele><time>2026-04-18T13:57:54.009Z</time></trkpt><trkpt lat="43.0498367" lon="11.4454217"><ele>461.0</ele><time>2026-04-18T13:57:55.009Z</time></trkpt><trkpt lat="43.049775" lon="11.4455917"><ele>461.0</ele><time>2026-04-18T13:57:56.009Z</time></trkpt><trkpt lat="43.0497217" lon="11.445765"><ele>461.0</ele><time>2026-04-18T13:57:57.009Z</time></trkpt><trkpt lat="43.0496883" lon="11.4459433"><ele>461.0</ele><time>2026-04-18T13:57:58.009Z</time></trkpt><trkpt lat="43.0496567" lon="11.4461333"><ele>461.0</ele><time>2026-04-18T13:57:59.01Z</time></trkpt><trkpt lat="43.0496333" lon="11.4463383"><ele>461.0</ele><time>2026-04-18T13:58:00.01Z</time></trkpt><trkpt lat="43.04962" lon="11.4465617"><ele>462.3333333333333</ele><time>2026-04-18T13:58:01.009Z</time></trkpt><trkpt lat="43.0496133" lon="11.4467817"><ele>463.66666666666663</ele><time>2026-04-18T13:58:02.009Z</time></trkpt><trkpt lat="43.0496033" lon="11.4469883"><ele>465.0</ele><time>2026-04-18T13:58:03.01Z</time></trkpt><trkpt lat="43.0495983" lon="11.4471817"><ele>465.2</ele><time>2026-04-18T13:58:04.01Z</time></trkpt><trkpt lat="43.0495933" lon="11.44736"><ele>465.4</ele><time>2026-04-18T13:58:05.009Z</time></trkpt><trkpt lat="43.0495867" lon="11.44751"><ele>465.6</ele><time>2026-04-18T13:58:06.01Z</time></trkpt><trkpt lat="43.0495883" lon="11.44765"><ele>465.8</ele><time>2026-04-18T13:58:07.009Z</time></trkpt><trkpt lat="43.0496017" lon="11.4477817"><ele>466.0</ele><time>2026-04-18T13:58:08.009Z</time></trkpt><trkpt lat="43.0496233" lon="11.4479117"><ele>466.50000000000006</ele><time>2026-04-18T13:58:09.01Z</time></trkpt><trkpt lat="43.04966" lon="11.44803"><ele>467.0</ele><time>2026-04-18T13:58:10.009Z</time></trkpt><trkpt lat="43.0496883" lon="11.4481317"><ele>467.5</ele><time>2026-04-18T13:58:11.01Z</time></trkpt><trkpt lat="43.0497033" lon="11.4482317"><ele>468.0</ele><time>2026-04-18T13:58:12.009Z</time></trkpt><trkpt lat="43.049705" lon="11.4483283"><ele>468.50000000000006</ele><time>2026-04-18T13:58:13.01Z</time></trkpt><trkpt lat="43.0496733" lon="11.448405"><ele>469.0</ele><time>2026-04-18T13:58:14.009Z</time></trkpt><trkpt lat="43.0495983" lon="11.448505"><ele>469.0</ele><time>2026-04-18T13:58:15.009Z</time></trkpt><trkpt lat="43.0495133" lon="11.4486017"><ele>469.0</ele><time>2026-04-18T13:58:16.01Z</time></trkpt><trkpt lat="43.04942" lon="11.448715"><ele>469.0</ele><time>2026-04-18T13:58:17.009Z</time></trkpt><trkpt lat="43.0493233" lon="11.448845"><ele>469.0</ele><time>2026-04-18T13:58:18.01Z</time></trkpt><trkpt lat="43.0492217" lon="11.4489817"><ele>469.6666666666667</ele><time>2026-04-18T13:58:19.009Z</time></trkpt><trkpt lat="43.0491133" lon="11.449125"><ele>470.33333333333337</ele><time>2026-04-18T13:58:20.01Z</time></trkpt><trkpt lat="43.0490067" lon="11.4492833"><ele>471.0</ele><time>2026-04-18T13:58:21.009Z</time></trkpt><trkpt lat="43.0488183" lon="11.4495667"><ele>473.6</ele><time>2026-04-18T13:58:23.009Z</time></trkpt><trkpt lat="43.04874" lon="11.44969"><ele>476.20000000000005</ele><time>2026-04-18T13:58:24.009Z</time></trkpt><trkpt lat="43.0486583" lon="11.4498017"><ele>478.79999999999995</ele><time>2026-04-18T13:58:25.009Z</time></trkpt><trkpt lat="43.048585" lon="11.4498933"><ele>481.4</ele><time>2026-04-18T13:58:26.009Z</time></trkpt><trkpt lat="43.0485167" lon="11.4499767"><ele>484.0</ele><time>2026-04-18T13:58:27.009Z</time></trkpt><trkpt lat="43.0484583" lon="11.4500617"><ele>484.0</ele><time>2026-04-18T13:58:28.009Z</time></trkpt><trkpt lat="43.0483967" lon="11.4501267"><ele>483.99999999999994</ele><time>2026-04-18T13:58:29.01Z</time></trkpt><trkpt lat="43.0483383" lon="11.45018"><ele>484.0</ele><time>2026-04-18T13:58:30.009Z</time></trkpt><trkpt lat="43.0482867" lon="11.4502383"><ele>484.0</ele><time>2026-04-18T13:58:31.009Z</time></trkpt><trkpt lat="43.0482367" lon="11.4502967"><ele>483.99999999999994</ele><time>2026-04-18T13:58:32.01Z</time></trkpt><trkpt lat="43.048185" lon="11.4503683"><ele>484.0</ele><time>2026-04-18T13:58:33.009Z</time></trkpt><trkpt lat="43.04814" lon="11.4504433"><ele>484.0</ele><time>2026-04-18T13:58:34.009Z</time></trkpt><trkpt lat="43.0481033" lon="11.4505183"><ele>483.4</ele><time>2026-04-18T13:58:35.009Z</time></trkpt><trkpt lat="43.0480783" lon="11.4506133"><ele>482.79999999999995</ele><time>2026-04-18T13:58:36.009Z</time></trkpt><trkpt lat="43.0480633" lon="11.450725"><ele>482.20000000000005</ele><time>2026-04-18T13:58:37.01Z</time></trkpt><trkpt lat="43.0480467" lon="11.450855"><ele>481.6</ele><time>2026-04-18T13:58:38.009Z</time></trkpt><trkpt lat="43.0480267" lon="11.4509983"><ele>481.0</ele><time>2026-04-18T13:58:39.01Z</time></trkpt><trkpt lat="43.0479967" lon="11.451145"><ele>482.0</ele><time>2026-04-18T13:58:40.009Z</time></trkpt><trkpt lat="43.04797" lon="11.4512983"><ele>483.0</ele><time>2026-04-18T13:58:41.01Z</time></trkpt><trkpt lat="43.04793" lon="11.4514533"><ele>484.0</ele><time>2026-04-18T13:58:42.01Z</time></trkpt><trkpt lat="43.0478883" lon="11.4516117"><ele>485.0</ele><time>2026-04-18T13:58:43.009Z</time></trkpt><trkpt lat="43.04784" lon="11.451755"><ele>485.0</ele><time>2026-04-18T13:58:44.009Z</time></trkpt><trkpt lat="43.0477933" lon="11.4518817"><ele>485.0</ele><time>2026-04-18T13:58:45.01Z</time></trkpt><trkpt lat="43.047755" lon="11.452015"><ele>485.0</ele><time>2026-04-18T13:58:46.01Z</time></trkpt><trkpt lat="43.0477067" lon="11.4521767"><ele>485.0</ele><time>2026-04-18T13:58:47.01Z</time></trkpt><trkpt lat="43.0476717" lon="11.4523783"><ele>486.66666666666663</ele><time>2026-04-18T13:58:48.009Z</time></trkpt><trkpt lat="43.0476283" lon="11.452605"><ele>488.33333333333337</ele><time>2026-04-18T13:58:49.009Z</time></trkpt><trkpt lat="43.04759" lon="11.4528333"><ele>490.0</ele><time>2026-04-18T13:58:50.009Z</time></trkpt><trkpt lat="43.0475583" lon="11.4530567"><ele>490.75</ele><time>2026-04-18T13:58:51.009Z</time></trkpt><trkpt lat="43.0475367" lon="11.4532583"><ele>491.5</ele><time>2026-04-18T13:58:52.01Z</time></trkpt><trkpt lat="43.047515" lon="11.4534267"><ele>492.25</ele><time>2026-04-18T13:58:53.01Z</time></trkpt><trkpt lat="43.047495" lon="11.4535833"><ele>493.0</ele><time>2026-04-18T13:58:54.009Z</time></trkpt><trkpt lat="43.04746" lon="11.45372"><ele>494.79999999999995</ele><time>2026-04-18T13:58:55.01Z</time></trkpt><trkpt lat="43.047405" lon="11.453825"><ele>496.59999999999997</ele><time>2026-04-18T13:58:56.01Z</time></trkpt><trkpt lat="43.047325" lon="11.45391"><ele>498.40000000000003</ele><time>2026-04-18T13:58:57.01Z</time></trkpt><trkpt lat="43.0472233" lon="11.453975"><ele>500.20000000000005</ele><time>2026-04-18T13:58:58.009Z</time></trkpt><trkpt lat="43.0471183" lon="11.4540483"><ele>502.0</ele><time>2026-04-18T13:58:59.009Z</time></trkpt><trkpt lat="43.0469933" lon="11.454125"><ele>502.0</ele><time>2026-04-18T13:59:00.01Z</time></trkpt><trkpt lat="43.0468683" lon="11.4541933"><ele>502.0</ele><time>2026-04-18T13:59:01.009Z</time></trkpt><trkpt lat="43.0467483" lon="11.4542633"><ele>502.0</ele><time>2026-04-18T13:59:02.01Z</time></trkpt><trkpt lat="43.0466267" lon="11.454345"><ele>502.0</ele><time>2026-04-18T13:59:03.009Z</time></trkpt><trkpt lat="43.046495" lon="11.4544467"><ele>503.6666666666667</ele><time>2026-04-18T13:59:04.009Z</time></trkpt><trkpt lat="43.0463617" lon="11.4545617"><ele>505.33333333333337</ele><time>2026-04-18T13:59:05.01Z</time></trkpt><trkpt lat="43.0462317" lon="11.4546683"><ele>507.0</ele><time>2026-04-18T13:59:06.01Z</time></trkpt><trkpt lat="43.0461067" lon="11.4547567"><ele>507.0</ele><time>2026-04-18T13:59:07.009Z</time></trkpt><trkpt lat="43.045975" lon="11.454845"><ele>507.0</ele><time>2026-04-18T13:59:08.01Z</time></trkpt><trkpt lat="43.0458433" lon="11.454925"><ele>507.0</ele><time>2026-04-18T13:59:09.009Z</time></trkpt><trkpt lat="43.0457283" lon="11.455"><ele>507.0</ele><time>2026-04-18T13:59:10.009Z</time></trkpt><trkpt lat="43.0456283" lon="11.455075"><ele>506.75</ele><time>2026-04-18T13:59:11.009Z</time></trkpt><trkpt lat="43.045545" lon="11.45517"><ele>506.5</ele><time>2026-04-18T13:59:12.01Z</time></trkpt><trkpt lat="43.0454767" lon="11.455295"><ele>506.25</ele><time>2026-04-18T13:59:13.009Z</time></trkpt><trkpt lat="43.045405" lon="11.4554483"><ele>506.0</ele><time>2026-04-18T13:59:14.009Z</time></trkpt><trkpt lat="43.04532" lon="11.455615"><ele>505.5</ele><time>2026-04-18T13:59:15.009Z</time></trkpt><trkpt lat="43.045235" lon="11.455785"><ele>505.0</ele><time>2026-04-18T13:59:16.01Z</time></trkpt><trkpt lat="43.0451517" lon="11.455955"><ele>504.5</ele><time>2026-04-18T13:59:17.009Z</time></trkpt><trkpt lat="43.0450683" lon="11.4561133"><ele>504.0</ele><time>2026-04-18T13:59:18.009Z</time></trkpt><trkpt lat="43.0449833" lon="11.4562633"><ele>503.5</ele><time>2026-04-18T13:59:19.01Z</time></trkpt><trkpt lat="43.044905" lon="11.4564033"><ele>503.0</ele><time>2026-04-18T13:59:20.009Z</time></trkpt><trkpt lat="43.04485" lon="11.4565483"><ele>502.5</ele><time>2026-04-18T13:59:21.009Z</time></trkpt><trkpt lat="43.0448167" lon="11.45671"><ele>502.0</ele><time>2026-04-18T13:59:22.009Z</time></trkpt><trkpt lat="43.04479" lon="11.456895"><ele>502.0</ele><time>2026-04-18T13:59:23.009Z</time></trkpt><trkpt lat="43.0447583" lon="11.45706"><ele>502.00000000000006</ele><time>2026-04-18T13:59:24.009Z</time></trkpt><trkpt lat="43.0447233" lon="11.4571983"><ele>502.00000000000006</ele><time>2026-04-18T13:59:25.009Z</time></trkpt><trkpt lat="43.0446817" lon="11.4573217"><ele>502.0</ele><time>2026-04-18T13:59:26.009Z</time></trkpt><trkpt lat="43.0446183" lon="11.45743"><ele>502.0</ele><time>2026-04-18T13:59:27.009Z</time></trkpt><trkpt lat="43.04452" lon="11.45753"><ele>503.25</ele><time>2026-04-18T13:59:28.01Z</time></trkpt><trkpt lat="43.0444033" lon="11.45763"><ele>504.5</ele><time>2026-04-18T13:59:29.009Z</time></trkpt><trkpt lat="43.04429" lon="11.4577267"><ele>505.75</ele><time>2026-04-18T13:59:30.009Z</time></trkpt><trkpt lat="43.04419" lon="11.457835"><ele>507.0</ele><time>2026-04-18T13:59:31.009Z</time></trkpt><trkpt lat="43.04409" lon="11.4579783"><ele>507.0</ele><time>2026-04-18T13:59:32.01Z</time></trkpt><trkpt lat="43.0439717" lon="11.4581433"><ele>507.0</ele><time>2026-04-18T13:59:33.009Z</time></trkpt><trkpt lat="43.0438533" lon="11.45833"><ele>507.0</ele><time>2026-04-18T13:59:34.01Z</time></trkpt><trkpt lat="43.0437333" lon="11.4585133"><ele>507.0</ele><time>2026-04-18T13:59:35.009Z</time></trkpt><trkpt lat="43.043625" lon="11.4586817"><ele>507.0</ele><time>2026-04-18T13:59:36.01Z</time></trkpt><trkpt lat="43.04352" lon="11.4588367"><ele>507.0</ele><time>2026-04-18T13:59:37.01Z</time></trkpt><trkpt lat="43.0434067" lon="11.458965"><ele>507.0</ele><time>2026-04-18T13:59:38.01Z</time></trkpt><trkpt lat="43.04329" lon="11.4590717"><ele>507.0</ele><time>2026-04-18T13:59:39.009Z</time></trkpt><trkpt lat="43.043175" lon="11.45916"><ele>507.0</ele><time>2026-04-18T13:59:40.009Z</time></trkpt><trkpt lat="43.0430683" lon="11.459235"><ele>507.0</ele><time>2026-04-18T13:59:41.01Z</time></trkpt><trkpt lat="43.042975" lon="11.4593133"><ele>507.0</ele><time>2026-04-18T13:59:42.009Z</time></trkpt><trkpt lat="43.042895" lon="11.4594117"><ele>507.0</ele><time>2026-04-18T13:59:43.009Z</time></trkpt><trkpt lat="43.0428267" lon="11.459545"><ele>507.0</ele><time>2026-04-18T13:59:44.01Z</time></trkpt><trkpt lat="43.0427833" lon="11.4597117"><ele>507.0</ele><time>2026-04-18T13:59:45.01Z</time></trkpt><trkpt lat="43.0427483" lon="11.45987"><ele>507.6</ele><time>2026-04-18T13:59:46.01Z</time></trkpt><trkpt lat="43.0427267" lon="11.460005"><ele>508.20000000000005</ele><time>2026-04-18T13:59:47.009Z</time></trkpt><trkpt lat="43.0427217" lon="11.4601267"><ele>508.8</ele><time>2026-04-18T13:59:48.009Z</time></trkpt><trkpt lat="43.0427367" lon="11.4602517"><ele>509.4</ele><time>2026-04-18T13:59:49.009Z</time></trkpt><trkpt lat="43.0427733" lon="11.4603917"><ele>510.0</ele><time>2026-04-18T13:59:50.01Z</time></trkpt><trkpt lat="43.0428283" lon="11.4605417"><ele>510.0</ele><time>2026-04-18T13:59:51.009Z</time></trkpt><trkpt lat="43.042905" lon="11.4607083"><ele>510.0</ele><time>2026-04-18T13:59:52.009Z</time></trkpt><trkpt lat="43.042995" lon="11.4608967"><ele>510.0</ele><time>2026-04-18T13:59:53.009Z</time></trkpt><trkpt lat="43.0430867" lon="11.4610983"><ele>508.0</ele><time>2026-04-18T13:59:54.009Z</time></trkpt><trkpt lat="43.0431767" lon="11.4613033"><ele>506.0</ele><time>2026-04-18T13:59:55.01Z</time></trkpt><trkpt lat="43.04326" lon="11.461495"><ele>504.0</ele><time>2026-04-18T13:59:56.009Z</time></trkpt><trkpt lat="43.0433383" lon="11.4616883"><ele>503.25</ele><time>2026-04-18T13:59:57.01Z</time></trkpt><trkpt lat="43.0434183" lon="11.461885"><ele>502.5</ele><time>2026-04-18T13:59:58.009Z</time></trkpt><trkpt lat="43.04349" lon="11.4620617"><ele>501.75</ele><time>2026-04-18T13:59:59.01Z</time></trkpt><trkpt lat="43.0435517" lon="11.4622167"><ele>501.0</ele><time>2026-04-18T14:00:00.009Z</time></trkpt><trkpt lat="43.0436017" lon="11.462355"><ele>501.0</ele><time>2026-04-18T14:00:01.01Z</time></trkpt><trkpt lat="43.04363" lon="11.4624817"><ele>501.0</ele><time>2026-04-18T14:00:02.009Z</time></trkpt><trkpt lat="43.0436367" lon="11.462605"><ele>501.0</ele><time>2026-04-18T14:00:03.009Z</time></trkpt><trkpt lat="43.0436183" lon="11.4627317"><ele>501.0</ele><time>2026-04-18T14:00:04.01Z</time></trkpt><trkpt lat="43.0435767" lon="11.4628583"><ele>501.0</ele><time>2026-04-18T14:00:05.01Z</time></trkpt><trkpt lat="43.0435017" lon="11.4629833"><ele>501.0</ele><time>2026-04-18T14:00:06.01Z</time></trkpt><trkpt lat="43.043415" lon="11.46312"><ele>501.0</ele><time>2026-04-18T14:00:07.009Z</time></trkpt><trkpt lat="43.0433217" lon="11.4632567"><ele>501.0</ele><time>2026-04-18T14:00:08.009Z</time></trkpt><trkpt lat="43.0432483" lon="11.4633867"><ele>501.0</ele><time>2026-04-18T14:00:09.009Z</time></trkpt><trkpt lat="43.0432017" lon="11.4635233"><ele>500.5</ele><time>2026-04-18T14:00:10.01Z</time></trkpt><trkpt lat="43.0431683" lon="11.4636833"><ele>500.0</ele><time>2026-04-18T14:00:11.01Z</time></trkpt><trkpt lat="43.0431483" lon="11.4638867"><ele>499.5</ele><time>2026-04-18T14:00:12.009Z</time></trkpt><trkpt lat="43.0431217" lon="11.4641"><ele>499.0</ele><time>2026-04-18T14:00:13.009Z</time></trkpt><trkpt lat="43.0430933" lon="11.4643017"><ele>499.0</ele><time>2026-04-18T14:00:14.009Z</time></trkpt><trkpt lat="43.0430567" lon="11.4644833"><ele>499.0</ele><time>2026-04-18T14:00:15.01Z</time></trkpt><trkpt lat="43.0430183" lon="11.4646517"><ele>499.0</ele><time>2026-04-18T14:00:16.009Z</time></trkpt><trkpt lat="43.0429767" lon="11.4648067"><ele>499.0</ele><time>2026-04-18T14:00:17.009Z</time></trkpt><trkpt lat="43.042935" lon="11.4649583"><ele>499.75</ele><time>2026-04-18T14:00:18.009Z</time></trkpt><trkpt lat="43.04288" lon="11.46511"><ele>500.5</ele><time>2026-04-18T14:00:19.009Z</time></trkpt><trkpt lat="43.042825" lon="11.4652517"><ele>501.25</ele><time>2026-04-18T14:00:20.009Z</time></trkpt><trkpt lat="43.0427683" lon="11.4654033"><ele>502.0</ele><time>2026-04-18T14:00:21.009Z</time></trkpt><trkpt lat="43.0427233" lon="11.4655683"><ele>502.0</ele><time>2026-04-18T14:00:22.009Z</time></trkpt><trkpt lat="43.042695" lon="11.4657483"><ele>502.0</ele><time>2026-04-18T14:00:23.009Z</time></trkpt><trkpt lat="43.04268" lon="11.465955"><ele>502.0</ele><time>2026-04-18T14:00:24.01Z</time></trkpt><trkpt lat="43.0426617" lon="11.4661817"><ele>501.75</ele><time>2026-04-18T14:00:25.01Z</time></trkpt><trkpt lat="43.0426517" lon="11.4664033"><ele>501.5</ele><time>2026-04-18T14:00:26.009Z</time></trkpt><trkpt lat="43.042645" lon="11.4665967"><ele>501.25</ele><time>2026-04-18T14:00:27.01Z</time></trkpt><trkpt lat="43.0426367" lon="11.4667633"><ele>501.0</ele><time>2026-04-18T14:00:28.009Z</time></trkpt><trkpt lat="43.0426217" lon="11.466915"><ele>501.0</ele><time>2026-04-18T14:00:29.009Z</time></trkpt><trkpt lat="43.0426067" lon="11.4670633"><ele>501.0</ele><time>2026-04-18T14:00:30.009Z</time></trkpt><trkpt lat="43.04257" lon="11.4672167"><ele>501.0</ele><time>2026-04-18T14:00:31.01Z</time></trkpt><trkpt lat="43.042515" lon="11.4673783"><ele>501.0</ele><time>2026-04-18T14:00:32.009Z</time></trkpt><trkpt lat="43.0424467" lon="11.467565"><ele>501.66666666666663</ele><time>2026-04-18T14:00:33.009Z</time></trkpt><trkpt lat="43.04237" lon="11.4677883"><ele>502.3333333333333</ele><time>2026-04-18T14:00:34.01Z</time></trkpt><trkpt lat="43.0423" lon="11.468035"><ele>503.0</ele><time>2026-04-18T14:00:35.009Z</time></trkpt><trkpt lat="43.0422383" lon="11.4683"><ele>503.5</ele><time>2026-04-18T14:00:36.009Z</time></trkpt><trkpt lat="43.0421833" lon="11.46852"><ele>504.0</ele><time>2026-04-18T14:00:37.009Z</time></trkpt><trkpt lat="43.0421383" lon="11.4687133"><ele>504.5</ele><time>2026-04-18T14:00:38.009Z</time></trkpt><trkpt lat="43.0420967" lon="11.4688717"><ele>505.0</ele><time>2026-04-18T14:00:39.009Z</time></trkpt><trkpt lat="43.0420517" lon="11.4689983"><ele>505.1666666666667</ele><time>2026-04-18T14:00:40.01Z</time></trkpt><trkpt lat="43.04199" lon="11.4690983"><ele>505.33333333333337</ele><time>2026-04-18T14:00:41.01Z</time></trkpt><trkpt lat="43.0419233" lon="11.4691783"><ele>505.5</ele><time>2026-04-18T14:00:42.009Z</time></trkpt><trkpt lat="43.04185" lon="11.4692367"><ele>505.66666666666663</ele><time>2026-04-18T14:00:43.009Z</time></trkpt><trkpt lat="43.0417733" lon="11.4692867"><ele>505.8333333333333</ele><time>2026-04-18T14:00:44.01Z</time></trkpt><trkpt lat="43.0416933" lon="11.4693283"><ele>506.0</ele><time>2026-04-18T14:00:45.009Z</time></trkpt><trkpt lat="43.041615" lon="11.4693683"><ele>506.99999999999994</ele><time>2026-04-18T14:00:46.009Z</time></trkpt><trkpt lat="43.0415383" lon="11.4694067"><ele>508.0</ele><time>2026-04-18T14:00:47.009Z</time></trkpt><trkpt lat="43.0414583" lon="11.4694417"><ele>509.0</ele><time>2026-04-18T14:00:48.009Z</time></trkpt><trkpt lat="43.0413783" lon="11.4694833"><ele>510.0</ele><time>2026-04-18T14:00:49.009Z</time></trkpt><trkpt lat="43.0413017" lon="11.46953"><ele>510.99999999999994</ele><time>2026-04-18T14:00:50.009Z</time></trkpt><trkpt lat="43.0412267" lon="11.46958"><ele>512.0</ele><time>2026-04-18T14:00:51.009Z</time></trkpt><trkpt lat="43.0411583" lon="11.4696367"><ele>512.8000000000001</ele><time>2026-04-18T14:00:52.009Z</time></trkpt><trkpt lat="43.0410867" lon="11.4696983"><ele>513.6</ele><time>2026-04-18T14:00:53.009Z</time></trkpt><trkpt lat="43.040955" lon="11.4698283"><ele>514.4000000000001</ele><time>2026-04-18T14:00:55.009Z</time></trkpt><trkpt lat="43.0408917" lon="11.469895"><ele>515.2</ele><time>2026-04-18T14:00:56.009Z</time></trkpt><trkpt lat="43.0408283" lon="11.4699633"><ele>516.0</ele><time>2026-04-18T14:00:57.009Z</time></trkpt><trkpt lat="43.0407717" lon="11.4700267"><ele>517.25</ele><time>2026-04-18T14:00:58.008Z</time></trkpt><trkpt lat="43.0406867" lon="11.4701283"><ele>518.5</ele><time>2026-04-18T14:01:00.008Z</time></trkpt><trkpt lat="43.0405983" lon="11.47024"><ele>519.75</ele><time>2026-04-18T14:02:51.009Z</time></trkpt><trkpt lat="43.0405083" lon="11.4703833"><ele>521.0</ele><time>2026-04-18T14:02:53.008Z</time></trkpt><trkpt lat="43.0404517" lon="11.4704733"><ele>522.4</ele><time>2026-04-18T14:02:54.008Z</time></trkpt><trkpt lat="43.0403867" lon="11.4705517"><ele>523.8</ele><time>2026-04-18T14:02:55.008Z</time></trkpt><trkpt lat="43.0403167" lon="11.4706267"><ele>525.1999999999999</ele><time>2026-04-18T14:02:56.009Z</time></trkpt><trkpt lat="43.0402367" lon="11.4706767"><ele>526.6</ele><time>2026-04-18T14:02:57.008Z</time></trkpt><trkpt lat="43.0401517" lon="11.4707067"><ele>528.0</ele><time>2026-04-18T14:02:58.009Z</time></trkpt><trkpt lat="43.0400533" lon="11.4707283"><ele>529.0</ele><time>2026-04-18T14:02:59.008Z</time></trkpt><trkpt lat="43.039945" lon="11.470755"><ele>530.0</ele><time>2026-04-18T14:03:00.008Z</time></trkpt><trkpt lat="43.039835" lon="11.47081"><ele>531.0</ele><time>2026-04-18T14:03:01.008Z</time></trkpt><trkpt lat="43.0397233" lon="11.4708783"><ele>532.0</ele><time>2026-04-18T14:03:02.009Z</time></trkpt><trkpt lat="43.0395983" lon="11.470945"><ele>532.0</ele><time>2026-04-18T14:03:03.008Z</time></trkpt><trkpt lat="43.0394733" lon="11.4710267"><ele>532.0</ele><time>2026-04-18T14:03:04.009Z</time></trkpt><trkpt lat="43.0393417" lon="11.4711217"><ele>532.0</ele><time>2026-04-18T14:03:05.008Z</time></trkpt><trkpt lat="43.03921" lon="11.4712167"><ele>532.0</ele><time>2026-04-18T14:03:06.009Z</time></trkpt><trkpt lat="43.0390983" lon="11.471305"><ele>532.25</ele><time>2026-04-18T14:03:07.008Z</time></trkpt><trkpt lat="43.039" lon="11.4714117"><ele>532.5</ele><time>2026-04-18T14:03:08.008Z</time></trkpt><trkpt lat="43.0389083" lon="11.4715333"><ele>532.75</ele><time>2026-04-18T14:03:09.008Z</time></trkpt><trkpt lat="43.0388233" lon="11.471665"><ele>533.0</ele><time>2026-04-18T14:03:10.008Z</time></trkpt><trkpt lat="43.0387533" lon="11.4718217"><ele>533.0</ele><time>2026-04-18T14:03:11.008Z</time></trkpt><trkpt lat="43.0387" lon="11.4719883"><ele>533.0</ele><time>2026-04-18T14:03:12.009Z</time></trkpt><trkpt lat="43.0386733" lon="11.4721633"><ele>533.0</ele><time>2026-04-18T14:03:13.008Z</time></trkpt><trkpt lat="43.0386583" lon="11.4723317"><ele>533.0</ele><time>2026-04-18T14:03:14.008Z</time></trkpt><trkpt lat="43.0386667" lon="11.472505"><ele>536.75</ele><time>2026-04-18T14:03:15.009Z</time></trkpt><trkpt lat="43.0386867" lon="11.472685"><ele>540.5</ele><time>2026-04-18T14:03:16.008Z</time></trkpt><trkpt lat="43.03871" lon="11.4728617"><ele>544.25</ele><time>2026-04-18T14:03:17.008Z</time></trkpt><trkpt lat="43.0387233" lon="11.47303"><ele>548.0</ele><time>2026-04-18T14:03:18.009Z</time></trkpt><trkpt lat="43.0387333" lon="11.4732017"><ele>551.0</ele><time>2026-04-18T14:03:19.008Z</time></trkpt><trkpt lat="43.0387217" lon="11.47337"><ele>554.0</ele><time>2026-04-18T14:03:20.008Z</time></trkpt><trkpt lat="43.038685" lon="11.47353"><ele>557.0</ele><time>2026-04-18T14:03:21.008Z</time></trkpt><trkpt lat="43.0386217" lon="11.4736667"><ele>560.0</ele><time>2026-04-18T14:03:22.008Z</time></trkpt><trkpt lat="43.03852" lon="11.4737767"><ele>562.25</ele><time>2026-04-18T14:03:23.009Z</time></trkpt><trkpt lat="43.03841" lon="11.4738683"><ele>564.5</ele><time>2026-04-18T14:03:24.009Z</time></trkpt><trkpt lat="43.038285" lon="11.473945"><ele>566.75</ele><time>2026-04-18T14:03:25.008Z</time></trkpt><trkpt lat="43.0381533" lon="11.4740183"><ele>569.0</ele><time>2026-04-18T14:03:26.008Z</time></trkpt><trkpt lat="43.0380167" lon="11.47408"><ele>569.0</ele><time>2026-04-18T14:03:27.008Z</time></trkpt><trkpt lat="43.03791" lon="11.4741467"><ele>569.0</ele><time>2026-04-18T14:03:28.008Z</time></trkpt><trkpt lat="43.0378183" lon="11.4742217"><ele>569.0</ele><time>2026-04-18T14:03:29.009Z</time></trkpt><trkpt lat="43.03775" lon="11.47432"><ele>569.0</ele><time>2026-04-18T14:03:30.008Z</time></trkpt><trkpt lat="43.0377" lon="11.47444"><ele>569.0</ele><time>2026-04-18T14:03:31.008Z</time></trkpt><trkpt lat="43.0376817" lon="11.47458"><ele>571.4</ele><time>2026-04-18T14:03:32.008Z</time></trkpt><trkpt lat="43.03768" lon="11.4747233"><ele>573.8</ele><time>2026-04-18T14:03:33.008Z</time></trkpt><trkpt lat="43.03769" lon="11.4748733"><ele>576.2</ele><time>2026-04-18T14:03:34.009Z</time></trkpt><trkpt lat="43.0376983" lon="11.475025"><ele>578.6</ele><time>2026-04-18T14:03:35.009Z</time></trkpt><trkpt lat="43.0377083" lon="11.4751783"><ele>581.0</ele><time>2026-04-18T14:03:36.008Z</time></trkpt><trkpt lat="43.0377133" lon="11.4753333"><ele>582.6</ele><time>2026-04-18T14:03:37.009Z</time></trkpt><trkpt lat="43.03772" lon="11.4754867"><ele>584.2</ele><time>2026-04-18T14:03:38.009Z</time></trkpt><trkpt lat="43.03773" lon="11.47564"><ele>585.8</ele><time>2026-04-18T14:03:39.008Z</time></trkpt><trkpt lat="43.03774" lon="11.475785"><ele>587.4</ele><time>2026-04-18T14:03:40.008Z</time></trkpt><trkpt lat="43.03774" lon="11.47594"><ele>589.0</ele><time>2026-04-18T14:03:41.008Z</time></trkpt><trkpt lat="43.0377417" lon="11.476085"><ele>589.0</ele><time>2026-04-18T14:03:42.008Z</time></trkpt><trkpt lat="43.037745" lon="11.47625"><ele>589.0</ele><time>2026-04-18T14:03:43.008Z</time></trkpt><trkpt lat="43.0377467" lon="11.4764"><ele>589.0</ele><time>2026-04-18T14:03:44.009Z</time></trkpt><trkpt lat="43.0377567" lon="11.47656"><ele>589.0</ele><time>2026-04-18T14:03:45.009Z</time></trkpt><trkpt lat="43.0377683" lon="11.476715"><ele>589.6</ele><time>2026-04-18T14:03:46.008Z</time></trkpt><trkpt lat="43.03777" lon="11.476865"><ele>590.2</ele><time>2026-04-18T14:03:47.009Z</time></trkpt><trkpt lat="43.0377767" lon="11.4770233"><ele>590.8000000000001</ele><time>2026-04-18T14:03:48.008Z</time></trkpt><trkpt lat="43.03778" lon="11.477175"><ele>591.4</ele><time>2026-04-18T14:03:49.009Z</time></trkpt><trkpt lat="43.0377733" lon="11.4773267"><ele>592.0</ele><time>2026-04-18T14:03:50.008Z</time></trkpt><trkpt lat="43.0377633" lon="11.4774783"><ele>593.5</ele><time>2026-04-18T14:03:51.009Z</time></trkpt><trkpt lat="43.0377483" lon="11.477635"><ele>595.0</ele><time>2026-04-18T14:03:52.008Z</time></trkpt><trkpt lat="43.0377283" lon="11.4777933"><ele>596.5</ele><time>2026-04-18T14:03:53.009Z</time></trkpt><trkpt lat="43.0377017" lon="11.4779533"><ele>598.0</ele><time>2026-04-18T14:03:54.009Z</time></trkpt><trkpt lat="43.0376733" lon="11.47811"><ele>598.0</ele><time>2026-04-18T14:03:55.009Z</time></trkpt><trkpt lat="43.03764" lon="11.4782667"><ele>598.0</ele><time>2026-04-18T14:03:56.008Z</time></trkpt><trkpt lat="43.0375933" lon="11.4784133"><ele>598.0</ele><time>2026-04-18T14:03:57.008Z</time></trkpt><trkpt lat="43.0375383" lon="11.478555"><ele>598.0</ele><time>2026-04-18T14:03:58.008Z</time></trkpt><trkpt lat="43.0374733" lon="11.4786933"><ele>598.1999999999999</ele><time>2026-04-18T14:03:59.008Z</time></trkpt><trkpt lat="43.0374083" lon="11.478815"><ele>598.4</ele><time>2026-04-18T14:04:00.008Z</time></trkpt><trkpt lat="43.0373367" lon="11.4789233"><ele>598.5999999999999</ele><time>2026-04-18T14:04:01.009Z</time></trkpt><trkpt lat="43.0372717" lon="11.4790267"><ele>598.8</ele><time>2026-04-18T14:04:02.008Z</time></trkpt><trkpt lat="43.0372017" lon="11.4791167"><ele>599.0</ele><time>2026-04-18T14:04:03.008Z</time></trkpt><trkpt lat="43.0371417" lon="11.4792083"><ele>599.0</ele><time>2026-04-18T14:04:04.008Z</time></trkpt><trkpt lat="43.0370917" lon="11.4792867"><ele>599.0</ele><time>2026-04-18T14:04:05.008Z</time></trkpt><trkpt lat="43.0370483" lon="11.479355"><ele>599.0</ele><time>2026-04-18T14:04:06.009Z</time></trkpt><trkpt lat="43.036975" lon="11.4794583"><ele>599.0</ele><time>2026-04-18T14:04:08.009Z</time></trkpt><trkpt lat="43.03691" lon="11.479525"><ele>599.0</ele><time>2026-04-18T14:04:10.009Z</time></trkpt><trkpt lat="43.0368683" lon="11.4796167"><ele>599.0</ele><time>2026-04-18T14:04:13.008Z</time></trkpt><trkpt lat="43.0368317" lon="11.4796983"><ele>599.3333333333333</ele><time>2026-04-18T14:04:16.009Z</time></trkpt><trkpt lat="43.0368383" lon="11.479825"><ele>599.6666666666666</ele><time>2026-04-18T14:04:34.009Z</time></trkpt><trkpt lat="43.036885" lon="11.4798833"><ele>600.0</ele><time>2026-04-18T14:04:35.009Z</time></trkpt><trkpt lat="43.0369567" lon="11.4799433"><ele>600.3333333333334</ele><time>2026-04-18T14:04:36.008Z</time></trkpt><trkpt lat="43.0370433" lon="11.4799967"><ele>600.6666666666667</ele><time>2026-04-18T14:04:37.009Z</time></trkpt><trkpt lat="43.037135" lon="11.48006"><ele>601.0</ele><time>2026-04-18T14:04:38.008Z</time></trkpt><trkpt lat="43.0372233" lon="11.4801183"><ele>601.0</ele><time>2026-04-18T14:04:39.009Z</time></trkpt><trkpt lat="43.0373133" lon="11.480195"><ele>601.0</ele><time>2026-04-18T14:04:40.008Z</time></trkpt><trkpt lat="43.0374017" lon="11.48028"><ele>601.0</ele><time>2026-04-18T14:04:41.008Z</time></trkpt><trkpt lat="43.0375017" lon="11.48037"><ele>601.0</ele><time>2026-04-18T14:04:42.009Z</time></trkpt><trkpt lat="43.0376067" lon="11.480465"><ele>598.75</ele><time>2026-04-18T14:04:43.008Z</time></trkpt><trkpt lat="43.037715" lon="11.4805583"><ele>596.5</ele><time>2026-04-18T14:04:44.008Z</time></trkpt><trkpt lat="43.037825" lon="11.48065"><ele>594.25</ele><time>2026-04-18T14:04:45.008Z</time></trkpt><trkpt lat="43.037935" lon="11.4807417"><ele>592.0</ele><time>2026-04-18T14:04:46.008Z</time></trkpt><trkpt lat="43.038045" lon="11.48084"><ele>592.0</ele><time>2026-04-18T14:04:47.009Z</time></trkpt><trkpt lat="43.03815" lon="11.4809417"><ele>592.0</ele><time>2026-04-18T14:04:48.008Z</time></trkpt><trkpt lat="43.03826" lon="11.4810383"><ele>592.0</ele><time>2026-04-18T14:04:49.009Z</time></trkpt><trkpt lat="43.0383717" lon="11.4811317"><ele>592.0</ele><time>2026-04-18T14:04:50.008Z</time></trkpt><trkpt lat="43.0384833" lon="11.481225"><ele>591.25</ele><time>2026-04-18T14:04:51.008Z</time></trkpt><trkpt lat="43.0385967" lon="11.48133"><ele>590.5</ele><time>2026-04-18T14:04:52.008Z</time></trkpt><trkpt lat="43.0387067" lon="11.481425"><ele>589.75</ele><time>2026-04-18T14:04:53.008Z</time></trkpt><trkpt lat="43.0388183" lon="11.48153"><ele>589.0</ele><time>2026-04-18T14:04:54.008Z</time></trkpt><trkpt lat="43.03893" lon="11.48163"><ele>589.0</ele><time>2026-04-18T14:04:55.008Z</time></trkpt><trkpt lat="43.03904" lon="11.4817283"><ele>589.0</ele><time>2026-04-18T14:04:56.008Z</time></trkpt><trkpt lat="43.0391467" lon="11.481825"><ele>589.0</ele><time>2026-04-18T14:04:57.008Z</time></trkpt><trkpt lat="43.0392567" lon="11.4819167"><ele>589.0</ele><time>2026-04-18T14:04:58.008Z</time></trkpt><trkpt lat="43.039365" lon="11.4820017"><ele>590.75</ele><time>2026-04-18T14:04:59.008Z</time></trkpt><trkpt lat="43.0394683" lon="11.482095"><ele>592.5</ele><time>2026-04-18T14:05:00.008Z</time></trkpt><trkpt lat="43.03958" lon="11.482195"><ele>594.25</ele><time>2026-04-18T14:05:01.008Z</time></trkpt><trkpt lat="43.0396917" lon="11.4823033"><ele>596.0</ele><time>2026-04-18T14:05:02.009Z</time></trkpt><trkpt lat="43.03981" lon="11.48241"><ele>598.25</ele><time>2026-04-18T14:05:03.008Z</time></trkpt><trkpt lat="43.03993" lon="11.4825"><ele>600.5</ele><time>2026-04-18T14:05:04.008Z</time></trkpt><trkpt lat="43.04005" lon="11.4825867"><ele>602.75</ele><time>2026-04-18T14:05:05.008Z</time></trkpt><trkpt lat="43.04017" lon="11.4826783"><ele>605.0</ele><time>2026-04-18T14:05:06.009Z</time></trkpt><trkpt lat="43.0402967" lon="11.4827583"><ele>606.25</ele><time>2026-04-18T14:05:07.009Z</time></trkpt><trkpt lat="43.0404333" lon="11.4828283"><ele>607.5</ele><time>2026-04-18T14:05:08.009Z</time></trkpt><trkpt lat="43.0405667" lon="11.4828933"><ele>608.75</ele><time>2026-04-18T14:05:09.008Z</time></trkpt><trkpt lat="43.0407033" lon="11.4829283"><ele>610.0</ele><time>2026-04-18T14:05:10.008Z</time></trkpt><trkpt lat="43.0408483" lon="11.4829683"><ele>612.0</ele><time>2026-04-18T14:05:11.008Z</time></trkpt><trkpt lat="43.0409933" lon="11.4829983"><ele>614.0</ele><time>2026-04-18T14:05:12.009Z</time></trkpt><trkpt lat="43.0411383" lon="11.4830383"><ele>616.0</ele><time>2026-04-18T14:05:13.007Z</time></trkpt><trkpt lat="43.0412883" lon="11.4830817"><ele>618.0</ele><time>2026-04-18T14:05:14.007Z</time></trkpt><trkpt lat="43.0414383" lon="11.4831317"><ele>618.0</ele><time>2026-04-18T14:05:15.007Z</time></trkpt><trkpt lat="43.0415817" lon="11.4831817"><ele>618.0</ele><time>2026-04-18T14:05:16.007Z</time></trkpt><trkpt lat="43.0417283" lon="11.4832317"><ele>618.0</ele><time>2026-04-18T14:05:17.008Z</time></trkpt><trkpt lat="43.041875" lon="11.4832817"><ele>616.0</ele><time>2026-04-18T14:05:18.008Z</time></trkpt><trkpt lat="43.0420217" lon="11.4833333"><ele>614.0</ele><time>2026-04-18T14:05:19.007Z</time></trkpt><trkpt lat="43.0421683" lon="11.4833817"><ele>612.0</ele><time>2026-04-18T14:05:20.007Z</time></trkpt><trkpt lat="43.0423133" lon="11.4834283"><ele>612.0</ele><time>2026-04-18T14:05:21.007Z</time></trkpt><trkpt lat="43.0424567" lon="11.4834683"><ele>612.0</ele><time>2026-04-18T14:05:22.007Z</time></trkpt><trkpt lat="43.042605" lon="11.4835017"><ele>612.0</ele><time>2026-04-18T14:05:23.007Z</time></trkpt><trkpt lat="43.0427433" lon="11.48354"><ele>612.0</ele><time>2026-04-18T14:05:24.007Z</time></trkpt><trkpt lat="43.0428833" lon="11.483585"><ele>612.25</ele><time>2026-04-18T14:05:25.008Z</time></trkpt><trkpt lat="43.0430217" lon="11.4836233"><ele>612.5</ele><time>2026-04-18T14:05:26.007Z</time></trkpt><trkpt lat="43.04316" lon="11.4836683"><ele>612.75</ele><time>2026-04-18T14:05:27.007Z</time></trkpt><trkpt lat="43.043295" lon="11.4837117"><ele>613.0</ele><time>2026-04-18T14:05:28.008Z</time></trkpt><trkpt lat="43.04343" lon="11.4837583"><ele>612.5</ele><time>2026-04-18T14:05:29.007Z</time></trkpt><trkpt lat="43.0435633" lon="11.4838133"><ele>612.0</ele><time>2026-04-18T14:05:30.007Z</time></trkpt><trkpt lat="43.0436867" lon="11.48389"><ele>611.5</ele><time>2026-04-18T14:05:31.008Z</time></trkpt><trkpt lat="43.04381" lon="11.4839767"><ele>611.0</ele><time>2026-04-18T14:05:32.008Z</time></trkpt><trkpt lat="43.043925" lon="11.4840883"><ele>611.0</ele><time>2026-04-18T14:05:33.007Z</time></trkpt><trkpt lat="43.0440383" lon="11.4842033"><ele>611.0</ele><time>2026-04-18T14:05:34.008Z</time></trkpt><trkpt lat="43.044145" lon="11.4843133"><ele>611.0</ele><time>2026-04-18T14:05:35.007Z</time></trkpt><trkpt lat="43.0442533" lon="11.4844167"><ele>611.0</ele><time>2026-04-18T14:05:36.007Z</time></trkpt><trkpt lat="43.04436" lon="11.4845283"><ele>611.25</ele><time>2026-04-18T14:05:37.007Z</time></trkpt><trkpt lat="43.044445" lon="11.4846567"><ele>611.5</ele><time>2026-04-18T14:05:38.007Z</time></trkpt><trkpt lat="43.0445167" lon="11.48479"><ele>611.75</ele><time>2026-04-18T14:05:39.007Z</time></trkpt><trkpt lat="43.044565" lon="11.4849533"><ele>612.0</ele><time>2026-04-18T14:05:40.008Z</time></trkpt><trkpt lat="43.044615" lon="11.4851217"><ele>612.0</ele><time>2026-04-18T14:05:41.008Z</time></trkpt><trkpt lat="43.0446617" lon="11.4852933"><ele>612.0</ele><time>2026-04-18T14:05:42.007Z</time></trkpt><trkpt lat="43.04471" lon="11.485475"><ele>612.0</ele><time>2026-04-18T14:05:43.007Z</time></trkpt><trkpt lat="43.0447633" lon="11.4856583"><ele>612.0</ele><time>2026-04-18T14:05:44.007Z</time></trkpt><trkpt lat="43.044815" lon="11.4858417"><ele>612.5</ele><time>2026-04-18T14:05:45.008Z</time></trkpt><trkpt lat="43.044865" lon="11.486025"><ele>613.0</ele><time>2026-04-18T14:05:46.007Z</time></trkpt><trkpt lat="43.0449183" lon="11.4862"><ele>613.5</ele><time>2026-04-18T14:05:47.007Z</time></trkpt><trkpt lat="43.0449617" lon="11.486375"><ele>614.0</ele><time>2026-04-18T14:05:48.007Z</time></trkpt><trkpt lat="43.0450033" lon="11.486545"><ele>614.25</ele><time>2026-04-18T14:05:49.007Z</time></trkpt><trkpt lat="43.0450483" lon="11.4867017"><ele>614.5</ele><time>2026-04-18T14:05:50.008Z</time></trkpt><trkpt lat="43.0451183" lon="11.4868483"><ele>614.75</ele><time>2026-04-18T14:05:51.007Z</time></trkpt><trkpt lat="43.0452167" lon="11.48696"><ele>615.0</ele><time>2026-04-18T14:05:52.007Z</time></trkpt><trkpt lat="43.04533" lon="11.487035"><ele>615.0</ele><time>2026-04-18T14:05:53.007Z</time></trkpt><trkpt lat="43.045455" lon="11.4870783"><ele>615.0</ele><time>2026-04-18T14:05:54.008Z</time></trkpt><trkpt lat="43.04557" lon="11.4871017"><ele>615.0</ele><time>2026-04-18T14:05:55.008Z</time></trkpt><trkpt lat="43.04569" lon="11.4871067"><ele>615.0</ele><time>2026-04-18T14:05:56.007Z</time></trkpt><trkpt lat="43.04581" lon="11.4871317"><ele>614.3333333333334</ele><time>2026-04-18T14:05:57.008Z</time></trkpt><trkpt lat="43.04602" lon="11.487315"><ele>613.6666666666667</ele><time>2026-04-18T14:05:59.007Z</time></trkpt><trkpt lat="43.0461083" lon="11.487465"><ele>613.0</ele><time>2026-04-18T14:06:00.008Z</time></trkpt><trkpt lat="43.0461817" lon="11.4876333"><ele>613.0</ele><time>2026-04-18T14:06:01.008Z</time></trkpt><trkpt lat="43.0462433" lon="11.4878233"><ele>613.0</ele><time>2026-04-18T14:06:02.007Z</time></trkpt><trkpt lat="43.04628" lon="11.4880283"><ele>613.0</ele><time>2026-04-18T14:06:03.007Z</time></trkpt><trkpt lat="43.046315" lon="11.4882267"><ele>610.25</ele><time>2026-04-18T14:06:04.008Z</time></trkpt><trkpt lat="43.0463567" lon="11.48842"><ele>607.5</ele><time>2026-04-18T14:06:05.007Z</time></trkpt><trkpt lat="43.04639" lon="11.48861"><ele>604.75</ele><time>2026-04-18T14:06:06.007Z</time></trkpt><trkpt lat="43.0464267" lon="11.4887933"><ele>602.0</ele><time>2026-04-18T14:06:07.007Z</time></trkpt><trkpt lat="43.0464633" lon="11.48896"><ele>600.0</ele><time>2026-04-18T14:06:08.007Z</time></trkpt><trkpt lat="43.046515" lon="11.4891133"><ele>598.0</ele><time>2026-04-18T14:06:09.008Z</time></trkpt><trkpt lat="43.046595" lon="11.4892583"><ele>596.0</ele><time>2026-04-18T14:06:10.007Z</time></trkpt><trkpt lat="43.046695" lon="11.4893833"><ele>594.0</ele><time>2026-04-18T14:06:11.008Z</time></trkpt><trkpt lat="43.046815" lon="11.4894717"><ele>594.75</ele><time>2026-04-18T14:06:12.007Z</time></trkpt><trkpt lat="43.046945" lon="11.489525"><ele>595.5</ele><time>2026-04-18T14:06:13.007Z</time></trkpt><trkpt lat="43.0470817" lon="11.489545"><ele>596.25</ele><time>2026-04-18T14:06:14.007Z</time></trkpt><trkpt lat="43.047225" lon="11.489565"><ele>597.0</ele><time>2026-04-18T14:06:15.008Z</time></trkpt><trkpt lat="43.04736" lon="11.4896167"><ele>598.5</ele><time>2026-04-18T14:06:16.007Z</time></trkpt><trkpt lat="43.04748" lon="11.4897017"><ele>600.0</ele><time>2026-04-18T14:06:17.007Z</time></trkpt><trkpt lat="43.0475983" lon="11.4898"><ele>601.5</ele><time>2026-04-18T14:06:18.007Z</time></trkpt><trkpt lat="43.0477133" lon="11.489915"><ele>603.0</ele><time>2026-04-18T14:06:19.007Z</time></trkpt><trkpt lat="43.0478267" lon="11.4900167"><ele>603.0</ele><time>2026-04-18T14:06:20.007Z</time></trkpt><trkpt lat="43.04795" lon="11.4900717"><ele>603.0</ele><time>2026-04-18T14:06:21.007Z</time></trkpt><trkpt lat="43.0480783" lon="11.49008"><ele>603.0</ele><time>2026-04-18T14:06:22.007Z</time></trkpt><trkpt lat="43.0482183" lon="11.4900533"><ele>603.0</ele><time>2026-04-18T14:06:23.007Z</time></trkpt><trkpt lat="43.0483483" lon="11.4900133"><ele>603.0</ele><time>2026-04-18T14:06:24.007Z</time></trkpt><trkpt lat="43.0484767" lon="11.4899733"><ele>603.0</ele><time>2026-04-18T14:06:25.007Z</time></trkpt><trkpt lat="43.0486" lon="11.4899517"><ele>603.0</ele><time>2026-04-18T14:06:26.007Z</time></trkpt><trkpt lat="43.048715" lon="11.4899667"><ele>603.0</ele><time>2026-04-18T14:06:27.007Z</time></trkpt><trkpt lat="43.0488117" lon="11.4900383"><ele>603.0</ele><time>2026-04-18T14:06:28.007Z</time></trkpt><trkpt lat="43.048895" lon="11.49017"><ele>603.0</ele><time>2026-04-18T14:06:29.007Z</time></trkpt><trkpt lat="43.048955" lon="11.4903433"><ele>603.0</ele><time>2026-04-18T14:06:30.007Z</time></trkpt><trkpt lat="43.049" lon="11.490515"><ele>603.0</ele><time>2026-04-18T14:06:31.008Z</time></trkpt><trkpt lat="43.04903" lon="11.4906917"><ele>601.0</ele><time>2026-04-18T14:06:32.007Z</time></trkpt><trkpt lat="43.0490733" lon="11.4908433"><ele>599.0</ele><time>2026-04-18T14:06:33.007Z</time></trkpt><trkpt lat="43.0491367" lon="11.4909683"><ele>597.0</ele><time>2026-04-18T14:06:34.007Z</time></trkpt><trkpt lat="43.0492267" lon="11.4910533"><ele>595.0</ele><time>2026-04-18T14:06:35.007Z</time></trkpt><trkpt lat="43.0493383" lon="11.4910833"><ele>595.0</ele><time>2026-04-18T14:06:36.007Z</time></trkpt><trkpt lat="43.0494633" lon="11.49106"><ele>595.0</ele><time>2026-04-18T14:06:37.008Z</time></trkpt><trkpt lat="43.049585" lon="11.4910233"><ele>595.0</ele><time>2026-04-18T14:06:38.007Z</time></trkpt><trkpt lat="43.0497133" lon="11.491015"><ele>595.0</ele><time>2026-04-18T14:06:39.008Z</time></trkpt><trkpt lat="43.0498333" lon="11.49102"><ele>595.0</ele><time>2026-04-18T14:06:40.007Z</time></trkpt><trkpt lat="43.04995" lon="11.4910383"><ele>595.0</ele><time>2026-04-18T14:06:41.007Z</time></trkpt><trkpt lat="43.05006" lon="11.4910417"><ele>595.0</ele><time>2026-04-18T14:06:42.007Z</time></trkpt><trkpt lat="43.0501633" lon="11.4910067"><ele>595.0</ele><time>2026-04-18T14:06:43.007Z</time></trkpt><trkpt lat="43.0502433" lon="11.4909267"><ele>595.0</ele><time>2026-04-18T14:06:44.007Z</time></trkpt><trkpt lat="43.0503167" lon="11.4908017"><ele>595.5</ele><time>2026-04-18T14:06:45.007Z</time></trkpt><trkpt lat="43.0503833" lon="11.4906533"><ele>596.0</ele><time>2026-04-18T14:06:46.008Z</time></trkpt><trkpt lat="43.0504633" lon="11.4904983"><ele>596.5</ele><time>2026-04-18T14:06:47.007Z</time></trkpt><trkpt lat="43.0505367" lon="11.4903383"><ele>597.0</ele><time>2026-04-18T14:06:48.007Z</time></trkpt><trkpt lat="43.0506033" lon="11.4901767"><ele>595.0</ele><time>2026-04-18T14:06:49.007Z</time></trkpt><trkpt lat="43.050675" lon="11.4900233"><ele>593.0</ele><time>2026-04-18T14:06:50.008Z</time></trkpt><trkpt lat="43.0507433" lon="11.48988"><ele>591.0</ele><time>2026-04-18T14:06:51.007Z</time></trkpt><trkpt lat="43.0508117" lon="11.4897483"><ele>589.0</ele><time>2026-04-18T14:06:52.007Z</time></trkpt><trkpt lat="43.0508917" lon="11.4896283"><ele>589.0</ele><time>2026-04-18T14:06:53.007Z</time></trkpt><trkpt lat="43.0509817" lon="11.4895483"><ele>589.0</ele><time>2026-04-18T14:06:54.007Z</time></trkpt><trkpt lat="43.0510883" lon="11.4895267"><ele>589.0</ele><time>2026-04-18T14:06:55.007Z</time></trkpt><trkpt lat="43.0512017" lon="11.489575"><ele>589.0</ele><time>2026-04-18T14:06:56.008Z</time></trkpt><trkpt lat="43.0512933" lon="11.4896833"><ele>589.0</ele><time>2026-04-18T14:06:57.008Z</time></trkpt><trkpt lat="43.0513567" lon="11.4898267"><ele>589.0</ele><time>2026-04-18T14:06:58.007Z</time></trkpt><trkpt lat="43.0514167" lon="11.4899967"><ele>589.0</ele><time>2026-04-18T14:06:59.008Z</time></trkpt><trkpt lat="43.0514867" lon="11.4901667"><ele>589.0</ele><time>2026-04-18T14:07:00.008Z</time></trkpt><trkpt lat="43.0515533" lon="11.4903317"><ele>585.0</ele><time>2026-04-18T14:07:01.007Z</time></trkpt><trkpt lat="43.0516267" lon="11.4904767"><ele>581.0</ele><time>2026-04-18T14:07:02.007Z</time></trkpt><trkpt lat="43.0517117" lon="11.4906033"><ele>577.0</ele><time>2026-04-18T14:07:03.007Z</time></trkpt><trkpt lat="43.0518033" lon="11.4907217"><ele>573.0</ele><time>2026-04-18T14:07:04.007Z</time></trkpt><trkpt lat="43.051905" lon="11.49083"><ele>573.0</ele><time>2026-04-18T14:07:05.008Z</time></trkpt><trkpt lat="43.052015" lon="11.4909117"><ele>573.0</ele><time>2026-04-18T14:07:06.008Z</time></trkpt><trkpt lat="43.0521333" lon="11.4909767"><ele>573.0</ele><time>2026-04-18T14:07:07.007Z</time></trkpt><trkpt lat="43.0522533" lon="11.49101"><ele>573.0</ele><time>2026-04-18T14:07:08.007Z</time></trkpt><trkpt lat="43.0523767" lon="11.491"><ele>574.3333333333334</ele><time>2026-04-18T14:07:09.008Z</time></trkpt><trkpt lat="43.05251" lon="11.4909567"><ele>575.6666666666667</ele><time>2026-04-18T14:07:10.007Z</time></trkpt><trkpt lat="43.0527583" lon="11.4908083"><ele>577.0</ele><time>2026-04-18T14:07:12.007Z</time></trkpt><trkpt lat="43.0528783" lon="11.49073"><ele>577.0</ele><time>2026-04-18T14:07:13.007Z</time></trkpt><trkpt lat="43.0529783" lon="11.4906483"><ele>577.0</ele><time>2026-04-18T14:07:14.008Z</time></trkpt><trkpt lat="43.0530617" lon="11.49053"><ele>577.0</ele><time>2026-04-18T14:07:15.008Z</time></trkpt><trkpt lat="43.0531267" lon="11.4903917"><ele>577.0</ele><time>2026-04-18T14:07:16.008Z</time></trkpt><trkpt lat="43.0531783" lon="11.49023"><ele>575.0</ele><time>2026-04-18T14:07:17.007Z</time></trkpt><trkpt lat="43.053215" lon="11.4900533"><ele>573.0</ele><time>2026-04-18T14:07:18.008Z</time></trkpt><trkpt lat="43.0532483" lon="11.4898783"><ele>571.0</ele><time>2026-04-18T14:07:19.008Z</time></trkpt><trkpt lat="43.0532767" lon="11.4897067"><ele>569.0</ele><time>2026-04-18T14:07:20.007Z</time></trkpt><trkpt lat="43.0533033" lon="11.489545"><ele>569.0</ele><time>2026-04-18T14:07:21.008Z</time></trkpt><trkpt lat="43.0533317" lon="11.4893917"><ele>569.0</ele><time>2026-04-18T14:07:22.007Z</time></trkpt><trkpt lat="43.0533667" lon="11.4892583"><ele>569.0</ele><time>2026-04-18T14:07:23.008Z</time></trkpt><trkpt lat="43.053415" lon="11.4891367"><ele>569.0</ele><time>2026-04-18T14:07:24.008Z</time></trkpt><trkpt lat="43.0534917" lon="11.4890333"><ele>569.0</ele><time>2026-04-18T14:07:25.007Z</time></trkpt><trkpt lat="43.0535817" lon="11.488955"><ele>569.0</ele><time>2026-04-18T14:07:26.007Z</time></trkpt><trkpt lat="43.0536767" lon="11.4888983"><ele>569.0</ele><time>2026-04-18T14:07:27.007Z</time></trkpt><trkpt lat="43.05377" lon="11.4888583"><ele>569.0</ele><time>2026-04-18T14:07:28.007Z</time></trkpt><trkpt lat="43.0538667" lon="11.4888317"><ele>569.0</ele><time>2026-04-18T14:07:29.007Z</time></trkpt><trkpt lat="43.0539533" lon="11.4888067"><ele>569.0</ele><time>2026-04-18T14:07:30.007Z</time></trkpt><trkpt lat="43.0540433" lon="11.4887817"><ele>568.3333333333333</ele><time>2026-04-18T14:07:31.007Z</time></trkpt><trkpt lat="43.05413" lon="11.48876"><ele>567.6666666666666</ele><time>2026-04-18T14:07:32.007Z</time></trkpt><trkpt lat="43.05421" lon="11.488735"><ele>567.0</ele><time>2026-04-18T14:07:33.007Z</time></trkpt><trkpt lat="43.0542867" lon="11.4887133"><ele>566.3333333333334</ele><time>2026-04-18T14:07:34.007Z</time></trkpt><trkpt lat="43.0543633" lon="11.488705"><ele>565.6666666666667</ele><time>2026-04-18T14:07:35.008Z</time></trkpt><trkpt lat="43.05444" lon="11.4886983"><ele>565.0</ele><time>2026-04-18T14:07:36.008Z</time></trkpt><trkpt lat="43.0545133" lon="11.4887167"><ele>565.0</ele><time>2026-04-18T14:07:37.007Z</time></trkpt><trkpt lat="43.0545883" lon="11.4887383"><ele>565.0</ele><time>2026-04-18T14:07:38.007Z</time></trkpt><trkpt lat="43.0546617" lon="11.4887767"><ele>565.0</ele><time>2026-04-18T14:07:39.007Z</time></trkpt><trkpt lat="43.0547383" lon="11.48881"><ele>565.0</ele><time>2026-04-18T14:07:40.007Z</time></trkpt><trkpt lat="43.0547983" lon="11.4888483"><ele>565.0</ele><time>2026-04-18T14:07:41.007Z</time></trkpt><trkpt lat="43.0548983" lon="11.4889283"><ele>565.0</ele><time>2026-04-18T14:07:43.007Z</time></trkpt><trkpt lat="43.05497" lon="11.488985"><ele>563.3333333333334</ele><time>2026-04-18T14:07:45.007Z</time></trkpt><trkpt lat="43.0550233" lon="11.4890683"><ele>561.6666666666667</ele><time>2026-04-18T14:07:48.007Z</time></trkpt><trkpt lat="43.0550367" lon="11.4891767"><ele>560.0</ele><time>2026-04-18T14:07:51.008Z</time></trkpt><trkpt lat="43.054925" lon="11.4892083"><ele>558.3333333333334</ele><time>2026-04-18T14:07:54.007Z</time></trkpt><trkpt lat="43.0548583" lon="11.4892133"><ele>556.6666666666666</ele><time>2026-04-18T14:07:55.007Z</time></trkpt><trkpt lat="43.054785" lon="11.4892183"><ele>555.0</ele><time>2026-04-18T14:07:56.007Z</time></trkpt><trkpt lat="43.0547117" lon="11.4892183"><ele>555.0</ele><time>2026-04-18T14:07:57.007Z</time></trkpt><trkpt lat="43.0546333" lon="11.489225"><ele>555.0</ele><time>2026-04-18T14:07:58.007Z</time></trkpt><trkpt lat="43.054555" lon="11.4892367"><ele>555.0</ele><time>2026-04-18T14:07:59.008Z</time></trkpt><trkpt lat="43.05447" lon="11.489245"><ele>555.0</ele><time>2026-04-18T14:08:00.007Z</time></trkpt><trkpt lat="43.0543833" lon="11.4892517"><ele>555.0</ele><time>2026-04-18T14:08:01.008Z</time></trkpt><trkpt lat="43.0543133" lon="11.489275"><ele>555.0</ele><time>2026-04-18T14:08:02.007Z</time></trkpt><trkpt lat="43.05424" lon="11.4893267"><ele>555.0</ele><time>2026-04-18T14:08:03.007Z</time></trkpt><trkpt lat="43.0541733" lon="11.4893817"><ele>555.0</ele><time>2026-04-18T14:08:04.007Z</time></trkpt><trkpt lat="43.0541283" lon="11.489475"><ele>555.0</ele><time>2026-04-18T14:08:05.007Z</time></trkpt><trkpt lat="43.0541" lon="11.4895767"><ele>555.0</ele><time>2026-04-18T14:08:06.008Z</time></trkpt><trkpt lat="43.0541" lon="11.48969"><ele>555.0</ele><time>2026-04-18T14:08:07.008Z</time></trkpt><trkpt lat="43.0541183" lon="11.4897983"><ele>555.0</ele><time>2026-04-18T14:08:08.008Z</time></trkpt><trkpt lat="43.0541633" lon="11.4899083"><ele>552.75</ele><time>2026-04-18T14:08:09.007Z</time></trkpt><trkpt lat="43.0543033" lon="11.4901117"><ele>550.5</ele><time>2026-04-18T14:08:11.008Z</time></trkpt><trkpt lat="43.05439" lon="11.4902183"><ele>548.25</ele><time>2026-04-18T14:08:12.007Z</time></trkpt><trkpt lat="43.0544867" lon="11.4903217"><ele>546.0</ele><time>2026-04-18T14:08:13.008Z</time></trkpt><trkpt lat="43.054585" lon="11.490435"><ele>544.0</ele><time>2026-04-18T14:08:14.007Z</time></trkpt><trkpt lat="43.05467" lon="11.4905533"><ele>542.0</ele><time>2026-04-18T14:08:15.007Z</time></trkpt><trkpt lat="43.054755" lon="11.490665"><ele>540.0</ele><time>2026-04-18T14:08:16.007Z</time></trkpt><trkpt lat="43.0548367" lon="11.490785"><ele>538.0</ele><time>2026-04-18T14:08:17.007Z</time></trkpt><trkpt lat="43.0549217" lon="11.4908967"><ele>537.8</ele><time>2026-04-18T14:08:18.008Z</time></trkpt><trkpt lat="43.05499" lon="11.49102"><ele>537.5999999999999</ele><time>2026-04-18T14:08:19.007Z</time></trkpt><trkpt lat="43.0550583" lon="11.49114"><ele>537.4000000000001</ele><time>2026-04-18T14:08:20.007Z</time></trkpt><trkpt lat="43.055125" lon="11.4912533"><ele>537.2</ele><time>2026-04-18T14:08:21.008Z</time></trkpt><trkpt lat="43.0551783" lon="11.491365"><ele>537.0</ele><time>2026-04-18T14:08:22.007Z</time></trkpt><trkpt lat="43.0552283" lon="11.4914733"><ele>533.0</ele><time>2026-04-18T14:08:23.007Z</time></trkpt><trkpt lat="43.05536" lon="11.491695"><ele>529.0</ele><time>2026-04-18T14:08:26.007Z</time></trkpt><trkpt lat="43.05541" lon="11.49177"><ele>525.0</ele><time>2026-04-18T14:08:28.007Z</time></trkpt><trkpt lat="43.0554567" lon="11.4918417"><ele>521.0</ele><time>2026-04-18T14:08:32.008Z</time></trkpt><trkpt lat="43.055415" lon="11.4919083"><ele>517.0</ele><time>2026-04-18T14:08:35.007Z</time></trkpt><trkpt lat="43.0553417" lon="11.4918167"><ele>517.0</ele><time>2026-04-18T14:08:37.007Z</time></trkpt><trkpt lat="43.0552417" lon="11.4916533"><ele>517.0</ele><time>2026-04-18T14:08:39.007Z</time></trkpt><trkpt lat="43.0551817" lon="11.4915667"><ele>517.0</ele><time>2026-04-18T14:08:40.007Z</time></trkpt><trkpt lat="43.0551217" lon="11.4914767"><ele>517.0</ele><time>2026-04-18T14:08:41.007Z</time></trkpt><trkpt lat="43.0550583" lon="11.49139"><ele>517.0</ele><time>2026-04-18T14:08:42.007Z</time></trkpt><trkpt lat="43.0549917" lon="11.4912983"><ele>521.2</ele><time>2026-04-18T14:08:43.007Z</time></trkpt><trkpt lat="43.0549283" lon="11.4912033"><ele>525.4000000000001</ele><time>2026-04-18T14:08:44.007Z</time></trkpt><trkpt lat="43.0548667" lon="11.4911183"><ele>529.5999999999999</ele><time>2026-04-18T14:08:45.007Z</time></trkpt><trkpt lat="43.0547983" lon="11.4910333"><ele>533.8</ele><time>2026-04-18T14:08:46.008Z</time></trkpt><trkpt lat="43.0547283" lon="11.490955"><ele>538.0</ele><time>2026-04-18T14:08:47.007Z</time></trkpt><trkpt lat="43.0546467" lon="11.4909133"><ele>538.0</ele><time>2026-04-18T14:08:48.007Z</time></trkpt><trkpt lat="43.0545617" lon="11.4909233"><ele>538.0</ele><time>2026-04-18T14:08:49.007Z</time></trkpt><trkpt lat="43.0544767" lon="11.49097"><ele>538.0</ele><time>2026-04-18T14:08:50.007Z</time></trkpt><trkpt lat="43.0543983" lon="11.4910583"><ele>538.0</ele><time>2026-04-18T14:08:51.007Z</time></trkpt><trkpt lat="43.0543533" lon="11.4911983"><ele>538.0</ele><time>2026-04-18T14:08:52.007Z</time></trkpt><trkpt lat="43.054335" lon="11.4913533"><ele>537.5</ele><time>2026-04-18T14:08:53.007Z</time></trkpt><trkpt lat="43.05434" lon="11.4915217"><ele>537.0</ele><time>2026-04-18T14:08:54.008Z</time></trkpt><trkpt lat="43.05436" lon="11.4917083"><ele>536.5</ele><time>2026-04-18T14:08:55.008Z</time></trkpt><trkpt lat="43.0543867" lon="11.4919167"><ele>536.0</ele><time>2026-04-18T14:08:56.008Z</time></trkpt><trkpt lat="43.054415" lon="11.492135"><ele>533.0</ele><time>2026-04-18T14:08:57.007Z</time></trkpt><trkpt lat="43.0544333" lon="11.4923367"><ele>530.0</ele><time>2026-04-18T14:08:58.008Z</time></trkpt><trkpt lat="43.0544367" lon="11.492525"><ele>527.0</ele><time>2026-04-18T14:08:59.007Z</time></trkpt><trkpt lat="43.0544167" lon="11.4927017"><ele>524.0</ele><time>2026-04-18T14:09:00.007Z</time></trkpt><trkpt lat="43.0543767" lon="11.49288"><ele>521.5</ele><time>2026-04-18T14:09:01.007Z</time></trkpt><trkpt lat="43.0543233" lon="11.4930467"><ele>519.0</ele><time>2026-04-18T14:09:02.007Z</time></trkpt><trkpt lat="43.0542517" lon="11.4931917"><ele>516.5</ele><time>2026-04-18T14:09:03.007Z</time></trkpt><trkpt lat="43.054165" lon="11.4933183"><ele>514.0</ele><time>2026-04-18T14:09:04.007Z</time></trkpt><trkpt lat="43.05406" lon="11.4934333"><ele>514.0</ele><time>2026-04-18T14:09:05.007Z</time></trkpt><trkpt lat="43.0539417" lon="11.493535"><ele>514.0</ele><time>2026-04-18T14:09:06.007Z</time></trkpt><trkpt lat="43.0538267" lon="11.4936533"><ele>514.0</ele><time>2026-04-18T14:09:07.008Z</time></trkpt><trkpt lat="43.0537267" lon="11.49378"><ele>514.0</ele><time>2026-04-18T14:09:08.007Z</time></trkpt><trkpt lat="43.0536367" lon="11.4939233"><ele>512.5</ele><time>2026-04-18T14:09:09.007Z</time></trkpt><trkpt lat="43.053565" lon="11.4940833"><ele>511.0</ele><time>2026-04-18T14:09:10.006Z</time></trkpt><trkpt lat="43.0535167" lon="11.4942617"><ele>509.5</ele><time>2026-04-18T14:09:11.006Z</time></trkpt><trkpt lat="43.0534967" lon="11.494445"><ele>508.0</ele><time>2026-04-18T14:09:12.006Z</time></trkpt><trkpt lat="43.0534933" lon="11.4946317"><ele>507.25</ele><time>2026-04-18T14:09:13.006Z</time></trkpt><trkpt lat="43.053495" lon="11.4948167"><ele>506.5</ele><time>2026-04-18T14:09:14.006Z</time></trkpt><trkpt lat="43.0535017" lon="11.4949983"><ele>505.75</ele><time>2026-04-18T14:09:15.006Z</time></trkpt><trkpt lat="43.053515" lon="11.4951817"><ele>505.0</ele><time>2026-04-18T14:09:16.006Z</time></trkpt><trkpt lat="43.053525" lon="11.4953617"><ele>504.75</ele><time>2026-04-18T14:09:17.007Z</time></trkpt><trkpt lat="43.053535" lon="11.4955383"><ele>504.5</ele><time>2026-04-18T14:09:18.006Z</time></trkpt><trkpt lat="43.05354" lon="11.4957083"><ele>504.25</ele><time>2026-04-18T14:09:19.007Z</time></trkpt><trkpt lat="43.0535267" lon="11.49588"><ele>504.0</ele><time>2026-04-18T14:09:20.006Z</time></trkpt><trkpt lat="43.053505" lon="11.496045"><ele>504.0</ele><time>2026-04-18T14:09:21.007Z</time></trkpt><trkpt lat="43.0534933" lon="11.4962117"><ele>504.0</ele><time>2026-04-18T14:09:22.007Z</time></trkpt><trkpt lat="43.053485" lon="11.49638"><ele>504.0</ele><time>2026-04-18T14:09:23.006Z</time></trkpt><trkpt lat="43.0534667" lon="11.4965467"><ele>504.0</ele><time>2026-04-18T14:09:24.006Z</time></trkpt><trkpt lat="43.0534467" lon="11.4967167"><ele>502.75</ele><time>2026-04-18T14:09:25.007Z</time></trkpt><trkpt lat="43.053425" lon="11.4968783"><ele>501.5</ele><time>2026-04-18T14:09:26.006Z</time></trkpt><trkpt lat="43.0533917" lon="11.49704"><ele>500.25</ele><time>2026-04-18T14:09:27.006Z</time></trkpt><trkpt lat="43.0533467" lon="11.497195"><ele>499.0</ele><time>2026-04-18T14:09:28.006Z</time></trkpt><trkpt lat="43.0532967" lon="11.49735"><ele>499.25</ele><time>2026-04-18T14:09:29.007Z</time></trkpt><trkpt lat="43.0532383" lon="11.497515"><ele>499.5</ele><time>2026-04-18T14:09:30.006Z</time></trkpt><trkpt lat="43.0531833" lon="11.497675"><ele>499.75</ele><time>2026-04-18T14:09:31.006Z</time></trkpt><trkpt lat="43.0531183" lon="11.4978283"><ele>500.0</ele><time>2026-04-18T14:09:32.006Z</time></trkpt><trkpt lat="43.0530567" lon="11.49799"><ele>500.0</ele><time>2026-04-18T14:09:33.006Z</time></trkpt><trkpt lat="43.052985" lon="11.49815"><ele>500.0</ele><time>2026-04-18T14:09:34.006Z</time></trkpt><trkpt lat="43.0529133" lon="11.4983133"><ele>500.0</ele><time>2026-04-18T14:09:35.006Z</time></trkpt><trkpt lat="43.0528383" lon="11.49848"><ele>500.0</ele><time>2026-04-18T14:09:36.007Z</time></trkpt><trkpt lat="43.0527633" lon="11.49865"><ele>497.5</ele><time>2026-04-18T14:09:37.006Z</time></trkpt><trkpt lat="43.052695" lon="11.4988167"><ele>495.0</ele><time>2026-04-18T14:09:38.007Z</time></trkpt><trkpt lat="43.0526267" lon="11.4989783"><ele>492.5</ele><time>2026-04-18T14:09:39.006Z</time></trkpt><trkpt lat="43.0525633" lon="11.4991383"><ele>490.0</ele><time>2026-04-18T14:09:40.006Z</time></trkpt><trkpt lat="43.0525017" lon="11.4992983"><ele>490.75</ele><time>2026-04-18T14:09:41.006Z</time></trkpt><trkpt lat="43.05244" lon="11.49946"><ele>491.5</ele><time>2026-04-18T14:09:42.007Z</time></trkpt><trkpt lat="43.0523733" lon="11.49962"><ele>492.25</ele><time>2026-04-18T14:09:43.007Z</time></trkpt><trkpt lat="43.0523133" lon="11.499785"><ele>493.0</ele><time>2026-04-18T14:09:44.006Z</time></trkpt><trkpt lat="43.0522483" lon="11.4999433"><ele>489.5</ele><time>2026-04-18T14:09:45.006Z</time></trkpt><trkpt lat="43.05219" lon="11.5000917"><ele>486.0</ele><time>2026-04-18T14:09:46.006Z</time></trkpt><trkpt lat="43.0521283" lon="11.500245"><ele>482.5</ele><time>2026-04-18T14:09:47.006Z</time></trkpt><trkpt lat="43.0520683" lon="11.5003983"><ele>479.0</ele><time>2026-04-18T14:09:48.006Z</time></trkpt><trkpt lat="43.0520083" lon="11.5005483"><ele>477.75</ele><time>2026-04-18T14:09:49.007Z</time></trkpt><trkpt lat="43.05196" lon="11.5007083"><ele>476.5</ele><time>2026-04-18T14:09:50.006Z</time></trkpt><trkpt lat="43.051935" lon="11.50087"><ele>475.25</ele><time>2026-04-18T14:09:51.006Z</time></trkpt><trkpt lat="43.0519217" lon="11.5010483"><ele>474.0</ele><time>2026-04-18T14:09:52.006Z</time></trkpt><trkpt lat="43.0519217" lon="11.5012283"><ele>472.75</ele><time>2026-04-18T14:09:53.007Z</time></trkpt><trkpt lat="43.0519317" lon="11.5014083"><ele>471.5</ele><time>2026-04-18T14:09:54.006Z</time></trkpt><trkpt lat="43.05194" lon="11.5015783"><ele>470.25</ele><time>2026-04-18T14:09:55.006Z</time></trkpt><trkpt lat="43.0519467" lon="11.5017467"><ele>469.0</ele><time>2026-04-18T14:09:56.006Z</time></trkpt><trkpt lat="43.0519467" lon="11.5019083"><ele>469.0</ele><time>2026-04-18T14:09:57.006Z</time></trkpt><trkpt lat="43.0519367" lon="11.50207"><ele>469.0</ele><time>2026-04-18T14:09:58.006Z</time></trkpt><trkpt lat="43.0519133" lon="11.5022083"><ele>469.0</ele><time>2026-04-18T14:09:59.006Z</time></trkpt><trkpt lat="43.0518817" lon="11.5023467"><ele>469.0</ele><time>2026-04-18T14:10:00.007Z</time></trkpt><trkpt lat="43.051845" lon="11.502485"><ele>469.0</ele><time>2026-04-18T14:10:01.006Z</time></trkpt><trkpt lat="43.0518083" lon="11.5026183"><ele>468.4</ele><time>2026-04-18T14:10:02.006Z</time></trkpt><trkpt lat="43.0517733" lon="11.5027417"><ele>467.79999999999995</ele><time>2026-04-18T14:10:03.006Z</time></trkpt><trkpt lat="43.0517433" lon="11.502875"><ele>467.20000000000005</ele><time>2026-04-18T14:10:04.006Z</time></trkpt><trkpt lat="43.0517317" lon="11.5030117"><ele>466.6</ele><time>2026-04-18T14:10:05.006Z</time></trkpt><trkpt lat="43.051745" lon="11.5031467"><ele>466.0</ele><time>2026-04-18T14:10:06.006Z</time></trkpt><trkpt lat="43.0517733" lon="11.5032833"><ele>465.6</ele><time>2026-04-18T14:10:07.007Z</time></trkpt><trkpt lat="43.051815" lon="11.50341"><ele>465.20000000000005</ele><time>2026-04-18T14:10:08.007Z</time></trkpt><trkpt lat="43.0518633" lon="11.5035233"><ele>464.79999999999995</ele><time>2026-04-18T14:10:09.006Z</time></trkpt><trkpt lat="43.051915" lon="11.5036367"><ele>464.4</ele><time>2026-04-18T14:10:10.006Z</time></trkpt><trkpt lat="43.05196" lon="11.5037433"><ele>464.0</ele><time>2026-04-18T14:10:11.006Z</time></trkpt><trkpt lat="43.0520033" lon="11.5038367"><ele>462.66666666666663</ele><time>2026-04-18T14:10:12.006Z</time></trkpt><trkpt lat="43.0520417" lon="11.5039283"><ele>461.3333333333333</ele><time>2026-04-18T14:10:13.006Z</time></trkpt><trkpt lat="43.0520733" lon="11.50401"><ele>460.0</ele><time>2026-04-18T14:10:14.006Z</time></trkpt><trkpt lat="43.0521067" lon="11.504085"><ele>458.66666666666663</ele><time>2026-04-18T14:10:15.006Z</time></trkpt><trkpt lat="43.0521667" lon="11.504215"><ele>457.3333333333333</ele><time>2026-04-18T14:10:17.006Z</time></trkpt><trkpt lat="43.052215" lon="11.50433"><ele>456.0</ele><time>2026-04-18T14:10:19.006Z</time></trkpt><trkpt lat="43.0522633" lon="11.5044717"><ele>456.0</ele><time>2026-04-18T14:10:21.006Z</time></trkpt><trkpt lat="43.05229" lon="11.5045567"><ele>456.0</ele><time>2026-04-18T14:10:22.006Z</time></trkpt><trkpt lat="43.0523033" lon="11.5046417"><ele>456.0</ele><time>2026-04-18T14:10:23.007Z</time></trkpt><trkpt lat="43.05231" lon="11.5048167"><ele>456.0</ele><time>2026-04-18T14:10:25.006Z</time></trkpt><trkpt lat="43.0522917" lon="11.5049617"><ele>456.0</ele><time>2026-04-18T14:10:27.006Z</time></trkpt><trkpt lat="43.0523283" lon="11.50505"><ele>456.0</ele><time>2026-04-18T14:10:29.007Z</time></trkpt><trkpt lat="43.0524083" lon="11.50502"><ele>456.0</ele><time>2026-04-18T14:10:31.006Z</time></trkpt><trkpt lat="43.0524233" lon="11.5048817"><ele>456.0</ele><time>2026-04-18T14:10:33.006Z</time></trkpt><trkpt lat="43.0524117" lon="11.5047933"><ele>456.0</ele><time>2026-04-18T14:10:34.007Z</time></trkpt><trkpt lat="43.0524033" lon="11.5047067"><ele>456.0</ele><time>2026-04-18T14:10:35.007Z</time></trkpt><trkpt lat="43.052405" lon="11.5045917"><ele>456.0</ele><time>2026-04-18T14:10:37.006Z</time></trkpt><trkpt lat="43.0524333" lon="11.5044867"><ele>456.0</ele><time>2026-04-18T14:10:40.006Z</time></trkpt><trkpt lat="43.05246" lon="11.5044033"><ele>456.0</ele><time>2026-04-18T14:10:42.006Z</time></trkpt><trkpt lat="43.0524633" lon="11.5043067"><ele>456.0</ele><time>2026-04-18T14:10:45.006Z</time></trkpt><trkpt lat="43.0524367" lon="11.5042183"><ele>456.0</ele><time>2026-04-18T14:10:48.006Z</time></trkpt><trkpt lat="43.052425" lon="11.50413"><ele>456.0</ele><time>2026-04-18T14:14:46.005Z</time></trkpt><trkpt lat="43.0523633" lon="11.504035"><ele>456.0</ele><time>2026-04-18T14:14:47.006Z</time></trkpt><trkpt lat="43.0523017" lon="11.5039967"><ele>456.0</ele><time>2026-04-18T14:18:27.005Z</time></trkpt><trkpt lat="43.0522133" lon="11.5040283"><ele>456.0</ele><time>2026-04-18T14:19:00.004Z</time></trkpt><trkpt lat="43.0521567" lon="11.5041267"><ele>456.0</ele><time>2026-04-18T14:19:15.005Z</time></trkpt><trkpt lat="43.052195" lon="11.5042933"><ele>456.0</ele><time>2026-04-18T14:19:17.005Z</time></trkpt><trkpt lat="43.0522333" lon="11.5043867"><ele>456.0</ele><time>2026-04-18T14:19:18.005Z</time></trkpt><trkpt lat="43.0522633" lon="11.5044767"><ele>456.0</ele><time>2026-04-18T14:19:19.005Z</time></trkpt><trkpt lat="43.0522817" lon="11.504565"><ele>456.0</ele><time>2026-04-18T14:19:20.005Z</time></trkpt><trkpt lat="43.052305" lon="11.5047133"><ele>456.4</ele><time>2026-04-18T14:19:22.004Z</time></trkpt><trkpt lat="43.052295" lon="11.504875"><ele>456.8</ele><time>2026-04-18T14:19:24.005Z</time></trkpt><trkpt lat="43.0523183" lon="11.5050183"><ele>457.19999999999993</ele><time>2026-04-18T14:19:26.005Z</time></trkpt><trkpt lat="43.0524267" lon="11.5050533"><ele>457.59999999999997</ele><time>2026-04-18T14:19:28.003Z</time></trkpt><trkpt lat="43.0525033" lon="11.5050317"><ele>458.0</ele><time>2026-04-18T14:19:29.003Z</time></trkpt><trkpt lat="43.052585" lon="11.5050217"><ele>458.0</ele><time>2026-04-18T14:19:30.004Z</time></trkpt><trkpt lat="43.0526733" lon="11.50504"><ele>457.99999999999994</ele><time>2026-04-18T14:19:31.003Z</time></trkpt><trkpt lat="43.0527583" lon="11.5050733"><ele>457.99999999999994</ele><time>2026-04-18T14:19:32.003Z</time></trkpt><trkpt lat="43.052845" lon="11.505115"><ele>458.0</ele><time>2026-04-18T14:19:33.004Z</time></trkpt><trkpt lat="43.0529267" lon="11.5051683"><ele>458.0</ele><time>2026-04-18T14:19:34.003Z</time></trkpt><trkpt lat="43.05301" lon="11.5052267"><ele>458.0</ele><time>2026-04-18T14:19:35.004Z</time></trkpt><trkpt lat="43.0530867" lon="11.5052983"><ele>457.99999999999994</ele><time>2026-04-18T14:19:36.003Z</time></trkpt><trkpt lat="43.0531617" lon="11.5053883"><ele>457.99999999999994</ele><time>2026-04-18T14:19:37.003Z</time></trkpt><trkpt lat="43.0532117" lon="11.5054933"><ele>458.0</ele><time>2026-04-18T14:19:38.003Z</time></trkpt><trkpt lat="43.0532533" lon="11.5056133"><ele>458.0</ele><time>2026-04-18T14:19:39.003Z</time></trkpt><trkpt lat="43.0532767" lon="11.50575"><ele>457.5</ele><time>2026-04-18T14:19:40.003Z</time></trkpt><trkpt lat="43.0532833" lon="11.5059"><ele>457.0</ele><time>2026-04-18T14:19:41.003Z</time></trkpt><trkpt lat="43.05327" lon="11.5060667"><ele>456.5</ele><time>2026-04-18T14:19:42.004Z</time></trkpt><trkpt lat="43.0532433" lon="11.5062433"><ele>456.0</ele><time>2026-04-18T14:19:43.003Z</time></trkpt><trkpt lat="43.05322" lon="11.506425"><ele>455.25</ele><time>2026-04-18T14:19:44.004Z</time></trkpt><trkpt lat="43.0532" lon="11.5066117"><ele>454.5</ele><time>2026-04-18T14:19:45.003Z</time></trkpt><trkpt lat="43.0531783" lon="11.5068"><ele>453.75</ele><time>2026-04-18T14:19:46.004Z</time></trkpt><trkpt lat="43.0531567" lon="11.506985"><ele>453.0</ele><time>2026-04-18T14:19:47.004Z</time></trkpt><trkpt lat="43.0531333" lon="11.5071733"><ele>451.0</ele><time>2026-04-18T14:19:48.003Z</time></trkpt><trkpt lat="43.05311" lon="11.5073617"><ele>449.0</ele><time>2026-04-18T14:19:49.003Z</time></trkpt><trkpt lat="43.053085" lon="11.5075517"><ele>447.0</ele><time>2026-04-18T14:19:50.003Z</time></trkpt><trkpt lat="43.0530617" lon="11.507735"><ele>445.0</ele><time>2026-04-18T14:19:51.003Z</time></trkpt><trkpt lat="43.0530367" lon="11.5079183"><ele>442.75</ele><time>2026-04-18T14:19:52.003Z</time></trkpt><trkpt lat="43.0530183" lon="11.5081017"><ele>440.5</ele><time>2026-04-18T14:19:53.004Z</time></trkpt><trkpt lat="43.053005" lon="11.5082817"><ele>438.25</ele><time>2026-04-18T14:19:54.004Z</time></trkpt><trkpt lat="43.052995" lon="11.5084783"><ele>436.0</ele><time>2026-04-18T14:19:55.003Z</time></trkpt><trkpt lat="43.0529983" lon="11.5086867"><ele>434.0</ele><time>2026-04-18T14:19:56.003Z</time></trkpt><trkpt lat="43.0530183" lon="11.5088867"><ele>432.0</ele><time>2026-04-18T14:19:57.004Z</time></trkpt><trkpt lat="43.0530483" lon="11.5090883"><ele>430.0</ele><time>2026-04-18T14:19:58.003Z</time></trkpt><trkpt lat="43.0530867" lon="11.5092817"><ele>428.0</ele><time>2026-04-18T14:19:59.004Z</time></trkpt><trkpt lat="43.05313" lon="11.5094783"><ele>427.25</ele><time>2026-04-18T14:20:00.004Z</time></trkpt><trkpt lat="43.0531667" lon="11.5096633"><ele>426.5</ele><time>2026-04-18T14:20:01.003Z</time></trkpt><trkpt lat="43.0532217" lon="11.5098467"><ele>425.75</ele><time>2026-04-18T14:20:02.004Z</time></trkpt><trkpt lat="43.0532933" lon="11.510025"><ele>425.0</ele><time>2026-04-18T14:20:03.003Z</time></trkpt><trkpt lat="43.05339" lon="11.510185"><ele>425.0</ele><time>2026-04-18T14:20:04.004Z</time></trkpt><trkpt lat="43.0535083" lon="11.510325"><ele>425.0</ele><time>2026-04-18T14:20:05.003Z</time></trkpt><trkpt lat="43.0536383" lon="11.5104483"><ele>425.0</ele><time>2026-04-18T14:20:06.003Z</time></trkpt><trkpt lat="43.05378" lon="11.5105517"><ele>422.66666666666663</ele><time>2026-04-18T14:20:07.004Z</time></trkpt><trkpt lat="43.0539367" lon="11.510625"><ele>420.33333333333337</ele><time>2026-04-18T14:20:08.004Z</time></trkpt><trkpt lat="43.0540933" lon="11.51065"><ele>418.0</ele><time>2026-04-18T14:20:09.003Z</time></trkpt><trkpt lat="43.054255" lon="11.5106317"><ele>417.33333333333337</ele><time>2026-04-18T14:20:10.004Z</time></trkpt><trkpt lat="43.0544133" lon="11.510565"><ele>416.66666666666663</ele><time>2026-04-18T14:20:11.004Z</time></trkpt><trkpt lat="43.0545667" lon="11.5104583"><ele>416.0</ele><time>2026-04-18T14:20:12.003Z</time></trkpt><trkpt lat="43.05471" lon="11.510315"><ele>413.66666666666663</ele><time>2026-04-18T14:20:13.004Z</time></trkpt><trkpt lat="43.0548383" lon="11.5101467"><ele>411.33333333333337</ele><time>2026-04-18T14:20:14.003Z</time></trkpt><trkpt lat="43.054945" lon="11.509955"><ele>409.0</ele><time>2026-04-18T14:20:15.004Z</time></trkpt><trkpt lat="43.0550367" lon="11.5097517"><ele>410.6666666666667</ele><time>2026-04-18T14:20:16.003Z</time></trkpt><trkpt lat="43.05512" lon="11.5095367"><ele>412.33333333333337</ele><time>2026-04-18T14:20:17.003Z</time></trkpt><trkpt lat="43.055195" lon="11.5093217"><ele>414.0</ele><time>2026-04-18T14:20:18.003Z</time></trkpt><trkpt lat="43.0552867" lon="11.5091117"><ele>414.0</ele><time>2026-04-18T14:20:19.004Z</time></trkpt><trkpt lat="43.0553983" lon="11.5089283"><ele>414.0</ele><time>2026-04-18T14:20:20.003Z</time></trkpt><trkpt lat="43.0555233" lon="11.50876"><ele>414.0</ele><time>2026-04-18T14:20:21.003Z</time></trkpt><trkpt lat="43.05564" lon="11.508615"><ele>414.25</ele><time>2026-04-18T14:20:22.003Z</time></trkpt><trkpt lat="43.0557567" lon="11.50847"><ele>414.5</ele><time>2026-04-18T14:20:23.003Z</time></trkpt><trkpt lat="43.055845" lon="11.5083317"><ele>414.75</ele><time>2026-04-18T14:20:24.004Z</time></trkpt><trkpt lat="43.0559217" lon="11.508165"><ele>415.0</ele><time>2026-04-18T14:20:25.003Z</time></trkpt><trkpt lat="43.0559567" lon="11.5079617"><ele>408.6666666666667</ele><time>2026-04-18T14:20:26.004Z</time></trkpt><trkpt lat="43.0559683" lon="11.5077433"><ele>402.33333333333337</ele><time>2026-04-18T14:20:27.004Z</time></trkpt><trkpt lat="43.055965" lon="11.5075367"><ele>396.0</ele><time>2026-04-18T14:20:28.003Z</time></trkpt><trkpt lat="43.05595" lon="11.5073467"><ele>396.0</ele><time>2026-04-18T14:20:29.003Z</time></trkpt><trkpt lat="43.0559117" lon="11.5071583"><ele>396.0</ele><time>2026-04-18T14:20:30.004Z</time></trkpt><trkpt lat="43.0558383" lon="11.50698"><ele>396.0</ele><time>2026-04-18T14:20:31.004Z</time></trkpt><trkpt lat="43.0557533" lon="11.5068167"><ele>396.0</ele><time>2026-04-18T14:20:32.003Z</time></trkpt><trkpt lat="43.055655" lon="11.50665"><ele>397.5</ele><time>2026-04-18T14:20:33.004Z</time></trkpt><trkpt lat="43.0555783" lon="11.50648"><ele>399.0</ele><time>2026-04-18T14:20:34.004Z</time></trkpt><trkpt lat="43.0555133" lon="11.5062967"><ele>400.5</ele><time>2026-04-18T14:20:35.004Z</time></trkpt><trkpt lat="43.05549" lon="11.5061067"><ele>402.0</ele><time>2026-04-18T14:20:36.003Z</time></trkpt><trkpt lat="43.0555117" lon="11.5059067"><ele>402.0</ele><time>2026-04-18T14:20:37.003Z</time></trkpt><trkpt lat="43.055555" lon="11.505705"><ele>402.0</ele><time>2026-04-18T14:20:38.003Z</time></trkpt><trkpt lat="43.055625" lon="11.5055067"><ele>402.0</ele><time>2026-04-18T14:20:39.004Z</time></trkpt><trkpt lat="43.055695" lon="11.5053183"><ele>402.0</ele><time>2026-04-18T14:20:40.003Z</time></trkpt><trkpt lat="43.0557617" lon="11.5051333"><ele>402.0</ele><time>2026-04-18T14:20:41.004Z</time></trkpt><trkpt lat="43.05584" lon="11.5049533"><ele>402.0</ele><time>2026-04-18T14:20:42.004Z</time></trkpt><trkpt lat="43.0559183" lon="11.5047733"><ele>399.0</ele><time>2026-04-18T14:20:43.003Z</time></trkpt><trkpt lat="43.0560017" lon="11.5046033"><ele>396.0</ele><time>2026-04-18T14:20:44.004Z</time></trkpt><trkpt lat="43.0560867" lon="11.5044367"><ele>393.0</ele><time>2026-04-18T14:20:45.003Z</time></trkpt><trkpt lat="43.0561767" lon="11.5042833"><ele>390.0</ele><time>2026-04-18T14:20:46.003Z</time></trkpt><trkpt lat="43.056285" lon="11.50414"><ele>390.0</ele><time>2026-04-18T14:20:47.003Z</time></trkpt><trkpt lat="43.056405" lon="11.50402"><ele>390.0</ele><time>2026-04-18T14:20:48.003Z</time></trkpt><trkpt lat="43.0565467" lon="11.5039117"><ele>390.0</ele><time>2026-04-18T14:20:49.004Z</time></trkpt><trkpt lat="43.0566883" lon="11.5038117"><ele>388.5</ele><time>2026-04-18T14:20:50.004Z</time></trkpt><trkpt lat="43.0568283" lon="11.503725"><ele>387.0</ele><time>2026-04-18T14:20:51.004Z</time></trkpt><trkpt lat="43.056965" lon="11.503645"><ele>385.5</ele><time>2026-04-18T14:20:52.003Z</time></trkpt><trkpt lat="43.0570983" lon="11.5035767"><ele>384.0</ele><time>2026-04-18T14:20:53.004Z</time></trkpt><trkpt lat="43.0572333" lon="11.5035217"><ele>384.0</ele><time>2026-04-18T14:20:54.003Z</time></trkpt><trkpt lat="43.057365" lon="11.5034783"><ele>384.0</ele><time>2026-04-18T14:20:55.003Z</time></trkpt><trkpt lat="43.0574867" lon="11.503435"><ele>384.0</ele><time>2026-04-18T14:20:56.003Z</time></trkpt><trkpt lat="43.0576033" lon="11.50336"><ele>384.0</ele><time>2026-04-18T14:20:57.003Z</time></trkpt><trkpt lat="43.0576933" lon="11.5032567"><ele>382.2</ele><time>2026-04-18T14:20:58.003Z</time></trkpt><trkpt lat="43.0577533" lon="11.5031283"><ele>380.4</ele><time>2026-04-18T14:20:59.003Z</time></trkpt><trkpt lat="43.0577867" lon="11.5029833"><ele>378.6</ele><time>2026-04-18T14:21:00.003Z</time></trkpt><trkpt lat="43.0577917" lon="11.5028267"><ele>376.8</ele><time>2026-04-18T14:21:01.004Z</time></trkpt><trkpt lat="43.05779" lon="11.5026733"><ele>375.0</ele><time>2026-04-18T14:21:02.004Z</time></trkpt><trkpt lat="43.057795" lon="11.5025283"><ele>375.0</ele><time>2026-04-18T14:21:03.003Z</time></trkpt><trkpt lat="43.0578133" lon="11.5023867"><ele>375.0</ele><time>2026-04-18T14:21:04.003Z</time></trkpt><trkpt lat="43.0578617" lon="11.5022733"><ele>375.0</ele><time>2026-04-18T14:21:05.003Z</time></trkpt><trkpt lat="43.0579283" lon="11.5021833"><ele>375.0</ele><time>2026-04-18T14:21:06.004Z</time></trkpt><trkpt lat="43.0580083" lon="11.5021133"><ele>375.0</ele><time>2026-04-18T14:21:07.003Z</time></trkpt><trkpt lat="43.058095" lon="11.502065"><ele>374.6</ele><time>2026-04-18T14:21:08.003Z</time></trkpt><trkpt lat="43.0581983" lon="11.5020383"><ele>374.2</ele><time>2026-04-18T14:21:09.003Z</time></trkpt><trkpt lat="43.0583" lon="11.5020283"><ele>373.79999999999995</ele><time>2026-04-18T14:21:10.003Z</time></trkpt><trkpt lat="43.0583967" lon="11.50205"><ele>373.4</ele><time>2026-04-18T14:21:11.004Z</time></trkpt><trkpt lat="43.0585017" lon="11.5020983"><ele>373.0</ele><time>2026-04-18T14:21:12.003Z</time></trkpt><trkpt lat="43.0586" lon="11.5021683"><ele>370.0</ele><time>2026-04-18T14:21:13.003Z</time></trkpt><trkpt lat="43.0586917" lon="11.502265"><ele>367.0</ele><time>2026-04-18T14:21:14.003Z</time></trkpt><trkpt lat="43.0587817" lon="11.50237"><ele>364.0</ele><time>2026-04-18T14:21:15.003Z</time></trkpt><trkpt lat="43.0588733" lon="11.5024733"><ele>361.0</ele><time>2026-04-18T14:21:16.004Z</time></trkpt><trkpt lat="43.0589583" lon="11.5025817"><ele>361.0</ele><time>2026-04-18T14:21:17.003Z</time></trkpt><trkpt lat="43.059045" lon="11.50269"><ele>361.0</ele><time>2026-04-18T14:21:18.004Z</time></trkpt><trkpt lat="43.05914" lon="11.5027933"><ele>361.0</ele><time>2026-04-18T14:21:19.003Z</time></trkpt><trkpt lat="43.05924" lon="11.5028833"><ele>361.0</ele><time>2026-04-18T14:21:20.004Z</time></trkpt><trkpt lat="43.0593533" lon="11.5029567"><ele>356.25</ele><time>2026-04-18T14:21:21.004Z</time></trkpt><trkpt lat="43.059475" lon="11.5030133"><ele>351.5</ele><time>2026-04-18T14:21:22.004Z</time></trkpt><trkpt lat="43.0596117" lon="11.5030567"><ele>346.75</ele><time>2026-04-18T14:21:23.004Z</time></trkpt><trkpt lat="43.0597467" lon="11.503085"><ele>342.0</ele><time>2026-04-18T14:21:24.004Z</time></trkpt><trkpt lat="43.0598817" lon="11.5030917"><ele>341.0</ele><time>2026-04-18T14:21:25.004Z</time></trkpt><trkpt lat="43.0600133" lon="11.5030833"><ele>340.0</ele><time>2026-04-18T14:21:26.003Z</time></trkpt><trkpt lat="43.0601417" lon="11.5030633"><ele>339.0</ele><time>2026-04-18T14:21:27.003Z</time></trkpt><trkpt lat="43.0602633" lon="11.5030067"><ele>338.0</ele><time>2026-04-18T14:21:28.004Z</time></trkpt><trkpt lat="43.0603817" lon="11.5029233"><ele>342.5</ele><time>2026-04-18T14:21:29.003Z</time></trkpt><trkpt lat="43.0604883" lon="11.5028167"><ele>347.0</ele><time>2026-04-18T14:21:30.003Z</time></trkpt><trkpt lat="43.0605783" lon="11.502665"><ele>351.5</ele><time>2026-04-18T14:21:31.003Z</time></trkpt><trkpt lat="43.06067" lon="11.5025067"><ele>356.0</ele><time>2026-04-18T14:21:32.003Z</time></trkpt><trkpt lat="43.060765" lon="11.5023567"><ele>352.5</ele><time>2026-04-18T14:21:33.003Z</time></trkpt><trkpt lat="43.0608683" lon="11.502235"><ele>349.0</ele><time>2026-04-18T14:21:34.003Z</time></trkpt><trkpt lat="43.0609967" lon="11.5021567"><ele>345.5</ele><time>2026-04-18T14:21:35.004Z</time></trkpt><trkpt lat="43.0611383" lon="11.5021133"><ele>342.0</ele><time>2026-04-18T14:21:36.003Z</time></trkpt><trkpt lat="43.0612833" lon="11.502095"><ele>342.0</ele><time>2026-04-18T14:21:37.003Z</time></trkpt><trkpt lat="43.0614267" lon="11.50206"><ele>342.0</ele><time>2026-04-18T14:21:38.003Z</time></trkpt><trkpt lat="43.06157" lon="11.501995"><ele>342.0</ele><time>2026-04-18T14:21:39.004Z</time></trkpt><trkpt lat="43.0617067" lon="11.501905"><ele>342.0</ele><time>2026-04-18T14:21:40.003Z</time></trkpt><trkpt lat="43.06184" lon="11.5017967"><ele>342.0</ele><time>2026-04-18T14:21:41.004Z</time></trkpt><trkpt lat="43.0619717" lon="11.50168"><ele>342.0</ele><time>2026-04-18T14:21:42.003Z</time></trkpt><trkpt lat="43.0620983" lon="11.5015633"><ele>342.0</ele><time>2026-04-18T14:21:43.003Z</time></trkpt><trkpt lat="43.0622133" lon="11.501445"><ele>342.0</ele><time>2026-04-18T14:21:44.003Z</time></trkpt><trkpt lat="43.06233" lon="11.50134"><ele>342.0</ele><time>2026-04-18T14:21:45.004Z</time></trkpt><trkpt lat="43.06244" lon="11.5012367"><ele>342.0</ele><time>2026-04-18T14:21:46.004Z</time></trkpt><trkpt lat="43.0625533" lon="11.501145"><ele>342.0</ele><time>2026-04-18T14:21:47.004Z</time></trkpt><trkpt lat="43.06267" lon="11.5010733"><ele>340.75</ele><time>2026-04-18T14:21:48.003Z</time></trkpt><trkpt lat="43.0628" lon="11.50103"><ele>339.5</ele><time>2026-04-18T14:21:49.003Z</time></trkpt><trkpt lat="43.0629417" lon="11.50101"><ele>338.25</ele><time>2026-04-18T14:21:50.003Z</time></trkpt><trkpt lat="43.06309" lon="11.5010317"><ele>337.0</ele><time>2026-04-18T14:21:51.004Z</time></trkpt><trkpt lat="43.0632383" lon="11.50109"><ele>335.0</ele><time>2026-04-18T14:21:52.004Z</time></trkpt><trkpt lat="43.06339" lon="11.5011667"><ele>333.0</ele><time>2026-04-18T14:21:53.004Z</time></trkpt><trkpt lat="43.06354" lon="11.5012517"><ele>331.0</ele><time>2026-04-18T14:21:54.003Z</time></trkpt><trkpt lat="43.0636817" lon="11.50133"><ele>329.0</ele><time>2026-04-18T14:21:55.004Z</time></trkpt><trkpt lat="43.063825" lon="11.501405"><ele>327.0</ele><time>2026-04-18T14:21:56.004Z</time></trkpt><trkpt lat="43.06396" lon="11.5014717"><ele>325.0</ele><time>2026-04-18T14:21:57.003Z</time></trkpt><trkpt lat="43.0641" lon="11.50154"><ele>323.0</ele><time>2026-04-18T14:21:58.004Z</time></trkpt><trkpt lat="43.0642383" lon="11.5016083"><ele>322.75</ele><time>2026-04-18T14:21:59.004Z</time></trkpt><trkpt lat="43.0643817" lon="11.5016733"><ele>322.5</ele><time>2026-04-18T14:22:00.004Z</time></trkpt><trkpt lat="43.064525" lon="11.5017233"><ele>322.25</ele><time>2026-04-18T14:22:01.004Z</time></trkpt><trkpt lat="43.0646683" lon="11.5017483"><ele>322.0</ele><time>2026-04-18T14:22:02.004Z</time></trkpt><trkpt lat="43.0648167" lon="11.501735"><ele>320.66666666666663</ele><time>2026-04-18T14:22:03.003Z</time></trkpt><trkpt lat="43.0649567" lon="11.5016867"><ele>319.3333333333333</ele><time>2026-04-18T14:22:04.003Z</time></trkpt><trkpt lat="43.0650933" lon="11.5015967"><ele>318.0</ele><time>2026-04-18T14:22:05.004Z</time></trkpt><trkpt lat="43.0652217" lon="11.501475"><ele>318.0</ele><time>2026-04-18T14:22:06.004Z</time></trkpt><trkpt lat="43.0653317" lon="11.5013167"><ele>318.0</ele><time>2026-04-18T14:22:07.004Z</time></trkpt><trkpt lat="43.0654283" lon="11.501145"><ele>318.0</ele><time>2026-04-18T14:22:08.003Z</time></trkpt><trkpt lat="43.0655117" lon="11.50096"><ele>319.0</ele><time>2026-04-18T14:22:09.004Z</time></trkpt><trkpt lat="43.0656" lon="11.500775"><ele>320.0</ele><time>2026-04-18T14:22:10.004Z</time></trkpt><trkpt lat="43.06569" lon="11.5005983"><ele>321.0</ele><time>2026-04-18T14:22:11.003Z</time></trkpt><trkpt lat="43.0657833" lon="11.5004467"><ele>319.25</ele><time>2026-04-18T14:22:12.003Z</time></trkpt><trkpt lat="43.065895" lon="11.5003083"><ele>317.5</ele><time>2026-04-18T14:22:13.003Z</time></trkpt><trkpt lat="43.0660183" lon="11.5002167"><ele>315.75</ele><time>2026-04-18T14:22:14.003Z</time></trkpt><trkpt lat="43.0661667" lon="11.5001483"><ele>314.0</ele><time>2026-04-18T14:22:15.004Z</time></trkpt><trkpt lat="43.06631" lon="11.5000833"><ele>314.0</ele><time>2026-04-18T14:22:16.004Z</time></trkpt><trkpt lat="43.06646" lon="11.50003"><ele>314.0</ele><time>2026-04-18T14:22:17.003Z</time></trkpt><trkpt lat="43.066605" lon="11.4999733"><ele>314.0</ele><time>2026-04-18T14:22:18.004Z</time></trkpt><trkpt lat="43.0667483" lon="11.49991"><ele>311.33333333333337</ele><time>2026-04-18T14:22:19.004Z</time></trkpt><trkpt lat="43.066895" lon="11.499835"><ele>308.6666666666667</ele><time>2026-04-18T14:22:20.003Z</time></trkpt><trkpt lat="43.0670333" lon="11.4997517"><ele>306.0</ele><time>2026-04-18T14:22:21.004Z</time></trkpt><trkpt lat="43.0671783" lon="11.4996483"><ele>305.3333333333333</ele><time>2026-04-18T14:22:22.003Z</time></trkpt><trkpt lat="43.0673283" lon="11.49955"><ele>304.66666666666663</ele><time>2026-04-18T14:22:23.003Z</time></trkpt><trkpt lat="43.0674783" lon="11.499445"><ele>304.0</ele><time>2026-04-18T14:22:24.003Z</time></trkpt><trkpt lat="43.067635" lon="11.4993467"><ele>304.0</ele><time>2026-04-18T14:22:25.004Z</time></trkpt><trkpt lat="43.0678" lon="11.4992633"><ele>304.0</ele><time>2026-04-18T14:22:26.003Z</time></trkpt><trkpt lat="43.067975" lon="11.499195"><ele>304.0</ele><time>2026-04-18T14:22:27.004Z</time></trkpt><trkpt lat="43.0681567" lon="11.4991417"><ele>300.66666666666663</ele><time>2026-04-18T14:22:28.004Z</time></trkpt><trkpt lat="43.0683383" lon="11.49909"><ele>297.3333333333333</ele><time>2026-04-18T14:22:29.003Z</time></trkpt><trkpt lat="43.068515" lon="11.49904"><ele>294.0</ele><time>2026-04-18T14:22:30.004Z</time></trkpt><trkpt lat="43.0686933" lon="11.49899"><ele>294.0</ele><time>2026-04-18T14:22:31.004Z</time></trkpt><trkpt lat="43.06888" lon="11.4989333"><ele>294.0</ele><time>2026-04-18T14:22:32.003Z</time></trkpt><trkpt lat="43.0690683" lon="11.498875"><ele>294.0</ele><time>2026-04-18T14:22:33.003Z</time></trkpt><trkpt lat="43.06925" lon="11.4988167"><ele>292.3333333333333</ele><time>2026-04-18T14:22:34.004Z</time></trkpt><trkpt lat="43.0694367" lon="11.4987633"><ele>290.66666666666663</ele><time>2026-04-18T14:22:35.004Z</time></trkpt><trkpt lat="43.0696183" lon="11.4987017"><ele>289.0</ele><time>2026-04-18T14:22:36.003Z</time></trkpt><trkpt lat="43.069805" lon="11.498645"><ele>287.66666666666663</ele><time>2026-04-18T14:22:37.003Z</time></trkpt><trkpt lat="43.06999" lon="11.4985717"><ele>286.3333333333333</ele><time>2026-04-18T14:22:38.003Z</time></trkpt><trkpt lat="43.0701683" lon="11.4984867"><ele>285.0</ele><time>2026-04-18T14:22:39.003Z</time></trkpt><trkpt lat="43.0703433" lon="11.4983817"><ele>285.0</ele><time>2026-04-18T14:22:40.003Z</time></trkpt><trkpt lat="43.0705167" lon="11.4982633"><ele>285.0</ele><time>2026-04-18T14:22:41.004Z</time></trkpt><trkpt lat="43.0706867" lon="11.49814"><ele>285.0</ele><time>2026-04-18T14:22:42.004Z</time></trkpt><trkpt lat="43.070855" lon="11.498015"><ele>282.3333333333333</ele><time>2026-04-18T14:22:43.003Z</time></trkpt><trkpt lat="43.07102" lon="11.4978817"><ele>279.66666666666663</ele><time>2026-04-18T14:22:44.004Z</time></trkpt><trkpt lat="43.0711867" lon="11.4977567"><ele>277.0</ele><time>2026-04-18T14:22:45.004Z</time></trkpt><trkpt lat="43.0713433" lon="11.49764"><ele>277.0</ele><time>2026-04-18T14:22:46.003Z</time></trkpt><trkpt lat="43.071495" lon="11.4975217"><ele>277.0</ele><time>2026-04-18T14:22:47.003Z</time></trkpt><trkpt lat="43.0716533" lon="11.4974017"><ele>277.0</ele><time>2026-04-18T14:22:48.004Z</time></trkpt><trkpt lat="43.07181" lon="11.4972783"><ele>278.0</ele><time>2026-04-18T14:22:49.003Z</time></trkpt><trkpt lat="43.0719667" lon="11.4971567"><ele>279.0</ele><time>2026-04-18T14:22:50.004Z</time></trkpt><trkpt lat="43.0721233" lon="11.497035"><ele>280.0</ele><time>2026-04-18T14:22:51.003Z</time></trkpt><trkpt lat="43.07228" lon="11.4969133"><ele>278.66666666666663</ele><time>2026-04-18T14:22:52.003Z</time></trkpt><trkpt lat="43.0724467" lon="11.4967883"><ele>277.3333333333333</ele><time>2026-04-18T14:22:53.002Z</time></trkpt><trkpt lat="43.0726217" lon="11.49668"><ele>276.0</ele><time>2026-04-18T14:22:54.003Z</time></trkpt><trkpt lat="43.0728" lon="11.49658"><ele>276.0</ele><time>2026-04-18T14:22:55.003Z</time></trkpt><trkpt lat="43.07298" lon="11.4964933"><ele>276.0</ele><time>2026-04-18T14:22:56.002Z</time></trkpt><trkpt lat="43.0731683" lon="11.4964067"><ele>276.0</ele><time>2026-04-18T14:22:57.003Z</time></trkpt><trkpt lat="43.073355" lon="11.4963183"><ele>272.3333333333333</ele><time>2026-04-18T14:22:58.002Z</time></trkpt><trkpt lat="43.0735383" lon="11.4962283"><ele>268.66666666666663</ele><time>2026-04-18T14:22:59.002Z</time></trkpt><trkpt lat="43.0737217" lon="11.4961383"><ele>265.0</ele><time>2026-04-18T14:23:00.002Z</time></trkpt><trkpt lat="43.0739" lon="11.49603"><ele>265.0</ele><time>2026-04-18T14:23:01.002Z</time></trkpt><trkpt lat="43.0740767" lon="11.4959083"><ele>265.0</ele><time>2026-04-18T14:23:02.002Z</time></trkpt><trkpt lat="43.0742517" lon="11.4957733"><ele>265.0</ele><time>2026-04-18T14:23:03.003Z</time></trkpt><trkpt lat="43.0744133" lon="11.495635"><ele>264.66666666666663</ele><time>2026-04-18T14:23:04.002Z</time></trkpt><trkpt lat="43.07458" lon="11.4954967"><ele>264.3333333333333</ele><time>2026-04-18T14:23:05.002Z</time></trkpt><trkpt lat="43.0747467" lon="11.495355"><ele>264.0</ele><time>2026-04-18T14:23:06.002Z</time></trkpt><trkpt lat="43.0749167" lon="11.49521"><ele>262.0</ele><time>2026-04-18T14:23:07.002Z</time></trkpt><trkpt lat="43.0750817" lon="11.49507"><ele>260.0</ele><time>2026-04-18T14:23:08.002Z</time></trkpt><trkpt lat="43.0752467" lon="11.494925"><ele>258.0</ele><time>2026-04-18T14:23:09.002Z</time></trkpt><trkpt lat="43.0754117" lon="11.4947817"><ele>258.0</ele><time>2026-04-18T14:23:10.003Z</time></trkpt><trkpt lat="43.0755767" lon="11.4946367"><ele>258.0</ele><time>2026-04-18T14:23:11.002Z</time></trkpt><trkpt lat="43.075735" lon="11.4944883"><ele>258.0</ele><time>2026-04-18T14:23:12.002Z</time></trkpt><trkpt lat="43.0758883" lon="11.494335"><ele>256.3333333333333</ele><time>2026-04-18T14:23:13.003Z</time></trkpt><trkpt lat="43.0760383" lon="11.494175"><ele>254.66666666666666</ele><time>2026-04-18T14:23:14.002Z</time></trkpt><trkpt lat="43.0761867" lon="11.4940233"><ele>253.0</ele><time>2026-04-18T14:23:15.003Z</time></trkpt><trkpt lat="43.07633" lon="11.49387"><ele>252.66666666666666</ele><time>2026-04-18T14:23:16.002Z</time></trkpt><trkpt lat="43.0764783" lon="11.4937167"><ele>252.33333333333331</ele><time>2026-04-18T14:23:17.002Z</time></trkpt><trkpt lat="43.076625" lon="11.4935633"><ele>252.0</ele><time>2026-04-18T14:23:18.003Z</time></trkpt><trkpt lat="43.076775" lon="11.4934167"><ele>251.66666666666669</ele><time>2026-04-18T14:23:19.002Z</time></trkpt><trkpt lat="43.07692" lon="11.49328"><ele>251.33333333333334</ele><time>2026-04-18T14:23:20.002Z</time></trkpt><trkpt lat="43.0770617" lon="11.4931683"><ele>251.0</ele><time>2026-04-18T14:23:21.002Z</time></trkpt><trkpt lat="43.0772" lon="11.4930783"><ele>251.0</ele><time>2026-04-18T14:23:22.002Z</time></trkpt><trkpt lat="43.0773433" lon="11.4929883"><ele>251.0</ele><time>2026-04-18T14:23:23.002Z</time></trkpt><trkpt lat="43.0774767" lon="11.4929133"><ele>251.0</ele><time>2026-04-18T14:23:24.002Z</time></trkpt><trkpt lat="43.0776083" lon="11.49284"><ele>251.0</ele><time>2026-04-18T14:23:25.002Z</time></trkpt><trkpt lat="43.07774" lon="11.492755"><ele>250.75</ele><time>2026-04-18T14:23:26.002Z</time></trkpt><trkpt lat="43.0778583" lon="11.4926517"><ele>250.5</ele><time>2026-04-18T14:23:27.003Z</time></trkpt><trkpt lat="43.07797" lon="11.4925267"><ele>250.25</ele><time>2026-04-18T14:23:28.002Z</time></trkpt><trkpt lat="43.0780433" lon="11.4923667"><ele>250.0</ele><time>2026-04-18T14:23:29.002Z</time></trkpt><trkpt lat="43.0780933" lon="11.4921817"><ele>249.75</ele><time>2026-04-18T14:23:30.002Z</time></trkpt><trkpt lat="43.0781233" lon="11.4919883"><ele>249.5</ele><time>2026-04-18T14:23:31.003Z</time></trkpt><trkpt lat="43.0781517" lon="11.4917883"><ele>249.25</ele><time>2026-04-18T14:23:32.002Z</time></trkpt><trkpt lat="43.0781767" lon="11.4915867"><ele>249.0</ele><time>2026-04-18T14:23:33.003Z</time></trkpt><trkpt lat="43.0782" lon="11.4913833"><ele>248.33333333333331</ele><time>2026-04-18T14:23:34.002Z</time></trkpt><trkpt lat="43.0782333" lon="11.49118"><ele>247.66666666666666</ele><time>2026-04-18T14:23:35.002Z</time></trkpt><trkpt lat="43.0782833" lon="11.49099"><ele>247.0</ele><time>2026-04-18T14:23:36.003Z</time></trkpt><trkpt lat="43.078345" lon="11.4907867"><ele>244.66666666666666</ele><time>2026-04-18T14:23:37.002Z</time></trkpt><trkpt lat="43.0784217" lon="11.4905933"><ele>242.33333333333331</ele><time>2026-04-18T14:23:38.002Z</time></trkpt><trkpt lat="43.0784867" lon="11.4903983"><ele>240.0</ele><time>2026-04-18T14:23:39.003Z</time></trkpt><trkpt lat="43.0785317" lon="11.490195"><ele>240.0</ele><time>2026-04-18T14:23:40.002Z</time></trkpt><trkpt lat="43.0785433" lon="11.4899733"><ele>240.0</ele><time>2026-04-18T14:23:41.002Z</time></trkpt><trkpt lat="43.0785117" lon="11.4897483"><ele>240.0</ele><time>2026-04-18T14:23:42.002Z</time></trkpt><trkpt lat="43.078455" lon="11.48954"><ele>238.75</ele><time>2026-04-18T14:23:43.003Z</time></trkpt><trkpt lat="43.07841" lon="11.4893417"><ele>237.5</ele><time>2026-04-18T14:23:44.002Z</time></trkpt><trkpt lat="43.0783817" lon="11.48915"><ele>236.25</ele><time>2026-04-18T14:23:45.002Z</time></trkpt><trkpt lat="43.07839" lon="11.4889633"><ele>235.0</ele><time>2026-04-18T14:23:46.002Z</time></trkpt><trkpt lat="43.07843" lon="11.4887833"><ele>235.75</ele><time>2026-04-18T14:23:47.003Z</time></trkpt><trkpt lat="43.078505" lon="11.4886267"><ele>236.5</ele><time>2026-04-18T14:23:48.003Z</time></trkpt><trkpt lat="43.0786183" lon="11.4885067"><ele>237.25</ele><time>2026-04-18T14:23:49.002Z</time></trkpt><trkpt lat="43.0787667" lon="11.4884"><ele>238.0</ele><time>2026-04-18T14:23:50.002Z</time></trkpt><trkpt lat="43.0789467" lon="11.488295"><ele>238.0</ele><time>2026-04-18T14:23:51.003Z</time></trkpt><trkpt lat="43.079145" lon="11.4881817"><ele>238.0</ele><time>2026-04-18T14:23:52.003Z</time></trkpt><trkpt lat="43.0793283" lon="11.48805"><ele>238.0</ele><time>2026-04-18T14:23:53.002Z</time></trkpt><trkpt lat="43.0794933" lon="11.4879167"><ele>238.0</ele><time>2026-04-18T14:23:54.002Z</time></trkpt><trkpt lat="43.0796567" lon="11.487785"><ele>238.0</ele><time>2026-04-18T14:23:55.003Z</time></trkpt><trkpt lat="43.079805" lon="11.487635"><ele>238.0</ele><time>2026-04-18T14:23:56.003Z</time></trkpt><trkpt lat="43.0799317" lon="11.487455"><ele>235.33333333333331</ele><time>2026-04-18T14:23:57.003Z</time></trkpt><trkpt lat="43.0800483" lon="11.4872267"><ele>232.66666666666669</ele><time>2026-04-18T14:23:58.002Z</time></trkpt><trkpt lat="43.08015" lon="11.4869767"><ele>230.0</ele><time>2026-04-18T14:23:59.003Z</time></trkpt><trkpt lat="43.0802617" lon="11.4867367"><ele>230.0</ele><time>2026-04-18T14:24:00.002Z</time></trkpt><trkpt lat="43.08039" lon="11.48652"><ele>230.0</ele><time>2026-04-18T14:24:01.002Z</time></trkpt><trkpt lat="43.0805233" lon="11.48633"><ele>230.0</ele><time>2026-04-18T14:24:02.002Z</time></trkpt><trkpt lat="43.0806583" lon="11.4861667"><ele>225.0</ele><time>2026-04-18T14:24:03.003Z</time></trkpt><trkpt lat="43.08078" lon="11.4860033"><ele>220.0</ele><time>2026-04-18T14:24:04.002Z</time></trkpt><trkpt lat="43.0808883" lon="11.485825"><ele>215.0</ele><time>2026-04-18T14:24:05.002Z</time></trkpt><trkpt lat="43.0809783" lon="11.4856317"><ele>215.66666666666669</ele><time>2026-04-18T14:24:06.002Z</time></trkpt><trkpt lat="43.081035" lon="11.4854167"><ele>216.33333333333331</ele><time>2026-04-18T14:24:07.002Z</time></trkpt><trkpt lat="43.0810517" lon="11.4851883"><ele>217.0</ele><time>2026-04-18T14:24:08.002Z</time></trkpt><trkpt lat="43.0810767" lon="11.484985"><ele>217.0</ele><time>2026-04-18T14:24:09.003Z</time></trkpt><trkpt lat="43.0810933" lon="11.4847917"><ele>217.0</ele><time>2026-04-18T14:24:10.003Z</time></trkpt><trkpt lat="43.08113" lon="11.4846417"><ele>217.0</ele><time>2026-04-18T14:24:11.003Z</time></trkpt><trkpt lat="43.081195" lon="11.4845"><ele>217.0</ele><time>2026-04-18T14:24:12.003Z</time></trkpt><trkpt lat="43.0812867" lon="11.484385"><ele>217.25</ele><time>2026-04-18T14:24:13.002Z</time></trkpt><trkpt lat="43.0813933" lon="11.4843133"><ele>217.5</ele><time>2026-04-18T14:24:14.002Z</time></trkpt><trkpt lat="43.08151" lon="11.4842817"><ele>217.75</ele><time>2026-04-18T14:24:15.002Z</time></trkpt><trkpt lat="43.08164" lon="11.4842917"><ele>218.0</ele><time>2026-04-18T14:24:16.003Z</time></trkpt><trkpt lat="43.0817733" lon="11.4843317"><ele>216.25</ele><time>2026-04-18T14:24:17.002Z</time></trkpt><trkpt lat="43.0819117" lon="11.484395"><ele>214.5</ele><time>2026-04-18T14:24:18.003Z</time></trkpt><trkpt lat="43.082055" lon="11.4844633"><ele>212.75</ele><time>2026-04-18T14:24:19.002Z</time></trkpt><trkpt lat="43.082195" lon="11.4845317"><ele>211.0</ele><time>2026-04-18T14:24:20.002Z</time></trkpt><trkpt lat="43.0823317" lon="11.48458"><ele>209.5</ele><time>2026-04-18T14:24:21.002Z</time></trkpt><trkpt lat="43.0824683" lon="11.4846167"><ele>208.0</ele><time>2026-04-18T14:24:22.002Z</time></trkpt><trkpt lat="43.082615" lon="11.4846267"><ele>206.5</ele><time>2026-04-18T14:24:23.002Z</time></trkpt><trkpt lat="43.0827683" lon="11.484605"><ele>205.0</ele><time>2026-04-18T14:24:24.002Z</time></trkpt><trkpt lat="43.0829267" lon="11.484545"><ele>205.0</ele><time>2026-04-18T14:24:25.003Z</time></trkpt><trkpt lat="43.0830783" lon="11.4844717"><ele>205.0</ele><time>2026-04-18T14:24:26.003Z</time></trkpt><trkpt lat="43.0832283" lon="11.4843967"><ele>205.0</ele><time>2026-04-18T14:24:27.002Z</time></trkpt><trkpt lat="43.0833783" lon="11.4843217"><ele>201.33333333333331</ele><time>2026-04-18T14:24:28.003Z</time></trkpt><trkpt lat="43.0835333" lon="11.4842583"><ele>197.66666666666669</ele><time>2026-04-18T14:24:29.002Z</time></trkpt><trkpt lat="43.0836917" lon="11.484205"><ele>194.0</ele><time>2026-04-18T14:24:30.002Z</time></trkpt><trkpt lat="43.083865" lon="11.4841517"><ele>194.0</ele><time>2026-04-18T14:24:31.002Z</time></trkpt><trkpt lat="43.0840717" lon="11.4841133"><ele>194.0</ele><time>2026-04-18T14:24:32.002Z</time></trkpt><trkpt lat="43.0843133" lon="11.4840833"><ele>190.0</ele><time>2026-04-18T14:24:33.003Z</time></trkpt><trkpt lat="43.08457" lon="11.4840583"><ele>186.0</ele><time>2026-04-18T14:24:34.002Z</time></trkpt><trkpt lat="43.0848217" lon="11.4840533"><ele>182.0</ele><time>2026-04-18T14:24:35.002Z</time></trkpt><trkpt lat="43.0850583" lon="11.48404"><ele>178.0</ele><time>2026-04-18T14:24:36.003Z</time></trkpt><trkpt lat="43.0852833" lon="11.4840283"><ele>178.0</ele><time>2026-04-18T14:24:37.002Z</time></trkpt><trkpt lat="43.0854983" lon="11.4840133"><ele>178.0</ele><time>2026-04-18T14:24:38.003Z</time></trkpt><trkpt lat="43.0857067" lon="11.4840033"><ele>178.0</ele><time>2026-04-18T14:24:39.002Z</time></trkpt><trkpt lat="43.085905" lon="11.483985"><ele>175.0</ele><time>2026-04-18T14:24:40.002Z</time></trkpt><trkpt lat="43.0860933" lon="11.4839667"><ele>172.0</ele><time>2026-04-18T14:24:41.002Z</time></trkpt><trkpt lat="43.0862683" lon="11.4839467"><ele>169.0</ele><time>2026-04-18T14:24:42.003Z</time></trkpt><trkpt lat="43.0864417" lon="11.4839517"><ele>167.66666666666669</ele><time>2026-04-18T14:24:43.003Z</time></trkpt><trkpt lat="43.0866017" lon="11.4839917"><ele>166.33333333333334</ele><time>2026-04-18T14:24:44.002Z</time></trkpt><trkpt lat="43.08676" lon="11.4840633"><ele>165.0</ele><time>2026-04-18T14:24:45.003Z</time></trkpt><trkpt lat="43.0869167" lon="11.4841767"><ele>165.0</ele><time>2026-04-18T14:24:46.003Z</time></trkpt><trkpt lat="43.087065" lon="11.4843233"><ele>165.0</ele><time>2026-04-18T14:24:47.002Z</time></trkpt><trkpt lat="43.0872117" lon="11.48451"><ele>165.0</ele><time>2026-04-18T14:24:48.002Z</time></trkpt><trkpt lat="43.08736" lon="11.48475"><ele>164.0</ele><time>2026-04-18T14:24:49.002Z</time></trkpt><trkpt lat="43.0875067" lon="11.4850233"><ele>163.0</ele><time>2026-04-18T14:24:50.002Z</time></trkpt><trkpt lat="43.0876533" lon="11.4852717"><ele>161.33333333333334</ele><time>2026-04-18T14:24:51.002Z</time></trkpt><trkpt lat="43.08779" lon="11.4855083"><ele>159.66666666666666</ele><time>2026-04-18T14:24:52.003Z</time></trkpt><trkpt lat="43.0879217" lon="11.4857267"><ele>158.0</ele><time>2026-04-18T14:24:53.003Z</time></trkpt><trkpt lat="43.0880517" lon="11.4859417"><ele>158.0</ele><time>2026-04-18T14:24:54.002Z</time></trkpt><trkpt lat="43.0881783" lon="11.4861483"><ele>158.0</ele><time>2026-04-18T14:24:55.002Z</time></trkpt><trkpt lat="43.0883067" lon="11.4863467"><ele>158.0</ele><time>2026-04-18T14:24:56.002Z</time></trkpt><trkpt lat="43.0884467" lon="11.4865167"><ele>158.0</ele><time>2026-04-18T14:24:57.002Z</time></trkpt><trkpt lat="43.0886033" lon="11.4866533"><ele>158.0</ele><time>2026-04-18T14:24:58.003Z</time></trkpt><trkpt lat="43.08879" lon="11.4867367"><ele>158.0</ele><time>2026-04-18T14:24:59.002Z</time></trkpt><trkpt lat="43.0889817" lon="11.4867717"><ele>158.0</ele><time>2026-04-18T14:25:00.003Z</time></trkpt><trkpt lat="43.0891867" lon="11.4867833"><ele>158.0</ele><time>2026-04-18T14:25:01.002Z</time></trkpt><trkpt lat="43.08942" lon="11.4867517"><ele>158.0</ele><time>2026-04-18T14:25:02.003Z</time></trkpt><trkpt lat="43.08967" lon="11.4867133"><ele>158.0</ele><time>2026-04-18T14:25:03.002Z</time></trkpt><trkpt lat="43.08995" lon="11.4866733"><ele>158.0</ele><time>2026-04-18T14:25:04.003Z</time></trkpt><trkpt lat="43.0902467" lon="11.4866283"><ele>158.0</ele><time>2026-04-18T14:25:05.003Z</time></trkpt><trkpt lat="43.0905617" lon="11.4865833"><ele>158.0</ele><time>2026-04-18T14:25:06.003Z</time></trkpt><trkpt lat="43.0908833" lon="11.4865433"><ele>157.5</ele><time>2026-04-18T14:25:07.002Z</time></trkpt><trkpt lat="43.09122" lon="11.4864967"><ele>157.0</ele><time>2026-04-18T14:25:08.002Z</time></trkpt><trkpt lat="43.0915483" lon="11.486455"><ele>155.5</ele><time>2026-04-18T14:25:09.002Z</time></trkpt><trkpt lat="43.0918533" lon="11.4864067"><ele>154.0</ele><time>2026-04-18T14:25:10.002Z</time></trkpt><trkpt lat="43.09214" lon="11.48637"><ele>154.0</ele><time>2026-04-18T14:25:11.002Z</time></trkpt><trkpt lat="43.0924083" lon="11.486335"><ele>154.0</ele><time>2026-04-18T14:25:12.003Z</time></trkpt><trkpt lat="43.0926683" lon="11.4862917"><ele>154.5</ele><time>2026-04-18T14:25:13.002Z</time></trkpt><trkpt lat="43.09292" lon="11.4862533"><ele>155.0</ele><time>2026-04-18T14:25:14.002Z</time></trkpt><trkpt lat="43.093165" lon="11.4862183"><ele>156.0</ele><time>2026-04-18T14:25:15.003Z</time></trkpt><trkpt lat="43.0934117" lon="11.4861867"><ele>157.0</ele><time>2026-04-18T14:25:16.003Z</time></trkpt><trkpt lat="43.0936467" lon="11.486155"><ele>157.0</ele><time>2026-04-18T14:25:17.003Z</time></trkpt><trkpt lat="43.0938717" lon="11.4861217"><ele>157.0</ele><time>2026-04-18T14:25:18.002Z</time></trkpt><trkpt lat="43.0940917" lon="11.4860817"><ele>157.0</ele><time>2026-04-18T14:25:19.003Z</time></trkpt><trkpt lat="43.094305" lon="11.486015"><ele>156.5</ele><time>2026-04-18T14:25:20.003Z</time></trkpt><trkpt lat="43.0945183" lon="11.48593"><ele>156.0</ele><time>2026-04-18T14:25:21.003Z</time></trkpt><trkpt lat="43.0947433" lon="11.48583"><ele>153.5</ele><time>2026-04-18T14:25:22.003Z</time></trkpt><trkpt lat="43.094975" lon="11.4857267"><ele>151.0</ele><time>2026-04-18T14:25:23.002Z</time></trkpt><trkpt lat="43.09521" lon="11.485625"><ele>151.0</ele><time>2026-04-18T14:25:24.002Z</time></trkpt><trkpt lat="43.0954317" lon="11.4855467"><ele>151.0</ele><time>2026-04-18T14:25:25.002Z</time></trkpt><trkpt lat="43.0956383" lon="11.4854733"><ele>151.0</ele><time>2026-04-18T14:25:26.002Z</time></trkpt><trkpt lat="43.0958467" lon="11.48539"><ele>151.66666666666669</ele><time>2026-04-18T14:25:27.002Z</time></trkpt><trkpt lat="43.096055" lon="11.4852833"><ele>152.33333333333334</ele><time>2026-04-18T14:25:28.003Z</time></trkpt><trkpt lat="43.09626" lon="11.4851517"><ele>153.0</ele><time>2026-04-18T14:25:29.002Z</time></trkpt><trkpt lat="43.0964667" lon="11.484985"><ele>152.0</ele><time>2026-04-18T14:25:30.002Z</time></trkpt><trkpt lat="43.0966767" lon="11.4847983"><ele>151.0</ele><time>2026-04-18T14:25:31.002Z</time></trkpt><trkpt lat="43.0968917" lon="11.4846133"><ele>151.0</ele><time>2026-04-18T14:25:32.002Z</time></trkpt><trkpt lat="43.0970817" lon="11.48444"><ele>151.0</ele><time>2026-04-18T14:25:33.002Z</time></trkpt><trkpt lat="43.0972683" lon="11.4842817"><ele>151.0</ele><time>2026-04-18T14:25:34.002Z</time></trkpt><trkpt lat="43.09745" lon="11.484135"><ele>151.0</ele><time>2026-04-18T14:25:35.003Z</time></trkpt><trkpt lat="43.0976283" lon="11.484005"><ele>151.0</ele><time>2026-04-18T14:25:36.002Z</time></trkpt><trkpt lat="43.097815" lon="11.48389"><ele>151.0</ele><time>2026-04-18T14:25:37.002Z</time></trkpt><trkpt lat="43.0980033" lon="11.4837867"><ele>152.0</ele><time>2026-04-18T14:25:38.003Z</time></trkpt><trkpt lat="43.0981917" lon="11.4836867"><ele>153.0</ele><time>2026-04-18T14:25:39.003Z</time></trkpt><trkpt lat="43.0983833" lon="11.483595"><ele>154.0</ele><time>2026-04-18T14:25:40.002Z</time></trkpt><trkpt lat="43.0985717" lon="11.483515"><ele>152.0</ele><time>2026-04-18T14:25:41.002Z</time></trkpt><trkpt lat="43.09876" lon="11.483445"><ele>150.0</ele><time>2026-04-18T14:25:42.003Z</time></trkpt><trkpt lat="43.098955" lon="11.483395"><ele>148.0</ele><time>2026-04-18T14:25:43.003Z</time></trkpt><trkpt lat="43.0991483" lon="11.4833717"><ele>147.33333333333334</ele><time>2026-04-18T14:25:44.003Z</time></trkpt><trkpt lat="43.0993417" lon="11.4833667"><ele>146.66666666666666</ele><time>2026-04-18T14:25:45.003Z</time></trkpt><trkpt lat="43.099525" lon="11.4833517"><ele>146.0</ele><time>2026-04-18T14:25:46.003Z</time></trkpt><trkpt lat="43.0997017" lon="11.483335"><ele>146.0</ele><time>2026-04-18T14:25:47.002Z</time></trkpt><trkpt lat="43.0998667" lon="11.4832767"><ele>146.0</ele><time>2026-04-18T14:25:48.002Z</time></trkpt><trkpt lat="43.1000183" lon="11.4831667"><ele>146.0</ele><time>2026-04-18T14:25:49.003Z</time></trkpt><trkpt lat="43.1001567" lon="11.4830117"><ele>145.66666666666666</ele><time>2026-04-18T14:25:50.003Z</time></trkpt><trkpt lat="43.10029" lon="11.4828383"><ele>145.33333333333334</ele><time>2026-04-18T14:25:51.003Z</time></trkpt><trkpt lat="43.10043" lon="11.4826583"><ele>145.0</ele><time>2026-04-18T14:25:52.002Z</time></trkpt><trkpt lat="43.1005767" lon="11.48246"><ele>145.0</ele><time>2026-04-18T14:25:53.003Z</time></trkpt><trkpt lat="43.1007317" lon="11.4822667"><ele>145.0</ele><time>2026-04-18T14:25:54.003Z</time></trkpt><trkpt lat="43.1008817" lon="11.4820683"><ele>145.0</ele><time>2026-04-18T14:25:55.002Z</time></trkpt><trkpt lat="43.1010383" lon="11.4818667"><ele>144.33333333333334</ele><time>2026-04-18T14:25:56.002Z</time></trkpt><trkpt lat="43.101195" lon="11.4816617"><ele>143.66666666666666</ele><time>2026-04-18T14:25:57.003Z</time></trkpt><trkpt lat="43.101335" lon="11.4814767"><ele>143.0</ele><time>2026-04-18T14:25:58.003Z</time></trkpt><trkpt lat="43.1014683" lon="11.4813033"><ele>143.33333333333331</ele><time>2026-04-18T14:25:59.002Z</time></trkpt><trkpt lat="43.101595" lon="11.4811383"><ele>143.66666666666666</ele><time>2026-04-18T14:26:00.003Z</time></trkpt><trkpt lat="43.101715" lon="11.4809933"><ele>144.0</ele><time>2026-04-18T14:26:01.002Z</time></trkpt><trkpt lat="43.101825" lon="11.4808683"><ele>144.0</ele><time>2026-04-18T14:26:02.002Z</time></trkpt><trkpt lat="43.1019367" lon="11.4807433"><ele>144.0</ele><time>2026-04-18T14:26:03.002Z</time></trkpt><trkpt lat="43.1020467" lon="11.480635"><ele>144.0</ele><time>2026-04-18T14:26:04.002Z</time></trkpt><trkpt lat="43.102165" lon="11.4805233"><ele>144.0</ele><time>2026-04-18T14:26:05.003Z</time></trkpt><trkpt lat="43.1022933" lon="11.4804267"><ele>144.33333333333334</ele><time>2026-04-18T14:26:06.002Z</time></trkpt><trkpt lat="43.1024317" lon="11.48032"><ele>144.66666666666669</ele><time>2026-04-18T14:26:07.002Z</time></trkpt><trkpt lat="43.1025767" lon="11.4802033"><ele>145.0</ele><time>2026-04-18T14:26:08.002Z</time></trkpt><trkpt lat="43.1027183" lon="11.4800933"><ele>145.0</ele><time>2026-04-18T14:26:09.002Z</time></trkpt><trkpt lat="43.1028667" lon="11.479975"><ele>145.0</ele><time>2026-04-18T14:26:10.003Z</time></trkpt><trkpt lat="43.1030133" lon="11.47985"><ele>145.0</ele><time>2026-04-18T14:26:11.002Z</time></trkpt><trkpt lat="43.1031717" lon="11.4797283"><ele>147.33333333333334</ele><time>2026-04-18T14:26:12.003Z</time></trkpt><trkpt lat="43.1033317" lon="11.4796133"><ele>149.66666666666666</ele><time>2026-04-18T14:26:13.002Z</time></trkpt><trkpt lat="43.1034967" lon="11.4795333"><ele>152.0</ele><time>2026-04-18T14:26:14.003Z</time></trkpt><trkpt lat="43.10367" lon="11.4794733"><ele>152.33333333333331</ele><time>2026-04-18T14:26:15.003Z</time></trkpt><trkpt lat="43.1038517" lon="11.4794217"><ele>152.66666666666666</ele><time>2026-04-18T14:26:16.002Z</time></trkpt><trkpt lat="43.1040467" lon="11.479405"><ele>153.0</ele><time>2026-04-18T14:26:17.002Z</time></trkpt><trkpt lat="43.1042367" lon="11.4794067"><ele>153.0</ele><time>2026-04-18T14:26:18.002Z</time></trkpt><trkpt lat="43.1044233" lon="11.4794017"><ele>153.0</ele><time>2026-04-18T14:26:19.002Z</time></trkpt><trkpt lat="43.1046117" lon="11.4793933"><ele>153.0</ele><time>2026-04-18T14:26:20.003Z</time></trkpt><trkpt lat="43.1048033" lon="11.479385"><ele>151.0</ele><time>2026-04-18T14:26:21.002Z</time></trkpt><trkpt lat="43.105005" lon="11.4793817"><ele>149.0</ele><time>2026-04-18T14:26:22.003Z</time></trkpt><trkpt lat="43.105205" lon="11.4793717"><ele>147.0</ele><time>2026-04-18T14:26:23.003Z</time></trkpt><trkpt lat="43.1054067" lon="11.4793667"><ele>147.0</ele><time>2026-04-18T14:26:24.002Z</time></trkpt><trkpt lat="43.105605" lon="11.4793583"><ele>147.0</ele><time>2026-04-18T14:26:25.002Z</time></trkpt><trkpt lat="43.105815" lon="11.4793533"><ele>147.0</ele><time>2026-04-18T14:26:26.003Z</time></trkpt><trkpt lat="43.106025" lon="11.4793483"><ele>145.0</ele><time>2026-04-18T14:26:27.003Z</time></trkpt><trkpt lat="43.106235" lon="11.4793367"><ele>143.0</ele><time>2026-04-18T14:26:28.002Z</time></trkpt><trkpt lat="43.1064433" lon="11.47933"><ele>141.0</ele><time>2026-04-18T14:26:29.003Z</time></trkpt><trkpt lat="43.10665" lon="11.4793217"><ele>139.66666666666666</ele><time>2026-04-18T14:26:30.002Z</time></trkpt><trkpt lat="43.10686" lon="11.4793083"><ele>138.33333333333331</ele><time>2026-04-18T14:26:31.003Z</time></trkpt><trkpt lat="43.107065" lon="11.479295"><ele>137.0</ele><time>2026-04-18T14:26:32.003Z</time></trkpt><trkpt lat="43.1072683" lon="11.4792817"><ele>137.33333333333331</ele><time>2026-04-18T14:26:33.002Z</time></trkpt><trkpt lat="43.1074767" lon="11.4792783"><ele>137.66666666666666</ele><time>2026-04-18T14:26:34.002Z</time></trkpt><trkpt lat="43.1076817" lon="11.4792683"><ele>138.0</ele><time>2026-04-18T14:26:35.002Z</time></trkpt><trkpt lat="43.1078867" lon="11.47926"><ele>138.0</ele><time>2026-04-18T14:26:36.002Z</time></trkpt><trkpt lat="43.1080917" lon="11.47926"><ele>138.0</ele><time>2026-04-18T14:26:37.002Z</time></trkpt><trkpt lat="43.1083017" lon="11.479265"><ele>138.0</ele><time>2026-04-18T14:26:38.003Z</time></trkpt><trkpt lat="43.1085133" lon="11.47927"><ele>139.0</ele><time>2026-04-18T14:26:39.003Z</time></trkpt><trkpt lat="43.1087233" lon="11.4792833"><ele>140.0</ele><time>2026-04-18T14:26:40.003Z</time></trkpt><trkpt lat="43.1089367" lon="11.479305"><ele>141.0</ele><time>2026-04-18T14:26:41.003Z</time></trkpt><trkpt lat="43.1091467" lon="11.4793267"><ele>142.66666666666666</ele><time>2026-04-18T14:26:42.002Z</time></trkpt><trkpt lat="43.1093617" lon="11.47934"><ele>144.33333333333331</ele><time>2026-04-18T14:26:43.002Z</time></trkpt><trkpt lat="43.1095783" lon="11.479355"><ele>146.0</ele><time>2026-04-18T14:26:44.002Z</time></trkpt><trkpt lat="43.1097867" lon="11.4793733"><ele>147.0</ele><time>2026-04-18T14:26:45.002Z</time></trkpt><trkpt lat="43.11" lon="11.47939"><ele>148.0</ele><time>2026-04-18T14:26:46.003Z</time></trkpt><trkpt lat="43.110215" lon="11.4794067"><ele>149.0</ele><time>2026-04-18T14:26:47.002Z</time></trkpt><trkpt lat="43.110425" lon="11.47942"><ele>149.0</ele><time>2026-04-18T14:26:48.002Z</time></trkpt><trkpt lat="43.11063" lon="11.4794317"><ele>149.0</ele><time>2026-04-18T14:26:49.002Z</time></trkpt><trkpt lat="43.1108167" lon="11.4794483"><ele>149.0</ele><time>2026-04-18T14:26:50.003Z</time></trkpt><trkpt lat="43.111" lon="11.4794667"><ele>150.0</ele><time>2026-04-18T14:26:51.002Z</time></trkpt><trkpt lat="43.1111833" lon="11.4794883"><ele>151.0</ele><time>2026-04-18T14:26:52.003Z</time></trkpt><trkpt lat="43.111365" lon="11.479525"><ele>152.0</ele><time>2026-04-18T14:26:53.002Z</time></trkpt><trkpt lat="43.1115483" lon="11.4795717"><ele>152.66666666666666</ele><time>2026-04-18T14:26:54.003Z</time></trkpt><trkpt lat="43.1117283" lon="11.4796367"><ele>153.33333333333334</ele><time>2026-04-18T14:26:55.002Z</time></trkpt><trkpt lat="43.11191" lon="11.4797083"><ele>154.0</ele><time>2026-04-18T14:26:56.002Z</time></trkpt><trkpt lat="43.1120917" lon="11.479785"><ele>154.0</ele><time>2026-04-18T14:26:57.002Z</time></trkpt><trkpt lat="43.11228" lon="11.4798583"><ele>154.0</ele><time>2026-04-18T14:26:58.002Z</time></trkpt><trkpt lat="43.1124683" lon="11.4799267"><ele>154.0</ele><time>2026-04-18T14:26:59.003Z</time></trkpt><trkpt lat="43.11266" lon="11.4799933"><ele>154.33333333333334</ele><time>2026-04-18T14:27:00.002Z</time></trkpt><trkpt lat="43.112845" lon="11.480055"><ele>154.66666666666666</ele><time>2026-04-18T14:27:01.002Z</time></trkpt><trkpt lat="43.113035" lon="11.4801133"><ele>155.0</ele><time>2026-04-18T14:27:02.002Z</time></trkpt><trkpt lat="43.11323" lon="11.4801667"><ele>156.66666666666666</ele><time>2026-04-18T14:27:03.002Z</time></trkpt><trkpt lat="43.1134233" lon="11.480205"><ele>158.33333333333334</ele><time>2026-04-18T14:27:04.003Z</time></trkpt><trkpt lat="43.1136133" lon="11.4802383"><ele>160.0</ele><time>2026-04-18T14:27:05.003Z</time></trkpt><trkpt lat="43.1138133" lon="11.48026"><ele>160.0</ele><time>2026-04-18T14:27:06.003Z</time></trkpt><trkpt lat="43.1140017" lon="11.48029"><ele>160.0</ele><time>2026-04-18T14:27:07.002Z</time></trkpt><trkpt lat="43.11419" lon="11.480325"><ele>160.0</ele><time>2026-04-18T14:27:08.002Z</time></trkpt><trkpt lat="43.114385" lon="11.4803517"><ele>161.66666666666669</ele><time>2026-04-18T14:27:09.002Z</time></trkpt><trkpt lat="43.11458" lon="11.4803817"><ele>163.33333333333334</ele><time>2026-04-18T14:27:10.002Z</time></trkpt><trkpt lat="43.1147517" lon="11.4804183"><ele>165.0</ele><time>2026-04-18T14:27:11.003Z</time></trkpt><trkpt lat="43.1149217" lon="11.480455"><ele>165.0</ele><time>2026-04-18T14:27:12.002Z</time></trkpt><trkpt lat="43.1150917" lon="11.4804817"><ele>165.0</ele><time>2026-04-18T14:27:13.003Z</time></trkpt><trkpt lat="43.115255" lon="11.4805267"><ele>165.0</ele><time>2026-04-18T14:27:14.002Z</time></trkpt><trkpt lat="43.1154267" lon="11.4805783"><ele>165.0</ele><time>2026-04-18T14:27:15.002Z</time></trkpt><trkpt lat="43.1155933" lon="11.4806433"><ele>165.0</ele><time>2026-04-18T14:27:16.002Z</time></trkpt><trkpt lat="43.1157533" lon="11.4807283"><ele>165.0</ele><time>2026-04-18T14:27:17.002Z</time></trkpt><trkpt lat="43.1159167" lon="11.4808017"><ele>164.0</ele><time>2026-04-18T14:27:18.002Z</time></trkpt><trkpt lat="43.11608" lon="11.4808767"><ele>163.0</ele><time>2026-04-18T14:27:19.002Z</time></trkpt><trkpt lat="43.1162417" lon="11.480955"><ele>162.0</ele><time>2026-04-18T14:27:20.002Z</time></trkpt><trkpt lat="43.1164067" lon="11.4810267"><ele>161.33333333333334</ele><time>2026-04-18T14:27:21.003Z</time></trkpt><trkpt lat="43.1165733" lon="11.4810983"><ele>160.66666666666669</ele><time>2026-04-18T14:27:22.002Z</time></trkpt><trkpt lat="43.1167383" lon="11.48117"><ele>160.0</ele><time>2026-04-18T14:27:23.002Z</time></trkpt><trkpt lat="43.1169017" lon="11.481245"><ele>159.0</ele><time>2026-04-18T14:27:24.001Z</time></trkpt><trkpt lat="43.1170567" lon="11.4813233"><ele>158.0</ele><time>2026-04-18T14:27:25.001Z</time></trkpt><trkpt lat="43.1172183" lon="11.481385"><ele>157.0</ele><time>2026-04-18T14:27:26.002Z</time></trkpt><trkpt lat="43.1173767" lon="11.4814533"><ele>153.33333333333334</ele><time>2026-04-18T14:27:27.001Z</time></trkpt><trkpt lat="43.1175283" lon="11.4815217"><ele>149.66666666666666</ele><time>2026-04-18T14:27:28.001Z</time></trkpt><trkpt lat="43.11768" lon="11.4815917"><ele>146.0</ele><time>2026-04-18T14:27:29.002Z</time></trkpt><trkpt lat="43.11784" lon="11.4816617"><ele>146.0</ele><time>2026-04-18T14:27:30.001Z</time></trkpt><trkpt lat="43.117995" lon="11.4817317"><ele>146.0</ele><time>2026-04-18T14:27:31.002Z</time></trkpt><trkpt lat="43.1181383" lon="11.48179"><ele>146.0</ele><time>2026-04-18T14:27:32.001Z</time></trkpt><trkpt lat="43.118275" lon="11.481855"><ele>145.0</ele><time>2026-04-18T14:27:33.002Z</time></trkpt><trkpt lat="43.11841" lon="11.48192"><ele>144.0</ele><time>2026-04-18T14:27:34.002Z</time></trkpt><trkpt lat="43.1185283" lon="11.482"><ele>143.0</ele><time>2026-04-18T14:27:35.001Z</time></trkpt><trkpt lat="43.1186333" lon="11.4820967"><ele>142.0</ele><time>2026-04-18T14:27:36.001Z</time></trkpt><trkpt lat="43.1187267" lon="11.48222"><ele>141.75</ele><time>2026-04-18T14:27:37.001Z</time></trkpt><trkpt lat="43.1187983" lon="11.4823583"><ele>141.5</ele><time>2026-04-18T14:27:38.002Z</time></trkpt><trkpt lat="43.1188567" lon="11.4825033"><ele>141.25</ele><time>2026-04-18T14:27:39.002Z</time></trkpt><trkpt lat="43.1188917" lon="11.4826583"><ele>141.0</ele><time>2026-04-18T14:27:40.002Z</time></trkpt><trkpt lat="43.1189083" lon="11.4828133"><ele>141.4</ele><time>2026-04-18T14:27:41.001Z</time></trkpt><trkpt lat="43.1189017" lon="11.4829617"><ele>141.8</ele><time>2026-04-18T14:27:42.001Z</time></trkpt><trkpt lat="43.1188867" lon="11.483105"><ele>142.20000000000002</ele><time>2026-04-18T14:27:43.001Z</time></trkpt><trkpt lat="43.118875" lon="11.48322"><ele>142.6</ele><time>2026-04-18T14:27:44.002Z</time></trkpt><trkpt lat="43.1188617" lon="11.4833167"><ele>143.0</ele><time>2026-04-18T14:27:45.001Z</time></trkpt><trkpt lat="43.11889" lon="11.4834633"><ele>143.0</ele><time>2026-04-18T14:27:47.001Z</time></trkpt><trkpt lat="43.1189717" lon="11.4835617"><ele>143.0</ele><time>2026-04-18T14:27:49.001Z</time></trkpt><trkpt lat="43.1190383" lon="11.4835917"><ele>143.0</ele><time>2026-04-18T14:27:50.002Z</time></trkpt><trkpt lat="43.1191267" lon="11.4835933"><ele>143.0</ele><time>2026-04-18T14:27:51.002Z</time></trkpt><trkpt lat="43.1192333" lon="11.4835717"><ele>143.0</ele><time>2026-04-18T14:27:52.001Z</time></trkpt><trkpt lat="43.1193567" lon="11.4835483"><ele>142.75</ele><time>2026-04-18T14:27:53.001Z</time></trkpt><trkpt lat="43.119485" lon="11.4835217"><ele>142.5</ele><time>2026-04-18T14:27:54.001Z</time></trkpt><trkpt lat="43.1196133" lon="11.4834917"><ele>142.25</ele><time>2026-04-18T14:27:55.002Z</time></trkpt><trkpt lat="43.119735" lon="11.4834633"><ele>142.0</ele><time>2026-04-18T14:27:56.001Z</time></trkpt><trkpt lat="43.1198583" lon="11.4834433"><ele>142.0</ele><time>2026-04-18T14:27:57.001Z</time></trkpt><trkpt lat="43.11998" lon="11.4834267"><ele>142.0</ele><time>2026-04-18T14:27:58.002Z</time></trkpt><trkpt lat="43.1201067" lon="11.4834083"><ele>142.0</ele><time>2026-04-18T14:27:59.001Z</time></trkpt><trkpt lat="43.12024" lon="11.4833867"><ele>142.0</ele><time>2026-04-18T14:28:00.001Z</time></trkpt><trkpt lat="43.1203683" lon="11.4833833"><ele>142.0</ele><time>2026-04-18T14:28:01.001Z</time></trkpt><trkpt lat="43.1204983" lon="11.4833767"><ele>142.0</ele><time>2026-04-18T14:28:02.001Z</time></trkpt><trkpt lat="43.1206267" lon="11.4833567"><ele>142.0</ele><time>2026-04-18T14:28:03.002Z</time></trkpt><trkpt lat="43.1207583" lon="11.4833433"><ele>142.0</ele><time>2026-04-18T14:28:04.001Z</time></trkpt><trkpt lat="43.12089" lon="11.4833233"><ele>142.25</ele><time>2026-04-18T14:28:05.001Z</time></trkpt><trkpt lat="43.1210183" lon="11.48332"><ele>142.5</ele><time>2026-04-18T14:28:06.002Z</time></trkpt><trkpt lat="43.1211383" lon="11.4833117"><ele>142.75</ele><time>2026-04-18T14:28:07.002Z</time></trkpt><trkpt lat="43.12126" lon="11.483305"><ele>143.0</ele><time>2026-04-18T14:28:08.001Z</time></trkpt><trkpt lat="43.1213783" lon="11.4832967"><ele>143.0</ele><time>2026-04-18T14:28:09.002Z</time></trkpt><trkpt lat="43.1215" lon="11.48329"><ele>143.0</ele><time>2026-04-18T14:28:10.002Z</time></trkpt><trkpt lat="43.1216267" lon="11.48328"><ele>143.0</ele><time>2026-04-18T14:28:11.001Z</time></trkpt><trkpt lat="43.12175" lon="11.4832633"><ele>143.0</ele><time>2026-04-18T14:28:12.002Z</time></trkpt><trkpt lat="43.1218667" lon="11.4832517"><ele>143.25</ele><time>2026-04-18T14:28:13.001Z</time></trkpt><trkpt lat="43.1219867" lon="11.4832417"><ele>143.5</ele><time>2026-04-18T14:28:14.001Z</time></trkpt><trkpt lat="43.1221033" lon="11.483235"><ele>143.75</ele><time>2026-04-18T14:28:15.001Z</time></trkpt><trkpt lat="43.1222267" lon="11.4832333"><ele>144.0</ele><time>2026-04-18T14:28:16.001Z</time></trkpt><trkpt lat="43.1223467" lon="11.483225"><ele>144.75</ele><time>2026-04-18T14:28:17.002Z</time></trkpt><trkpt lat="43.1224667" lon="11.48321"><ele>145.5</ele><time>2026-04-18T14:28:18.001Z</time></trkpt><trkpt lat="43.1225867" lon="11.4831967"><ele>146.25</ele><time>2026-04-18T14:28:19.001Z</time></trkpt><trkpt lat="43.1227117" lon="11.48319"><ele>147.0</ele><time>2026-04-18T14:28:20.001Z</time></trkpt><trkpt lat="43.1228317" lon="11.4831783"><ele>147.0</ele><time>2026-04-18T14:28:21.001Z</time></trkpt><trkpt lat="43.12296" lon="11.4831683"><ele>147.0</ele><time>2026-04-18T14:28:22.001Z</time></trkpt><trkpt lat="43.1230883" lon="11.4831517"><ele>147.0</ele><time>2026-04-18T14:28:23.002Z</time></trkpt><trkpt lat="43.1232217" lon="11.4831367"><ele>147.0</ele><time>2026-04-18T14:28:24.002Z</time></trkpt><trkpt lat="43.123355" lon="11.4831233"><ele>146.5</ele><time>2026-04-18T14:28:25.002Z</time></trkpt><trkpt lat="43.1234883" lon="11.48311"><ele>146.0</ele><time>2026-04-18T14:28:26.001Z</time></trkpt><trkpt lat="43.1236233" lon="11.4830917"><ele>145.5</ele><time>2026-04-18T14:28:27.001Z</time></trkpt><trkpt lat="43.1237567" lon="11.48308"><ele>145.0</ele><time>2026-04-18T14:28:28.001Z</time></trkpt><trkpt lat="43.1238933" lon="11.48307"><ele>145.0</ele><time>2026-04-18T14:28:29.002Z</time></trkpt><trkpt lat="43.1240267" lon="11.48306"><ele>145.0</ele><time>2026-04-18T14:28:30.001Z</time></trkpt><trkpt lat="43.12416" lon="11.4830483"><ele>145.0</ele><time>2026-04-18T14:28:31.001Z</time></trkpt><trkpt lat="43.1242967" lon="11.4830417"><ele>145.0</ele><time>2026-04-18T14:28:32.001Z</time></trkpt><trkpt lat="43.1244317" lon="11.48303"><ele>144.5</ele><time>2026-04-18T14:28:33.002Z</time></trkpt><trkpt lat="43.1245683" lon="11.4830133"><ele>144.0</ele><time>2026-04-18T14:28:34.002Z</time></trkpt><trkpt lat="43.1247" lon="11.4830017"><ele>143.5</ele><time>2026-04-18T14:28:35.002Z</time></trkpt><trkpt lat="43.1248333" lon="11.4829933"><ele>143.0</ele><time>2026-04-18T14:28:36.001Z</time></trkpt><trkpt lat="43.1249683" lon="11.4829783"><ele>143.0</ele><time>2026-04-18T14:28:37.002Z</time></trkpt><trkpt lat="43.1251067" lon="11.4829667"><ele>143.0</ele><time>2026-04-18T14:28:38.002Z</time></trkpt><trkpt lat="43.1252433" lon="11.482955"><ele>143.0</ele><time>2026-04-18T14:28:39.002Z</time></trkpt><trkpt lat="43.1253783" lon="11.482945"><ele>143.0</ele><time>2026-04-18T14:28:40.002Z</time></trkpt><trkpt lat="43.125515" lon="11.4829317"><ele>142.75</ele><time>2026-04-18T14:28:41.001Z</time></trkpt><trkpt lat="43.1256467" lon="11.4829233"><ele>142.5</ele><time>2026-04-18T14:28:42.002Z</time></trkpt><trkpt lat="43.125775" lon="11.4829117"><ele>142.25</ele><time>2026-04-18T14:28:43.001Z</time></trkpt><trkpt lat="43.1259067" lon="11.4829"><ele>142.0</ele><time>2026-04-18T14:28:44.001Z</time></trkpt><trkpt lat="43.1260383" lon="11.4828933"><ele>142.0</ele><time>2026-04-18T14:28:45.001Z</time></trkpt><trkpt lat="43.1261733" lon="11.482885"><ele>142.0</ele><time>2026-04-18T14:28:46.001Z</time></trkpt><trkpt lat="43.1263033" lon="11.4828667"><ele>142.0</ele><time>2026-04-18T14:28:47.001Z</time></trkpt><trkpt lat="43.1264367" lon="11.4828483"><ele>142.0</ele><time>2026-04-18T14:28:48.001Z</time></trkpt><trkpt lat="43.12657" lon="11.4828417"><ele>142.5</ele><time>2026-04-18T14:28:49.001Z</time></trkpt><trkpt lat="43.1267017" lon="11.4828317"><ele>143.0</ele><time>2026-04-18T14:28:50.001Z</time></trkpt><trkpt lat="43.1268367" lon="11.4828217"><ele>143.5</ele><time>2026-04-18T14:28:51.002Z</time></trkpt><trkpt lat="43.1269667" lon="11.4828167"><ele>144.0</ele><time>2026-04-18T14:28:52.001Z</time></trkpt><trkpt lat="43.1271" lon="11.4828133"><ele>144.0</ele><time>2026-04-18T14:28:53.001Z</time></trkpt><trkpt lat="43.12723" lon="11.4828033"><ele>144.0</ele><time>2026-04-18T14:28:54.002Z</time></trkpt><trkpt lat="43.12736" lon="11.4827867"><ele>144.0</ele><time>2026-04-18T14:28:55.001Z</time></trkpt><trkpt lat="43.1274933" lon="11.48277"><ele>144.0</ele><time>2026-04-18T14:28:56.002Z</time></trkpt><trkpt lat="43.1276217" lon="11.4827583"><ele>144.25</ele><time>2026-04-18T14:28:57.001Z</time></trkpt><trkpt lat="43.1277533" lon="11.4827433"><ele>144.5</ele><time>2026-04-18T14:28:58.001Z</time></trkpt><trkpt lat="43.1278833" lon="11.482735"><ele>144.75</ele><time>2026-04-18T14:28:59.002Z</time></trkpt><trkpt lat="43.1280133" lon="11.4827233"><ele>145.0</ele><time>2026-04-18T14:29:00.002Z</time></trkpt><trkpt lat="43.12814" lon="11.4827183"><ele>145.0</ele><time>2026-04-18T14:29:01.002Z</time></trkpt><trkpt lat="43.1282733" lon="11.4827083"><ele>145.0</ele><time>2026-04-18T14:29:02.001Z</time></trkpt><trkpt lat="43.12841" lon="11.48269"><ele>145.0</ele><time>2026-04-18T14:29:03.001Z</time></trkpt><trkpt lat="43.1285467" lon="11.48267"><ele>145.0</ele><time>2026-04-18T14:29:04.001Z</time></trkpt><trkpt lat="43.12868" lon="11.4826567"><ele>145.0</ele><time>2026-04-18T14:29:05.002Z</time></trkpt><trkpt lat="43.1288133" lon="11.4826483"><ele>145.0</ele><time>2026-04-18T14:29:06.001Z</time></trkpt><trkpt lat="43.1289517" lon="11.48264"><ele>145.0</ele><time>2026-04-18T14:29:07.001Z</time></trkpt><trkpt lat="43.1290883" lon="11.4826267"><ele>145.0</ele><time>2026-04-18T14:29:08.001Z</time></trkpt><trkpt lat="43.129225" lon="11.4826117"><ele>144.75</ele><time>2026-04-18T14:29:09.002Z</time></trkpt><trkpt lat="43.1293567" lon="11.4825933"><ele>144.5</ele><time>2026-04-18T14:29:10.001Z</time></trkpt><trkpt lat="43.1294833" lon="11.482585"><ele>144.25</ele><time>2026-04-18T14:29:11.001Z</time></trkpt><trkpt lat="43.1296167" lon="11.4825767"><ele>144.0</ele><time>2026-04-18T14:29:12.002Z</time></trkpt><trkpt lat="43.129755" lon="11.4825617"><ele>144.0</ele><time>2026-04-18T14:29:13.001Z</time></trkpt><trkpt lat="43.1298883" lon="11.4825567"><ele>144.0</ele><time>2026-04-18T14:29:14.001Z</time></trkpt><trkpt lat="43.13002" lon="11.4825433"><ele>144.0</ele><time>2026-04-18T14:29:15.002Z</time></trkpt><trkpt lat="43.13015" lon="11.4825317"><ele>144.0</ele><time>2026-04-18T14:29:16.002Z</time></trkpt><trkpt lat="43.130285" lon="11.4825217"><ele>143.5</ele><time>2026-04-18T14:29:17.001Z</time></trkpt><trkpt lat="43.1304167" lon="11.482515"><ele>143.0</ele><time>2026-04-18T14:29:18.002Z</time></trkpt><trkpt lat="43.13055" lon="11.4825017"><ele>142.5</ele><time>2026-04-18T14:29:19.001Z</time></trkpt><trkpt lat="43.1306783" lon="11.48249"><ele>142.0</ele><time>2026-04-18T14:29:20.002Z</time></trkpt><trkpt lat="43.13081" lon="11.48248"><ele>141.75</ele><time>2026-04-18T14:29:21.002Z</time></trkpt><trkpt lat="43.1309417" lon="11.4824717"><ele>141.5</ele><time>2026-04-18T14:29:22.001Z</time></trkpt><trkpt lat="43.13107" lon="11.4824517"><ele>141.25</ele><time>2026-04-18T14:29:23.001Z</time></trkpt><trkpt lat="43.1312" lon="11.4824367"><ele>141.0</ele><time>2026-04-18T14:29:24.001Z</time></trkpt><trkpt lat="43.1313283" lon="11.4824183"><ele>141.0</ele><time>2026-04-18T14:29:25.001Z</time></trkpt><trkpt lat="43.13147" lon="11.482405"><ele>141.0</ele><time>2026-04-18T14:29:26.002Z</time></trkpt><trkpt lat="43.1316083" lon="11.4824017"><ele>141.0</ele><time>2026-04-18T14:29:27.001Z</time></trkpt><trkpt lat="43.13174" lon="11.482405"><ele>141.0</ele><time>2026-04-18T14:29:28.002Z</time></trkpt><trkpt lat="43.13187" lon="11.4824117"><ele>141.75</ele><time>2026-04-18T14:29:29.001Z</time></trkpt><trkpt lat="43.1319983" lon="11.48243"><ele>142.5</ele><time>2026-04-18T14:29:30.002Z</time></trkpt><trkpt lat="43.1321183" lon="11.482455"><ele>143.25</ele><time>2026-04-18T14:29:31.002Z</time></trkpt><trkpt lat="43.132235" lon="11.482495"><ele>144.0</ele><time>2026-04-18T14:29:32.001Z</time></trkpt><trkpt lat="43.1323533" lon="11.4825417"><ele>143.75</ele><time>2026-04-18T14:29:33.002Z</time></trkpt><trkpt lat="43.1324767" lon="11.4825817"><ele>143.5</ele><time>2026-04-18T14:29:34.001Z</time></trkpt><trkpt lat="43.13259" lon="11.4826333"><ele>143.25</ele><time>2026-04-18T14:29:35.002Z</time></trkpt><trkpt lat="43.1327017" lon="11.4826817"><ele>143.0</ele><time>2026-04-18T14:29:36.002Z</time></trkpt><trkpt lat="43.1328233" lon="11.4827283"><ele>143.0</ele><time>2026-04-18T14:29:37.001Z</time></trkpt><trkpt lat="43.13295" lon="11.482765"><ele>143.0</ele><time>2026-04-18T14:29:38.002Z</time></trkpt><trkpt lat="43.13308" lon="11.482805"><ele>143.0</ele><time>2026-04-18T14:29:39.001Z</time></trkpt><trkpt lat="43.13321" lon="11.4828533"><ele>143.0</ele><time>2026-04-18T14:29:40.001Z</time></trkpt><trkpt lat="43.1333367" lon="11.4829017"><ele>143.5</ele><time>2026-04-18T14:29:41.001Z</time></trkpt><trkpt lat="43.13347" lon="11.482935"><ele>144.0</ele><time>2026-04-18T14:29:42.001Z</time></trkpt><trkpt lat="43.13359" lon="11.48299"><ele>144.5</ele><time>2026-04-18T14:29:43.002Z</time></trkpt><trkpt lat="43.13371" lon="11.48303"><ele>145.0</ele><time>2026-04-18T14:29:44.002Z</time></trkpt><trkpt lat="43.13383" lon="11.483065"><ele>145.0</ele><time>2026-04-18T14:29:45.002Z</time></trkpt><trkpt lat="43.1339483" lon="11.4830967"><ele>145.0</ele><time>2026-04-18T14:29:46.001Z</time></trkpt><trkpt lat="43.1340717" lon="11.4831217"><ele>145.0</ele><time>2026-04-18T14:29:47.002Z</time></trkpt><trkpt lat="43.1341917" lon="11.4831467"><ele>145.0</ele><time>2026-04-18T14:29:48.002Z</time></trkpt><trkpt lat="43.134305" lon="11.48317"><ele>145.0</ele><time>2026-04-18T14:29:49.002Z</time></trkpt><trkpt lat="43.134415" lon="11.483185"><ele>145.0</ele><time>2026-04-18T14:29:50.002Z</time></trkpt><trkpt lat="43.13452" lon="11.483215"><ele>145.0</ele><time>2026-04-18T14:29:51.001Z</time></trkpt><trkpt lat="43.1346233" lon="11.4832367"><ele>145.0</ele><time>2026-04-18T14:29:52.001Z</time></trkpt><trkpt lat="43.1347267" lon="11.4832583"><ele>145.0</ele><time>2026-04-18T14:29:53.002Z</time></trkpt><trkpt lat="43.134825" lon="11.48328"><ele>145.16666666666669</ele><time>2026-04-18T14:29:54.001Z</time></trkpt><trkpt lat="43.1349217" lon="11.4832933"><ele>145.33333333333334</ele><time>2026-04-18T14:29:55.001Z</time></trkpt><trkpt lat="43.135015" lon="11.4832983"><ele>145.5</ele><time>2026-04-18T14:29:56.002Z</time></trkpt><trkpt lat="43.1351067" lon="11.4833033"><ele>145.66666666666666</ele><time>2026-04-18T14:29:57.001Z</time></trkpt><trkpt lat="43.1351867" lon="11.4833167"><ele>145.83333333333331</ele><time>2026-04-18T14:29:58.001Z</time></trkpt><trkpt lat="43.13527" lon="11.4833383"><ele>146.0</ele><time>2026-04-18T14:29:59.001Z</time></trkpt><trkpt lat="43.1353533" lon="11.4833633"><ele>146.0</ele><time>2026-04-18T14:30:00.001Z</time></trkpt><trkpt lat="43.1354283" lon="11.4833933"><ele>146.0</ele><time>2026-04-18T14:30:01.001Z</time></trkpt><trkpt lat="43.1355233" lon="11.4834133"><ele>146.0</ele><time>2026-04-18T14:30:02.001Z</time></trkpt><trkpt lat="43.1356283" lon="11.48342"><ele>146.0</ele><time>2026-04-18T14:30:03.001Z</time></trkpt><trkpt lat="43.1357467" lon="11.4834333"><ele>146.0</ele><time>2026-04-18T14:30:04.001Z</time></trkpt><trkpt lat="43.135865" lon="11.483435"><ele>146.0</ele><time>2026-04-18T14:30:05.002Z</time></trkpt><trkpt lat="43.1359883" lon="11.48344"><ele>146.0</ele><time>2026-04-18T14:30:06.002Z</time></trkpt><trkpt lat="43.1361083" lon="11.48344"><ele>146.0</ele><time>2026-04-18T14:30:07.001Z</time></trkpt><trkpt lat="43.136225" lon="11.4834383"><ele>146.0</ele><time>2026-04-18T14:30:08.001Z</time></trkpt><trkpt lat="43.1363467" lon="11.48344"><ele>146.0</ele><time>2026-04-18T14:30:09.002Z</time></trkpt><trkpt lat="43.1364683" lon="11.4834383"><ele>146.0</ele><time>2026-04-18T14:30:10.001Z</time></trkpt><trkpt lat="43.13657" lon="11.4834333"><ele>146.0</ele><time>2026-04-18T14:30:11.002Z</time></trkpt><trkpt lat="43.1366617" lon="11.4834317"><ele>146.0</ele><time>2026-04-18T14:30:12.002Z</time></trkpt><trkpt lat="43.13675" lon="11.4834283"><ele>146.0</ele><time>2026-04-18T14:30:13.001Z</time></trkpt><trkpt lat="43.1368317" lon="11.4834383"><ele>146.0</ele><time>2026-04-18T14:30:14.001Z</time></trkpt><trkpt lat="43.1369067" lon="11.4834417"><ele>146.0</ele><time>2026-04-18T14:30:15.001Z</time></trkpt><trkpt lat="43.1369817" lon="11.4834467"><ele>146.0</ele><time>2026-04-18T14:30:16.001Z</time></trkpt><trkpt lat="43.137055" lon="11.4834433"><ele>146.0</ele><time>2026-04-18T14:30:17.002Z</time></trkpt><trkpt lat="43.137115" lon="11.4834133"><ele>146.0</ele><time>2026-04-18T14:30:18.001Z</time></trkpt><trkpt lat="43.137185" lon="11.4834167"><ele>146.0</ele><time>2026-04-18T14:30:19.001Z</time></trkpt><trkpt lat="43.13726" lon="11.4834083"><ele>146.0</ele><time>2026-04-18T14:30:20.001Z</time></trkpt><trkpt lat="43.1373317" lon="11.4834"><ele>146.16666666666666</ele><time>2026-04-18T14:30:21.001Z</time></trkpt><trkpt lat="43.1373967" lon="11.4833933"><ele>146.33333333333331</ele><time>2026-04-18T14:30:22.001Z</time></trkpt><trkpt lat="43.1374617" lon="11.4833867"><ele>146.5</ele><time>2026-04-18T14:30:23.001Z</time></trkpt><trkpt lat="43.1375717" lon="11.4833817"><ele>146.66666666666666</ele><time>2026-04-18T14:30:25.001Z</time></trkpt><trkpt lat="43.1376467" lon="11.48341"><ele>146.83333333333334</ele><time>2026-04-18T14:30:27.001Z</time></trkpt><trkpt lat="43.1376617" lon="11.4835067"><ele>147.0</ele><time>2026-04-18T14:30:29.001Z</time></trkpt><trkpt lat="43.1376617" lon="11.4836517"><ele>147.0</ele><time>2026-04-18T14:30:31.001Z</time></trkpt><trkpt lat="43.1376583" lon="11.4837483"><ele>147.0</ele><time>2026-04-18T14:30:32.001Z</time></trkpt><trkpt lat="43.1376583" lon="11.4838633"><ele>147.0</ele><time>2026-04-18T14:30:33.001Z</time></trkpt><trkpt lat="43.1376683" lon="11.484"><ele>147.0</ele><time>2026-04-18T14:30:34.001Z</time></trkpt><trkpt lat="43.1376817" lon="11.4841317"><ele>147.0</ele><time>2026-04-18T14:30:35.002Z</time></trkpt><trkpt lat="43.1376817" lon="11.484275"><ele>147.0</ele><time>2026-04-18T14:30:36.001Z</time></trkpt><trkpt lat="43.1376833" lon="11.484425"><ele>147.0</ele><time>2026-04-18T14:30:37.001Z</time></trkpt><trkpt lat="43.13767" lon="11.4845717"><ele>147.0</ele><time>2026-04-18T14:30:38.001Z</time></trkpt><trkpt lat="43.13767" lon="11.48472"><ele>147.0</ele><time>2026-04-18T14:30:39.002Z</time></trkpt><trkpt lat="43.1376667" lon="11.4848617"><ele>147.0</ele><time>2026-04-18T14:30:40.002Z</time></trkpt><trkpt lat="43.1376583" lon="11.484995"><ele>147.16666666666666</ele><time>2026-04-18T14:30:41.001Z</time></trkpt><trkpt lat="43.1376633" lon="11.485125"><ele>147.33333333333334</ele><time>2026-04-18T14:30:42.001Z</time></trkpt><trkpt lat="43.1376633" lon="11.4852583"><ele>147.5</ele><time>2026-04-18T14:30:43.001Z</time></trkpt><trkpt lat="43.1376717" lon="11.48537"><ele>147.66666666666669</ele><time>2026-04-18T14:30:44.001Z</time></trkpt><trkpt lat="43.137665" lon="11.4854733"><ele>147.83333333333334</ele><time>2026-04-18T14:30:45.001Z</time></trkpt><trkpt lat="43.1376617" lon="11.4855717"><ele>148.0</ele><time>2026-04-18T14:30:46.002Z</time></trkpt><trkpt lat="43.13766" lon="11.48571"><ele>148.0</ele><time>2026-04-18T14:30:48.002Z</time></trkpt><trkpt lat="43.1376617" lon="11.4858017"><ele>148.0</ele><time>2026-04-18T14:30:50.002Z</time></trkpt><trkpt lat="43.137665" lon="11.485965"><ele>148.0</ele><time>2026-04-18T14:30:52.001Z</time></trkpt><trkpt lat="43.1376633" lon="11.4860917"><ele>148.0</ele><time>2026-04-18T14:30:53.001Z</time></trkpt><trkpt lat="43.1376667" lon="11.4862383"><ele>148.0</ele><time>2026-04-18T14:30:54.002Z</time></trkpt><trkpt lat="43.1376583" lon="11.4863983"><ele>148.0</ele><time>2026-04-18T14:30:55.001Z</time></trkpt><trkpt lat="43.1376633" lon="11.4865717"><ele>148.0</ele><time>2026-04-18T14:30:56.002Z</time></trkpt><trkpt lat="43.13767" lon="11.4867417"><ele>148.0</ele><time>2026-04-18T14:30:57.002Z</time></trkpt><trkpt lat="43.1376717" lon="11.4869183"><ele>148.0</ele><time>2026-04-18T14:30:58.002Z</time></trkpt><trkpt lat="43.1376733" lon="11.4870883"><ele>148.75</ele><time>2026-04-18T14:30:59.002Z</time></trkpt><trkpt lat="43.137675" lon="11.4872667"><ele>149.5</ele><time>2026-04-18T14:31:00.001Z</time></trkpt><trkpt lat="43.1376667" lon="11.4874533"><ele>150.25</ele><time>2026-04-18T14:31:01.002Z</time></trkpt><trkpt lat="43.1376617" lon="11.4876367"><ele>151.0</ele><time>2026-04-18T14:31:02.001Z</time></trkpt><trkpt lat="43.1376633" lon="11.4878117"><ele>152.0</ele><time>2026-04-18T14:31:03.002Z</time></trkpt><trkpt lat="43.13766" lon="11.4879783"><ele>153.0</ele><time>2026-04-18T14:31:04.002Z</time></trkpt><trkpt lat="43.1376617" lon="11.488155"><ele>154.0</ele><time>2026-04-18T14:31:05.002Z</time></trkpt><trkpt lat="43.137665" lon="11.4883283"><ele>155.0</ele><time>2026-04-18T14:31:06.001Z</time></trkpt><trkpt lat="43.1376733" lon="11.4884933"><ele>155.0</ele><time>2026-04-18T14:31:07.001Z</time></trkpt><trkpt lat="43.137675" lon="11.4886617"><ele>155.0</ele><time>2026-04-18T14:31:08.001Z</time></trkpt><trkpt lat="43.1376833" lon="11.4888367"><ele>155.0</ele><time>2026-04-18T14:31:09.002Z</time></trkpt><trkpt lat="43.1376933" lon="11.4890133"><ele>155.0</ele><time>2026-04-18T14:31:10.001Z</time></trkpt><trkpt lat="43.1376983" lon="11.489195"><ele>158.33333333333331</ele><time>2026-04-18T14:31:11.002Z</time></trkpt><trkpt lat="43.137705" lon="11.489385"><ele>161.66666666666666</ele><time>2026-04-18T14:31:12.001Z</time></trkpt><trkpt lat="43.1377283" lon="11.4897683"><ele>165.0</ele><time>2026-04-18T14:31:14.002Z</time></trkpt><trkpt lat="43.1377417" lon="11.4899633"><ele>168.0</ele><time>2026-04-18T14:31:15.002Z</time></trkpt><trkpt lat="43.1377583" lon="11.490155"><ele>171.0</ele><time>2026-04-18T14:31:16.001Z</time></trkpt><trkpt lat="43.1377733" lon="11.490345"><ele>174.0</ele><time>2026-04-18T14:31:17.002Z</time></trkpt><trkpt lat="43.1377833" lon="11.4905167"><ele>177.0</ele><time>2026-04-18T14:31:18.001Z</time></trkpt><trkpt lat="43.1377983" lon="11.49066"><ele>177.2</ele><time>2026-04-18T14:31:19.001Z</time></trkpt><trkpt lat="43.1377967" lon="11.4907883"><ele>177.39999999999998</ele><time>2026-04-18T14:31:20.002Z</time></trkpt><trkpt lat="43.137785" lon="11.4909183"><ele>177.60000000000002</ele><time>2026-04-18T14:31:21.002Z</time></trkpt><trkpt lat="43.137765" lon="11.4910733"><ele>177.8</ele><time>2026-04-18T14:31:22.001Z</time></trkpt><trkpt lat="43.1377417" lon="11.4912333"><ele>178.0</ele><time>2026-04-18T14:31:23.001Z</time></trkpt><trkpt lat="43.1377267" lon="11.4914067"><ele>178.0</ele><time>2026-04-18T14:31:24.001Z</time></trkpt><trkpt lat="43.137705" lon="11.491595"><ele>178.0</ele><time>2026-04-18T14:31:25.002Z</time></trkpt><trkpt lat="43.1376783" lon="11.4917867"><ele>178.0</ele><time>2026-04-18T14:31:26.001Z</time></trkpt><trkpt lat="43.1376517" lon="11.49199"><ele>178.0</ele><time>2026-04-18T14:31:27.001Z</time></trkpt><trkpt lat="43.1376283" lon="11.4921933"><ele>175.66666666666669</ele><time>2026-04-18T14:31:28.001Z</time></trkpt><trkpt lat="43.1376017" lon="11.492395"><ele>173.33333333333334</ele><time>2026-04-18T14:31:29.002Z</time></trkpt><trkpt lat="43.1375767" lon="11.4926067"><ele>171.0</ele><time>2026-04-18T14:31:30.001Z</time></trkpt><trkpt lat="43.1375517" lon="11.4928117"><ele>170.33333333333334</ele><time>2026-04-18T14:31:31Z</time></trkpt><trkpt lat="43.1375267" lon="11.4930267"><ele>169.66666666666669</ele><time>2026-04-18T14:31:32Z</time></trkpt><trkpt lat="43.1375017" lon="11.4932383"><ele>169.0</ele><time>2026-04-18T14:31:33Z</time></trkpt><trkpt lat="43.1374783" lon="11.49345"><ele>169.0</ele><time>2026-04-18T14:31:34Z</time></trkpt><trkpt lat="43.137455" lon="11.49365"><ele>169.0</ele><time>2026-04-18T14:31:35.001Z</time></trkpt><trkpt lat="43.137435" lon="11.49384"><ele>169.0</ele><time>2026-04-18T14:31:36Z</time></trkpt><trkpt lat="43.1374" lon="11.4940217"><ele>169.0</ele><time>2026-04-18T14:31:37Z</time></trkpt><trkpt lat="43.13728" lon="11.4943533"><ele>168.33333333333334</ele><time>2026-04-18T14:31:39Z</time></trkpt><trkpt lat="43.137195" lon="11.49452"><ele>167.66666666666666</ele><time>2026-04-18T14:31:40Z</time></trkpt><trkpt lat="43.13711" lon="11.4946867"><ele>167.0</ele><time>2026-04-18T14:31:41Z</time></trkpt><trkpt lat="43.1370083" lon="11.4948617"><ele>167.0</ele><time>2026-04-18T14:31:42Z</time></trkpt><trkpt lat="43.1369033" lon="11.4950383"><ele>167.0</ele><time>2026-04-18T14:31:43Z</time></trkpt><trkpt lat="43.1367967" lon="11.4952233"><ele>167.0</ele><time>2026-04-18T14:31:44Z</time></trkpt><trkpt lat="43.1366867" lon="11.4954117"><ele>165.0</ele><time>2026-04-18T14:31:45Z</time></trkpt><trkpt lat="43.13657" lon="11.495605"><ele>163.0</ele><time>2026-04-18T14:31:46Z</time></trkpt><trkpt lat="43.1363433" lon="11.4960083"><ele>163.0</ele><time>2026-04-18T14:31:48Z</time></trkpt><trkpt lat="43.1362317" lon="11.4962033"><ele>163.0</ele><time>2026-04-18T14:31:49Z</time></trkpt><trkpt lat="43.13611" lon="11.4964"><ele>163.0</ele><time>2026-04-18T14:31:50.001Z</time></trkpt><trkpt lat="43.1359917" lon="11.4966067"><ele>162.66666666666669</ele><time>2026-04-18T14:31:51.001Z</time></trkpt><trkpt lat="43.1358717" lon="11.4967983"><ele>162.33333333333334</ele><time>2026-04-18T14:31:52Z</time></trkpt><trkpt lat="43.1357533" lon="11.49699"><ele>162.0</ele><time>2026-04-18T14:31:53.001Z</time></trkpt><trkpt lat="43.1356417" lon="11.4972083"><ele>161.5</ele><time>2026-04-18T14:31:54Z</time></trkpt><trkpt lat="43.1355433" lon="11.4974383"><ele>161.0</ele><time>2026-04-18T14:31:55Z</time></trkpt><trkpt lat="43.1353633" lon="11.4979167"><ele>161.33333333333331</ele><time>2026-04-18T14:31:57Z</time></trkpt><trkpt lat="43.1352883" lon="11.4981633"><ele>161.66666666666666</ele><time>2026-04-18T14:31:58Z</time></trkpt><trkpt lat="43.1352083" lon="11.4984183"><ele>162.0</ele><time>2026-04-18T14:31:59Z</time></trkpt><trkpt lat="43.1351283" lon="11.4986583"><ele>164.33333333333334</ele><time>2026-04-18T14:32:00Z</time></trkpt><trkpt lat="43.13505" lon="11.4988967"><ele>166.66666666666669</ele><time>2026-04-18T14:32:01Z</time></trkpt><trkpt lat="43.1349767" lon="11.4991367"><ele>169.0</ele><time>2026-04-18T14:32:02.001Z</time></trkpt><trkpt lat="43.1349033" lon="11.499375"><ele>172.5</ele><time>2026-04-18T14:32:03Z</time></trkpt><trkpt lat="43.1348367" lon="11.4996067"><ele>176.0</ele><time>2026-04-18T14:32:04Z</time></trkpt><trkpt lat="43.1347283" lon="11.5000783"><ele>176.0</ele><time>2026-04-18T14:32:06Z</time></trkpt><trkpt lat="43.1346817" lon="11.5003167"><ele>176.0</ele><time>2026-04-18T14:32:07Z</time></trkpt><trkpt lat="43.1346367" lon="11.500555"><ele>176.0</ele><time>2026-04-18T14:32:08Z</time></trkpt><trkpt lat="43.1345933" lon="11.500785"><ele>179.0</ele><time>2026-04-18T14:32:09.001Z</time></trkpt><trkpt lat="43.1345433" lon="11.5010333"><ele>182.0</ele><time>2026-04-18T14:32:10Z</time></trkpt><trkpt lat="43.1344983" lon="11.50129"><ele>185.0</ele><time>2026-04-18T14:32:11Z</time></trkpt><trkpt lat="43.13445" lon="11.50154"><ele>189.5</ele><time>2026-04-18T14:32:12Z</time></trkpt><trkpt lat="43.1344017" lon="11.5017867"><ele>194.0</ele><time>2026-04-18T14:32:13.001Z</time></trkpt><trkpt lat="43.1343117" lon="11.5022717"><ele>196.66666666666669</ele><time>2026-04-18T14:32:15.001Z</time></trkpt><trkpt lat="43.1342667" lon="11.5025083"><ele>199.33333333333331</ele><time>2026-04-18T14:32:16.001Z</time></trkpt><trkpt lat="43.1342233" lon="11.5027483"><ele>202.0</ele><time>2026-04-18T14:32:17.001Z</time></trkpt><trkpt lat="43.1341783" lon="11.5029767"><ele>204.0</ele><time>2026-04-18T14:32:18.001Z</time></trkpt><trkpt lat="43.13413" lon="11.5032067"><ele>206.0</ele><time>2026-04-18T14:32:19Z</time></trkpt><trkpt lat="43.1340833" lon="11.5034283"><ele>208.0</ele><time>2026-04-18T14:32:20Z</time></trkpt><trkpt lat="43.1340333" lon="11.50365"><ele>210.5</ele><time>2026-04-18T14:32:21.001Z</time></trkpt><trkpt lat="43.1339933" lon="11.5038617"><ele>213.0</ele><time>2026-04-18T14:32:22Z</time></trkpt><trkpt lat="43.1339183" lon="11.5042983"><ele>213.0</ele><time>2026-04-18T14:32:24Z</time></trkpt><trkpt lat="43.133895" lon="11.5045183"><ele>213.0</ele><time>2026-04-18T14:32:25.001Z</time></trkpt><trkpt lat="43.1338633" lon="11.5047433"><ele>213.0</ele><time>2026-04-18T14:32:26Z</time></trkpt><trkpt lat="43.1338383" lon="11.5049683"><ele>212.33333333333331</ele><time>2026-04-18T14:32:27Z</time></trkpt><trkpt lat="43.13381" lon="11.5051933"><ele>211.66666666666666</ele><time>2026-04-18T14:32:28.001Z</time></trkpt><trkpt lat="43.1337817" lon="11.505425"><ele>211.0</ele><time>2026-04-18T14:32:29Z</time></trkpt><trkpt lat="43.1337533" lon="11.5056617"><ele>211.5</ele><time>2026-04-18T14:32:30.001Z</time></trkpt><trkpt lat="43.13372" lon="11.5059"><ele>212.0</ele><time>2026-04-18T14:32:31.001Z</time></trkpt><trkpt lat="43.1336717" lon="11.506395"><ele>212.0</ele><time>2026-04-18T14:32:33.001Z</time></trkpt><trkpt lat="43.1336367" lon="11.506625"><ele>212.0</ele><time>2026-04-18T14:32:34.001Z</time></trkpt><trkpt lat="43.1336083" lon="11.5068467"><ele>212.0</ele><time>2026-04-18T14:32:35.001Z</time></trkpt><trkpt lat="43.1335833" lon="11.507065"><ele>212.66666666666669</ele><time>2026-04-18T14:32:36Z</time></trkpt><trkpt lat="43.133555" lon="11.507275"><ele>213.33333333333331</ele><time>2026-04-18T14:32:37.001Z</time></trkpt><trkpt lat="43.1335283" lon="11.5074933"><ele>214.0</ele><time>2026-04-18T14:32:38Z</time></trkpt><trkpt lat="43.1335183" lon="11.5077133"><ele>217.0</ele><time>2026-04-18T14:32:39Z</time></trkpt><trkpt lat="43.133535" lon="11.5079333"><ele>220.0</ele><time>2026-04-18T14:32:40.001Z</time></trkpt><trkpt lat="43.1336283" lon="11.5083767"><ele>220.0</ele><time>2026-04-18T14:32:42Z</time></trkpt><trkpt lat="43.1336783" lon="11.5085933"><ele>220.0</ele><time>2026-04-18T14:32:43.001Z</time></trkpt><trkpt lat="43.1337267" lon="11.50881"><ele>220.0</ele><time>2026-04-18T14:32:44Z</time></trkpt><trkpt lat="43.1337883" lon="11.5090217"><ele>222.0</ele><time>2026-04-18T14:32:45Z</time></trkpt><trkpt lat="43.1338567" lon="11.5092233"><ele>224.0</ele><time>2026-04-18T14:32:46.001Z</time></trkpt><trkpt lat="43.1339283" lon="11.5094183"><ele>226.0</ele><time>2026-04-18T14:32:47Z</time></trkpt><trkpt lat="43.1340083" lon="11.5096033"><ele>229.5</ele><time>2026-04-18T14:32:48Z</time></trkpt><trkpt lat="43.1341" lon="11.509785"><ele>233.0</ele><time>2026-04-18T14:32:49Z</time></trkpt><trkpt lat="43.1342633" lon="11.5101567"><ele>233.0</ele><time>2026-04-18T14:32:51.001Z</time></trkpt><trkpt lat="43.1343417" lon="11.51034"><ele>233.0</ele><time>2026-04-18T14:32:52.001Z</time></trkpt><trkpt lat="43.13442" lon="11.5104967"><ele>233.0</ele><time>2026-04-18T14:32:53.001Z</time></trkpt><trkpt lat="43.1344917" lon="11.51065"><ele>233.0</ele><time>2026-04-18T14:32:54Z</time></trkpt><trkpt lat="43.1345617" lon="11.5107983"><ele>234.0</ele><time>2026-04-18T14:32:55.001Z</time></trkpt><trkpt lat="43.134625" lon="11.5109367"><ele>235.0</ele><time>2026-04-18T14:32:56.001Z</time></trkpt><trkpt lat="43.134685" lon="11.5110633"><ele>236.0</ele><time>2026-04-18T14:32:57Z</time></trkpt><trkpt lat="43.134745" lon="11.511195"><ele>237.0</ele><time>2026-04-18T14:32:58.001Z</time></trkpt><trkpt lat="43.1349" lon="11.5115217"><ele>237.0</ele><time>2026-04-18T14:33:00Z</time></trkpt><trkpt lat="43.13499" lon="11.5116933"><ele>237.0</ele><time>2026-04-18T14:33:01Z</time></trkpt><trkpt lat="43.1350817" lon="11.5118517"><ele>237.0</ele><time>2026-04-18T14:33:02Z</time></trkpt><trkpt lat="43.1351717" lon="11.51201"><ele>237.0</ele><time>2026-04-18T14:33:03Z</time></trkpt><trkpt lat="43.13526" lon="11.51217"><ele>233.66666666666669</ele><time>2026-04-18T14:33:04.001Z</time></trkpt><trkpt lat="43.1353383" lon="11.51234"><ele>230.33333333333334</ele><time>2026-04-18T14:33:05.001Z</time></trkpt><trkpt lat="43.1354117" lon="11.5125217"><ele>227.0</ele><time>2026-04-18T14:33:06Z</time></trkpt><trkpt lat="43.1354733" lon="11.51273"><ele>224.5</ele><time>2026-04-18T14:33:07Z</time></trkpt><trkpt lat="43.1355967" lon="11.5131133"><ele>222.0</ele><time>2026-04-18T14:33:09Z</time></trkpt><trkpt lat="43.135665" lon="11.5132967"><ele>224.33333333333331</ele><time>2026-04-18T14:33:10.001Z</time></trkpt><trkpt lat="43.1357467" lon="11.5134817"><ele>226.66666666666666</ele><time>2026-04-18T14:33:11Z</time></trkpt><trkpt lat="43.13583" lon="11.5136567"><ele>229.0</ele><time>2026-04-18T14:33:12Z</time></trkpt><trkpt lat="43.1359167" lon="11.5138233"><ele>229.0</ele><time>2026-04-18T14:33:13Z</time></trkpt><trkpt lat="43.1360033" lon="11.51398"><ele>229.0</ele><time>2026-04-18T14:33:14.001Z</time></trkpt><trkpt lat="43.1360867" lon="11.5141317"><ele>229.0</ele><time>2026-04-18T14:33:15.001Z</time></trkpt><trkpt lat="43.13616" lon="11.5142783"><ele>229.0</ele><time>2026-04-18T14:33:16Z</time></trkpt><trkpt lat="43.1362683" lon="11.5145617"><ele>228.25</ele><time>2026-04-18T14:33:18.001Z</time></trkpt><trkpt lat="43.13631" lon="11.5147233"><ele>227.5</ele><time>2026-04-18T14:33:19Z</time></trkpt><trkpt lat="43.1363317" lon="11.5148983"><ele>226.75</ele><time>2026-04-18T14:33:20.001Z</time></trkpt><trkpt lat="43.13632" lon="11.5150833"><ele>226.0</ele><time>2026-04-18T14:33:21Z</time></trkpt><trkpt lat="43.1363" lon="11.5152717"><ele>226.75</ele><time>2026-04-18T14:33:22Z</time></trkpt><trkpt lat="43.1362683" lon="11.5154433"><ele>227.5</ele><time>2026-04-18T14:33:23Z</time></trkpt><trkpt lat="43.1362133" lon="11.5155967"><ele>228.25</ele><time>2026-04-18T14:33:24Z</time></trkpt><trkpt lat="43.1361317" lon="11.515725"><ele>229.0</ele><time>2026-04-18T14:33:25Z</time></trkpt><trkpt lat="43.1358967" lon="11.51595"><ele>229.0</ele><time>2026-04-18T14:33:27.001Z</time></trkpt><trkpt lat="43.1357667" lon="11.5160767"><ele>229.0</ele><time>2026-04-18T14:33:28Z</time></trkpt><trkpt lat="43.13565" lon="11.51625"><ele>229.0</ele><time>2026-04-18T14:33:29Z</time></trkpt><trkpt lat="43.1355233" lon="11.51646"><ele>232.66666666666666</ele><time>2026-04-18T14:33:30.001Z</time></trkpt><trkpt lat="43.135395" lon="11.5166883"><ele>236.33333333333331</ele><time>2026-04-18T14:33:31.001Z</time></trkpt><trkpt lat="43.1352767" lon="11.5168883"><ele>240.0</ele><time>2026-04-18T14:33:32.001Z</time></trkpt><trkpt lat="43.135165" lon="11.51706"><ele>238.33333333333331</ele><time>2026-04-18T14:33:33Z</time></trkpt><trkpt lat="43.135065" lon="11.5172217"><ele>236.66666666666666</ele><time>2026-04-18T14:33:34.001Z</time></trkpt><trkpt lat="43.1348883" lon="11.5175183"><ele>235.0</ele><time>2026-04-18T14:33:36Z</time></trkpt><trkpt lat="43.13481" lon="11.517645"><ele>237.0</ele><time>2026-04-18T14:33:37Z</time></trkpt><trkpt lat="43.1347383" lon="11.5177767"><ele>239.0</ele><time>2026-04-18T14:33:38Z</time></trkpt><trkpt lat="43.1346867" lon="11.5179167"><ele>241.0</ele><time>2026-04-18T14:33:39Z</time></trkpt><trkpt lat="43.1346517" lon="11.518075"><ele>243.0</ele><time>2026-04-18T14:33:40Z</time></trkpt><trkpt lat="43.1346283" lon="11.5182383"><ele>243.0</ele><time>2026-04-18T14:33:41Z</time></trkpt><trkpt lat="43.1346133" lon="11.5184033"><ele>243.0</ele><time>2026-04-18T14:33:42Z</time></trkpt><trkpt lat="43.1346233" lon="11.5185833"><ele>243.0</ele><time>2026-04-18T14:33:43Z</time></trkpt><trkpt lat="43.134655" lon="11.51898"><ele>239.75</ele><time>2026-04-18T14:33:45.001Z</time></trkpt><trkpt lat="43.13467" lon="11.519165"><ele>236.5</ele><time>2026-04-18T14:33:46Z</time></trkpt><trkpt lat="43.1347" lon="11.5193667"><ele>233.25</ele><time>2026-04-18T14:33:47.001Z</time></trkpt><trkpt lat="43.13475" lon="11.5195767"><ele>230.0</ele><time>2026-04-18T14:33:48Z</time></trkpt><trkpt lat="43.1348117" lon="11.519795"><ele>232.0</ele><time>2026-04-18T14:33:49Z</time></trkpt><trkpt lat="43.13487" lon="11.5200017"><ele>234.0</ele><time>2026-04-18T14:33:50.001Z</time></trkpt><trkpt lat="43.1349083" lon="11.52021"><ele>236.0</ele><time>2026-04-18T14:33:51.001Z</time></trkpt><trkpt lat="43.1349433" lon="11.5204117"><ele>236.0</ele><time>2026-04-18T14:33:52.001Z</time></trkpt><trkpt lat="43.1349883" lon="11.5208233"><ele>236.0</ele><time>2026-04-18T14:33:54Z</time></trkpt><trkpt lat="43.1349967" lon="11.52102"><ele>236.0</ele><time>2026-04-18T14:33:55Z</time></trkpt><trkpt lat="43.134995" lon="11.521215"><ele>236.25</ele><time>2026-04-18T14:33:56Z</time></trkpt><trkpt lat="43.134995" lon="11.52141"><ele>236.5</ele><time>2026-04-18T14:33:57Z</time></trkpt><trkpt lat="43.13499" lon="11.5216"><ele>236.75</ele><time>2026-04-18T14:33:58.001Z</time></trkpt><trkpt lat="43.1349883" lon="11.52179"><ele>237.0</ele><time>2026-04-18T14:33:59.001Z</time></trkpt><trkpt lat="43.1349817" lon="11.5219817"><ele>238.33333333333331</ele><time>2026-04-18T14:34:00Z</time></trkpt><trkpt lat="43.134975" lon="11.5221767"><ele>239.66666666666666</ele><time>2026-04-18T14:34:01.001Z</time></trkpt><trkpt lat="43.1349717" lon="11.522545"><ele>241.0</ele><time>2026-04-18T14:34:03.001Z</time></trkpt><trkpt lat="43.13498" lon="11.52273"><ele>242.5</ele><time>2026-04-18T14:34:04.001Z</time></trkpt><trkpt lat="43.1349817" lon="11.5229117"><ele>244.0</ele><time>2026-04-18T14:34:05Z</time></trkpt><trkpt lat="43.1349883" lon="11.52309"><ele>245.5</ele><time>2026-04-18T14:34:06.001Z</time></trkpt><trkpt lat="43.1350017" lon="11.5232667"><ele>247.0</ele><time>2026-04-18T14:34:07Z</time></trkpt><trkpt lat="43.1350133" lon="11.5234467"><ele>247.0</ele><time>2026-04-18T14:34:08.001Z</time></trkpt><trkpt lat="43.13503" lon="11.5236267"><ele>247.0</ele><time>2026-04-18T14:34:09Z</time></trkpt><trkpt lat="43.1350417" lon="11.5238033"><ele>247.0</ele><time>2026-04-18T14:34:10Z</time></trkpt><trkpt lat="43.1350567" lon="11.52414"><ele>248.25</ele><time>2026-04-18T14:34:12.001Z</time></trkpt><trkpt lat="43.13505" lon="11.5243067"><ele>249.5</ele><time>2026-04-18T14:34:13.001Z</time></trkpt><trkpt lat="43.1350333" lon="11.5244717"><ele>250.75</ele><time>2026-04-18T14:34:14.001Z</time></trkpt><trkpt lat="43.1349983" lon="11.5246333"><ele>252.0</ele><time>2026-04-18T14:34:15.001Z</time></trkpt><trkpt lat="43.1349567" lon="11.5247967"><ele>252.0</ele><time>2026-04-18T14:34:16Z</time></trkpt><trkpt lat="43.1349067" lon="11.5249667"><ele>252.0</ele><time>2026-04-18T14:34:17.001Z</time></trkpt><trkpt lat="43.1348483" lon="11.52513"><ele>252.0</ele><time>2026-04-18T14:34:18Z</time></trkpt><trkpt lat="43.134795" lon="11.5252883"><ele>252.0</ele><time>2026-04-18T14:34:19Z</time></trkpt><trkpt lat="43.134685" lon="11.5255867"><ele>251.6</ele><time>2026-04-18T14:34:21Z</time></trkpt><trkpt lat="43.1346317" lon="11.5257167"><ele>251.2</ele><time>2026-04-18T14:34:22Z</time></trkpt><trkpt lat="43.1345833" lon="11.5258317"><ele>250.8</ele><time>2026-04-18T14:34:23Z</time></trkpt><trkpt lat="43.1345483" lon="11.525945"><ele>250.4</ele><time>2026-04-18T14:34:24Z</time></trkpt><trkpt lat="43.1345233" lon="11.5260733"><ele>250.0</ele><time>2026-04-18T14:34:25.001Z</time></trkpt><trkpt lat="43.13451" lon="11.526215"><ele>251.0</ele><time>2026-04-18T14:34:26Z</time></trkpt><trkpt lat="43.1344983" lon="11.5263533"><ele>252.0</ele><time>2026-04-18T14:34:27.001Z</time></trkpt><trkpt lat="43.1344883" lon="11.5264983"><ele>253.0</ele><time>2026-04-18T14:34:28Z</time></trkpt><trkpt lat="43.1344633" lon="11.5267967"><ele>254.0</ele><time>2026-04-18T14:34:30.001Z</time></trkpt><trkpt lat="43.1344467" lon="11.5269483"><ele>255.2</ele><time>2026-04-18T14:34:31Z</time></trkpt><trkpt lat="43.134435" lon="11.5271067"><ele>256.4</ele><time>2026-04-18T14:34:32.001Z</time></trkpt><trkpt lat="43.1344233" lon="11.5272617"><ele>257.6</ele><time>2026-04-18T14:34:33Z</time></trkpt><trkpt lat="43.1344117" lon="11.5274117"><ele>258.8</ele><time>2026-04-18T14:34:34Z</time></trkpt><trkpt lat="43.1344" lon="11.5275583"><ele>260.0</ele><time>2026-04-18T14:34:35.001Z</time></trkpt><trkpt lat="43.13439" lon="11.5277"><ele>260.0</ele><time>2026-04-18T14:34:36.001Z</time></trkpt><trkpt lat="43.1343783" lon="11.5278317"><ele>260.0</ele><time>2026-04-18T14:34:37Z</time></trkpt><trkpt lat="43.1343517" lon="11.5281"><ele>260.0</ele><time>2026-04-18T14:34:39Z</time></trkpt><trkpt lat="43.1343367" lon="11.528235"><ele>260.0</ele><time>2026-04-18T14:34:40.001Z</time></trkpt><trkpt lat="43.1343317" lon="11.528365"><ele>260.4</ele><time>2026-04-18T14:34:41.001Z</time></trkpt><trkpt lat="43.13434" lon="11.5284883"><ele>260.8</ele><time>2026-04-18T14:34:42Z</time></trkpt><trkpt lat="43.13436" lon="11.528605"><ele>261.2</ele><time>2026-04-18T14:34:43Z</time></trkpt><trkpt lat="43.13439" lon="11.5287067"><ele>261.6</ele><time>2026-04-18T14:34:44Z</time></trkpt><trkpt lat="43.134415" lon="11.5287967"><ele>262.0</ele><time>2026-04-18T14:34:45.001Z</time></trkpt><trkpt lat="43.1344983" lon="11.5289283"><ele>262.0</ele><time>2026-04-18T14:34:48Z</time></trkpt><trkpt lat="43.1345917" lon="11.5289283"><ele>262.0</ele><time>2026-04-18T14:34:50.001Z</time></trkpt><trkpt lat="43.1347033" lon="11.5289117"><ele>262.0</ele><time>2026-04-18T14:34:52Z</time></trkpt><trkpt lat="43.1347733" lon="11.5289033"><ele>262.0</ele><time>2026-04-18T14:34:53.001Z</time></trkpt><trkpt lat="43.13485" lon="11.5288983"><ele>262.0</ele><time>2026-04-18T14:34:54Z</time></trkpt><trkpt lat="43.134925" lon="11.528895"><ele>262.0</ele><time>2026-04-18T14:34:55Z</time></trkpt><trkpt lat="43.135075" lon="11.5288833"><ele>275.0</ele><time>2026-04-18T14:34:57.001Z</time></trkpt><trkpt lat="43.13514" lon="11.5288717"><ele>275.0</ele><time>2026-04-18T14:34:58Z</time></trkpt><trkpt lat="43.135205" lon="11.5288667"><ele>275.0</ele><time>2026-04-18T14:34:59.001Z</time></trkpt><trkpt lat="43.135305" lon="11.5288633"><ele>275.0</ele><time>2026-04-18T14:35:01Z</time></trkpt><trkpt lat="43.13537" lon="11.5288717"><ele>275.0</ele><time>2026-04-18T14:35:04.001Z</time></trkpt><trkpt lat="43.1354433" lon="11.5289417"><ele>275.0</ele><time>2026-04-18T14:35:07.001Z</time></trkpt></trkseg></trk></gpx>